<?xml version='1.0' encoding='UTF-8'?><gpx version="1.1" creator="JPX - https://github.com/jenetics/jpx" xmlns="http://www.topografix.com/GPX/1/1"><trk><trkseg><trkpt lat="43.248989990079785" lon="13.326946023497912"><ele>258.0</ele><time>2026-04-24T15:18:07Z</time></trkpt><trkpt lat="43.24898405814802" lon="13.327054331474917"><ele>258.0</ele><time>2026-04-24T15:18:09Z</time></trkpt><trkpt lat="43.249038461988036" lon="13.327118871397099"><ele>258.0</ele><time>2026-04-24T15:18:11Z</time></trkpt><trkpt lat="43.2491008966443" lon="13.327163961064773"><ele>258.0</ele><time>2026-04-24T15:18:13Z</time></trkpt><trkpt lat="43.249165835823476" lon="13.327178738272279"><ele>258.0</ele><time>2026-04-24T15:18:15Z</time></trkpt><trkpt lat="43.24925402572186" lon="13.32720075661198"><ele>258.0</ele><time>2026-04-24T15:18:17Z</time></trkpt><trkpt lat="43.24934255002249" lon="13.327232677491144"><ele>258.4</ele><time>2026-04-24T15:18:19Z</time></trkpt><trkpt lat="43.24942524175551" lon="13.327308875797385"><ele>258.8</ele><time>2026-04-24T15:18:21Z</time></trkpt><trkpt lat="43.24944601109011" lon="13.327440949996845"><ele>259.2</ele><time>2026-04-24T15:18:23Z</time></trkpt><trkpt lat="43.24944878944972" lon="13.327597301553848"><ele>259.6</ele><time>2026-04-24T15:18:25Z</time></trkpt><trkpt lat="43.24946680642106" lon="13.327742678014536"><ele>260.0</ele><time>2026-04-24T15:18:26.999Z</time></trkpt><trkpt lat="43.24954080052868" lon="13.327859796212088"><ele>260.0</ele><time>2026-04-24T15:18:28.999Z</time></trkpt><trkpt lat="43.249618234039275" lon="13.327850648121986"><ele>260.0</ele><time>2026-04-24T15:18:29.998Z</time></trkpt><trkpt lat="43.24973459970206" lon="13.32786759596945"><ele>260.0</ele><time>2026-04-24T15:18:31.998Z</time></trkpt><trkpt lat="43.24985431632105" lon="13.327894360667573"><ele>260.0</ele><time>2026-04-24T15:18:33.998Z</time></trkpt><trkpt lat="43.249969632962475" lon="13.327925920398995"><ele>260.0</ele><time>2026-04-24T15:18:35.998Z</time></trkpt><trkpt lat="43.250083618506224" lon="13.327957267933014"><ele>262.75</ele><time>2026-04-24T15:18:37.998Z</time></trkpt><trkpt lat="43.250202438250376" lon="13.327985572473288"><ele>265.5</ele><time>2026-04-24T15:18:39.998Z</time></trkpt><trkpt lat="43.25031712412066" lon="13.328013225961676"><ele>268.25</ele><time>2026-04-24T15:18:41.998Z</time></trkpt><trkpt lat="43.25041784628167" lon="13.328061602821732"><ele>271.0</ele><time>2026-04-24T15:18:44Z</time></trkpt><trkpt lat="43.2505292670097" lon="13.328091184327173"><ele>273.2</ele><time>2026-04-24T15:18:46Z</time></trkpt><trkpt lat="43.25064089198641" lon="13.328098550006159"><ele>275.40000000000003</ele><time>2026-04-24T15:18:48Z</time></trkpt><trkpt lat="43.25073722391241" lon="13.328122730464633"><ele>277.6</ele><time>2026-04-24T15:18:50Z</time></trkpt><trkpt lat="43.25084644363596" lon="13.328159487351837"><ele>279.8</ele><time>2026-04-24T15:18:52Z</time></trkpt><trkpt lat="43.25094858809953" lon="13.328184318041135"><ele>282.0</ele><time>2026-04-24T15:18:54Z</time></trkpt><trkpt lat="43.25102252301078" lon="13.32820675643034"><ele>282.0</ele><time>2026-04-24T15:18:56Z</time></trkpt><trkpt lat="43.25101555616294" lon="13.328351706303467"><ele>282.0</ele><time>2026-04-24T15:18:58Z</time></trkpt><trkpt lat="43.25104877919699" lon="13.328489755877994"><ele>282.0</ele><time>2026-04-24T15:19:00Z</time></trkpt><trkpt lat="43.25107275055287" lon="13.328628369381093"><ele>282.0</ele><time>2026-04-24T15:19:02Z</time></trkpt><trkpt lat="43.251124250694986" lon="13.328710468479924"><ele>282.0</ele><time>2026-04-24T15:19:04Z</time></trkpt><trkpt lat="43.25121068369681" lon="13.328708977376541"><ele>282.0</ele><time>2026-04-24T15:19:06Z</time></trkpt><trkpt lat="43.25127225810394" lon="13.328688007973929"><ele>282.0</ele><time>2026-04-24T15:19:07Z</time></trkpt><trkpt lat="43.25136808639176" lon="13.32868321175994"><ele>282.0</ele><time>2026-04-24T15:19:08.999Z</time></trkpt><trkpt lat="43.25144726770311" lon="13.328742627407767"><ele>282.0</ele><time>2026-04-24T15:19:10.999Z</time></trkpt><trkpt lat="43.25151640069103" lon="13.328863297512585"><ele>282.0</ele><time>2026-04-24T15:19:12.999Z</time></trkpt><trkpt lat="43.25155669652486" lon="13.328971731520939"><ele>281.6</ele><time>2026-04-24T15:19:14.999Z</time></trkpt><trkpt lat="43.25161811175663" lon="13.329012791139487"><ele>281.2</ele><time>2026-04-24T15:19:17.999Z</time></trkpt><trkpt lat="43.251678727450646" lon="13.32886403272929"><ele>280.8</ele><time>2026-04-24T15:19:35.999Z</time></trkpt><trkpt lat="43.25166031134297" lon="13.328751146465232"><ele>280.4</ele><time>2026-04-24T15:19:36.999Z</time></trkpt><trkpt lat="43.25164838559432" lon="13.32863869182862"><ele>280.0</ele><time>2026-04-24T15:19:37.999Z</time></trkpt><trkpt lat="43.251637178857926" lon="13.32851176998742"><ele>279.0</ele><time>2026-04-24T15:19:38.999Z</time></trkpt><trkpt lat="43.25162830064535" lon="13.32837732529013"><ele>278.0</ele><time>2026-04-24T15:19:39.999Z</time></trkpt><trkpt lat="43.25162028620109" lon="13.328228127618024"><ele>277.0</ele><time>2026-04-24T15:19:40.999Z</time></trkpt><trkpt lat="43.25161038307285" lon="13.328074793846444"><ele>276.0</ele><time>2026-04-24T15:19:41.999Z</time></trkpt><trkpt lat="43.25159984681375" lon="13.32791858572798"><ele>275.0</ele><time>2026-04-24T15:19:42.999Z</time></trkpt><trkpt lat="43.25158928717454" lon="13.327739168784776"><ele>274.25</ele><time>2026-04-24T15:19:43.999Z</time></trkpt><trkpt lat="43.25157828571023" lon="13.32755791290956"><ele>273.5</ele><time>2026-04-24T15:19:44.999Z</time></trkpt><trkpt lat="43.25157162353229" lon="13.327394658749073"><ele>272.75</ele><time>2026-04-24T15:19:45.999Z</time></trkpt><trkpt lat="43.25155407320146" lon="13.327209583268855"><ele>272.0</ele><time>2026-04-24T15:19:46.999Z</time></trkpt><trkpt lat="43.25154429545822" lon="13.32700488148166"><ele>270.6666666666667</ele><time>2026-04-24T15:19:47.999Z</time></trkpt><trkpt lat="43.251530618818805" lon="13.326801930693904"><ele>269.3333333333333</ele><time>2026-04-24T15:19:48.999Z</time></trkpt><trkpt lat="43.25151603786404" lon="13.326591858401148"><ele>268.0</ele><time>2026-04-24T15:19:49.999Z</time></trkpt><trkpt lat="43.25150004239957" lon="13.326382099443952"><ele>268.0</ele><time>2026-04-24T15:19:50.999Z</time></trkpt><trkpt lat="43.25148899919864" lon="13.326175298312043"><ele>268.0</ele><time>2026-04-24T15:19:51.999Z</time></trkpt><trkpt lat="43.251470259032246" lon="13.325972127125047"><ele>268.0</ele><time>2026-04-24T15:19:52.999Z</time></trkpt><trkpt lat="43.25143882981194" lon="13.325784018644386"><ele>268.0</ele><time>2026-04-24T15:19:53.999Z</time></trkpt><trkpt lat="43.251379102169935" lon="13.325615084136349"><ele>266.5</ele><time>2026-04-24T15:19:54.999Z</time></trkpt><trkpt lat="43.25128610017453" lon="13.325473123223738"><ele>265.0</ele><time>2026-04-24T15:19:55.999Z</time></trkpt><trkpt lat="43.25116588604007" lon="13.325361241725595"><ele>263.5</ele><time>2026-04-24T15:19:56.999Z</time></trkpt><trkpt lat="43.25103290772993" lon="13.325257604081926"><ele>262.0</ele><time>2026-04-24T15:19:57.999Z</time></trkpt><trkpt lat="43.25089600720893" lon="13.32515112483213"><ele>262.0</ele><time>2026-04-24T15:19:58.999Z</time></trkpt><trkpt lat="43.25076313569319" lon="13.325040813595148"><ele>262.0</ele><time>2026-04-24T15:19:59.999Z</time></trkpt><trkpt lat="43.25063348371091" lon="13.324928470316872"><ele>262.0</ele><time>2026-04-24T15:20:00.999Z</time></trkpt><trkpt lat="43.25050368241579" lon="13.324809546337274"><ele>259.66666666666663</ele><time>2026-04-24T15:20:01.999Z</time></trkpt><trkpt lat="43.25036767878784" lon="13.324699108555697"><ele>257.3333333333333</ele><time>2026-04-24T15:20:02.999Z</time></trkpt><trkpt lat="43.250249159865454" lon="13.324562945080277"><ele>255.0</ele><time>2026-04-24T15:20:03.999Z</time></trkpt><trkpt lat="43.25017056409351" lon="13.324383494322147"><ele>255.0</ele><time>2026-04-24T15:20:04.999Z</time></trkpt><trkpt lat="43.25011959481808" lon="13.32418882635831"><ele>255.0</ele><time>2026-04-24T15:20:05.999Z</time></trkpt><trkpt lat="43.25009092573143" lon="13.323974830998157"><ele>255.0</ele><time>2026-04-24T15:20:06.999Z</time></trkpt><trkpt lat="43.25005864672643" lon="13.323760467648633"><ele>253.66666666666669</ele><time>2026-04-24T15:20:07.999Z</time></trkpt><trkpt lat="43.25004716683526" lon="13.323534939387537"><ele>252.33333333333334</ele><time>2026-04-24T15:20:08.999Z</time></trkpt><trkpt lat="43.250032536343866" lon="13.323315193405136"><ele>251.0</ele><time>2026-04-24T15:20:09.999Z</time></trkpt><trkpt lat="43.250014409925" lon="13.323090290518493"><ele>250.33333333333334</ele><time>2026-04-24T15:20:10.999Z</time></trkpt><trkpt lat="43.24999619499639" lon="13.32286599791077"><ele>249.66666666666669</ele><time>2026-04-24T15:20:11.999Z</time></trkpt><trkpt lat="43.24997715524502" lon="13.322632401043826"><ele>249.0</ele><time>2026-04-24T15:20:12.999Z</time></trkpt><trkpt lat="43.24996032332906" lon="13.322401175668057"><ele>248.66666666666669</ele><time>2026-04-24T15:20:13.999Z</time></trkpt><trkpt lat="43.249942208089536" lon="13.322163614031103"><ele>248.33333333333334</ele><time>2026-04-24T15:20:14.999Z</time></trkpt><trkpt lat="43.249925491514276" lon="13.321927059721997"><ele>248.0</ele><time>2026-04-24T15:20:15.999Z</time></trkpt><trkpt lat="43.24991093610181" lon="13.321696855076615"><ele>248.0</ele><time>2026-04-24T15:20:16.999Z</time></trkpt><trkpt lat="43.249890928356734" lon="13.321460805130275"><ele>248.0</ele><time>2026-04-24T15:20:17.999Z</time></trkpt><trkpt lat="43.24987255858945" lon="13.321232926953856"><ele>248.0</ele><time>2026-04-24T15:20:18.999Z</time></trkpt><trkpt lat="43.24985672828734" lon="13.321005681381498"><ele>246.0</ele><time>2026-04-24T15:20:19.999Z</time></trkpt><trkpt lat="43.24983635353328" lon="13.32077484996881"><ele>244.0</ele><time>2026-04-24T15:20:20.999Z</time></trkpt><trkpt lat="43.2498035977759" lon="13.320549242579792"><ele>242.0</ele><time>2026-04-24T15:20:21.999Z</time></trkpt><trkpt lat="43.24973822629686" lon="13.320334632275882"><ele>240.33333333333334</ele><time>2026-04-24T15:20:22.999Z</time></trkpt><trkpt lat="43.24963833311981" lon="13.320144113111661"><ele>238.66666666666669</ele><time>2026-04-24T15:20:23.999Z</time></trkpt><trkpt lat="43.24951679454473" lon="13.319971463370656"><ele>237.0</ele><time>2026-04-24T15:20:24.999Z</time></trkpt><trkpt lat="43.2493874173365" lon="13.319808766198356"><ele>235.33333333333331</ele><time>2026-04-24T15:20:25.999Z</time></trkpt><trkpt lat="43.249259706250314" lon="13.319639241954876"><ele>233.66666666666666</ele><time>2026-04-24T15:20:26.999Z</time></trkpt><trkpt lat="43.24913283743279" lon="13.319466420578475"><ele>232.0</ele><time>2026-04-24T15:20:27.999Z</time></trkpt><trkpt lat="43.249007547488354" lon="13.319293652049938"><ele>232.33333333333331</ele><time>2026-04-24T15:20:28.999Z</time></trkpt><trkpt lat="43.2488820450556" lon="13.319122867217002"><ele>232.66666666666669</ele><time>2026-04-24T15:20:29.999Z</time></trkpt><trkpt lat="43.24875389035028" lon="13.318948347065161"><ele>233.0</ele><time>2026-04-24T15:20:30.999Z</time></trkpt><trkpt lat="43.248630157963724" lon="13.318778013670629"><ele>232.33333333333334</ele><time>2026-04-24T15:20:31.999Z</time></trkpt><trkpt lat="43.248504873207686" lon="13.318613168306145"><ele>231.66666666666669</ele><time>2026-04-24T15:20:32.999Z</time></trkpt><trkpt lat="43.24837001633933" lon="13.31846304416285"><ele>231.0</ele><time>2026-04-24T15:20:33.999Z</time></trkpt><trkpt lat="43.248230901280344" lon="13.31834693053824"><ele>230.75</ele><time>2026-04-24T15:20:34.998Z</time></trkpt><trkpt lat="43.24808160566644" lon="13.318255048653008"><ele>230.5</ele><time>2026-04-24T15:20:35.998Z</time></trkpt><trkpt lat="43.24794237677228" lon="13.318181341143505"><ele>230.25</ele><time>2026-04-24T15:20:36.998Z</time></trkpt><trkpt lat="43.247821216051136" lon="13.318114111487805"><ele>230.0</ele><time>2026-04-24T15:20:37.998Z</time></trkpt><trkpt lat="43.247712730477616" lon="13.318055476225535"><ele>230.33333333333334</ele><time>2026-04-24T15:20:38.998Z</time></trkpt><trkpt lat="43.24762437754165" lon="13.318010793511718"><ele>230.66666666666669</ele><time>2026-04-24T15:20:39.998Z</time></trkpt><trkpt lat="43.247560141404556" lon="13.317973554108477"><ele>231.0</ele><time>2026-04-24T15:20:40.998Z</time></trkpt><trkpt lat="43.24751214222421" lon="13.317915716878723"><ele>231.33333333333331</ele><time>2026-04-24T15:20:42.998Z</time></trkpt><trkpt lat="43.24749113350987" lon="13.317830806874811"><ele>231.66666666666666</ele><time>2026-04-24T15:20:54Z</time></trkpt><trkpt lat="43.24744661157527" lon="13.317664439970157"><ele>232.0</ele><time>2026-04-24T15:20:56Z</time></trkpt><trkpt lat="43.247358668922864" lon="13.317589748413766"><ele>232.0</ele><time>2026-04-24T15:20:57Z</time></trkpt><trkpt lat="43.24728931937191" lon="13.317512738761819"><ele>232.0</ele><time>2026-04-24T15:20:58Z</time></trkpt><trkpt lat="43.24719619226805" lon="13.317424342320571"><ele>232.0</ele><time>2026-04-24T15:20:59Z</time></trkpt><trkpt lat="43.24709639146929" lon="13.317340017929677"><ele>232.0</ele><time>2026-04-24T15:21:00Z</time></trkpt><trkpt lat="43.24698139548433" lon="13.317247599958957"><ele>232.75</ele><time>2026-04-24T15:21:01Z</time></trkpt><trkpt lat="43.24686565283371" lon="13.317154866743888"><ele>233.5</ele><time>2026-04-24T15:21:02Z</time></trkpt><trkpt lat="43.24674274863274" lon="13.317051059567065"><ele>234.25</ele><time>2026-04-24T15:21:03Z</time></trkpt><trkpt lat="43.2466080375382" lon="13.3169353826133"><ele>235.0</ele><time>2026-04-24T15:21:04Z</time></trkpt><trkpt lat="43.24649162083611" lon="13.316806104452574"><ele>235.0</ele><time>2026-04-24T15:21:05Z</time></trkpt><trkpt lat="43.24635689256213" lon="13.316683017966088"><ele>235.0</ele><time>2026-04-24T15:21:06Z</time></trkpt><trkpt lat="43.24621969101481" lon="13.31655767193424"><ele>235.0</ele><time>2026-04-24T15:21:07Z</time></trkpt><trkpt lat="43.24607111313121" lon="13.316448072239282"><ele>236.0</ele><time>2026-04-24T15:21:08Z</time></trkpt><trkpt lat="43.245930590565706" lon="13.316316342411168"><ele>237.0</ele><time>2026-04-24T15:21:09Z</time></trkpt><trkpt lat="43.24579093335318" lon="13.316183231239878"><ele>238.0</ele><time>2026-04-24T15:21:10Z</time></trkpt><trkpt lat="43.24566547250619" lon="13.316057078110749"><ele>239.0</ele><time>2026-04-24T15:21:11Z</time></trkpt><trkpt lat="43.245561862127744" lon="13.315903250917174"><ele>240.0</ele><time>2026-04-24T15:21:12Z</time></trkpt><trkpt lat="43.24547182861782" lon="13.315739452585872"><ele>241.0</ele><time>2026-04-24T15:21:13Z</time></trkpt><trkpt lat="43.24537686613864" lon="13.315601966588915"><ele>242.0</ele><time>2026-04-24T15:21:14Z</time></trkpt><trkpt lat="43.2452114117112" lon="13.315331460938022"><ele>243.66666666666669</ele><time>2026-04-24T15:21:15Z</time></trkpt><trkpt lat="43.24513660822655" lon="13.315131023526899"><ele>245.33333333333331</ele><time>2026-04-24T15:21:16Z</time></trkpt><trkpt lat="43.24507873866193" lon="13.314913380276764"><ele>247.0</ele><time>2026-04-24T15:21:17Z</time></trkpt><trkpt lat="43.24502378615257" lon="13.314689410739966"><ele>248.33333333333331</ele><time>2026-04-24T15:21:17.999Z</time></trkpt><trkpt lat="43.244962299917596" lon="13.314477824005033"><ele>249.66666666666669</ele><time>2026-04-24T15:21:18.999Z</time></trkpt><trkpt lat="43.244915374788796" lon="13.314255737540481"><ele>251.0</ele><time>2026-04-24T15:21:19.999Z</time></trkpt><trkpt lat="43.24486699683541" lon="13.314047675996283"><ele>250.5</ele><time>2026-04-24T15:21:20.999Z</time></trkpt><trkpt lat="43.24480981470129" lon="13.313853643715108"><ele>250.0</ele><time>2026-04-24T15:21:21.999Z</time></trkpt><trkpt lat="43.24470588935114" lon="13.313721896265903"><ele>249.5</ele><time>2026-04-24T15:21:22.999Z</time></trkpt><trkpt lat="43.244591864217746" lon="13.31359403997151"><ele>249.0</ele><time>2026-04-24T15:21:23.999Z</time></trkpt><trkpt lat="43.24444259023136" lon="13.313513300492495"><ele>253.66666666666669</ele><time>2026-04-24T15:21:24.999Z</time></trkpt><trkpt lat="43.24427722930884" lon="13.31343351436978"><ele>258.33333333333337</ele><time>2026-04-24T15:21:25.999Z</time></trkpt><trkpt lat="43.244107323871525" lon="13.31335194428688"><ele>263.0</ele><time>2026-04-24T15:21:26.999Z</time></trkpt><trkpt lat="43.24393955161729" lon="13.31327155185763"><ele>263.6666666666667</ele><time>2026-04-24T15:21:27.999Z</time></trkpt><trkpt lat="43.24377478150385" lon="13.313183255893943"><ele>264.3333333333333</ele><time>2026-04-24T15:21:28.999Z</time></trkpt><trkpt lat="43.243605305515615" lon="13.313088732360765"><ele>265.0</ele><time>2026-04-24T15:21:29.999Z</time></trkpt><trkpt lat="43.2434368580762" lon="13.312994457160137"><ele>265.0</ele><time>2026-04-24T15:21:30.999Z</time></trkpt><trkpt lat="43.24327217705149" lon="13.3129037737645"><ele>265.0</ele><time>2026-04-24T15:21:31.999Z</time></trkpt><trkpt lat="43.24310692890183" lon="13.312814364989952"><ele>265.0</ele><time>2026-04-24T15:21:32.999Z</time></trkpt><trkpt lat="43.242944136992215" lon="13.312727373234543"><ele>268.0</ele><time>2026-04-24T15:21:33.999Z</time></trkpt><trkpt lat="43.242785364490175" lon="13.312636486182864"><ele>271.0</ele><time>2026-04-24T15:21:34.999Z</time></trkpt><trkpt lat="43.242623070539004" lon="13.31255017742481"><ele>274.0</ele><time>2026-04-24T15:21:35.999Z</time></trkpt><trkpt lat="43.24246291331745" lon="13.312465927169848"><ele>274.0</ele><time>2026-04-24T15:21:36.999Z</time></trkpt><trkpt lat="43.242307557375135" lon="13.312383878472952"><ele>274.0</ele><time>2026-04-24T15:21:37.999Z</time></trkpt><trkpt lat="43.24215077671056" lon="13.312297418430934"><ele>274.0</ele><time>2026-04-24T15:21:38.999Z</time></trkpt><trkpt lat="43.24199731362197" lon="13.312214115320549"><ele>273.66666666666663</ele><time>2026-04-24T15:21:39.999Z</time></trkpt><trkpt lat="43.241841859729696" lon="13.312135628268416"><ele>273.3333333333333</ele><time>2026-04-24T15:21:40.999Z</time></trkpt><trkpt lat="43.24169439009989" lon="13.31205502421646"><ele>273.0</ele><time>2026-04-24T15:21:41.999Z</time></trkpt><trkpt lat="43.2415564309108" lon="13.311965697745837"><ele>273.0</ele><time>2026-04-24T15:21:42.999Z</time></trkpt><trkpt lat="43.241453653616894" lon="13.31184319257054"><ele>273.0</ele><time>2026-04-24T15:21:43.999Z</time></trkpt><trkpt lat="43.24136123545305" lon="13.311695036022005"><ele>273.0</ele><time>2026-04-24T15:21:44.999Z</time></trkpt><trkpt lat="43.241271071317826" lon="13.311532831219042"><ele>273.0</ele><time>2026-04-24T15:21:45.999Z</time></trkpt><trkpt lat="43.24116885911955" lon="13.311356062679852"><ele>272.5</ele><time>2026-04-24T15:21:46.999Z</time></trkpt><trkpt lat="43.24108662633594" lon="13.31119266549922"><ele>272.0</ele><time>2026-04-24T15:21:47.999Z</time></trkpt><trkpt lat="43.24100800844238" lon="13.311042320796528"><ele>271.5</ele><time>2026-04-24T15:21:48.999Z</time></trkpt><trkpt lat="43.24094464791684" lon="13.310923987357526"><ele>271.0</ele><time>2026-04-24T15:21:49.999Z</time></trkpt><trkpt lat="43.24089433375397" lon="13.310832991786944"><ele>271.0</ele><time>2026-04-24T15:21:50.999Z</time></trkpt><trkpt lat="43.240855840784754" lon="13.310742591384582"><ele>271.0</ele><time>2026-04-24T15:21:52.999Z</time></trkpt><trkpt lat="43.24075619482834" lon="13.3109052199079"><ele>271.0</ele><time>2026-04-24T15:21:55.999Z</time></trkpt><trkpt lat="43.240636220985834" lon="13.311032765757881"><ele>271.0</ele><time>2026-04-24T15:21:57.999Z</time></trkpt><trkpt lat="43.240560672983776" lon="13.311086596930682"><ele>270.6</ele><time>2026-04-24T15:21:58.999Z</time></trkpt><trkpt lat="43.24048073839691" lon="13.311147309574839"><ele>270.20000000000005</ele><time>2026-04-24T15:21:59.999Z</time></trkpt><trkpt lat="43.24039487670159" lon="13.311228173143947"><ele>269.79999999999995</ele><time>2026-04-24T15:22:00.999Z</time></trkpt><trkpt lat="43.24030360745368" lon="13.311316536940305"><ele>269.4</ele><time>2026-04-24T15:22:01.999Z</time></trkpt><trkpt lat="43.240217212367995" lon="13.311399075837345"><ele>269.0</ele><time>2026-04-24T15:22:02.999Z</time></trkpt><trkpt lat="43.240135151387044" lon="13.311476952328466"><ele>269.0</ele><time>2026-04-24T15:22:03.999Z</time></trkpt><trkpt lat="43.24005330292993" lon="13.311551942717196"><ele>269.0</ele><time>2026-04-24T15:22:04.999Z</time></trkpt><trkpt lat="43.239975577279715" lon="13.311605239234796"><ele>269.0</ele><time>2026-04-24T15:22:05.999Z</time></trkpt><trkpt lat="43.23987642900206" lon="13.311655953168383"><ele>269.0</ele><time>2026-04-24T15:22:06.999Z</time></trkpt><trkpt lat="43.23977620481319" lon="13.311661791628415"><ele>269.0</ele><time>2026-04-24T15:22:07.999Z</time></trkpt><trkpt lat="43.239676650734346" lon="13.311647309999621"><ele>269.33333333333337</ele><time>2026-04-24T15:22:08.999Z</time></trkpt><trkpt lat="43.23959741760907" lon="13.311625036488195"><ele>269.6666666666667</ele><time>2026-04-24T15:22:09.999Z</time></trkpt><trkpt lat="43.239521094429215" lon="13.311605432160807"><ele>270.0</ele><time>2026-04-24T15:22:10.999Z</time></trkpt><trkpt lat="43.23945885365455" lon="13.311586221358745"><ele>270.3333333333333</ele><time>2026-04-24T15:22:11.999Z</time></trkpt><trkpt lat="43.23937954894706" lon="13.311554003164416"><ele>270.66666666666663</ele><time>2026-04-24T15:22:12.999Z</time></trkpt><trkpt lat="43.239291419389424" lon="13.311527881953488"><ele>271.0</ele><time>2026-04-24T15:22:13.999Z</time></trkpt><trkpt lat="43.239203575673805" lon="13.311509166130957"><ele>271.0</ele><time>2026-04-24T15:22:14.999Z</time></trkpt><trkpt lat="43.23910262094272" lon="13.311487433595987"><ele>271.0</ele><time>2026-04-24T15:22:15.999Z</time></trkpt><trkpt lat="43.23900329905129" lon="13.311459768006843"><ele>271.0</ele><time>2026-04-24T15:22:16.999Z</time></trkpt><trkpt lat="43.2389054524362" lon="13.311433852153618"><ele>271.0</ele><time>2026-04-24T15:22:17.999Z</time></trkpt><trkpt lat="43.238799094639354" lon="13.31141463214572"><ele>271.0</ele><time>2026-04-24T15:22:18.999Z</time></trkpt><trkpt lat="43.2387036562597" lon="13.31139874456417"><ele>271.40000000000003</ele><time>2026-04-24T15:22:19.999Z</time></trkpt><trkpt lat="43.23861778501926" lon="13.31138249073421"><ele>271.8</ele><time>2026-04-24T15:22:20.999Z</time></trkpt><trkpt lat="43.238527390755806" lon="13.311362715868174"><ele>272.20000000000005</ele><time>2026-04-24T15:22:21.999Z</time></trkpt><trkpt lat="43.238430789087055" lon="13.311341072002628"><ele>272.6</ele><time>2026-04-24T15:22:22.999Z</time></trkpt><trkpt lat="43.23832953785364" lon="13.311320349670382"><ele>273.0</ele><time>2026-04-24T15:22:23.999Z</time></trkpt><trkpt lat="43.23823545753498" lon="13.311302259271487"><ele>273.0</ele><time>2026-04-24T15:22:24.999Z</time></trkpt><trkpt lat="43.23814688225694" lon="13.311284801316349"><ele>273.0</ele><time>2026-04-24T15:22:25.999Z</time></trkpt><trkpt lat="43.2380522260482" lon="13.3112698355308"><ele>273.0</ele><time>2026-04-24T15:22:26.999Z</time></trkpt><trkpt lat="43.23795293070124" lon="13.311258700809722"><ele>273.0</ele><time>2026-04-24T15:22:27.999Z</time></trkpt><trkpt lat="43.237845165477744" lon="13.311247265039084"><ele>273.0</ele><time>2026-04-24T15:22:28.999Z</time></trkpt><trkpt lat="43.237738679110244" lon="13.311236700533915"><ele>272.8</ele><time>2026-04-24T15:22:29.999Z</time></trkpt><trkpt lat="43.237632984033546" lon="13.311226705290196"><ele>272.6</ele><time>2026-04-24T15:22:30.999Z</time></trkpt><trkpt lat="43.23753219654001" lon="13.311217231069602"><ele>272.4</ele><time>2026-04-24T15:22:31.999Z</time></trkpt><trkpt lat="43.237429373390725" lon="13.311216381122183"><ele>272.2</ele><time>2026-04-24T15:22:32.999Z</time></trkpt><trkpt lat="43.23734206758305" lon="13.31121889747969"><ele>272.0</ele><time>2026-04-24T15:22:33.999Z</time></trkpt><trkpt lat="43.23726309328629" lon="13.311221261767049"><ele>272.0</ele><time>2026-04-24T15:22:34.999Z</time></trkpt><trkpt lat="43.237185426001126" lon="13.311222983492497"><ele>272.0</ele><time>2026-04-24T15:22:35.999Z</time></trkpt><trkpt lat="43.23710951194825" lon="13.311227485859876"><ele>272.0</ele><time>2026-04-24T15:22:36.999Z</time></trkpt><trkpt lat="43.237014235326306" lon="13.311232851018183"><ele>272.0</ele><time>2026-04-24T15:22:37.999Z</time></trkpt><trkpt lat="43.236926948419296" lon="13.31123731752306"><ele>272.0</ele><time>2026-04-24T15:22:38.999Z</time></trkpt><trkpt lat="43.23683388265822" lon="13.31124358243382"><ele>272.0</ele><time>2026-04-24T15:22:39.999Z</time></trkpt><trkpt lat="43.23673038002865" lon="13.3112495410429"><ele>272.0</ele><time>2026-04-24T15:22:40.999Z</time></trkpt><trkpt lat="43.23664006370923" lon="13.31125508450322"><ele>272.0</ele><time>2026-04-24T15:22:41.999Z</time></trkpt><trkpt lat="43.236560186310236" lon="13.311256752379553"><ele>272.0</ele><time>2026-04-24T15:22:42.999Z</time></trkpt><trkpt lat="43.2364622855135" lon="13.311261268442484"><ele>272.0</ele><time>2026-04-24T15:22:43.998Z</time></trkpt><trkpt lat="43.23637228609338" lon="13.311266328872684"><ele>272.0</ele><time>2026-04-24T15:22:44.998Z</time></trkpt><trkpt lat="43.23628808067104" lon="13.311273155640114"><ele>272.0</ele><time>2026-04-24T15:22:45.998Z</time></trkpt><trkpt lat="43.2362134493057" lon="13.311277886078084"><ele>271.8</ele><time>2026-04-24T15:22:46.998Z</time></trkpt><trkpt lat="43.23611905200017" lon="13.311300135578906"><ele>271.6</ele><time>2026-04-24T15:22:48.998Z</time></trkpt><trkpt lat="43.236014651385254" lon="13.311356076370044"><ele>271.40000000000003</ele><time>2026-04-24T15:22:50.998Z</time></trkpt><trkpt lat="43.235931753627355" lon="13.3113896465119"><ele>271.2</ele><time>2026-04-24T15:22:51.998Z</time></trkpt><trkpt lat="43.23585432735443" lon="13.311426690115997"><ele>271.0</ele><time>2026-04-24T15:22:52.998Z</time></trkpt><trkpt lat="43.23577613935213" lon="13.311452579981268"><ele>271.0</ele><time>2026-04-24T15:22:53.998Z</time></trkpt><trkpt lat="43.23567463214821" lon="13.311495320447436"><ele>271.0</ele><time>2026-04-24T15:22:56Z</time></trkpt><trkpt lat="43.235609050361646" lon="13.31154155676077"><ele>271.0</ele><time>2026-04-24T15:22:58Z</time></trkpt><trkpt lat="43.23554697127165" lon="13.31159331309353"><ele>271.0</ele><time>2026-04-24T15:23:00Z</time></trkpt><trkpt lat="43.235473855007605" lon="13.311656251373543"><ele>271.0</ele><time>2026-04-24T15:23:03Z</time></trkpt><trkpt lat="43.23540722054392" lon="13.31170239370643"><ele>271.0</ele><time>2026-04-24T15:23:06Z</time></trkpt><trkpt lat="43.23531502113814" lon="13.311773759359463"><ele>270.3333333333333</ele><time>2026-04-24T15:23:10Z</time></trkpt><trkpt lat="43.23521567437597" lon="13.311844885766321"><ele>269.66666666666663</ele><time>2026-04-24T15:23:12Z</time></trkpt><trkpt lat="43.23511887737384" lon="13.311893552847895"><ele>269.0</ele><time>2026-04-24T15:23:14Z</time></trkpt><trkpt lat="43.23505624630967" lon="13.311858646084266"><ele>268.3333333333333</ele><time>2026-04-24T15:23:16Z</time></trkpt><trkpt lat="43.23501494508345" lon="13.31177525576677"><ele>267.6666666666667</ele><time>2026-04-24T15:23:18Z</time></trkpt><trkpt lat="43.23498199473338" lon="13.311691569408588"><ele>267.0</ele><time>2026-04-24T15:23:20Z</time></trkpt><trkpt lat="43.23496016917451" lon="13.31159063865072"><ele>267.0</ele><time>2026-04-24T15:23:22Z</time></trkpt><trkpt lat="43.23491903647631" lon="13.311456311773195"><ele>267.0</ele><time>2026-04-24T15:23:24Z</time></trkpt><trkpt lat="43.234869521354916" lon="13.311298339589602"><ele>267.0</ele><time>2026-04-24T15:23:26Z</time></trkpt><trkpt lat="43.2347965465003" lon="13.311151511901146"><ele>267.0</ele><time>2026-04-24T15:23:27.999Z</time></trkpt><trkpt lat="43.23474434126871" lon="13.311085747572013"><ele>267.0</ele><time>2026-04-24T15:23:28.999Z</time></trkpt><trkpt lat="43.23469526034599" lon="13.31102371518488"><ele>266.1666666666667</ele><time>2026-04-24T15:23:29.999Z</time></trkpt><trkpt lat="43.23464006217577" lon="13.310956144876103"><ele>265.3333333333333</ele><time>2026-04-24T15:23:30.999Z</time></trkpt><trkpt lat="43.2345874404979" lon="13.310902347550178"><ele>264.5</ele><time>2026-04-24T15:23:31.999Z</time></trkpt><trkpt lat="43.23452586834236" lon="13.310851240350953"><ele>263.66666666666663</ele><time>2026-04-24T15:23:32.999Z</time></trkpt><trkpt lat="43.23445984271643" lon="13.310803660501078"><ele>262.8333333333333</ele><time>2026-04-24T15:23:33.999Z</time></trkpt><trkpt lat="43.23439833161717" lon="13.310756952197957"><ele>262.0</ele><time>2026-04-24T15:23:34.999Z</time></trkpt><trkpt lat="43.23428588966563" lon="13.310686536217624"><ele>262.0</ele><time>2026-04-24T15:23:36.999Z</time></trkpt><trkpt lat="43.23417725731803" lon="13.310653219239317"><ele>262.0</ele><time>2026-04-24T15:23:38.999Z</time></trkpt><trkpt lat="43.2340669347391" lon="13.310636961437423"><ele>262.0</ele><time>2026-04-24T15:23:40.999Z</time></trkpt><trkpt lat="43.23394629702523" lon="13.310614608958714"><ele>262.0</ele><time>2026-04-24T15:23:42.999Z</time></trkpt><trkpt lat="43.23380248965999" lon="13.310608555338403"><ele>262.3333333333333</ele><time>2026-04-24T15:23:44.999Z</time></trkpt><trkpt lat="43.23372621210658" lon="13.310594710276082"><ele>262.66666666666663</ele><time>2026-04-24T15:23:45.999Z</time></trkpt><trkpt lat="43.23365241691597" lon="13.310577343211282"><ele>263.0</ele><time>2026-04-24T15:23:46.999Z</time></trkpt><trkpt lat="43.23357781354712" lon="13.310574019856436"><ele>263.3333333333333</ele><time>2026-04-24T15:23:47.999Z</time></trkpt><trkpt lat="43.23350985193733" lon="13.3105807034204"><ele>263.6666666666667</ele><time>2026-04-24T15:23:48.999Z</time></trkpt><trkpt lat="43.23343818856751" lon="13.310620604382017"><ele>264.0</ele><time>2026-04-24T15:23:49.999Z</time></trkpt><trkpt lat="43.23336112644527" lon="13.310571538028238"><ele>264.0</ele><time>2026-04-24T15:23:50.999Z</time></trkpt><trkpt lat="43.2332995920329" lon="13.310594936949236"><ele>264.0</ele><time>2026-04-24T15:23:51.999Z</time></trkpt><trkpt lat="43.23321949796561" lon="13.310653116316093"><ele>264.0</ele><time>2026-04-24T15:23:53.999Z</time></trkpt><trkpt lat="43.233151798640975" lon="13.310665127805336"><ele>264.0</ele><time>2026-04-24T15:23:54.999Z</time></trkpt><trkpt lat="43.23307695156838" lon="13.310646971340509"><ele>264.0</ele><time>2026-04-24T15:23:55.999Z</time></trkpt><trkpt lat="43.23299075052041" lon="13.310650551996444"><ele>264.0</ele><time>2026-04-24T15:23:56.999Z</time></trkpt><trkpt lat="43.23289223617016" lon="13.310649426435361"><ele>263.8</ele><time>2026-04-24T15:23:57.999Z</time></trkpt><trkpt lat="43.23278271024068" lon="13.310672604846594"><ele>263.59999999999997</ele><time>2026-04-24T15:23:58.999Z</time></trkpt><trkpt lat="43.232683972870966" lon="13.310674746782473"><ele>263.4</ele><time>2026-04-24T15:23:59.999Z</time></trkpt><trkpt lat="43.23257922373872" lon="13.310679071556226"><ele>263.2</ele><time>2026-04-24T15:24:00.999Z</time></trkpt><trkpt lat="43.23247029641664" lon="13.310691404057495"><ele>263.0</ele><time>2026-04-24T15:24:01.999Z</time></trkpt><trkpt lat="43.23237463184695" lon="13.310713370985354"><ele>263.4</ele><time>2026-04-24T15:24:02.999Z</time></trkpt><trkpt lat="43.23228065321656" lon="13.310749758379133"><ele>263.8</ele><time>2026-04-24T15:24:03.999Z</time></trkpt><trkpt lat="43.232192599926314" lon="13.310803403862598"><ele>264.2</ele><time>2026-04-24T15:24:04.999Z</time></trkpt><trkpt lat="43.23210408323834" lon="13.310873578443843"><ele>264.6</ele><time>2026-04-24T15:24:05.999Z</time></trkpt><trkpt lat="43.23200612369193" lon="13.31092033992336"><ele>265.0</ele><time>2026-04-24T15:24:06.999Z</time></trkpt><trkpt lat="43.23192493820021" lon="13.310999822749224"><ele>265.0</ele><time>2026-04-24T15:24:07.999Z</time></trkpt><trkpt lat="43.23184456059082" lon="13.311055430094601"><ele>265.0</ele><time>2026-04-24T15:24:08.999Z</time></trkpt><trkpt lat="43.2317579436983" lon="13.311113489868585"><ele>265.0</ele><time>2026-04-24T15:24:09.999Z</time></trkpt><trkpt lat="43.231668049354184" lon="13.311175987632584"><ele>265.0</ele><time>2026-04-24T15:24:10.999Z</time></trkpt><trkpt lat="43.231582299528974" lon="13.311236479771019"><ele>265.0</ele><time>2026-04-24T15:24:11.999Z</time></trkpt><trkpt lat="43.231493396210766" lon="13.311298946506481"><ele>266.0</ele><time>2026-04-24T15:24:12.999Z</time></trkpt><trkpt lat="43.231406296977696" lon="13.311356230259824"><ele>267.0</ele><time>2026-04-24T15:24:13.999Z</time></trkpt><trkpt lat="43.23132762686161" lon="13.311409581429954"><ele>268.0</ele><time>2026-04-24T15:24:14.999Z</time></trkpt><trkpt lat="43.23124311998659" lon="13.311471686525842"><ele>269.0</ele><time>2026-04-24T15:24:15.999Z</time></trkpt><trkpt lat="43.23114167041458" lon="13.311514311079492"><ele>270.0</ele><time>2026-04-24T15:24:16.999Z</time></trkpt><trkpt lat="43.231049844089846" lon="13.311582218012829"><ele>270.5</ele><time>2026-04-24T15:24:17.999Z</time></trkpt><trkpt lat="43.23096685772544" lon="13.311692725778755"><ele>271.0</ele><time>2026-04-24T15:24:18.999Z</time></trkpt><trkpt lat="43.230876849854376" lon="13.311792429992012"><ele>271.5</ele><time>2026-04-24T15:24:19.999Z</time></trkpt><trkpt lat="43.230779358032784" lon="13.31189473997524"><ele>272.0</ele><time>2026-04-24T15:24:20.999Z</time></trkpt><trkpt lat="43.23067708720638" lon="13.311990437686736"><ele>273.0</ele><time>2026-04-24T15:24:21.999Z</time></trkpt><trkpt lat="43.230572291277895" lon="13.312074091063677"><ele>274.0</ele><time>2026-04-24T15:24:22.999Z</time></trkpt><trkpt lat="43.23046043526315" lon="13.312112434283769"><ele>275.0</ele><time>2026-04-24T15:24:23.999Z</time></trkpt><trkpt lat="43.23035146636857" lon="13.31215993219537"><ele>276.0</ele><time>2026-04-24T15:24:24.999Z</time></trkpt><trkpt lat="43.23024234393635" lon="13.312204630193863"><ele>276.0</ele><time>2026-04-24T15:24:25.999Z</time></trkpt><trkpt lat="43.23012784159374" lon="13.312233641732524"><ele>276.0</ele><time>2026-04-24T15:24:26.999Z</time></trkpt><trkpt lat="43.230011309899034" lon="13.312246815980377"><ele>276.0</ele><time>2026-04-24T15:24:27.999Z</time></trkpt><trkpt lat="43.22989603816203" lon="13.312229112092437"><ele>276.0</ele><time>2026-04-24T15:24:28.999Z</time></trkpt><trkpt lat="43.22977086820667" lon="13.312206377850874"><ele>276.0</ele><time>2026-04-24T15:24:29.999Z</time></trkpt><trkpt lat="43.22965460708673" lon="13.312218232042348"><ele>276.0</ele><time>2026-04-24T15:24:30.999Z</time></trkpt><trkpt lat="43.22956245667433" lon="13.312200652662193"><ele>276.0</ele><time>2026-04-24T15:24:31.999Z</time></trkpt><trkpt lat="43.2294892168419" lon="13.312220813736284"><ele>276.0</ele><time>2026-04-24T15:24:32.999Z</time></trkpt><trkpt lat="43.229422899555495" lon="13.312248774128559"><ele>276.0</ele><time>2026-04-24T15:24:33.999Z</time></trkpt><trkpt lat="43.229356010896396" lon="13.312297850802887"><ele>276.0</ele><time>2026-04-24T15:24:34.999Z</time></trkpt><trkpt lat="43.22928317449901" lon="13.312322977505422"><ele>276.40000000000003</ele><time>2026-04-24T15:24:35.999Z</time></trkpt><trkpt lat="43.22922133217037" lon="13.312350188438261"><ele>276.8</ele><time>2026-04-24T15:24:36.999Z</time></trkpt><trkpt lat="43.22915966668708" lon="13.312468373876822"><ele>277.20000000000005</ele><time>2026-04-24T15:24:38.999Z</time></trkpt><trkpt lat="43.229167526584696" lon="13.312596470588275"><ele>277.6</ele><time>2026-04-24T15:24:39.999Z</time></trkpt><trkpt lat="43.22923671649725" lon="13.312726917205255"><ele>278.0</ele><time>2026-04-24T15:24:40.999Z</time></trkpt><trkpt lat="43.229302187206535" lon="13.31284999173461"><ele>278.0</ele><time>2026-04-24T15:24:41.999Z</time></trkpt><trkpt lat="43.22938029245995" lon="13.312980528201706"><ele>278.0</ele><time>2026-04-24T15:24:42.999Z</time></trkpt><trkpt lat="43.22945641830436" lon="13.313096175650404"><ele>278.0</ele><time>2026-04-24T15:24:43.999Z</time></trkpt><trkpt lat="43.22951582104104" lon="13.313219699480827"><ele>278.0</ele><time>2026-04-24T15:24:44.999Z</time></trkpt><trkpt lat="43.2295862787766" lon="13.313350798533223"><ele>274.75</ele><time>2026-04-24T15:24:45.999Z</time></trkpt><trkpt lat="43.22963786347466" lon="13.313502591470117"><ele>271.5</ele><time>2026-04-24T15:24:46.999Z</time></trkpt><trkpt lat="43.22967475037376" lon="13.31367015692184"><ele>268.25</ele><time>2026-04-24T15:24:47.999Z</time></trkpt><trkpt lat="43.22972322048905" lon="13.313849247183157"><ele>265.0</ele><time>2026-04-24T15:24:48.999Z</time></trkpt><trkpt lat="43.22974227948665" lon="13.314042469864898"><ele>263.75</ele><time>2026-04-24T15:24:49.999Z</time></trkpt><trkpt lat="43.22977218698234" lon="13.314224653394138"><ele>262.5</ele><time>2026-04-24T15:24:50.999Z</time></trkpt><trkpt lat="43.22980695390623" lon="13.31441220284229"><ele>261.25</ele><time>2026-04-24T15:24:51.998Z</time></trkpt><trkpt lat="43.22981479391564" lon="13.314589250292345"><ele>260.0</ele><time>2026-04-24T15:24:52.998Z</time></trkpt><trkpt lat="43.22980270361788" lon="13.314773480758616"><ele>256.0</ele><time>2026-04-24T15:24:53.998Z</time></trkpt><trkpt lat="43.229783611232655" lon="13.314966361466292"><ele>252.0</ele><time>2026-04-24T15:24:54.998Z</time></trkpt><trkpt lat="43.22975721177542" lon="13.315166273438162"><ele>248.0</ele><time>2026-04-24T15:24:55.998Z</time></trkpt><trkpt lat="43.229729265680724" lon="13.315362838116938"><ele>244.0</ele><time>2026-04-24T15:24:56.998Z</time></trkpt><trkpt lat="43.2296993837998" lon="13.31556669448072"><ele>243.0</ele><time>2026-04-24T15:24:57.998Z</time></trkpt><trkpt lat="43.229669362012636" lon="13.31577495414436"><ele>242.0</ele><time>2026-04-24T15:24:58.998Z</time></trkpt><trkpt lat="43.22964341803337" lon="13.31597243480352"><ele>241.0</ele><time>2026-04-24T15:24:59.998Z</time></trkpt><trkpt lat="43.22961905137476" lon="13.316176050061644"><ele>241.0</ele><time>2026-04-24T15:25:00.998Z</time></trkpt><trkpt lat="43.22961086496424" lon="13.316379472041488"><ele>241.0</ele><time>2026-04-24T15:25:02Z</time></trkpt><trkpt lat="43.229592288071224" lon="13.316568671644552"><ele>241.0</ele><time>2026-04-24T15:25:03Z</time></trkpt><trkpt lat="43.229578883099975" lon="13.316752702440942"><ele>241.0</ele><time>2026-04-24T15:25:04Z</time></trkpt><trkpt lat="43.22956835667296" lon="13.316937076027429"><ele>239.5</ele><time>2026-04-24T15:25:05Z</time></trkpt><trkpt lat="43.229555717308145" lon="13.31712676014344"><ele>238.0</ele><time>2026-04-24T15:25:06Z</time></trkpt><trkpt lat="43.229546408795244" lon="13.317319248895735"><ele>236.5</ele><time>2026-04-24T15:25:07Z</time></trkpt><trkpt lat="43.22953870227169" lon="13.317502381674494"><ele>235.0</ele><time>2026-04-24T15:25:08Z</time></trkpt><trkpt lat="43.2295288774805" lon="13.317681835745667"><ele>234.0</ele><time>2026-04-24T15:25:09Z</time></trkpt><trkpt lat="43.22949124668077" lon="13.317855761723921"><ele>233.0</ele><time>2026-04-24T15:25:10Z</time></trkpt><trkpt lat="43.22944948627402" lon="13.318023061366631"><ele>232.0</ele><time>2026-04-24T15:25:11Z</time></trkpt><trkpt lat="43.22939813409956" lon="13.318184170865663"><ele>231.0</ele><time>2026-04-24T15:25:12Z</time></trkpt><trkpt lat="43.22934442181998" lon="13.318342493161971"><ele>229.0</ele><time>2026-04-24T15:25:13Z</time></trkpt><trkpt lat="43.22929501810462" lon="13.318492837057672"><ele>227.0</ele><time>2026-04-24T15:25:14Z</time></trkpt><trkpt lat="43.22924341377391" lon="13.318661855962478"><ele>225.0</ele><time>2026-04-24T15:25:15Z</time></trkpt><trkpt lat="43.22919022248305" lon="13.3188501016525"><ele>223.0</ele><time>2026-04-24T15:25:16Z</time></trkpt><trkpt lat="43.229156282797994" lon="13.319040850126186"><ele>220.0</ele><time>2026-04-24T15:25:17Z</time></trkpt><trkpt lat="43.229106905996495" lon="13.319229238444482"><ele>217.0</ele><time>2026-04-24T15:25:18Z</time></trkpt><trkpt lat="43.229056037223586" lon="13.319424613419358"><ele>214.0</ele><time>2026-04-24T15:25:19Z</time></trkpt><trkpt lat="43.22901007750328" lon="13.319618419970844"><ele>211.0</ele><time>2026-04-24T15:25:20Z</time></trkpt><trkpt lat="43.22896707361385" lon="13.319811202960897"><ele>209.0</ele><time>2026-04-24T15:25:21Z</time></trkpt><trkpt lat="43.228909713981444" lon="13.319985476877125"><ele>207.0</ele><time>2026-04-24T15:25:22Z</time></trkpt><trkpt lat="43.2288581616152" lon="13.32014417646623"><ele>205.0</ele><time>2026-04-24T15:25:23Z</time></trkpt><trkpt lat="43.22880221516613" lon="13.320280439901321"><ele>203.0</ele><time>2026-04-24T15:25:24Z</time></trkpt><trkpt lat="43.22872728032007" lon="13.320391686014768"><ele>203.0</ele><time>2026-04-24T15:25:25Z</time></trkpt><trkpt lat="43.22866230873585" lon="13.320493407213895"><ele>203.0</ele><time>2026-04-24T15:25:26Z</time></trkpt><trkpt lat="43.22859638809164" lon="13.320558032556155"><ele>203.0</ele><time>2026-04-24T15:25:27Z</time></trkpt><trkpt lat="43.22855825963749" lon="13.320709608271885"><ele>203.0</ele><time>2026-04-24T15:25:28Z</time></trkpt><trkpt lat="43.228618023519836" lon="13.320884326839384"><ele>203.0</ele><time>2026-04-24T15:25:29Z</time></trkpt><trkpt lat="43.228619657947874" lon="13.32103889384973"><ele>202.2</ele><time>2026-04-24T15:25:30Z</time></trkpt><trkpt lat="43.22860319910447" lon="13.321185657435885"><ele>201.4</ele><time>2026-04-24T15:25:31Z</time></trkpt><trkpt lat="43.228549960809644" lon="13.321314082486438"><ele>200.6</ele><time>2026-04-24T15:25:32Z</time></trkpt><trkpt lat="43.228495521990666" lon="13.321448953495667"><ele>199.79999999999998</ele><time>2026-04-24T15:25:33Z</time></trkpt><trkpt lat="43.228431843397054" lon="13.321561984238603"><ele>199.0</ele><time>2026-04-24T15:25:34Z</time></trkpt><trkpt lat="43.2283551488592" lon="13.321673200922023"><ele>199.0</ele><time>2026-04-24T15:25:35Z</time></trkpt><trkpt lat="43.2282768000098" lon="13.3217824274067"><ele>199.0</ele><time>2026-04-24T15:25:36Z</time></trkpt><trkpt lat="43.228210562037304" lon="13.321889137977035"><ele>199.0</ele><time>2026-04-24T15:25:36.999Z</time></trkpt><trkpt lat="43.228148478382536" lon="13.32197499387202"><ele>199.0</ele><time>2026-04-24T15:25:37.999Z</time></trkpt><trkpt lat="43.228091785106564" lon="13.322045847180648"><ele>199.0</ele><time>2026-04-24T15:25:38.999Z</time></trkpt><trkpt lat="43.22801987509008" lon="13.322146986410592"><ele>199.0</ele><time>2026-04-24T15:25:40.999Z</time></trkpt><trkpt lat="43.22796505914345" lon="13.322198474686308"><ele>199.0</ele><time>2026-04-24T15:25:48.999Z</time></trkpt><trkpt lat="43.227887940612284" lon="13.322128224955335"><ele>199.0</ele><time>2026-04-24T15:25:49.999Z</time></trkpt><trkpt lat="43.22778710277518" lon="13.322058908543633"><ele>199.0</ele><time>2026-04-24T15:25:51.999Z</time></trkpt><trkpt lat="43.22766335796885" lon="13.321976058905943"><ele>199.0</ele><time>2026-04-24T15:25:53.999Z</time></trkpt><trkpt lat="43.2275872736424" lon="13.3219213263556"><ele>199.0</ele><time>2026-04-24T15:25:54.999Z</time></trkpt><trkpt lat="43.22750893644376" lon="13.321863742843359"><ele>199.0</ele><time>2026-04-24T15:25:55.999Z</time></trkpt><trkpt lat="43.227428976837246" lon="13.321805286872644"><ele>199.0</ele><time>2026-04-24T15:25:56.999Z</time></trkpt><trkpt lat="43.22733301305625" lon="13.32173485139978"><ele>199.0</ele><time>2026-04-24T15:25:57.999Z</time></trkpt><trkpt lat="43.22723321602712" lon="13.321666750137142"><ele>199.0</ele><time>2026-04-24T15:25:58.999Z</time></trkpt><trkpt lat="43.227135644104315" lon="13.321598463481989"><ele>199.25</ele><time>2026-04-24T15:25:59.999Z</time></trkpt><trkpt lat="43.227023714697076" lon="13.321519332315729"><ele>199.5</ele><time>2026-04-24T15:26:00.999Z</time></trkpt><trkpt lat="43.22690027796566" lon="13.321437921570137"><ele>199.75</ele><time>2026-04-24T15:26:01.999Z</time></trkpt><trkpt lat="43.226791389271426" lon="13.321365023165209"><ele>200.0</ele><time>2026-04-24T15:26:02.999Z</time></trkpt><trkpt lat="43.226676463474895" lon="13.321286473031472"><ele>200.0</ele><time>2026-04-24T15:26:03.999Z</time></trkpt><trkpt lat="43.22655898967148" lon="13.321206208608025"><ele>200.0</ele><time>2026-04-24T15:26:04.999Z</time></trkpt><trkpt lat="43.226440489348235" lon="13.321120059179139"><ele>200.0</ele><time>2026-04-24T15:26:05.999Z</time></trkpt><trkpt lat="43.22632082726409" lon="13.321032596051994"><ele>200.0</ele><time>2026-04-24T15:26:06.999Z</time></trkpt><trkpt lat="43.22618957351585" lon="13.320942691216924"><ele>200.25</ele><time>2026-04-24T15:26:07.999Z</time></trkpt><trkpt lat="43.22606274325752" lon="13.320849395329741"><ele>200.5</ele><time>2026-04-24T15:26:08.999Z</time></trkpt><trkpt lat="43.22593319630359" lon="13.320758881915356"><ele>200.75</ele><time>2026-04-24T15:26:09.999Z</time></trkpt><trkpt lat="43.225800808804124" lon="13.320666958010909"><ele>201.0</ele><time>2026-04-24T15:26:10.999Z</time></trkpt><trkpt lat="43.22567146549407" lon="13.320572961951653"><ele>201.0</ele><time>2026-04-24T15:26:11.999Z</time></trkpt><trkpt lat="43.225543336007455" lon="13.32048128285414"><ele>201.0</ele><time>2026-04-24T15:26:12.999Z</time></trkpt><trkpt lat="43.22540924380625" lon="13.320387561646832"><ele>201.0</ele><time>2026-04-24T15:26:13.999Z</time></trkpt><trkpt lat="43.22527881423617" lon="13.320295105799879"><ele>201.0</ele><time>2026-04-24T15:26:14.999Z</time></trkpt><trkpt lat="43.22513772845536" lon="13.320199379120432"><ele>201.0</ele><time>2026-04-24T15:26:15.999Z</time></trkpt><trkpt lat="43.22500375519953" lon="13.320107485810965"><ele>201.0</ele><time>2026-04-24T15:26:16.999Z</time></trkpt><trkpt lat="43.22486628944102" lon="13.320009132893999"><ele>201.0</ele><time>2026-04-24T15:26:17.999Z</time></trkpt><trkpt lat="43.224733199281914" lon="13.319911661123957"><ele>201.0</ele><time>2026-04-24T15:26:18.999Z</time></trkpt><trkpt lat="43.22459548343114" lon="13.31981451519956"><ele>201.0</ele><time>2026-04-24T15:26:19.999Z</time></trkpt><trkpt lat="43.22446469572781" lon="13.31972003782251"><ele>201.0</ele><time>2026-04-24T15:26:20.999Z</time></trkpt><trkpt lat="43.22432248081975" lon="13.319623654980429"><ele>201.0</ele><time>2026-04-24T15:26:21.999Z</time></trkpt><trkpt lat="43.22418894152891" lon="13.319530676585158"><ele>201.0</ele><time>2026-04-24T15:26:22.999Z</time></trkpt><trkpt lat="43.22405693660777" lon="13.319433252852093"><ele>201.0</ele><time>2026-04-24T15:26:23.999Z</time></trkpt><trkpt lat="43.223920831895306" lon="13.319335628019452"><ele>200.33333333333331</ele><time>2026-04-24T15:26:24.999Z</time></trkpt><trkpt lat="43.22378342238674" lon="13.319238347795523"><ele>199.66666666666666</ele><time>2026-04-24T15:26:25.999Z</time></trkpt><trkpt lat="43.2236484207802" lon="13.319141045492556"><ele>199.0</ele><time>2026-04-24T15:26:26.999Z</time></trkpt><trkpt lat="43.22350621444663" lon="13.319040825564983"><ele>199.0</ele><time>2026-04-24T15:26:27.999Z</time></trkpt><trkpt lat="43.223370587361124" lon="13.318943138429137"><ele>199.0</ele><time>2026-04-24T15:26:28.999Z</time></trkpt><trkpt lat="43.22322399180347" lon="13.318840085297957"><ele>199.0</ele><time>2026-04-24T15:26:29.999Z</time></trkpt><trkpt lat="43.22308239310289" lon="13.318743404657528"><ele>199.0</ele><time>2026-04-24T15:26:30.999Z</time></trkpt><trkpt lat="43.222941844367185" lon="13.318645975994711"><ele>199.0</ele><time>2026-04-24T15:26:31.999Z</time></trkpt><trkpt lat="43.222800598365126" lon="13.318547341832797"><ele>199.0</ele><time>2026-04-24T15:26:32.999Z</time></trkpt><trkpt lat="43.222655039236564" lon="13.318444217827912"><ele>199.0</ele><time>2026-04-24T15:26:33.999Z</time></trkpt><trkpt lat="43.222509676351144" lon="13.318342518283005"><ele>199.0</ele><time>2026-04-24T15:26:34.999Z</time></trkpt><trkpt lat="43.22236207483449" lon="13.318236870599272"><ele>199.0</ele><time>2026-04-24T15:26:35.999Z</time></trkpt><trkpt lat="43.22221701630352" lon="13.31813515918964"><ele>198.66666666666666</ele><time>2026-04-24T15:26:36.999Z</time></trkpt><trkpt lat="43.22206849668775" lon="13.318031333772579"><ele>198.33333333333331</ele><time>2026-04-24T15:26:37.999Z</time></trkpt><trkpt lat="43.22192401688624" lon="13.317924724622571"><ele>198.0</ele><time>2026-04-24T15:26:38.999Z</time></trkpt><trkpt lat="43.22178625502005" lon="13.317826817891119"><ele>198.0</ele><time>2026-04-24T15:26:39.999Z</time></trkpt><trkpt lat="43.22164623472375" lon="13.317730689447048"><ele>198.0</ele><time>2026-04-24T15:26:40.999Z</time></trkpt><trkpt lat="43.22150499448565" lon="13.317635736705013"><ele>198.0</ele><time>2026-04-24T15:26:41.999Z</time></trkpt><trkpt lat="43.22137978342071" lon="13.317546873011315"><ele>198.0</ele><time>2026-04-24T15:26:42.999Z</time></trkpt><trkpt lat="43.22127165426638" lon="13.31743718208901"><ele>198.0</ele><time>2026-04-24T15:26:43.999Z</time></trkpt><trkpt lat="43.221192496286" lon="13.31728808230485"><ele>198.0</ele><time>2026-04-24T15:26:44.999Z</time></trkpt><trkpt lat="43.22115613700269" lon="13.317092103487846"><ele>198.0</ele><time>2026-04-24T15:26:45.999Z</time></trkpt><trkpt lat="43.22109988479445" lon="13.316911528405845"><ele>198.0</ele><time>2026-04-24T15:26:46.999Z</time></trkpt><trkpt lat="43.221063721452474" lon="13.31671150095632"><ele>198.0</ele><time>2026-04-24T15:26:47.999Z</time></trkpt><trkpt lat="43.221025177866274" lon="13.316501685530008"><ele>198.0</ele><time>2026-04-24T15:26:48.999Z</time></trkpt><trkpt lat="43.220983812609994" lon="13.316302272980987"><ele>198.0</ele><time>2026-04-24T15:26:49.999Z</time></trkpt><trkpt lat="43.220939557982085" lon="13.316093298731777"><ele>198.0</ele><time>2026-04-24T15:26:50.999Z</time></trkpt><trkpt lat="43.22089449829705" lon="13.31587431908847"><ele>198.0</ele><time>2026-04-24T15:26:51.999Z</time></trkpt><trkpt lat="43.22084710694883" lon="13.31564709632893"><ele>198.0</ele><time>2026-04-24T15:26:52.999Z</time></trkpt><trkpt lat="43.22080151445181" lon="13.31541469237275"><ele>198.0</ele><time>2026-04-24T15:26:53.999Z</time></trkpt><trkpt lat="43.22076469513151" lon="13.315210859620894"><ele>198.0</ele><time>2026-04-24T15:26:54.999Z</time></trkpt><trkpt lat="43.2207414071698" lon="13.315019634351714"><ele>198.0</ele><time>2026-04-24T15:26:55.999Z</time></trkpt><trkpt lat="43.22073335728652" lon="13.314854503794852"><ele>198.0</ele><time>2026-04-24T15:26:56.999Z</time></trkpt><trkpt lat="43.22072629750719" lon="13.314709216985845"><ele>198.0</ele><time>2026-04-24T15:26:57.999Z</time></trkpt><trkpt lat="43.220709815272315" lon="13.31459089776543"><ele>198.0</ele><time>2026-04-24T15:26:58.999Z</time></trkpt><trkpt lat="43.22066993177494" lon="13.314494243159292"><ele>198.0</ele><time>2026-04-24T15:26:59.999Z</time></trkpt><trkpt lat="43.22059382792195" lon="13.314434745599975"><ele>198.4</ele><time>2026-04-24T15:27:00.999Z</time></trkpt><trkpt lat="43.220495931347315" lon="13.314422621335941"><ele>198.8</ele><time>2026-04-24T15:27:01.999Z</time></trkpt><trkpt lat="43.22039470776977" lon="13.31446368641427"><ele>199.2</ele><time>2026-04-24T15:27:02.998Z</time></trkpt><trkpt lat="43.22029704698485" lon="13.314519558090822"><ele>199.6</ele><time>2026-04-24T15:27:03.998Z</time></trkpt><trkpt lat="43.220187694980936" lon="13.314571456786743"><ele>200.0</ele><time>2026-04-24T15:27:04.998Z</time></trkpt><trkpt lat="43.22007773166986" lon="13.314603540190442"><ele>200.00000000000003</ele><time>2026-04-24T15:27:05.998Z</time></trkpt><trkpt lat="43.2199727406751" lon="13.314634841633524"><ele>200.0</ele><time>2026-04-24T15:27:07Z</time></trkpt><trkpt lat="43.21987656956708" lon="13.314658902096452"><ele>200.0</ele><time>2026-04-24T15:27:08Z</time></trkpt><trkpt lat="43.2197903352607" lon="13.314668799998945"><ele>200.0</ele><time>2026-04-24T15:27:09Z</time></trkpt><trkpt lat="43.219720326909524" lon="13.314660865408822"><ele>200.00000000000003</ele><time>2026-04-24T15:27:10Z</time></trkpt><trkpt lat="43.21965952901971" lon="13.314631382885587"><ele>200.0</ele><time>2026-04-24T15:27:11Z</time></trkpt><trkpt lat="43.21959524180503" lon="13.31459945859605"><ele>199.6</ele><time>2026-04-24T15:27:23Z</time></trkpt><trkpt lat="43.21956139866839" lon="13.314385250740589"><ele>199.2</ele><time>2026-04-24T15:27:24Z</time></trkpt><trkpt lat="43.219540748652456" lon="13.31428409304606"><ele>198.8</ele><time>2026-04-24T15:27:25Z</time></trkpt><trkpt lat="43.21952171881911" lon="13.314166694781642"><ele>198.4</ele><time>2026-04-24T15:27:26Z</time></trkpt><trkpt lat="43.21950230503763" lon="13.31403377769465"><ele>198.0</ele><time>2026-04-24T15:27:27Z</time></trkpt><trkpt lat="43.21947680754129" lon="13.31389383320275"><ele>198.0</ele><time>2026-04-24T15:27:28Z</time></trkpt><trkpt lat="43.219443344356115" lon="13.313746720123106"><ele>198.0</ele><time>2026-04-24T15:27:29Z</time></trkpt><trkpt lat="43.21940040095352" lon="13.31359035414058"><ele>198.0</ele><time>2026-04-24T15:27:30Z</time></trkpt><trkpt lat="43.21934097282657" lon="13.31341932741436"><ele>198.0</ele><time>2026-04-24T15:27:31Z</time></trkpt><trkpt lat="43.21926804565962" lon="13.313253866432861"><ele>198.0</ele><time>2026-04-24T15:27:32Z</time></trkpt><trkpt lat="43.21918565306308" lon="13.313097253723724"><ele>198.0</ele><time>2026-04-24T15:27:33Z</time></trkpt><trkpt lat="43.21909312165115" lon="13.312951244793556"><ele>198.0</ele><time>2026-04-24T15:27:34Z</time></trkpt><trkpt lat="43.2189919181618" lon="13.31281768793014"><ele>198.0</ele><time>2026-04-24T15:27:35Z</time></trkpt><trkpt lat="43.2188847972169" lon="13.312691938186976"><ele>197.25</ele><time>2026-04-24T15:27:36Z</time></trkpt><trkpt lat="43.218774641750755" lon="13.312579550488204"><ele>196.5</ele><time>2026-04-24T15:27:37Z</time></trkpt><trkpt lat="43.21866435688512" lon="13.312474270564742"><ele>195.75</ele><time>2026-04-24T15:27:38Z</time></trkpt><trkpt lat="43.21855633420752" lon="13.312372893115109"><ele>195.0</ele><time>2026-04-24T15:27:39Z</time></trkpt><trkpt lat="43.218452119243075" lon="13.312270182573913"><ele>195.25</ele><time>2026-04-24T15:27:40Z</time></trkpt><trkpt lat="43.218350786133975" lon="13.3121797511829"><ele>195.5</ele><time>2026-04-24T15:27:41Z</time></trkpt><trkpt lat="43.21825117678524" lon="13.312082770532914"><ele>195.75</ele><time>2026-04-24T15:27:42Z</time></trkpt><trkpt lat="43.218159528611665" lon="13.311990208936146"><ele>196.0</ele><time>2026-04-24T15:27:43Z</time></trkpt><trkpt lat="43.21807187283629" lon="13.311906400597964"><ele>196.0</ele><time>2026-04-24T15:27:44Z</time></trkpt><trkpt lat="43.21798511910068" lon="13.3118200935316"><ele>196.0</ele><time>2026-04-24T15:27:45Z</time></trkpt><trkpt lat="43.21789692066575" lon="13.31173664281231"><ele>196.0</ele><time>2026-04-24T15:27:45.999Z</time></trkpt><trkpt lat="43.217802997305085" lon="13.311648986106237"><ele>196.0</ele><time>2026-04-24T15:27:46.999Z</time></trkpt><trkpt lat="43.21771994572784" lon="13.311571312042346"><ele>196.0</ele><time>2026-04-24T15:27:47.999Z</time></trkpt><trkpt lat="43.217641746324325" lon="13.311495706488733"><ele>195.99999999999997</ele><time>2026-04-24T15:27:48.999Z</time></trkpt><trkpt lat="43.21757510758802" lon="13.311427254755788"><ele>196.0</ele><time>2026-04-24T15:27:49.999Z</time></trkpt><trkpt lat="43.21751254389889" lon="13.311355735204748"><ele>196.0</ele><time>2026-04-24T15:27:50.999Z</time></trkpt><trkpt lat="43.217465051048734" lon="13.311284212473645"><ele>196.0</ele><time>2026-04-24T15:27:51.999Z</time></trkpt><trkpt lat="43.217422927088876" lon="13.311192668638384"><ele>195.99999999999997</ele><time>2026-04-24T15:27:52.999Z</time></trkpt><trkpt lat="43.21738515926382" lon="13.311095534439751"><ele>196.0</ele><time>2026-04-24T15:27:53.999Z</time></trkpt><trkpt lat="43.21733143879549" lon="13.311011916115412"><ele>196.20000000000002</ele><time>2026-04-24T15:27:54.999Z</time></trkpt><trkpt lat="43.217247663270555" lon="13.310961294123343"><ele>196.4</ele><time>2026-04-24T15:27:55.999Z</time></trkpt><trkpt lat="43.217145043326724" lon="13.310937846890806"><ele>196.6</ele><time>2026-04-24T15:27:56.999Z</time></trkpt><trkpt lat="43.21704297258218" lon="13.310898320020781"><ele>196.8</ele><time>2026-04-24T15:27:57.999Z</time></trkpt><trkpt lat="43.21694339439145" lon="13.31082454004204"><ele>197.0</ele><time>2026-04-24T15:27:58.999Z</time></trkpt><trkpt lat="43.21684845882041" lon="13.310723182351538"><ele>197.0</ele><time>2026-04-24T15:27:59.999Z</time></trkpt><trkpt lat="43.21677074376583" lon="13.310598470317414"><ele>197.0</ele><time>2026-04-24T15:28:00.999Z</time></trkpt><trkpt lat="43.21670315640511" lon="13.310466353136329"><ele>197.0</ele><time>2026-04-24T15:28:01.999Z</time></trkpt><trkpt lat="43.2166301082927" lon="13.31036264117199"><ele>197.0</ele><time>2026-04-24T15:28:02.999Z</time></trkpt><trkpt lat="43.21655106158922" lon="13.310281418521171"><ele>197.0</ele><time>2026-04-24T15:28:03.999Z</time></trkpt><trkpt lat="43.21648320567729" lon="13.310200921425013"><ele>197.16666666666669</ele><time>2026-04-24T15:28:04.999Z</time></trkpt><trkpt lat="43.21643917893964" lon="13.310107410767023"><ele>197.33333333333334</ele><time>2026-04-24T15:28:05.999Z</time></trkpt><trkpt lat="43.21642292592656" lon="13.31000953554069"><ele>197.5</ele><time>2026-04-24T15:28:06.999Z</time></trkpt><trkpt lat="43.216445883729456" lon="13.309928914277446"><ele>197.66666666666669</ele><time>2026-04-24T15:28:07.999Z</time></trkpt><trkpt lat="43.21654969615529" lon="13.309843146883667"><ele>197.83333333333334</ele><time>2026-04-24T15:28:09.999Z</time></trkpt><trkpt lat="43.216633997868094" lon="13.30979252087688"><ele>198.0</ele><time>2026-04-24T15:28:11.999Z</time></trkpt><trkpt lat="43.21666777219405" lon="13.309935790684351"><ele>198.5</ele><time>2026-04-24T15:28:12.999Z</time></trkpt><trkpt lat="43.2167296512092" lon="13.310042501057463"><ele>199.0</ele><time>2026-04-24T15:30:17.999Z</time></trkpt><trkpt lat="43.21681199217982" lon="13.310119342858814"><ele>199.5</ele><time>2026-04-24T15:30:19.999Z</time></trkpt><trkpt lat="43.21685227288171" lon="13.310209705749227"><ele>200.0</ele><time>2026-04-24T15:30:21.999Z</time></trkpt><trkpt lat="43.21690770869069" lon="13.310271734318135"><ele>200.5</ele><time>2026-04-24T15:30:24.999Z</time></trkpt><trkpt lat="43.216982208819275" lon="13.310229357280448"><ele>201.0</ele><time>2026-04-24T15:30:27.999Z</time></trkpt><trkpt lat="43.21699331753513" lon="13.310081878011227"><ele>201.0</ele><time>2026-04-24T15:30:30.999Z</time></trkpt><trkpt lat="43.216928769592705" lon="13.309953980900962"><ele>201.0</ele><time>2026-04-24T15:30:32.999Z</time></trkpt><trkpt lat="43.21686899931128" lon="13.309819312631447"><ele>201.0</ele><time>2026-04-24T15:30:34.999Z</time></trkpt><trkpt lat="43.21681047087454" lon="13.309691902838896"><ele>201.0</ele><time>2026-04-24T15:30:36.999Z</time></trkpt><trkpt lat="43.21677249614446" lon="13.30960427478642"><ele>201.0</ele><time>2026-04-24T15:30:38.999Z</time></trkpt><trkpt lat="43.21673979264577" lon="13.309523145544041"><ele>201.0</ele><time>2026-04-24T15:30:44.999Z</time></trkpt><trkpt lat="43.21670265875946" lon="13.309439534453494"><ele>201.0</ele><time>2026-04-24T15:30:53.999Z</time></trkpt><trkpt lat="43.21666237067971" lon="13.309346464797393"><ele>201.0</ele><time>2026-04-24T15:30:56.999Z</time></trkpt><trkpt lat="43.21662043608312" lon="13.309252429118454"><ele>201.0</ele><time>2026-04-24T15:30:59.999Z</time></trkpt><trkpt lat="43.216583979623316" lon="13.309158796532518"><ele>201.0</ele><time>2026-04-24T15:31:02.999Z</time></trkpt><trkpt lat="43.21654276355132" lon="13.309051697942808"><ele>201.0</ele><time>2026-04-24T15:31:05.999Z</time></trkpt><trkpt lat="43.21650858936362" lon="13.308940592229341"><ele>200.83333333333334</ele><time>2026-04-24T15:31:08.999Z</time></trkpt><trkpt lat="43.21645483491588" lon="13.308857384253646"><ele>200.66666666666669</ele><time>2026-04-24T15:31:11.999Z</time></trkpt><trkpt lat="43.216410750126414" lon="13.308755921739897"><ele>200.5</ele><time>2026-04-24T15:31:14.999Z</time></trkpt><trkpt lat="43.216369356524915" lon="13.30866145108506"><ele>200.33333333333334</ele><time>2026-04-24T15:31:17.999Z</time></trkpt><trkpt lat="43.216328372222016" lon="13.308567987784075"><ele>200.16666666666669</ele><time>2026-04-24T15:31:21Z</time></trkpt><trkpt lat="43.2162979592608" lon="13.308458765536177"><ele>200.0</ele><time>2026-04-24T15:31:24Z</time></trkpt><trkpt lat="43.21624271417841" lon="13.308370336132585"><ele>200.0</ele><time>2026-04-24T15:31:29Z</time></trkpt><trkpt lat="43.21620912338331" lon="13.308294022583812"><ele>200.0</ele><time>2026-04-24T15:31:32Z</time></trkpt><trkpt lat="43.21608853486159" lon="13.308370043732866"><ele>200.0</ele><time>2026-04-24T15:31:34Z</time></trkpt><trkpt lat="43.21600791695822" lon="13.308486743929315"><ele>200.0</ele><time>2026-04-24T15:31:36Z</time></trkpt><trkpt lat="43.21594334461237" lon="13.308579141391789"><ele>200.0</ele><time>2026-04-24T15:31:38Z</time></trkpt><trkpt lat="43.21588408507909" lon="13.308646722704387"><ele>200.00000000000003</ele><time>2026-04-24T15:31:40Z</time></trkpt><trkpt lat="43.21582847698998" lon="13.308702762330482"><ele>200.0</ele><time>2026-04-24T15:31:46Z</time></trkpt><trkpt lat="43.21577511128806" lon="13.308754728725798"><ele>200.0</ele><time>2026-04-24T15:31:50Z</time></trkpt><trkpt lat="43.21568757287989" lon="13.30876213524347"><ele>200.0</ele><time>2026-04-24T15:31:55Z</time></trkpt><trkpt lat="43.21563245110547" lon="13.308805001091477"><ele>200.00000000000003</ele><time>2026-04-24T15:31:57Z</time></trkpt><trkpt lat="43.21556014134555" lon="13.308659600186777"><ele>200.0</ele><time>2026-04-24T15:31:59Z</time></trkpt><trkpt lat="43.21550417632323" lon="13.30856509313505"><ele>199.0</ele><time>2026-04-24T15:32:01Z</time></trkpt><trkpt lat="43.215449578837124" lon="13.308449577774635"><ele>198.0</ele><time>2026-04-24T15:32:03Z</time></trkpt><trkpt lat="43.21539596844842" lon="13.308344971334275"><ele>197.0</ele><time>2026-04-24T15:32:04.999Z</time></trkpt><trkpt lat="43.21534306267033" lon="13.308240426489585"><ele>196.0</ele><time>2026-04-24T15:32:06.999Z</time></trkpt><trkpt lat="43.21528943662973" lon="13.308119613200466"><ele>195.0</ele><time>2026-04-24T15:32:08.999Z</time></trkpt><trkpt lat="43.21522031485224" lon="13.307981135262207"><ele>195.0</ele><time>2026-04-24T15:32:10.999Z</time></trkpt><trkpt lat="43.21518040792499" lon="13.307898570193927"><ele>195.0</ele><time>2026-04-24T15:32:11.999Z</time></trkpt><trkpt lat="43.215141867319716" lon="13.307817070738217"><ele>195.0</ele><time>2026-04-24T15:32:12.999Z</time></trkpt><trkpt lat="43.215099825534644" lon="13.307729638012955"><ele>195.0</ele><time>2026-04-24T15:32:13.999Z</time></trkpt><trkpt lat="43.21505895531201" lon="13.30764676786271"><ele>195.0</ele><time>2026-04-24T15:32:14.999Z</time></trkpt><trkpt lat="43.215015740411914" lon="13.307563822913867"><ele>195.0</ele><time>2026-04-24T15:32:15.999Z</time></trkpt><trkpt lat="43.21497040130751" lon="13.307476732915966"><ele>195.0</ele><time>2026-04-24T15:32:16.999Z</time></trkpt><trkpt lat="43.21491404581287" lon="13.307378920885581"><ele>195.0</ele><time>2026-04-24T15:32:17.999Z</time></trkpt><trkpt lat="43.2148593364488" lon="13.307280802924746"><ele>195.0</ele><time>2026-04-24T15:32:18.999Z</time></trkpt><trkpt lat="43.21480641769958" lon="13.307178841429511"><ele>195.0</ele><time>2026-04-24T15:32:19.999Z</time></trkpt><trkpt lat="43.214750222815056" lon="13.3070750273185"><ele>195.0</ele><time>2026-04-24T15:32:20.999Z</time></trkpt><trkpt lat="43.214693776801944" lon="13.306974958665588"><ele>195.0</ele><time>2026-04-24T15:32:21.999Z</time></trkpt><trkpt lat="43.21463589654686" lon="13.306872605622264"><ele>195.0</ele><time>2026-04-24T15:32:22.999Z</time></trkpt><trkpt lat="43.21458010812492" lon="13.30677126027332"><ele>195.0</ele><time>2026-04-24T15:32:23.999Z</time></trkpt><trkpt lat="43.21452991908974" lon="13.306683877049867"><ele>195.0</ele><time>2026-04-24T15:32:24.999Z</time></trkpt><trkpt lat="43.21447440967164" lon="13.306597533869756"><ele>195.0</ele><time>2026-04-24T15:32:25.999Z</time></trkpt><trkpt lat="43.21441990989012" lon="13.30650986759514"><ele>195.0</ele><time>2026-04-24T15:32:26.999Z</time></trkpt><trkpt lat="43.21436418996151" lon="13.306411273505008"><ele>195.0</ele><time>2026-04-24T15:32:27.999Z</time></trkpt><trkpt lat="43.21431648263458" lon="13.306311993830377"><ele>195.0</ele><time>2026-04-24T15:32:28.999Z</time></trkpt><trkpt lat="43.214273714509716" lon="13.306218543321666"><ele>195.0</ele><time>2026-04-24T15:32:29.999Z</time></trkpt><trkpt lat="43.21423313271084" lon="13.306130252837097"><ele>195.0</ele><time>2026-04-24T15:32:30.999Z</time></trkpt><trkpt lat="43.214192075641584" lon="13.306019647723604"><ele>195.0</ele><time>2026-04-24T15:32:32.999Z</time></trkpt><trkpt lat="43.2141641660231" lon="13.3058743062653"><ele>195.0</ele><time>2026-04-24T15:32:35.999Z</time></trkpt><trkpt lat="43.21413356475762" lon="13.305743218567295"><ele>195.0</ele><time>2026-04-24T15:32:37.999Z</time></trkpt><trkpt lat="43.21404723467321" lon="13.305669202306738"><ele>195.0</ele><time>2026-04-24T15:32:39.999Z</time></trkpt><trkpt lat="43.21393550153008" lon="13.30569255249779"><ele>195.0</ele><time>2026-04-24T15:32:41.999Z</time></trkpt><trkpt lat="43.21389027605871" lon="13.305783845410929"><ele>195.0</ele><time>2026-04-24T15:32:42.999Z</time></trkpt><trkpt lat="43.21388114937797" lon="13.305894115331336"><ele>195.0</ele><time>2026-04-24T15:32:43.999Z</time></trkpt><trkpt lat="43.21385866566091" lon="13.305984914597996"><ele>195.0</ele><time>2026-04-24T15:32:44.999Z</time></trkpt><trkpt lat="43.21382726853762" lon="13.306090116160714"><ele>193.6</ele><time>2026-04-24T15:32:45.999Z</time></trkpt><trkpt lat="43.21378113359735" lon="13.30618247099304"><ele>192.2</ele><time>2026-04-24T15:32:46.999Z</time></trkpt><trkpt lat="43.21372037985008" lon="13.306266956500881"><ele>190.8</ele><time>2026-04-24T15:32:47.999Z</time></trkpt><trkpt lat="43.21365306942685" lon="13.306345757323086"><ele>189.4</ele><time>2026-04-24T15:32:48.999Z</time></trkpt><trkpt lat="43.213575579369774" lon="13.306423366652224"><ele>188.0</ele><time>2026-04-24T15:32:49.999Z</time></trkpt><trkpt lat="43.21349125999287" lon="13.306501896137268"><ele>187.0</ele><time>2026-04-24T15:32:50.999Z</time></trkpt><trkpt lat="43.213398940963" lon="13.306588002678113"><ele>186.0</ele><time>2026-04-24T15:32:51.999Z</time></trkpt><trkpt lat="43.21329464114464" lon="13.306690635754393"><ele>185.0</ele><time>2026-04-24T15:32:52.999Z</time></trkpt><trkpt lat="43.213188619137604" lon="13.3067984974013"><ele>184.0</ele><time>2026-04-24T15:32:53.999Z</time></trkpt><trkpt lat="43.21307915274883" lon="13.306912096487919"><ele>184.0</ele><time>2026-04-24T15:32:54.999Z</time></trkpt><trkpt lat="43.21296734432325" lon="13.307025839614349"><ele>184.0</ele><time>2026-04-24T15:32:55.999Z</time></trkpt><trkpt lat="43.21285367387825" lon="13.307137428047096"><ele>184.0</ele><time>2026-04-24T15:32:56.999Z</time></trkpt><trkpt lat="43.21274049271643" lon="13.307249827108599"><ele>184.0</ele><time>2026-04-24T15:32:57.999Z</time></trkpt><trkpt lat="43.21262775678876" lon="13.307358483666292"><ele>184.0</ele><time>2026-04-24T15:32:58.999Z</time></trkpt><trkpt lat="43.21251578091705" lon="13.307465084466234"><ele>184.0</ele><time>2026-04-24T15:32:59.999Z</time></trkpt><trkpt lat="43.212404169668844" lon="13.30756997838423"><ele>184.0</ele><time>2026-04-24T15:33:00.999Z</time></trkpt><trkpt lat="43.21230002689221" lon="13.307660902390094"><ele>184.0</ele><time>2026-04-24T15:33:01.999Z</time></trkpt><trkpt lat="43.21220515757058" lon="13.307746563984425"><ele>184.6</ele><time>2026-04-24T15:33:02.999Z</time></trkpt><trkpt lat="43.212115274875934" lon="13.30783329608614"><ele>185.2</ele><time>2026-04-24T15:33:03.999Z</time></trkpt><trkpt lat="43.2120248043406" lon="13.307919335056104"><ele>185.79999999999998</ele><time>2026-04-24T15:33:04.999Z</time></trkpt><trkpt lat="43.2119354638575" lon="13.308002636041753"><ele>186.39999999999998</ele><time>2026-04-24T15:33:05.999Z</time></trkpt><trkpt lat="43.21184520114275" lon="13.30808719252035"><ele>187.0</ele><time>2026-04-24T15:33:06.999Z</time></trkpt><trkpt lat="43.21174967785724" lon="13.308179876500777"><ele>187.0</ele><time>2026-04-24T15:33:07.999Z</time></trkpt><trkpt lat="43.2116457044686" lon="13.308289453274316"><ele>187.0</ele><time>2026-04-24T15:33:08.999Z</time></trkpt><trkpt lat="43.211529748298304" lon="13.308414179941062"><ele>187.0</ele><time>2026-04-24T15:33:09.999Z</time></trkpt><trkpt lat="43.21141444048325" lon="13.308532223815659"><ele>187.0</ele><time>2026-04-24T15:33:10.999Z</time></trkpt><trkpt lat="43.21129058713681" lon="13.308654211865392"><ele>187.33333333333334</ele><time>2026-04-24T15:33:11.999Z</time></trkpt><trkpt lat="43.21116426015573" lon="13.308778424484155"><ele>187.66666666666666</ele><time>2026-04-24T15:33:12.999Z</time></trkpt><trkpt lat="43.211039459680904" lon="13.308905512086348"><ele>188.0</ele><time>2026-04-24T15:33:13.999Z</time></trkpt><trkpt lat="43.21091336500012" lon="13.309029435388075"><ele>188.25</ele><time>2026-04-24T15:33:14.999Z</time></trkpt><trkpt lat="43.21078786734737" lon="13.309139134376068"><ele>188.5</ele><time>2026-04-24T15:33:15.999Z</time></trkpt><trkpt lat="43.21067681636444" lon="13.309267780729847"><ele>188.75</ele><time>2026-04-24T15:33:16.999Z</time></trkpt><trkpt lat="43.210572787011365" lon="13.309377148757832"><ele>189.0</ele><time>2026-04-24T15:33:17.999Z</time></trkpt><trkpt lat="43.210464712650676" lon="13.30949030589865"><ele>189.0</ele><time>2026-04-24T15:33:18.999Z</time></trkpt><trkpt lat="43.21034671935574" lon="13.309606772641338"><ele>189.0</ele><time>2026-04-24T15:33:19.999Z</time></trkpt><trkpt lat="43.21021844354113" lon="13.309719076990682"><ele>189.0</ele><time>2026-04-24T15:33:20.999Z</time></trkpt><trkpt lat="43.210085489500436" lon="13.309829452128202"><ele>189.0</ele><time>2026-04-24T15:33:21.999Z</time></trkpt><trkpt lat="43.20994808530011" lon="13.309928766985026"><ele>189.0</ele><time>2026-04-24T15:33:22.999Z</time></trkpt><trkpt lat="43.20980565194267" lon="13.310017659073717"><ele>189.0</ele><time>2026-04-24T15:33:23.999Z</time></trkpt><trkpt lat="43.2096701411383" lon="13.310090374359591"><ele>189.5</ele><time>2026-04-24T15:33:25Z</time></trkpt><trkpt lat="43.20953104186654" lon="13.310159322072138"><ele>190.0</ele><time>2026-04-24T15:33:26Z</time></trkpt><trkpt lat="43.20940406246961" lon="13.310216329319378"><ele>190.5</ele><time>2026-04-24T15:33:27Z</time></trkpt><trkpt lat="43.20928626615727" lon="13.310262212618506"><ele>191.0</ele><time>2026-04-24T15:33:28Z</time></trkpt><trkpt lat="43.20917755457585" lon="13.310285497935814"><ele>191.0</ele><time>2026-04-24T15:33:29Z</time></trkpt><trkpt lat="43.20909156125495" lon="13.310327469162704"><ele>191.0</ele><time>2026-04-24T15:33:30Z</time></trkpt><trkpt lat="43.20903766877599" lon="13.310372388662582"><ele>191.0</ele><time>2026-04-24T15:33:31Z</time></trkpt><trkpt lat="43.2088861660924" lon="13.310129616354233"><ele>191.0</ele><time>2026-04-24T15:33:32Z</time></trkpt><trkpt lat="43.208821073605186" lon="13.309976173996738"><ele>193.33333333333331</ele><time>2026-04-24T15:33:33Z</time></trkpt><trkpt lat="43.20872751891112" lon="13.309822087874199"><ele>195.66666666666666</ele><time>2026-04-24T15:33:34Z</time></trkpt><trkpt lat="43.208644532432764" lon="13.30963892329672"><ele>198.0</ele><time>2026-04-24T15:33:35Z</time></trkpt><trkpt lat="43.20854660133497" lon="13.309449743901201"><ele>198.0</ele><time>2026-04-24T15:33:36Z</time></trkpt><trkpt lat="43.208442040148704" lon="13.30926976771263"><ele>198.0</ele><time>2026-04-24T15:33:37Z</time></trkpt><trkpt lat="43.20832608945633" lon="13.309075564642498"><ele>198.0</ele><time>2026-04-24T15:33:38Z</time></trkpt><trkpt lat="43.20821418066024" lon="13.308880184979834"><ele>199.66666666666669</ele><time>2026-04-24T15:33:39Z</time></trkpt><trkpt lat="43.208101948940204" lon="13.308691152696806"><ele>201.33333333333334</ele><time>2026-04-24T15:33:40Z</time></trkpt><trkpt lat="43.20798223656586" lon="13.308493435275059"><ele>203.0</ele><time>2026-04-24T15:33:41Z</time></trkpt><trkpt lat="43.207865497680196" lon="13.308299238633444"><ele>203.0</ele><time>2026-04-24T15:33:42Z</time></trkpt><trkpt lat="43.207749254742374" lon="13.308090023298158"><ele>203.0</ele><time>2026-04-24T15:33:43Z</time></trkpt><trkpt lat="43.20764099406171" lon="13.307876694419722"><ele>203.0</ele><time>2026-04-24T15:33:44Z</time></trkpt><trkpt lat="43.20753852478097" lon="13.307655604748556"><ele>201.66666666666669</ele><time>2026-04-24T15:33:45Z</time></trkpt><trkpt lat="43.207448343609215" lon="13.307436425260764"><ele>200.33333333333331</ele><time>2026-04-24T15:33:46Z</time></trkpt><trkpt lat="43.207354882895466" lon="13.307216068377052"><ele>199.0</ele><time>2026-04-24T15:33:47Z</time></trkpt><trkpt lat="43.20725491506054" lon="13.30699393205111"><ele>199.0</ele><time>2026-04-24T15:33:48Z</time></trkpt><trkpt lat="43.20715384517846" lon="13.306776775415702"><ele>199.0</ele><time>2026-04-24T15:33:49Z</time></trkpt><trkpt lat="43.20705269378391" lon="13.306559257163476"><ele>199.0</ele><time>2026-04-24T15:33:50Z</time></trkpt><trkpt lat="43.20695235773862" lon="13.306333439175683"><ele>197.0</ele><time>2026-04-24T15:33:51Z</time></trkpt><trkpt lat="43.20685369901227" lon="13.306097318280074"><ele>195.0</ele><time>2026-04-24T15:33:52Z</time></trkpt><trkpt lat="43.206774978009314" lon="13.305874365977001"><ele>193.0</ele><time>2026-04-24T15:33:53Z</time></trkpt><trkpt lat="43.20669599908822" lon="13.305628333128901"><ele>192.66666666666666</ele><time>2026-04-24T15:33:54Z</time></trkpt><trkpt lat="43.20662707593486" lon="13.305398388877018"><ele>192.33333333333331</ele><time>2026-04-24T15:33:55Z</time></trkpt><trkpt lat="43.206571962125295" lon="13.30521193039641"><ele>192.0</ele><time>2026-04-24T15:33:56Z</time></trkpt><trkpt lat="43.206472441170725" lon="13.304928284175617"><ele>195.0</ele><time>2026-04-24T15:33:57Z</time></trkpt><trkpt lat="43.20639757590218" lon="13.304695219556153"><ele>198.0</ele><time>2026-04-24T15:33:58Z</time></trkpt><trkpt lat="43.20632799651849" lon="13.304465190594142"><ele>201.0</ele><time>2026-04-24T15:33:59Z</time></trkpt><trkpt lat="43.20628621703179" lon="13.304224258614903"><ele>201.0</ele><time>2026-04-24T15:34:00Z</time></trkpt><trkpt lat="43.20628277973281" lon="13.30397916922495"><ele>201.0</ele><time>2026-04-24T15:34:01Z</time></trkpt><trkpt lat="43.20632583411458" lon="13.303734820058322"><ele>201.0</ele><time>2026-04-24T15:34:02Z</time></trkpt><trkpt lat="43.20636677253076" lon="13.303486113077724"><ele>202.66666666666669</ele><time>2026-04-24T15:34:03Z</time></trkpt><trkpt lat="43.20640544339028" lon="13.303246228101687"><ele>204.33333333333334</ele><time>2026-04-24T15:34:04Z</time></trkpt><trkpt lat="43.20643618883569" lon="13.302995607276115"><ele>206.0</ele><time>2026-04-24T15:34:05Z</time></trkpt><trkpt lat="43.20646444638136" lon="13.302758833312826"><ele>204.0</ele><time>2026-04-24T15:34:06Z</time></trkpt><trkpt lat="43.20649684222861" lon="13.302522547887149"><ele>202.0</ele><time>2026-04-24T15:34:07Z</time></trkpt><trkpt lat="43.20652560037696" lon="13.30227501572769"><ele>200.0</ele><time>2026-04-24T15:34:08Z</time></trkpt><trkpt lat="43.20654507414922" lon="13.302029886924354"><ele>200.0</ele><time>2026-04-24T15:34:09Z</time></trkpt><trkpt lat="43.20655329390796" lon="13.301776182323977"><ele>200.0</ele><time>2026-04-24T15:34:10Z</time></trkpt><trkpt lat="43.20655385218643" lon="13.30152249785822"><ele>200.0</ele><time>2026-04-24T15:34:11Z</time></trkpt><trkpt lat="43.20655185501468" lon="13.301265801537971"><ele>200.0</ele><time>2026-04-24T15:34:12Z</time></trkpt><trkpt lat="43.20654713399226" lon="13.301011141722364"><ele>200.0</ele><time>2026-04-24T15:34:13Z</time></trkpt><trkpt lat="43.2065385523377" lon="13.30076290034227"><ele>200.0</ele><time>2026-04-24T15:34:14Z</time></trkpt><trkpt lat="43.20652534663263" lon="13.300508039874295"><ele>200.0</ele><time>2026-04-24T15:34:15Z</time></trkpt><trkpt lat="43.20651524719852" lon="13.300259427466285"><ele>200.0</ele><time>2026-04-24T15:34:15.999Z</time></trkpt><trkpt lat="43.20650811534733" lon="13.300021374533435"><ele>200.0</ele><time>2026-04-24T15:34:16.999Z</time></trkpt><trkpt lat="43.206507416876384" lon="13.29975160143018"><ele>199.33333333333334</ele><time>2026-04-24T15:34:17.999Z</time></trkpt><trkpt lat="43.206519084885464" lon="13.299516806315891"><ele>198.66666666666669</ele><time>2026-04-24T15:34:18.999Z</time></trkpt><trkpt lat="43.206537415458925" lon="13.299279052432853"><ele>198.0</ele><time>2026-04-24T15:34:19.999Z</time></trkpt><trkpt lat="43.206590259526585" lon="13.299090245070087"><ele>197.33333333333331</ele><time>2026-04-24T15:34:20.999Z</time></trkpt><trkpt lat="43.206667990265196" lon="13.298899384036867"><ele>196.66666666666666</ele><time>2026-04-24T15:34:21.999Z</time></trkpt><trkpt lat="43.2067993879063" lon="13.298758422074707"><ele>196.0</ele><time>2026-04-24T15:34:22.999Z</time></trkpt><trkpt lat="43.20694110706473" lon="13.298615455414211"><ele>196.0</ele><time>2026-04-24T15:34:23.999Z</time></trkpt><trkpt lat="43.207075546182004" lon="13.298458628812362"><ele>196.0</ele><time>2026-04-24T15:34:24.999Z</time></trkpt><trkpt lat="43.20722657273036" lon="13.298327298952072"><ele>196.0</ele><time>2026-04-24T15:34:25.999Z</time></trkpt><trkpt lat="43.20737449055137" lon="13.298189524568786"><ele>195.0</ele><time>2026-04-24T15:34:26.999Z</time></trkpt><trkpt lat="43.207515278507366" lon="13.298056314511602"><ele>194.0</ele><time>2026-04-24T15:34:27.999Z</time></trkpt><trkpt lat="43.207647801399936" lon="13.297928062077196"><ele>193.0</ele><time>2026-04-24T15:34:28.999Z</time></trkpt><trkpt lat="43.20775971080277" lon="13.297805884348449"><ele>193.0</ele><time>2026-04-24T15:34:29.999Z</time></trkpt><trkpt lat="43.207848208579186" lon="13.297659065724087"><ele>193.0</ele><time>2026-04-24T15:34:30.999Z</time></trkpt><trkpt lat="43.20789448244653" lon="13.297466239126612"><ele>193.0</ele><time>2026-04-24T15:34:31.999Z</time></trkpt><trkpt lat="43.207911842589866" lon="13.297256285944925"><ele>193.0</ele><time>2026-04-24T15:34:32.999Z</time></trkpt><trkpt lat="43.20791167847454" lon="13.297036776118377"><ele>193.25</ele><time>2026-04-24T15:34:33.999Z</time></trkpt><trkpt lat="43.20791575687359" lon="13.296830358878774"><ele>193.5</ele><time>2026-04-24T15:34:34.999Z</time></trkpt><trkpt lat="43.207899235111675" lon="13.296650929226896"><ele>193.75</ele><time>2026-04-24T15:34:35.999Z</time></trkpt><trkpt lat="43.207840884953306" lon="13.296488117550302"><ele>194.0</ele><time>2026-04-24T15:34:36.999Z</time></trkpt><trkpt lat="43.20773873338947" lon="13.296320570502452"><ele>194.0</ele><time>2026-04-24T15:34:37.999Z</time></trkpt><trkpt lat="43.20762080965441" lon="13.29615974993634"><ele>194.0</ele><time>2026-04-24T15:34:38.999Z</time></trkpt><trkpt lat="43.20750483758507" lon="13.295978620626066"><ele>194.0</ele><time>2026-04-24T15:34:39.999Z</time></trkpt><trkpt lat="43.20740209141534" lon="13.295802645466711"><ele>194.0</ele><time>2026-04-24T15:34:40.999Z</time></trkpt><trkpt lat="43.20730029997992" lon="13.295616140759023"><ele>194.0</ele><time>2026-04-24T15:34:41.999Z</time></trkpt><trkpt lat="43.20720215987494" lon="13.295426181770745"><ele>194.0</ele><time>2026-04-24T15:34:42.999Z</time></trkpt><trkpt lat="43.207113300207624" lon="13.295228433437327"><ele>194.33333333333334</ele><time>2026-04-24T15:34:43.999Z</time></trkpt><trkpt lat="43.207032461753045" lon="13.295015371699973"><ele>194.66666666666669</ele><time>2026-04-24T15:34:44.999Z</time></trkpt><trkpt lat="43.20695074879708" lon="13.294795257754393"><ele>195.0</ele><time>2026-04-24T15:34:45.999Z</time></trkpt><trkpt lat="43.20686451436134" lon="13.294584342176435"><ele>195.0</ele><time>2026-04-24T15:34:46.999Z</time></trkpt><trkpt lat="43.20678081924852" lon="13.294388335622761"><ele>195.0</ele><time>2026-04-24T15:34:47.999Z</time></trkpt><trkpt lat="43.206693699069255" lon="13.294184106460659"><ele>195.0</ele><time>2026-04-24T15:34:48.999Z</time></trkpt><trkpt lat="43.206603071421746" lon="13.293978651285334"><ele>194.66666666666669</ele><time>2026-04-24T15:34:49.999Z</time></trkpt><trkpt lat="43.206514649810785" lon="13.293780482956512"><ele>194.33333333333334</ele><time>2026-04-24T15:34:50.999Z</time></trkpt><trkpt lat="43.20642484224909" lon="13.293587349295022"><ele>194.0</ele><time>2026-04-24T15:34:51.999Z</time></trkpt><trkpt lat="43.206338884959486" lon="13.293393390633542"><ele>196.66666666666669</ele><time>2026-04-24T15:34:52.999Z</time></trkpt><trkpt lat="43.206255595656465" lon="13.293206113707246"><ele>199.33333333333331</ele><time>2026-04-24T15:34:53.999Z</time></trkpt><trkpt lat="43.20619476485413" lon="13.29299770683805"><ele>202.0</ele><time>2026-04-24T15:34:54.999Z</time></trkpt><trkpt lat="43.20615305158871" lon="13.292782463470889"><ele>202.0</ele><time>2026-04-24T15:34:55.999Z</time></trkpt><trkpt lat="43.206117144346194" lon="13.292545470763024"><ele>202.0</ele><time>2026-04-24T15:34:56.999Z</time></trkpt><trkpt lat="43.20608418264375" lon="13.292318082159055"><ele>202.0</ele><time>2026-04-24T15:34:57.999Z</time></trkpt><trkpt lat="43.20604914370916" lon="13.292098255408225"><ele>201.33333333333331</ele><time>2026-04-24T15:34:58.999Z</time></trkpt><trkpt lat="43.20600935802551" lon="13.29188385201504"><ele>200.66666666666669</ele><time>2026-04-24T15:34:59.999Z</time></trkpt><trkpt lat="43.20597315916094" lon="13.291670872606591"><ele>200.0</ele><time>2026-04-24T15:35:00.999Z</time></trkpt><trkpt lat="43.20593423523457" lon="13.291455939790552"><ele>199.66666666666669</ele><time>2026-04-24T15:35:01.999Z</time></trkpt><trkpt lat="43.20589729856026" lon="13.291243974220107"><ele>199.33333333333331</ele><time>2026-04-24T15:35:02.999Z</time></trkpt><trkpt lat="43.205861843721884" lon="13.29102719010159"><ele>199.0</ele><time>2026-04-24T15:35:03.999Z</time></trkpt><trkpt lat="43.20583810909976" lon="13.290813178394698"><ele>198.33333333333331</ele><time>2026-04-24T15:35:04.999Z</time></trkpt><trkpt lat="43.20581825950455" lon="13.29058898572623"><ele>197.66666666666669</ele><time>2026-04-24T15:35:05.999Z</time></trkpt><trkpt lat="43.20580987504436" lon="13.290376515647047"><ele>197.0</ele><time>2026-04-24T15:35:06.999Z</time></trkpt><trkpt lat="43.20579850642092" lon="13.290177747424359"><ele>197.0</ele><time>2026-04-24T15:35:07.999Z</time></trkpt><trkpt lat="43.205771433194776" lon="13.289997657187207"><ele>197.0</ele><time>2026-04-24T15:35:08.999Z</time></trkpt><trkpt lat="43.20571097305004" lon="13.289835815856428"><ele>197.0</ele><time>2026-04-24T15:35:09.999Z</time></trkpt><trkpt lat="43.20562257992878" lon="13.289687902286385"><ele>197.0</ele><time>2026-04-24T15:35:10.999Z</time></trkpt><trkpt lat="43.20550214427025" lon="13.289574210646489"><ele>199.25</ele><time>2026-04-24T15:35:11.999Z</time></trkpt><trkpt lat="43.205361328294856" lon="13.289483302402415"><ele>201.5</ele><time>2026-04-24T15:35:12.999Z</time></trkpt><trkpt lat="43.20523315719345" lon="13.289397069720716"><ele>203.75</ele><time>2026-04-24T15:35:13.999Z</time></trkpt><trkpt lat="43.2051268873551" lon="13.289316658617317"><ele>206.0</ele><time>2026-04-24T15:35:14.999Z</time></trkpt><trkpt lat="43.205061121816335" lon="13.289204667145361"><ele>206.0</ele><time>2026-04-24T15:35:15.999Z</time></trkpt><trkpt lat="43.20501240633711" lon="13.289088185641232"><ele>206.0</ele><time>2026-04-24T15:35:16.999Z</time></trkpt><trkpt lat="43.20502957625016" lon="13.288937640302834"><ele>206.0</ele><time>2026-04-24T15:35:17.999Z</time></trkpt><trkpt lat="43.20504601461499" lon="13.288780165954009"><ele>206.0</ele><time>2026-04-24T15:35:18.999Z</time></trkpt><trkpt lat="43.205073217667476" lon="13.288654487097391"><ele>206.0</ele><time>2026-04-24T15:35:19.999Z</time></trkpt><trkpt lat="43.205080995260516" lon="13.288532576240316"><ele>206.00000000000003</ele><time>2026-04-24T15:35:20.999Z</time></trkpt><trkpt lat="43.20508511453613" lon="13.288423486635079"><ele>206.0</ele><time>2026-04-24T15:35:21.999Z</time></trkpt><trkpt lat="43.205081130153076" lon="13.288317176318966"><ele>206.0</ele><time>2026-04-24T15:35:22.999Z</time></trkpt><trkpt lat="43.20507121326046" lon="13.288222778371631"><ele>206.0</ele><time>2026-04-24T15:35:23.999Z</time></trkpt><trkpt lat="43.20504666479484" lon="13.28804896166071"><ele>206.00000000000003</ele><time>2026-04-24T15:35:25.999Z</time></trkpt><trkpt lat="43.205038176584566" lon="13.28793968358823"><ele>206.0</ele><time>2026-04-24T15:35:26.999Z</time></trkpt><trkpt lat="43.205038612981056" lon="13.287822620029242"><ele>206.0</ele><time>2026-04-24T15:35:27.999Z</time></trkpt><trkpt lat="43.205041669261675" lon="13.287687012354086"><ele>206.0</ele><time>2026-04-24T15:35:28.999Z</time></trkpt><trkpt lat="43.20504576135445" lon="13.28754650952861"><ele>206.0</ele><time>2026-04-24T15:35:30Z</time></trkpt><trkpt lat="43.20505315212232" lon="13.28739971170636"><ele>206.0</ele><time>2026-04-24T15:35:31Z</time></trkpt><trkpt lat="43.20505877923235" lon="13.287278118313411"><ele>206.0</ele><time>2026-04-24T15:35:32Z</time></trkpt><trkpt lat="43.2050651747077" lon="13.287157429574254"><ele>206.00000000000003</ele><time>2026-04-24T15:35:33Z</time></trkpt><trkpt lat="43.205065409368345" lon="13.28704268568922"><ele>206.0</ele><time>2026-04-24T15:35:34Z</time></trkpt><trkpt lat="43.205066763887594" lon="13.286933925782192"><ele>206.0</ele><time>2026-04-24T15:35:35Z</time></trkpt><trkpt lat="43.20506468537235" lon="13.286831417335591"><ele>206.0</ele><time>2026-04-24T15:35:36Z</time></trkpt><trkpt lat="43.20506542487244" lon="13.286740442399573"><ele>206.00000000000003</ele><time>2026-04-24T15:35:37Z</time></trkpt><trkpt lat="43.20506686794811" lon="13.286592590984197"><ele>206.0</ele><time>2026-04-24T15:35:39Z</time></trkpt><trkpt lat="43.20505539502639" lon="13.286480267862432"><ele>204.75</ele><time>2026-04-24T15:35:41Z</time></trkpt><trkpt lat="43.204982325422215" lon="13.286309864285942"><ele>203.5</ele><time>2026-04-24T15:35:43Z</time></trkpt><trkpt lat="43.20491892457626" lon="13.28618593455441"><ele>202.25</ele><time>2026-04-24T15:35:44Z</time></trkpt><trkpt lat="43.20485367917667" lon="13.286047337405009"><ele>201.0</ele><time>2026-04-24T15:35:45Z</time></trkpt><trkpt lat="43.20479176762102" lon="13.285890044946273"><ele>203.0</ele><time>2026-04-24T15:35:46Z</time></trkpt><trkpt lat="43.204732905635694" lon="13.285711043858692"><ele>205.0</ele><time>2026-04-24T15:35:47Z</time></trkpt><trkpt lat="43.204679608681154" lon="13.285535324834132"><ele>207.0</ele><time>2026-04-24T15:35:48Z</time></trkpt><trkpt lat="43.20462559406706" lon="13.285349736446964"><ele>209.0</ele><time>2026-04-24T15:35:49Z</time></trkpt><trkpt lat="43.204574208336524" lon="13.285159773193513"><ele>209.0</ele><time>2026-04-24T15:35:50Z</time></trkpt><trkpt lat="43.20453598513115" lon="13.284974229573384"><ele>209.0</ele><time>2026-04-24T15:35:51Z</time></trkpt><trkpt lat="43.204511737394846" lon="13.284789060403316"><ele>209.0</ele><time>2026-04-24T15:35:52Z</time></trkpt><trkpt lat="43.20449913912727" lon="13.284602839387906"><ele>209.0</ele><time>2026-04-24T15:35:53Z</time></trkpt><trkpt lat="43.20450102018007" lon="13.284416246845764"><ele>208.75</ele><time>2026-04-24T15:35:54Z</time></trkpt><trkpt lat="43.204522102054085" lon="13.284232776093141"><ele>208.5</ele><time>2026-04-24T15:35:55Z</time></trkpt><trkpt lat="43.204554609212906" lon="13.284056514798806"><ele>208.25</ele><time>2026-04-24T15:35:56Z</time></trkpt><trkpt lat="43.204597233694244" lon="13.283905276218858"><ele>208.0</ele><time>2026-04-24T15:35:57Z</time></trkpt><trkpt lat="43.20464382066497" lon="13.283777654832564"><ele>207.66666666666666</ele><time>2026-04-24T15:35:58Z</time></trkpt><trkpt lat="43.20467730068942" lon="13.283662121377713"><ele>207.33333333333331</ele><time>2026-04-24T15:35:59Z</time></trkpt><trkpt lat="43.20470533479724" lon="13.283560888492238"><ele>207.0</ele><time>2026-04-24T15:36:00Z</time></trkpt><trkpt lat="43.20473602501511" lon="13.283467616483358"><ele>206.66666666666669</ele><time>2026-04-24T15:36:01Z</time></trkpt><trkpt lat="43.20477342834579" lon="13.283364925165175"><ele>206.33333333333334</ele><time>2026-04-24T15:36:02Z</time></trkpt><trkpt lat="43.20480916997593" lon="13.283267356060808"><ele>206.0</ele><time>2026-04-24T15:36:03Z</time></trkpt><trkpt lat="43.20484528055784" lon="13.28316563558944"><ele>205.33333333333334</ele><time>2026-04-24T15:36:04Z</time></trkpt><trkpt lat="43.20487450052623" lon="13.283080347562152"><ele>204.66666666666669</ele><time>2026-04-24T15:36:05Z</time></trkpt><trkpt lat="43.20490041698136" lon="13.282998452149652"><ele>204.0</ele><time>2026-04-24T15:36:06Z</time></trkpt><trkpt lat="43.20495211520737" lon="13.282850494886805"><ele>203.33333333333331</ele><time>2026-04-24T15:36:08Z</time></trkpt><trkpt lat="43.20498295060744" lon="13.282768554273844"><ele>202.66666666666666</ele><time>2026-04-24T15:36:09Z</time></trkpt><trkpt lat="43.20501105224352" lon="13.282683928682586"><ele>202.0</ele><time>2026-04-24T15:36:10Z</time></trkpt><trkpt lat="43.20505682325738" lon="13.28253066432577"><ele>201.99999999999997</ele><time>2026-04-24T15:36:12Z</time></trkpt><trkpt lat="43.205080235830636" lon="13.282448164739769"><ele>202.0</ele><time>2026-04-24T15:36:13Z</time></trkpt><trkpt lat="43.20512703506428" lon="13.282299382356037"><ele>202.0</ele><time>2026-04-24T15:36:15Z</time></trkpt><trkpt lat="43.20516419580662" lon="13.282196486328179"><ele>202.0</ele><time>2026-04-24T15:36:16Z</time></trkpt><trkpt lat="43.205202653810034" lon="13.282089575230323"><ele>201.99999999999997</ele><time>2026-04-24T15:36:17Z</time></trkpt><trkpt lat="43.205235757188504" lon="13.28197894058099"><ele>202.0</ele><time>2026-04-24T15:36:18Z</time></trkpt><trkpt lat="43.20526438967852" lon="13.281872637940644"><ele>202.0</ele><time>2026-04-24T15:36:19Z</time></trkpt><trkpt lat="43.20528306016706" lon="13.281758053164149"><ele>202.0</ele><time>2026-04-24T15:36:20Z</time></trkpt><trkpt lat="43.205313680679424" lon="13.281608890957108"><ele>202.0</ele><time>2026-04-24T15:36:21Z</time></trkpt><trkpt lat="43.205327759853844" lon="13.281437238272977"><ele>202.0</ele><time>2026-04-24T15:36:22Z</time></trkpt><trkpt lat="43.20534104528173" lon="13.281219319798026"><ele>202.0</ele><time>2026-04-24T15:36:23Z</time></trkpt><trkpt lat="43.205353478704765" lon="13.281003656994667"><ele>202.0</ele><time>2026-04-24T15:36:24Z</time></trkpt><trkpt lat="43.20534917919938" lon="13.280805527011815"><ele>202.0</ele><time>2026-04-24T15:36:24.999Z</time></trkpt><trkpt lat="43.205364493779776" lon="13.280619802635595"><ele>202.0</ele><time>2026-04-24T15:36:25.999Z</time></trkpt><trkpt lat="43.20537866264465" lon="13.280438075860038"><ele>202.0</ele><time>2026-04-24T15:36:26.999Z</time></trkpt><trkpt lat="43.205389891000905" lon="13.280263056087778"><ele>202.0</ele><time>2026-04-24T15:36:27.999Z</time></trkpt><trkpt lat="43.205398644647154" lon="13.280116158960357"><ele>202.0</ele><time>2026-04-24T15:36:28.999Z</time></trkpt><trkpt lat="43.20540626449294" lon="13.27999026239793"><ele>202.0</ele><time>2026-04-24T15:36:30.999Z</time></trkpt><trkpt lat="43.205413187485576" lon="13.279878710853207"><ele>202.0</ele><time>2026-04-24T15:36:32.999Z</time></trkpt><trkpt lat="43.20541895285979" lon="13.279787736230595"><ele>202.0</ele><time>2026-04-24T15:36:33.999Z</time></trkpt><trkpt lat="43.205432288904134" lon="13.2796218226308"><ele>202.0</ele><time>2026-04-24T15:36:35.999Z</time></trkpt><trkpt lat="43.20544024912892" lon="13.279525132000247"><ele>202.0</ele><time>2026-04-24T15:36:36.999Z</time></trkpt><trkpt lat="43.205448786904235" lon="13.279416414712491"><ele>202.0</ele><time>2026-04-24T15:36:37.999Z</time></trkpt><trkpt lat="43.205457126615826" lon="13.279303277573028"><ele>202.0</ele><time>2026-04-24T15:36:38.999Z</time></trkpt><trkpt lat="43.205462274225255" lon="13.279170491970733"><ele>202.0</ele><time>2026-04-24T15:36:39.999Z</time></trkpt><trkpt lat="43.20546505629337" lon="13.27903824715085"><ele>202.0</ele><time>2026-04-24T15:36:40.999Z</time></trkpt><trkpt lat="43.20545837121374" lon="13.278893451802537"><ele>202.0</ele><time>2026-04-24T15:36:41.999Z</time></trkpt><trkpt lat="43.20543571084787" lon="13.278745902240484"><ele>202.0</ele><time>2026-04-24T15:36:42.999Z</time></trkpt><trkpt lat="43.20540179299738" lon="13.27860217564626"><ele>202.0</ele><time>2026-04-24T15:36:43.999Z</time></trkpt><trkpt lat="43.20536081249712" lon="13.27846049048691"><ele>202.25</ele><time>2026-04-24T15:36:44.999Z</time></trkpt><trkpt lat="43.20531138420767" lon="13.27831791136829"><ele>202.5</ele><time>2026-04-24T15:36:45.999Z</time></trkpt><trkpt lat="43.20525865607745" lon="13.278175420341109"><ele>202.75</ele><time>2026-04-24T15:36:46.999Z</time></trkpt><trkpt lat="43.20519225303392" lon="13.278035764058625"><ele>203.0</ele><time>2026-04-24T15:36:47.999Z</time></trkpt><trkpt lat="43.205122419599526" lon="13.277894680851555"><ele>203.0</ele><time>2026-04-24T15:36:48.999Z</time></trkpt><trkpt lat="43.20504439864678" lon="13.27776228519975"><ele>203.0</ele><time>2026-04-24T15:36:49.999Z</time></trkpt><trkpt lat="43.204960470554894" lon="13.277639604001697"><ele>203.0</ele><time>2026-04-24T15:36:50.999Z</time></trkpt><trkpt lat="43.204867169456065" lon="13.27752939569774"><ele>203.0</ele><time>2026-04-24T15:36:51.999Z</time></trkpt><trkpt lat="43.204771738502956" lon="13.27742133702462"><ele>203.2</ele><time>2026-04-24T15:36:52.999Z</time></trkpt><trkpt lat="43.204682210966595" lon="13.277318476735271"><ele>203.4</ele><time>2026-04-24T15:36:53.999Z</time></trkpt><trkpt lat="43.20459446774939" lon="13.277230545914817"><ele>203.6</ele><time>2026-04-24T15:36:54.999Z</time></trkpt><trkpt lat="43.20451063086567" lon="13.277144664858918"><ele>203.79999999999998</ele><time>2026-04-24T15:36:55.999Z</time></trkpt><trkpt lat="43.20442411636623" lon="13.277058970191792"><ele>204.0</ele><time>2026-04-24T15:36:56.999Z</time></trkpt><trkpt lat="43.20433437060397" lon="13.276980899773804"><ele>204.0</ele><time>2026-04-24T15:36:57.999Z</time></trkpt><trkpt lat="43.204245032620015" lon="13.276912631990639"><ele>204.0</ele><time>2026-04-24T15:36:58.999Z</time></trkpt><trkpt lat="43.20416129461812" lon="13.276852271772727"><ele>204.0</ele><time>2026-04-24T15:36:59.999Z</time></trkpt><trkpt lat="43.20408959221142" lon="13.276802967680158"><ele>204.0</ele><time>2026-04-24T15:37:00.999Z</time></trkpt><trkpt lat="43.20399547901838" lon="13.276742823263282"><ele>204.0</ele><time>2026-04-24T15:37:02.999Z</time></trkpt><trkpt lat="43.20392592296742" lon="13.276697182139559"><ele>204.16666666666666</ele><time>2026-04-24T15:37:04.999Z</time></trkpt><trkpt lat="43.203818091681484" lon="13.27663583205353"><ele>204.33333333333331</ele><time>2026-04-24T15:37:06.999Z</time></trkpt><trkpt lat="43.2037574725862" lon="13.276598169482492"><ele>204.5</ele><time>2026-04-24T15:37:07.999Z</time></trkpt><trkpt lat="43.20369794318845" lon="13.276557326635206"><ele>204.66666666666666</ele><time>2026-04-24T15:37:08.999Z</time></trkpt><trkpt lat="43.20363033333495" lon="13.276508815172049"><ele>204.83333333333331</ele><time>2026-04-24T15:37:09.999Z</time></trkpt><trkpt lat="43.20355166270306" lon="13.276450131515126"><ele>205.0</ele><time>2026-04-24T15:37:10.999Z</time></trkpt><trkpt lat="43.20346645787607" lon="13.276380683275786"><ele>205.0</ele><time>2026-04-24T15:37:11.999Z</time></trkpt><trkpt lat="43.203384268858464" lon="13.276300075560025"><ele>205.0</ele><time>2026-04-24T15:37:12.999Z</time></trkpt><trkpt lat="43.20330442046569" lon="13.276203516985847"><ele>205.0</ele><time>2026-04-24T15:37:13.999Z</time></trkpt><trkpt lat="43.20322365878899" lon="13.276081243792822"><ele>205.0</ele><time>2026-04-24T15:37:14.999Z</time></trkpt><trkpt lat="43.203135809765016" lon="13.275949196830105"><ele>205.5</ele><time>2026-04-24T15:37:15.999Z</time></trkpt><trkpt lat="43.20303228227503" lon="13.275833801331137"><ele>206.0</ele><time>2026-04-24T15:37:16.999Z</time></trkpt><trkpt lat="43.202912831144225" lon="13.275744773995712"><ele>206.5</ele><time>2026-04-24T15:37:17.999Z</time></trkpt><trkpt lat="43.202778382932365" lon="13.275685510056777"><ele>207.0</ele><time>2026-04-24T15:37:18.999Z</time></trkpt><trkpt lat="43.20264719894114" lon="13.275679021272609"><ele>207.0</ele><time>2026-04-24T15:37:19.999Z</time></trkpt><trkpt lat="43.20251133595336" lon="13.275703515428402"><ele>207.0</ele><time>2026-04-24T15:37:20.999Z</time></trkpt><trkpt lat="43.202373873765936" lon="13.275782784711627"><ele>207.0</ele><time>2026-04-24T15:37:21.999Z</time></trkpt><trkpt lat="43.20224344946685" lon="13.275881615621067"><ele>207.0</ele><time>2026-04-24T15:37:22.999Z</time></trkpt><trkpt lat="43.20210605734546" lon="13.275983584387088"><ele>207.0</ele><time>2026-04-24T15:37:23.999Z</time></trkpt><trkpt lat="43.201967965869095" lon="13.276064275144712"><ele>207.0</ele><time>2026-04-24T15:37:24.999Z</time></trkpt><trkpt lat="43.20184233854118" lon="13.276100553825199"><ele>207.0</ele><time>2026-04-24T15:37:25.999Z</time></trkpt><trkpt lat="43.20169800606807" lon="13.27610803657293"><ele>207.0</ele><time>2026-04-24T15:37:26.999Z</time></trkpt><trkpt lat="43.2015664174091" lon="13.276058149977306"><ele>208.5</ele><time>2026-04-24T15:37:27.999Z</time></trkpt><trkpt lat="43.20144842085856" lon="13.275962810218015"><ele>210.0</ele><time>2026-04-24T15:37:28.999Z</time></trkpt><trkpt lat="43.20134179081331" lon="13.275826641364954"><ele>211.5</ele><time>2026-04-24T15:37:29.999Z</time></trkpt><trkpt lat="43.20123030383042" lon="13.275675872787984"><ele>213.0</ele><time>2026-04-24T15:37:30.999Z</time></trkpt><trkpt lat="43.201107760724256" lon="13.275525588677713"><ele>213.0</ele><time>2026-04-24T15:37:31.999Z</time></trkpt><trkpt lat="43.20098287478498" lon="13.275373981612924"><ele>213.0</ele><time>2026-04-24T15:37:32.999Z</time></trkpt><trkpt lat="43.200858812151196" lon="13.275226640694415"><ele>213.0</ele><time>2026-04-24T15:37:33.999Z</time></trkpt><trkpt lat="43.20072100519832" lon="13.275097750132982"><ele>214.66666666666669</ele><time>2026-04-24T15:37:34.999Z</time></trkpt><trkpt lat="43.200569479618984" lon="13.27498544977335"><ele>216.33333333333334</ele><time>2026-04-24T15:37:36Z</time></trkpt><trkpt lat="43.20041289559864" lon="13.274895427953707"><ele>218.0</ele><time>2026-04-24T15:37:37Z</time></trkpt><trkpt lat="43.200256860500296" lon="13.274816360977471"><ele>217.66666666666669</ele><time>2026-04-24T15:37:38Z</time></trkpt><trkpt lat="43.20009629179152" lon="13.274726468974293"><ele>217.33333333333331</ele><time>2026-04-24T15:37:39Z</time></trkpt><trkpt lat="43.199936307968" lon="13.27463170039516"><ele>217.0</ele><time>2026-04-24T15:37:40Z</time></trkpt><trkpt lat="43.19976384003412" lon="13.27453477390007"><ele>218.0</ele><time>2026-04-24T15:37:41Z</time></trkpt><trkpt lat="43.1995866125857" lon="13.27443454793673"><ele>219.0</ele><time>2026-04-24T15:37:42Z</time></trkpt><trkpt lat="43.199466808717915" lon="13.274356310369438"><ele>220.0</ele><time>2026-04-24T15:37:43Z</time></trkpt><trkpt lat="43.19930038321155" lon="13.2742666682992"><ele>220.0</ele><time>2026-04-24T15:37:44Z</time></trkpt><trkpt lat="43.199130202002685" lon="13.274191411227696"><ele>220.0</ele><time>2026-04-24T15:37:45Z</time></trkpt><trkpt lat="43.19896178054686" lon="13.274101299929146"><ele>220.0</ele><time>2026-04-24T15:37:46Z</time></trkpt><trkpt lat="43.19879555844025" lon="13.274007679955705"><ele>218.0</ele><time>2026-04-24T15:37:47Z</time></trkpt><trkpt lat="43.19862502809168" lon="13.273913331529737"><ele>216.0</ele><time>2026-04-24T15:37:48Z</time></trkpt><trkpt lat="43.198456383546926" lon="13.273817295271805"><ele>214.0</ele><time>2026-04-24T15:37:49Z</time></trkpt><trkpt lat="43.19829260357073" lon="13.273698243890358"><ele>214.33333333333331</ele><time>2026-04-24T15:37:50Z</time></trkpt><trkpt lat="43.198127861286984" lon="13.273595001992765"><ele>214.66666666666669</ele><time>2026-04-24T15:37:51Z</time></trkpt><trkpt lat="43.19795620387944" lon="13.273521053471136"><ele>215.0</ele><time>2026-04-24T15:37:52Z</time></trkpt><trkpt lat="43.19779106196572" lon="13.273426811990968"><ele>215.0</ele><time>2026-04-24T15:37:53Z</time></trkpt><trkpt lat="43.19762408541404" lon="13.273351288383298"><ele>215.0</ele><time>2026-04-24T15:37:54Z</time></trkpt><trkpt lat="43.19745206391646" lon="13.27328825017454"><ele>215.0</ele><time>2026-04-24T15:37:55Z</time></trkpt><trkpt lat="43.197275680486136" lon="13.273251975281616"><ele>214.0</ele><time>2026-04-24T15:37:56Z</time></trkpt><trkpt lat="43.19709400293399" lon="13.273238812691554"><ele>213.0</ele><time>2026-04-24T15:37:57Z</time></trkpt><trkpt lat="43.196908618595984" lon="13.273250640029202"><ele>212.0</ele><time>2026-04-24T15:37:58Z</time></trkpt><trkpt lat="43.19672421547319" lon="13.273289502049776"><ele>212.0</ele><time>2026-04-24T15:37:59Z</time></trkpt><trkpt lat="43.19654149461877" lon="13.27334579215039"><ele>212.0</ele><time>2026-04-24T15:38:00Z</time></trkpt><trkpt lat="43.19636012467244" lon="13.2734098596931"><ele>212.0</ele><time>2026-04-24T15:38:01Z</time></trkpt><trkpt lat="43.19617490837849" lon="13.273486601245384"><ele>212.33333333333334</ele><time>2026-04-24T15:38:02Z</time></trkpt><trkpt lat="43.195990990784935" lon="13.27355093188736"><ele>212.66666666666669</ele><time>2026-04-24T15:38:03Z</time></trkpt><trkpt lat="43.19581008447484" lon="13.273613243911297"><ele>213.0</ele><time>2026-04-24T15:38:04Z</time></trkpt><trkpt lat="43.19562940110776" lon="13.273638666814007"><ele>213.0</ele><time>2026-04-24T15:38:05Z</time></trkpt><trkpt lat="43.19544443695335" lon="13.273638633887721"><ele>213.0</ele><time>2026-04-24T15:38:06Z</time></trkpt><trkpt lat="43.19525935534695" lon="13.273614826466035"><ele>213.0</ele><time>2026-04-24T15:38:07Z</time></trkpt><trkpt lat="43.19507526026285" lon="13.273595625216855"><ele>213.0</ele><time>2026-04-24T15:38:08Z</time></trkpt><trkpt lat="43.19489659611048" lon="13.273590775334293"><ele>213.0</ele><time>2026-04-24T15:38:09Z</time></trkpt><trkpt lat="43.1947328950826" lon="13.27356930869702"><ele>213.0</ele><time>2026-04-24T15:38:10Z</time></trkpt><trkpt lat="43.19457456600069" lon="13.273552155993578"><ele>213.33333333333331</ele><time>2026-04-24T15:38:11Z</time></trkpt><trkpt lat="43.194420634647834" lon="13.273538013946736"><ele>213.66666666666666</ele><time>2026-04-24T15:38:12Z</time></trkpt><trkpt lat="43.19426320489576" lon="13.273523433949903"><ele>214.0</ele><time>2026-04-24T15:38:13Z</time></trkpt><trkpt lat="43.194107150059764" lon="13.273506777070383"><ele>214.66666666666666</ele><time>2026-04-24T15:38:14Z</time></trkpt><trkpt lat="43.1939528346294" lon="13.273465429142046"><ele>215.33333333333331</ele><time>2026-04-24T15:38:15Z</time></trkpt><trkpt lat="43.19379875983722" lon="13.273468951226286"><ele>216.0</ele><time>2026-04-24T15:38:16Z</time></trkpt><trkpt lat="43.19364963280178" lon="13.273450975352455"><ele>216.0</ele><time>2026-04-24T15:38:17Z</time></trkpt><trkpt lat="43.1935120404459" lon="13.273437184186145"><ele>216.0</ele><time>2026-04-24T15:38:18Z</time></trkpt><trkpt lat="43.19337722610392" lon="13.2734238033345"><ele>216.0</ele><time>2026-04-24T15:38:19Z</time></trkpt><trkpt lat="43.193235372973675" lon="13.273413739509804"><ele>216.0</ele><time>2026-04-24T15:38:20Z</time></trkpt><trkpt lat="43.19308898527568" lon="13.273406629160963"><ele>216.5</ele><time>2026-04-24T15:38:21Z</time></trkpt><trkpt lat="43.19293851775021" lon="13.273408119493762"><ele>217.0</ele><time>2026-04-24T15:38:22Z</time></trkpt><trkpt lat="43.19279617757008" lon="13.273429847772922"><ele>217.5</ele><time>2026-04-24T15:38:23Z</time></trkpt><trkpt lat="43.19265176491268" lon="13.273467442561577"><ele>218.0</ele><time>2026-04-24T15:38:24Z</time></trkpt><trkpt lat="43.192507777921044" lon="13.273515581092934"><ele>218.0</ele><time>2026-04-24T15:38:25Z</time></trkpt><trkpt lat="43.19237174454931" lon="13.27356482702089"><ele>218.0</ele><time>2026-04-24T15:38:26Z</time></trkpt><trkpt lat="43.19223115988223" lon="13.273613466465536"><ele>218.0</ele><time>2026-04-24T15:38:27Z</time></trkpt><trkpt lat="43.192091582963336" lon="13.27366115035319"><ele>218.0</ele><time>2026-04-24T15:38:28Z</time></trkpt><trkpt lat="43.191951389456776" lon="13.273713943355107"><ele>218.0</ele><time>2026-04-24T15:38:29Z</time></trkpt><trkpt lat="43.191817337227874" lon="13.273767167337919"><ele>218.0</ele><time>2026-04-24T15:38:30Z</time></trkpt><trkpt lat="43.19167515656973" lon="13.273797631405403"><ele>218.0</ele><time>2026-04-24T15:38:31Z</time></trkpt><trkpt lat="43.19154036114311" lon="13.273870630204087"><ele>218.0</ele><time>2026-04-24T15:38:32Z</time></trkpt><trkpt lat="43.191399139370866" lon="13.273915087122477"><ele>221.75</ele><time>2026-04-24T15:38:33Z</time></trkpt><trkpt lat="43.19125689786466" lon="13.273963065549566"><ele>225.5</ele><time>2026-04-24T15:38:34Z</time></trkpt><trkpt lat="43.191111482809326" lon="13.274015084317815"><ele>229.25</ele><time>2026-04-24T15:38:35Z</time></trkpt><trkpt lat="43.19097060136009" lon="13.274066649776278"><ele>233.0</ele><time>2026-04-24T15:38:35.999Z</time></trkpt><trkpt lat="43.19082979455658" lon="13.274116858901273"><ele>233.0</ele><time>2026-04-24T15:38:36.999Z</time></trkpt><trkpt lat="43.190691703915036" lon="13.274165039411471"><ele>233.0</ele><time>2026-04-24T15:38:37.999Z</time></trkpt><trkpt lat="43.19056647809029" lon="13.274205790401414"><ele>233.0</ele><time>2026-04-24T15:38:38.999Z</time></trkpt><trkpt lat="43.19044620887417" lon="13.274250070047863"><ele>233.0</ele><time>2026-04-24T15:38:39.999Z</time></trkpt><trkpt lat="43.190320058089604" lon="13.274302052639944"><ele>232.25</ele><time>2026-04-24T15:38:40.999Z</time></trkpt><trkpt lat="43.190197168557795" lon="13.2743485507305"><ele>231.5</ele><time>2026-04-24T15:38:41.999Z</time></trkpt><trkpt lat="43.19008102709516" lon="13.27438385954039"><ele>230.75</ele><time>2026-04-24T15:38:42.999Z</time></trkpt><trkpt lat="43.18995771312229" lon="13.274392420330983"><ele>230.0</ele><time>2026-04-24T15:38:43.999Z</time></trkpt><trkpt lat="43.18983899239464" lon="13.274452894728554"><ele>229.25</ele><time>2026-04-24T15:38:44.999Z</time></trkpt><trkpt lat="43.18971394870819" lon="13.274488988545633"><ele>228.5</ele><time>2026-04-24T15:38:45.999Z</time></trkpt><trkpt lat="43.189588544278905" lon="13.274529360634771"><ele>227.75</ele><time>2026-04-24T15:38:46.999Z</time></trkpt><trkpt lat="43.18945877174253" lon="13.274565540368608"><ele>227.0</ele><time>2026-04-24T15:38:47.999Z</time></trkpt><trkpt lat="43.189339034670155" lon="13.274639492835956"><ele>227.0</ele><time>2026-04-24T15:38:48.999Z</time></trkpt><trkpt lat="43.1892143534335" lon="13.274701547108677"><ele>227.0</ele><time>2026-04-24T15:38:49.999Z</time></trkpt><trkpt lat="43.18908782178805" lon="13.27477110712122"><ele>227.0</ele><time>2026-04-24T15:38:50.999Z</time></trkpt><trkpt lat="43.188964398024304" lon="13.274836123361027"><ele>227.0</ele><time>2026-04-24T15:38:51.999Z</time></trkpt><trkpt lat="43.188831944144376" lon="13.274852319854306"><ele>229.75</ele><time>2026-04-24T15:38:52.999Z</time></trkpt><trkpt lat="43.18870155159103" lon="13.27490320570774"><ele>232.5</ele><time>2026-04-24T15:38:53.999Z</time></trkpt><trkpt lat="43.18857584105175" lon="13.274917934893146"><ele>235.25</ele><time>2026-04-24T15:38:54.999Z</time></trkpt><trkpt lat="43.18845872432806" lon="13.274920940622664"><ele>238.0</ele><time>2026-04-24T15:38:55.999Z</time></trkpt><trkpt lat="43.18834681307468" lon="13.27491976773142"><ele>237.99999999999997</ele><time>2026-04-24T15:38:56.999Z</time></trkpt><trkpt lat="43.18823925885165" lon="13.274915152747745"><ele>238.0</ele><time>2026-04-24T15:38:57.999Z</time></trkpt><trkpt lat="43.18815040406537" lon="13.274907063575355"><ele>238.0</ele><time>2026-04-24T15:38:58.999Z</time></trkpt><trkpt lat="43.18808766723478" lon="13.274897697066077"><ele>238.0</ele><time>2026-04-24T15:38:59.999Z</time></trkpt><trkpt lat="43.18802542696103" lon="13.274883145492264"><ele>237.99999999999997</ele><time>2026-04-24T15:39:01.999Z</time></trkpt><trkpt lat="43.187961910201594" lon="13.274807830805623"><ele>238.0</ele><time>2026-04-24T15:39:03.999Z</time></trkpt><trkpt lat="43.187867373817106" lon="13.27467426081628"><ele>234.25</ele><time>2026-04-24T15:39:05.999Z</time></trkpt><trkpt lat="43.18772136980693" lon="13.274705786293188"><ele>230.5</ele><time>2026-04-24T15:39:06.999Z</time></trkpt><trkpt lat="43.1876164778925" lon="13.274654928300274"><ele>226.75</ele><time>2026-04-24T15:39:07.999Z</time></trkpt><trkpt lat="43.18750335450008" lon="13.274590545345824"><ele>223.0</ele><time>2026-04-24T15:39:08.999Z</time></trkpt><trkpt lat="43.187396890508545" lon="13.274517061077175"><ele>224.0</ele><time>2026-04-24T15:39:09.999Z</time></trkpt><trkpt lat="43.187281959220705" lon="13.274449984385216"><ele>225.0</ele><time>2026-04-24T15:39:10.999Z</time></trkpt><trkpt lat="43.18715706221181" lon="13.2743950879561"><ele>226.0</ele><time>2026-04-24T15:39:11.999Z</time></trkpt><trkpt lat="43.18702374952612" lon="13.274343630002539"><ele>227.0</ele><time>2026-04-24T15:39:12.999Z</time></trkpt><trkpt lat="43.186885155486344" lon="13.274299894052934"><ele>227.0</ele><time>2026-04-24T15:39:13.999Z</time></trkpt><trkpt lat="43.18674321193194" lon="13.27426286235463"><ele>227.0</ele><time>2026-04-24T15:39:14.999Z</time></trkpt><trkpt lat="43.186610339786164" lon="13.274223457189278"><ele>227.0</ele><time>2026-04-24T15:39:15.999Z</time></trkpt><trkpt lat="43.18648409127479" lon="13.274149642512594"><ele>227.0</ele><time>2026-04-24T15:39:16.999Z</time></trkpt><trkpt lat="43.18635459762589" lon="13.274091640222546"><ele>227.5</ele><time>2026-04-24T15:39:17.999Z</time></trkpt><trkpt lat="43.186223626438206" lon="13.274055473838422"><ele>228.0</ele><time>2026-04-24T15:39:18.999Z</time></trkpt><trkpt lat="43.186094978453674" lon="13.273993001884609"><ele>228.5</ele><time>2026-04-24T15:39:19.999Z</time></trkpt><trkpt lat="43.185962859554095" lon="13.273925752447193"><ele>229.0</ele><time>2026-04-24T15:39:20.999Z</time></trkpt><trkpt lat="43.18583135009293" lon="13.273847815370104"><ele>230.0</ele><time>2026-04-24T15:39:21.999Z</time></trkpt><trkpt lat="43.18570951400611" lon="13.273738526982997"><ele>231.0</ele><time>2026-04-24T15:39:22.999Z</time></trkpt><trkpt lat="43.185598351509256" lon="13.273644515548934"><ele>232.0</ele><time>2026-04-24T15:39:23.999Z</time></trkpt><trkpt lat="43.18548419721819" lon="13.273575255263161"><ele>233.0</ele><time>2026-04-24T15:39:24.999Z</time></trkpt><trkpt lat="43.18538861358919" lon="13.273496207879983"><ele>233.0</ele><time>2026-04-24T15:39:25.999Z</time></trkpt><trkpt lat="43.1852923190983" lon="13.27344048101909"><ele>233.0</ele><time>2026-04-24T15:39:26.999Z</time></trkpt><trkpt lat="43.18519906786647" lon="13.273412018850749"><ele>233.0</ele><time>2026-04-24T15:39:27.999Z</time></trkpt><trkpt lat="43.18510276070335" lon="13.273427543982217"><ele>233.0</ele><time>2026-04-24T15:39:28.999Z</time></trkpt><trkpt lat="43.18498844672412" lon="13.273460777830039"><ele>233.0</ele><time>2026-04-24T15:39:29.999Z</time></trkpt><trkpt lat="43.184886135184385" lon="13.273549236699003"><ele>235.66666666666669</ele><time>2026-04-24T15:39:30.999Z</time></trkpt><trkpt lat="43.184785674055966" lon="13.273614904271533"><ele>238.33333333333334</ele><time>2026-04-24T15:39:31.999Z</time></trkpt><trkpt lat="43.18469738477042" lon="13.27364412794097"><ele>241.0</ele><time>2026-04-24T15:39:32.999Z</time></trkpt><trkpt lat="43.18461722157858" lon="13.27364711968524"><ele>243.66666666666669</ele><time>2026-04-24T15:39:33.999Z</time></trkpt><trkpt lat="43.18458022687422" lon="13.273568054764409"><ele>246.33333333333334</ele><time>2026-04-24T15:39:34.999Z</time></trkpt><trkpt lat="43.184580540318265" lon="13.273446027267966"><ele>249.0</ele><time>2026-04-24T15:39:35.999Z</time></trkpt><trkpt lat="43.18459803105522" lon="13.273307889385"><ele>249.0</ele><time>2026-04-24T15:39:36.999Z</time></trkpt><trkpt lat="43.184631077520415" lon="13.273178855920603"><ele>248.99999999999997</ele><time>2026-04-24T15:39:37.999Z</time></trkpt><trkpt lat="43.18464984475219" lon="13.273079960028108"><ele>248.99999999999997</ele><time>2026-04-24T15:39:38.999Z</time></trkpt><trkpt lat="43.184671460029065" lon="13.272973560858215"><ele>249.0</ele><time>2026-04-24T15:39:39.999Z</time></trkpt><trkpt lat="43.184697590641" lon="13.27283232297089"><ele>249.0</ele><time>2026-04-24T15:39:40.999Z</time></trkpt><trkpt lat="43.18472548934519" lon="13.272673402101068"><ele>249.75</ele><time>2026-04-24T15:39:42Z</time></trkpt><trkpt lat="43.1847454926853" lon="13.27250040042346"><ele>250.5</ele><time>2026-04-24T15:39:43Z</time></trkpt><trkpt lat="43.1847631519866" lon="13.272312758207606"><ele>251.25</ele><time>2026-04-24T15:39:44Z</time></trkpt><trkpt lat="43.184785924338115" lon="13.272112578962771"><ele>252.0</ele><time>2026-04-24T15:39:45Z</time></trkpt><trkpt lat="43.18482036541891" lon="13.271919055174079"><ele>250.75</ele><time>2026-04-24T15:39:46Z</time></trkpt><trkpt lat="43.184864343351045" lon="13.271725540729916"><ele>249.5</ele><time>2026-04-24T15:39:47Z</time></trkpt><trkpt lat="43.184915472982254" lon="13.271550635062413"><ele>248.25</ele><time>2026-04-24T15:39:48Z</time></trkpt><trkpt lat="43.18496787978431" lon="13.27139890983517"><ele>247.0</ele><time>2026-04-24T15:39:49Z</time></trkpt><trkpt lat="43.18501199527788" lon="13.271278011625355"><ele>247.0</ele><time>2026-04-24T15:39:50Z</time></trkpt><trkpt lat="43.18504153951962" lon="13.271163969271397"><ele>247.0</ele><time>2026-04-24T15:39:51Z</time></trkpt><trkpt lat="43.185048913108005" lon="13.271036743793989"><ele>247.0</ele><time>2026-04-24T15:39:52Z</time></trkpt><trkpt lat="43.18502763364116" lon="13.270895580946531"><ele>247.0</ele><time>2026-04-24T15:39:53Z</time></trkpt><trkpt lat="43.18498085777165" lon="13.270760248657142"><ele>247.0</ele><time>2026-04-24T15:39:54Z</time></trkpt><trkpt lat="43.18492497642387" lon="13.270635350238987"><ele>245.33333333333331</ele><time>2026-04-24T15:39:55Z</time></trkpt><trkpt lat="43.18485597068274" lon="13.270563099169433"><ele>243.66666666666666</ele><time>2026-04-24T15:39:56Z</time></trkpt><trkpt lat="43.18477773410704" lon="13.270521383895804"><ele>242.0</ele><time>2026-04-24T15:39:57Z</time></trkpt><trkpt lat="43.18470171844727" lon="13.270537746126625"><ele>240.33333333333331</ele><time>2026-04-24T15:39:58Z</time></trkpt><trkpt lat="43.18463849213277" lon="13.27059861187394"><ele>238.66666666666666</ele><time>2026-04-24T15:39:59Z</time></trkpt><trkpt lat="43.18458341223331" lon="13.270704593691285"><ele>237.0</ele><time>2026-04-24T15:40:00Z</time></trkpt><trkpt lat="43.18453830397308" lon="13.270834022255206"><ele>243.5</ele><time>2026-04-24T15:40:01Z</time></trkpt><trkpt lat="43.18449471280073" lon="13.270978225537798"><ele>250.0</ele><time>2026-04-24T15:40:02Z</time></trkpt><trkpt lat="43.18443956216601" lon="13.271125279238353"><ele>256.5</ele><time>2026-04-24T15:40:03Z</time></trkpt><trkpt lat="43.18438657333601" lon="13.271279333142495"><ele>263.0</ele><time>2026-04-24T15:40:04Z</time></trkpt><trkpt lat="43.184308427714036" lon="13.271419481077105"><ele>262.8</ele><time>2026-04-24T15:40:05Z</time></trkpt><trkpt lat="43.184232673788614" lon="13.271553357952248"><ele>262.6</ele><time>2026-04-24T15:40:06Z</time></trkpt><trkpt lat="43.18415682861677" lon="13.27168238624982"><ele>262.4</ele><time>2026-04-24T15:40:07Z</time></trkpt><trkpt lat="43.184054321226284" lon="13.271747628289605"><ele>262.2</ele><time>2026-04-24T15:40:08Z</time></trkpt><trkpt lat="43.183967732298015" lon="13.271774140219684"><ele>262.0</ele><time>2026-04-24T15:40:09Z</time></trkpt><trkpt lat="43.18387876654802" lon="13.271752785522622"><ele>265.0</ele><time>2026-04-24T15:40:10Z</time></trkpt><trkpt lat="43.183759662015746" lon="13.271730070457277"><ele>268.0</ele><time>2026-04-24T15:40:11Z</time></trkpt><trkpt lat="43.18363647048405" lon="13.271688385391643"><ele>271.0</ele><time>2026-04-24T15:40:12Z</time></trkpt><trkpt lat="43.18350428733609" lon="13.271652873638386"><ele>274.0</ele><time>2026-04-24T15:40:13Z</time></trkpt><trkpt lat="43.18337202543159" lon="13.271640952928964"><ele>274.0</ele><time>2026-04-24T15:40:14Z</time></trkpt><trkpt lat="43.18323298590459" lon="13.271661207456658"><ele>274.0</ele><time>2026-04-24T15:40:15Z</time></trkpt><trkpt lat="43.18309579959956" lon="13.271682413906463"><ele>274.0</ele><time>2026-04-24T15:40:16Z</time></trkpt><trkpt lat="43.18295238961224" lon="13.271706137955492"><ele>274.0</ele><time>2026-04-24T15:40:17Z</time></trkpt><trkpt lat="43.18281502980739" lon="13.271726227653017"><ele>279.3333333333333</ele><time>2026-04-24T15:40:18Z</time></trkpt><trkpt lat="43.18266697326095" lon="13.271744879140188"><ele>284.6666666666667</ele><time>2026-04-24T15:40:19Z</time></trkpt><trkpt lat="43.18250715466226" lon="13.271770130925097"><ele>290.0</ele><time>2026-04-24T15:40:20Z</time></trkpt><trkpt lat="43.1823545918841" lon="13.271793607793246"><ele>293.75</ele><time>2026-04-24T15:40:21Z</time></trkpt><trkpt lat="43.18220153962378" lon="13.271821524087047"><ele>297.5</ele><time>2026-04-24T15:40:22Z</time></trkpt><trkpt lat="43.18206027847611" lon="13.271849305917915"><ele>301.25</ele><time>2026-04-24T15:40:23Z</time></trkpt><trkpt lat="43.18192827624767" lon="13.271839380441445"><ele>305.0</ele><time>2026-04-24T15:40:24Z</time></trkpt><trkpt lat="43.18179557696476" lon="13.271854080718919"><ele>305.0</ele><time>2026-04-24T15:40:25Z</time></trkpt><trkpt lat="43.181663196109376" lon="13.271836626100995"><ele>305.0</ele><time>2026-04-24T15:40:26Z</time></trkpt><trkpt lat="43.1815326571933" lon="13.27182272912462"><ele>305.0</ele><time>2026-04-24T15:40:27Z</time></trkpt><trkpt lat="43.181397769394906" lon="13.271787538492145"><ele>305.0</ele><time>2026-04-24T15:40:28Z</time></trkpt><trkpt lat="43.18125158496309" lon="13.27177074339971"><ele>305.0</ele><time>2026-04-24T15:40:29Z</time></trkpt><trkpt lat="43.181099821763205" lon="13.271757608361478"><ele>305.0</ele><time>2026-04-24T15:40:30Z</time></trkpt><trkpt lat="43.18094047094697" lon="13.271768952327115"><ele>305.0</ele><time>2026-04-24T15:40:31Z</time></trkpt><trkpt lat="43.18077682315948" lon="13.271756855752898"><ele>304.33333333333337</ele><time>2026-04-24T15:40:32Z</time></trkpt><trkpt lat="43.1806160085521" lon="13.271748794840589"><ele>303.6666666666667</ele><time>2026-04-24T15:40:33Z</time></trkpt><trkpt lat="43.1804551913177" lon="13.271741291269073"><ele>303.0</ele><time>2026-04-24T15:40:34Z</time></trkpt><trkpt lat="43.18030087872016" lon="13.271727888304815"><ele>303.0</ele><time>2026-04-24T15:40:35Z</time></trkpt><trkpt lat="43.1801480551389" lon="13.271711573467991"><ele>303.0</ele><time>2026-04-24T15:40:36Z</time></trkpt><trkpt lat="43.180004485855896" lon="13.271704576472276"><ele>303.0</ele><time>2026-04-24T15:40:37Z</time></trkpt><trkpt lat="43.179858903378" lon="13.2716817174632"><ele>303.0</ele><time>2026-04-24T15:40:38Z</time></trkpt><trkpt lat="43.179712997356425" lon="13.271677686591927"><ele>304.75</ele><time>2026-04-24T15:40:39Z</time></trkpt><trkpt lat="43.1795720614653" lon="13.271673860282032"><ele>306.5</ele><time>2026-04-24T15:40:40Z</time></trkpt><trkpt lat="43.179432754342656" lon="13.271670078189972"><ele>308.25</ele><time>2026-04-24T15:40:41Z</time></trkpt><trkpt lat="43.179285561993424" lon="13.271663415313824"><ele>310.0</ele><time>2026-04-24T15:40:42Z</time></trkpt><trkpt lat="43.179128902134664" lon="13.271655322412279"><ele>314.3333333333333</ele><time>2026-04-24T15:40:43Z</time></trkpt><trkpt lat="43.17897030533779" lon="13.271664998781986"><ele>318.6666666666667</ele><time>2026-04-24T15:40:44Z</time></trkpt><trkpt lat="43.17880848168082" lon="13.271651459674736"><ele>323.0</ele><time>2026-04-24T15:40:45Z</time></trkpt><trkpt lat="43.17865350550304" lon="13.27163855403556"><ele>323.0</ele><time>2026-04-24T15:40:46Z</time></trkpt><trkpt lat="43.17850272151468" lon="13.271613496838272"><ele>323.0</ele><time>2026-04-24T15:40:47Z</time></trkpt><trkpt lat="43.17835769404965" lon="13.271524369706242"><ele>323.0</ele><time>2026-04-24T15:40:48Z</time></trkpt><trkpt lat="43.17821962764316" lon="13.271424527687651"><ele>328.0</ele><time>2026-04-24T15:40:49Z</time></trkpt><trkpt lat="43.178076041358054" lon="13.27133344187598"><ele>333.0</ele><time>2026-04-24T15:40:50Z</time></trkpt><trkpt lat="43.17794093605974" lon="13.271224099301875"><ele>338.0</ele><time>2026-04-24T15:40:50.999Z</time></trkpt><trkpt lat="43.17781106498764" lon="13.271129954617063"><ele>338.0</ele><time>2026-04-24T15:40:51.999Z</time></trkpt><trkpt lat="43.177680291142615" lon="13.271055857433836"><ele>338.0</ele><time>2026-04-24T15:40:52.999Z</time></trkpt><trkpt lat="43.17755213335565" lon="13.270998576097199"><ele>338.0</ele><time>2026-04-24T15:40:53.999Z</time></trkpt><trkpt lat="43.1774179308839" lon="13.270950589195051"><ele>338.0</ele><time>2026-04-24T15:40:54.999Z</time></trkpt><trkpt lat="43.1772775658626" lon="13.270920530851537"><ele>341.5</ele><time>2026-04-24T15:40:55.999Z</time></trkpt><trkpt lat="43.17712663589442" lon="13.270905112798008"><ele>345.0</ele><time>2026-04-24T15:40:56.999Z</time></trkpt><trkpt lat="43.17698059495361" lon="13.270895866509264"><ele>348.5</ele><time>2026-04-24T15:40:57.999Z</time></trkpt><trkpt lat="43.17683595157896" lon="13.270900224393005"><ele>352.0</ele><time>2026-04-24T15:40:58.999Z</time></trkpt><trkpt lat="43.176691954276045" lon="13.27092846013912"><ele>352.0</ele><time>2026-04-24T15:40:59.999Z</time></trkpt><trkpt lat="43.17654525323231" lon="13.27097044783308"><ele>352.0</ele><time>2026-04-24T15:41:00.999Z</time></trkpt><trkpt lat="43.17639462914796" lon="13.271030112949665"><ele>352.0</ele><time>2026-04-24T15:41:01.999Z</time></trkpt><trkpt lat="43.176232833470586" lon="13.271057977086286"><ele>355.3333333333333</ele><time>2026-04-24T15:41:02.999Z</time></trkpt><trkpt lat="43.176067659662486" lon="13.271102585874912"><ele>358.6666666666667</ele><time>2026-04-24T15:41:03.999Z</time></trkpt><trkpt lat="43.175902101485576" lon="13.27115006177871"><ele>362.0</ele><time>2026-04-24T15:41:04.999Z</time></trkpt><trkpt lat="43.17574179077135" lon="13.27121420426018"><ele>365.0</ele><time>2026-04-24T15:41:05.999Z</time></trkpt><trkpt lat="43.17558122503315" lon="13.271259621318693"><ele>368.0</ele><time>2026-04-24T15:41:06.999Z</time></trkpt><trkpt lat="43.17544150684633" lon="13.271269274645924"><ele>371.0</ele><time>2026-04-24T15:41:07.999Z</time></trkpt><trkpt lat="43.1753249169074" lon="13.271257200409504"><ele>374.0</ele><time>2026-04-24T15:41:08.999Z</time></trkpt><trkpt lat="43.17521678749246" lon="13.271189710777117"><ele>374.0</ele><time>2026-04-24T15:41:09.999Z</time></trkpt><trkpt lat="43.17509056643795" lon="13.271116441486328"><ele>374.0</ele><time>2026-04-24T15:41:10.999Z</time></trkpt><trkpt lat="43.174962858809025" lon="13.27104307589733"><ele>374.0</ele><time>2026-04-24T15:41:11.999Z</time></trkpt><trkpt lat="43.17484191000691" lon="13.270974849906825"><ele>374.0</ele><time>2026-04-24T15:41:12.999Z</time></trkpt><trkpt lat="43.17471531590672" lon="13.270906461278146"><ele>375.75</ele><time>2026-04-24T15:41:13.999Z</time></trkpt><trkpt lat="43.17458644560535" lon="13.270842011854542"><ele>377.5</ele><time>2026-04-24T15:41:14.999Z</time></trkpt><trkpt lat="43.17445086753693" lon="13.270803074297612"><ele>379.25</ele><time>2026-04-24T15:41:15.999Z</time></trkpt><trkpt lat="43.17432000442839" lon="13.270752805308492"><ele>381.0</ele><time>2026-04-24T15:41:16.999Z</time></trkpt><trkpt lat="43.17419203177807" lon="13.270680840550128"><ele>381.0</ele><time>2026-04-24T15:41:17.999Z</time></trkpt><trkpt lat="43.17406704556881" lon="13.270629851725774"><ele>381.0</ele><time>2026-04-24T15:41:18.999Z</time></trkpt><trkpt lat="43.17395828076264" lon="13.27058446066918"><ele>381.0</ele><time>2026-04-24T15:41:19.999Z</time></trkpt><trkpt lat="43.173857556997646" lon="13.270542425282319"><ele>381.0</ele><time>2026-04-24T15:41:20.999Z</time></trkpt><trkpt lat="43.1737665271793" lon="13.27050609167378"><ele>381.0</ele><time>2026-04-24T15:41:21.999Z</time></trkpt><trkpt lat="43.17369725113027" lon="13.270479726273233"><ele>381.0</ele><time>2026-04-24T15:41:22.999Z</time></trkpt><trkpt lat="43.173616999405816" lon="13.270422371649325"><ele>381.0</ele><time>2026-04-24T15:41:24.999Z</time></trkpt><trkpt lat="43.17355156720419" lon="13.2703728057222"><ele>381.0</ele><time>2026-04-24T15:41:27.999Z</time></trkpt><trkpt lat="43.173628868523984" lon="13.27016950433928"><ele>381.0</ele><time>2026-04-24T15:41:28.999Z</time></trkpt><trkpt lat="43.1737038436915" lon="13.27009205907767"><ele>381.0</ele><time>2026-04-24T15:41:30.999Z</time></trkpt><trkpt lat="43.173766775807806" lon="13.269955166118796"><ele>381.0</ele><time>2026-04-24T15:41:32.999Z</time></trkpt><trkpt lat="43.17376669704616" lon="13.269815817605702"><ele>381.0</ele><time>2026-04-24T15:41:34.999Z</time></trkpt><trkpt lat="43.17373754070619" lon="13.269736944106269"><ele>381.0</ele><time>2026-04-24T15:41:35.999Z</time></trkpt><trkpt lat="43.17370789865847" lon="13.269656589162803"><ele>381.0</ele><time>2026-04-24T15:41:36.999Z</time></trkpt><trkpt lat="43.17368260716936" lon="13.26956257599336"><ele>381.0</ele><time>2026-04-24T15:41:37.999Z</time></trkpt><trkpt lat="43.1736544143207" lon="13.269455994351565"><ele>381.0</ele><time>2026-04-24T15:41:38.999Z</time></trkpt><trkpt lat="43.173627368678915" lon="13.26934690201011"><ele>379.8333333333333</ele><time>2026-04-24T15:41:39.999Z</time></trkpt><trkpt lat="43.17359081452963" lon="13.269241985093721"><ele>378.6666666666667</ele><time>2026-04-24T15:41:40.999Z</time></trkpt><trkpt lat="43.17354973907981" lon="13.26913724385087"><ele>377.5</ele><time>2026-04-24T15:41:41.999Z</time></trkpt><trkpt lat="43.17351142559116" lon="13.269027217638088"><ele>376.33333333333337</ele><time>2026-04-24T15:41:42.999Z</time></trkpt><trkpt lat="43.17347321384056" lon="13.268913819583323"><ele>375.1666666666667</ele><time>2026-04-24T15:41:43.999Z</time></trkpt><trkpt lat="43.17343674047438" lon="13.268802202385764"><ele>374.0</ele><time>2026-04-24T15:41:44.999Z</time></trkpt><trkpt lat="43.17342531486705" lon="13.268701660967277"><ele>372.1666666666667</ele><time>2026-04-24T15:41:45.999Z</time></trkpt><trkpt lat="43.173448940072966" lon="13.26860947379641"><ele>370.33333333333337</ele><time>2026-04-24T15:41:46.999Z</time></trkpt><trkpt lat="43.17348626499128" lon="13.268519558875704"><ele>368.5</ele><time>2026-04-24T15:41:48Z</time></trkpt><trkpt lat="43.17354697500074" lon="13.268426312200948"><ele>366.6666666666667</ele><time>2026-04-24T15:41:49Z</time></trkpt><trkpt lat="43.17362127237482" lon="13.26834789194395"><ele>364.8333333333333</ele><time>2026-04-24T15:41:50Z</time></trkpt><trkpt lat="43.17370116552136" lon="13.268275866572761"><ele>363.0</ele><time>2026-04-24T15:41:51Z</time></trkpt><trkpt lat="43.173775286236065" lon="13.26820478589428"><ele>363.0</ele><time>2026-04-24T15:41:52Z</time></trkpt><trkpt lat="43.173853083203625" lon="13.268132316762523"><ele>363.0</ele><time>2026-04-24T15:41:53Z</time></trkpt><trkpt lat="43.173934823069416" lon="13.26806340428872"><ele>363.0</ele><time>2026-04-24T15:41:54Z</time></trkpt><trkpt lat="43.174021181034234" lon="13.267991267444629"><ele>363.0</ele><time>2026-04-24T15:41:55Z</time></trkpt><trkpt lat="43.17410560042453" lon="13.267915739208092"><ele>363.0</ele><time>2026-04-24T15:41:56Z</time></trkpt><trkpt lat="43.1741910921709" lon="13.267841240849707"><ele>360.4</ele><time>2026-04-24T15:41:57Z</time></trkpt><trkpt lat="43.174273937430996" lon="13.267764197919641"><ele>357.79999999999995</ele><time>2026-04-24T15:41:58Z</time></trkpt><trkpt lat="43.174356589823894" lon="13.267682580692869"><ele>355.2</ele><time>2026-04-24T15:41:59Z</time></trkpt><trkpt lat="43.17443818149432" lon="13.267603086542977"><ele>352.6</ele><time>2026-04-24T15:42:00Z</time></trkpt><trkpt lat="43.174524776645455" lon="13.26751879311306"><ele>350.0</ele><time>2026-04-24T15:42:01Z</time></trkpt><trkpt lat="43.17460666689303" lon="13.267438680305288"><ele>350.0</ele><time>2026-04-24T15:42:02Z</time></trkpt><trkpt lat="43.17468949399414" lon="13.267362882253703"><ele>350.0</ele><time>2026-04-24T15:42:03Z</time></trkpt><trkpt lat="43.1747752243709" lon="13.267280437093264"><ele>350.0</ele><time>2026-04-24T15:42:04Z</time></trkpt><trkpt lat="43.17485130418518" lon="13.267197644488327"><ele>350.0</ele><time>2026-04-24T15:42:05Z</time></trkpt><trkpt lat="43.17491518791854" lon="13.267117462344789"><ele>350.0</ele><time>2026-04-24T15:42:06Z</time></trkpt><trkpt lat="43.17496912551604" lon="13.267024863286979"><ele>348.1666666666667</ele><time>2026-04-24T15:42:07Z</time></trkpt><trkpt lat="43.17499846750102" lon="13.26691752677489"><ele>346.33333333333337</ele><time>2026-04-24T15:42:08Z</time></trkpt><trkpt lat="43.175014818385016" lon="13.266795405888274"><ele>344.5</ele><time>2026-04-24T15:42:09Z</time></trkpt><trkpt lat="43.175015261415545" lon="13.266689582754754"><ele>342.6666666666667</ele><time>2026-04-24T15:42:10Z</time></trkpt><trkpt lat="43.17502155021168" lon="13.266571922504857"><ele>340.8333333333333</ele><time>2026-04-24T15:42:11Z</time></trkpt><trkpt lat="43.175021805863224" lon="13.266481970511572"><ele>339.0</ele><time>2026-04-24T15:42:12Z</time></trkpt><trkpt lat="43.17501863665507" lon="13.266365809612054"><ele>337.8333333333333</ele><time>2026-04-24T15:42:13Z</time></trkpt><trkpt lat="43.175007199414914" lon="13.266271198519338"><ele>336.6666666666667</ele><time>2026-04-24T15:42:14Z</time></trkpt><trkpt lat="43.17499127389872" lon="13.266161563165468"><ele>335.5</ele><time>2026-04-24T15:42:15Z</time></trkpt><trkpt lat="43.17496968243549" lon="13.266053663436177"><ele>334.33333333333337</ele><time>2026-04-24T15:42:16Z</time></trkpt><trkpt lat="43.174940902399435" lon="13.265952218089762"><ele>333.1666666666667</ele><time>2026-04-24T15:42:17Z</time></trkpt><trkpt lat="43.174896924337546" lon="13.26584575571776"><ele>332.0</ele><time>2026-04-24T15:42:18Z</time></trkpt><trkpt lat="43.17484190697535" lon="13.265744824486886"><ele>330.40000000000003</ele><time>2026-04-24T15:42:19Z</time></trkpt><trkpt lat="43.17479279277992" lon="13.265648240765618"><ele>328.8</ele><time>2026-04-24T15:42:20Z</time></trkpt><trkpt lat="43.17473893299077" lon="13.265555687178114"><ele>327.2</ele><time>2026-04-24T15:42:21Z</time></trkpt><trkpt lat="43.17467916607512" lon="13.265458459063636"><ele>325.6</ele><time>2026-04-24T15:42:22Z</time></trkpt><trkpt lat="43.17461631993801" lon="13.265358884292798"><ele>324.0</ele><time>2026-04-24T15:42:23Z</time></trkpt><trkpt lat="43.17455575432587" lon="13.265254976637632"><ele>323.6</ele><time>2026-04-24T15:42:24Z</time></trkpt><trkpt lat="43.17449800484506" lon="13.265151649865224"><ele>323.2</ele><time>2026-04-24T15:42:25Z</time></trkpt><trkpt lat="43.17443406905074" lon="13.265040331770754"><ele>322.8</ele><time>2026-04-24T15:42:26Z</time></trkpt><trkpt lat="43.174367137055015" lon="13.264931890868207"><ele>322.40000000000003</ele><time>2026-04-24T15:42:27Z</time></trkpt><trkpt lat="43.17430441525015" lon="13.26481725000256"><ele>322.0</ele><time>2026-04-24T15:42:28Z</time></trkpt><trkpt lat="43.17424929636958" lon="13.26470117627351"><ele>321.0</ele><time>2026-04-24T15:42:29Z</time></trkpt><trkpt lat="43.17421216473685" lon="13.264573542586822"><ele>320.0</ele><time>2026-04-24T15:42:30Z</time></trkpt><trkpt lat="43.17418662836745" lon="13.264439717520952"><ele>319.0</ele><time>2026-04-24T15:42:31Z</time></trkpt><trkpt lat="43.17418449034267" lon="13.264314270825103"><ele>318.0</ele><time>2026-04-24T15:42:32Z</time></trkpt><trkpt lat="43.17418193355885" lon="13.26420209080163"><ele>317.0</ele><time>2026-04-24T15:42:33Z</time></trkpt><trkpt lat="43.174163122662875" lon="13.26403396493013"><ele>317.0</ele><time>2026-04-24T15:42:35Z</time></trkpt><trkpt lat="43.17414644859354" lon="13.263947143217987"><ele>317.0</ele><time>2026-04-24T15:42:36Z</time></trkpt><trkpt lat="43.17412770997579" lon="13.263850353591685"><ele>317.0</ele><time>2026-04-24T15:42:37Z</time></trkpt><trkpt lat="43.17409975279078" lon="13.263763846179248"><ele>317.0</ele><time>2026-04-24T15:42:38Z</time></trkpt><trkpt lat="43.17404212677429" lon="13.263660286306122"><ele>317.0</ele><time>2026-04-24T15:42:39Z</time></trkpt><trkpt lat="43.17398362345" lon="13.263570823055256"><ele>317.0</ele><time>2026-04-24T15:42:40Z</time></trkpt><trkpt lat="43.17393596490242" lon="13.263474649642133"><ele>313.1666666666667</ele><time>2026-04-24T15:42:41Z</time></trkpt><trkpt lat="43.17390857287917" lon="13.263373881483515"><ele>309.33333333333337</ele><time>2026-04-24T15:42:42Z</time></trkpt><trkpt lat="43.173894712243445" lon="13.263258574277133"><ele>305.5</ele><time>2026-04-24T15:42:43Z</time></trkpt><trkpt lat="43.17389701444999" lon="13.263136052515996"><ele>301.6666666666667</ele><time>2026-04-24T15:42:44Z</time></trkpt><trkpt lat="43.17391365960098" lon="13.263018071053507"><ele>297.8333333333333</ele><time>2026-04-24T15:42:45Z</time></trkpt><trkpt lat="43.173925367569154" lon="13.262919790926954"><ele>294.0</ele><time>2026-04-24T15:42:46Z</time></trkpt><trkpt lat="43.17393845501505" lon="13.26279878925285"><ele>293.3333333333333</ele><time>2026-04-24T15:42:47Z</time></trkpt><trkpt lat="43.173952670788644" lon="13.26269077720687"><ele>292.6666666666667</ele><time>2026-04-24T15:42:48Z</time></trkpt><trkpt lat="43.173971130300934" lon="13.262598478984891"><ele>292.0</ele><time>2026-04-24T15:42:49Z</time></trkpt><trkpt lat="43.17398529159053" lon="13.262485252794265"><ele>291.33333333333337</ele><time>2026-04-24T15:42:50Z</time></trkpt><trkpt lat="43.17399212150185" lon="13.262374661229725"><ele>290.6666666666667</ele><time>2026-04-24T15:42:51Z</time></trkpt><trkpt lat="43.17398296518005" lon="13.262275018049342"><ele>290.0</ele><time>2026-04-24T15:42:52Z</time></trkpt><trkpt lat="43.17396198503155" lon="13.262181404040755"><ele>288.5</ele><time>2026-04-24T15:42:53Z</time></trkpt><trkpt lat="43.173941721900704" lon="13.262074793331394"><ele>287.0</ele><time>2026-04-24T15:42:54Z</time></trkpt><trkpt lat="43.17392251576281" lon="13.261962617983144"><ele>285.5</ele><time>2026-04-24T15:42:55Z</time></trkpt><trkpt lat="43.17390038276176" lon="13.261853726319444"><ele>284.0</ele><time>2026-04-24T15:42:56Z</time></trkpt><trkpt lat="43.17387338227328" lon="13.261736631896095"><ele>282.5</ele><time>2026-04-24T15:42:57Z</time></trkpt><trkpt lat="43.17384479094198" lon="13.261606595441245"><ele>281.0</ele><time>2026-04-24T15:42:58Z</time></trkpt><trkpt lat="43.17381956666282" lon="13.26147161517486"><ele>279.6</ele><time>2026-04-24T15:42:59Z</time></trkpt><trkpt lat="43.173794597010286" lon="13.261342983936526"><ele>278.20000000000005</ele><time>2026-04-24T15:43:00Z</time></trkpt><trkpt lat="43.17378112449219" lon="13.261234957333558"><ele>276.79999999999995</ele><time>2026-04-24T15:43:00.999Z</time></trkpt><trkpt lat="43.17377033401357" lon="13.261077600184521"><ele>275.4</ele><time>2026-04-24T15:43:02.999Z</time></trkpt><trkpt lat="43.1737830236725" lon="13.260983178449408"><ele>274.0</ele><time>2026-04-24T15:43:03.999Z</time></trkpt><trkpt lat="43.17387223206935" lon="13.26086052231305"><ele>274.0</ele><time>2026-04-24T15:43:05.999Z</time></trkpt><trkpt lat="43.17394810368149" lon="13.260835613089501"><ele>274.0</ele><time>2026-04-24T15:43:06.999Z</time></trkpt><trkpt lat="43.1740307036439" lon="13.260844382468434"><ele>274.0</ele><time>2026-04-24T15:43:07.999Z</time></trkpt><trkpt lat="43.17416348638351" lon="13.260845885880405"><ele>274.0</ele><time>2026-04-24T15:43:09.999Z</time></trkpt><trkpt lat="43.174258774227255" lon="13.260838034168776"><ele>274.0</ele><time>2026-04-24T15:43:10.999Z</time></trkpt><trkpt lat="43.174354701203264" lon="13.26082694689008"><ele>274.66666666666663</ele><time>2026-04-24T15:43:11.999Z</time></trkpt><trkpt lat="43.174444470655736" lon="13.260799824243952"><ele>275.3333333333333</ele><time>2026-04-24T15:43:12.999Z</time></trkpt><trkpt lat="43.174536675406195" lon="13.260761673302907"><ele>276.0</ele><time>2026-04-24T15:43:13.999Z</time></trkpt><trkpt lat="43.174602018670896" lon="13.260740891336205"><ele>276.6666666666667</ele><time>2026-04-24T15:43:14.999Z</time></trkpt><trkpt lat="43.17468699480284" lon="13.260708643194157"><ele>277.33333333333337</ele><time>2026-04-24T15:43:15.999Z</time></trkpt><trkpt lat="43.174753297766486" lon="13.26068957769984"><ele>278.0</ele><time>2026-04-24T15:43:16.999Z</time></trkpt><trkpt lat="43.17482482124771" lon="13.260664628910577"><ele>276.33333333333337</ele><time>2026-04-24T15:43:17.999Z</time></trkpt><trkpt lat="43.17490097555295" lon="13.260643599900165"><ele>274.6666666666667</ele><time>2026-04-24T15:43:18.999Z</time></trkpt><trkpt lat="43.174975845549945" lon="13.260621325007367"><ele>273.0</ele><time>2026-04-24T15:43:19.999Z</time></trkpt><trkpt lat="43.17503985628046" lon="13.260611217358901"><ele>271.3333333333333</ele><time>2026-04-24T15:43:20.999Z</time></trkpt><trkpt lat="43.175131063020864" lon="13.260629326411614"><ele>269.66666666666663</ele><time>2026-04-24T15:43:22.999Z</time></trkpt><trkpt lat="43.175223538842914" lon="13.260661521848458"><ele>268.0</ele><time>2026-04-24T15:43:24.999Z</time></trkpt><trkpt lat="43.17528639209234" lon="13.26070193576519"><ele>268.0</ele><time>2026-04-24T15:43:25.999Z</time></trkpt><trkpt lat="43.17539555326657" lon="13.260753029804563"><ele>268.0</ele><time>2026-04-24T15:43:27.999Z</time></trkpt><trkpt lat="43.17551123351836" lon="13.26071205909847"><ele>268.0</ele><time>2026-04-24T15:43:29.999Z</time></trkpt><trkpt lat="43.17555885539665" lon="13.26064721239058"><ele>268.0</ele><time>2026-04-24T15:43:30.999Z</time></trkpt><trkpt lat="43.175632141926364" lon="13.260597145050673"><ele>268.0</ele><time>2026-04-24T15:43:31.999Z</time></trkpt><trkpt lat="43.175707345870805" lon="13.260505249529979"><ele>263.25</ele><time>2026-04-24T15:43:32.999Z</time></trkpt><trkpt lat="43.175782446145554" lon="13.260379130203342"><ele>258.5</ele><time>2026-04-24T15:43:33.999Z</time></trkpt><trkpt lat="43.17586149626806" lon="13.260268388357735"><ele>253.75</ele><time>2026-04-24T15:43:34.999Z</time></trkpt><trkpt lat="43.175935996272486" lon="13.260157394431133"><ele>249.0</ele><time>2026-04-24T15:43:35.999Z</time></trkpt><trkpt lat="43.176011576677006" lon="13.260049034761579"><ele>249.0</ele><time>2026-04-24T15:43:36.999Z</time></trkpt><trkpt lat="43.176088592289425" lon="13.259936544199189"><ele>248.99999999999997</ele><time>2026-04-24T15:43:37.999Z</time></trkpt><trkpt lat="43.17617176928166" lon="13.259824055486185"><ele>248.99999999999997</ele><time>2026-04-24T15:43:38.999Z</time></trkpt><trkpt lat="43.176250616403166" lon="13.259710027632261"><ele>249.0</ele><time>2026-04-24T15:43:39.999Z</time></trkpt><trkpt lat="43.17632210488693" lon="13.259608599231576"><ele>249.0</ele><time>2026-04-24T15:43:40.999Z</time></trkpt><trkpt lat="43.17637227481923" lon="13.259530415617334"><ele>248.5</ele><time>2026-04-24T15:43:41.999Z</time></trkpt><trkpt lat="43.17641573939388" lon="13.25934679402314"><ele>248.0</ele><time>2026-04-24T15:43:43.999Z</time></trkpt><trkpt lat="43.17633740937002" lon="13.259242910350203"><ele>247.5</ele><time>2026-04-24T15:43:44.999Z</time></trkpt><trkpt lat="43.17626103778761" lon="13.259136745204513"><ele>247.0</ele><time>2026-04-24T15:43:45.999Z</time></trkpt><trkpt lat="43.17616294329617" lon="13.259037502413332"><ele>245.39999999999998</ele><time>2026-04-24T15:43:46.999Z</time></trkpt><trkpt lat="43.17606362942007" lon="13.258938830074943"><ele>243.79999999999998</ele><time>2026-04-24T15:43:47.999Z</time></trkpt><trkpt lat="43.17599220062703" lon="13.25882450843301"><ele>242.2</ele><time>2026-04-24T15:43:48.999Z</time></trkpt><trkpt lat="43.17591319968433" lon="13.258754755065427"><ele>240.6</ele><time>2026-04-24T15:43:49.999Z</time></trkpt><trkpt lat="43.17583257701962" lon="13.25866707678999"><ele>239.0</ele><time>2026-04-24T15:43:50.999Z</time></trkpt><trkpt lat="43.175742582152004" lon="13.258581162292394"><ele>240.2</ele><time>2026-04-24T15:43:51.999Z</time></trkpt><trkpt lat="43.17566504266313" lon="13.258478393894903"><ele>241.39999999999998</ele><time>2026-04-24T15:43:52.999Z</time></trkpt><trkpt lat="43.17557902310758" lon="13.258394458017671"><ele>242.6</ele><time>2026-04-24T15:43:54Z</time></trkpt><trkpt lat="43.1754858126164" lon="13.258331711565308"><ele>243.8</ele><time>2026-04-24T15:43:55Z</time></trkpt><trkpt lat="43.17540579197004" lon="13.25824935954963"><ele>245.0</ele><time>2026-04-24T15:43:56Z</time></trkpt><trkpt lat="43.1753200952565" lon="13.258169472961189"><ele>243.8</ele><time>2026-04-24T15:43:57Z</time></trkpt><trkpt lat="43.17522660456873" lon="13.258106099900376"><ele>242.6</ele><time>2026-04-24T15:43:58Z</time></trkpt><trkpt lat="43.17512756518319" lon="13.258050921273131"><ele>241.39999999999998</ele><time>2026-04-24T15:43:59Z</time></trkpt><trkpt lat="43.1750218665535" lon="13.25799297034953"><ele>240.2</ele><time>2026-04-24T15:44:00Z</time></trkpt><trkpt lat="43.17491269022893" lon="13.257926204393712"><ele>239.0</ele><time>2026-04-24T15:44:01Z</time></trkpt><trkpt lat="43.17480471780189" lon="13.257866960821966"><ele>239.0</ele><time>2026-04-24T15:44:02Z</time></trkpt><trkpt lat="43.17470008528974" lon="13.257816832614933"><ele>238.99999999999997</ele><time>2026-04-24T15:44:03Z</time></trkpt><trkpt lat="43.174596695080936" lon="13.257786148505332"><ele>238.99999999999997</ele><time>2026-04-24T15:44:04Z</time></trkpt><trkpt lat="43.17448778833697" lon="13.257757054909378"><ele>239.0</ele><time>2026-04-24T15:44:05Z</time></trkpt><trkpt lat="43.17437862294021" lon="13.257721120336312"><ele>239.0</ele><time>2026-04-24T15:44:06Z</time></trkpt><trkpt lat="43.174272194990856" lon="13.257687677582004"><ele>239.0</ele><time>2026-04-24T15:44:07Z</time></trkpt><trkpt lat="43.17416197683181" lon="13.257657531354768"><ele>238.99999999999997</ele><time>2026-04-24T15:44:08Z</time></trkpt><trkpt lat="43.17406299387862" lon="13.257607870461522"><ele>238.99999999999997</ele><time>2026-04-24T15:44:09Z</time></trkpt><trkpt lat="43.17396999979183" lon="13.257578312888015"><ele>239.0</ele><time>2026-04-24T15:44:10Z</time></trkpt><trkpt lat="43.17387359916303" lon="13.25757101386927"><ele>239.0</ele><time>2026-04-24T15:44:11Z</time></trkpt><trkpt lat="43.17378060407709" lon="13.257550751688424"><ele>239.79999999999998</ele><time>2026-04-24T15:44:12Z</time></trkpt><trkpt lat="43.17369185568632" lon="13.257503446299042"><ele>240.59999999999997</ele><time>2026-04-24T15:44:13Z</time></trkpt><trkpt lat="43.173617544539674" lon="13.257478108960223"><ele>241.4</ele><time>2026-04-24T15:44:14Z</time></trkpt><trkpt lat="43.17355383679018" lon="13.257460572588222"><ele>242.2</ele><time>2026-04-24T15:44:15Z</time></trkpt><trkpt lat="43.173456855673756" lon="13.25735291518145"><ele>243.0</ele><time>2026-04-24T15:44:17Z</time></trkpt><trkpt lat="43.17348828722542" lon="13.257194059109773"><ele>241.4</ele><time>2026-04-24T15:44:18Z</time></trkpt><trkpt lat="43.173478872796494" lon="13.257059410169955"><ele>239.8</ele><time>2026-04-24T15:44:19Z</time></trkpt><trkpt lat="43.173459226376124" lon="13.25691686470354"><ele>238.2</ele><time>2026-04-24T15:44:20Z</time></trkpt><trkpt lat="43.17345561359047" lon="13.256764271193953"><ele>236.6</ele><time>2026-04-24T15:44:21Z</time></trkpt><trkpt lat="43.17345100117578" lon="13.256589461302088"><ele>235.0</ele><time>2026-04-24T15:44:22Z</time></trkpt><trkpt lat="43.17344457270867" lon="13.256410230160904"><ele>234.25</ele><time>2026-04-24T15:44:23Z</time></trkpt><trkpt lat="43.17343646015252" lon="13.256225776106751"><ele>233.5</ele><time>2026-04-24T15:44:24Z</time></trkpt><trkpt lat="43.17343016208702" lon="13.256057485220886"><ele>232.75</ele><time>2026-04-24T15:44:25Z</time></trkpt><trkpt lat="43.173423128713324" lon="13.255893830823375"><ele>232.0</ele><time>2026-04-24T15:44:26Z</time></trkpt><trkpt lat="43.173411490662005" lon="13.255732097370375"><ele>231.75</ele><time>2026-04-24T15:44:27Z</time></trkpt><trkpt lat="43.17338923314561" lon="13.255570862093062"><ele>231.5</ele><time>2026-04-24T15:44:28Z</time></trkpt><trkpt lat="43.173358009845124" lon="13.255411113348366"><ele>231.25</ele><time>2026-04-24T15:44:29Z</time></trkpt><trkpt lat="43.173322600841644" lon="13.255247735981008"><ele>231.0</ele><time>2026-04-24T15:44:30Z</time></trkpt><trkpt lat="43.17330207373128" lon="13.25508013246034"><ele>231.0</ele><time>2026-04-24T15:44:31Z</time></trkpt><trkpt lat="43.17325090663857" lon="13.254922102017174"><ele>231.0</ele><time>2026-04-24T15:44:32Z</time></trkpt><trkpt lat="43.17321625566386" lon="13.254747687907631"><ele>231.0</ele><time>2026-04-24T15:44:33Z</time></trkpt><trkpt lat="43.17317822209434" lon="13.254565808662859"><ele>231.0</ele><time>2026-04-24T15:44:34Z</time></trkpt><trkpt lat="43.17314085485571" lon="13.254376999089367"><ele>231.0</ele><time>2026-04-24T15:44:35Z</time></trkpt><trkpt lat="43.173098374065866" lon="13.254191890478783"><ele>231.0</ele><time>2026-04-24T15:44:36Z</time></trkpt><trkpt lat="43.17305302990204" lon="13.254006425142082"><ele>231.0</ele><time>2026-04-24T15:44:37Z</time></trkpt><trkpt lat="43.17302556862164" lon="13.253812163428252"><ele>231.0</ele><time>2026-04-24T15:44:38Z</time></trkpt><trkpt lat="43.172979529610345" lon="13.253645051130208"><ele>231.5</ele><time>2026-04-24T15:44:39Z</time></trkpt><trkpt lat="43.17295741462551" lon="13.25346780282021"><ele>232.0</ele><time>2026-04-24T15:44:40Z</time></trkpt><trkpt lat="43.17294956765566" lon="13.253292563817356"><ele>232.5</ele><time>2026-04-24T15:44:41Z</time></trkpt><trkpt lat="43.172958783662345" lon="13.253122938075903"><ele>233.0</ele><time>2026-04-24T15:44:42Z</time></trkpt><trkpt lat="43.17297167560737" lon="13.252957354587714"><ele>233.60000000000002</ele><time>2026-04-24T15:44:43Z</time></trkpt><trkpt lat="43.172978554512696" lon="13.252799024954875"><ele>234.20000000000002</ele><time>2026-04-24T15:44:44Z</time></trkpt><trkpt lat="43.17297041614206" lon="13.252651788777538"><ele>234.8</ele><time>2026-04-24T15:44:45Z</time></trkpt><trkpt lat="43.17293169684166" lon="13.25251211476948"><ele>235.4</ele><time>2026-04-24T15:44:46Z</time></trkpt><trkpt lat="43.17285939404455" lon="13.252395788199541"><ele>236.0</ele><time>2026-04-24T15:44:47Z</time></trkpt><trkpt lat="43.1727622742538" lon="13.252307844191458"><ele>236.60000000000002</ele><time>2026-04-24T15:44:48Z</time></trkpt><trkpt lat="43.172651804223214" lon="13.252244785127195"><ele>237.20000000000002</ele><time>2026-04-24T15:44:49Z</time></trkpt><trkpt lat="43.17255953695901" lon="13.25216207995154"><ele>237.79999999999998</ele><time>2026-04-24T15:44:50Z</time></trkpt><trkpt lat="43.17247102585481" lon="13.252099041011352"><ele>238.39999999999998</ele><time>2026-04-24T15:44:51Z</time></trkpt><trkpt lat="43.17241547750703" lon="13.251994424152365"><ele>239.0</ele><time>2026-04-24T15:44:52Z</time></trkpt><trkpt lat="43.17238250954587" lon="13.251868057710062"><ele>239.0</ele><time>2026-04-24T15:44:53Z</time></trkpt><trkpt lat="43.17239877350785" lon="13.251730482788561"><ele>239.0</ele><time>2026-04-24T15:44:54Z</time></trkpt><trkpt lat="43.17239985984348" lon="13.25156948741421"><ele>239.0</ele><time>2026-04-24T15:44:55Z</time></trkpt><trkpt lat="43.17239708864444" lon="13.251404807532705"><ele>239.0</ele><time>2026-04-24T15:44:56Z</time></trkpt><trkpt lat="43.172420125819315" lon="13.251242220026324"><ele>239.79999999999998</ele><time>2026-04-24T15:44:57Z</time></trkpt><trkpt lat="43.17245653737818" lon="13.251094660048631"><ele>240.59999999999997</ele><time>2026-04-24T15:44:58Z</time></trkpt><trkpt lat="43.17250684780573" lon="13.250983390322704"><ele>241.4</ele><time>2026-04-24T15:44:59Z</time></trkpt><trkpt lat="43.17257745219346" lon="13.250876396061411"><ele>242.2</ele><time>2026-04-24T15:45:00Z</time></trkpt><trkpt lat="43.172636980881336" lon="13.250764620736364"><ele>243.0</ele><time>2026-04-24T15:45:01Z</time></trkpt><trkpt lat="43.17265227975649" lon="13.250648429144603"><ele>243.16666666666666</ele><time>2026-04-24T15:45:02Z</time></trkpt><trkpt lat="43.17267130820539" lon="13.25056562377001"><ele>243.33333333333331</ele><time>2026-04-24T15:45:03Z</time></trkpt><trkpt lat="43.172673031040574" lon="13.250446995595722"><ele>243.5</ele><time>2026-04-24T15:45:07Z</time></trkpt><trkpt lat="43.172581756774214" lon="13.250359255602774"><ele>243.66666666666666</ele><time>2026-04-24T15:45:09Z</time></trkpt><trkpt lat="43.17250510283322" lon="13.250338867520142"><ele>243.83333333333331</ele><time>2026-04-24T15:45:10Z</time></trkpt><trkpt lat="43.172425253256925" lon="13.250310655651242"><ele>244.0</ele><time>2026-04-24T15:45:11Z</time></trkpt><trkpt lat="43.172341778756916" lon="13.250272119024656"><ele>243.6</ele><time>2026-04-24T15:45:12Z</time></trkpt><trkpt lat="43.17225863129812" lon="13.250223856924755"><ele>243.2</ele><time>2026-04-24T15:45:13Z</time></trkpt><trkpt lat="43.172162165831644" lon="13.250169329189113"><ele>242.79999999999998</ele><time>2026-04-24T15:45:14Z</time></trkpt><trkpt lat="43.17205963577494" lon="13.25009878977372"><ele>242.39999999999998</ele><time>2026-04-24T15:45:15Z</time></trkpt><trkpt lat="43.17196615878421" lon="13.250008437931307"><ele>242.0</ele><time>2026-04-24T15:45:16Z</time></trkpt><trkpt lat="43.17188172294793" lon="13.249878914161906"><ele>242.5</ele><time>2026-04-24T15:45:17Z</time></trkpt><trkpt lat="43.1718102494124" lon="13.249719617017861"><ele>243.0</ele><time>2026-04-24T15:45:18Z</time></trkpt><trkpt lat="43.171743883682126" lon="13.249556728422032"><ele>243.5</ele><time>2026-04-24T15:45:18.999Z</time></trkpt><trkpt lat="43.17167827131139" lon="13.249402313040445"><ele>244.0</ele><time>2026-04-24T15:45:19.999Z</time></trkpt><trkpt lat="43.171604985619446" lon="13.249252265983461"><ele>244.0</ele><time>2026-04-24T15:45:20.999Z</time></trkpt><trkpt lat="43.17152507628887" lon="13.249102445621071"><ele>244.0</ele><time>2026-04-24T15:45:21.999Z</time></trkpt><trkpt lat="43.17143955758507" lon="13.248959460760853"><ele>244.0</ele><time>2026-04-24T15:45:22.999Z</time></trkpt><trkpt lat="43.171347663171666" lon="13.24883446321766"><ele>244.0</ele><time>2026-04-24T15:45:23.999Z</time></trkpt><trkpt lat="43.17125233356265" lon="13.24873090159179"><ele>244.75</ele><time>2026-04-24T15:45:24.999Z</time></trkpt><trkpt lat="43.17114467823183" lon="13.248641329947722"><ele>245.5</ele><time>2026-04-24T15:45:25.999Z</time></trkpt><trkpt lat="43.17103801708153" lon="13.248575470171836"><ele>246.25</ele><time>2026-04-24T15:45:26.999Z</time></trkpt><trkpt lat="43.17093379552075" lon="13.248522987239376"><ele>247.0</ele><time>2026-04-24T15:45:27.999Z</time></trkpt><trkpt lat="43.17082860083589" lon="13.248477233728568"><ele>247.0</ele><time>2026-04-24T15:45:28.999Z</time></trkpt><trkpt lat="43.170725949816905" lon="13.248432594939857"><ele>247.0</ele><time>2026-04-24T15:45:29.999Z</time></trkpt><trkpt lat="43.170623774192215" lon="13.248388326818503"><ele>247.0</ele><time>2026-04-24T15:45:30.999Z</time></trkpt><trkpt lat="43.17052830591867" lon="13.24834354156085"><ele>247.0</ele><time>2026-04-24T15:45:31.999Z</time></trkpt><trkpt lat="43.17043603320651" lon="13.248294101641727"><ele>247.0</ele><time>2026-04-24T15:45:32.999Z</time></trkpt><trkpt lat="43.1703529930426" lon="13.248237215222147"><ele>247.6</ele><time>2026-04-24T15:45:33.999Z</time></trkpt><trkpt lat="43.1702723381503" lon="13.2481611853311"><ele>248.2</ele><time>2026-04-24T15:45:34.999Z</time></trkpt><trkpt lat="43.17019653778622" lon="13.248070903412817"><ele>248.8</ele><time>2026-04-24T15:45:35.999Z</time></trkpt><trkpt lat="43.170125101966" lon="13.247973729810036"><ele>249.4</ele><time>2026-04-24T15:45:36.999Z</time></trkpt><trkpt lat="43.17005112547053" lon="13.247858270045594"><ele>250.0</ele><time>2026-04-24T15:45:37.999Z</time></trkpt><trkpt lat="43.16998726424162" lon="13.247737938844168"><ele>250.0</ele><time>2026-04-24T15:45:38.999Z</time></trkpt><trkpt lat="43.16994019020584" lon="13.247624616244433"><ele>250.0</ele><time>2026-04-24T15:45:39.999Z</time></trkpt><trkpt lat="43.1698943359842" lon="13.247506536694646"><ele>250.0</ele><time>2026-04-24T15:45:40.999Z</time></trkpt><trkpt lat="43.16985964246885" lon="13.247356438148444"><ele>250.0</ele><time>2026-04-24T15:45:41.999Z</time></trkpt><trkpt lat="43.169821519148925" lon="13.247207656080981"><ele>250.0</ele><time>2026-04-24T15:45:42.999Z</time></trkpt><trkpt lat="43.16977638432301" lon="13.247084253800384"><ele>249.4</ele><time>2026-04-24T15:45:43.999Z</time></trkpt><trkpt lat="43.169714498705936" lon="13.246981276888592"><ele>248.8</ele><time>2026-04-24T15:45:44.999Z</time></trkpt><trkpt lat="43.169667130359805" lon="13.2468669809574"><ele>248.2</ele><time>2026-04-24T15:45:45.999Z</time></trkpt><trkpt lat="43.16962618465301" lon="13.246753256212749"><ele>247.6</ele><time>2026-04-24T15:45:46.999Z</time></trkpt><trkpt lat="43.169583287865194" lon="13.246633398418496"><ele>247.0</ele><time>2026-04-24T15:45:47.999Z</time></trkpt><trkpt lat="43.16953281385582" lon="13.246511428510502"><ele>247.39999999999998</ele><time>2026-04-24T15:45:48.999Z</time></trkpt><trkpt lat="43.16948048322869" lon="13.246394070443934"><ele>247.79999999999998</ele><time>2026-04-24T15:45:49.999Z</time></trkpt><trkpt lat="43.169438385229974" lon="13.246293922410535"><ele>248.2</ele><time>2026-04-24T15:45:50.999Z</time></trkpt><trkpt lat="43.16939735093046" lon="13.24619402022819"><ele>248.6</ele><time>2026-04-24T15:45:51.999Z</time></trkpt><trkpt lat="43.16934482461469" lon="13.246083540527719"><ele>249.0</ele><time>2026-04-24T15:45:52.999Z</time></trkpt><trkpt lat="43.169281544084335" lon="13.245968841070562"><ele>249.0</ele><time>2026-04-24T15:45:53.999Z</time></trkpt><trkpt lat="43.169215593495075" lon="13.245860905223315"><ele>249.0</ele><time>2026-04-24T15:45:54.999Z</time></trkpt><trkpt lat="43.16915177227877" lon="13.245765839031868"><ele>249.0</ele><time>2026-04-24T15:45:55.999Z</time></trkpt><trkpt lat="43.16909143984742" lon="13.245696726863926"><ele>249.0</ele><time>2026-04-24T15:45:56.999Z</time></trkpt><trkpt lat="43.16903104889304" lon="13.245637349818965"><ele>249.0</ele><time>2026-04-24T15:45:57.999Z</time></trkpt><trkpt lat="43.16897085819683" lon="13.245571372845287"><ele>249.0</ele><time>2026-04-24T15:45:58.999Z</time></trkpt><trkpt lat="43.16892508939877" lon="13.245498268384114"><ele>249.39999999999998</ele><time>2026-04-24T15:46:00Z</time></trkpt><trkpt lat="43.16901155548814" lon="13.245300759933373"><ele>249.79999999999998</ele><time>2026-04-24T15:46:03Z</time></trkpt><trkpt lat="43.16906117817305" lon="13.245244784591895"><ele>250.20000000000002</ele><time>2026-04-24T15:46:04Z</time></trkpt><trkpt lat="43.169075041834404" lon="13.245068233712923"><ele>250.60000000000002</ele><time>2026-04-24T15:46:06Z</time></trkpt><trkpt lat="43.16907173100069" lon="13.244965689513155"><ele>251.0</ele><time>2026-04-24T15:46:07Z</time></trkpt><trkpt lat="43.169081295208215" lon="13.244852184187236"><ele>252.60000000000002</ele><time>2026-04-24T15:46:08Z</time></trkpt><trkpt lat="43.16910959702188" lon="13.244732641422267"><ele>254.20000000000002</ele><time>2026-04-24T15:46:09Z</time></trkpt><trkpt lat="43.16918072791069" lon="13.244621890957367"><ele>255.79999999999998</ele><time>2026-04-24T15:46:10Z</time></trkpt><trkpt lat="43.169255253295255" lon="13.244514055866167"><ele>257.4</ele><time>2026-04-24T15:46:11Z</time></trkpt><trkpt lat="43.16931062844293" lon="13.244383030570003"><ele>259.0</ele><time>2026-04-24T15:46:12Z</time></trkpt><trkpt lat="43.16938074121107" lon="13.244268806932977"><ele>259.0</ele><time>2026-04-24T15:46:13Z</time></trkpt><trkpt lat="43.169443959344285" lon="13.244144394606304"><ele>259.0</ele><time>2026-04-24T15:46:14Z</time></trkpt><trkpt lat="43.16949492208192" lon="13.244008715132633"><ele>259.0</ele><time>2026-04-24T15:46:15Z</time></trkpt><trkpt lat="43.169541536741846" lon="13.2438682838863"><ele>259.0</ele><time>2026-04-24T15:46:16Z</time></trkpt><trkpt lat="43.169592530596965" lon="13.243755882640396"><ele>259.0</ele><time>2026-04-24T15:46:17Z</time></trkpt><trkpt lat="43.16966988342295" lon="13.243701654432776"><ele>261.0</ele><time>2026-04-24T15:46:18Z</time></trkpt><trkpt lat="43.169748625646314" lon="13.24363421615884"><ele>263.0</ele><time>2026-04-24T15:46:19Z</time></trkpt><trkpt lat="43.169830101530685" lon="13.243548308865732"><ele>265.0</ele><time>2026-04-24T15:46:20Z</time></trkpt><trkpt lat="43.16990867814203" lon="13.243451744479438"><ele>267.0</ele><time>2026-04-24T15:46:21Z</time></trkpt><trkpt lat="43.16998298285159" lon="13.243345073222988"><ele>269.0</ele><time>2026-04-24T15:46:22Z</time></trkpt><trkpt lat="43.170044340687554" lon="13.243219384076578"><ele>272.75</ele><time>2026-04-24T15:46:23Z</time></trkpt><trkpt lat="43.17008308267533" lon="13.24308114434978"><ele>276.5</ele><time>2026-04-24T15:46:24Z</time></trkpt><trkpt lat="43.17009844259349" lon="13.242916233795473"><ele>280.25</ele><time>2026-04-24T15:46:25Z</time></trkpt><trkpt lat="43.170091968886894" lon="13.242748838589865"><ele>284.0</ele><time>2026-04-24T15:46:26Z</time></trkpt><trkpt lat="43.17008371133989" lon="13.242581290207566"><ele>284.0</ele><time>2026-04-24T15:46:27Z</time></trkpt><trkpt lat="43.1700783456175" lon="13.242404511475737"><ele>284.0</ele><time>2026-04-24T15:46:28Z</time></trkpt><trkpt lat="43.170071065872484" lon="13.242229609271803"><ele>284.0</ele><time>2026-04-24T15:46:29Z</time></trkpt><trkpt lat="43.17006546096558" lon="13.24205241650347"><ele>284.0</ele><time>2026-04-24T15:46:30Z</time></trkpt><trkpt lat="43.17006316486662" lon="13.241879303881912"><ele>286.75</ele><time>2026-04-24T15:46:31Z</time></trkpt><trkpt lat="43.170061849004234" lon="13.241702404855946"><ele>289.5</ele><time>2026-04-24T15:46:32Z</time></trkpt><trkpt lat="43.1700671968183" lon="13.241528332722352"><ele>292.25</ele><time>2026-04-24T15:46:33Z</time></trkpt><trkpt lat="43.17008012367572" lon="13.241357834745354"><ele>295.0</ele><time>2026-04-24T15:46:34Z</time></trkpt><trkpt lat="43.17009617725598" lon="13.2411906260564"><ele>296.3333333333333</ele><time>2026-04-24T15:46:35Z</time></trkpt><trkpt lat="43.17011025448752" lon="13.24103274171436"><ele>297.66666666666663</ele><time>2026-04-24T15:46:36Z</time></trkpt><trkpt lat="43.17012142425349" lon="13.240883895082016"><ele>299.0</ele><time>2026-04-24T15:46:37Z</time></trkpt><trkpt lat="43.17012842294695" lon="13.240762686421077"><ele>300.3333333333333</ele><time>2026-04-24T15:46:38Z</time></trkpt><trkpt lat="43.17014590867762" lon="13.240674651700036"><ele>301.6666666666667</ele><time>2026-04-24T15:46:39Z</time></trkpt><trkpt lat="43.17019019278409" lon="13.240606018656125"><ele>303.0</ele><time>2026-04-24T15:46:40Z</time></trkpt><trkpt lat="43.17026917527786" lon="13.240598875353868"><ele>303.0</ele><time>2026-04-24T15:46:41Z</time></trkpt><trkpt lat="43.17035289437737" lon="13.240594062272725"><ele>303.0</ele><time>2026-04-24T15:46:42Z</time></trkpt><trkpt lat="43.17044672757681" lon="13.240566548274694"><ele>303.0</ele><time>2026-04-24T15:46:43Z</time></trkpt><trkpt lat="43.17053963483057" lon="13.24058339044685"><ele>303.0</ele><time>2026-04-24T15:46:44Z</time></trkpt><trkpt lat="43.17060444648857" lon="13.240635244317055"><ele>303.0</ele><time>2026-04-24T15:46:45Z</time></trkpt><trkpt lat="43.170624144433454" lon="13.240735568341888"><ele>303.0</ele><time>2026-04-24T15:46:46Z</time></trkpt><trkpt lat="43.170636270509696" lon="13.240833800901264"><ele>303.75</ele><time>2026-04-24T15:46:47Z</time></trkpt><trkpt lat="43.17072318811189" lon="13.240921045329017"><ele>304.5</ele><time>2026-04-24T15:46:49Z</time></trkpt><trkpt lat="43.1708348778351" lon="13.240770569619333"><ele>305.25</ele><time>2026-04-24T15:46:51Z</time></trkpt><trkpt lat="43.1708687095186" lon="13.24063430464875"><ele>306.0</ele><time>2026-04-24T15:46:52Z</time></trkpt><trkpt lat="43.17092440307195" lon="13.24049032689329"><ele>309.0</ele><time>2026-04-24T15:46:53Z</time></trkpt><trkpt lat="43.17097144398853" lon="13.240350205211522"><ele>312.0</ele><time>2026-04-24T15:46:54Z</time></trkpt><trkpt lat="43.17100278286546" lon="13.240194266205755"><ele>315.0</ele><time>2026-04-24T15:46:55Z</time></trkpt><trkpt lat="43.171049885136775" lon="13.24004401225611"><ele>318.0</ele><time>2026-04-24T15:46:56Z</time></trkpt><trkpt lat="43.17108153580467" lon="13.239879023055241"><ele>320.75</ele><time>2026-04-24T15:46:57Z</time></trkpt><trkpt lat="43.17108888741117" lon="13.239688258531874"><ele>323.5</ele><time>2026-04-24T15:46:58Z</time></trkpt><trkpt lat="43.171075067392096" lon="13.239505043296376"><ele>326.25</ele><time>2026-04-24T15:46:59Z</time></trkpt><trkpt lat="43.17108388072378" lon="13.239344286274001"><ele>329.0</ele><time>2026-04-24T15:47:00Z</time></trkpt><trkpt lat="43.17109052615927" lon="13.23918305907336"><ele>329.0</ele><time>2026-04-24T15:47:01Z</time></trkpt><trkpt lat="43.17111703760165" lon="13.238992483512385"><ele>329.0</ele><time>2026-04-24T15:47:02Z</time></trkpt><trkpt lat="43.17112856158733" lon="13.23883701275941"><ele>329.0</ele><time>2026-04-24T15:47:03Z</time></trkpt><trkpt lat="43.17115236419077" lon="13.238704077661206"><ele>329.0</ele><time>2026-04-24T15:47:04Z</time></trkpt><trkpt lat="43.17119330749948" lon="13.238578158531574"><ele>329.6666666666667</ele><time>2026-04-24T15:47:05Z</time></trkpt><trkpt lat="43.171237628412776" lon="13.238464730523308"><ele>330.33333333333337</ele><time>2026-04-24T15:47:06Z</time></trkpt><trkpt lat="43.17129008919544" lon="13.238361683850737"><ele>331.0</ele><time>2026-04-24T15:47:07Z</time></trkpt><trkpt lat="43.17135351074088" lon="13.238280050653424"><ele>331.6666666666667</ele><time>2026-04-24T15:47:08Z</time></trkpt><trkpt lat="43.17141809413762" lon="13.238221154493349"><ele>332.3333333333333</ele><time>2026-04-24T15:47:09Z</time></trkpt><trkpt lat="43.17147285463828" lon="13.238174276876046"><ele>333.0</ele><time>2026-04-24T15:47:10Z</time></trkpt><trkpt lat="43.171527812259605" lon="13.238122631037184"><ele>334.42857142857144</ele><time>2026-04-24T15:47:11Z</time></trkpt><trkpt lat="43.17158717037099" lon="13.238065557086017"><ele>335.85714285714283</ele><time>2026-04-24T15:47:12Z</time></trkpt><trkpt lat="43.17164579216331" lon="13.238023972926408"><ele>337.2857142857143</ele><time>2026-04-24T15:47:13Z</time></trkpt><trkpt lat="43.17171266879948" lon="13.237983109680924"><ele>338.7142857142857</ele><time>2026-04-24T15:47:14Z</time></trkpt><trkpt lat="43.17177662411719" lon="13.237947814604961"><ele>340.1428571428571</ele><time>2026-04-24T15:47:15Z</time></trkpt><trkpt lat="43.17184053756444" lon="13.237913378293284"><ele>341.57142857142856</ele><time>2026-04-24T15:47:16Z</time></trkpt><trkpt lat="43.171907893609365" lon="13.23788091674197"><ele>343.0</ele><time>2026-04-24T15:47:17Z</time></trkpt><trkpt lat="43.17196993189669" lon="13.237855915771613"><ele>343.0</ele><time>2026-04-24T15:47:18Z</time></trkpt><trkpt lat="43.17207464414374" lon="13.237804230620563"><ele>343.0</ele><time>2026-04-24T15:47:20Z</time></trkpt><trkpt lat="43.17218336966746" lon="13.237748315128384"><ele>343.0</ele><time>2026-04-24T15:47:22Z</time></trkpt><trkpt lat="43.17227641059092" lon="13.237673106892641"><ele>343.0</ele><time>2026-04-24T15:47:24Z</time></trkpt><trkpt lat="43.17233583057195" lon="13.237552595960087"><ele>343.0</ele><time>2026-04-24T15:47:26Z</time></trkpt><trkpt lat="43.17240627193191" lon="13.23745960310208"><ele>344.3333333333333</ele><time>2026-04-24T15:47:28Z</time></trkpt><trkpt lat="43.17247900492746" lon="13.237358405743784"><ele>345.66666666666663</ele><time>2026-04-24T15:47:29.999Z</time></trkpt><trkpt lat="43.17256163548112" lon="13.237254333008492"><ele>347.0</ele><time>2026-04-24T15:47:31.999Z</time></trkpt><trkpt lat="43.17261283912195" lon="13.237185715562973"><ele>348.3333333333333</ele><time>2026-04-24T15:47:32.999Z</time></trkpt><trkpt lat="43.17266462740041" lon="13.237109442287164"><ele>349.6666666666667</ele><time>2026-04-24T15:47:33.999Z</time></trkpt><trkpt lat="43.17271399776034" lon="13.237043149937508"><ele>351.0</ele><time>2026-04-24T15:47:34.999Z</time></trkpt><trkpt lat="43.172775120172744" lon="13.236967041009578"><ele>352.5</ele><time>2026-04-24T15:47:35.999Z</time></trkpt><trkpt lat="43.17283362718021" lon="13.236890978104984"><ele>354.0</ele><time>2026-04-24T15:47:36.999Z</time></trkpt><trkpt lat="43.17289965374124" lon="13.236800530084727"><ele>355.5</ele><time>2026-04-24T15:47:37.999Z</time></trkpt><trkpt lat="43.172966269856204" lon="13.23672041321416"><ele>357.0</ele><time>2026-04-24T15:47:38.999Z</time></trkpt><trkpt lat="43.17302591444426" lon="13.236639460553583"><ele>358.5</ele><time>2026-04-24T15:47:39.999Z</time></trkpt><trkpt lat="43.1730919757591" lon="13.236552469266519"><ele>360.0</ele><time>2026-04-24T15:47:40.999Z</time></trkpt><trkpt lat="43.1731532174043" lon="13.23647727111923"><ele>363.3333333333333</ele><time>2026-04-24T15:47:41.999Z</time></trkpt><trkpt lat="43.1732191323816" lon="13.236394722523697"><ele>366.6666666666667</ele><time>2026-04-24T15:47:42.999Z</time></trkpt><trkpt lat="43.17327764142937" lon="13.236321284084893"><ele>370.0</ele><time>2026-04-24T15:47:43.999Z</time></trkpt><trkpt lat="43.17334928201461" lon="13.236237464892508"><ele>373.33333333333337</ele><time>2026-04-24T15:47:44.999Z</time></trkpt><trkpt lat="43.173409801138504" lon="13.23616509751481"><ele>376.6666666666667</ele><time>2026-04-24T15:47:45.999Z</time></trkpt><trkpt lat="43.17346986550766" lon="13.236090044329252"><ele>380.0</ele><time>2026-04-24T15:47:46.999Z</time></trkpt><trkpt lat="43.173528826098476" lon="13.236016185462987"><ele>380.0</ele><time>2026-04-24T15:47:47.999Z</time></trkpt><trkpt lat="43.17358335647729" lon="13.235945036798052"><ele>380.0</ele><time>2026-04-24T15:47:48.999Z</time></trkpt><trkpt lat="43.17363652640807" lon="13.235878731058653"><ele>380.0</ele><time>2026-04-24T15:47:49.999Z</time></trkpt><trkpt lat="43.173682956704894" lon="13.23581864245044"><ele>380.0</ele><time>2026-04-24T15:47:50.999Z</time></trkpt><trkpt lat="43.17373145922176" lon="13.235754715014027"><ele>380.0</ele><time>2026-04-24T15:47:51.999Z</time></trkpt><trkpt lat="43.17382099675516" lon="13.235633187226222"><ele>380.0</ele><time>2026-04-24T15:47:53.999Z</time></trkpt><trkpt lat="43.173871228270386" lon="13.235564699371066"><ele>381.1666666666667</ele><time>2026-04-24T15:47:54.999Z</time></trkpt><trkpt lat="43.173921352422404" lon="13.235498828426302"><ele>382.33333333333337</ele><time>2026-04-24T15:47:55.999Z</time></trkpt><trkpt lat="43.173978500184184" lon="13.23542379040864"><ele>383.5</ele><time>2026-04-24T15:47:56.999Z</time></trkpt><trkpt lat="43.17402290215942" lon="13.23534886134197"><ele>384.6666666666667</ele><time>2026-04-24T15:47:57.999Z</time></trkpt><trkpt lat="43.17408611156868" lon="13.235263265699118"><ele>385.8333333333333</ele><time>2026-04-24T15:47:58.999Z</time></trkpt><trkpt lat="43.17414079594974" lon="13.23518507446818"><ele>387.0</ele><time>2026-04-24T15:47:59.999Z</time></trkpt><trkpt lat="43.17420709757139" lon="13.235093744983372"><ele>389.75</ele><time>2026-04-24T15:48:00.999Z</time></trkpt><trkpt lat="43.17428895413557" lon="13.235029011530644"><ele>392.5</ele><time>2026-04-24T15:48:01.999Z</time></trkpt><trkpt lat="43.174372176381915" lon="13.234918112185479"><ele>395.25</ele><time>2026-04-24T15:48:02.999Z</time></trkpt><trkpt lat="43.174466016941885" lon="13.234825978419048"><ele>398.0</ele><time>2026-04-24T15:48:03.999Z</time></trkpt><trkpt lat="43.17458136409708" lon="13.234732469682475"><ele>400.25</ele><time>2026-04-24T15:48:05Z</time></trkpt><trkpt lat="43.17469733944684" lon="13.23465985579155"><ele>402.5</ele><time>2026-04-24T15:48:06Z</time></trkpt><trkpt lat="43.17482388940546" lon="13.234607302426143"><ele>404.75</ele><time>2026-04-24T15:48:07Z</time></trkpt><trkpt lat="43.17493498055464" lon="13.234573015242342"><ele>407.0</ele><time>2026-04-24T15:48:08Z</time></trkpt><trkpt lat="43.17503152153674" lon="13.234533723809248"><ele>409.0</ele><time>2026-04-24T15:48:09Z</time></trkpt><trkpt lat="43.175120527510856" lon="13.234459628136051"><ele>411.0</ele><time>2026-04-24T15:48:10Z</time></trkpt><trkpt lat="43.175202833599485" lon="13.23436113267967"><ele>413.0</ele><time>2026-04-24T15:48:11Z</time></trkpt><trkpt lat="43.175257610653794" lon="13.234235425808619"><ele>415.0</ele><time>2026-04-24T15:48:12Z</time></trkpt><trkpt lat="43.17528667936273" lon="13.234102799586966"><ele>417.0</ele><time>2026-04-24T15:48:13Z</time></trkpt><trkpt lat="43.17527407775169" lon="13.233950821108206"><ele>419.75</ele><time>2026-04-24T15:48:14Z</time></trkpt><trkpt lat="43.17523417912607" lon="13.233783458803128"><ele>422.5</ele><time>2026-04-24T15:48:15Z</time></trkpt><trkpt lat="43.175161766212476" lon="13.233613619839216"><ele>425.25</ele><time>2026-04-24T15:48:16Z</time></trkpt><trkpt lat="43.17509913695742" lon="13.233479559745053"><ele>428.0</ele><time>2026-04-24T15:48:17Z</time></trkpt><trkpt lat="43.175086397351976" lon="13.233336393066008"><ele>428.0</ele><time>2026-04-24T15:48:18Z</time></trkpt><trkpt lat="43.175047444427" lon="13.233152422414625"><ele>428.0</ele><time>2026-04-24T15:48:19Z</time></trkpt><trkpt lat="43.17501272104098" lon="13.232948587584827"><ele>428.0</ele><time>2026-04-24T15:48:20Z</time></trkpt><trkpt lat="43.17497805818853" lon="13.23275089824664"><ele>428.0</ele><time>2026-04-24T15:48:21Z</time></trkpt><trkpt lat="43.17494382521903" lon="13.232561917676076"><ele>428.5</ele><time>2026-04-24T15:48:22Z</time></trkpt><trkpt lat="43.17490263245589" lon="13.232377756147882"><ele>429.0</ele><time>2026-04-24T15:48:23Z</time></trkpt><trkpt lat="43.17483938475727" lon="13.23222122172441"><ele>429.5</ele><time>2026-04-24T15:48:24Z</time></trkpt><trkpt lat="43.17476348710028" lon="13.232080186527996"><ele>430.0</ele><time>2026-04-24T15:48:25Z</time></trkpt><trkpt lat="43.17466623951905" lon="13.231943471693327"><ele>430.25</ele><time>2026-04-24T15:48:26Z</time></trkpt><trkpt lat="43.17455555431196" lon="13.23180952627619"><ele>430.5</ele><time>2026-04-24T15:48:27Z</time></trkpt><trkpt lat="43.17444293586039" lon="13.231681006781367"><ele>430.75</ele><time>2026-04-24T15:48:28Z</time></trkpt><trkpt lat="43.17435470423095" lon="13.231545078048557"><ele>431.0</ele><time>2026-04-24T15:48:29Z</time></trkpt><trkpt lat="43.174284046565525" lon="13.231425268318562"><ele>431.3333333333333</ele><time>2026-04-24T15:48:30Z</time></trkpt><trkpt lat="43.17425974465556" lon="13.23130439175536"><ele>431.66666666666663</ele><time>2026-04-24T15:48:31Z</time></trkpt><trkpt lat="43.17425579299272" lon="13.23117284637567"><ele>432.0</ele><time>2026-04-24T15:48:32Z</time></trkpt><trkpt lat="43.174282182996606" lon="13.231052176793634"><ele>432.33333333333337</ele><time>2026-04-24T15:48:33Z</time></trkpt><trkpt lat="43.174284891664605" lon="13.23093999360552"><ele>432.6666666666667</ele><time>2026-04-24T15:48:34Z</time></trkpt><trkpt lat="43.1742928134348" lon="13.230851633146663"><ele>433.0</ele><time>2026-04-24T15:48:35Z</time></trkpt><trkpt lat="43.17425576656606" lon="13.230677164771357"><ele>433.59999999999997</ele><time>2026-04-24T15:48:37Z</time></trkpt><trkpt lat="43.17420553389178" lon="13.230593951271652"><ele>434.19999999999993</ele><time>2026-04-24T15:48:38Z</time></trkpt><trkpt lat="43.17414229897905" lon="13.230511363370367"><ele>434.8</ele><time>2026-04-24T15:48:39Z</time></trkpt><trkpt lat="43.174084505078476" lon="13.230387412179336"><ele>435.4</ele><time>2026-04-24T15:48:40Z</time></trkpt><trkpt lat="43.17401163785328" lon="13.230260332705083"><ele>436.0</ele><time>2026-04-24T15:48:41Z</time></trkpt><trkpt lat="43.17395449661629" lon="13.230086350489561"><ele>438.33333333333337</ele><time>2026-04-24T15:48:42Z</time></trkpt><trkpt lat="43.17390238956315" lon="13.229867120602082"><ele>440.66666666666663</ele><time>2026-04-24T15:48:43Z</time></trkpt><trkpt lat="43.173851220657426" lon="13.229631690244801"><ele>443.0</ele><time>2026-04-24T15:48:44Z</time></trkpt><trkpt lat="43.17379259317635" lon="13.229427111480444"><ele>446.66666666666663</ele><time>2026-04-24T15:48:45Z</time></trkpt><trkpt lat="43.17374789852772" lon="13.229236696748915"><ele>450.33333333333337</ele><time>2026-04-24T15:48:46Z</time></trkpt><trkpt lat="43.173731606561354" lon="13.229012621072684"><ele>454.0</ele><time>2026-04-24T15:48:47Z</time></trkpt><trkpt lat="43.17370905879691" lon="13.228766409765031"><ele>455.33333333333337</ele><time>2026-04-24T15:48:48Z</time></trkpt><trkpt lat="43.17365677096349" lon="13.228543335498843"><ele>456.66666666666663</ele><time>2026-04-24T15:48:49Z</time></trkpt><trkpt lat="43.17361365360717" lon="13.22831440817286"><ele>458.0</ele><time>2026-04-24T15:48:50Z</time></trkpt><trkpt lat="43.17359314267117" lon="13.228086893896405"><ele>459.0</ele><time>2026-04-24T15:48:51Z</time></trkpt><trkpt lat="43.17357544827554" lon="13.227862420383612"><ele>460.0</ele><time>2026-04-24T15:48:52Z</time></trkpt><trkpt lat="43.17355711171406" lon="13.227686862127166"><ele>461.0</ele><time>2026-04-24T15:48:53Z</time></trkpt><trkpt lat="43.17359323699311" lon="13.227521538975282"><ele>462.0</ele><time>2026-04-24T15:48:54Z</time></trkpt><trkpt lat="43.17363148047859" lon="13.227316015492578"><ele>463.0</ele><time>2026-04-24T15:48:55Z</time></trkpt><trkpt lat="43.17366156326794" lon="13.227099681382333"><ele>464.0</ele><time>2026-04-24T15:48:56Z</time></trkpt><trkpt lat="43.17372350308816" lon="13.22690183740883"><ele>465.0</ele><time>2026-04-24T15:48:57Z</time></trkpt><trkpt lat="43.17377790411976" lon="13.226711676653025"><ele>465.0</ele><time>2026-04-24T15:48:58Z</time></trkpt><trkpt lat="43.17384693883017" lon="13.226522930694998"><ele>465.0</ele><time>2026-04-24T15:48:59Z</time></trkpt><trkpt lat="43.17390685727672" lon="13.226331160921447"><ele>465.0</ele><time>2026-04-24T15:49:00Z</time></trkpt><trkpt lat="43.173981981416574" lon="13.226145510428816"><ele>461.66666666666663</ele><time>2026-04-24T15:49:01Z</time></trkpt><trkpt lat="43.174051172691726" lon="13.225948876022212"><ele>458.3333333333333</ele><time>2026-04-24T15:49:02Z</time></trkpt><trkpt lat="43.174122744887065" lon="13.225765199224634"><ele>455.0</ele><time>2026-04-24T15:49:03Z</time></trkpt><trkpt lat="43.17420493378231" lon="13.225586637685828"><ele>453.3333333333333</ele><time>2026-04-24T15:49:04Z</time></trkpt><trkpt lat="43.17430579810182" lon="13.225400398088885"><ele>451.66666666666663</ele><time>2026-04-24T15:49:05Z</time></trkpt><trkpt lat="43.17438291728116" lon="13.22519098917492"><ele>450.0</ele><time>2026-04-24T15:49:06Z</time></trkpt><trkpt lat="43.17443400209699" lon="13.224979581387485"><ele>450.0</ele><time>2026-04-24T15:49:07Z</time></trkpt><trkpt lat="43.174494015175256" lon="13.224780045919486"><ele>450.0</ele><time>2026-04-24T15:49:08Z</time></trkpt><trkpt lat="43.17455054892152" lon="13.224600772102505"><ele>450.0</ele><time>2026-04-24T15:49:09Z</time></trkpt><trkpt lat="43.17460193798703" lon="13.224427683636684"><ele>450.0</ele><time>2026-04-24T15:49:10Z</time></trkpt><trkpt lat="43.1746751588905" lon="13.22428650468358"><ele>450.0</ele><time>2026-04-24T15:49:11Z</time></trkpt><trkpt lat="43.17477160782838" lon="13.22412707059231"><ele>450.0</ele><time>2026-04-24T15:49:12Z</time></trkpt><trkpt lat="43.17489275463315" lon="13.223960903728143"><ele>450.0</ele><time>2026-04-24T15:49:13Z</time></trkpt><trkpt lat="43.17499713516158" lon="13.223838053851813"><ele>454.25</ele><time>2026-04-24T15:49:14Z</time></trkpt><trkpt lat="43.175087609362826" lon="13.223716883393289"><ele>458.5</ele><time>2026-04-24T15:49:15Z</time></trkpt><trkpt lat="43.17520353300114" lon="13.223654495436937"><ele>462.75</ele><time>2026-04-24T15:49:16Z</time></trkpt><trkpt lat="43.17532223481429" lon="13.22361210962424"><ele>467.0</ele><time>2026-04-24T15:49:17Z</time></trkpt><trkpt lat="43.17545930405356" lon="13.223568028934162"><ele>467.0</ele><time>2026-04-24T15:49:18Z</time></trkpt><trkpt lat="43.17560962149429" lon="13.223502060369318"><ele>467.0</ele><time>2026-04-24T15:49:19Z</time></trkpt><trkpt lat="43.17575668372563" lon="13.223450439711433"><ele>467.0</ele><time>2026-04-24T15:49:20Z</time></trkpt><trkpt lat="43.17588208125603" lon="13.2234088845038"><ele>467.0</ele><time>2026-04-24T15:49:21Z</time></trkpt><trkpt lat="43.176004138157026" lon="13.22336995742639"><ele>468.8</ele><time>2026-04-24T15:49:22Z</time></trkpt><trkpt lat="43.176112518136826" lon="13.22334237716374"><ele>470.6</ele><time>2026-04-24T15:49:23Z</time></trkpt><trkpt lat="43.17618467109707" lon="13.223332461255275"><ele>472.40000000000003</ele><time>2026-04-24T15:49:24Z</time></trkpt><trkpt lat="43.17627761366997" lon="13.223305560650017"><ele>474.20000000000005</ele><time>2026-04-24T15:49:26Z</time></trkpt><trkpt lat="43.17625640380409" lon="13.223201474020703"><ele>476.0</ele><time>2026-04-24T15:49:29Z</time></trkpt><trkpt lat="43.17613727426975" lon="13.223123479119442"><ele>478.16666666666663</ele><time>2026-04-24T15:49:31Z</time></trkpt><trkpt lat="43.17605654049703" lon="13.223059870673389"><ele>480.3333333333333</ele><time>2026-04-24T15:49:32Z</time></trkpt><trkpt lat="43.17599411576145" lon="13.22295846853568"><ele>482.5</ele><time>2026-04-24T15:49:33Z</time></trkpt><trkpt lat="43.17593588818229" lon="13.222882228861272"><ele>484.66666666666663</ele><time>2026-04-24T15:49:34Z</time></trkpt><trkpt lat="43.17587800741208" lon="13.222807231986183"><ele>486.8333333333333</ele><time>2026-04-24T15:49:35Z</time></trkpt><trkpt lat="43.17582055626933" lon="13.222728569673142"><ele>489.0</ele><time>2026-04-24T15:49:36Z</time></trkpt><trkpt lat="43.17576732588617" lon="13.222648003273427"><ele>489.0</ele><time>2026-04-24T15:49:37Z</time></trkpt><trkpt lat="43.175720000802926" lon="13.222557126874383"><ele>489.0</ele><time>2026-04-24T15:49:38Z</time></trkpt><trkpt lat="43.17567022523426" lon="13.2224604892834"><ele>489.0</ele><time>2026-04-24T15:49:38.999Z</time></trkpt><trkpt lat="43.175644285165575" lon="13.22235175810412"><ele>489.0</ele><time>2026-04-24T15:49:39.999Z</time></trkpt><trkpt lat="43.175654059139454" lon="13.222232346322414"><ele>489.0</ele><time>2026-04-24T15:49:40.999Z</time></trkpt><trkpt lat="43.175652768993075" lon="13.222105477099882"><ele>489.0</ele><time>2026-04-24T15:49:41.999Z</time></trkpt><trkpt lat="43.175691533178394" lon="13.221990434643299"><ele>491.2</ele><time>2026-04-24T15:49:42.999Z</time></trkpt><trkpt lat="43.17572919340724" lon="13.221891777224398"><ele>493.4</ele><time>2026-04-24T15:49:43.999Z</time></trkpt><trkpt lat="43.1757891507872" lon="13.221782213885435"><ele>495.6</ele><time>2026-04-24T15:49:44.999Z</time></trkpt><trkpt lat="43.17585219638101" lon="13.221679051314297"><ele>497.8</ele><time>2026-04-24T15:49:45.999Z</time></trkpt><trkpt lat="43.17592198446902" lon="13.221593297088607"><ele>500.0</ele><time>2026-04-24T15:49:46.999Z</time></trkpt><trkpt lat="43.175986804542795" lon="13.221512556265628"><ele>501.8</ele><time>2026-04-24T15:49:47.999Z</time></trkpt><trkpt lat="43.17604413825757" lon="13.221404773056788"><ele>503.6</ele><time>2026-04-24T15:49:48.999Z</time></trkpt><trkpt lat="43.17610935983922" lon="13.221329152156503"><ele>505.4</ele><time>2026-04-24T15:49:49.999Z</time></trkpt><trkpt lat="43.17617118416863" lon="13.221224496765354"><ele>507.2</ele><time>2026-04-24T15:49:50.999Z</time></trkpt><trkpt lat="43.17621977475975" lon="13.221101098702155"><ele>509.0</ele><time>2026-04-24T15:49:51.999Z</time></trkpt><trkpt lat="43.17625934119131" lon="13.220957882127106"><ele>509.0</ele><time>2026-04-24T15:49:52.999Z</time></trkpt><trkpt lat="43.17630448432031" lon="13.220782859990342"><ele>509.0</ele><time>2026-04-24T15:49:53.999Z</time></trkpt><trkpt lat="43.17636558822928" lon="13.220602724049304"><ele>509.0</ele><time>2026-04-24T15:49:54.999Z</time></trkpt><trkpt lat="43.17643844077398" lon="13.220418493217355"><ele>509.0</ele><time>2026-04-24T15:49:55.999Z</time></trkpt><trkpt lat="43.1765338204368" lon="13.220253245967328"><ele>509.66666666666663</ele><time>2026-04-24T15:49:56.999Z</time></trkpt><trkpt lat="43.17663138259719" lon="13.22007361525275"><ele>510.33333333333337</ele><time>2026-04-24T15:49:57.999Z</time></trkpt><trkpt lat="43.17672406704031" lon="13.219899857910093"><ele>511.0</ele><time>2026-04-24T15:49:58.999Z</time></trkpt><trkpt lat="43.17680930838865" lon="13.219707450166494"><ele>511.0</ele><time>2026-04-24T15:49:59.999Z</time></trkpt><trkpt lat="43.17690276459567" lon="13.219534537140412"><ele>511.0</ele><time>2026-04-24T15:50:00.999Z</time></trkpt><trkpt lat="43.17699899882062" lon="13.219396676773247"><ele>511.0</ele><time>2026-04-24T15:50:01.999Z</time></trkpt><trkpt lat="43.17707687210819" lon="13.219273922751473"><ele>511.0</ele><time>2026-04-24T15:50:02.999Z</time></trkpt><trkpt lat="43.17716566997063" lon="13.219178064051945"><ele>511.0</ele><time>2026-04-24T15:50:03.999Z</time></trkpt><trkpt lat="43.177271371306716" lon="13.219107476382034"><ele>511.0</ele><time>2026-04-24T15:50:04.999Z</time></trkpt><trkpt lat="43.177387503611186" lon="13.219063827863684"><ele>511.0</ele><time>2026-04-24T15:50:05.999Z</time></trkpt><trkpt lat="43.17752503200499" lon="13.219059551427783"><ele>511.0</ele><time>2026-04-24T15:50:06.999Z</time></trkpt><trkpt lat="43.17767181369054" lon="13.219055298617777"><ele>510.75</ele><time>2026-04-24T15:50:07.999Z</time></trkpt><trkpt lat="43.177816588631124" lon="13.219084186442238"><ele>510.5</ele><time>2026-04-24T15:50:08.999Z</time></trkpt><trkpt lat="43.17794006228923" lon="13.219139523876823"><ele>510.25</ele><time>2026-04-24T15:50:09.999Z</time></trkpt><trkpt lat="43.178055564385566" lon="13.219178608722084"><ele>510.0</ele><time>2026-04-24T15:50:11Z</time></trkpt><trkpt lat="43.17816514274177" lon="13.219214851709992"><ele>510.5</ele><time>2026-04-24T15:50:12Z</time></trkpt><trkpt lat="43.17829715082929" lon="13.219237747848563"><ele>511.0</ele><time>2026-04-24T15:50:13Z</time></trkpt><trkpt lat="43.17845644833043" lon="13.21925009944199"><ele>511.5</ele><time>2026-04-24T15:50:14Z</time></trkpt><trkpt lat="43.17861158343583" lon="13.219267856618368"><ele>512.0</ele><time>2026-04-24T15:50:15Z</time></trkpt><trkpt lat="43.17875251527233" lon="13.219302311624894"><ele>512.0</ele><time>2026-04-24T15:50:16Z</time></trkpt><trkpt lat="43.17888281303771" lon="13.219319483293043"><ele>512.0</ele><time>2026-04-24T15:50:17Z</time></trkpt><trkpt lat="43.179012534696845" lon="13.219323941934674"><ele>512.0</ele><time>2026-04-24T15:50:18Z</time></trkpt><trkpt lat="43.17914432423414" lon="13.21932428916788"><ele>512.0</ele><time>2026-04-24T15:50:19Z</time></trkpt><trkpt lat="43.17925937456483" lon="13.219314794839052"><ele>511.8</ele><time>2026-04-24T15:50:20Z</time></trkpt><trkpt lat="43.179362112571155" lon="13.219313476174465"><ele>511.6</ele><time>2026-04-24T15:50:21Z</time></trkpt><trkpt lat="43.17945298034176" lon="13.219315262272362"><ele>511.40000000000003</ele><time>2026-04-24T15:50:22Z</time></trkpt><trkpt lat="43.179547207911284" lon="13.219337678848394"><ele>511.20000000000005</ele><time>2026-04-24T15:50:23Z</time></trkpt><trkpt lat="43.17963726986419" lon="13.21936558890731"><ele>511.0</ele><time>2026-04-24T15:50:24Z</time></trkpt><trkpt lat="43.17975442311153" lon="13.21938620619677"><ele>510.8</ele><time>2026-04-24T15:50:25Z</time></trkpt><trkpt lat="43.1798714692418" lon="13.219425186494899"><ele>510.6</ele><time>2026-04-24T15:50:26Z</time></trkpt><trkpt lat="43.179969272897715" lon="13.2194429804453"><ele>510.4</ele><time>2026-04-24T15:50:27Z</time></trkpt><trkpt lat="43.18006517972113" lon="13.219463895461129"><ele>510.2</ele><time>2026-04-24T15:50:28Z</time></trkpt><trkpt lat="43.18014718641063" lon="13.219467571852656"><ele>510.0</ele><time>2026-04-24T15:50:29Z</time></trkpt><trkpt lat="43.180226299165504" lon="13.219430770797779"><ele>510.0</ele><time>2026-04-24T15:50:30Z</time></trkpt><trkpt lat="43.180300514359736" lon="13.21937080810743"><ele>510.0</ele><time>2026-04-24T15:50:31Z</time></trkpt><trkpt lat="43.18036839762028" lon="13.219290003973413"><ele>510.0</ele><time>2026-04-24T15:50:32Z</time></trkpt><trkpt lat="43.180429479471734" lon="13.219165613794566"><ele>510.0</ele><time>2026-04-24T15:50:33Z</time></trkpt><trkpt lat="43.18048785712245" lon="13.218996425815675"><ele>510.0</ele><time>2026-04-24T15:50:34Z</time></trkpt><trkpt lat="43.18054725672819" lon="13.218795464434857"><ele>511.0</ele><time>2026-04-24T15:50:35Z</time></trkpt><trkpt lat="43.180605345892644" lon="13.218618854769797"><ele>512.0</ele><time>2026-04-24T15:50:36Z</time></trkpt><trkpt lat="43.180654353154715" lon="13.218484172751207"><ele>513.0</ele><time>2026-04-24T15:50:37Z</time></trkpt><trkpt lat="43.18069150730844" lon="13.21837915337699"><ele>514.0</ele><time>2026-04-24T15:50:38Z</time></trkpt><trkpt lat="43.18074039726525" lon="13.218285467303911"><ele>515.0</ele><time>2026-04-24T15:50:40Z</time></trkpt><trkpt lat="43.180814737416846" lon="13.218375285080251"><ele>515.0</ele><time>2026-04-24T15:50:45Z</time></trkpt><trkpt lat="43.180833938267554" lon="13.218507577588069"><ele>515.0</ele><time>2026-04-24T15:50:47Z</time></trkpt><trkpt lat="43.18086634427287" lon="13.218602694987974"><ele>515.0</ele><time>2026-04-24T15:50:50Z</time></trkpt><trkpt lat="43.18094332235892" lon="13.218627638896896"><ele>515.0</ele><time>2026-04-24T15:50:56Z</time></trkpt><trkpt lat="43.18093660117902" lon="13.218446321259623"><ele>515.0</ele><time>2026-04-24T15:50:58Z</time></trkpt><trkpt lat="43.18091920653063" lon="13.218358565751487"><ele>515.0</ele><time>2026-04-24T15:50:59Z</time></trkpt><trkpt lat="43.18088477872311" lon="13.218196773546103"><ele>515.0</ele><time>2026-04-24T15:51:01Z</time></trkpt><trkpt lat="43.1808578350136" lon="13.218113120220494"><ele>515.0</ele><time>2026-04-24T15:51:02Z</time></trkpt><trkpt lat="43.18082972854078" lon="13.218033104741476"><ele>515.0</ele><time>2026-04-24T15:51:03Z</time></trkpt><trkpt lat="43.180792671415105" lon="13.217950284519363"><ele>515.0</ele><time>2026-04-24T15:51:04Z</time></trkpt><trkpt lat="43.180749715720246" lon="13.217855680035772"><ele>515.0</ele><time>2026-04-24T15:51:05Z</time></trkpt><trkpt lat="43.18069278259474" lon="13.217748130053158"><ele>517.0</ele><time>2026-04-24T15:51:06Z</time></trkpt><trkpt lat="43.18062714180652" lon="13.217640978926484"><ele>519.0</ele><time>2026-04-24T15:51:07Z</time></trkpt><trkpt lat="43.180553187585865" lon="13.217531409095411"><ele>521.0</ele><time>2026-04-24T15:51:08Z</time></trkpt><trkpt lat="43.18047416950833" lon="13.217418666786662"><ele>523.0</ele><time>2026-04-24T15:51:09Z</time></trkpt><trkpt lat="43.18038586664124" lon="13.217290583597293"><ele>523.0</ele><time>2026-04-24T15:51:10Z</time></trkpt><trkpt lat="43.18029281104234" lon="13.217153649993067"><ele>523.0</ele><time>2026-04-24T15:51:11Z</time></trkpt><trkpt lat="43.18019985757521" lon="13.217008211695823"><ele>523.0</ele><time>2026-04-24T15:51:12Z</time></trkpt><trkpt lat="43.18008884130377" lon="13.216839612492523"><ele>523.0</ele><time>2026-04-24T15:51:13Z</time></trkpt><trkpt lat="43.17996662128552" lon="13.216660388648148"><ele>528.3333333333334</ele><time>2026-04-24T15:51:14Z</time></trkpt><trkpt lat="43.179840792408335" lon="13.216475325890189"><ele>533.6666666666666</ele><time>2026-04-24T15:51:15Z</time></trkpt><trkpt lat="43.17970713545747" lon="13.216271525062323"><ele>539.0</ele><time>2026-04-24T15:51:16Z</time></trkpt><trkpt lat="43.17958316841852" lon="13.216089708750005"><ele>539.0</ele><time>2026-04-24T15:51:17Z</time></trkpt><trkpt lat="43.17946645512155" lon="13.215917698884443"><ele>539.0</ele><time>2026-04-24T15:51:18Z</time></trkpt><trkpt lat="43.179353873697835" lon="13.215751061338667"><ele>539.0</ele><time>2026-04-24T15:51:19Z</time></trkpt><trkpt lat="43.179246349192304" lon="13.215589637243989"><ele>540.25</ele><time>2026-04-24T15:51:20Z</time></trkpt><trkpt lat="43.17914947584895" lon="13.215435805824832"><ele>541.5</ele><time>2026-04-24T15:51:21Z</time></trkpt><trkpt lat="43.17905220030884" lon="13.215285297605398"><ele>542.75</ele><time>2026-04-24T15:51:22Z</time></trkpt><trkpt lat="43.17895535442419" lon="13.21513685820957"><ele>544.0</ele><time>2026-04-24T15:51:23Z</time></trkpt><trkpt lat="43.17885982489871" lon="13.214986812128863"><ele>544.0</ele><time>2026-04-24T15:51:24Z</time></trkpt><trkpt lat="43.1787632032692" lon="13.214833297531575"><ele>544.0</ele><time>2026-04-24T15:51:25Z</time></trkpt><trkpt lat="43.17866499816074" lon="13.214674569183817"><ele>544.0</ele><time>2026-04-24T15:51:26Z</time></trkpt><trkpt lat="43.178563385998906" lon="13.21452470917332"><ele>544.0</ele><time>2026-04-24T15:51:26.999Z</time></trkpt><trkpt lat="43.17846666774177" lon="13.214379399282302"><ele>540.75</ele><time>2026-04-24T15:51:27.999Z</time></trkpt><trkpt lat="43.178376849646064" lon="13.21423034231982"><ele>537.5</ele><time>2026-04-24T15:51:28.999Z</time></trkpt><trkpt lat="43.17829372597672" lon="13.21406453604368"><ele>534.25</ele><time>2026-04-24T15:51:29.999Z</time></trkpt><trkpt lat="43.17824869455924" lon="13.213867307455489"><ele>531.0</ele><time>2026-04-24T15:51:30.999Z</time></trkpt><trkpt lat="43.17820270221733" lon="13.213669487698505"><ele>528.75</ele><time>2026-04-24T15:51:31.999Z</time></trkpt><trkpt lat="43.17816196852068" lon="13.213474756720279"><ele>526.5</ele><time>2026-04-24T15:51:32.999Z</time></trkpt><trkpt lat="43.17816529498219" lon="13.21327297287089"><ele>524.25</ele><time>2026-04-24T15:51:33.999Z</time></trkpt><trkpt lat="43.17818554154132" lon="13.21308405248249"><ele>522.0</ele><time>2026-04-24T15:51:34.999Z</time></trkpt><trkpt lat="43.17826739651776" lon="13.212930263739025"><ele>521.75</ele><time>2026-04-24T15:51:35.999Z</time></trkpt><trkpt lat="43.178344432752304" lon="13.212771701889636"><ele>521.5</ele><time>2026-04-24T15:51:36.999Z</time></trkpt><trkpt lat="43.17844581996313" lon="13.212650448088706"><ele>521.25</ele><time>2026-04-24T15:51:37.999Z</time></trkpt><trkpt lat="43.178524045014534" lon="13.212507963166606"><ele>521.0</ele><time>2026-04-24T15:51:38.999Z</time></trkpt><trkpt lat="43.178579715338635" lon="13.21233802589315"><ele>520.6666666666666</ele><time>2026-04-24T15:51:39.999Z</time></trkpt><trkpt lat="43.17861043568947" lon="13.212141451634805"><ele>520.3333333333334</ele><time>2026-04-24T15:51:40.999Z</time></trkpt><trkpt lat="43.17862609052212" lon="13.21192045195259"><ele>520.0</ele><time>2026-04-24T15:51:41.999Z</time></trkpt><trkpt lat="43.17863890181136" lon="13.211706353241645"><ele>517.75</ele><time>2026-04-24T15:51:42.999Z</time></trkpt><trkpt lat="43.178651803662284" lon="13.21148561444638"><ele>515.5</ele><time>2026-04-24T15:51:43.999Z</time></trkpt><trkpt lat="43.17865336981359" lon="13.211287096398388"><ele>513.25</ele><time>2026-04-24T15:51:44.999Z</time></trkpt><trkpt lat="43.178645512617216" lon="13.211094477207713"><ele>511.0</ele><time>2026-04-24T15:51:45.999Z</time></trkpt><trkpt lat="43.178614562641464" lon="13.210907845321806"><ele>511.0</ele><time>2026-04-24T15:51:46.999Z</time></trkpt><trkpt lat="43.17854437302619" lon="13.210728412233822"><ele>511.0</ele><time>2026-04-24T15:51:47.999Z</time></trkpt><trkpt lat="43.17844457366339" lon="13.2105612704969"><ele>511.0</ele><time>2026-04-24T15:51:48.999Z</time></trkpt><trkpt lat="43.17834279854483" lon="13.210408475258768"><ele>507.0</ele><time>2026-04-24T15:51:49.999Z</time></trkpt><trkpt lat="43.17824914815793" lon="13.210256825733092"><ele>503.0</ele><time>2026-04-24T15:51:50.999Z</time></trkpt><trkpt lat="43.178153436598144" lon="13.210109466413721"><ele>499.0</ele><time>2026-04-24T15:51:51.998Z</time></trkpt><trkpt lat="43.17804363979923" lon="13.209987379893557"><ele>495.0</ele><time>2026-04-24T15:51:52.998Z</time></trkpt><trkpt lat="43.17790565272398" lon="13.209902506266502"><ele>495.0</ele><time>2026-04-24T15:51:53.998Z</time></trkpt><trkpt lat="43.17775304715329" lon="13.209850960664104"><ele>495.0</ele><time>2026-04-24T15:51:54.998Z</time></trkpt><trkpt lat="43.17759982187304" lon="13.209791427627152"><ele>495.0</ele><time>2026-04-24T15:51:55.998Z</time></trkpt><trkpt lat="43.17746890527525" lon="13.209697179564063"><ele>491.33333333333337</ele><time>2026-04-24T15:51:56.998Z</time></trkpt><trkpt lat="43.17735779281711" lon="13.20957079484442"><ele>487.6666666666667</ele><time>2026-04-24T15:51:57.998Z</time></trkpt><trkpt lat="43.17727381615256" lon="13.209401060023659"><ele>484.0</ele><time>2026-04-24T15:51:58.998Z</time></trkpt><trkpt lat="43.17716712783747" lon="13.20924438608926"><ele>483.6666666666667</ele><time>2026-04-24T15:51:59.998Z</time></trkpt><trkpt lat="43.17708013499573" lon="13.20905923004896"><ele>483.33333333333337</ele><time>2026-04-24T15:52:00.998Z</time></trkpt><trkpt lat="43.17698949214967" lon="13.20888572134493"><ele>483.0</ele><time>2026-04-24T15:52:01.998Z</time></trkpt><trkpt lat="43.17689034277903" lon="13.208719700768674"><ele>482.25</ele><time>2026-04-24T15:52:02.998Z</time></trkpt><trkpt lat="43.176796586833355" lon="13.20856336670943"><ele>481.5</ele><time>2026-04-24T15:52:03.998Z</time></trkpt><trkpt lat="43.17672025396471" lon="13.208414975361414"><ele>480.75</ele><time>2026-04-24T15:52:04.998Z</time></trkpt><trkpt lat="43.17666967982929" lon="13.20824976800217"><ele>480.0</ele><time>2026-04-24T15:52:05.998Z</time></trkpt><trkpt lat="43.17664085989312" lon="13.208062858685592"><ele>479.25</ele><time>2026-04-24T15:52:06.998Z</time></trkpt><trkpt lat="43.176637829208154" lon="13.207861921612224"><ele>478.5</ele><time>2026-04-24T15:52:07.998Z</time></trkpt><trkpt lat="43.176635483401206" lon="13.20765808259587"><ele>477.75</ele><time>2026-04-24T15:52:08.998Z</time></trkpt><trkpt lat="43.17663251238745" lon="13.207454727857058"><ele>477.0</ele><time>2026-04-24T15:52:09.998Z</time></trkpt><trkpt lat="43.176618198133255" lon="13.207255595784078"><ele>476.25</ele><time>2026-04-24T15:52:10.998Z</time></trkpt><trkpt lat="43.17658620782119" lon="13.207059978109028"><ele>475.5</ele><time>2026-04-24T15:52:11.998Z</time></trkpt><trkpt lat="43.176537075900555" lon="13.206871971280098"><ele>474.75</ele><time>2026-04-24T15:52:12.998Z</time></trkpt><trkpt lat="43.17648068472995" lon="13.206683185547758"><ele>474.0</ele><time>2026-04-24T15:52:13.998Z</time></trkpt><trkpt lat="43.1764236515309" lon="13.206495405146962"><ele>475.66666666666663</ele><time>2026-04-24T15:52:14.998Z</time></trkpt><trkpt lat="43.17636410548106" lon="13.206307772551463"><ele>477.3333333333333</ele><time>2026-04-24T15:52:15.998Z</time></trkpt><trkpt lat="43.17630405531044" lon="13.20611829127528"><ele>479.0</ele><time>2026-04-24T15:52:16.999Z</time></trkpt><trkpt lat="43.176245859997344" lon="13.205928304742486"><ele>479.0</ele><time>2026-04-24T15:52:18Z</time></trkpt><trkpt lat="43.17618452290501" lon="13.205730067789291"><ele>479.0</ele><time>2026-04-24T15:52:18.999Z</time></trkpt><trkpt lat="43.17611755084792" lon="13.205528479209207"><ele>479.0</ele><time>2026-04-24T15:52:19.999Z</time></trkpt><trkpt lat="43.176056122267276" lon="13.205338207688072"><ele>481.5</ele><time>2026-04-24T15:52:21Z</time></trkpt><trkpt lat="43.17602980390407" lon="13.205161032541344"><ele>484.0</ele><time>2026-04-24T15:52:21.999Z</time></trkpt><trkpt lat="43.175995656043966" lon="13.204993404082762"><ele>486.5</ele><time>2026-04-24T15:52:23Z</time></trkpt><trkpt lat="43.17603592518548" lon="13.204830111033267"><ele>489.0</ele><time>2026-04-24T15:52:24Z</time></trkpt><trkpt lat="43.17614410754078" lon="13.204687944569862"><ele>493.66666666666663</ele><time>2026-04-24T15:52:25Z</time></trkpt><trkpt lat="43.176248238651596" lon="13.204531050250232"><ele>498.3333333333333</ele><time>2026-04-24T15:52:26Z</time></trkpt><trkpt lat="43.17635900034148" lon="13.204361068311737"><ele>503.0</ele><time>2026-04-24T15:52:27Z</time></trkpt><trkpt lat="43.17647583521198" lon="13.204213546288958"><ele>505.0</ele><time>2026-04-24T15:52:27.999Z</time></trkpt><trkpt lat="43.17659374308879" lon="13.204068024508079"><ele>507.0</ele><time>2026-04-24T15:52:28.999Z</time></trkpt><trkpt lat="43.17671409319108" lon="13.203923577235415"><ele>509.0</ele><time>2026-04-24T15:52:29.999Z</time></trkpt><trkpt lat="43.17683049217273" lon="13.20377939559825"><ele>509.0</ele><time>2026-04-24T15:52:30.999Z</time></trkpt><trkpt lat="43.17694807120071" lon="13.203633123249546"><ele>509.0</ele><time>2026-04-24T15:52:31.999Z</time></trkpt><trkpt lat="43.17706679015468" lon="13.203484575584353"><ele>509.0</ele><time>2026-04-24T15:52:32.999Z</time></trkpt><trkpt lat="43.177184542861646" lon="13.20333663265363"><ele>509.0</ele><time>2026-04-24T15:52:33.999Z</time></trkpt><trkpt lat="43.17730001283421" lon="13.203194565017721"><ele>509.0</ele><time>2026-04-24T15:52:34.999Z</time></trkpt><trkpt lat="43.17742437178245" lon="13.20304636765964"><ele>509.0</ele><time>2026-04-24T15:52:35.999Z</time></trkpt><trkpt lat="43.177541465398924" lon="13.202908654107803"><ele>510.0</ele><time>2026-04-24T15:52:36.999Z</time></trkpt><trkpt lat="43.17766169417897" lon="13.202759494041146"><ele>511.0</ele><time>2026-04-24T15:52:37.999Z</time></trkpt><trkpt lat="43.17777997641441" lon="13.202618733227757"><ele>512.0</ele><time>2026-04-24T15:52:38.999Z</time></trkpt><trkpt lat="43.17790102153712" lon="13.202472502696073"><ele>512.0</ele><time>2026-04-24T15:52:39.999Z</time></trkpt><trkpt lat="43.17801156251495" lon="13.202341332047741"><ele>512.0</ele><time>2026-04-24T15:52:40.999Z</time></trkpt><trkpt lat="43.17810575251477" lon="13.202219807396562"><ele>512.0</ele><time>2026-04-24T15:52:41.999Z</time></trkpt><trkpt lat="43.17818046208838" lon="13.202087894966354"><ele>512.0</ele><time>2026-04-24T15:52:42.999Z</time></trkpt><trkpt lat="43.17822786447145" lon="13.201932205256748"><ele>511.75</ele><time>2026-04-24T15:52:43.999Z</time></trkpt><trkpt lat="43.178224864629364" lon="13.201742885822398"><ele>511.5</ele><time>2026-04-24T15:52:44.999Z</time></trkpt><trkpt lat="43.178183139713425" lon="13.201571635967992"><ele>511.25</ele><time>2026-04-24T15:52:45.999Z</time></trkpt><trkpt lat="43.17813595257112" lon="13.201373196298078"><ele>511.0</ele><time>2026-04-24T15:52:46.999Z</time></trkpt><trkpt lat="43.17805782072329" lon="13.201215647141762"><ele>509.75</ele><time>2026-04-24T15:52:47.999Z</time></trkpt><trkpt lat="43.177940729179404" lon="13.201102547405242"><ele>508.5</ele><time>2026-04-24T15:52:48.999Z</time></trkpt><trkpt lat="43.17780353029982" lon="13.201027951526143"><ele>507.25</ele><time>2026-04-24T15:52:49.999Z</time></trkpt><trkpt lat="43.17764692626278" lon="13.200998395573462"><ele>506.0</ele><time>2026-04-24T15:52:50.999Z</time></trkpt><trkpt lat="43.17748466874212" lon="13.20098739163975"><ele>508.3333333333333</ele><time>2026-04-24T15:52:51.999Z</time></trkpt><trkpt lat="43.17731910232773" lon="13.200968238650457"><ele>510.66666666666663</ele><time>2026-04-24T15:52:52.999Z</time></trkpt><trkpt lat="43.177151130086635" lon="13.200942863555463"><ele>513.0</ele><time>2026-04-24T15:52:53.999Z</time></trkpt><trkpt lat="43.17699045510923" lon="13.200909036026758"><ele>513.0</ele><time>2026-04-24T15:52:54.999Z</time></trkpt><trkpt lat="43.176824670409545" lon="13.200877816880626"><ele>513.0</ele><time>2026-04-24T15:52:55.999Z</time></trkpt><trkpt lat="43.176654563280294" lon="13.20084939686122"><ele>513.0</ele><time>2026-04-24T15:52:56.999Z</time></trkpt><trkpt lat="43.17648608949362" lon="13.200819918565077"><ele>514.3333333333334</ele><time>2026-04-24T15:52:57.999Z</time></trkpt><trkpt lat="43.17631745278623" lon="13.200787746193273"><ele>515.6666666666667</ele><time>2026-04-24T15:52:58.999Z</time></trkpt><trkpt lat="43.17614528172315" lon="13.200764135085514"><ele>517.0</ele><time>2026-04-24T15:52:59.999Z</time></trkpt><trkpt lat="43.175967649004455" lon="13.20073767736998"><ele>517.0</ele><time>2026-04-24T15:53:00.999Z</time></trkpt><trkpt lat="43.17580259607537" lon="13.200707610796835"><ele>517.0</ele><time>2026-04-24T15:53:01.999Z</time></trkpt><trkpt lat="43.1756348205051" lon="13.200679772276008"><ele>517.0</ele><time>2026-04-24T15:53:02.999Z</time></trkpt><trkpt lat="43.17547446141619" lon="13.20062703682186"><ele>512.3333333333334</ele><time>2026-04-24T15:53:03.999Z</time></trkpt><trkpt lat="43.17531969787043" lon="13.200578701710954"><ele>507.66666666666663</ele><time>2026-04-24T15:53:04.999Z</time></trkpt><trkpt lat="43.17517490023181" lon="13.200510879944602"><ele>503.0</ele><time>2026-04-24T15:53:05.999Z</time></trkpt><trkpt lat="43.1750589683156" lon="13.20035865803804"><ele>503.0</ele><time>2026-04-24T15:53:06.999Z</time></trkpt><trkpt lat="43.174941763224375" lon="13.200232830839846"><ele>503.0</ele><time>2026-04-24T15:53:07.999Z</time></trkpt><trkpt lat="43.17485229963463" lon="13.200079231063018"><ele>503.0</ele><time>2026-04-24T15:53:08.999Z</time></trkpt><trkpt lat="43.174774514225746" lon="13.199896907484298"><ele>503.0</ele><time>2026-04-24T15:53:09.999Z</time></trkpt><trkpt lat="43.174751248212964" lon="13.199672544513726"><ele>504.66666666666663</ele><time>2026-04-24T15:53:10.999Z</time></trkpt><trkpt lat="43.17470832775393" lon="13.199442201440661"><ele>506.33333333333337</ele><time>2026-04-24T15:53:11.999Z</time></trkpt><trkpt lat="43.17469474387189" lon="13.199226151260387"><ele>508.0</ele><time>2026-04-24T15:53:12.999Z</time></trkpt><trkpt lat="43.1746734955895" lon="13.199042021880473"><ele>504.75</ele><time>2026-04-24T15:53:13.999Z</time></trkpt><trkpt lat="43.174628303488824" lon="13.198887160145725"><ele>501.5</ele><time>2026-04-24T15:53:14.999Z</time></trkpt><trkpt lat="43.174542224879346" lon="13.19876167512059"><ele>498.25</ele><time>2026-04-24T15:53:15.999Z</time></trkpt><trkpt lat="43.1744190954016" lon="13.198677481383474"><ele>495.0</ele><time>2026-04-24T15:53:16.999Z</time></trkpt><trkpt lat="43.174264517484815" lon="13.198658065850244"><ele>495.0</ele><time>2026-04-24T15:53:17.999Z</time></trkpt><trkpt lat="43.1741018968561" lon="13.198673895432064"><ele>495.0</ele><time>2026-04-24T15:53:18.999Z</time></trkpt><trkpt lat="43.17394980892639" lon="13.198682915549863"><ele>495.0</ele><time>2026-04-24T15:53:19.999Z</time></trkpt><trkpt lat="43.173809375276576" lon="13.198673690568986"><ele>497.75</ele><time>2026-04-24T15:53:20.999Z</time></trkpt><trkpt lat="43.173686735381196" lon="13.1986360024725"><ele>500.5</ele><time>2026-04-24T15:53:21.999Z</time></trkpt><trkpt lat="43.17358490190955" lon="13.198569396180295"><ele>503.25</ele><time>2026-04-24T15:53:22.999Z</time></trkpt><trkpt lat="43.17349799281691" lon="13.198465058973689"><ele>506.0</ele><time>2026-04-24T15:53:23.999Z</time></trkpt><trkpt lat="43.17342786958318" lon="13.198322818586494"><ele>505.25</ele><time>2026-04-24T15:53:24.999Z</time></trkpt><trkpt lat="43.173375582050454" lon="13.198158883040199"><ele>504.5</ele><time>2026-04-24T15:53:25.999Z</time></trkpt><trkpt lat="43.173350157868406" lon="13.197995515603981"><ele>503.75</ele><time>2026-04-24T15:53:26.999Z</time></trkpt><trkpt lat="43.17335271150139" lon="13.19784308494218"><ele>503.0</ele><time>2026-04-24T15:53:27.999Z</time></trkpt><trkpt lat="43.17337108446972" lon="13.19769918210247"><ele>502.99999999999994</ele><time>2026-04-24T15:53:28.999Z</time></trkpt><trkpt lat="43.173388558783365" lon="13.197571566288705"><ele>503.0</ele><time>2026-04-24T15:53:29.999Z</time></trkpt><trkpt lat="43.17340039702229" lon="13.197452986122915"><ele>503.0</ele><time>2026-04-24T15:53:30.999Z</time></trkpt><trkpt lat="43.173404555542675" lon="13.19735550201676"><ele>503.0</ele><time>2026-04-24T15:53:31.999Z</time></trkpt><trkpt lat="43.17338966420372" lon="13.19722086637099"><ele>502.99999999999994</ele><time>2026-04-24T15:53:33.999Z</time></trkpt><trkpt lat="43.173377209358215" lon="13.197129885737828"><ele>503.0</ele><time>2026-04-24T15:53:35.999Z</time></trkpt><trkpt lat="43.173267360006115" lon="13.197067972242325"><ele>502.79999999999995</ele><time>2026-04-24T15:53:36.999Z</time></trkpt><trkpt lat="43.1731943831095" lon="13.19701418101976"><ele>502.59999999999997</ele><time>2026-04-24T15:53:37.999Z</time></trkpt><trkpt lat="43.17310379594677" lon="13.196965497213728"><ele>502.40000000000003</ele><time>2026-04-24T15:53:38.999Z</time></trkpt><trkpt lat="43.173012529214056" lon="13.196916753785008"><ele>502.20000000000005</ele><time>2026-04-24T15:53:39.999Z</time></trkpt><trkpt lat="43.1729139543297" lon="13.196865019645546"><ele>502.0</ele><time>2026-04-24T15:53:40.999Z</time></trkpt><trkpt lat="43.17280633448633" lon="13.19681955917784"><ele>503.75</ele><time>2026-04-24T15:53:41.999Z</time></trkpt><trkpt lat="43.17268349038898" lon="13.196783294094013"><ele>505.5</ele><time>2026-04-24T15:53:42.999Z</time></trkpt><trkpt lat="43.17255738282811" lon="13.196753458508018"><ele>507.25</ele><time>2026-04-24T15:53:43.999Z</time></trkpt><trkpt lat="43.17242441330323" lon="13.19674232711265"><ele>509.0</ele><time>2026-04-24T15:53:44.999Z</time></trkpt><trkpt lat="43.17228143776538" lon="13.196734211322086"><ele>512.5</ele><time>2026-04-24T15:53:45.999Z</time></trkpt><trkpt lat="43.1721341277133" lon="13.196731603390692"><ele>516.0</ele><time>2026-04-24T15:53:46.999Z</time></trkpt><trkpt lat="43.17198800392295" lon="13.196737161501193"><ele>519.5</ele><time>2026-04-24T15:53:47.999Z</time></trkpt><trkpt lat="43.171844689588944" lon="13.196746812789518"><ele>523.0</ele><time>2026-04-24T15:53:48.999Z</time></trkpt><trkpt lat="43.17170144839522" lon="13.196758711583474"><ele>523.0</ele><time>2026-04-24T15:53:49.998Z</time></trkpt><trkpt lat="43.171562129389834" lon="13.196747707846875"><ele>523.0</ele><time>2026-04-24T15:53:50.998Z</time></trkpt><trkpt lat="43.1714307865544" lon="13.196684518224997"><ele>523.0</ele><time>2026-04-24T15:53:51.998Z</time></trkpt><trkpt lat="43.171310879110095" lon="13.196556017493206"><ele>523.0</ele><time>2026-04-24T15:53:52.998Z</time></trkpt><trkpt lat="43.17118075762048" lon="13.196484084918598"><ele>523.25</ele><time>2026-04-24T15:53:53.998Z</time></trkpt><trkpt lat="43.17104188614671" lon="13.196448152789957"><ele>523.5</ele><time>2026-04-24T15:53:54.998Z</time></trkpt><trkpt lat="43.170888665456374" lon="13.196459835568406"><ele>523.75</ele><time>2026-04-24T15:53:55.998Z</time></trkpt><trkpt lat="43.17073815516815" lon="13.196454877474652"><ele>524.0</ele><time>2026-04-24T15:53:56.998Z</time></trkpt><trkpt lat="43.17061392353741" lon="13.196412367798976"><ele>525.8333333333333</ele><time>2026-04-24T15:53:57.998Z</time></trkpt><trkpt lat="43.17050963432851" lon="13.196363371413264"><ele>527.6666666666666</ele><time>2026-04-24T15:53:58.998Z</time></trkpt><trkpt lat="43.17043015292336" lon="13.196311481595677"><ele>529.5</ele><time>2026-04-24T15:53:59.998Z</time></trkpt><trkpt lat="43.1703603529453" lon="13.196247541584862"><ele>531.3333333333334</ele><time>2026-04-24T15:54:00.998Z</time></trkpt><trkpt lat="43.17029238780216" lon="13.19621132377473"><ele>533.1666666666667</ele><time>2026-04-24T15:54:01.998Z</time></trkpt><trkpt lat="43.170258207406434" lon="13.196097439029806"><ele>535.0</ele><time>2026-04-24T15:54:02.998Z</time></trkpt><trkpt lat="43.17019265626456" lon="13.196065528992147"><ele>535.0</ele><time>2026-04-24T15:54:03.998Z</time></trkpt><trkpt lat="43.17014645740926" lon="13.195915878599171"><ele>535.0</ele><time>2026-04-24T15:54:05.998Z</time></trkpt><trkpt lat="43.170229766777545" lon="13.195787121153217"><ele>535.0</ele><time>2026-04-24T15:54:06.998Z</time></trkpt><trkpt lat="43.17028444743118" lon="13.195635057039736"><ele>535.0</ele><time>2026-04-24T15:54:07.998Z</time></trkpt><trkpt lat="43.170356578522075" lon="13.195519389391578"><ele>538.8</ele><time>2026-04-24T15:54:08.998Z</time></trkpt><trkpt lat="43.17041913259934" lon="13.19542535937513"><ele>542.6</ele><time>2026-04-24T15:54:09.998Z</time></trkpt><trkpt lat="43.17046881755589" lon="13.195351541328606"><ele>546.4</ele><time>2026-04-24T15:54:10.998Z</time></trkpt><trkpt lat="43.1704953829058" lon="13.195210486765603"><ele>550.2</ele><time>2026-04-24T15:54:12.998Z</time></trkpt><trkpt lat="43.170380250998576" lon="13.195125660256668"><ele>554.0</ele><time>2026-04-24T15:54:14.998Z</time></trkpt><trkpt lat="43.17027138289777" lon="13.195131183573954"><ele>554.0</ele><time>2026-04-24T15:54:15.998Z</time></trkpt><trkpt lat="43.170151853224766" lon="13.195162079286131"><ele>554.0</ele><time>2026-04-24T15:54:16.998Z</time></trkpt><trkpt lat="43.170045137756375" lon="13.195204311187846"><ele>554.0</ele><time>2026-04-24T15:54:17.998Z</time></trkpt><trkpt lat="43.1699650376646" lon="13.195198450098804"><ele>554.0</ele><time>2026-04-24T15:54:18.998Z</time></trkpt><trkpt lat="43.16989618778978" lon="13.195142598194115"><ele>554.0</ele><time>2026-04-24T15:54:19.998Z</time></trkpt><trkpt lat="43.16984352448872" lon="13.1950728320472"><ele>552.8</ele><time>2026-04-24T15:54:20.998Z</time></trkpt><trkpt lat="43.16978146483648" lon="13.194999013496567"><ele>551.5999999999999</ele><time>2026-04-24T15:54:21.998Z</time></trkpt><trkpt lat="43.16969136168595" lon="13.194904294521821"><ele>550.4</ele><time>2026-04-24T15:54:22.999Z</time></trkpt><trkpt lat="43.169598864368275" lon="13.19481739375428"><ele>549.1999999999999</ele><time>2026-04-24T15:54:23.999Z</time></trkpt><trkpt lat="43.16949460511916" lon="13.19473667795558"><ele>548.0</ele><time>2026-04-24T15:54:24.999Z</time></trkpt><trkpt lat="43.16937420322651" lon="13.19469979685174"><ele>548.0</ele><time>2026-04-24T15:54:25.999Z</time></trkpt><trkpt lat="43.16927076748254" lon="13.19464335006962"><ele>548.0</ele><time>2026-04-24T15:54:26.999Z</time></trkpt><trkpt lat="43.16917116264091" lon="13.194616323203837"><ele>548.0</ele><time>2026-04-24T15:54:27.999Z</time></trkpt><trkpt lat="43.169069655966" lon="13.194597889876578"><ele>548.0</ele><time>2026-04-24T15:54:29Z</time></trkpt><trkpt lat="43.168959794089574" lon="13.194607852989215"><ele>548.0</ele><time>2026-04-24T15:54:30Z</time></trkpt><trkpt lat="43.16886115923589" lon="13.194666231131437"><ele>548.0</ele><time>2026-04-24T15:54:31Z</time></trkpt><trkpt lat="43.168763121235315" lon="13.194680113030019"><ele>548.0</ele><time>2026-04-24T15:54:32Z</time></trkpt><trkpt lat="43.1686944903075" lon="13.194686444605797"><ele>548.0</ele><time>2026-04-24T15:54:33Z</time></trkpt><trkpt lat="43.16862637590787" lon="13.194618639977113"><ele>548.0</ele><time>2026-04-24T15:54:35Z</time></trkpt><trkpt lat="43.16866672990715" lon="13.194473139654033"><ele>548.0</ele><time>2026-04-24T15:54:37Z</time></trkpt><trkpt lat="43.168738766338166" lon="13.194432467789898"><ele>548.0</ele><time>2026-04-24T15:54:38Z</time></trkpt><trkpt lat="43.168834144177794" lon="13.19441019348656"><ele>548.0</ele><time>2026-04-24T15:54:39Z</time></trkpt><trkpt lat="43.16894460612767" lon="13.194381510904233"><ele>548.0</ele><time>2026-04-24T15:54:40Z</time></trkpt><trkpt lat="43.169045077378144" lon="13.19435002135674"><ele>548.0</ele><time>2026-04-24T15:54:41Z</time></trkpt><trkpt lat="43.169132768375846" lon="13.194286942707805"><ele>548.0</ele><time>2026-04-24T15:54:42Z</time></trkpt><trkpt lat="43.16920806891302" lon="13.19423315277721"><ele>548.0</ele><time>2026-04-24T15:54:42.999Z</time></trkpt><trkpt lat="43.169298288571625" lon="13.194186918408858"><ele>550.8</ele><time>2026-04-24T15:54:43.999Z</time></trkpt><trkpt lat="43.169373885308275" lon="13.194113766254686"><ele>553.5999999999999</ele><time>2026-04-24T15:54:44.999Z</time></trkpt><trkpt lat="43.16943011690365" lon="13.19402485100278"><ele>556.4000000000001</ele><time>2026-04-24T15:54:45.999Z</time></trkpt><trkpt lat="43.16946144163172" lon="13.193897801899897"><ele>559.2</ele><time>2026-04-24T15:54:46.999Z</time></trkpt><trkpt lat="43.16950157436774" lon="13.19378612710091"><ele>562.0</ele><time>2026-04-24T15:54:47.999Z</time></trkpt><trkpt lat="43.16951562470688" lon="13.193661494905129"><ele>563.0</ele><time>2026-04-24T15:54:48.999Z</time></trkpt><trkpt lat="43.16952591691591" lon="13.193556035652415"><ele>564.0</ele><time>2026-04-24T15:54:49.999Z</time></trkpt><trkpt lat="43.169511794638254" lon="13.19344153250836"><ele>565.0</ele><time>2026-04-24T15:54:50.999Z</time></trkpt><trkpt lat="43.16949655302958" lon="13.193312824519731"><ele>566.0</ele><time>2026-04-24T15:54:51.999Z</time></trkpt><trkpt lat="43.1694817699501" lon="13.193175862488419"><ele>567.0</ele><time>2026-04-24T15:54:52.999Z</time></trkpt><trkpt lat="43.16936548146118" lon="13.193070706465107"><ele>567.4</ele><time>2026-04-24T15:54:53.999Z</time></trkpt><trkpt lat="43.169303962374634" lon="13.192986460097421"><ele>567.8000000000001</ele><time>2026-04-24T15:54:54.999Z</time></trkpt><trkpt lat="43.16923203640001" lon="13.192902265306508"><ele>568.2</ele><time>2026-04-24T15:54:55.999Z</time></trkpt><trkpt lat="43.16915777238963" lon="13.192819205782191"><ele>568.6</ele><time>2026-04-24T15:54:56.999Z</time></trkpt><trkpt lat="43.16907845209463" lon="13.192755661378975"><ele>569.0</ele><time>2026-04-24T15:54:57.999Z</time></trkpt><trkpt lat="43.16900047106772" lon="13.19270340580378"><ele>569.5</ele><time>2026-04-24T15:54:58.999Z</time></trkpt><trkpt lat="43.16892289320738" lon="13.192663857673066"><ele>570.0</ele><time>2026-04-24T15:54:59.999Z</time></trkpt><trkpt lat="43.16884401294195" lon="13.19262506740195"><ele>570.5</ele><time>2026-04-24T15:55:00.999Z</time></trkpt><trkpt lat="43.168778611745566" lon="13.192591213293866"><ele>571.0</ele><time>2026-04-24T15:55:01.999Z</time></trkpt><trkpt lat="43.168690484299155" lon="13.192560661269258"><ele>571.5</ele><time>2026-04-24T15:55:03.999Z</time></trkpt><trkpt lat="43.16861338768198" lon="13.192550248519304"><ele>572.0</ele><time>2026-04-24T15:55:05.999Z</time></trkpt><trkpt lat="43.168512826835276" lon="13.192503892575804"><ele>572.0</ele><time>2026-04-24T15:55:07.999Z</time></trkpt><trkpt lat="43.16840509053297" lon="13.192432164283353"><ele>572.0</ele><time>2026-04-24T15:55:09.999Z</time></trkpt><trkpt lat="43.16830562072263" lon="13.192351694045607"><ele>572.0</ele><time>2026-04-24T15:55:11.999Z</time></trkpt><trkpt lat="43.16824137257376" lon="13.19231728370231"><ele>572.0</ele><time>2026-04-24T15:55:12.999Z</time></trkpt><trkpt lat="43.16818262301092" lon="13.192277479906426"><ele>572.0</ele><time>2026-04-24T15:55:13.999Z</time></trkpt><trkpt lat="43.16811654884495" lon="13.192218858205905"><ele>572.0</ele><time>2026-04-24T15:55:14.999Z</time></trkpt><trkpt lat="43.16805699684954" lon="13.192157699009211"><ele>575.6666666666666</ele><time>2026-04-24T15:55:15.999Z</time></trkpt><trkpt lat="43.16798800639379" lon="13.192099598496853"><ele>579.3333333333333</ele><time>2026-04-24T15:55:16.999Z</time></trkpt><trkpt lat="43.167910187643535" lon="13.192038642782414"><ele>583.0</ele><time>2026-04-24T15:55:17.999Z</time></trkpt><trkpt lat="43.167821987651266" lon="13.19200228818358"><ele>586.6666666666666</ele><time>2026-04-24T15:55:18.999Z</time></trkpt><trkpt lat="43.167748097681255" lon="13.19198708996536"><ele>590.3333333333334</ele><time>2026-04-24T15:55:19.999Z</time></trkpt><trkpt lat="43.16766234986541" lon="13.191964497319699"><ele>594.0</ele><time>2026-04-24T15:55:20.999Z</time></trkpt><trkpt lat="43.16757468944574" lon="13.19194676854744"><ele>594.0</ele><time>2026-04-24T15:55:21.999Z</time></trkpt><trkpt lat="43.16748729513525" lon="13.191939040199959"><ele>594.0</ele><time>2026-04-24T15:55:22.999Z</time></trkpt><trkpt lat="43.167418332941125" lon="13.191950001268886"><ele>594.0</ele><time>2026-04-24T15:55:23.999Z</time></trkpt><trkpt lat="43.16734727472195" lon="13.191948442663438"><ele>594.0</ele><time>2026-04-24T15:55:24.999Z</time></trkpt><trkpt lat="43.167268995802544" lon="13.191944809695872"><ele>594.0</ele><time>2026-04-24T15:55:25.999Z</time></trkpt><trkpt lat="43.16718668749885" lon="13.191942430067824"><ele>594.0</ele><time>2026-04-24T15:55:26.999Z</time></trkpt><trkpt lat="43.167111403483" lon="13.191926950824012"><ele>594.0</ele><time>2026-04-24T15:55:27.999Z</time></trkpt><trkpt lat="43.16703043961133" lon="13.191933146763857"><ele>594.0</ele><time>2026-04-24T15:55:28.999Z</time></trkpt><trkpt lat="43.16694413883871" lon="13.191941367230243"><ele>594.0</ele><time>2026-04-24T15:55:29.999Z</time></trkpt><trkpt lat="43.16685986304293" lon="13.191925540337037"><ele>594.0</ele><time>2026-04-24T15:55:30.999Z</time></trkpt><trkpt lat="43.166761698175186" lon="13.191913978543688"><ele>594.0</ele><time>2026-04-24T15:55:31.999Z</time></trkpt><trkpt lat="43.16667994383606" lon="13.191894857925785"><ele>594.0</ele><time>2026-04-24T15:55:32.999Z</time></trkpt><trkpt lat="43.16659206086324" lon="13.191866704083886"><ele>594.6666666666666</ele><time>2026-04-24T15:55:33.999Z</time></trkpt><trkpt lat="43.1665110752624" lon="13.191827590014594"><ele>595.3333333333334</ele><time>2026-04-24T15:55:34.999Z</time></trkpt><trkpt lat="43.16645320106221" lon="13.191779718812809"><ele>596.0</ele><time>2026-04-24T15:55:35.999Z</time></trkpt><trkpt lat="43.16637488347425" lon="13.191729728687749"><ele>596.6666666666667</ele><time>2026-04-24T15:55:36.999Z</time></trkpt><trkpt lat="43.16628543276922" lon="13.19171524755784"><ele>597.3333333333334</ele><time>2026-04-24T15:55:37.999Z</time></trkpt><trkpt lat="43.166211913241625" lon="13.191696658162344"><ele>598.0</ele><time>2026-04-24T15:55:38.999Z</time></trkpt><trkpt lat="43.16612889192225" lon="13.191651265583276"><ele>598.0</ele><time>2026-04-24T15:55:39.999Z</time></trkpt><trkpt lat="43.166050511777264" lon="13.191596938507002"><ele>598.0</ele><time>2026-04-24T15:55:40.999Z</time></trkpt><trkpt lat="43.16596216987194" lon="13.191550850092877"><ele>598.0</ele><time>2026-04-24T15:55:41.999Z</time></trkpt><trkpt lat="43.165886851693315" lon="13.19151280412975"><ele>598.0</ele><time>2026-04-24T15:55:42.999Z</time></trkpt><trkpt lat="43.16580045965183" lon="13.191466413090744"><ele>598.0</ele><time>2026-04-24T15:55:43.999Z</time></trkpt><trkpt lat="43.1657119268731" lon="13.191422172322635"><ele>603.3333333333334</ele><time>2026-04-24T15:55:44.999Z</time></trkpt><trkpt lat="43.16562930619345" lon="13.191385711226744"><ele>608.6666666666667</ele><time>2026-04-24T15:55:45.999Z</time></trkpt><trkpt lat="43.16554379135573" lon="13.19135042641213"><ele>614.0</ele><time>2026-04-24T15:55:46.999Z</time></trkpt><trkpt lat="43.165455272376086" lon="13.191310542264578"><ele>619.3333333333334</ele><time>2026-04-24T15:55:47.999Z</time></trkpt><trkpt lat="43.165378226430725" lon="13.191255499866742"><ele>624.6666666666666</ele><time>2026-04-24T15:55:48.999Z</time></trkpt><trkpt lat="43.16530063918216" lon="13.191188819049973"><ele>630.0</ele><time>2026-04-24T15:55:49.999Z</time></trkpt><trkpt lat="43.16522387672141" lon="13.191128910494383"><ele>630.0</ele><time>2026-04-24T15:55:50.999Z</time></trkpt><trkpt lat="43.16514805384993" lon="13.191073163741457"><ele>630.0</ele><time>2026-04-24T15:55:51.999Z</time></trkpt><trkpt lat="43.165067538877075" lon="13.191009920863921"><ele>630.0</ele><time>2026-04-24T15:55:52.999Z</time></trkpt><trkpt lat="43.1649885594826" lon="13.190936868565286"><ele>630.0</ele><time>2026-04-24T15:55:53.999Z</time></trkpt><trkpt lat="43.1649069714106" lon="13.190869032757218"><ele>630.0</ele><time>2026-04-24T15:55:54.999Z</time></trkpt><trkpt lat="43.16482870115773" lon="13.190803576919315"><ele>630.6</ele><time>2026-04-24T15:55:55.999Z</time></trkpt><trkpt lat="43.16473892152762" lon="13.19073439352937"><ele>631.2</ele><time>2026-04-24T15:55:56.999Z</time></trkpt><trkpt lat="43.164638162881666" lon="13.190675776723033"><ele>631.8</ele><time>2026-04-24T15:55:57.999Z</time></trkpt><trkpt lat="43.16453999635092" lon="13.190599122247043"><ele>632.4</ele><time>2026-04-24T15:55:58.999Z</time></trkpt><trkpt lat="43.16444840370904" lon="13.19052640911654"><ele>633.0</ele><time>2026-04-24T15:55:59.999Z</time></trkpt><trkpt lat="43.16436086981192" lon="13.190473841260562"><ele>637.2</ele><time>2026-04-24T15:56:00.999Z</time></trkpt><trkpt lat="43.164274751797386" lon="13.190422274103884"><ele>641.4</ele><time>2026-04-24T15:56:01.999Z</time></trkpt><trkpt lat="43.16418598886626" lon="13.19036575659675"><ele>645.6</ele><time>2026-04-24T15:56:02.999Z</time></trkpt><trkpt lat="43.16410714269189" lon="13.190302329532402"><ele>649.8000000000001</ele><time>2026-04-24T15:56:03.999Z</time></trkpt><trkpt lat="43.16403951461888" lon="13.19024441072049"><ele>654.0</ele><time>2026-04-24T15:56:04.999Z</time></trkpt><trkpt lat="43.16396022640403" lon="13.190163422785588"><ele>654.0</ele><time>2026-04-24T15:56:05.999Z</time></trkpt><trkpt lat="43.1638838502983" lon="13.190066804659413"><ele>654.0</ele><time>2026-04-24T15:56:06.999Z</time></trkpt><trkpt lat="43.163795941054694" lon="13.18998425080544"><ele>654.0</ele><time>2026-04-24T15:56:07.999Z</time></trkpt><trkpt lat="43.16370831513795" lon="13.189938109891033"><ele>654.0</ele><time>2026-04-24T15:56:08.999Z</time></trkpt><trkpt lat="43.16362105656275" lon="13.189906849371127"><ele>654.0</ele><time>2026-04-24T15:56:09.999Z</time></trkpt><trkpt lat="43.163555152524125" lon="13.189875685086635"><ele>656.3333333333334</ele><time>2026-04-24T15:56:10.999Z</time></trkpt><trkpt lat="43.163490025974234" lon="13.189819645023999"><ele>658.6666666666666</ele><time>2026-04-24T15:56:11.999Z</time></trkpt><trkpt lat="43.16345156354432" lon="13.18974572757406"><ele>661.0</ele><time>2026-04-24T15:56:12.999Z</time></trkpt><trkpt lat="43.16340299497663" lon="13.189643334087291"><ele>663.3333333333333</ele><time>2026-04-24T15:56:13.999Z</time></trkpt><trkpt lat="43.16335286331457" lon="13.189549426438155"><ele>665.6666666666666</ele><time>2026-04-24T15:56:14.998Z</time></trkpt><trkpt lat="43.163331306156046" lon="13.189399459064017"><ele>668.0</ele><time>2026-04-24T15:56:16.998Z</time></trkpt><trkpt lat="43.16338150418537" lon="13.189296347169018"><ele>668.0</ele><time>2026-04-24T15:56:38Z</time></trkpt><trkpt lat="43.163436685914185" lon="13.18921998425725"><ele>668.0</ele><time>2026-04-24T15:56:40Z</time></trkpt><trkpt lat="43.16353205509319" lon="13.189149288538047"><ele>668.0</ele><time>2026-04-24T15:56:42Z</time></trkpt><trkpt lat="43.163653678503856" lon="13.18909648879997"><ele>668.0</ele><time>2026-04-24T15:56:44Z</time></trkpt><trkpt lat="43.16375906851545" lon="13.189032936776783"><ele>668.0</ele><time>2026-04-24T15:56:46Z</time></trkpt><trkpt lat="43.16381457878093" lon="13.18898404070946"><ele>670.3333333333333</ele><time>2026-04-24T15:56:47Z</time></trkpt><trkpt lat="43.16387943312389" lon="13.188924871166755"><ele>672.6666666666666</ele><time>2026-04-24T15:56:48Z</time></trkpt><trkpt lat="43.16393392857557" lon="13.18886955494064"><ele>675.0</ele><time>2026-04-24T15:56:49Z</time></trkpt><trkpt lat="43.163992572974905" lon="13.188796714420434"><ele>677.3333333333334</ele><time>2026-04-24T15:56:50Z</time></trkpt><trkpt lat="43.164037352542685" lon="13.188731119294895"><ele>679.6666666666667</ele><time>2026-04-24T15:56:51Z</time></trkpt><trkpt lat="43.16409068817841" lon="13.188655777344133"><ele>682.0</ele><time>2026-04-24T15:56:52Z</time></trkpt><trkpt lat="43.16421219458068" lon="13.188596912444801"><ele>682.7142857142857</ele><time>2026-04-24T15:56:54Z</time></trkpt><trkpt lat="43.16427614869862" lon="13.188562952225702"><ele>683.4285714285714</ele><time>2026-04-24T15:56:55Z</time></trkpt><trkpt lat="43.16434437990257" lon="13.188522496645067"><ele>684.1428571428571</ele><time>2026-04-24T15:56:56Z</time></trkpt><trkpt lat="43.16441434899569" lon="13.188476715984145"><ele>684.8571428571429</ele><time>2026-04-24T15:56:56.999Z</time></trkpt><trkpt lat="43.1644851434413" lon="13.18842528012081"><ele>685.5714285714286</ele><time>2026-04-24T15:56:57.999Z</time></trkpt><trkpt lat="43.16454622346067" lon="13.188386036925445"><ele>686.2857142857143</ele><time>2026-04-24T15:56:58.999Z</time></trkpt><trkpt lat="43.16461142069187" lon="13.188332465146935"><ele>687.0</ele><time>2026-04-24T15:56:59.999Z</time></trkpt><trkpt lat="43.16474257641829" lon="13.188285946615006"><ele>687.0</ele><time>2026-04-24T15:57:01.999Z</time></trkpt><trkpt lat="43.1648568994237" lon="13.188197342863551"><ele>687.0</ele><time>2026-04-24T15:57:03.999Z</time></trkpt><trkpt lat="43.16492303261728" lon="13.188153222560487"><ele>687.0</ele><time>2026-04-24T15:57:04.999Z</time></trkpt><trkpt lat="43.16498707482386" lon="13.188094798952129"><ele>687.0</ele><time>2026-04-24T15:57:05.999Z</time></trkpt><trkpt lat="43.16505014885883" lon="13.188044022473767"><ele>687.0</ele><time>2026-04-24T15:57:06.999Z</time></trkpt><trkpt lat="43.1651133885769" lon="13.18800163692154"><ele>687.0</ele><time>2026-04-24T15:57:07.999Z</time></trkpt><trkpt lat="43.16517004937224" lon="13.187957705942273"><ele>691.3333333333334</ele><time>2026-04-24T15:57:08.999Z</time></trkpt><trkpt lat="43.16523028517181" lon="13.187917393044234"><ele>695.6666666666666</ele><time>2026-04-24T15:57:09.999Z</time></trkpt><trkpt lat="43.16529054956573" lon="13.187864099158329"><ele>700.0</ele><time>2026-04-24T15:57:10.999Z</time></trkpt><trkpt lat="43.165348170991386" lon="13.187819206028937"><ele>704.3333333333333</ele><time>2026-04-24T15:57:11.999Z</time></trkpt><trkpt lat="43.16540178433007" lon="13.187755288884686"><ele>708.6666666666666</ele><time>2026-04-24T15:57:12.999Z</time></trkpt><trkpt lat="43.165501720546125" lon="13.187646367935399"><ele>713.0</ele><time>2026-04-24T15:57:14.999Z</time></trkpt><trkpt lat="43.165550451726766" lon="13.187580602191622"><ele>713.0</ele><time>2026-04-24T15:57:15.999Z</time></trkpt><trkpt lat="43.16564003591869" lon="13.187454581944104"><ele>713.0</ele><time>2026-04-24T15:57:17.999Z</time></trkpt><trkpt lat="43.165697408658666" lon="13.187368092086418"><ele>713.0</ele><time>2026-04-24T15:57:18.999Z</time></trkpt><trkpt lat="43.165758662488315" lon="13.187313883924563"><ele>713.0</ele><time>2026-04-24T15:57:19.999Z</time></trkpt><trkpt lat="43.165845343522236" lon="13.18723148173703"><ele>713.0</ele><time>2026-04-24T15:57:21.999Z</time></trkpt><trkpt lat="43.16582483591819" lon="13.187066114181226"><ele>715.3333333333333</ele><time>2026-04-24T15:57:23.999Z</time></trkpt><trkpt lat="43.165782243761385" lon="13.18698988468629"><ele>717.6666666666666</ele><time>2026-04-24T15:57:24.999Z</time></trkpt><trkpt lat="43.165749326846544" lon="13.186904115307447"><ele>720.0</ele><time>2026-04-24T15:57:25.999Z</time></trkpt><trkpt lat="43.16569285200331" lon="13.186738819781473"><ele>722.3333333333334</ele><time>2026-04-24T15:57:27.999Z</time></trkpt><trkpt lat="43.16566302739631" lon="13.186655009767682"><ele>724.6666666666667</ele><time>2026-04-24T15:57:28.999Z</time></trkpt><trkpt lat="43.16563158445423" lon="13.186577934887907"><ele>727.0</ele><time>2026-04-24T15:57:29.999Z</time></trkpt><trkpt lat="43.165563074186295" lon="13.186432359588775"><ele>729.6666666666667</ele><time>2026-04-24T15:57:31.999Z</time></trkpt><trkpt lat="43.16557523548091" lon="13.186322971317594"><ele>732.3333333333334</ele><time>2026-04-24T15:57:34.999Z</time></trkpt><trkpt lat="43.165625763986945" lon="13.186219242766997"><ele>735.0</ele><time>2026-04-24T15:57:36.999Z</time></trkpt><trkpt lat="43.16570080881266" lon="13.186135728565356"><ele>737.6666666666666</ele><time>2026-04-24T15:57:38.999Z</time></trkpt><trkpt lat="43.165769544360764" lon="13.186101556189845"><ele>740.3333333333333</ele><time>2026-04-24T15:57:40.999Z</time></trkpt><trkpt lat="43.16582654819535" lon="13.186058343826547"><ele>743.0</ele><time>2026-04-24T15:57:42.999Z</time></trkpt><trkpt lat="43.16591714335593" lon="13.186022057685472"><ele>743.25</ele><time>2026-04-24T15:57:45.999Z</time></trkpt><trkpt lat="43.16601208445391" lon="13.185930479284782"><ele>743.5</ele><time>2026-04-24T15:57:47.999Z</time></trkpt><trkpt lat="43.16610670136082" lon="13.185837113975266"><ele>743.75</ele><time>2026-04-24T15:57:49.999Z</time></trkpt><trkpt lat="43.16620212980991" lon="13.18574101782354"><ele>744.0</ele><time>2026-04-24T15:57:51.999Z</time></trkpt><trkpt lat="43.166302971928694" lon="13.185663375030268"><ele>746.1666666666666</ele><time>2026-04-24T15:57:53.999Z</time></trkpt><trkpt lat="43.166358696178456" lon="13.185606399890423"><ele>748.3333333333334</ele><time>2026-04-24T15:57:54.999Z</time></trkpt><trkpt lat="43.1664190128314" lon="13.185550966586119"><ele>750.5</ele><time>2026-04-24T15:57:55.999Z</time></trkpt><trkpt lat="43.166473856742726" lon="13.185499960412704"><ele>752.6666666666667</ele><time>2026-04-24T15:57:56.999Z</time></trkpt><trkpt lat="43.166533413876834" lon="13.185449383765043"><ele>754.8333333333334</ele><time>2026-04-24T15:57:57.999Z</time></trkpt><trkpt lat="43.16663064150206" lon="13.185383772503254"><ele>757.0</ele><time>2026-04-24T15:57:59.999Z</time></trkpt><trkpt lat="43.16673973751204" lon="13.185273591891717"><ele>757.0</ele><time>2026-04-24T15:58:01.999Z</time></trkpt><trkpt lat="43.16679438209318" lon="13.185205248764307"><ele>757.0</ele><time>2026-04-24T15:58:02.999Z</time></trkpt><trkpt lat="43.166882974106144" lon="13.185076280872325"><ele>757.0</ele><time>2026-04-24T15:58:04.999Z</time></trkpt><trkpt lat="43.16692909883514" lon="13.18500192631002"><ele>757.0</ele><time>2026-04-24T15:58:05.999Z</time></trkpt><trkpt lat="43.16696070400539" lon="13.184924144920904"><ele>757.0</ele><time>2026-04-24T15:58:06.999Z</time></trkpt><trkpt lat="43.16701101594624" lon="13.184769191473672"><ele>758.2857142857143</ele><time>2026-04-24T15:58:08.999Z</time></trkpt><trkpt lat="43.167034254515265" lon="13.184675282777224"><ele>759.5714285714286</ele><time>2026-04-24T15:58:09.999Z</time></trkpt><trkpt lat="43.16705606676283" lon="13.18456849473957"><ele>760.8571428571429</ele><time>2026-04-24T15:58:10.999Z</time></trkpt><trkpt lat="43.16707351346361" lon="13.184470366057438"><ele>762.1428571428571</ele><time>2026-04-24T15:58:11.999Z</time></trkpt><trkpt lat="43.167091899415595" lon="13.184367455560361"><ele>763.4285714285713</ele><time>2026-04-24T15:58:12.999Z</time></trkpt><trkpt lat="43.16709950206671" lon="13.184271946282216"><ele>764.7142857142857</ele><time>2026-04-24T15:58:13.999Z</time></trkpt><trkpt lat="43.16710936834283" lon="13.184172930242399"><ele>766.0</ele><time>2026-04-24T15:58:14.999Z</time></trkpt><trkpt lat="43.16711589336533" lon="13.184068345303801"><ele>767.0</ele><time>2026-04-24T15:58:15.999Z</time></trkpt><trkpt lat="43.167126753541176" lon="13.1839758656398"><ele>768.0</ele><time>2026-04-24T15:58:16.999Z</time></trkpt><trkpt lat="43.167137156161935" lon="13.183885046462185"><ele>769.0</ele><time>2026-04-24T15:58:17.999Z</time></trkpt><trkpt lat="43.167136084586595" lon="13.183792883474453"><ele>770.0</ele><time>2026-04-24T15:58:18.999Z</time></trkpt><trkpt lat="43.16711771070741" lon="13.183702544012544"><ele>771.0</ele><time>2026-04-24T15:58:19.999Z</time></trkpt><trkpt lat="43.16706895679252" lon="13.183632899906835"><ele>772.0</ele><time>2026-04-24T15:58:20.999Z</time></trkpt><trkpt lat="43.16699824275058" lon="13.183609514926706"><ele>773.0</ele><time>2026-04-24T15:58:21.999Z</time></trkpt><trkpt lat="43.16692315292796" lon="13.183605496586246"><ele>773.0</ele><time>2026-04-24T15:58:22.998Z</time></trkpt><trkpt lat="43.1668556104508" lon="13.183589970755142"><ele>773.0</ele><time>2026-04-24T15:58:23.998Z</time></trkpt><trkpt lat="43.166788938059" lon="13.183537837118234"><ele>773.0</ele><time>2026-04-24T15:58:24.998Z</time></trkpt><trkpt lat="43.16673556906578" lon="13.183490034920506"><ele>773.0</ele><time>2026-04-24T15:58:25.998Z</time></trkpt><trkpt lat="43.16666320119119" lon="13.183478338686369"><ele>773.0</ele><time>2026-04-24T15:58:26.998Z</time></trkpt><trkpt lat="43.16659237176077" lon="13.183486126336346"><ele>773.0</ele><time>2026-04-24T15:58:27.998Z</time></trkpt><trkpt lat="43.166529125233964" lon="13.1834945270848"><ele>773.0</ele><time>2026-04-24T15:58:28.998Z</time></trkpt><trkpt lat="43.16645552244501" lon="13.183506448788615"><ele>773.3333333333334</ele><time>2026-04-24T15:58:29.998Z</time></trkpt><trkpt lat="43.16638186584369" lon="13.183502773306092"><ele>773.6666666666667</ele><time>2026-04-24T15:58:30.998Z</time></trkpt><trkpt lat="43.1663037541239" lon="13.183501812782174"><ele>774.0</ele><time>2026-04-24T15:58:31.998Z</time></trkpt><trkpt lat="43.16623296094172" lon="13.183505906719331"><ele>774.3333333333333</ele><time>2026-04-24T15:58:32.998Z</time></trkpt><trkpt lat="43.16615879011222" lon="13.183520453707143"><ele>774.6666666666666</ele><time>2026-04-24T15:58:34Z</time></trkpt><trkpt lat="43.166034923480204" lon="13.183510321034722"><ele>775.0</ele><time>2026-04-24T15:58:36Z</time></trkpt><trkpt lat="43.165908086421275" lon="13.1835051151639"><ele>774.9999999999999</ele><time>2026-04-24T15:58:38Z</time></trkpt><trkpt lat="43.16583470360399" lon="13.183479971936329"><ele>775.0</ele><time>2026-04-24T15:58:39Z</time></trkpt><trkpt lat="43.16577058078627" lon="13.183452608062659"><ele>775.0</ele><time>2026-04-24T15:58:40Z</time></trkpt><trkpt lat="43.16570416382489" lon="13.183429225070439"><ele>775.0</ele><time>2026-04-24T15:58:41Z</time></trkpt><trkpt lat="43.165630089691064" lon="13.183390472151723"><ele>775.0</ele><time>2026-04-24T15:58:42Z</time></trkpt><trkpt lat="43.16556355853295" lon="13.183351955257818"><ele>774.9999999999999</ele><time>2026-04-24T15:58:43Z</time></trkpt><trkpt lat="43.16549328258114" lon="13.18332218049196"><ele>775.0</ele><time>2026-04-24T15:58:44Z</time></trkpt><trkpt lat="43.16542954061098" lon="13.183299843625841"><ele>774.4999999999999</ele><time>2026-04-24T15:58:45Z</time></trkpt><trkpt lat="43.165349855443644" lon="13.183269628313047"><ele>774.0</ele><time>2026-04-24T15:58:46Z</time></trkpt><trkpt lat="43.16527132555838" lon="13.183231508403882"><ele>773.5</ele><time>2026-04-24T15:58:47Z</time></trkpt><trkpt lat="43.16519335406896" lon="13.183179167121386"><ele>773.0</ele><time>2026-04-24T15:58:48Z</time></trkpt><trkpt lat="43.16512590436683" lon="13.18313317936499"><ele>772.4999999999999</ele><time>2026-04-24T15:58:49Z</time></trkpt><trkpt lat="43.165058049692746" lon="13.183100243285294"><ele>772.0</ele><time>2026-04-24T15:58:50Z</time></trkpt><trkpt lat="43.16497843243806" lon="13.183066489313427"><ele>772.8333333333333</ele><time>2026-04-24T15:58:51Z</time></trkpt><trkpt lat="43.164904838231266" lon="13.183036589175904"><ele>773.6666666666666</ele><time>2026-04-24T15:58:52Z</time></trkpt><trkpt lat="43.16482502297795" lon="13.182998019980563"><ele>774.5</ele><time>2026-04-24T15:58:53Z</time></trkpt><trkpt lat="43.16475335847753" lon="13.18295795164714"><ele>775.3333333333333</ele><time>2026-04-24T15:58:54Z</time></trkpt><trkpt lat="43.16468620376796" lon="13.182905389346676"><ele>776.1666666666666</ele><time>2026-04-24T15:58:55Z</time></trkpt><trkpt lat="43.16461085927197" lon="13.182835920719043"><ele>777.0</ele><time>2026-04-24T15:58:56Z</time></trkpt><trkpt lat="43.164535815242054" lon="13.182769010574361"><ele>777.0</ele><time>2026-04-24T15:58:57Z</time></trkpt><trkpt lat="43.16446786801232" lon="13.182695690915457"><ele>777.0</ele><time>2026-04-24T15:58:58Z</time></trkpt><trkpt lat="43.1644134064979" lon="13.182608095936997"><ele>777.0</ele><time>2026-04-24T15:58:59Z</time></trkpt><trkpt lat="43.16438130921504" lon="13.182513575581659"><ele>777.0</ele><time>2026-04-24T15:59:00Z</time></trkpt><trkpt lat="43.164339178665486" lon="13.182404571987266"><ele>777.0</ele><time>2026-04-24T15:59:01Z</time></trkpt><trkpt lat="43.16429712665793" lon="13.182328609649886"><ele>777.0</ele><time>2026-04-24T15:59:02Z</time></trkpt><trkpt lat="43.164242247962875" lon="13.182249066183726"><ele>778.6</ele><time>2026-04-24T15:59:03Z</time></trkpt><trkpt lat="43.164192250941944" lon="13.182166765801819"><ele>780.2</ele><time>2026-04-24T15:59:04Z</time></trkpt><trkpt lat="43.16414833234175" lon="13.182073654517177"><ele>781.8</ele><time>2026-04-24T15:59:05Z</time></trkpt><trkpt lat="43.164112181913076" lon="13.181980623674157"><ele>783.4</ele><time>2026-04-24T15:59:06Z</time></trkpt><trkpt lat="43.16407190996114" lon="13.181793647565925"><ele>785.0</ele><time>2026-04-24T15:59:07.999Z</time></trkpt><trkpt lat="43.16405319701913" lon="13.181698964882075"><ele>785.0000000000001</ele><time>2026-04-24T15:59:08.999Z</time></trkpt><trkpt lat="43.16403820279361" lon="13.181587987675842"><ele>785.0</ele><time>2026-04-24T15:59:09.999Z</time></trkpt><trkpt lat="43.16402708981913" lon="13.181478072898672"><ele>785.0</ele><time>2026-04-24T15:59:10.999Z</time></trkpt><trkpt lat="43.164020543711224" lon="13.181371899898107"><ele>785.0</ele><time>2026-04-24T15:59:11.999Z</time></trkpt><trkpt lat="43.16400184558395" lon="13.181281232269988"><ele>785.0000000000001</ele><time>2026-04-24T15:59:12.999Z</time></trkpt><trkpt lat="43.16398429096922" lon="13.18119400516591"><ele>785.0</ele><time>2026-04-24T15:59:13.999Z</time></trkpt><trkpt lat="43.16395328704016" lon="13.181037139611517"><ele>786.6666666666667</ele><time>2026-04-24T15:59:15.999Z</time></trkpt><trkpt lat="43.16395322291422" lon="13.180936035331587"><ele>788.3333333333334</ele><time>2026-04-24T15:59:16.999Z</time></trkpt><trkpt lat="43.16394490491527" lon="13.18081681917837"><ele>790.0</ele><time>2026-04-24T15:59:17.999Z</time></trkpt><trkpt lat="43.16393931781287" lon="13.180701106037018"><ele>791.6666666666667</ele><time>2026-04-24T15:59:18.999Z</time></trkpt><trkpt lat="43.16394171433468" lon="13.180587663238924"><ele>793.3333333333334</ele><time>2026-04-24T15:59:19.999Z</time></trkpt><trkpt lat="43.16394256807911" lon="13.180499053806745"><ele>795.0</ele><time>2026-04-24T15:59:20.999Z</time></trkpt><trkpt lat="43.163933430889394" lon="13.18035147510331"><ele>795.0</ele><time>2026-04-24T15:59:22.999Z</time></trkpt><trkpt lat="43.1638666682173" lon="13.180333410007616"><ele>795.0</ele><time>2026-04-24T15:59:25.999Z</time></trkpt><trkpt lat="43.16381086626269" lon="13.180443844419045"><ele>795.0</ele><time>2026-04-24T15:59:27.999Z</time></trkpt><trkpt lat="43.16377323784602" lon="13.180561262228382"><ele>795.0</ele><time>2026-04-24T15:59:29.999Z</time></trkpt><trkpt lat="43.16370345055543" lon="13.180697290462824"><ele>795.0</ele><time>2026-04-24T15:59:31.999Z</time></trkpt><trkpt lat="43.16366454679614" lon="13.180773954462431"><ele>795.0</ele><time>2026-04-24T15:59:32.999Z</time></trkpt><trkpt lat="43.163623547034504" lon="13.1808464773963"><ele>795.0</ele><time>2026-04-24T15:59:33.999Z</time></trkpt><trkpt lat="43.163574377354806" lon="13.180928851049142"><ele>795.0</ele><time>2026-04-24T15:59:34.999Z</time></trkpt><trkpt lat="43.16350948548905" lon="13.181059950528"><ele>795.0</ele><time>2026-04-24T15:59:36.999Z</time></trkpt><trkpt lat="43.16347480108978" lon="13.181137481591026"><ele>795.0</ele><time>2026-04-24T15:59:37.999Z</time></trkpt><trkpt lat="43.16342966024603" lon="13.181203942322984"><ele>795.0</ele><time>2026-04-24T15:59:38.999Z</time></trkpt><trkpt lat="43.16337697068202" lon="13.181270245433229"><ele>795.0</ele><time>2026-04-24T15:59:39.999Z</time></trkpt><trkpt lat="43.16332127272609" lon="13.18132964723043"><ele>795.0</ele><time>2026-04-24T15:59:40.999Z</time></trkpt><trkpt lat="43.163270028881755" lon="13.18138811553673"><ele>795.0</ele><time>2026-04-24T15:59:41.999Z</time></trkpt><trkpt lat="43.163215059065315" lon="13.181533070093211"><ele>795.0</ele><time>2026-04-24T15:59:43.999Z</time></trkpt><trkpt lat="43.16317211873057" lon="13.181638035895276"><ele>795.0</ele><time>2026-04-24T15:59:44.999Z</time></trkpt><trkpt lat="43.16310684649795" lon="13.181772517787756"><ele>795.0</ele><time>2026-04-24T15:59:46.999Z</time></trkpt><trkpt lat="43.16306942468935" lon="13.181865033358305"><ele>796.0</ele><time>2026-04-24T15:59:47.999Z</time></trkpt><trkpt lat="43.16305679743803" lon="13.181952884735802"><ele>797.0</ele><time>2026-04-24T15:59:48.999Z</time></trkpt><trkpt lat="43.163024075350044" lon="13.182117445556559"><ele>798.0</ele><time>2026-04-24T15:59:50.999Z</time></trkpt><trkpt lat="43.16300029247152" lon="13.182197688678043"><ele>799.0</ele><time>2026-04-24T15:59:51.999Z</time></trkpt><trkpt lat="43.162932123050865" lon="13.182268185662311"><ele>800.0</ele><time>2026-04-24T15:59:53.999Z</time></trkpt><trkpt lat="43.16284468893874" lon="13.18225511310399"><ele>801.0</ele><time>2026-04-24T15:59:55.999Z</time></trkpt><trkpt lat="43.162728950112395" lon="13.182185337594648"><ele>801.0</ele><time>2026-04-24T15:59:57.999Z</time></trkpt><trkpt lat="43.162608721834154" lon="13.18212749551529"><ele>801.0</ele><time>2026-04-24T15:59:59.999Z</time></trkpt><trkpt lat="43.162549748671665" lon="13.182094787222466"><ele>801.0</ele><time>2026-04-24T16:00:00.999Z</time></trkpt><trkpt lat="43.162433566473936" lon="13.182026466220886"><ele>801.0</ele><time>2026-04-24T16:00:02.999Z</time></trkpt><trkpt lat="43.162368298367625" lon="13.181988431587836"><ele>801.0</ele><time>2026-04-24T16:00:03.999Z</time></trkpt><trkpt lat="43.162302178809355" lon="13.181954826173998"><ele>800.6666666666666</ele><time>2026-04-24T16:00:04.999Z</time></trkpt><trkpt lat="43.16224136071194" lon="13.181918525809603"><ele>800.3333333333333</ele><time>2026-04-24T16:00:05.999Z</time></trkpt><trkpt lat="43.16212042721868" lon="13.181932211648771"><ele>800.0</ele><time>2026-04-24T16:00:07.999Z</time></trkpt><trkpt lat="43.162055790529514" lon="13.181948137752336"><ele>799.6666666666666</ele><time>2026-04-24T16:00:08.999Z</time></trkpt><trkpt lat="43.161935967463236" lon="13.181966865931603"><ele>799.3333333333333</ele><time>2026-04-24T16:00:10.999Z</time></trkpt><trkpt lat="43.16187468184128" lon="13.181999406211474"><ele>799.0</ele><time>2026-04-24T16:00:11.999Z</time></trkpt><trkpt lat="43.16181207995509" lon="13.182027833290002"><ele>798.9999999999999</ele><time>2026-04-24T16:00:12.999Z</time></trkpt><trkpt lat="43.16174256546514" lon="13.182051219297001"><ele>799.0</ele><time>2026-04-24T16:00:13.999Z</time></trkpt><trkpt lat="43.16161835781393" lon="13.18204190930593"><ele>799.0</ele><time>2026-04-24T16:00:15.999Z</time></trkpt><trkpt lat="43.16154556000287" lon="13.182017799564958"><ele>799.0</ele><time>2026-04-24T16:00:16.999Z</time></trkpt><trkpt lat="43.16146947970413" lon="13.182012127352083"><ele>798.9999999999999</ele><time>2026-04-24T16:00:17.999Z</time></trkpt><trkpt lat="43.16139110811886" lon="13.182007453721157"><ele>799.0</ele><time>2026-04-24T16:00:18.999Z</time></trkpt><trkpt lat="43.1613161183317" lon="13.181995618498975"><ele>794.9999999999999</ele><time>2026-04-24T16:00:19.999Z</time></trkpt><trkpt lat="43.1612530301696" lon="13.181978575245614"><ele>791.0</ele><time>2026-04-24T16:00:20.999Z</time></trkpt><trkpt lat="43.16113885861601" lon="13.181929742143922"><ele>787.0</ele><time>2026-04-24T16:00:22.999Z</time></trkpt><trkpt lat="43.161051775292705" lon="13.181833557444255"><ele>783.0</ele><time>2026-04-24T16:00:24.999Z</time></trkpt><trkpt lat="43.160997593317155" lon="13.181775749451676"><ele>778.9999999999999</ele><time>2026-04-24T16:00:25.999Z</time></trkpt><trkpt lat="43.16094865626727" lon="13.181710776528266"><ele>775.0</ele><time>2026-04-24T16:00:26.999Z</time></trkpt><trkpt lat="43.16089080700339" lon="13.181640716062923"><ele>774.9999999999999</ele><time>2026-04-24T16:00:27.999Z</time></trkpt><trkpt lat="43.16084446913242" lon="13.181564152827809"><ele>775.0</ele><time>2026-04-24T16:00:28.999Z</time></trkpt><trkpt lat="43.16080157468339" lon="13.181483154339771"><ele>775.0</ele><time>2026-04-24T16:00:29.999Z</time></trkpt><trkpt lat="43.16076091759725" lon="13.181402929378937"><ele>775.0</ele><time>2026-04-24T16:00:30.999Z</time></trkpt><trkpt lat="43.16072620911981" lon="13.181316986493252"><ele>774.9999999999999</ele><time>2026-04-24T16:00:31.999Z</time></trkpt><trkpt lat="43.160692047513336" lon="13.181229851710786"><ele>775.0</ele><time>2026-04-24T16:00:32.998Z</time></trkpt><trkpt lat="43.16062463482933" lon="13.18108242790661"><ele>774.6</ele><time>2026-04-24T16:00:34.998Z</time></trkpt><trkpt lat="43.16054082905893" lon="13.180946196938313"><ele>774.2</ele><time>2026-04-24T16:00:36.998Z</time></trkpt><trkpt lat="43.16050154857308" lon="13.180861989649818"><ele>773.8</ele><time>2026-04-24T16:00:37.998Z</time></trkpt><trkpt lat="43.16043371783586" lon="13.18071621861212"><ele>773.4</ele><time>2026-04-24T16:00:40Z</time></trkpt><trkpt lat="43.16038657336831" lon="13.180643760722731"><ele>773.0</ele><time>2026-04-24T16:00:41Z</time></trkpt><trkpt lat="43.160334972604" lon="13.180593652095459"><ele>773.0</ele><time>2026-04-24T16:00:42Z</time></trkpt><trkpt lat="43.160244534782585" lon="13.180545802749913"><ele>773.0</ele><time>2026-04-24T16:00:44Z</time></trkpt><trkpt lat="43.1601652897923" lon="13.180581107270646"><ele>773.0</ele><time>2026-04-24T16:00:52Z</time></trkpt><trkpt lat="43.160069900050516" lon="13.180597287078985"><ele>773.0</ele><time>2026-04-24T16:00:54Z</time></trkpt><trkpt lat="43.15996909928578" lon="13.180659504651882"><ele>773.0</ele><time>2026-04-24T16:00:56Z</time></trkpt><trkpt lat="43.15986960351946" lon="13.180760881507865"><ele>774.8571428571429</ele><time>2026-04-24T16:00:58Z</time></trkpt><trkpt lat="43.15981645855679" lon="13.180811972854723"><ele>776.7142857142857</ele><time>2026-04-24T16:00:59Z</time></trkpt><trkpt lat="43.159764154837696" lon="13.180867631913353"><ele>778.5714285714287</ele><time>2026-04-24T16:01:00Z</time></trkpt><trkpt lat="43.15970486192547" lon="13.180923327915275"><ele>780.4285714285714</ele><time>2026-04-24T16:01:01Z</time></trkpt><trkpt lat="43.15964674620868" lon="13.180976307750315"><ele>782.2857142857143</ele><time>2026-04-24T16:01:02Z</time></trkpt><trkpt lat="43.15958739119772" lon="13.181022619559931"><ele>784.1428571428572</ele><time>2026-04-24T16:01:03Z</time></trkpt><trkpt lat="43.15952124516568" lon="13.181054612530156"><ele>786.0</ele><time>2026-04-24T16:01:04Z</time></trkpt><trkpt lat="43.159449647409176" lon="13.181060870424377"><ele>786.0</ele><time>2026-04-24T16:01:05Z</time></trkpt><trkpt lat="43.159378258264965" lon="13.181049944409072"><ele>786.0</ele><time>2026-04-24T16:01:06Z</time></trkpt><trkpt lat="43.15930369051441" lon="13.181051221241916"><ele>786.0</ele><time>2026-04-24T16:01:07Z</time></trkpt><trkpt lat="43.15918474065933" lon="13.181094462246145"><ele>786.0</ele><time>2026-04-24T16:01:09Z</time></trkpt><trkpt lat="43.15913104536539" lon="13.181146521974963"><ele>786.0</ele><time>2026-04-24T16:01:10Z</time></trkpt><trkpt lat="43.15907711371718" lon="13.18119835523366"><ele>786.0</ele><time>2026-04-24T16:01:11Z</time></trkpt><trkpt lat="43.15902481632045" lon="13.181269667492517"><ele>786.1428571428572</ele><time>2026-04-24T16:01:12Z</time></trkpt><trkpt lat="43.15897800076372" lon="13.181330568128605"><ele>786.2857142857143</ele><time>2026-04-24T16:01:13Z</time></trkpt><trkpt lat="43.158943099508335" lon="13.181413960862312"><ele>786.4285714285714</ele><time>2026-04-24T16:01:14Z</time></trkpt><trkpt lat="43.15890969660456" lon="13.181509463317655"><ele>786.5714285714287</ele><time>2026-04-24T16:01:15Z</time></trkpt><trkpt lat="43.15887195801469" lon="13.181601465648965"><ele>786.7142857142857</ele><time>2026-04-24T16:01:16Z</time></trkpt><trkpt lat="43.15882853952047" lon="13.181692767535047"><ele>786.8571428571429</ele><time>2026-04-24T16:01:17Z</time></trkpt><trkpt lat="43.158787850103174" lon="13.181774193318622"><ele>787.0</ele><time>2026-04-24T16:01:18Z</time></trkpt><trkpt lat="43.15873259587641" lon="13.181895114984144"><ele>786.9999999999999</ele><time>2026-04-24T16:01:18.999Z</time></trkpt><trkpt lat="43.158670045628554" lon="13.182022113329099"><ele>787.0</ele><time>2026-04-24T16:01:19.999Z</time></trkpt><trkpt lat="43.158623280949286" lon="13.18213058914324"><ele>787.0</ele><time>2026-04-24T16:01:20.999Z</time></trkpt><trkpt lat="43.15857880648478" lon="13.18222590872553"><ele>787.0</ele><time>2026-04-24T16:01:21.999Z</time></trkpt><trkpt lat="43.15852927079059" lon="13.182318616902554"><ele>786.9999999999999</ele><time>2026-04-24T16:01:22.999Z</time></trkpt><trkpt lat="43.158489643493375" lon="13.182406336633651"><ele>787.0</ele><time>2026-04-24T16:01:23.999Z</time></trkpt><trkpt lat="43.158449826599444" lon="13.182485499953138"><ele>785.1666666666666</ele><time>2026-04-24T16:01:24.999Z</time></trkpt><trkpt lat="43.158400193571836" lon="13.182573977810435"><ele>783.3333333333333</ele><time>2026-04-24T16:01:25.999Z</time></trkpt><trkpt lat="43.15833848729401" lon="13.18266352481433"><ele>781.5</ele><time>2026-04-24T16:01:26.999Z</time></trkpt><trkpt lat="43.15828204652738" lon="13.182744221929232"><ele>779.6666666666667</ele><time>2026-04-24T16:01:27.999Z</time></trkpt><trkpt lat="43.15822995632163" lon="13.182815958389563"><ele>777.8333333333334</ele><time>2026-04-24T16:01:28.999Z</time></trkpt><trkpt lat="43.15817258743555" lon="13.182887454712514"><ele>776.0</ele><time>2026-04-24T16:01:29.999Z</time></trkpt><trkpt lat="43.15811909562592" lon="13.182955060199154"><ele>776.0</ele><time>2026-04-24T16:01:30.999Z</time></trkpt><trkpt lat="43.15807041741096" lon="13.183014185775326"><ele>776.0</ele><time>2026-04-24T16:01:31.999Z</time></trkpt><trkpt lat="43.15800786503824" lon="13.183073896518444"><ele>776.0</ele><time>2026-04-24T16:01:32.999Z</time></trkpt><trkpt lat="43.15795107837002" lon="13.183130040547546"><ele>776.0</ele><time>2026-04-24T16:01:33.999Z</time></trkpt><trkpt lat="43.15788779455508" lon="13.183198414597532"><ele>776.0</ele><time>2026-04-24T16:01:34.999Z</time></trkpt><trkpt lat="43.15781922650633" lon="13.18326210347914"><ele>776.0</ele><time>2026-04-24T16:01:35.999Z</time></trkpt><trkpt lat="43.1577545999045" lon="13.18331235567947"><ele>776.0</ele><time>2026-04-24T16:01:36.999Z</time></trkpt><trkpt lat="43.157683726384626" lon="13.183359455468569"><ele>773.3333333333334</ele><time>2026-04-24T16:01:37.999Z</time></trkpt><trkpt lat="43.15761672933501" lon="13.183407498070448"><ele>770.6666666666667</ele><time>2026-04-24T16:01:38.999Z</time></trkpt><trkpt lat="43.15753247025687" lon="13.183455706941764"><ele>768.0</ele><time>2026-04-24T16:01:39.999Z</time></trkpt><trkpt lat="43.157450584132654" lon="13.183506746755322"><ele>765.3333333333334</ele><time>2026-04-24T16:01:40.999Z</time></trkpt><trkpt lat="43.1573734879569" lon="13.183564794103217"><ele>762.6666666666667</ele><time>2026-04-24T16:01:41.999Z</time></trkpt><trkpt lat="43.15729590495674" lon="13.183615189388613"><ele>760.0</ele><time>2026-04-24T16:01:42.999Z</time></trkpt><trkpt lat="43.15721960310255" lon="13.183666835859565"><ele>758.4</ele><time>2026-04-24T16:01:43.999Z</time></trkpt><trkpt lat="43.15713419409058" lon="13.183725890927152"><ele>756.8</ele><time>2026-04-24T16:01:44.999Z</time></trkpt><trkpt lat="43.157048933039555" lon="13.183772405404037"><ele>755.2</ele><time>2026-04-24T16:01:45.999Z</time></trkpt><trkpt lat="43.15696468542439" lon="13.183818421754577"><ele>753.6</ele><time>2026-04-24T16:01:46.999Z</time></trkpt><trkpt lat="43.1568824248801" lon="13.183857262124665"><ele>752.0</ele><time>2026-04-24T16:01:47.999Z</time></trkpt><trkpt lat="43.156763580921556" lon="13.18386792055419"><ele>752.0</ele><time>2026-04-24T16:01:49.999Z</time></trkpt><trkpt lat="43.156664729998745" lon="13.18394719524697"><ele>752.0</ele><time>2026-04-24T16:01:51.999Z</time></trkpt><trkpt lat="43.15656445764206" lon="13.184025610776086"><ele>752.0</ele><time>2026-04-24T16:01:53.999Z</time></trkpt><trkpt lat="43.156435511900725" lon="13.183993292360851"><ele>752.0</ele><time>2026-04-24T16:01:55.999Z</time></trkpt><trkpt lat="43.15637267522432" lon="13.183985870817864"><ele>752.0</ele><time>2026-04-24T16:01:56.999Z</time></trkpt><trkpt lat="43.15625547063537" lon="13.184051281530458"><ele>747.6666666666666</ele><time>2026-04-24T16:01:58.999Z</time></trkpt><trkpt lat="43.15619476849489" lon="13.184122065495666"><ele>743.3333333333333</ele><time>2026-04-24T16:01:59.999Z</time></trkpt><trkpt lat="43.156143274405686" lon="13.184207718215948"><ele>739.0</ele><time>2026-04-24T16:02:00.999Z</time></trkpt><trkpt lat="43.15610598980018" lon="13.184314198155885"><ele>734.6666666666666</ele><time>2026-04-24T16:02:01.999Z</time></trkpt><trkpt lat="43.15607284224896" lon="13.184432090268563"><ele>730.3333333333334</ele><time>2026-04-24T16:02:02.999Z</time></trkpt><trkpt lat="43.15604815162409" lon="13.184529877272352"><ele>726.0</ele><time>2026-04-24T16:02:03.999Z</time></trkpt><trkpt lat="43.156024568576264" lon="13.184624310602409"><ele>726.0</ele><time>2026-04-24T16:02:04.999Z</time></trkpt><trkpt lat="43.15599427249709" lon="13.184701760109382"><ele>726.0</ele><time>2026-04-24T16:02:05.999Z</time></trkpt><trkpt lat="43.15590443888337" lon="13.184817698335731"><ele>726.0</ele><time>2026-04-24T16:02:07.999Z</time></trkpt><trkpt lat="43.155814571615934" lon="13.184946714728921"><ele>726.0</ele><time>2026-04-24T16:02:09.999Z</time></trkpt><trkpt lat="43.15576311099177" lon="13.184997158857133"><ele>726.0</ele><time>2026-04-24T16:02:10.999Z</time></trkpt><trkpt lat="43.15569968254867" lon="13.18503655967098"><ele>723.0</ele><time>2026-04-24T16:02:13.999Z</time></trkpt><trkpt lat="43.155650233930444" lon="13.184940799379294"><ele>720.0</ele><time>2026-04-24T16:02:23.999Z</time></trkpt><trkpt lat="43.155572238930816" lon="13.184887788016287"><ele>717.0</ele><time>2026-04-24T16:02:25.999Z</time></trkpt><trkpt lat="43.15550352180013" lon="13.184908349127463"><ele>714.0</ele><time>2026-04-24T16:02:26.999Z</time></trkpt><trkpt lat="43.155438423778726" lon="13.184940533589714"><ele>711.0</ele><time>2026-04-24T16:02:27.999Z</time></trkpt><trkpt lat="43.15536953785625" lon="13.184975033443797"><ele>708.0</ele><time>2026-04-24T16:02:28.999Z</time></trkpt><trkpt lat="43.155300092640346" lon="13.185010771238497"><ele>708.0</ele><time>2026-04-24T16:02:29.999Z</time></trkpt><trkpt lat="43.155230559720245" lon="13.185047968330855"><ele>708.0</ele><time>2026-04-24T16:02:30.999Z</time></trkpt><trkpt lat="43.15517090933863" lon="13.185092053788752"><ele>708.0</ele><time>2026-04-24T16:02:31.999Z</time></trkpt><trkpt lat="43.15511423429939" lon="13.185152889108405"><ele>708.0</ele><time>2026-04-24T16:02:32.999Z</time></trkpt><trkpt lat="43.15505578828382" lon="13.18522146941503"><ele>708.0</ele><time>2026-04-24T16:02:33.999Z</time></trkpt><trkpt lat="43.154990502295135" lon="13.185268978622181"><ele>708.0</ele><time>2026-04-24T16:02:34.999Z</time></trkpt><trkpt lat="43.15491816186692" lon="13.18530457708771"><ele>708.0</ele><time>2026-04-24T16:02:35.999Z</time></trkpt><trkpt lat="43.154843631179034" lon="13.185338477397972"><ele>707.4285714285714</ele><time>2026-04-24T16:02:36.999Z</time></trkpt><trkpt lat="43.154776162792025" lon="13.185348476091251"><ele>706.8571428571428</ele><time>2026-04-24T16:02:37.999Z</time></trkpt><trkpt lat="43.15470423663909" lon="13.18535637725934"><ele>706.2857142857142</ele><time>2026-04-24T16:02:38.999Z</time></trkpt><trkpt lat="43.15463431991455" lon="13.185367309945827"><ele>705.7142857142858</ele><time>2026-04-24T16:02:39.999Z</time></trkpt><trkpt lat="43.154570216679666" lon="13.18537665363072"><ele>705.1428571428571</ele><time>2026-04-24T16:02:40.999Z</time></trkpt><trkpt lat="43.154500496224834" lon="13.18539442047038"><ele>704.5714285714286</ele><time>2026-04-24T16:02:41.999Z</time></trkpt><trkpt lat="43.15443231663405" lon="13.185404149014474"><ele>704.0</ele><time>2026-04-24T16:02:42.999Z</time></trkpt><trkpt lat="43.154366874213785" lon="13.18541152317018"><ele>704.0</ele><time>2026-04-24T16:02:43.998Z</time></trkpt><trkpt lat="43.15429515109347" lon="13.185413999793008"><ele>704.0</ele><time>2026-04-24T16:02:44.998Z</time></trkpt><trkpt lat="43.15422420337319" lon="13.185411063216376"><ele>704.0</ele><time>2026-04-24T16:02:46Z</time></trkpt><trkpt lat="43.154092330254066" lon="13.185401277721438"><ele>704.0</ele><time>2026-04-24T16:02:48Z</time></trkpt><trkpt lat="43.153957074839425" lon="13.185417388929634"><ele>704.0</ele><time>2026-04-24T16:02:50Z</time></trkpt><trkpt lat="43.15385164652674" lon="13.185458922063805"><ele>703.5</ele><time>2026-04-24T16:02:52Z</time></trkpt><trkpt lat="43.15377735812204" lon="13.185497921767283"><ele>703.0</ele><time>2026-04-24T16:02:53Z</time></trkpt><trkpt lat="43.15369435349963" lon="13.185496801331139"><ele>702.5</ele><time>2026-04-24T16:02:55Z</time></trkpt><trkpt lat="43.1536479298034" lon="13.185632453377982"><ele>702.0</ele><time>2026-04-24T16:02:58Z</time></trkpt><trkpt lat="43.153631046935985" lon="13.185723217541515"><ele>701.5</ele><time>2026-04-24T16:02:59Z</time></trkpt><trkpt lat="43.15360629347974" lon="13.185816132412693"><ele>701.0</ele><time>2026-04-24T16:03:00Z</time></trkpt><trkpt lat="43.15353614762409" lon="13.185965747411755"><ele>698.1666666666666</ele><time>2026-04-24T16:03:02Z</time></trkpt><trkpt lat="43.153461222769835" lon="13.186023251002771"><ele>695.3333333333333</ele><time>2026-04-24T16:03:03Z</time></trkpt><trkpt lat="43.153393419137544" lon="13.186082942032847"><ele>692.5</ele><time>2026-04-24T16:03:04Z</time></trkpt><trkpt lat="43.15332683050554" lon="13.18616171369561"><ele>689.6666666666666</ele><time>2026-04-24T16:03:05Z</time></trkpt><trkpt lat="43.153258920351206" lon="13.186242037819813"><ele>686.8333333333334</ele><time>2026-04-24T16:03:06Z</time></trkpt><trkpt lat="43.15318841501603" lon="13.186302629973385"><ele>684.0</ele><time>2026-04-24T16:03:07Z</time></trkpt><trkpt lat="43.15313722385574" lon="13.186364909479007"><ele>683.6666666666666</ele><time>2026-04-24T16:03:08Z</time></trkpt><trkpt lat="43.15309039935617" lon="13.18645155055105"><ele>683.3333333333334</ele><time>2026-04-24T16:03:09Z</time></trkpt><trkpt lat="43.15307228629553" lon="13.186557903185857"><ele>683.0</ele><time>2026-04-24T16:03:10Z</time></trkpt><trkpt lat="43.153063737073545" lon="13.186644010028159"><ele>682.6666666666667</ele><time>2026-04-24T16:03:11Z</time></trkpt><trkpt lat="43.153042385379365" lon="13.1867429265708"><ele>682.3333333333334</ele><time>2026-04-24T16:03:12Z</time></trkpt><trkpt lat="43.152981749112854" lon="13.18682164464792"><ele>682.0</ele><time>2026-04-24T16:03:13Z</time></trkpt><trkpt lat="43.152913645723146" lon="13.186903511420633"><ele>678.8333333333334</ele><time>2026-04-24T16:03:14Z</time></trkpt><trkpt lat="43.15284790631762" lon="13.186986750288359"><ele>675.6666666666667</ele><time>2026-04-24T16:03:15Z</time></trkpt><trkpt lat="43.152786429127666" lon="13.187075150380139"><ele>672.5</ele><time>2026-04-24T16:03:16Z</time></trkpt><trkpt lat="43.15272040921217" lon="13.187161950108463"><ele>669.3333333333334</ele><time>2026-04-24T16:03:17Z</time></trkpt><trkpt lat="43.152663512728694" lon="13.187240870216861"><ele>666.1666666666666</ele><time>2026-04-24T16:03:18Z</time></trkpt><trkpt lat="43.152612032009614" lon="13.187311990087712"><ele>663.0</ele><time>2026-04-24T16:03:19Z</time></trkpt><trkpt lat="43.152506863246835" lon="13.187395707472378"><ele>659.8333333333334</ele><time>2026-04-24T16:03:21Z</time></trkpt><trkpt lat="43.15245413300625" lon="13.187472423218676"><ele>656.6666666666666</ele><time>2026-04-24T16:03:22Z</time></trkpt><trkpt lat="43.15239458897556" lon="13.187531086641236"><ele>653.5</ele><time>2026-04-24T16:03:23Z</time></trkpt><trkpt lat="43.15232323279294" lon="13.187571208318635"><ele>650.3333333333333</ele><time>2026-04-24T16:03:24Z</time></trkpt><trkpt lat="43.15225556337564" lon="13.187593476644508"><ele>647.1666666666666</ele><time>2026-04-24T16:03:25Z</time></trkpt><trkpt lat="43.15219130005962" lon="13.187632601518061"><ele>644.0</ele><time>2026-04-24T16:03:26Z</time></trkpt><trkpt lat="43.15211045722543" lon="13.187733325017838"><ele>642.4000000000001</ele><time>2026-04-24T16:03:28Z</time></trkpt><trkpt lat="43.152066368405045" lon="13.187852898198264"><ele>640.8000000000001</ele><time>2026-04-24T16:03:30Z</time></trkpt><trkpt lat="43.151985147976276" lon="13.18790978073594"><ele>639.2</ele><time>2026-04-24T16:03:31.999Z</time></trkpt><trkpt lat="43.15187600689371" lon="13.187971333417359"><ele>637.6</ele><time>2026-04-24T16:03:33.999Z</time></trkpt><trkpt lat="43.151811990434204" lon="13.188104790417121"><ele>636.0</ele><time>2026-04-24T16:03:35.999Z</time></trkpt><trkpt lat="43.15176772917047" lon="13.188199213230446"><ele>633.6666666666666</ele><time>2026-04-24T16:03:36.999Z</time></trkpt><trkpt lat="43.15171908705418" lon="13.188288947923594"><ele>631.3333333333334</ele><time>2026-04-24T16:03:37.999Z</time></trkpt><trkpt lat="43.15166252501412" lon="13.188355770482373"><ele>629.0</ele><time>2026-04-24T16:03:38.999Z</time></trkpt><trkpt lat="43.15156517302069" lon="13.188423692458999"><ele>626.6666666666667</ele><time>2026-04-24T16:03:40.999Z</time></trkpt><trkpt lat="43.15149018764129" lon="13.188470186754786"><ele>624.3333333333334</ele><time>2026-04-24T16:03:43.999Z</time></trkpt><trkpt lat="43.151430708478394" lon="13.188526044999968"><ele>622.0</ele><time>2026-04-24T16:03:47.999Z</time></trkpt><trkpt lat="43.151396139021095" lon="13.188604585786434"><ele>622.0</ele><time>2026-04-24T16:03:51.999Z</time></trkpt><trkpt lat="43.15134503074407" lon="13.18867516790165"><ele>622.0</ele><time>2026-04-24T16:03:55.999Z</time></trkpt><trkpt lat="43.151289786011716" lon="13.188722176696707"><ele>622.0</ele><time>2026-04-24T16:03:58.999Z</time></trkpt><trkpt lat="43.15121154806794" lon="13.188789918644794"><ele>622.0</ele><time>2026-04-24T16:04:02.999Z</time></trkpt><trkpt lat="43.15115430533762" lon="13.188846123858202"><ele>622.0</ele><time>2026-04-24T16:04:04.999Z</time></trkpt><trkpt lat="43.15106317263523" lon="13.188895192143189"><ele>622.0</ele><time>2026-04-24T16:04:07.999Z</time></trkpt><trkpt lat="43.150996432601126" lon="13.188884118297292"><ele>622.0</ele><time>2026-04-24T16:04:09.999Z</time></trkpt><trkpt lat="43.15093021664643" lon="13.188872532402621"><ele>622.0</ele><time>2026-04-24T16:04:11.999Z</time></trkpt><trkpt lat="43.150849583578236" lon="13.188816043327925"><ele>622.0</ele><time>2026-04-24T16:04:13.999Z</time></trkpt><trkpt lat="43.1507768388248" lon="13.188724227273008"><ele>622.0</ele><time>2026-04-24T16:04:15.999Z</time></trkpt><trkpt lat="43.150717859777316" lon="13.188586564674814"><ele>622.0</ele><time>2026-04-24T16:04:17.999Z</time></trkpt><trkpt lat="43.15067417418481" lon="13.188487737263715"><ele>620.8000000000001</ele><time>2026-04-24T16:04:18.999Z</time></trkpt><trkpt lat="43.15063670604512" lon="13.188403909338675"><ele>619.6</ele><time>2026-04-24T16:04:19.999Z</time></trkpt><trkpt lat="43.15055738952649" lon="13.188286392153692"><ele>618.4000000000001</ele><time>2026-04-24T16:04:21.999Z</time></trkpt><trkpt lat="43.15047271478802" lon="13.18819012686604"><ele>617.2</ele><time>2026-04-24T16:04:23.999Z</time></trkpt><trkpt lat="43.15037303136464" lon="13.188113260491454"><ele>616.0</ele><time>2026-04-24T16:04:25.999Z</time></trkpt><trkpt lat="43.150311306450405" lon="13.188080930215087"><ele>619.1666666666667</ele><time>2026-04-24T16:04:26.999Z</time></trkpt><trkpt lat="43.15024661278062" lon="13.188043574347287"><ele>622.3333333333334</ele><time>2026-04-24T16:04:27.999Z</time></trkpt><trkpt lat="43.150180181373344" lon="13.187992433062808"><ele>625.5</ele><time>2026-04-24T16:04:28.999Z</time></trkpt><trkpt lat="43.15012526529993" lon="13.187905176776995"><ele>628.6666666666666</ele><time>2026-04-24T16:04:29.999Z</time></trkpt><trkpt lat="43.15008591299991" lon="13.187819574442546"><ele>631.8333333333333</ele><time>2026-04-24T16:04:30.999Z</time></trkpt><trkpt lat="43.14997990097799" lon="13.187808914796623"><ele>635.0</ele><time>2026-04-24T16:04:32.999Z</time></trkpt><trkpt lat="43.14986457348865" lon="13.187965492658138"><ele>635.8</ele><time>2026-04-24T16:04:34.999Z</time></trkpt><trkpt lat="43.14981546704715" lon="13.188088842260758"><ele>636.6</ele><time>2026-04-24T16:04:35.999Z</time></trkpt><trkpt lat="43.14976041935962" lon="13.188162250861263"><ele>637.4</ele><time>2026-04-24T16:04:36.999Z</time></trkpt><trkpt lat="43.149677969328984" lon="13.188215693546304"><ele>638.2</ele><time>2026-04-24T16:04:37.999Z</time></trkpt><trkpt lat="43.14958564270537" lon="13.188260689970253"><ele>639.0</ele><time>2026-04-24T16:04:38.999Z</time></trkpt><trkpt lat="43.14949968342964" lon="13.188289230246758"><ele>634.6666666666666</ele><time>2026-04-24T16:04:39.999Z</time></trkpt><trkpt lat="43.14940545897558" lon="13.188303295841576"><ele>630.3333333333334</ele><time>2026-04-24T16:04:40.999Z</time></trkpt><trkpt lat="43.149328374985664" lon="13.1883091876847"><ele>626.0</ele><time>2026-04-24T16:04:41.999Z</time></trkpt><trkpt lat="43.14924591072129" lon="13.188326261452211"><ele>621.6666666666667</ele><time>2026-04-24T16:04:42.999Z</time></trkpt><trkpt lat="43.149174557189" lon="13.188335721118976"><ele>617.3333333333334</ele><time>2026-04-24T16:04:43.999Z</time></trkpt><trkpt lat="43.14910815795925" lon="13.18832770060898"><ele>613.0</ele><time>2026-04-24T16:04:44.999Z</time></trkpt><trkpt lat="43.149048187290326" lon="13.18829939003775"><ele>614.8333333333334</ele><time>2026-04-24T16:04:45.999Z</time></trkpt><trkpt lat="43.148939822067895" lon="13.188249947286966"><ele>616.6666666666667</ele><time>2026-04-24T16:04:47.999Z</time></trkpt><trkpt lat="43.148876096668026" lon="13.188228180416594"><ele>618.5</ele><time>2026-04-24T16:04:48.999Z</time></trkpt><trkpt lat="43.14880827848848" lon="13.18820460106469"><ele>620.3333333333334</ele><time>2026-04-24T16:04:49.999Z</time></trkpt><trkpt lat="43.148745831989295" lon="13.188193578377158"><ele>622.1666666666666</ele><time>2026-04-24T16:04:50.999Z</time></trkpt><trkpt lat="43.148633683643354" lon="13.188174144218761"><ele>624.0</ele><time>2026-04-24T16:04:53Z</time></trkpt><trkpt lat="43.14853781679079" lon="13.188158836042513"><ele>624.0</ele><time>2026-04-24T16:04:55Z</time></trkpt><trkpt lat="43.148449294243136" lon="13.188118514659337"><ele>624.0</ele><time>2026-04-24T16:04:57Z</time></trkpt><trkpt lat="43.14836599233024" lon="13.188074649069325"><ele>624.0</ele><time>2026-04-24T16:04:59Z</time></trkpt><trkpt lat="43.14845880554285" lon="13.188140773926817"><ele>624.0</ele><time>2026-04-24T16:05:25Z</time></trkpt><trkpt lat="43.148580038118666" lon="13.188164581542768"><ele>624.0</ele><time>2026-04-24T16:05:27Z</time></trkpt><trkpt lat="43.148649226291724" lon="13.188178445436321"><ele>622.1666666666666</ele><time>2026-04-24T16:05:28Z</time></trkpt><trkpt lat="43.14871737490432" lon="13.188196874352375"><ele>620.3333333333334</ele><time>2026-04-24T16:05:29Z</time></trkpt><trkpt lat="43.14878925877282" lon="13.18821929309576"><ele>618.5</ele><time>2026-04-24T16:05:30Z</time></trkpt><trkpt lat="43.148869121887635" lon="13.188243693941574"><ele>616.6666666666667</ele><time>2026-04-24T16:05:31Z</time></trkpt><trkpt lat="43.148947986334164" lon="13.188273506797275"><ele>614.8333333333334</ele><time>2026-04-24T16:05:32Z</time></trkpt><trkpt lat="43.14902988169224" lon="13.18830392167688"><ele>613.0</ele><time>2026-04-24T16:05:33Z</time></trkpt><trkpt lat="43.1491099103526" lon="13.188327070985297"><ele>613.0</ele><time>2026-04-24T16:05:34Z</time></trkpt><trkpt lat="43.14918482363748" lon="13.188337929722776"><ele>613.0</ele><time>2026-04-24T16:05:35Z</time></trkpt><trkpt lat="43.14927431901032" lon="13.188336924431107"><ele>613.0</ele><time>2026-04-24T16:05:36Z</time></trkpt><trkpt lat="43.149366455707714" lon="13.188309038764633"><ele>613.0</ele><time>2026-04-24T16:05:37Z</time></trkpt><trkpt lat="43.149451237907925" lon="13.188283503869194"><ele>613.0</ele><time>2026-04-24T16:05:38Z</time></trkpt><trkpt lat="43.14953014911749" lon="13.188272501951577"><ele>613.0</ele><time>2026-04-24T16:05:39Z</time></trkpt><trkpt lat="43.149596312781966" lon="13.188265745721921"><ele>613.0</ele><time>2026-04-24T16:05:40Z</time></trkpt><trkpt lat="43.149669919021456" lon="13.188225372107372"><ele>613.0</ele><time>2026-04-24T16:05:41Z</time></trkpt><trkpt lat="43.14973763482737" lon="13.188171186607098"><ele>613.0</ele><time>2026-04-24T16:05:42Z</time></trkpt><trkpt lat="43.149807934772156" lon="13.188105640605054"><ele>613.0</ele><time>2026-04-24T16:05:43Z</time></trkpt><trkpt lat="43.14989820746063" lon="13.187976543444776"><ele>613.0</ele><time>2026-04-24T16:05:45Z</time></trkpt><trkpt lat="43.149958971950234" lon="13.187837338833805"><ele>617.4</ele><time>2026-04-24T16:05:46.999Z</time></trkpt><trkpt lat="43.15005053246118" lon="13.187779036752255"><ele>621.8</ele><time>2026-04-24T16:05:48.999Z</time></trkpt><trkpt lat="43.1501298006962" lon="13.187886623963951"><ele>626.2</ele><time>2026-04-24T16:05:50.999Z</time></trkpt><trkpt lat="43.15015685768833" lon="13.187975018980598"><ele>630.6</ele><time>2026-04-24T16:05:51.999Z</time></trkpt><trkpt lat="43.150206470296816" lon="13.188066580466986"><ele>635.0</ele><time>2026-04-24T16:05:53.999Z</time></trkpt><trkpt lat="43.15014811025029" lon="13.187959407098003"><ele>635.0</ele><time>2026-04-24T16:06:21.999Z</time></trkpt><trkpt lat="43.15011583537476" lon="13.187884536348745"><ele>635.0</ele><time>2026-04-24T16:06:22.999Z</time></trkpt><trkpt lat="43.15007508308429" lon="13.187808821273773"><ele>635.0</ele><time>2026-04-24T16:06:23.999Z</time></trkpt><trkpt lat="43.15000560062038" lon="13.18779435683404"><ele>635.0</ele><time>2026-04-24T16:06:24.999Z</time></trkpt><trkpt lat="43.14993602713204" lon="13.187837376926964"><ele>635.0</ele><time>2026-04-24T16:06:25.999Z</time></trkpt><trkpt lat="43.14987449397565" lon="13.187925418301784"><ele>635.0</ele><time>2026-04-24T16:06:26.999Z</time></trkpt><trkpt lat="43.149819726602004" lon="13.188069639368845"><ele>636.0</ele><time>2026-04-24T16:06:27.999Z</time></trkpt><trkpt lat="43.14975188767796" lon="13.188158896270197"><ele>637.0</ele><time>2026-04-24T16:06:28.999Z</time></trkpt><trkpt lat="43.149677294233996" lon="13.18830017618689"><ele>638.0</ele><time>2026-04-24T16:06:29.999Z</time></trkpt><trkpt lat="43.14953940818836" lon="13.188317808434817"><ele>639.0</ele><time>2026-04-24T16:06:30.999Z</time></trkpt><trkpt lat="43.14944649192357" lon="13.188327177843261"><ele>633.8</ele><time>2026-04-24T16:06:31.999Z</time></trkpt><trkpt lat="43.14934926121651" lon="13.188323513477126"><ele>628.5999999999999</ele><time>2026-04-24T16:06:32.999Z</time></trkpt><trkpt lat="43.14925312379159" lon="13.188336852079095"><ele>623.4</ele><time>2026-04-24T16:06:33.999Z</time></trkpt><trkpt lat="43.14916474719316" lon="13.188342164237918"><ele>618.1999999999999</ele><time>2026-04-24T16:06:34.999Z</time></trkpt><trkpt lat="43.14906741019923" lon="13.188320339099448"><ele>613.0</ele><time>2026-04-24T16:06:35.999Z</time></trkpt><trkpt lat="43.148964501325" lon="13.188281332589172"><ele>615.1999999999999</ele><time>2026-04-24T16:06:36.999Z</time></trkpt><trkpt lat="43.14884807952893" lon="13.188229866713785"><ele>617.4</ele><time>2026-04-24T16:06:37.999Z</time></trkpt><trkpt lat="43.14874683558018" lon="13.188199428260601"><ele>619.5999999999999</ele><time>2026-04-24T16:06:38.999Z</time></trkpt><trkpt lat="43.148649576495394" lon="13.188185662133248"><ele>621.8</ele><time>2026-04-24T16:06:39.999Z</time></trkpt><trkpt lat="43.14855128555101" lon="13.188170677406031"><ele>624.0</ele><time>2026-04-24T16:06:40.999Z</time></trkpt><trkpt lat="43.148461585369944" lon="13.188151210238255"><ele>624.0</ele><time>2026-04-24T16:06:41.999Z</time></trkpt><trkpt lat="43.14837770431004" lon="13.188116561016448"><ele>624.0</ele><time>2026-04-24T16:06:42.999Z</time></trkpt><trkpt lat="43.14830321892036" lon="13.188069611891743"><ele>624.0</ele><time>2026-04-24T16:06:43.999Z</time></trkpt><trkpt lat="43.148224332021606" lon="13.18800621557996"><ele>624.0</ele><time>2026-04-24T16:06:44.999Z</time></trkpt><trkpt lat="43.14813599890127" lon="13.187922295447985"><ele>624.0</ele><time>2026-04-24T16:06:45.999Z</time></trkpt><trkpt lat="43.14805338964239" lon="13.18782542774582"><ele>618.2</ele><time>2026-04-24T16:06:46.999Z</time></trkpt><trkpt lat="43.14797693931047" lon="13.187732995165275"><ele>612.4</ele><time>2026-04-24T16:06:47.999Z</time></trkpt><trkpt lat="43.14789882338583" lon="13.187651530793152"><ele>606.6</ele><time>2026-04-24T16:06:48.999Z</time></trkpt><trkpt lat="43.14782437864553" lon="13.187575098336904"><ele>600.8</ele><time>2026-04-24T16:06:49.999Z</time></trkpt><trkpt lat="43.14776031588813" lon="13.18749664759781"><ele>595.0</ele><time>2026-04-24T16:06:50.999Z</time></trkpt><trkpt lat="43.14770282233565" lon="13.187417628761906"><ele>595.0</ele><time>2026-04-24T16:06:51.999Z</time></trkpt><trkpt lat="43.147643079420774" lon="13.187349966409114"><ele>595.0</ele><time>2026-04-24T16:06:52.999Z</time></trkpt><trkpt lat="43.14759691903536" lon="13.187282388559627"><ele>595.0</ele><time>2026-04-24T16:06:53.999Z</time></trkpt><trkpt lat="43.14754027245307" lon="13.187188701294703"><ele>595.0</ele><time>2026-04-24T16:06:55.999Z</time></trkpt><trkpt lat="43.147492942296225" lon="13.187036136182483"><ele>595.0</ele><time>2026-04-24T16:06:58Z</time></trkpt><trkpt lat="43.14746651121928" lon="13.186913169630083"><ele>595.0</ele><time>2026-04-24T16:06:59Z</time></trkpt><trkpt lat="43.14744089970546" lon="13.186779479530614"><ele>598.0</ele><time>2026-04-24T16:07:00Z</time></trkpt><trkpt lat="43.147420540287065" lon="13.18662734532885"><ele>601.0</ele><time>2026-04-24T16:07:01Z</time></trkpt><trkpt lat="43.14739370406023" lon="13.186475673537341"><ele>604.0</ele><time>2026-04-24T16:07:02Z</time></trkpt><trkpt lat="43.14737391969281" lon="13.186320888672048"><ele>607.0</ele><time>2026-04-24T16:07:03Z</time></trkpt><trkpt lat="43.14736651197793" lon="13.186175429259245"><ele>610.0</ele><time>2026-04-24T16:07:04Z</time></trkpt><trkpt lat="43.147353729643996" lon="13.186027843428674"><ele>603.4</ele><time>2026-04-24T16:07:05Z</time></trkpt><trkpt lat="43.14733731694695" lon="13.18587532424042"><ele>596.8</ele><time>2026-04-24T16:07:06Z</time></trkpt><trkpt lat="43.147313035108404" lon="13.18572706670886"><ele>590.2</ele><time>2026-04-24T16:07:07Z</time></trkpt><trkpt lat="43.14729032132502" lon="13.185574979623384"><ele>583.6</ele><time>2026-04-24T16:07:08Z</time></trkpt><trkpt lat="43.14727890758625" lon="13.185426558619637"><ele>577.0</ele><time>2026-04-24T16:07:09Z</time></trkpt><trkpt lat="43.14725496153898" lon="13.185123856585477"><ele>577.0</ele><time>2026-04-24T16:07:11Z</time></trkpt><trkpt lat="43.147241226774824" lon="13.184975155657494"><ele>577.0</ele><time>2026-04-24T16:07:12Z</time></trkpt><trkpt lat="43.14722973820322" lon="13.184811414794904"><ele>577.0</ele><time>2026-04-24T16:07:13Z</time></trkpt><trkpt lat="43.14721459790413" lon="13.184665108494567"><ele>577.0</ele><time>2026-04-24T16:07:14Z</time></trkpt><trkpt lat="43.14719911737443" lon="13.184515861275342"><ele>577.0</ele><time>2026-04-24T16:07:15Z</time></trkpt><trkpt lat="43.14718770976619" lon="13.184364909156772"><ele>578.0</ele><time>2026-04-24T16:07:16Z</time></trkpt><trkpt lat="43.14718018160597" lon="13.184212488995602"><ele>579.0</ele><time>2026-04-24T16:07:17Z</time></trkpt><trkpt lat="43.147167419708815" lon="13.184063959647263"><ele>580.0</ele><time>2026-04-24T16:07:18Z</time></trkpt><trkpt lat="43.1471564099186" lon="13.18391504541257"><ele>581.0</ele><time>2026-04-24T16:07:19Z</time></trkpt><trkpt lat="43.14715140438433" lon="13.183781716601924"><ele>582.0</ele><time>2026-04-24T16:07:20Z</time></trkpt><trkpt lat="43.14714783405025" lon="13.18362243140877"><ele>582.0</ele><time>2026-04-24T16:07:21Z</time></trkpt><trkpt lat="43.14715008487528" lon="13.183460266699925"><ele>582.0</ele><time>2026-04-24T16:07:22Z</time></trkpt><trkpt lat="43.14715857777495" lon="13.183290199041284"><ele>582.0</ele><time>2026-04-24T16:07:23Z</time></trkpt><trkpt lat="43.14716218433612" lon="13.18312413040985"><ele>582.0</ele><time>2026-04-24T16:07:24Z</time></trkpt><trkpt lat="43.14716915344657" lon="13.182956957332488"><ele>582.0</ele><time>2026-04-24T16:07:25Z</time></trkpt><trkpt lat="43.14717145128424" lon="13.182794952679584"><ele>582.0</ele><time>2026-04-24T16:07:26Z</time></trkpt><trkpt lat="43.147176815466956" lon="13.182628942475747"><ele>582.0</ele><time>2026-04-24T16:07:27Z</time></trkpt><trkpt lat="43.147177977540046" lon="13.18246421347633"><ele>582.0</ele><time>2026-04-24T16:07:28Z</time></trkpt><trkpt lat="43.14718436581016" lon="13.182295154249115"><ele>581.5</ele><time>2026-04-24T16:07:29Z</time></trkpt><trkpt lat="43.1471935224146" lon="13.182126019610996"><ele>581.0</ele><time>2026-04-24T16:07:30Z</time></trkpt><trkpt lat="43.14720307119987" lon="13.181951112921558"><ele>580.5</ele><time>2026-04-24T16:07:31Z</time></trkpt><trkpt lat="43.14721447122982" lon="13.18176663779021"><ele>580.0</ele><time>2026-04-24T16:07:32Z</time></trkpt><trkpt lat="43.14722820957188" lon="13.181574982436578"><ele>577.5</ele><time>2026-04-24T16:07:33Z</time></trkpt><trkpt lat="43.14724322381278" lon="13.18137874576126"><ele>575.0</ele><time>2026-04-24T16:07:34Z</time></trkpt><trkpt lat="43.14725634826933" lon="13.18117668558958"><ele>572.5</ele><time>2026-04-24T16:07:35Z</time></trkpt><trkpt lat="43.14727442409596" lon="13.18097812464462"><ele>570.0</ele><time>2026-04-24T16:07:36Z</time></trkpt><trkpt lat="43.14730063795193" lon="13.180780540781411"><ele>566.0</ele><time>2026-04-24T16:07:37Z</time></trkpt><trkpt lat="43.147333566017394" lon="13.180592170325205"><ele>562.0</ele><time>2026-04-24T16:07:38Z</time></trkpt><trkpt lat="43.14737425609869" lon="13.180412430622363"><ele>558.0</ele><time>2026-04-24T16:07:39Z</time></trkpt><trkpt lat="43.14742243012296" lon="13.180236584540115"><ele>554.0</ele><time>2026-04-24T16:07:40Z</time></trkpt><trkpt lat="43.1474747482771" lon="13.180069345475731"><ele>562.25</ele><time>2026-04-24T16:07:41Z</time></trkpt><trkpt lat="43.14752140304613" lon="13.179909670355004"><ele>570.5</ele><time>2026-04-24T16:07:42Z</time></trkpt><trkpt lat="43.147575262891664" lon="13.17974381615433"><ele>578.75</ele><time>2026-04-24T16:07:43Z</time></trkpt><trkpt lat="43.14763040191051" lon="13.17957214890734"><ele>587.0</ele><time>2026-04-24T16:07:44Z</time></trkpt><trkpt lat="43.14769060859284" lon="13.179397904259295"><ele>587.0</ele><time>2026-04-24T16:07:45Z</time></trkpt><trkpt lat="43.14775281765923" lon="13.179214996079788"><ele>587.0</ele><time>2026-04-24T16:07:46Z</time></trkpt><trkpt lat="43.14781353926079" lon="13.179028879764758"><ele>587.0</ele><time>2026-04-24T16:07:47Z</time></trkpt><trkpt lat="43.14787615661148" lon="13.178835246634877"><ele>581.3333333333333</ele><time>2026-04-24T16:07:48Z</time></trkpt><trkpt lat="43.14793993290761" lon="13.178636796689489"><ele>575.6666666666666</ele><time>2026-04-24T16:07:49Z</time></trkpt><trkpt lat="43.14800434453439" lon="13.178435002691975"><ele>570.0</ele><time>2026-04-24T16:07:50Z</time></trkpt><trkpt lat="43.14806547462431" lon="13.178239964817696"><ele>566.25</ele><time>2026-04-24T16:07:51Z</time></trkpt><trkpt lat="43.14812630568151" lon="13.178057869952564"><ele>562.5</ele><time>2026-04-24T16:07:52Z</time></trkpt><trkpt lat="43.14818666969807" lon="13.17787255235491"><ele>558.75</ele><time>2026-04-24T16:07:53Z</time></trkpt><trkpt lat="43.14824459790511" lon="13.17767707432192"><ele>555.0</ele><time>2026-04-24T16:07:54Z</time></trkpt><trkpt lat="43.148296559204894" lon="13.1774739460451"><ele>562.75</ele><time>2026-04-24T16:07:55Z</time></trkpt><trkpt lat="43.14834127021161" lon="13.17728742104647"><ele>570.5</ele><time>2026-04-24T16:07:56Z</time></trkpt><trkpt lat="43.148383032103084" lon="13.177111274193395"><ele>578.25</ele><time>2026-04-24T16:07:56.999Z</time></trkpt><trkpt lat="43.14842485866868" lon="13.176942832032957"><ele>586.0</ele><time>2026-04-24T16:07:57.999Z</time></trkpt><trkpt lat="43.148467766812814" lon="13.176769474387534"><ele>586.0</ele><time>2026-04-24T16:07:58.999Z</time></trkpt><trkpt lat="43.1485153619294" lon="13.176596375497029"><ele>586.0</ele><time>2026-04-24T16:07:59.999Z</time></trkpt><trkpt lat="43.148565077106454" lon="13.176411915379655"><ele>586.0</ele><time>2026-04-24T16:08:00.999Z</time></trkpt><trkpt lat="43.148618129092426" lon="13.176233757293081"><ele>586.0</ele><time>2026-04-24T16:08:01.999Z</time></trkpt><trkpt lat="43.148661654171306" lon="13.176051494782707"><ele>583.5</ele><time>2026-04-24T16:08:02.999Z</time></trkpt><trkpt lat="43.14871550882659" lon="13.175863259007192"><ele>581.0</ele><time>2026-04-24T16:08:03.999Z</time></trkpt><trkpt lat="43.14876132467544" lon="13.175677983732728"><ele>578.5</ele><time>2026-04-24T16:08:04.999Z</time></trkpt><trkpt lat="43.14880022853709" lon="13.175495245908344"><ele>576.0</ele><time>2026-04-24T16:08:05.999Z</time></trkpt><trkpt lat="43.14883465932079" lon="13.175309154069813"><ele>573.0</ele><time>2026-04-24T16:08:06.999Z</time></trkpt><trkpt lat="43.14885639035701" lon="13.175100406088738"><ele>570.0</ele><time>2026-04-24T16:08:07.999Z</time></trkpt><trkpt lat="43.14886140112456" lon="13.174859982806407"><ele>567.0</ele><time>2026-04-24T16:08:08.999Z</time></trkpt><trkpt lat="43.14885610650513" lon="13.17464525234209"><ele>567.5</ele><time>2026-04-24T16:08:09.999Z</time></trkpt><trkpt lat="43.14884247696346" lon="13.174447385103294"><ele>568.0</ele><time>2026-04-24T16:08:10.999Z</time></trkpt><trkpt lat="43.14882713380673" lon="13.17425816134035"><ele>568.5</ele><time>2026-04-24T16:08:11.999Z</time></trkpt><trkpt lat="43.14882460627478" lon="13.174067100267479"><ele>569.0</ele><time>2026-04-24T16:08:12.999Z</time></trkpt><trkpt lat="43.14884373069511" lon="13.173877622729998"><ele>569.0</ele><time>2026-04-24T16:08:13.999Z</time></trkpt><trkpt lat="43.14887499167644" lon="13.173680177407727"><ele>569.0</ele><time>2026-04-24T16:08:14.999Z</time></trkpt><trkpt lat="43.14891890395064" lon="13.173498162537964"><ele>569.0</ele><time>2026-04-24T16:08:15.999Z</time></trkpt><trkpt lat="43.14896656417099" lon="13.173326148140625"><ele>569.0</ele><time>2026-04-24T16:08:16.999Z</time></trkpt><trkpt lat="43.14901849867726" lon="13.17317599274829"><ele>573.8333333333333</ele><time>2026-04-24T16:08:17.999Z</time></trkpt><trkpt lat="43.149074609305785" lon="13.173042731522703"><ele>578.6666666666666</ele><time>2026-04-24T16:08:18.999Z</time></trkpt><trkpt lat="43.14911677274562" lon="13.172920391290258"><ele>583.5</ele><time>2026-04-24T16:08:19.999Z</time></trkpt><trkpt lat="43.14914170558407" lon="13.172816733189922"><ele>588.3333333333334</ele><time>2026-04-24T16:08:20.999Z</time></trkpt><trkpt lat="43.149123245159366" lon="13.172726608768416"><ele>593.1666666666667</ele><time>2026-04-24T16:08:21.999Z</time></trkpt><trkpt lat="43.149060960148795" lon="13.172637217661745"><ele>598.0</ele><time>2026-04-24T16:08:22.999Z</time></trkpt><trkpt lat="43.148978448948306" lon="13.172577899479549"><ele>598.25</ele><time>2026-04-24T16:08:23.999Z</time></trkpt><trkpt lat="43.14886796964044" lon="13.172583491874908"><ele>598.5</ele><time>2026-04-24T16:08:24.999Z</time></trkpt><trkpt lat="43.148716261295334" lon="13.17261566776074"><ele>598.75</ele><time>2026-04-24T16:08:25.999Z</time></trkpt><trkpt lat="43.14856818684705" lon="13.172639887211838"><ele>599.0</ele><time>2026-04-24T16:08:26.999Z</time></trkpt><trkpt lat="43.14842883963044" lon="13.17264516407727"><ele>599.0</ele><time>2026-04-24T16:08:27.999Z</time></trkpt><trkpt lat="43.14829843063094" lon="13.172659606718744"><ele>599.0</ele><time>2026-04-24T16:08:28.999Z</time></trkpt><trkpt lat="43.14816411739769" lon="13.1726922482554"><ele>599.0</ele><time>2026-04-24T16:08:29.999Z</time></trkpt><trkpt lat="43.14802883956299" lon="13.172739539171223"><ele>599.0</ele><time>2026-04-24T16:08:30.999Z</time></trkpt><trkpt lat="43.147899776308925" lon="13.172797213338432"><ele>605.5</ele><time>2026-04-24T16:08:31.999Z</time></trkpt><trkpt lat="43.147771042010376" lon="13.172867395203667"><ele>612.0</ele><time>2026-04-24T16:08:32.999Z</time></trkpt><trkpt lat="43.14764030702794" lon="13.172945380424187"><ele>618.5</ele><time>2026-04-24T16:08:33.999Z</time></trkpt><trkpt lat="43.147514346747414" lon="13.173021884924498"><ele>625.0</ele><time>2026-04-24T16:08:34.999Z</time></trkpt><trkpt lat="43.14738923788399" lon="13.173090977894985"><ele>629.5</ele><time>2026-04-24T16:08:35.999Z</time></trkpt><trkpt lat="43.1472626047626" lon="13.173159284736565"><ele>634.0</ele><time>2026-04-24T16:08:36.999Z</time></trkpt><trkpt lat="43.14713620861775" lon="13.173230252415514"><ele>638.5</ele><time>2026-04-24T16:08:37.999Z</time></trkpt><trkpt lat="43.14700898221938" lon="13.173278455859137"><ele>643.0</ele><time>2026-04-24T16:08:38.999Z</time></trkpt><trkpt lat="43.14687113810767" lon="13.173312022559056"><ele>634.75</ele><time>2026-04-24T16:08:39.999Z</time></trkpt><trkpt lat="43.14673441079872" lon="13.173331594865076"><ele>626.5</ele><time>2026-04-24T16:08:40.999Z</time></trkpt><trkpt lat="43.14659805581562" lon="13.173358414662813"><ele>618.25</ele><time>2026-04-24T16:08:41.999Z</time></trkpt><trkpt lat="43.146459160573926" lon="13.173392958422953"><ele>610.0</ele><time>2026-04-24T16:08:42.999Z</time></trkpt><trkpt lat="43.146316539037976" lon="13.173421674144134"><ele>610.0</ele><time>2026-04-24T16:08:43.999Z</time></trkpt><trkpt lat="43.14618264958406" lon="13.173444720865785"><ele>610.0</ele><time>2026-04-24T16:08:44.999Z</time></trkpt><trkpt lat="43.14605234357178" lon="13.173480030033685"><ele>610.0</ele><time>2026-04-24T16:08:45.999Z</time></trkpt><trkpt lat="43.14591231735768" lon="13.173525137663452"><ele>610.0</ele><time>2026-04-24T16:08:46.999Z</time></trkpt><trkpt lat="43.145781005193584" lon="13.173549745343864"><ele>607.25</ele><time>2026-04-24T16:08:47.999Z</time></trkpt><trkpt lat="43.145672935649465" lon="13.173568317296244"><ele>604.5</ele><time>2026-04-24T16:08:48.999Z</time></trkpt><trkpt lat="43.14556170034541" lon="13.173540723061434"><ele>601.75</ele><time>2026-04-24T16:08:49.999Z</time></trkpt><trkpt lat="43.14544877303908" lon="13.173470781581242"><ele>599.0</ele><time>2026-04-24T16:08:50.999Z</time></trkpt><trkpt lat="43.14536061835715" lon="13.173371628967521"><ele>599.0</ele><time>2026-04-24T16:08:51.999Z</time></trkpt><trkpt lat="43.14529272800237" lon="13.17322170604085"><ele>599.0</ele><time>2026-04-24T16:08:52.999Z</time></trkpt><trkpt lat="43.14523177677889" lon="13.173051772141486"><ele>599.0</ele><time>2026-04-24T16:08:53.999Z</time></trkpt><trkpt lat="43.14517501744883" lon="13.172884676103333"><ele>599.0</ele><time>2026-04-24T16:08:54.999Z</time></trkpt><trkpt lat="43.145114246242635" lon="13.172720612220475"><ele>602.0</ele><time>2026-04-24T16:08:55.999Z</time></trkpt><trkpt lat="43.14505166554486" lon="13.172554445856193"><ele>605.0</ele><time>2026-04-24T16:08:56.999Z</time></trkpt><trkpt lat="43.14498639857697" lon="13.172382307963565"><ele>608.0</ele><time>2026-04-24T16:08:57.999Z</time></trkpt><trkpt lat="43.14492768217772" lon="13.172208660124738"><ele>611.0</ele><time>2026-04-24T16:08:58.999Z</time></trkpt><trkpt lat="43.144873780894414" lon="13.17202301146013"><ele>605.5</ele><time>2026-04-24T16:08:59.999Z</time></trkpt><trkpt lat="43.1448270322377" lon="13.1718501117732"><ele>600.0</ele><time>2026-04-24T16:09:00.999Z</time></trkpt><trkpt lat="43.14477864052257" lon="13.171671470757838"><ele>594.5</ele><time>2026-04-24T16:09:01.999Z</time></trkpt><trkpt lat="43.14472871183614" lon="13.17148891339858"><ele>589.0</ele><time>2026-04-24T16:09:02.999Z</time></trkpt><trkpt lat="43.14469161375654" lon="13.171300172249518"><ele>589.0</ele><time>2026-04-24T16:09:04Z</time></trkpt><trkpt lat="43.14465536563071" lon="13.171119121215336"><ele>589.0</ele><time>2026-04-24T16:09:05Z</time></trkpt><trkpt lat="43.144624493451175" lon="13.170926034009302"><ele>589.0</ele><time>2026-04-24T16:09:06Z</time></trkpt><trkpt lat="43.144593848499255" lon="13.170734647942407"><ele>589.0</ele><time>2026-04-24T16:09:07Z</time></trkpt><trkpt lat="43.14456730160196" lon="13.170547927218365"><ele>590.0</ele><time>2026-04-24T16:09:08Z</time></trkpt><trkpt lat="43.14454942247402" lon="13.170348513521217"><ele>591.0</ele><time>2026-04-24T16:09:09Z</time></trkpt><trkpt lat="43.14453600901183" lon="13.170149102251845"><ele>592.0</ele><time>2026-04-24T16:09:10Z</time></trkpt><trkpt lat="43.14452300243525" lon="13.169945520747806"><ele>593.0</ele><time>2026-04-24T16:09:11Z</time></trkpt><trkpt lat="43.14451452364885" lon="13.169740818525927"><ele>593.3333333333333</ele><time>2026-04-24T16:09:12Z</time></trkpt><trkpt lat="43.14451271019581" lon="13.169529548089184"><ele>593.6666666666666</ele><time>2026-04-24T16:09:13Z</time></trkpt><trkpt lat="43.14452178178254" lon="13.169313676257632"><ele>594.0</ele><time>2026-04-24T16:09:14Z</time></trkpt><trkpt lat="43.144532660661056" lon="13.16910427137885"><ele>594.0</ele><time>2026-04-24T16:09:15Z</time></trkpt><trkpt lat="43.14454192864372" lon="13.168899494748809"><ele>594.0</ele><time>2026-04-24T16:09:16Z</time></trkpt><trkpt lat="43.14455072605249" lon="13.168687425491454"><ele>594.0</ele><time>2026-04-24T16:09:17Z</time></trkpt><trkpt lat="43.14455857163085" lon="13.168473152205188"><ele>594.0</ele><time>2026-04-24T16:09:18Z</time></trkpt><trkpt lat="43.14456973612364" lon="13.168256762432655"><ele>594.0</ele><time>2026-04-24T16:09:19Z</time></trkpt><trkpt lat="43.14457934169245" lon="13.168043947735464"><ele>594.0</ele><time>2026-04-24T16:09:20Z</time></trkpt><trkpt lat="43.14459125630832" lon="13.167818256692385"><ele>593.6666666666666</ele><time>2026-04-24T16:09:21Z</time></trkpt><trkpt lat="43.14460623414593" lon="13.167604851623155"><ele>593.3333333333333</ele><time>2026-04-24T16:09:22Z</time></trkpt><trkpt lat="43.14462450032642" lon="13.167396075612883"><ele>593.0</ele><time>2026-04-24T16:09:23Z</time></trkpt><trkpt lat="43.14463965273815" lon="13.167178650596542"><ele>592.0</ele><time>2026-04-24T16:09:24Z</time></trkpt><trkpt lat="43.14464844926483" lon="13.166960017848673"><ele>591.0</ele><time>2026-04-24T16:09:25Z</time></trkpt><trkpt lat="43.144652945496354" lon="13.166768761764443"><ele>590.0</ele><time>2026-04-24T16:09:26Z</time></trkpt><trkpt lat="43.14465864592928" lon="13.166583977530367"><ele>589.0</ele><time>2026-04-24T16:09:27Z</time></trkpt><trkpt lat="43.144675112456646" lon="13.16640698142967"><ele>587.25</ele><time>2026-04-24T16:09:28Z</time></trkpt><trkpt lat="43.14471394094601" lon="13.166222908836314"><ele>585.5</ele><time>2026-04-24T16:09:29Z</time></trkpt><trkpt lat="43.1447633936634" lon="13.16603380540036"><ele>583.75</ele><time>2026-04-24T16:09:30Z</time></trkpt><trkpt lat="43.14481415141868" lon="13.165838499916575"><ele>582.0</ele><time>2026-04-24T16:09:31Z</time></trkpt><trkpt lat="43.14486180408893" lon="13.16564585022483"><ele>590.75</ele><time>2026-04-24T16:09:32Z</time></trkpt><trkpt lat="43.14490718887567" lon="13.165453715185823"><ele>599.5</ele><time>2026-04-24T16:09:33Z</time></trkpt><trkpt lat="43.14495420559894" lon="13.165266705496425"><ele>608.25</ele><time>2026-04-24T16:09:34Z</time></trkpt><trkpt lat="43.14500533566798" lon="13.165070580097556"><ele>617.0</ele><time>2026-04-24T16:09:35Z</time></trkpt><trkpt lat="43.14505964977896" lon="13.16488036412467"><ele>612.0</ele><time>2026-04-24T16:09:36Z</time></trkpt><trkpt lat="43.14511550620077" lon="13.164680037091191"><ele>607.0</ele><time>2026-04-24T16:09:37Z</time></trkpt><trkpt lat="43.14517285630427" lon="13.164481139487592"><ele>602.0</ele><time>2026-04-24T16:09:38Z</time></trkpt><trkpt lat="43.14522966349847" lon="13.16427442456015"><ele>602.0</ele><time>2026-04-24T16:09:39Z</time></trkpt><trkpt lat="43.14528138137079" lon="13.16405495436551"><ele>602.0</ele><time>2026-04-24T16:09:40Z</time></trkpt><trkpt lat="43.14532695091185" lon="13.163835687453178"><ele>602.0</ele><time>2026-04-24T16:09:41Z</time></trkpt><trkpt lat="43.14536803840968" lon="13.163609966747151"><ele>598.0</ele><time>2026-04-24T16:09:42Z</time></trkpt><trkpt lat="43.145402427631815" lon="13.163382955648744"><ele>594.0</ele><time>2026-04-24T16:09:43Z</time></trkpt><trkpt lat="43.145435650503686" lon="13.163179331417167"><ele>590.0</ele><time>2026-04-24T16:09:44Z</time></trkpt><trkpt lat="43.145466732870574" lon="13.162970522669777"><ele>586.6666666666666</ele><time>2026-04-24T16:09:45Z</time></trkpt><trkpt lat="43.14549837821332" lon="13.162764201272163"><ele>583.3333333333334</ele><time>2026-04-24T16:09:46Z</time></trkpt><trkpt lat="43.14552664790858" lon="13.162566733124619"><ele>580.0</ele><time>2026-04-24T16:09:47Z</time></trkpt><trkpt lat="43.14555654105061" lon="13.162362931169488"><ele>579.3333333333334</ele><time>2026-04-24T16:09:48Z</time></trkpt><trkpt lat="43.145585940575344" lon="13.16215257253356"><ele>578.6666666666666</ele><time>2026-04-24T16:09:49Z</time></trkpt><trkpt lat="43.14561261673661" lon="13.161942088734346"><ele>578.0</ele><time>2026-04-24T16:09:50Z</time></trkpt><trkpt lat="43.14563440687329" lon="13.161736338581038"><ele>578.6666666666666</ele><time>2026-04-24T16:09:51Z</time></trkpt><trkpt lat="43.145643126658086" lon="13.161518232902125"><ele>579.3333333333334</ele><time>2026-04-24T16:09:51.999Z</time></trkpt><trkpt lat="43.145644654160435" lon="13.16130048287308"><ele>580.0</ele><time>2026-04-24T16:09:52.999Z</time></trkpt><trkpt lat="43.14564867995026" lon="13.161072315957425"><ele>580.0</ele><time>2026-04-24T16:09:53.999Z</time></trkpt><trkpt lat="43.145654753660466" lon="13.160860499044379"><ele>580.0</ele><time>2026-04-24T16:09:54.999Z</time></trkpt><trkpt lat="43.14565388950225" lon="13.16065385448059"><ele>580.0</ele><time>2026-04-24T16:09:55.999Z</time></trkpt><trkpt lat="43.14564398396451" lon="13.16044436751643"><ele>582.6666666666667</ele><time>2026-04-24T16:09:56.999Z</time></trkpt><trkpt lat="43.145631167791564" lon="13.160227334328267"><ele>585.3333333333334</ele><time>2026-04-24T16:09:57.999Z</time></trkpt><trkpt lat="43.14561774665078" lon="13.160022312391291"><ele>588.0</ele><time>2026-04-24T16:09:58.999Z</time></trkpt><trkpt lat="43.14560484194092" lon="13.159813171217312"><ele>591.6666666666666</ele><time>2026-04-24T16:09:59.999Z</time></trkpt><trkpt lat="43.145593813813996" lon="13.159604733628047"><ele>595.3333333333333</ele><time>2026-04-24T16:10:00.999Z</time></trkpt><trkpt lat="43.14557668781227" lon="13.159387205370859"><ele>599.0</ele><time>2026-04-24T16:10:01.999Z</time></trkpt><trkpt lat="43.14555618771078" lon="13.159183018049838"><ele>602.3333333333333</ele><time>2026-04-24T16:10:02.999Z</time></trkpt><trkpt lat="43.145533253166946" lon="13.158973045343679"><ele>605.6666666666666</ele><time>2026-04-24T16:10:03.999Z</time></trkpt><trkpt lat="43.14551638704976" lon="13.158764762749097"><ele>609.0</ele><time>2026-04-24T16:10:04.999Z</time></trkpt><trkpt lat="43.145510710933515" lon="13.15855577693033"><ele>609.0</ele><time>2026-04-24T16:10:05.999Z</time></trkpt><trkpt lat="43.14552147350441" lon="13.158350269206524"><ele>609.0</ele><time>2026-04-24T16:10:06.999Z</time></trkpt><trkpt lat="43.145545850566656" lon="13.158144898193244"><ele>609.0</ele><time>2026-04-24T16:10:07.999Z</time></trkpt><trkpt lat="43.14556137126976" lon="13.157942824750736"><ele>612.6666666666666</ele><time>2026-04-24T16:10:08.999Z</time></trkpt><trkpt lat="43.14557174603659" lon="13.157734773650628"><ele>616.3333333333333</ele><time>2026-04-24T16:10:09.999Z</time></trkpt><trkpt lat="43.14558289116906" lon="13.157531107916817"><ele>620.0</ele><time>2026-04-24T16:10:10.999Z</time></trkpt><trkpt lat="43.14559859529667" lon="13.15732557540858"><ele>622.0</ele><time>2026-04-24T16:10:11.999Z</time></trkpt><trkpt lat="43.145628041098355" lon="13.157132431120402"><ele>624.0</ele><time>2026-04-24T16:10:12.999Z</time></trkpt><trkpt lat="43.1456683737631" lon="13.156960235650073"><ele>626.0</ele><time>2026-04-24T16:10:13.999Z</time></trkpt><trkpt lat="43.145711427657524" lon="13.156795609001005"><ele>628.0</ele><time>2026-04-24T16:10:14.999Z</time></trkpt><trkpt lat="43.145774862290814" lon="13.156630818630063"><ele>624.25</ele><time>2026-04-24T16:10:15.999Z</time></trkpt><trkpt lat="43.14585862009633" lon="13.156480263214174"><ele>620.5</ele><time>2026-04-24T16:10:16.999Z</time></trkpt><trkpt lat="43.14595537360758" lon="13.156360766778429"><ele>616.75</ele><time>2026-04-24T16:10:17.999Z</time></trkpt><trkpt lat="43.14605698819761" lon="13.156274850905803"><ele>613.0</ele><time>2026-04-24T16:10:18.999Z</time></trkpt><trkpt lat="43.146160397647925" lon="13.156221895022385"><ele>613.0</ele><time>2026-04-24T16:10:19.999Z</time></trkpt><trkpt lat="43.146282524333216" lon="13.156200271511961"><ele>613.0</ele><time>2026-04-24T16:10:20.999Z</time></trkpt><trkpt lat="43.146413236228085" lon="13.156209422642931"><ele>613.0</ele><time>2026-04-24T16:10:21.999Z</time></trkpt><trkpt lat="43.146546985660386" lon="13.156244532618453"><ele>613.0</ele><time>2026-04-24T16:10:22.999Z</time></trkpt><trkpt lat="43.146681219467055" lon="13.156274950268656"><ele>612.25</ele><time>2026-04-24T16:10:23.999Z</time></trkpt><trkpt lat="43.14680087430101" lon="13.156288289588085"><ele>611.5</ele><time>2026-04-24T16:10:24.999Z</time></trkpt><trkpt lat="43.14694455877985" lon="13.156304250501195"><ele>610.75</ele><time>2026-04-24T16:10:25.999Z</time></trkpt><trkpt lat="43.147083685489946" lon="13.156339667089291"><ele>610.0</ele><time>2026-04-24T16:10:26.999Z</time></trkpt><trkpt lat="43.14722578960409" lon="13.156382171184605"><ele>610.0</ele><time>2026-04-24T16:10:27.999Z</time></trkpt><trkpt lat="43.147362369976484" lon="13.156426934845088"><ele>610.0</ele><time>2026-04-24T16:10:28.999Z</time></trkpt><trkpt lat="43.14749113146206" lon="13.156468038914163"><ele>610.0</ele><time>2026-04-24T16:10:29.999Z</time></trkpt><trkpt lat="43.14763684590006" lon="13.156499844287119"><ele>610.0</ele><time>2026-04-24T16:10:30.999Z</time></trkpt><trkpt lat="43.14778244077414" lon="13.156530300206583"><ele>611.75</ele><time>2026-04-24T16:10:31.999Z</time></trkpt><trkpt lat="43.147932840679864" lon="13.156551707443034"><ele>613.5</ele><time>2026-04-24T16:10:32.999Z</time></trkpt><trkpt lat="43.14807766927041" lon="13.156561563316279"><ele>615.25</ele><time>2026-04-24T16:10:33.999Z</time></trkpt><trkpt lat="43.14822224003467" lon="13.156590326694444"><ele>617.0</ele><time>2026-04-24T16:10:34.999Z</time></trkpt><trkpt lat="43.14836232002569" lon="13.156631786962679"><ele>617.0</ele><time>2026-04-24T16:10:35.999Z</time></trkpt><trkpt lat="43.14851033735938" lon="13.156678173455548"><ele>617.0</ele><time>2026-04-24T16:10:36.999Z</time></trkpt><trkpt lat="43.1486577351151" lon="13.156722259479647"><ele>617.0</ele><time>2026-04-24T16:10:37.999Z</time></trkpt><trkpt lat="43.14880329153632" lon="13.15676081113211"><ele>617.0</ele><time>2026-04-24T16:10:38.999Z</time></trkpt><trkpt lat="43.14895702715251" lon="13.156810096474675"><ele>617.0</ele><time>2026-04-24T16:10:39.999Z</time></trkpt><trkpt lat="43.14910137936279" lon="13.156858296467265"><ele>617.0</ele><time>2026-04-24T16:10:40.999Z</time></trkpt><trkpt lat="43.14925482478595" lon="13.15691110325693"><ele>612.0</ele><time>2026-04-24T16:10:41.999Z</time></trkpt><trkpt lat="43.14940215299304" lon="13.156965051728093"><ele>607.0</ele><time>2026-04-24T16:10:42.999Z</time></trkpt><trkpt lat="43.14954781243438" lon="13.157018055873928"><ele>602.0</ele><time>2026-04-24T16:10:43.999Z</time></trkpt><trkpt lat="43.14968900707001" lon="13.15707265282622"><ele>602.0</ele><time>2026-04-24T16:10:44.999Z</time></trkpt><trkpt lat="43.14983212037747" lon="13.15713147283523"><ele>602.0</ele><time>2026-04-24T16:10:45.999Z</time></trkpt><trkpt lat="43.14997440268847" lon="13.157186722868456"><ele>602.0</ele><time>2026-04-24T16:10:46.999Z</time></trkpt><trkpt lat="43.150121180629036" lon="13.157240207621538"><ele>602.0</ele><time>2026-04-24T16:10:47.999Z</time></trkpt><trkpt lat="43.15026960707276" lon="13.1572853840472"><ele>600.5</ele><time>2026-04-24T16:10:48.999Z</time></trkpt><trkpt lat="43.150401951884405" lon="13.15732215897438"><ele>599.0</ele><time>2026-04-24T16:10:49.999Z</time></trkpt><trkpt lat="43.15052857006766" lon="13.157358153590309"><ele>597.5</ele><time>2026-04-24T16:10:50.999Z</time></trkpt><trkpt lat="43.1506354916414" lon="13.15739001432725"><ele>596.0</ele><time>2026-04-24T16:10:51.999Z</time></trkpt><trkpt lat="43.15072141168403" lon="13.157413376176423"><ele>600.0</ele><time>2026-04-24T16:10:52.999Z</time></trkpt><trkpt lat="43.15079090167532" lon="13.157401871087002"><ele>604.0</ele><time>2026-04-24T16:10:53.999Z</time></trkpt><trkpt lat="43.15084574784721" lon="13.157344942680865"><ele>608.0</ele><time>2026-04-24T16:10:54.999Z</time></trkpt><trkpt lat="43.15086385318698" lon="13.157241715589796"><ele>612.0</ele><time>2026-04-24T16:10:55.999Z</time></trkpt><trkpt lat="43.15085810400137" lon="13.157137873647521"><ele>616.0</ele><time>2026-04-24T16:10:56.999Z</time></trkpt><trkpt lat="43.150810550044525" lon="13.156999452009662"><ele>620.0</ele><time>2026-04-24T16:10:57.999Z</time></trkpt><trkpt lat="43.15073402675702" lon="13.156844661068941"><ele>614.75</ele><time>2026-04-24T16:10:58.999Z</time></trkpt><trkpt lat="43.150662114877775" lon="13.156681907245275"><ele>609.5</ele><time>2026-04-24T16:10:59.999Z</time></trkpt><trkpt lat="43.150617561416155" lon="13.156509504858498"><ele>604.25</ele><time>2026-04-24T16:11:00.999Z</time></trkpt><trkpt lat="43.15058049403947" lon="13.156333853900035"><ele>599.0</ele><time>2026-04-24T16:11:01.999Z</time></trkpt><trkpt lat="43.15053081373611" lon="13.15615303804061"><ele>599.0</ele><time>2026-04-24T16:11:02.999Z</time></trkpt><trkpt lat="43.150462829589" lon="13.155978325287222"><ele>599.0</ele><time>2026-04-24T16:11:03.999Z</time></trkpt><trkpt lat="43.15038223522913" lon="13.155791894732332"><ele>599.0</ele><time>2026-04-24T16:11:04.999Z</time></trkpt><trkpt lat="43.150301495111144" lon="13.155623733190687"><ele>599.0</ele><time>2026-04-24T16:11:05.999Z</time></trkpt><trkpt lat="43.150208787196064" lon="13.155479917343069"><ele>597.25</ele><time>2026-04-24T16:11:06.999Z</time></trkpt><trkpt lat="43.150108585871486" lon="13.15532422684779"><ele>595.5</ele><time>2026-04-24T16:11:07.999Z</time></trkpt><trkpt lat="43.150017598569704" lon="13.155174217732021"><ele>593.75</ele><time>2026-04-24T16:11:09Z</time></trkpt><trkpt lat="43.149931787708816" lon="13.155020567549265"><ele>592.0</ele><time>2026-04-24T16:11:10Z</time></trkpt><trkpt lat="43.14984480306667" lon="13.154859366724086"><ele>592.0</ele><time>2026-04-24T16:11:11Z</time></trkpt><trkpt lat="43.14976305521619" lon="13.154690391518942"><ele>592.0</ele><time>2026-04-24T16:11:12Z</time></trkpt><trkpt lat="43.14968370636892" lon="13.15450993083621"><ele>592.0</ele><time>2026-04-24T16:11:13Z</time></trkpt><trkpt lat="43.1496082801276" lon="13.154324285080142"><ele>592.0</ele><time>2026-04-24T16:11:14Z</time></trkpt><trkpt lat="43.149542368689794" lon="13.154136138827775"><ele>592.0</ele><time>2026-04-24T16:11:15Z</time></trkpt><trkpt lat="43.14948067885346" lon="13.153955227875427"><ele>592.0</ele><time>2026-04-24T16:11:16Z</time></trkpt><trkpt lat="43.1494093173736" lon="13.153780413241213"><ele>592.0</ele><time>2026-04-24T16:11:17Z</time></trkpt><trkpt lat="43.149319120664394" lon="13.153612567241607"><ele>591.75</ele><time>2026-04-24T16:11:18Z</time></trkpt><trkpt lat="43.14922712420265" lon="13.153465132895134"><ele>591.5</ele><time>2026-04-24T16:11:19Z</time></trkpt><trkpt lat="43.14913744243845" lon="13.153310438749108"><ele>591.25</ele><time>2026-04-24T16:11:20Z</time></trkpt><trkpt lat="43.14905079464076" lon="13.153145295292926"><ele>591.0</ele><time>2026-04-24T16:11:21Z</time></trkpt><trkpt lat="43.148961235803014" lon="13.152983810175025"><ele>591.0</ele><time>2026-04-24T16:11:22Z</time></trkpt><trkpt lat="43.14887573531762" lon="13.1528283465114"><ele>591.0</ele><time>2026-04-24T16:11:23Z</time></trkpt><trkpt lat="43.14878028936047" lon="13.152676645275498"><ele>591.0</ele><time>2026-04-24T16:11:24Z</time></trkpt><trkpt lat="43.14868055718431" lon="13.152529280492328"><ele>591.0</ele><time>2026-04-24T16:11:25Z</time></trkpt><trkpt lat="43.14857845030801" lon="13.15237696085894"><ele>598.0</ele><time>2026-04-24T16:11:26Z</time></trkpt><trkpt lat="43.14847935590108" lon="13.152217133631305"><ele>605.0</ele><time>2026-04-24T16:11:27Z</time></trkpt><trkpt lat="43.14837924793393" lon="13.152054730177962"><ele>612.0</ele><time>2026-04-24T16:11:28Z</time></trkpt><trkpt lat="43.14827525126915" lon="13.1518926488638"><ele>609.3333333333334</ele><time>2026-04-24T16:11:29Z</time></trkpt><trkpt lat="43.14816949242843" lon="13.151729815972606"><ele>606.6666666666667</ele><time>2026-04-24T16:11:30Z</time></trkpt><trkpt lat="43.148064534933106" lon="13.151569850193592"><ele>604.0</ele><time>2026-04-24T16:11:31Z</time></trkpt><trkpt lat="43.14797154575715" lon="13.151424019533597"><ele>604.0</ele><time>2026-04-24T16:11:32Z</time></trkpt><trkpt lat="43.14788231396094" lon="13.15129439702914"><ele>604.0</ele><time>2026-04-24T16:11:33Z</time></trkpt><trkpt lat="43.14778167711014" lon="13.151168853441643"><ele>604.0</ele><time>2026-04-24T16:11:34Z</time></trkpt><trkpt lat="43.14767811224434" lon="13.151039444223974"><ele>604.0</ele><time>2026-04-24T16:11:35Z</time></trkpt><trkpt lat="43.14757982428959" lon="13.150908256872487"><ele>604.0</ele><time>2026-04-24T16:11:36Z</time></trkpt><trkpt lat="43.14748045063258" lon="13.150775541525096"><ele>604.0</ele><time>2026-04-24T16:11:37Z</time></trkpt><trkpt lat="43.14738380580979" lon="13.1506449963139"><ele>604.0</ele><time>2026-04-24T16:11:38Z</time></trkpt><trkpt lat="43.14728711330488" lon="13.150516272720703"><ele>604.0</ele><time>2026-04-24T16:11:39Z</time></trkpt><trkpt lat="43.147188861325034" lon="13.150381350402949"><ele>604.75</ele><time>2026-04-24T16:11:40Z</time></trkpt><trkpt lat="43.14709834626815" lon="13.150248045001305"><ele>605.5</ele><time>2026-04-24T16:11:41Z</time></trkpt><trkpt lat="43.14701613449308" lon="13.150111598119782"><ele>606.25</ele><time>2026-04-24T16:11:42Z</time></trkpt><trkpt lat="43.146939429377646" lon="13.149974944754549"><ele>607.0</ele><time>2026-04-24T16:11:43Z</time></trkpt><trkpt lat="43.14688062872999" lon="13.149852973229228"><ele>607.0</ele><time>2026-04-24T16:11:44Z</time></trkpt><trkpt lat="43.146816430242524" lon="13.14973278380759"><ele>607.0</ele><time>2026-04-24T16:11:45Z</time></trkpt><trkpt lat="43.14676758520741" lon="13.14962971592887"><ele>607.0</ele><time>2026-04-24T16:11:46Z</time></trkpt><trkpt lat="43.14673749546646" lon="13.149530111029014"><ele>607.0</ele><time>2026-04-24T16:11:47Z</time></trkpt><trkpt lat="43.14671372150264" lon="13.149430382046534"><ele>607.0</ele><time>2026-04-24T16:11:48Z</time></trkpt><trkpt lat="43.146689373125355" lon="13.149350525747664"><ele>607.0</ele><time>2026-04-24T16:11:49Z</time></trkpt><trkpt lat="43.14659909137016" lon="13.149255085756732"><ele>603.8333333333334</ele><time>2026-04-24T16:11:51Z</time></trkpt><trkpt lat="43.14648015327547" lon="13.14920830526857"><ele>600.6666666666667</ele><time>2026-04-24T16:11:53Z</time></trkpt><trkpt lat="43.146419072459146" lon="13.149110236461848"><ele>597.5</ele><time>2026-04-24T16:11:55Z</time></trkpt><trkpt lat="43.14641958672361" lon="13.149018945192367"><ele>594.3333333333334</ele><time>2026-04-24T16:11:56Z</time></trkpt><trkpt lat="43.14643104681545" lon="13.148925887558638"><ele>591.1666666666666</ele><time>2026-04-24T16:11:57Z</time></trkpt><trkpt lat="43.146452359397195" lon="13.148804152295735"><ele>588.0</ele><time>2026-04-24T16:11:58Z</time></trkpt><trkpt lat="43.14647203904207" lon="13.14868332671952"><ele>588.0</ele><time>2026-04-24T16:11:59Z</time></trkpt><trkpt lat="43.146500049687376" lon="13.148548335627588"><ele>588.0</ele><time>2026-04-24T16:12:00Z</time></trkpt><trkpt lat="43.14653650453524" lon="13.14841407728474"><ele>588.0</ele><time>2026-04-24T16:12:01Z</time></trkpt><trkpt lat="43.14658531670636" lon="13.148278270328673"><ele>588.0</ele><time>2026-04-24T16:12:02Z</time></trkpt><trkpt lat="43.14664808084166" lon="13.148142596853777"><ele>588.0</ele><time>2026-04-24T16:12:03Z</time></trkpt><trkpt lat="43.14670380528465" lon="13.148003363791544"><ele>588.6</ele><time>2026-04-24T16:12:04Z</time></trkpt><trkpt lat="43.146734596422355" lon="13.14786654611925"><ele>589.1999999999999</ele><time>2026-04-24T16:12:05Z</time></trkpt><trkpt lat="43.14674973519533" lon="13.147719709356261"><ele>589.8</ele><time>2026-04-24T16:12:06Z</time></trkpt><trkpt lat="43.14676806044679" lon="13.14757765861364"><ele>590.4</ele><time>2026-04-24T16:12:07Z</time></trkpt><trkpt lat="43.14680750961558" lon="13.14746205184807"><ele>591.0</ele><time>2026-04-24T16:12:08Z</time></trkpt><trkpt lat="43.14686322965616" lon="13.147368957813802"><ele>589.0</ele><time>2026-04-24T16:12:09Z</time></trkpt><trkpt lat="43.14692939985317" lon="13.147273276977078"><ele>587.0</ele><time>2026-04-24T16:12:10Z</time></trkpt><trkpt lat="43.14699388617422" lon="13.147176726609095"><ele>585.0</ele><time>2026-04-24T16:12:10.999Z</time></trkpt><trkpt lat="43.147052242537065" lon="13.147067505592535"><ele>583.0</ele><time>2026-04-24T16:12:11.999Z</time></trkpt><trkpt lat="43.14709574813946" lon="13.146938096830873"><ele>581.0</ele><time>2026-04-24T16:12:12.999Z</time></trkpt><trkpt lat="43.14711195644343" lon="13.146806671944123"><ele>581.0</ele><time>2026-04-24T16:12:13.999Z</time></trkpt><trkpt lat="43.14710509435577" lon="13.146680352373433"><ele>581.0</ele><time>2026-04-24T16:12:14.999Z</time></trkpt><trkpt lat="43.14707262232887" lon="13.146547848757708"><ele>581.0</ele><time>2026-04-24T16:12:15.999Z</time></trkpt><trkpt lat="43.14703620060228" lon="13.146421856161409"><ele>581.0</ele><time>2026-04-24T16:12:16.999Z</time></trkpt><trkpt lat="43.14701233457961" lon="13.146293583399048"><ele>581.0</ele><time>2026-04-24T16:12:17.999Z</time></trkpt><trkpt lat="43.14700676283667" lon="13.146168965766691"><ele>579.0</ele><time>2026-04-24T16:12:18.999Z</time></trkpt><trkpt lat="43.1470133804061" lon="13.146037812315603"><ele>577.0</ele><time>2026-04-24T16:12:19.999Z</time></trkpt><trkpt lat="43.14703094617735" lon="13.14587952811377"><ele>575.0</ele><time>2026-04-24T16:12:20.999Z</time></trkpt><trkpt lat="43.14706023374596" lon="13.145701239190878"><ele>573.0</ele><time>2026-04-24T16:12:21.999Z</time></trkpt><trkpt lat="43.14709560427961" lon="13.145525494878889"><ele>570.5</ele><time>2026-04-24T16:12:22.999Z</time></trkpt><trkpt lat="43.147126844287776" lon="13.145358496568829"><ele>568.0</ele><time>2026-04-24T16:12:23.999Z</time></trkpt><trkpt lat="43.14715983723189" lon="13.145196492782668"><ele>565.5</ele><time>2026-04-24T16:12:24.999Z</time></trkpt><trkpt lat="43.14719167581599" lon="13.145033953059384"><ele>563.0</ele><time>2026-04-24T16:12:25.999Z</time></trkpt><trkpt lat="43.147228087558595" lon="13.144874718831666"><ele>561.5</ele><time>2026-04-24T16:12:26.999Z</time></trkpt><trkpt lat="43.147273186009485" lon="13.144723006744224"><ele>560.0</ele><time>2026-04-24T16:12:27.999Z</time></trkpt><trkpt lat="43.1473215221852" lon="13.144573970374251"><ele>558.5</ele><time>2026-04-24T16:12:28.999Z</time></trkpt><trkpt lat="43.147371034541266" lon="13.14442725418643"><ele>557.0</ele><time>2026-04-24T16:12:29.999Z</time></trkpt><trkpt lat="43.14741961407731" lon="13.144280915286759"><ele>563.25</ele><time>2026-04-24T16:12:30.999Z</time></trkpt><trkpt lat="43.14745990575144" lon="13.144136871578493"><ele>569.5</ele><time>2026-04-24T16:12:31.999Z</time></trkpt><trkpt lat="43.147490724509716" lon="13.143987928321733"><ele>575.75</ele><time>2026-04-24T16:12:32.999Z</time></trkpt><trkpt lat="43.147511664782535" lon="13.143831136293747"><ele>582.0</ele><time>2026-04-24T16:12:33.999Z</time></trkpt><trkpt lat="43.14753287540732" lon="13.143667240561827"><ele>582.0</ele><time>2026-04-24T16:12:34.999Z</time></trkpt><trkpt lat="43.14755474183814" lon="13.143502656274338"><ele>582.0</ele><time>2026-04-24T16:12:35.999Z</time></trkpt><trkpt lat="43.14757781250586" lon="13.14332903652501"><ele>582.0</ele><time>2026-04-24T16:12:36.999Z</time></trkpt><trkpt lat="43.14760444146819" lon="13.143158463847547"><ele>582.0</ele><time>2026-04-24T16:12:37.999Z</time></trkpt><trkpt lat="43.14763851796974" lon="13.14298591665497"><ele>580.4</ele><time>2026-04-24T16:12:38.999Z</time></trkpt><trkpt lat="43.1476775413414" lon="13.142833867292786"><ele>578.8000000000001</ele><time>2026-04-24T16:12:39.999Z</time></trkpt><trkpt lat="43.147715772202886" lon="13.142693429726531"><ele>577.2</ele><time>2026-04-24T16:12:40.999Z</time></trkpt><trkpt lat="43.14774188810517" lon="13.142551144738366"><ele>575.6</ele><time>2026-04-24T16:12:41.999Z</time></trkpt><trkpt lat="43.147751088726274" lon="13.14241103214645"><ele>574.0</ele><time>2026-04-24T16:12:42.999Z</time></trkpt><trkpt lat="43.14775040852952" lon="13.142277610633284"><ele>572.6666666666667</ele><time>2026-04-24T16:12:43.999Z</time></trkpt><trkpt lat="43.147747865374434" lon="13.142154871984777"><ele>571.3333333333334</ele><time>2026-04-24T16:12:44.999Z</time></trkpt><trkpt lat="43.14774868486949" lon="13.142040383964977"><ele>570.0</ele><time>2026-04-24T16:12:45.999Z</time></trkpt><trkpt lat="43.14775566923938" lon="13.141928644301656"><ele>568.6666666666666</ele><time>2026-04-24T16:12:46.999Z</time></trkpt><trkpt lat="43.147758205265234" lon="13.141836382004914"><ele>567.3333333333333</ele><time>2026-04-24T16:12:47.999Z</time></trkpt><trkpt lat="43.147688976560396" lon="13.14180546134033"><ele>566.0</ele><time>2026-04-24T16:12:50.999Z</time></trkpt><trkpt lat="43.147662211195005" lon="13.14189066537532"><ele>566.0</ele><time>2026-04-24T16:12:52.999Z</time></trkpt><trkpt lat="43.14765491487124" lon="13.141978659397257"><ele>566.0</ele><time>2026-04-24T16:12:53.999Z</time></trkpt><trkpt lat="43.147647966055445" lon="13.142090827048674"><ele>566.0</ele><time>2026-04-24T16:12:54.999Z</time></trkpt><trkpt lat="43.14763656385785" lon="13.142209357343177"><ele>566.0</ele><time>2026-04-24T16:12:55.999Z</time></trkpt><trkpt lat="43.14762490633368" lon="13.142334902152983"><ele>566.0</ele><time>2026-04-24T16:12:56.999Z</time></trkpt><trkpt lat="43.14760593103651" lon="13.142457200398425"><ele>566.0</ele><time>2026-04-24T16:12:57.999Z</time></trkpt><trkpt lat="43.14758507887912" lon="13.142590407489406"><ele>567.6</ele><time>2026-04-24T16:12:58.999Z</time></trkpt><trkpt lat="43.14754908495754" lon="13.142711901693742"><ele>569.2</ele><time>2026-04-24T16:12:59.999Z</time></trkpt><trkpt lat="43.14750033469028" lon="13.142830502653862"><ele>570.8</ele><time>2026-04-24T16:13:00.999Z</time></trkpt><trkpt lat="43.14743802342749" lon="13.142941571781122"><ele>572.4</ele><time>2026-04-24T16:13:01.999Z</time></trkpt><trkpt lat="43.14737204239996" lon="13.14305623478548"><ele>574.0</ele><time>2026-04-24T16:13:02.999Z</time></trkpt><trkpt lat="43.14730376773424" lon="13.143176318792772"><ele>568.0</ele><time>2026-04-24T16:13:03.999Z</time></trkpt><trkpt lat="43.14722800355666" lon="13.143294042919454"><ele>562.0</ele><time>2026-04-24T16:13:04.999Z</time></trkpt><trkpt lat="43.14714787986122" lon="13.143418120864382"><ele>556.0</ele><time>2026-04-24T16:13:05.999Z</time></trkpt><trkpt lat="43.14706904806099" lon="13.14353213559567"><ele>550.0</ele><time>2026-04-24T16:13:06.999Z</time></trkpt><trkpt lat="43.14699452143059" lon="13.143643564638063"><ele>550.0</ele><time>2026-04-24T16:13:07.999Z</time></trkpt><trkpt lat="43.14692181236193" lon="13.143756690864663"><ele>550.0</ele><time>2026-04-24T16:13:08.999Z</time></trkpt><trkpt lat="43.146860560493266" lon="13.143872659860945"><ele>550.0</ele><time>2026-04-24T16:13:09.999Z</time></trkpt><trkpt lat="43.14681028663413" lon="13.143997984267594"><ele>550.0</ele><time>2026-04-24T16:13:10.999Z</time></trkpt><trkpt lat="43.14677729703006" lon="13.144117214385517"><ele>550.0</ele><time>2026-04-24T16:13:11.999Z</time></trkpt><trkpt lat="43.14674818246081" lon="13.14421150168535"><ele>550.0</ele><time>2026-04-24T16:13:12.999Z</time></trkpt><trkpt lat="43.14665459433396" lon="13.14427773795863"><ele>550.0</ele><time>2026-04-24T16:13:15Z</time></trkpt><trkpt lat="43.146597168505714" lon="13.144156618532433"><ele>550.0</ele><time>2026-04-24T16:13:17Z</time></trkpt><trkpt lat="43.14661186143414" lon="13.144052617885238"><ele>550.0</ele><time>2026-04-24T16:13:18Z</time></trkpt><trkpt lat="43.14662914864693" lon="13.143938963643352"><ele>550.0</ele><time>2026-04-24T16:13:19Z</time></trkpt><trkpt lat="43.14665002876535" lon="13.14380476126976"><ele>550.0</ele><time>2026-04-24T16:13:20Z</time></trkpt><trkpt lat="43.14666752400045" lon="13.143652819900248"><ele>550.0</ele><time>2026-04-24T16:13:21Z</time></trkpt><trkpt lat="43.14668567880592" lon="13.143479400145466"><ele>550.0</ele><time>2026-04-24T16:13:22Z</time></trkpt><trkpt lat="43.14669872575436" lon="13.143321307118216"><ele>550.0</ele><time>2026-04-24T16:13:23Z</time></trkpt><trkpt lat="43.14671188750102" lon="13.143159065300061"><ele>547.75</ele><time>2026-04-24T16:13:24Z</time></trkpt><trkpt lat="43.146725814899725" lon="13.142989308530586"><ele>545.5</ele><time>2026-04-24T16:13:25Z</time></trkpt><trkpt lat="43.146744237073065" lon="13.142817545601668"><ele>543.25</ele><time>2026-04-24T16:13:26Z</time></trkpt><trkpt lat="43.14676646983228" lon="13.142645680806398"><ele>541.0</ele><time>2026-04-24T16:13:27Z</time></trkpt><trkpt lat="43.14678486625712" lon="13.142477373281558"><ele>539.25</ele><time>2026-04-24T16:13:28Z</time></trkpt><trkpt lat="43.14680047009759" lon="13.142311645248915"><ele>537.5</ele><time>2026-04-24T16:13:29Z</time></trkpt><trkpt lat="43.146814912712635" lon="13.142139310569515"><ele>535.75</ele><time>2026-04-24T16:13:30Z</time></trkpt><trkpt lat="43.14682583909875" lon="13.141978506440175"><ele>534.0</ele><time>2026-04-24T16:13:31Z</time></trkpt><trkpt lat="43.146835353604786" lon="13.141821804833597"><ele>534.0</ele><time>2026-04-24T16:13:32Z</time></trkpt><trkpt lat="43.14683265057167" lon="13.141675569402873"><ele>534.0</ele><time>2026-04-24T16:13:33Z</time></trkpt><trkpt lat="43.14682212115006" lon="13.141520179269559"><ele>534.0</ele><time>2026-04-24T16:13:34Z</time></trkpt><trkpt lat="43.14681351252834" lon="13.141363304604171"><ele>534.0</ele><time>2026-04-24T16:13:35Z</time></trkpt><trkpt lat="43.14680654451789" lon="13.141204026221649"><ele>532.8</ele><time>2026-04-24T16:13:36Z</time></trkpt><trkpt lat="43.146800422500256" lon="13.141055992258227"><ele>531.5999999999999</ele><time>2026-04-24T16:13:37Z</time></trkpt><trkpt lat="43.14680957321353" lon="13.140925649465656"><ele>530.4</ele><time>2026-04-24T16:13:38Z</time></trkpt><trkpt lat="43.14684035936278" lon="13.14080709496453"><ele>529.1999999999999</ele><time>2026-04-24T16:13:39Z</time></trkpt><trkpt lat="43.14688675012869" lon="13.140686900142041"><ele>528.0</ele><time>2026-04-24T16:13:40Z</time></trkpt><trkpt lat="43.14694557975671" lon="13.140559425083529"><ele>525.0</ele><time>2026-04-24T16:13:41Z</time></trkpt><trkpt lat="43.14701690712988" lon="13.14044497080066"><ele>522.0</ele><time>2026-04-24T16:13:42Z</time></trkpt><trkpt lat="43.14708918040641" lon="13.140345052131716"><ele>519.0</ele><time>2026-04-24T16:13:43Z</time></trkpt><trkpt lat="43.14715695843492" lon="13.140253263919774"><ele>516.0</ele><time>2026-04-24T16:13:44Z</time></trkpt><trkpt lat="43.14721435142461" lon="13.140171061594609"><ele>513.0</ele><time>2026-04-24T16:13:45Z</time></trkpt><trkpt lat="43.1472618005165" lon="13.140105354577665"><ele>513.0</ele><time>2026-04-24T16:13:46Z</time></trkpt><trkpt lat="43.147328278066496" lon="13.140007976002348"><ele>513.0</ele><time>2026-04-24T16:13:48Z</time></trkpt><trkpt lat="43.14727731724738" lon="13.140086320454026"><ele>513.0</ele><time>2026-04-24T16:14:05Z</time></trkpt><trkpt lat="43.147222919144525" lon="13.14016255561051"><ele>513.0</ele><time>2026-04-24T16:14:07Z</time></trkpt><trkpt lat="43.14715401222783" lon="13.140249642538043"><ele>513.0</ele><time>2026-04-24T16:14:09Z</time></trkpt><trkpt lat="43.1471072724531" lon="13.140316711512153"><ele>513.0</ele><time>2026-04-24T16:14:10Z</time></trkpt><trkpt lat="43.147053167026826" lon="13.14039674387917"><ele>513.0</ele><time>2026-04-24T16:14:11Z</time></trkpt><trkpt lat="43.14697900887906" lon="13.140510594882318"><ele>513.0</ele><time>2026-04-24T16:14:13Z</time></trkpt><trkpt lat="43.14691097503497" lon="13.140640756430562"><ele>513.0</ele><time>2026-04-24T16:14:15Z</time></trkpt><trkpt lat="43.14685588530463" lon="13.14077772013143"><ele>513.0</ele><time>2026-04-24T16:14:17Z</time></trkpt><trkpt lat="43.146817166969335" lon="13.14092454347914"><ele>516.0</ele><time>2026-04-24T16:14:19Z</time></trkpt><trkpt lat="43.14679811823485" lon="13.141082108742683"><ele>519.0</ele><time>2026-04-24T16:14:21Z</time></trkpt><trkpt lat="43.14680409386401" lon="13.141237327076595"><ele>522.0</ele><time>2026-04-24T16:14:23Z</time></trkpt><trkpt lat="43.146820232727606" lon="13.141370269286824"><ele>525.0</ele><time>2026-04-24T16:14:25Z</time></trkpt><trkpt lat="43.14683521093894" lon="13.141520265789572"><ele>528.0</ele><time>2026-04-24T16:14:27Z</time></trkpt><trkpt lat="43.14683511165713" lon="13.141688613829382"><ele>529.0</ele><time>2026-04-24T16:14:28.999Z</time></trkpt><trkpt lat="43.14683127519166" lon="13.141781947388564"><ele>530.0</ele><time>2026-04-24T16:14:29.999Z</time></trkpt><trkpt lat="43.14683076288406" lon="13.141871458528003"><ele>531.0</ele><time>2026-04-24T16:14:30.999Z</time></trkpt><trkpt lat="43.14683082787676" lon="13.14196709395841"><ele>532.0</ele><time>2026-04-24T16:14:31.999Z</time></trkpt><trkpt lat="43.14681898711605" lon="13.1421111449276"><ele>533.0</ele><time>2026-04-24T16:14:33.999Z</time></trkpt><trkpt lat="43.146821399259515" lon="13.142258213838796"><ele>534.0</ele><time>2026-04-24T16:14:35.999Z</time></trkpt><trkpt lat="43.146758269070325" lon="13.142254803558467"><ele>534.0</ele><time>2026-04-24T16:15:15.999Z</time></trkpt><trkpt lat="43.146746315956094" lon="13.142153334197808"><ele>534.0</ele><time>2026-04-24T16:15:17.999Z</time></trkpt><trkpt lat="43.14672591923661" lon="13.142008785880012"><ele>534.0</ele><time>2026-04-24T16:15:19.999Z</time></trkpt><trkpt lat="43.14683216328589" lon="13.141847203709943"><ele>534.0</ele><time>2026-04-24T16:15:22Z</time></trkpt><trkpt lat="43.14683209917234" lon="13.14175806877281"><ele>534.0</ele><time>2026-04-24T16:15:23Z</time></trkpt><trkpt lat="43.146827050135144" lon="13.141599940844513"><ele>532.8</ele><time>2026-04-24T16:15:25Z</time></trkpt><trkpt lat="43.14682060134287" lon="13.141452795231496"><ele>531.5999999999999</ele><time>2026-04-24T16:15:27Z</time></trkpt><trkpt lat="43.14681434668557" lon="13.141310079837012"><ele>530.4</ele><time>2026-04-24T16:15:29Z</time></trkpt><trkpt lat="43.146812866487885" lon="13.141158217340761"><ele>529.1999999999999</ele><time>2026-04-24T16:15:31Z</time></trkpt><trkpt lat="43.14681120315256" lon="13.14107080700627"><ele>528.0</ele><time>2026-04-24T16:15:32Z</time></trkpt><trkpt lat="43.146819623057745" lon="13.140959878127537"><ele>528.0</ele><time>2026-04-24T16:15:34Z</time></trkpt><trkpt lat="43.14684512062664" lon="13.140813450653585"><ele>528.0</ele><time>2026-04-24T16:15:36Z</time></trkpt><trkpt lat="43.14687774424594" lon="13.140734548649101"><ele>528.0</ele><time>2026-04-24T16:15:38Z</time></trkpt><trkpt lat="43.146916355468846" lon="13.140633108417779"><ele>528.0</ele><time>2026-04-24T16:15:40Z</time></trkpt><trkpt lat="43.146972439816" lon="13.140510953936623"><ele>528.0</ele><time>2026-04-24T16:15:42Z</time></trkpt><trkpt lat="43.147021344642965" lon="13.14042233260302"><ele>528.0</ele><time>2026-04-24T16:15:45Z</time></trkpt><trkpt lat="43.147096520441885" lon="13.140302693482559"><ele>523.0</ele><time>2026-04-24T16:15:47Z</time></trkpt><trkpt lat="43.147187995804934" lon="13.140197146113204"><ele>518.0</ele><time>2026-04-24T16:15:49Z</time></trkpt><trkpt lat="43.14723779449054" lon="13.140122043806096"><ele>513.0</ele><time>2026-04-24T16:15:50Z</time></trkpt><trkpt lat="43.14677797558736" lon="13.139422571801939"><ele>510.4</ele><time>2026-04-24T16:15:51Z</time></trkpt><trkpt lat="43.14679807228565" lon="13.13925465029917"><ele>507.79999999999995</ele><time>2026-04-24T16:15:53Z</time></trkpt><trkpt lat="43.14680994667586" lon="13.139073517194747"><ele>505.2</ele><time>2026-04-24T16:15:55Z</time></trkpt><trkpt lat="43.146818035405055" lon="13.138970563455642"><ele>502.6</ele><time>2026-04-24T16:15:56Z</time></trkpt><trkpt lat="43.146836414741585" lon="13.138876694494158"><ele>500.0</ele><time>2026-04-24T16:15:57Z</time></trkpt><trkpt lat="43.14685975559623" lon="13.138708934261217"><ele>498.16666666666663</ele><time>2026-04-24T16:15:59Z</time></trkpt><trkpt lat="43.14686447292965" lon="13.138622527676791"><ele>496.3333333333333</ele><time>2026-04-24T16:16:00Z</time></trkpt><trkpt lat="43.14686166196532" lon="13.138535703855727"><ele>494.5</ele><time>2026-04-24T16:16:01Z</time></trkpt><trkpt lat="43.146850265146064" lon="13.138442469565"><ele>492.66666666666663</ele><time>2026-04-24T16:16:02Z</time></trkpt><trkpt lat="43.14683869034708" lon="13.138351733536608"><ele>490.8333333333333</ele><time>2026-04-24T16:16:03Z</time></trkpt><trkpt lat="43.14679253019219" lon="13.13819990718084"><ele>489.0</ele><time>2026-04-24T16:16:05Z</time></trkpt><trkpt lat="43.14676860059882" lon="13.138114531802817"><ele>487.6666666666667</ele><time>2026-04-24T16:16:06Z</time></trkpt><trkpt lat="43.14675002547999" lon="13.138027355351491"><ele>486.33333333333337</ele><time>2026-04-24T16:16:07Z</time></trkpt><trkpt lat="43.14673533252082" lon="13.137934989791203"><ele>485.0</ele><time>2026-04-24T16:16:08Z</time></trkpt><trkpt lat="43.146720354095336" lon="13.137849856153865"><ele>483.6666666666667</ele><time>2026-04-24T16:16:09Z</time></trkpt><trkpt lat="43.146698301418894" lon="13.137704316533851"><ele>482.33333333333337</ele><time>2026-04-24T16:16:11Z</time></trkpt><trkpt lat="43.146665441867206" lon="13.137542840855758"><ele>481.0</ele><time>2026-04-24T16:16:13Z</time></trkpt><trkpt lat="43.146637309305646" lon="13.13739098859457"><ele>480.1666666666667</ele><time>2026-04-24T16:16:15Z</time></trkpt><trkpt lat="43.14660607422168" lon="13.137247517566669"><ele>479.33333333333337</ele><time>2026-04-24T16:16:17Z</time></trkpt><trkpt lat="43.146583312762786" lon="13.13712968397544"><ele>478.5</ele><time>2026-04-24T16:16:19Z</time></trkpt><trkpt lat="43.14655839484651" lon="13.137034372747694"><ele>477.66666666666663</ele><time>2026-04-24T16:16:21Z</time></trkpt><trkpt lat="43.14653238215395" lon="13.1369163503814"><ele>476.8333333333333</ele><time>2026-04-24T16:16:23Z</time></trkpt><trkpt lat="43.1465346953861" lon="13.136809540522146"><ele>476.0</ele><time>2026-04-24T16:16:25Z</time></trkpt><trkpt lat="43.1465334095033" lon="13.136713589885556"><ele>471.49999999999994</ele><time>2026-04-24T16:16:27Z</time></trkpt><trkpt lat="43.146516136864115" lon="13.136615361233398"><ele>467.0</ele><time>2026-04-24T16:17:02.999Z</time></trkpt><trkpt lat="43.146510561259035" lon="13.136525036932222"><ele>462.5</ele><time>2026-04-24T16:17:04.999Z</time></trkpt><trkpt lat="43.146501114091045" lon="13.136429205567685"><ele>458.0</ele><time>2026-04-24T16:17:06.999Z</time></trkpt><trkpt lat="43.146497272408624" lon="13.136320425031156"><ele>453.49999999999994</ele><time>2026-04-24T16:17:09.999Z</time></trkpt><trkpt lat="43.14649213320493" lon="13.13622769425648"><ele>449.0</ele><time>2026-04-24T16:17:11.999Z</time></trkpt><trkpt lat="43.14647916186444" lon="13.136089571726526"><ele>448.16666666666663</ele><time>2026-04-24T16:17:14.999Z</time></trkpt><trkpt lat="43.14646993929186" lon="13.135977112945943"><ele>447.3333333333333</ele><time>2026-04-24T16:17:17.999Z</time></trkpt><trkpt lat="43.14646574058793" lon="13.135875910050048"><ele>446.5</ele><time>2026-04-24T16:17:19.999Z</time></trkpt><trkpt lat="43.146452262485454" lon="13.135771171493541"><ele>445.66666666666663</ele><time>2026-04-24T16:17:21.999Z</time></trkpt><trkpt lat="43.14644704122082" lon="13.135630177841085"><ele>444.8333333333333</ele><time>2026-04-24T16:17:24.999Z</time></trkpt><trkpt lat="43.14645494006686" lon="13.135522355894029"><ele>444.0</ele><time>2026-04-24T16:17:27Z</time></trkpt><trkpt lat="43.14646004845417" lon="13.135399416626068"><ele>442.1666666666667</ele><time>2026-04-24T16:17:36Z</time></trkpt><trkpt lat="43.146509604177666" lon="13.135280627065471"><ele>440.33333333333337</ele><time>2026-04-24T16:17:39Z</time></trkpt><trkpt lat="43.146516403201474" lon="13.135157839958609"><ele>438.5</ele><time>2026-04-24T16:17:42Z</time></trkpt><trkpt lat="43.146511469894904" lon="13.135067834450442"><ele>436.6666666666667</ele><time>2026-04-24T16:17:44Z</time></trkpt><trkpt lat="43.14652526199948" lon="13.13497388240763"><ele>434.83333333333337</ele><time>2026-04-24T16:17:46Z</time></trkpt><trkpt lat="43.14653179698774" lon="13.134872600068725"><ele>433.0</ele><time>2026-04-24T16:17:48Z</time></trkpt><trkpt lat="43.14654205575058" lon="13.134783515659551"><ele>435.50000000000006</ele><time>2026-04-24T16:17:50Z</time></trkpt><trkpt lat="43.146548606163456" lon="13.134696629167951"><ele>438.0</ele><time>2026-04-24T16:17:52Z</time></trkpt><trkpt lat="43.146546517380514" lon="13.134586879737885"><ele>440.5</ele><time>2026-04-24T16:17:54Z</time></trkpt><trkpt lat="43.14653906780486" lon="13.134474946517384"><ele>443.0</ele><time>2026-04-24T16:17:57Z</time></trkpt><trkpt lat="43.146531440836334" lon="13.134383019626394"><ele>445.50000000000006</ele><time>2026-04-24T16:17:59Z</time></trkpt><trkpt lat="43.14650821367875" lon="13.134257093135382"><ele>448.0</ele><time>2026-04-24T16:18:02Z</time></trkpt><trkpt lat="43.14649834596957" lon="13.134153359188447"><ele>440.33333333333337</ele><time>2026-04-24T16:18:05Z</time></trkpt><trkpt lat="43.146505826272616" lon="13.1340229056752"><ele>432.6666666666667</ele><time>2026-04-24T16:18:08Z</time></trkpt><trkpt lat="43.14651823970951" lon="13.133914508198423"><ele>425.0</ele><time>2026-04-24T16:18:11Z</time></trkpt><trkpt lat="43.1465317503111" lon="13.133810300094991"><ele>417.33333333333337</ele><time>2026-04-24T16:18:13Z</time></trkpt><trkpt lat="43.146536243219856" lon="13.133699533381474"><ele>409.6666666666667</ele><time>2026-04-24T16:18:16Z</time></trkpt><trkpt lat="43.14649396065707" lon="13.133633711456426"><ele>402.0</ele><time>2026-04-24T16:18:21Z</time></trkpt><trkpt lat="43.146411870630146" lon="13.133688258128585"><ele>402.0</ele><time>2026-04-24T16:18:24Z</time></trkpt><trkpt lat="43.146347052157246" lon="13.133687105603572"><ele>402.0</ele><time>2026-04-24T16:18:26Z</time></trkpt><trkpt lat="43.146274686582885" lon="13.133702728528478"><ele>402.0</ele><time>2026-04-24T16:18:28Z</time></trkpt><trkpt lat="43.146204678909484" lon="13.133757420702725"><ele>402.0</ele><time>2026-04-24T16:18:31Z</time></trkpt><trkpt lat="43.146171913239066" lon="13.133865230110073"><ele>402.0</ele><time>2026-04-24T16:18:34Z</time></trkpt><trkpt lat="43.14613947637994" lon="13.13395741450258"><ele>402.0</ele><time>2026-04-24T16:18:37Z</time></trkpt><trkpt lat="43.146069031490015" lon="13.134004025912349"><ele>402.0</ele><time>2026-04-24T16:18:40Z</time></trkpt><trkpt lat="43.14600104608682" lon="13.13405690637684"><ele>402.0</ele><time>2026-04-24T16:18:44Z</time></trkpt><trkpt lat="43.145935469917426" lon="13.13410520168194"><ele>402.0</ele><time>2026-04-24T16:18:47Z</time></trkpt><trkpt lat="43.14599496982086" lon="13.134022098520823"><ele>402.0</ele><time>2026-04-24T16:19:19.999Z</time></trkpt><trkpt lat="43.146070294470704" lon="13.133965258532902"><ele>402.0</ele><time>2026-04-24T16:19:21.999Z</time></trkpt><trkpt lat="43.14612285179864" lon="13.133866422195139"><ele>402.0</ele><time>2026-04-24T16:19:24.999Z</time></trkpt><trkpt lat="43.146165668022554" lon="13.133735760953021"><ele>402.0</ele><time>2026-04-24T16:19:26.999Z</time></trkpt><trkpt lat="43.146248928803125" lon="13.133653278481153"><ele>402.0</ele><time>2026-04-24T16:19:29.999Z</time></trkpt><trkpt lat="43.14634385366687" lon="13.13360136945503"><ele>402.0</ele><time>2026-04-24T16:19:32Z</time></trkpt><trkpt lat="43.14643884048645" lon="13.13356088515558"><ele>402.0</ele><time>2026-04-24T16:19:34Z</time></trkpt><trkpt lat="43.146346883919016" lon="13.133569280896248"><ele>402.0</ele><time>2026-04-24T16:21:42Z</time></trkpt><trkpt lat="43.146247514835935" lon="13.133605972573486"><ele>402.0</ele><time>2026-04-24T16:21:44Z</time></trkpt><trkpt lat="43.146189277279355" lon="13.133662844766919"><ele>402.0</ele><time>2026-04-24T16:21:46Z</time></trkpt><trkpt lat="43.14616639132905" lon="13.133750630523352"><ele>402.0</ele><time>2026-04-24T16:21:48Z</time></trkpt><trkpt lat="43.14614535853752" lon="13.133832859337849"><ele>402.0</ele><time>2026-04-24T16:21:49Z</time></trkpt><trkpt lat="43.14609315930949" lon="13.133947337972563"><ele>402.0</ele><time>2026-04-24T16:21:51Z</time></trkpt><trkpt lat="43.14600906922564" lon="13.133995815998935"><ele>402.0</ele><time>2026-04-24T16:21:53Z</time></trkpt><trkpt lat="43.145899989049134" lon="13.134077713106809"><ele>400.40000000000003</ele><time>2026-04-24T16:21:55Z</time></trkpt><trkpt lat="43.14580482371968" lon="13.13411956651185"><ele>398.8</ele><time>2026-04-24T16:21:57Z</time></trkpt><trkpt lat="43.145757159487545" lon="13.134208902454548"><ele>397.2</ele><time>2026-04-24T16:21:59Z</time></trkpt><trkpt lat="43.145687403222404" lon="13.134217402630677"><ele>395.6</ele><time>2026-04-24T16:22:01Z</time></trkpt><trkpt lat="43.14558489679914" lon="13.134158610470509"><ele>394.0</ele><time>2026-04-24T16:22:03Z</time></trkpt><trkpt lat="43.14547858713932" lon="13.13414297714203"><ele>394.0</ele><time>2026-04-24T16:22:05Z</time></trkpt><trkpt lat="43.14537883370826" lon="13.134139924050537"><ele>394.0</ele><time>2026-04-24T16:22:07Z</time></trkpt><trkpt lat="43.14528036241951" lon="13.134140430267596"><ele>394.0</ele><time>2026-04-24T16:22:09Z</time></trkpt><trkpt lat="43.14517070387777" lon="13.13414588186047"><ele>394.0</ele><time>2026-04-24T16:22:11Z</time></trkpt><trkpt lat="43.14512867508047" lon="13.134051031915911"><ele>394.0</ele><time>2026-04-24T16:22:14Z</time></trkpt><trkpt lat="43.145108018950765" lon="13.133946939280236"><ele>394.0</ele><time>2026-04-24T16:22:17Z</time></trkpt><trkpt lat="43.145143971360234" lon="13.134120992611997"><ele>394.0</ele><time>2026-04-24T16:22:24Z</time></trkpt><trkpt lat="43.14519135797855" lon="13.134188428506576"><ele>394.0</ele><time>2026-04-24T16:22:26Z</time></trkpt><trkpt lat="43.14525241116989" lon="13.13415979791881"><ele>394.0</ele><time>2026-04-24T16:22:27Z</time></trkpt><trkpt lat="43.14534311519973" lon="13.134153774950391"><ele>394.0</ele><time>2026-04-24T16:22:29Z</time></trkpt><trkpt lat="43.14547625207682" lon="13.134153082844067"><ele>394.0</ele><time>2026-04-24T16:22:31Z</time></trkpt><trkpt lat="43.145548770085206" lon="13.134168964331234"><ele>394.0</ele><time>2026-04-24T16:22:32Z</time></trkpt><trkpt lat="43.145669743968746" lon="13.134221450392914"><ele>394.0</ele><time>2026-04-24T16:22:34Z</time></trkpt><trkpt lat="43.145777943332575" lon="13.134211325503436"><ele>394.0</ele><time>2026-04-24T16:22:36Z</time></trkpt><trkpt lat="43.14586077895038" lon="13.134079034658454"><ele>394.0</ele><time>2026-04-24T16:22:38Z</time></trkpt><trkpt lat="43.14598197750271" lon="13.134032481757261"><ele>395.6</ele><time>2026-04-24T16:22:40Z</time></trkpt><trkpt lat="43.14605840089501" lon="13.13397269690636"><ele>397.2</ele><time>2026-04-24T16:22:41Z</time></trkpt><trkpt lat="43.14614368503928" lon="13.133899289355288"><ele>398.8</ele><time>2026-04-24T16:22:43Z</time></trkpt><trkpt lat="43.146164596037224" lon="13.133752623737914"><ele>400.40000000000003</ele><time>2026-04-24T16:22:45Z</time></trkpt><trkpt lat="43.14620760957032" lon="13.133656998268002"><ele>402.0</ele><time>2026-04-24T16:22:47Z</time></trkpt><trkpt lat="43.146293863848335" lon="13.13361415835291"><ele>402.0</ele><time>2026-04-24T16:22:49Z</time></trkpt><trkpt lat="43.14640001555883" lon="13.133569969917438"><ele>402.0</ele><time>2026-04-24T16:22:51Z</time></trkpt><trkpt lat="43.14646403248719" lon="13.133537235135611"><ele>402.0</ele><time>2026-04-24T16:22:53Z</time></trkpt><trkpt lat="43.146339826784605" lon="13.13356871005555"><ele>402.0</ele><time>2026-04-24T16:23:29.999Z</time></trkpt><trkpt lat="43.14625252992649" lon="13.133614128147636"><ele>402.0</ele><time>2026-04-24T16:23:31.999Z</time></trkpt><trkpt lat="43.146199547231426" lon="13.133662755266739"><ele>402.0</ele><time>2026-04-24T16:23:33.999Z</time></trkpt><trkpt lat="43.14616322133206" lon="13.13377608490625"><ele>402.0</ele><time>2026-04-24T16:23:36.999Z</time></trkpt><trkpt lat="43.146119147098766" lon="13.133886125845347"><ele>402.0</ele><time>2026-04-24T16:23:39.999Z</time></trkpt><trkpt lat="43.146065876044645" lon="13.133954386135292"><ele>402.0</ele><time>2026-04-24T16:23:50Z</time></trkpt><trkpt lat="43.14598476578893" lon="13.134002305107884"><ele>402.0</ele><time>2026-04-24T16:23:53Z</time></trkpt><trkpt lat="43.14590823799465" lon="13.134070319309808"><ele>402.0</ele><time>2026-04-24T16:23:55Z</time></trkpt><trkpt lat="43.14583721982035" lon="13.134107999632981"><ele>400.6666666666667</ele><time>2026-04-24T16:23:57Z</time></trkpt><trkpt lat="43.145781773311406" lon="13.134167957812803"><ele>399.33333333333337</ele><time>2026-04-24T16:23:59Z</time></trkpt><trkpt lat="43.14571986959603" lon="13.134231648434437"><ele>398.0</ele><time>2026-04-24T16:24:01Z</time></trkpt><trkpt lat="43.14563992534097" lon="13.134202632059466"><ele>396.6666666666667</ele><time>2026-04-24T16:24:03Z</time></trkpt><trkpt lat="43.14556034931344" lon="13.134154856982033"><ele>395.33333333333337</ele><time>2026-04-24T16:24:05Z</time></trkpt><trkpt lat="43.14545917821909" lon="13.134147279834027"><ele>394.0</ele><time>2026-04-24T16:24:07Z</time></trkpt><trkpt lat="43.14535230126522" lon="13.134148005441387"><ele>394.00000000000006</ele><time>2026-04-24T16:24:09Z</time></trkpt><trkpt lat="43.14525484712082" lon="13.134143104963076"><ele>394.0</ele><time>2026-04-24T16:24:11Z</time></trkpt><trkpt lat="43.145159881782334" lon="13.1341398767891"><ele>394.0</ele><time>2026-04-24T16:24:13Z</time></trkpt><trkpt lat="43.1451355933875" lon="13.134040168436893"><ele>394.0</ele><time>2026-04-24T16:24:15Z</time></trkpt><trkpt lat="43.145123823046035" lon="13.13394870709514"><ele>394.00000000000006</ele><time>2026-04-24T16:24:17Z</time></trkpt><trkpt lat="43.14507173765422" lon="13.133999250005198"><ele>394.0</ele><time>2026-04-24T16:25:02Z</time></trkpt><trkpt lat="43.14504329696219" lon="13.134151996302974"><ele>394.0</ele><time>2026-04-24T16:25:04Z</time></trkpt><trkpt lat="43.14502185437556" lon="13.134264506875141"><ele>394.0</ele><time>2026-04-24T16:25:05Z</time></trkpt><trkpt lat="43.14499222457263" lon="13.134388438055826"><ele>394.0</ele><time>2026-04-24T16:25:06Z</time></trkpt><trkpt lat="43.14495915554025" lon="13.134530703712294"><ele>394.0</ele><time>2026-04-24T16:25:07Z</time></trkpt><trkpt lat="43.14491743769931" lon="13.13466694479968"><ele>394.0</ele><time>2026-04-24T16:25:08Z</time></trkpt><trkpt lat="43.14487385144419" lon="13.134785391641918"><ele>397.0</ele><time>2026-04-24T16:25:09Z</time></trkpt><trkpt lat="43.14482102736389" lon="13.134899115921609"><ele>400.0</ele><time>2026-04-24T16:25:10Z</time></trkpt><trkpt lat="43.144767535820115" lon="13.135009956706392"><ele>403.0</ele><time>2026-04-24T16:25:11Z</time></trkpt><trkpt lat="43.14471830470776" lon="13.13512008769659"><ele>406.0</ele><time>2026-04-24T16:25:12Z</time></trkpt><trkpt lat="43.14467709489096" lon="13.135235638430071"><ele>409.0</ele><time>2026-04-24T16:25:13Z</time></trkpt><trkpt lat="43.144659655842375" lon="13.135353992082283"><ele>409.00000000000006</ele><time>2026-04-24T16:25:14Z</time></trkpt><trkpt lat="43.144658421263436" lon="13.135486364293916"><ele>409.0</ele><time>2026-04-24T16:25:15Z</time></trkpt><trkpt lat="43.144667661898744" lon="13.135616022649497"><ele>409.0</ele><time>2026-04-24T16:25:16Z</time></trkpt><trkpt lat="43.14468253661664" lon="13.135734479054666"><ele>409.0</ele><time>2026-04-24T16:25:17Z</time></trkpt><trkpt lat="43.14469831895959" lon="13.135849949984186"><ele>409.00000000000006</ele><time>2026-04-24T16:25:18Z</time></trkpt><trkpt lat="43.144706050952806" lon="13.135951015972456"><ele>409.0</ele><time>2026-04-24T16:25:19Z</time></trkpt><trkpt lat="43.1447133408973" lon="13.136054544548186"><ele>407.6</ele><time>2026-04-24T16:25:20Z</time></trkpt><trkpt lat="43.14472269778098" lon="13.136163821241759"><ele>406.2</ele><time>2026-04-24T16:25:20.999Z</time></trkpt><trkpt lat="43.144721737592654" lon="13.136283096533282"><ele>404.8</ele><time>2026-04-24T16:25:21.998Z</time></trkpt><trkpt lat="43.14472398826243" lon="13.136401261624009"><ele>403.40000000000003</ele><time>2026-04-24T16:25:22.998Z</time></trkpt><trkpt lat="43.14473699557886" lon="13.13654464128879"><ele>402.0</ele><time>2026-04-24T16:25:23.998Z</time></trkpt><trkpt lat="43.14473366424948" lon="13.136692218929824"><ele>400.0</ele><time>2026-04-24T16:25:24.998Z</time></trkpt><trkpt lat="43.144717967864295" lon="13.136849562174989"><ele>398.0</ele><time>2026-04-24T16:25:25.998Z</time></trkpt><trkpt lat="43.14469107553656" lon="13.13701927794418"><ele>396.0</ele><time>2026-04-24T16:25:26.998Z</time></trkpt><trkpt lat="43.14465958078391" lon="13.137201099035044"><ele>394.0</ele><time>2026-04-24T16:25:27.998Z</time></trkpt><trkpt lat="43.144624800259535" lon="13.137387706136487"><ele>393.0</ele><time>2026-04-24T16:25:28.998Z</time></trkpt><trkpt lat="43.14459013845104" lon="13.137580014760784"><ele>392.0</ele><time>2026-04-24T16:25:29.998Z</time></trkpt><trkpt lat="43.14457122502927" lon="13.137780151042504"><ele>391.0</ele><time>2026-04-24T16:25:30.998Z</time></trkpt><trkpt lat="43.14455009171748" lon="13.13797345001579"><ele>390.0</ele><time>2026-04-24T16:25:31.998Z</time></trkpt><trkpt lat="43.14451482837712" lon="13.13816004825818"><ele>388.5</ele><time>2026-04-24T16:25:32.998Z</time></trkpt><trkpt lat="43.14447323025331" lon="13.138349536209013"><ele>387.0</ele><time>2026-04-24T16:25:33.998Z</time></trkpt><trkpt lat="43.144429176172984" lon="13.138526910846235"><ele>385.5</ele><time>2026-04-24T16:25:34.998Z</time></trkpt><trkpt lat="43.14438664307984" lon="13.138714683928182"><ele>384.0</ele><time>2026-04-24T16:25:35.998Z</time></trkpt><trkpt lat="43.14434045040583" lon="13.138897935547018"><ele>383.5</ele><time>2026-04-24T16:25:36.998Z</time></trkpt><trkpt lat="43.14428659644273" lon="13.139064822731322"><ele>383.0</ele><time>2026-04-24T16:25:37.998Z</time></trkpt><trkpt lat="43.144227110170675" lon="13.13922348626653"><ele>382.5</ele><time>2026-04-24T16:25:38.998Z</time></trkpt><trkpt lat="43.144160142458205" lon="13.139380494311752"><ele>382.0</ele><time>2026-04-24T16:25:39.998Z</time></trkpt><trkpt lat="43.14409154724988" lon="13.139525774819882"><ele>381.5</ele><time>2026-04-24T16:25:40.998Z</time></trkpt><trkpt lat="43.144017703325545" lon="13.139662115267734"><ele>381.0</ele><time>2026-04-24T16:25:41.998Z</time></trkpt><trkpt lat="43.143945857434716" lon="13.139789695018528"><ele>380.5</ele><time>2026-04-24T16:25:42.998Z</time></trkpt><trkpt lat="43.14387384821431" lon="13.139907836302056"><ele>380.0</ele><time>2026-04-24T16:25:43.998Z</time></trkpt><trkpt lat="43.14381812338039" lon="13.14003436684998"><ele>380.0</ele><time>2026-04-24T16:25:44.998Z</time></trkpt><trkpt lat="43.14379513105331" lon="13.140195646082836"><ele>380.0</ele><time>2026-04-24T16:25:45.998Z</time></trkpt><trkpt lat="43.14378187907419" lon="13.140392160330931"><ele>380.0</ele><time>2026-04-24T16:25:46.998Z</time></trkpt><trkpt lat="43.14375852061302" lon="13.14058127557895"><ele>380.0</ele><time>2026-04-24T16:25:47.999Z</time></trkpt><trkpt lat="43.14371621713094" lon="13.140762431216038"><ele>377.75</ele><time>2026-04-24T16:25:48.999Z</time></trkpt><trkpt lat="43.143672996434375" lon="13.14093601864636"><ele>375.5</ele><time>2026-04-24T16:25:49.999Z</time></trkpt><trkpt lat="43.143631112540255" lon="13.14112716369765"><ele>373.25</ele><time>2026-04-24T16:25:50.999Z</time></trkpt><trkpt lat="43.14359295161209" lon="13.141323177501082"><ele>371.0</ele><time>2026-04-24T16:25:51.999Z</time></trkpt><trkpt lat="43.14355379371988" lon="13.141521809828062"><ele>370.75</ele><time>2026-04-24T16:25:52.999Z</time></trkpt><trkpt lat="43.143517821399456" lon="13.1417113625021"><ele>370.5</ele><time>2026-04-24T16:25:53.999Z</time></trkpt><trkpt lat="43.14348373154539" lon="13.141889625023309"><ele>370.25</ele><time>2026-04-24T16:25:54.999Z</time></trkpt><trkpt lat="43.143442325012046" lon="13.14206898397975"><ele>370.0</ele><time>2026-04-24T16:25:55.999Z</time></trkpt><trkpt lat="43.14337657158318" lon="13.142237300261247"><ele>369.5</ele><time>2026-04-24T16:25:56.999Z</time></trkpt><trkpt lat="43.14331152606762" lon="13.142399921436496"><ele>369.0</ele><time>2026-04-24T16:25:57.999Z</time></trkpt><trkpt lat="43.143251146782724" lon="13.14257064716929"><ele>368.5</ele><time>2026-04-24T16:25:58.999Z</time></trkpt><trkpt lat="43.14318785148887" lon="13.142747841124438"><ele>368.0</ele><time>2026-04-24T16:25:59.999Z</time></trkpt><trkpt lat="43.14312282791613" lon="13.142901939155216"><ele>367.4</ele><time>2026-04-24T16:26:00.999Z</time></trkpt><trkpt lat="43.14305478889945" lon="13.143041780627367"><ele>366.79999999999995</ele><time>2026-04-24T16:26:01.999Z</time></trkpt><trkpt lat="43.1429844810588" lon="13.143159682953128"><ele>366.2</ele><time>2026-04-24T16:26:02.999Z</time></trkpt><trkpt lat="43.142911242713495" lon="13.143257755187467"><ele>365.6</ele><time>2026-04-24T16:26:03.999Z</time></trkpt><trkpt lat="43.14283509136391" lon="13.14336493937975"><ele>365.0</ele><time>2026-04-24T16:26:04.999Z</time></trkpt><trkpt lat="43.14277111382762" lon="13.143487540737262"><ele>365.0</ele><time>2026-04-24T16:26:05.999Z</time></trkpt><trkpt lat="43.14271191521107" lon="13.143610605850341"><ele>365.0</ele><time>2026-04-24T16:26:06.999Z</time></trkpt><trkpt lat="43.14266398677385" lon="13.143725930147584"><ele>365.0</ele><time>2026-04-24T16:26:07.999Z</time></trkpt><trkpt lat="43.142613955100984" lon="13.143831383561848"><ele>365.0</ele><time>2026-04-24T16:26:08.999Z</time></trkpt><trkpt lat="43.14257140124951" lon="13.143929200858723"><ele>365.0</ele><time>2026-04-24T16:26:09.999Z</time></trkpt><trkpt lat="43.142530913047935" lon="13.144026690372137"><ele>364.0</ele><time>2026-04-24T16:26:10.999Z</time></trkpt><trkpt lat="43.142484873469044" lon="13.144126521309868"><ele>363.0</ele><time>2026-04-24T16:26:11.999Z</time></trkpt><trkpt lat="43.14243330370196" lon="13.144272740194774"><ele>362.0</ele><time>2026-04-24T16:26:12.999Z</time></trkpt><trkpt lat="43.142384948621746" lon="13.144432326838471"><ele>361.0</ele><time>2026-04-24T16:26:13.999Z</time></trkpt><trkpt lat="43.14233513080953" lon="13.144603344592646"><ele>359.0</ele><time>2026-04-24T16:26:14.999Z</time></trkpt><trkpt lat="43.142284618805256" lon="13.144767996800297"><ele>357.0</ele><time>2026-04-24T16:26:15.999Z</time></trkpt><trkpt lat="43.14223049622892" lon="13.144913904417779"><ele>355.0</ele><time>2026-04-24T16:26:16.999Z</time></trkpt><trkpt lat="43.14216853419119" lon="13.14502215265091"><ele>353.0</ele><time>2026-04-24T16:26:17.999Z</time></trkpt><trkpt lat="43.14208706019957" lon="13.145111155475073"><ele>353.0</ele><time>2026-04-24T16:26:18.999Z</time></trkpt><trkpt lat="43.14198195222009" lon="13.145217820471313"><ele>353.0</ele><time>2026-04-24T16:26:19.999Z</time></trkpt><trkpt lat="43.14187841695483" lon="13.145316727955741"><ele>353.0</ele><time>2026-04-24T16:26:20.999Z</time></trkpt><trkpt lat="43.14177631609586" lon="13.145407922911811"><ele>353.0</ele><time>2026-04-24T16:26:21.999Z</time></trkpt><trkpt lat="43.14166754863982" lon="13.145476632781142"><ele>353.0</ele><time>2026-04-24T16:26:22.999Z</time></trkpt><trkpt lat="43.141563262055946" lon="13.145527689132548"><ele>353.0</ele><time>2026-04-24T16:26:23.999Z</time></trkpt><trkpt lat="43.141460993068655" lon="13.145577512397692"><ele>353.0</ele><time>2026-04-24T16:26:24.999Z</time></trkpt><trkpt lat="43.14136422817842" lon="13.145620078449944"><ele>353.0</ele><time>2026-04-24T16:26:25.999Z</time></trkpt><trkpt lat="43.14127161470099" lon="13.14566444084332"><ele>353.0</ele><time>2026-04-24T16:26:26.999Z</time></trkpt><trkpt lat="43.14118730307745" lon="13.145708035455225"><ele>351.5</ele><time>2026-04-24T16:26:27.999Z</time></trkpt><trkpt lat="43.14111092020174" lon="13.14576082041397"><ele>350.0</ele><time>2026-04-24T16:26:28.999Z</time></trkpt><trkpt lat="43.14104418746042" lon="13.145842296946116"><ele>348.5</ele><time>2026-04-24T16:26:29.999Z</time></trkpt><trkpt lat="43.14100558075832" lon="13.145939045267854"><ele>347.0</ele><time>2026-04-24T16:26:30.999Z</time></trkpt><trkpt lat="43.14098613597574" lon="13.146043846987832"><ele>345.5</ele><time>2026-04-24T16:26:31.999Z</time></trkpt><trkpt lat="43.1409714677642" lon="13.146159416519728"><ele>344.0</ele><time>2026-04-24T16:26:32.999Z</time></trkpt><trkpt lat="43.14095718715132" lon="13.146257842457734"><ele>344.0</ele><time>2026-04-24T16:26:33.999Z</time></trkpt><trkpt lat="43.14092091735693" lon="13.146339995620629"><ele>344.0</ele><time>2026-04-24T16:26:34.999Z</time></trkpt><trkpt lat="43.14085811087413" lon="13.146396395045063"><ele>344.0</ele><time>2026-04-24T16:26:35.999Z</time></trkpt><trkpt lat="43.140774594843094" lon="13.146427876326001"><ele>344.0</ele><time>2026-04-24T16:26:36.999Z</time></trkpt><trkpt lat="43.14068040138655" lon="13.146450092849493"><ele>344.0</ele><time>2026-04-24T16:26:37.999Z</time></trkpt><trkpt lat="43.140581560195365" lon="13.146480230411902"><ele>344.0</ele><time>2026-04-24T16:26:38.999Z</time></trkpt><trkpt lat="43.14048600812327" lon="13.14652634890295"><ele>343.79999999999995</ele><time>2026-04-24T16:26:39.999Z</time></trkpt><trkpt lat="43.14040285415204" lon="13.14658660635201"><ele>343.59999999999997</ele><time>2026-04-24T16:26:40.999Z</time></trkpt><trkpt lat="43.140308305319884" lon="13.146669407815587"><ele>343.4</ele><time>2026-04-24T16:26:41.999Z</time></trkpt><trkpt lat="43.1402164674188" lon="13.14675783953516"><ele>343.2</ele><time>2026-04-24T16:26:42.999Z</time></trkpt><trkpt lat="43.14013006127529" lon="13.146856310597734"><ele>343.0</ele><time>2026-04-24T16:26:43.999Z</time></trkpt><trkpt lat="43.140048314196896" lon="13.14696886620517"><ele>343.0</ele><time>2026-04-24T16:26:44.999Z</time></trkpt><trkpt lat="43.139975632612085" lon="13.147087394299431"><ele>343.0</ele><time>2026-04-24T16:26:45.999Z</time></trkpt><trkpt lat="43.1399089135228" lon="13.147211148237217"><ele>343.0</ele><time>2026-04-24T16:26:46.999Z</time></trkpt><trkpt lat="43.13984838369861" lon="13.147355997554081"><ele>343.0</ele><time>2026-04-24T16:26:47.999Z</time></trkpt><trkpt lat="43.13980705546148" lon="13.14751380733466"><ele>344.5</ele><time>2026-04-24T16:26:48.999Z</time></trkpt><trkpt lat="43.139775359656944" lon="13.147691857134252"><ele>346.0</ele><time>2026-04-24T16:26:49.999Z</time></trkpt><trkpt lat="43.13973772068543" lon="13.147861619186"><ele>347.5</ele><time>2026-04-24T16:26:50.999Z</time></trkpt><trkpt lat="43.13969111549586" lon="13.148022700123652"><ele>349.0</ele><time>2026-04-24T16:26:51.999Z</time></trkpt><trkpt lat="43.139636007522995" lon="13.148182100412587"><ele>348.25</ele><time>2026-04-24T16:26:52.999Z</time></trkpt><trkpt lat="43.139586453550464" lon="13.148330393972506"><ele>347.5</ele><time>2026-04-24T16:26:53.999Z</time></trkpt><trkpt lat="43.13955268228894" lon="13.148480835053581"><ele>346.75</ele><time>2026-04-24T16:26:54.999Z</time></trkpt><trkpt lat="43.13953702848872" lon="13.148636961339943"><ele>346.0</ele><time>2026-04-24T16:26:55.999Z</time></trkpt><trkpt lat="43.13952690228701" lon="13.148793258148872"><ele>346.0</ele><time>2026-04-24T16:26:56.999Z</time></trkpt><trkpt lat="43.1395151081709" lon="13.148955289772978"><ele>346.0</ele><time>2026-04-24T16:26:57.999Z</time></trkpt><trkpt lat="43.13950600961593" lon="13.149115648843555"><ele>346.0</ele><time>2026-04-24T16:26:58.999Z</time></trkpt><trkpt lat="43.13949173721292" lon="13.149262727139341"><ele>346.0</ele><time>2026-04-24T16:26:59.999Z</time></trkpt><trkpt lat="43.1394719451737" lon="13.149422215166357"><ele>344.5</ele><time>2026-04-24T16:27:00.999Z</time></trkpt><trkpt lat="43.13943956305441" lon="13.149604497514161"><ele>343.0</ele><time>2026-04-24T16:27:01.999Z</time></trkpt><trkpt lat="43.13939901612841" lon="13.149798009187334"><ele>341.5</ele><time>2026-04-24T16:27:02.999Z</time></trkpt><trkpt lat="43.13935886251886" lon="13.150003220901022"><ele>340.0</ele><time>2026-04-24T16:27:03.999Z</time></trkpt><trkpt lat="43.13932071520239" lon="13.15021693786093"><ele>339.66666666666663</ele><time>2026-04-24T16:27:04.999Z</time></trkpt><trkpt lat="43.139280622683906" lon="13.150422985988058"><ele>339.3333333333333</ele><time>2026-04-24T16:27:05.999Z</time></trkpt><trkpt lat="43.13923687938433" lon="13.150642296140932"><ele>339.0</ele><time>2026-04-24T16:27:06.999Z</time></trkpt><trkpt lat="43.13919731316692" lon="13.15085072991849"><ele>338.5</ele><time>2026-04-24T16:27:07.999Z</time></trkpt><trkpt lat="43.13915215085021" lon="13.151037402574778"><ele>338.0</ele><time>2026-04-24T16:27:08.999Z</time></trkpt><trkpt lat="43.13909553708265" lon="13.15120730606295"><ele>337.5</ele><time>2026-04-24T16:27:09.999Z</time></trkpt><trkpt lat="43.1390294549586" lon="13.151347088840886"><ele>337.0</ele><time>2026-04-24T16:27:10.999Z</time></trkpt><trkpt lat="43.13895745865376" lon="13.151450061443487"><ele>337.0</ele><time>2026-04-24T16:27:11.999Z</time></trkpt><trkpt lat="43.13890067071884" lon="13.151529031415174"><ele>337.0</ele><time>2026-04-24T16:27:12.999Z</time></trkpt><trkpt lat="43.138880308364286" lon="13.151630852800013"><ele>337.0</ele><time>2026-04-24T16:27:13.999Z</time></trkpt><trkpt lat="43.13890033995795" lon="13.15176819968569"><ele>337.0</ele><time>2026-04-24T16:27:14.999Z</time></trkpt><trkpt lat="43.13892936335" lon="13.151916038163519"><ele>337.0</ele><time>2026-04-24T16:27:15.999Z</time></trkpt><trkpt lat="43.1389364657484" lon="13.152063970001372"><ele>334.5</ele><time>2026-04-24T16:27:16.999Z</time></trkpt><trkpt lat="43.13891897206967" lon="13.152212777348822"><ele>332.0</ele><time>2026-04-24T16:27:17.999Z</time></trkpt><trkpt lat="43.1388788608042" lon="13.152376028135999"><ele>329.5</ele><time>2026-04-24T16:27:18.999Z</time></trkpt><trkpt lat="43.13882302213134" lon="13.152533457301676"><ele>327.0</ele><time>2026-04-24T16:27:19.999Z</time></trkpt><trkpt lat="43.138753762805784" lon="13.152666157362743"><ele>327.0</ele><time>2026-04-24T16:27:20.999Z</time></trkpt><trkpt lat="43.138675757368645" lon="13.152762480677868"><ele>327.0</ele><time>2026-04-24T16:27:21.999Z</time></trkpt><trkpt lat="43.138582714634694" lon="13.152831863535498"><ele>327.0</ele><time>2026-04-24T16:27:22.999Z</time></trkpt><trkpt lat="43.138496466571674" lon="13.152868090657021"><ele>327.0</ele><time>2026-04-24T16:27:23.999Z</time></trkpt><trkpt lat="43.13842786227372" lon="13.152916729202735"><ele>327.0</ele><time>2026-04-24T16:27:24.999Z</time></trkpt><trkpt lat="43.13838965809577" lon="13.152994745117837"><ele>327.0</ele><time>2026-04-24T16:27:25.999Z</time></trkpt><trkpt lat="43.13838280227216" lon="13.15309108403038"><ele>329.6</ele><time>2026-04-24T16:27:26.998Z</time></trkpt><trkpt lat="43.13840207178389" lon="13.153211887544849"><ele>332.20000000000005</ele><time>2026-04-24T16:27:27.998Z</time></trkpt><trkpt lat="43.13843438879236" lon="13.153336840041236"><ele>334.8</ele><time>2026-04-24T16:27:28.998Z</time></trkpt><trkpt lat="43.138460859140196" lon="13.153467380361706"><ele>337.4</ele><time>2026-04-24T16:27:29.998Z</time></trkpt><trkpt lat="43.138472450549486" lon="13.153584366974604"><ele>340.0</ele><time>2026-04-24T16:27:30.998Z</time></trkpt><trkpt lat="43.13846152013121" lon="13.153696420261234"><ele>340.0</ele><time>2026-04-24T16:27:31.998Z</time></trkpt><trkpt lat="43.13841519822308" lon="13.153805188871708"><ele>340.0</ele><time>2026-04-24T16:27:32.998Z</time></trkpt><trkpt lat="43.13834741891897" lon="13.153909063778068"><ele>340.0</ele><time>2026-04-24T16:27:33.998Z</time></trkpt><trkpt lat="43.13827932760593" lon="13.153997180568071"><ele>340.0</ele><time>2026-04-24T16:27:34.998Z</time></trkpt><trkpt lat="43.138193091347254" lon="13.154049295520762"><ele>340.0</ele><time>2026-04-24T16:27:35.998Z</time></trkpt><trkpt lat="43.13810839574972" lon="13.154086360062593"><ele>336.6</ele><time>2026-04-24T16:27:36.998Z</time></trkpt><trkpt lat="43.13803394258503" lon="13.154153714042307"><ele>333.2</ele><time>2026-04-24T16:27:37.998Z</time></trkpt><trkpt lat="43.13798180488773" lon="13.154261009030563"><ele>329.79999999999995</ele><time>2026-04-24T16:27:38.998Z</time></trkpt><trkpt lat="43.13796101648245" lon="13.154409040363277"><ele>326.4</ele><time>2026-04-24T16:27:39.998Z</time></trkpt><trkpt lat="43.13794072793946" lon="13.154552270919021"><ele>323.0</ele><time>2026-04-24T16:27:40.998Z</time></trkpt><trkpt lat="43.13788338884814" lon="13.154694094056827"><ele>323.0</ele><time>2026-04-24T16:27:41.998Z</time></trkpt><trkpt lat="43.13779130406525" lon="13.154824609989005"><ele>323.0</ele><time>2026-04-24T16:27:42.998Z</time></trkpt><trkpt lat="43.13770252991178" lon="13.154944022900436"><ele>323.0</ele><time>2026-04-24T16:27:43.998Z</time></trkpt><trkpt lat="43.13763658091111" lon="13.15505658958075"><ele>323.0</ele><time>2026-04-24T16:27:44.998Z</time></trkpt><trkpt lat="43.13758518505134" lon="13.15516594687532"><ele>323.5</ele><time>2026-04-24T16:27:45.998Z</time></trkpt><trkpt lat="43.13756193226244" lon="13.155297338419583"><ele>324.0</ele><time>2026-04-24T16:27:46.998Z</time></trkpt><trkpt lat="43.13757043241663" lon="13.155442888208562"><ele>324.5</ele><time>2026-04-24T16:27:47.998Z</time></trkpt><trkpt lat="43.13758388626327" lon="13.155608235750192"><ele>325.0</ele><time>2026-04-24T16:27:48.998Z</time></trkpt><trkpt lat="43.13758783288066" lon="13.155782701976362"><ele>325.75</ele><time>2026-04-24T16:27:49.998Z</time></trkpt><trkpt lat="43.13758229486176" lon="13.155956385866316"><ele>326.5</ele><time>2026-04-24T16:27:50.998Z</time></trkpt><trkpt lat="43.13758055870612" lon="13.156137163541702"><ele>327.25</ele><time>2026-04-24T16:27:51.998Z</time></trkpt><trkpt lat="43.137581620422864" lon="13.156318924273831"><ele>328.0</ele><time>2026-04-24T16:27:52.998Z</time></trkpt><trkpt lat="43.137587648695174" lon="13.156491177852452"><ele>326.5</ele><time>2026-04-24T16:27:54Z</time></trkpt><trkpt lat="43.13760308614867" lon="13.156658192828097"><ele>325.0</ele><time>2026-04-24T16:27:55Z</time></trkpt><trkpt lat="43.13763343691656" lon="13.156825444423514"><ele>323.5</ele><time>2026-04-24T16:27:56Z</time></trkpt><trkpt lat="43.13767642022041" lon="13.156984938884627"><ele>322.0</ele><time>2026-04-24T16:27:57Z</time></trkpt><trkpt lat="43.1377258253077" lon="13.157134191503488"><ele>322.0</ele><time>2026-04-24T16:27:58Z</time></trkpt><trkpt lat="43.137786180774064" lon="13.15726554013194"><ele>322.0</ele><time>2026-04-24T16:27:59Z</time></trkpt><trkpt lat="43.13787274820743" lon="13.157383896308646"><ele>322.0</ele><time>2026-04-24T16:28:00Z</time></trkpt><trkpt lat="43.13797236876853" lon="13.157491429596261"><ele>322.0</ele><time>2026-04-24T16:28:01Z</time></trkpt><trkpt lat="43.13807999811236" lon="13.157587529372776"><ele>320.6</ele><time>2026-04-24T16:28:02Z</time></trkpt><trkpt lat="43.138186927953825" lon="13.15768826958672"><ele>319.20000000000005</ele><time>2026-04-24T16:28:03Z</time></trkpt><trkpt lat="43.13828751603529" lon="13.157780064674927"><ele>317.8</ele><time>2026-04-24T16:28:04Z</time></trkpt><trkpt lat="43.13836709074507" lon="13.15784980148343"><ele>316.4</ele><time>2026-04-24T16:28:05Z</time></trkpt><trkpt lat="43.13843494576363" lon="13.157909622713865"><ele>315.0</ele><time>2026-04-24T16:28:06Z</time></trkpt><trkpt lat="43.13848645563431" lon="13.157972284459966"><ele>315.0</ele><time>2026-04-24T16:28:07Z</time></trkpt><trkpt lat="43.1385326838691" lon="13.158081451055635"><ele>315.0</ele><time>2026-04-24T16:28:09Z</time></trkpt><trkpt lat="43.138450569613795" lon="13.158126390420785"><ele>315.0</ele><time>2026-04-24T16:28:12Z</time></trkpt><trkpt lat="43.138350690176644" lon="13.157998149289181"><ele>315.0</ele><time>2026-04-24T16:28:13.999Z</time></trkpt><trkpt lat="43.1382884144707" lon="13.157911529174564"><ele>315.0</ele><time>2026-04-24T16:28:14.999Z</time></trkpt><trkpt lat="43.13821782508848" lon="13.157840948837713"><ele>315.0</ele><time>2026-04-24T16:28:15.999Z</time></trkpt><trkpt lat="43.13813135417339" lon="13.157768400857776"><ele>315.0</ele><time>2026-04-24T16:28:16.999Z</time></trkpt><trkpt lat="43.138040515310344" lon="13.157700042381363"><ele>315.0</ele><time>2026-04-24T16:28:17.999Z</time></trkpt><trkpt lat="43.137942503243885" lon="13.157619817055954"><ele>315.0</ele><time>2026-04-24T16:28:18.999Z</time></trkpt><trkpt lat="43.137847710644316" lon="13.157535458043483"><ele>315.0</ele><time>2026-04-24T16:28:19.999Z</time></trkpt><trkpt lat="43.13775665401825" lon="13.15745255071104"><ele>316.75</ele><time>2026-04-24T16:28:20.999Z</time></trkpt><trkpt lat="43.13767858556965" lon="13.157338068221343"><ele>318.5</ele><time>2026-04-24T16:28:21.999Z</time></trkpt><trkpt lat="43.137616687337264" lon="13.157210966792688"><ele>320.25</ele><time>2026-04-24T16:28:22.999Z</time></trkpt><trkpt lat="43.13757636989067" lon="13.157057800627989"><ele>322.0</ele><time>2026-04-24T16:28:23.999Z</time></trkpt><trkpt lat="43.1375418938904" lon="13.156901665621245"><ele>322.0</ele><time>2026-04-24T16:28:24.999Z</time></trkpt><trkpt lat="43.137519919525886" lon="13.15672872689809"><ele>322.0</ele><time>2026-04-24T16:28:25.999Z</time></trkpt><trkpt lat="43.13750917830862" lon="13.156553129083122"><ele>322.0</ele><time>2026-04-24T16:28:26.999Z</time></trkpt><trkpt lat="43.13748903895105" lon="13.156381519256223"><ele>322.0</ele><time>2026-04-24T16:28:27.999Z</time></trkpt><trkpt lat="43.13746502962404" lon="13.156209566471913"><ele>322.75</ele><time>2026-04-24T16:28:28.999Z</time></trkpt><trkpt lat="43.137441763125025" lon="13.156041467847155"><ele>323.5</ele><time>2026-04-24T16:28:29.999Z</time></trkpt><trkpt lat="43.13742768926922" lon="13.155870983648326"><ele>324.25</ele><time>2026-04-24T16:28:30.999Z</time></trkpt><trkpt lat="43.137403319238516" lon="13.155697592757491"><ele>325.0</ele><time>2026-04-24T16:28:31.999Z</time></trkpt><trkpt lat="43.13738129209334" lon="13.15552684782956"><ele>323.0</ele><time>2026-04-24T16:28:32.999Z</time></trkpt><trkpt lat="43.13735937242871" lon="13.155363818495987"><ele>321.0</ele><time>2026-04-24T16:28:33.999Z</time></trkpt><trkpt lat="43.13734634954527" lon="13.155212925440471"><ele>319.0</ele><time>2026-04-24T16:28:34.999Z</time></trkpt><trkpt lat="43.1373213473796" lon="13.155077124693294"><ele>317.0</ele><time>2026-04-24T16:28:35.999Z</time></trkpt><trkpt lat="43.137253374069196" lon="13.154962913042409"><ele>315.0</ele><time>2026-04-24T16:28:36.999Z</time></trkpt><trkpt lat="43.1371566923867" lon="13.154872317038485"><ele>319.6</ele><time>2026-04-24T16:28:37.999Z</time></trkpt><trkpt lat="43.13705982284164" lon="13.15478905006082"><ele>324.2</ele><time>2026-04-24T16:28:38.999Z</time></trkpt><trkpt lat="43.13696294985707" lon="13.15471000993172"><ele>328.79999999999995</ele><time>2026-04-24T16:28:39.999Z</time></trkpt><trkpt lat="43.13685762756231" lon="13.154676347351955"><ele>333.4</ele><time>2026-04-24T16:28:40.999Z</time></trkpt><trkpt lat="43.136744525049814" lon="13.15465982811442"><ele>338.0</ele><time>2026-04-24T16:28:41.999Z</time></trkpt><trkpt lat="43.13663755658786" lon="13.154650724823856"><ele>336.5</ele><time>2026-04-24T16:28:42.999Z</time></trkpt><trkpt lat="43.13652541713616" lon="13.154655125354552"><ele>335.0</ele><time>2026-04-24T16:28:43.999Z</time></trkpt><trkpt lat="43.13640740486837" lon="13.154662035153402"><ele>333.5</ele><time>2026-04-24T16:28:44.999Z</time></trkpt><trkpt lat="43.1362847789059" lon="13.15467339275416"><ele>332.0</ele><time>2026-04-24T16:28:45.999Z</time></trkpt><trkpt lat="43.13616493230403" lon="13.15468500330033"><ele>332.0</ele><time>2026-04-24T16:28:46.999Z</time></trkpt><trkpt lat="43.13604707347481" lon="13.154687526953671"><ele>332.0</ele><time>2026-04-24T16:28:47.999Z</time></trkpt><trkpt lat="43.135937458646" lon="13.15466935796869"><ele>332.0</ele><time>2026-04-24T16:28:48.999Z</time></trkpt><trkpt lat="43.13585196470159" lon="13.154624335405856"><ele>332.0</ele><time>2026-04-24T16:28:49.999Z</time></trkpt><trkpt lat="43.135788388722524" lon="13.154545121388228"><ele>332.0</ele><time>2026-04-24T16:28:50.999Z</time></trkpt><trkpt lat="43.135774190170466" lon="13.154414942707847"><ele>332.0</ele><time>2026-04-24T16:28:51.999Z</time></trkpt><trkpt lat="43.13578380411477" lon="13.154270908033466"><ele>332.0</ele><time>2026-04-24T16:28:52.999Z</time></trkpt><trkpt lat="43.13580862046014" lon="13.154124381031663"><ele>332.0</ele><time>2026-04-24T16:28:53.999Z</time></trkpt><trkpt lat="43.135843977218194" lon="13.153988623143285"><ele>332.0</ele><time>2026-04-24T16:28:54.999Z</time></trkpt><trkpt lat="43.13570977563244" lon="13.15378169637447"><ele>328.25</ele><time>2026-04-24T16:28:55.999Z</time></trkpt><trkpt lat="43.135709474885864" lon="13.153607743276192"><ele>324.5</ele><time>2026-04-24T16:28:56.999Z</time></trkpt><trkpt lat="43.13569617559235" lon="13.153432804328482"><ele>320.75</ele><time>2026-04-24T16:28:57.999Z</time></trkpt><trkpt lat="43.13567218530286" lon="13.153258942021798"><ele>317.0</ele><time>2026-04-24T16:28:58.999Z</time></trkpt><trkpt lat="43.13564454182785" lon="13.153082047101334"><ele>317.0</ele><time>2026-04-24T16:28:59.999Z</time></trkpt><trkpt lat="43.13562235376521" lon="13.152924022388312"><ele>317.0</ele><time>2026-04-24T16:29:00.999Z</time></trkpt><trkpt lat="43.13560608006541" lon="13.152795305029704"><ele>317.0</ele><time>2026-04-24T16:29:01.999Z</time></trkpt><trkpt lat="43.13559967965496" lon="13.152669928848706"><ele>317.0</ele><time>2026-04-24T16:29:02.999Z</time></trkpt><trkpt lat="43.13560655362349" lon="13.152537458010457"><ele>317.0</ele><time>2026-04-24T16:29:03.999Z</time></trkpt><trkpt lat="43.135627734665896" lon="13.152411217804925"><ele>317.1666666666667</ele><time>2026-04-24T16:29:04.999Z</time></trkpt><trkpt lat="43.13565752635051" lon="13.152290129241711"><ele>317.33333333333337</ele><time>2026-04-24T16:29:05.999Z</time></trkpt><trkpt lat="43.135692225297916" lon="13.152182176968072"><ele>317.5</ele><time>2026-04-24T16:29:06.999Z</time></trkpt><trkpt lat="43.13572263596888" lon="13.152101310074839"><ele>317.6666666666667</ele><time>2026-04-24T16:29:07.999Z</time></trkpt><trkpt lat="43.135783985150276" lon="13.151963057206634"><ele>317.8333333333333</ele><time>2026-04-24T16:29:09.999Z</time></trkpt><trkpt lat="43.13582115040336" lon="13.151865273259167"><ele>318.0</ele><time>2026-04-24T16:29:12.999Z</time></trkpt><trkpt lat="43.135849421477" lon="13.151722826474556"><ele>319.8</ele><time>2026-04-24T16:29:42.998Z</time></trkpt><trkpt lat="43.1358823817743" lon="13.151641007676808"><ele>321.6</ele><time>2026-04-24T16:29:43.998Z</time></trkpt><trkpt lat="43.13594968858366" lon="13.15145088366096"><ele>323.40000000000003</ele><time>2026-04-24T16:29:45.998Z</time></trkpt><trkpt lat="43.13598596236426" lon="13.151335399362416"><ele>325.20000000000005</ele><time>2026-04-24T16:29:46.998Z</time></trkpt><trkpt lat="43.136022068027195" lon="13.151227584557505"><ele>327.0</ele><time>2026-04-24T16:29:47.998Z</time></trkpt><trkpt lat="43.13605658844191" lon="13.151113689484575"><ele>327.0</ele><time>2026-04-24T16:29:48.998Z</time></trkpt><trkpt lat="43.136086804755365" lon="13.150993747552757"><ele>327.0</ele><time>2026-04-24T16:29:49.998Z</time></trkpt><trkpt lat="43.13611603527821" lon="13.150858003283503"><ele>327.0</ele><time>2026-04-24T16:29:50.998Z</time></trkpt><trkpt lat="43.13614652771169" lon="13.150722066958206"><ele>327.0</ele><time>2026-04-24T16:29:51.998Z</time></trkpt><trkpt lat="43.13617966113916" lon="13.150573856523915"><ele>327.0</ele><time>2026-04-24T16:29:52.998Z</time></trkpt><trkpt lat="43.13621404827981" lon="13.150413466546826"><ele>326.75</ele><time>2026-04-24T16:29:53.998Z</time></trkpt><trkpt lat="43.13624085956262" lon="13.150244449509758"><ele>326.5</ele><time>2026-04-24T16:29:54.998Z</time></trkpt><trkpt lat="43.136260112712925" lon="13.150076036022773"><ele>326.25</ele><time>2026-04-24T16:29:55.998Z</time></trkpt><trkpt lat="43.13627473662213" lon="13.149910993262054"><ele>326.0</ele><time>2026-04-24T16:29:56.998Z</time></trkpt><trkpt lat="43.13627955493169" lon="13.149735271541264"><ele>326.0</ele><time>2026-04-24T16:29:57.998Z</time></trkpt><trkpt lat="43.13627796827036" lon="13.149552742811487"><ele>326.0</ele><time>2026-04-24T16:29:58.998Z</time></trkpt><trkpt lat="43.13627378436478" lon="13.149371947062578"><ele>326.0</ele><time>2026-04-24T16:30:00Z</time></trkpt><trkpt lat="43.136274126359325" lon="13.149194546513986"><ele>326.0</ele><time>2026-04-24T16:30:01Z</time></trkpt><trkpt lat="43.1362580140794" lon="13.149016331389051"><ele>327.75</ele><time>2026-04-24T16:30:02Z</time></trkpt><trkpt lat="43.13622125537641" lon="13.148844079943736"><ele>329.5</ele><time>2026-04-24T16:30:03Z</time></trkpt><trkpt lat="43.136177045873076" lon="13.148683589909687"><ele>331.25</ele><time>2026-04-24T16:30:04Z</time></trkpt><trkpt lat="43.136131049040785" lon="13.14851902206863"><ele>333.0</ele><time>2026-04-24T16:30:05Z</time></trkpt><trkpt lat="43.13608541380288" lon="13.148351176135657"><ele>336.0</ele><time>2026-04-24T16:30:06Z</time></trkpt><trkpt lat="43.136033429506604" lon="13.148189210816204"><ele>339.0</ele><time>2026-04-24T16:30:07Z</time></trkpt><trkpt lat="43.135972770830065" lon="13.148032230553447"><ele>342.0</ele><time>2026-04-24T16:30:08Z</time></trkpt><trkpt lat="43.13590822943063" lon="13.147872538168157"><ele>345.0</ele><time>2026-04-24T16:30:09Z</time></trkpt><trkpt lat="43.135843875476596" lon="13.147718052296941"><ele>345.0</ele><time>2026-04-24T16:30:10Z</time></trkpt><trkpt lat="43.135780911757635" lon="13.14756081763646"><ele>345.0</ele><time>2026-04-24T16:30:11Z</time></trkpt><trkpt lat="43.1357192484928" lon="13.147400859800788"><ele>345.0</ele><time>2026-04-24T16:30:12Z</time></trkpt><trkpt lat="43.13565643466207" lon="13.147236216909953"><ele>345.0</ele><time>2026-04-24T16:30:13Z</time></trkpt><trkpt lat="43.13559398660203" lon="13.147077486053208"><ele>343.0</ele><time>2026-04-24T16:30:14Z</time></trkpt><trkpt lat="43.13552627514545" lon="13.146920538104368"><ele>341.0</ele><time>2026-04-24T16:30:15Z</time></trkpt><trkpt lat="43.13546122856436" lon="13.146763208531706"><ele>339.0</ele><time>2026-04-24T16:30:16Z</time></trkpt><trkpt lat="43.135392934698906" lon="13.146593178807816"><ele>337.0</ele><time>2026-04-24T16:30:17Z</time></trkpt><trkpt lat="43.135325887928474" lon="13.146422139339059"><ele>337.0</ele><time>2026-04-24T16:30:18Z</time></trkpt><trkpt lat="43.1352618993729" lon="13.146250788877602"><ele>337.0</ele><time>2026-04-24T16:30:19Z</time></trkpt><trkpt lat="43.13520018496656" lon="13.14607223219642"><ele>337.0</ele><time>2026-04-24T16:30:20Z</time></trkpt><trkpt lat="43.13514243761344" lon="13.145887952409591"><ele>337.0</ele><time>2026-04-24T16:30:21Z</time></trkpt><trkpt lat="43.135090531529826" lon="13.14569798509564"><ele>333.5</ele><time>2026-04-24T16:30:22Z</time></trkpt><trkpt lat="43.13504467345243" lon="13.145511432547677"><ele>330.0</ele><time>2026-04-24T16:30:23Z</time></trkpt><trkpt lat="43.13498055966447" lon="13.145326110942639"><ele>326.5</ele><time>2026-04-24T16:30:24Z</time></trkpt><trkpt lat="43.134904870521495" lon="13.145161310551906"><ele>323.0</ele><time>2026-04-24T16:30:25Z</time></trkpt><trkpt lat="43.1348249537328" lon="13.145012805167639"><ele>327.75</ele><time>2026-04-24T16:30:26Z</time></trkpt><trkpt lat="43.13474225374768" lon="13.144863288510365"><ele>332.5</ele><time>2026-04-24T16:30:27Z</time></trkpt><trkpt lat="43.13466231144441" lon="13.144711989601127"><ele>337.25</ele><time>2026-04-24T16:30:27.999Z</time></trkpt><trkpt lat="43.13458506375168" lon="13.14456208746438"><ele>342.0</ele><time>2026-04-24T16:30:28.999Z</time></trkpt><trkpt lat="43.13450665195361" lon="13.14440849185491"><ele>342.0</ele><time>2026-04-24T16:30:29.999Z</time></trkpt><trkpt lat="43.13442568379767" lon="13.14425806297166"><ele>342.0</ele><time>2026-04-24T16:30:30.999Z</time></trkpt><trkpt lat="43.13433441268218" lon="13.14410838259012"><ele>342.0</ele><time>2026-04-24T16:30:31.999Z</time></trkpt><trkpt lat="43.13423990523418" lon="13.14396941012399"><ele>342.0</ele><time>2026-04-24T16:30:32.999Z</time></trkpt><trkpt lat="43.134132970237" lon="13.143843157817328"><ele>342.5</ele><time>2026-04-24T16:30:33.999Z</time></trkpt><trkpt lat="43.13401309783751" lon="13.143733270399874"><ele>343.0</ele><time>2026-04-24T16:30:34.999Z</time></trkpt><trkpt lat="43.133883753386016" lon="13.143647411916541"><ele>343.5</ele><time>2026-04-24T16:30:35.999Z</time></trkpt><trkpt lat="43.13374458311838" lon="13.143580048317746"><ele>344.0</ele><time>2026-04-24T16:30:36.999Z</time></trkpt><trkpt lat="43.133611411613316" lon="13.143521097526248"><ele>344.0</ele><time>2026-04-24T16:30:37.999Z</time></trkpt><trkpt lat="43.13347589299179" lon="13.143455680937985"><ele>344.0</ele><time>2026-04-24T16:30:38.999Z</time></trkpt><trkpt lat="43.13336125868167" lon="13.143371038027267"><ele>344.0</ele><time>2026-04-24T16:30:39.999Z</time></trkpt><trkpt lat="43.13325879710053" lon="13.143259733422436"><ele>344.0</ele><time>2026-04-24T16:30:40.999Z</time></trkpt><trkpt lat="43.13316274219862" lon="13.143129689890634"><ele>343.0</ele><time>2026-04-24T16:30:41.999Z</time></trkpt><trkpt lat="43.13306775026205" lon="13.142993382803459"><ele>342.0</ele><time>2026-04-24T16:30:42.999Z</time></trkpt><trkpt lat="43.13296624011787" lon="13.142850682565523"><ele>341.0</ele><time>2026-04-24T16:30:43.999Z</time></trkpt><trkpt lat="43.13286390769546" lon="13.142713699701165"><ele>340.0</ele><time>2026-04-24T16:30:44.999Z</time></trkpt><trkpt lat="43.1327596693613" lon="13.142571906562459"><ele>340.0</ele><time>2026-04-24T16:30:45.999Z</time></trkpt><trkpt lat="43.13265255095797" lon="13.14243526975333"><ele>340.0</ele><time>2026-04-24T16:30:46.999Z</time></trkpt><trkpt lat="43.13254181960593" lon="13.142309628093638"><ele>340.0</ele><time>2026-04-24T16:30:47.999Z</time></trkpt><trkpt lat="43.1324225877922" lon="13.142200561689323"><ele>340.0</ele><time>2026-04-24T16:30:48.999Z</time></trkpt><trkpt lat="43.13229803078068" lon="13.142098832613717"><ele>338.0</ele><time>2026-04-24T16:30:49.999Z</time></trkpt><trkpt lat="43.132176033019256" lon="13.141993002616534"><ele>336.0</ele><time>2026-04-24T16:30:50.999Z</time></trkpt><trkpt lat="43.13206732549333" lon="13.141876763311329"><ele>334.0</ele><time>2026-04-24T16:30:51.999Z</time></trkpt><trkpt lat="43.13197482050187" lon="13.141716408474197"><ele>332.0</ele><time>2026-04-24T16:30:52.999Z</time></trkpt><trkpt lat="43.13189617701493" lon="13.141525526328248"><ele>338.33333333333337</ele><time>2026-04-24T16:30:53.999Z</time></trkpt><trkpt lat="43.13181798956738" lon="13.14133307480163"><ele>344.6666666666667</ele><time>2026-04-24T16:30:54.999Z</time></trkpt><trkpt lat="43.13172161600286" lon="13.141157092949186"><ele>351.0</ele><time>2026-04-24T16:30:55.999Z</time></trkpt><trkpt lat="43.13160059456515" lon="13.140998627267761"><ele>352.0</ele><time>2026-04-24T16:30:56.999Z</time></trkpt><trkpt lat="43.13146967206079" lon="13.140862726940467"><ele>353.0</ele><time>2026-04-24T16:30:57.999Z</time></trkpt><trkpt lat="43.131331025883775" lon="13.14072915165579"><ele>354.0</ele><time>2026-04-24T16:30:58.999Z</time></trkpt><trkpt lat="43.131200149265126" lon="13.14060669668906"><ele>354.0</ele><time>2026-04-24T16:30:59.999Z</time></trkpt><trkpt lat="43.13106765361142" lon="13.14047594041764"><ele>354.0</ele><time>2026-04-24T16:31:00.999Z</time></trkpt><trkpt lat="43.1309406687842" lon="13.140347249140166"><ele>354.0</ele><time>2026-04-24T16:31:01.999Z</time></trkpt><trkpt lat="43.130803200131666" lon="13.140234742879922"><ele>348.6666666666667</ele><time>2026-04-24T16:31:02.999Z</time></trkpt><trkpt lat="43.13065064685893" lon="13.140151467486362"><ele>343.33333333333337</ele><time>2026-04-24T16:31:03.999Z</time></trkpt><trkpt lat="43.1304894642841" lon="13.140097597238197"><ele>338.0</ele><time>2026-04-24T16:31:04.999Z</time></trkpt><trkpt lat="43.13032868305945" lon="13.140046352672165"><ele>338.0</ele><time>2026-04-24T16:31:05.999Z</time></trkpt><trkpt lat="43.130170162281566" lon="13.13998696899769"><ele>338.0</ele><time>2026-04-24T16:31:06.999Z</time></trkpt><trkpt lat="43.13001580175961" lon="13.13992397938284"><ele>338.0</ele><time>2026-04-24T16:31:07.999Z</time></trkpt><trkpt lat="43.129860966595324" lon="13.139840169305662"><ele>337.6666666666667</ele><time>2026-04-24T16:31:08.999Z</time></trkpt><trkpt lat="43.12971651229568" lon="13.13974439506024"><ele>337.3333333333333</ele><time>2026-04-24T16:31:09.999Z</time></trkpt><trkpt lat="43.12957917440246" lon="13.139623651836585"><ele>337.0</ele><time>2026-04-24T16:31:10.999Z</time></trkpt><trkpt lat="43.1294619791854" lon="13.139479567228387"><ele>337.0</ele><time>2026-04-24T16:31:11.999Z</time></trkpt><trkpt lat="43.129358544225965" lon="13.13931090064941"><ele>337.0</ele><time>2026-04-24T16:31:12.999Z</time></trkpt><trkpt lat="43.129274649052476" lon="13.139123077190028"><ele>337.0</ele><time>2026-04-24T16:31:13.999Z</time></trkpt><trkpt lat="43.12920518238368" lon="13.138920980173449"><ele>333.3333333333333</ele><time>2026-04-24T16:31:14.999Z</time></trkpt><trkpt lat="43.12913536113805" lon="13.138734476440728"><ele>329.6666666666667</ele><time>2026-04-24T16:31:15.999Z</time></trkpt><trkpt lat="43.129054522039176" lon="13.138546675359898"><ele>326.0</ele><time>2026-04-24T16:31:16.999Z</time></trkpt><trkpt lat="43.128971984026066" lon="13.138363457116222"><ele>328.33333333333337</ele><time>2026-04-24T16:31:17.999Z</time></trkpt><trkpt lat="43.12889307532779" lon="13.138175130796984"><ele>330.6666666666667</ele><time>2026-04-24T16:31:18.999Z</time></trkpt><trkpt lat="43.12881886597456" lon="13.137985442597593"><ele>333.0</ele><time>2026-04-24T16:31:19.999Z</time></trkpt><trkpt lat="43.128750973061116" lon="13.137786433785537"><ele>333.0</ele><time>2026-04-24T16:31:20.999Z</time></trkpt><trkpt lat="43.12869199674125" lon="13.137578847339423"><ele>333.0</ele><time>2026-04-24T16:31:21.999Z</time></trkpt><trkpt lat="43.128635868552955" lon="13.137378572817276"><ele>333.0</ele><time>2026-04-24T16:31:22.999Z</time></trkpt><trkpt lat="43.12856325098129" lon="13.137199422300672"><ele>330.6666666666667</ele><time>2026-04-24T16:31:23.999Z</time></trkpt><trkpt lat="43.12846870310091" lon="13.137036371972671"><ele>328.33333333333337</ele><time>2026-04-24T16:31:24.999Z</time></trkpt><trkpt lat="43.128347920375695" lon="13.13690845321374"><ele>326.0</ele><time>2026-04-24T16:31:25.999Z</time></trkpt><trkpt lat="43.128215064319456" lon="13.13680869195631"><ele>326.0</ele><time>2026-04-24T16:31:26.999Z</time></trkpt><trkpt lat="43.12808927972502" lon="13.136708804821152"><ele>326.0</ele><time>2026-04-24T16:31:27.999Z</time></trkpt><trkpt lat="43.12797702671765" lon="13.136577179998358"><ele>326.0</ele><time>2026-04-24T16:31:28.999Z</time></trkpt><trkpt lat="43.12789615963138" lon="13.136405845474759"><ele>326.0</ele><time>2026-04-24T16:31:29.999Z</time></trkpt><trkpt lat="43.12784842674445" lon="13.136194492893692"><ele>327.0</ele><time>2026-04-24T16:31:30.999Z</time></trkpt><trkpt lat="43.127820951088324" lon="13.135971194294699"><ele>328.0</ele><time>2026-04-24T16:31:31.999Z</time></trkpt><trkpt lat="43.12781184070393" lon="13.135763085240159"><ele>329.0</ele><time>2026-04-24T16:31:32.999Z</time></trkpt><trkpt lat="43.1277821533811" lon="13.135577168016281"><ele>329.75</ele><time>2026-04-24T16:31:33.999Z</time></trkpt><trkpt lat="43.12772962948572" lon="13.135392914918155"><ele>330.5</ele><time>2026-04-24T16:31:34.999Z</time></trkpt><trkpt lat="43.12765925221321" lon="13.135216192735008"><ele>331.25</ele><time>2026-04-24T16:31:35.999Z</time></trkpt><trkpt lat="43.127571619267755" lon="13.135053619744399"><ele>332.0</ele><time>2026-04-24T16:31:36.999Z</time></trkpt><trkpt lat="43.12746574182993" lon="13.13490845012755"><ele>331.6666666666667</ele><time>2026-04-24T16:31:37.999Z</time></trkpt><trkpt lat="43.12734788894716" lon="13.13476965442989"><ele>331.3333333333333</ele><time>2026-04-24T16:31:38.999Z</time></trkpt><trkpt lat="43.12723049931358" lon="13.134631023877267"><ele>331.0</ele><time>2026-04-24T16:31:39.999Z</time></trkpt><trkpt lat="43.12711269048775" lon="13.134490774100952"><ele>331.0</ele><time>2026-04-24T16:31:40.999Z</time></trkpt><trkpt lat="43.12699168992624" lon="13.134351065216096"><ele>331.0</ele><time>2026-04-24T16:31:41.999Z</time></trkpt><trkpt lat="43.12687665994639" lon="13.134212960997106"><ele>331.0</ele><time>2026-04-24T16:31:42.999Z</time></trkpt><trkpt lat="43.12675864960593" lon="13.134072281210079"><ele>333.3333333333333</ele><time>2026-04-24T16:31:43.999Z</time></trkpt><trkpt lat="43.12664132343765" lon="13.133933302789313"><ele>335.6666666666667</ele><time>2026-04-24T16:31:44.999Z</time></trkpt><trkpt lat="43.126517948230166" lon="13.133793453052233"><ele>338.0</ele><time>2026-04-24T16:31:45.999Z</time></trkpt><trkpt lat="43.126392125760496" lon="13.133659968536351"><ele>338.0</ele><time>2026-04-24T16:31:46.999Z</time></trkpt><trkpt lat="43.12626397390207" lon="13.133538661812645"><ele>338.0</ele><time>2026-04-24T16:31:47.999Z</time></trkpt><trkpt lat="43.12612862378441" lon="13.133429775190185"><ele>338.0</ele><time>2026-04-24T16:31:48.999Z</time></trkpt><trkpt lat="43.12598826311925" lon="13.133340667534085"><ele>338.0</ele><time>2026-04-24T16:31:49.999Z</time></trkpt><trkpt lat="43.12584898870303" lon="13.133256361762752"><ele>338.0</ele><time>2026-04-24T16:31:50.999Z</time></trkpt><trkpt lat="43.12570898485171" lon="13.13316715824682"><ele>338.0</ele><time>2026-04-24T16:31:51.999Z</time></trkpt><trkpt lat="43.12557030642243" lon="13.133070163302593"><ele>349.25</ele><time>2026-04-24T16:31:52.998Z</time></trkpt><trkpt lat="43.12543611381539" lon="13.132982410242423"><ele>360.5</ele><time>2026-04-24T16:31:53.998Z</time></trkpt><trkpt lat="43.12530560113457" lon="13.132911938956203"><ele>371.75</ele><time>2026-04-24T16:31:54.998Z</time></trkpt><trkpt lat="43.1251866799072" lon="13.13286770990018"><ele>383.0</ele><time>2026-04-24T16:31:55.998Z</time></trkpt><trkpt lat="43.12507341727378" lon="13.132856724693257"><ele>383.0</ele><time>2026-04-24T16:31:56.998Z</time></trkpt><trkpt lat="43.124964377641014" lon="13.132911256048493"><ele>383.0</ele><time>2026-04-24T16:31:57.998Z</time></trkpt><trkpt lat="43.12486699185832" lon="13.13302591416762"><ele>383.0</ele><time>2026-04-24T16:31:58.998Z</time></trkpt><trkpt lat="43.12479209086543" lon="13.133193795461631"><ele>383.0</ele><time>2026-04-24T16:31:59.998Z</time></trkpt><trkpt lat="43.12472482516476" lon="13.133364424188015"><ele>382.25</ele><time>2026-04-24T16:32:00.998Z</time></trkpt><trkpt lat="43.12466549602595" lon="13.133532995422186"><ele>381.5</ele><time>2026-04-24T16:32:01.998Z</time></trkpt><trkpt lat="43.12462554717395" lon="13.133707122146822"><ele>380.75</ele><time>2026-04-24T16:32:02.998Z</time></trkpt><trkpt lat="43.124644064465315" lon="13.133899257863726"><ele>380.0</ele><time>2026-04-24T16:32:03.998Z</time></trkpt><trkpt lat="43.12467378939686" lon="13.134062860362972"><ele>374.2</ele><time>2026-04-24T16:32:04.998Z</time></trkpt><trkpt lat="43.124690295794615" lon="13.134215520723322"><ele>368.4</ele><time>2026-04-24T16:32:06Z</time></trkpt><trkpt lat="43.12468298712715" lon="13.134354408252609"><ele>362.6</ele><time>2026-04-24T16:32:07Z</time></trkpt><trkpt lat="43.12462670374837" lon="13.134473552632722"><ele>356.8</ele><time>2026-04-24T16:32:08Z</time></trkpt><trkpt lat="43.12452653744889" lon="13.134542484439878"><ele>351.0</ele><time>2026-04-24T16:32:09Z</time></trkpt><trkpt lat="43.124404821600194" lon="13.13453117812941"><ele>351.0</ele><time>2026-04-24T16:32:10Z</time></trkpt><trkpt lat="43.124290620137295" lon="13.134482481783808"><ele>351.0</ele><time>2026-04-24T16:32:11Z</time></trkpt><trkpt lat="43.12415658814426" lon="13.13442479526207"><ele>351.0</ele><time>2026-04-24T16:32:12Z</time></trkpt><trkpt lat="43.124015407763196" lon="13.134392486124348"><ele>351.0</ele><time>2026-04-24T16:32:13Z</time></trkpt><trkpt lat="43.12384828794069" lon="13.134386895504248"><ele>351.6666666666667</ele><time>2026-04-24T16:32:14Z</time></trkpt><trkpt lat="43.12367869558031" lon="13.134393671778158"><ele>352.33333333333337</ele><time>2026-04-24T16:32:15Z</time></trkpt><trkpt lat="43.12350873601724" lon="13.134406199231593"><ele>353.0</ele><time>2026-04-24T16:32:16Z</time></trkpt><trkpt lat="43.12333881108329" lon="13.134419524488528"><ele>356.33333333333337</ele><time>2026-04-24T16:32:17Z</time></trkpt><trkpt lat="43.123188348993395" lon="13.134427835981471"><ele>359.6666666666667</ele><time>2026-04-24T16:32:18Z</time></trkpt><trkpt lat="43.12304918892322" lon="13.134432721391681"><ele>363.0</ele><time>2026-04-24T16:32:19Z</time></trkpt><trkpt lat="43.12283320044735" lon="13.134458185584013"><ele>363.0</ele><time>2026-04-24T16:32:20Z</time></trkpt><trkpt lat="43.12266970923804" lon="13.134472471152723"><ele>363.0</ele><time>2026-04-24T16:32:21Z</time></trkpt><trkpt lat="43.12250793399719" lon="13.13450234138238"><ele>363.0</ele><time>2026-04-24T16:32:22Z</time></trkpt><trkpt lat="43.12234210928251" lon="13.134540869074696"><ele>364.3333333333333</ele><time>2026-04-24T16:32:23Z</time></trkpt><trkpt lat="43.12218441274472" lon="13.134589919056813"><ele>365.66666666666663</ele><time>2026-04-24T16:32:24Z</time></trkpt><trkpt lat="43.12202845745971" lon="13.134639199236867"><ele>367.0</ele><time>2026-04-24T16:32:25Z</time></trkpt><trkpt lat="43.12187524230767" lon="13.134681633733232"><ele>367.0</ele><time>2026-04-24T16:32:26Z</time></trkpt><trkpt lat="43.12172584586812" lon="13.134730742755984"><ele>367.0</ele><time>2026-04-24T16:32:27Z</time></trkpt><trkpt lat="43.12157753958245" lon="13.134774926215936"><ele>367.0</ele><time>2026-04-24T16:32:28Z</time></trkpt><trkpt lat="43.12142990695193" lon="13.13478771725441"><ele>364.0</ele><time>2026-04-24T16:32:29Z</time></trkpt><trkpt lat="43.12130173665249" lon="13.134798668439217"><ele>361.0</ele><time>2026-04-24T16:32:30Z</time></trkpt><trkpt lat="43.12118515743525" lon="13.134785145986864"><ele>358.0</ele><time>2026-04-24T16:32:31Z</time></trkpt><trkpt lat="43.121077244176774" lon="13.134758032854787"><ele>355.0</ele><time>2026-04-24T16:32:32Z</time></trkpt><trkpt lat="43.12098014065623" lon="13.134723014516748"><ele>355.0</ele><time>2026-04-24T16:32:33Z</time></trkpt><trkpt lat="43.12089390899738" lon="13.134686951946723"><ele>355.0</ele><time>2026-04-24T16:32:34Z</time></trkpt><trkpt lat="43.12082087539712" lon="13.134671672389466"><ele>355.0</ele><time>2026-04-24T16:32:35Z</time></trkpt><trkpt lat="43.12072499936317" lon="13.134606588841207"><ele>355.0</ele><time>2026-04-24T16:32:36.999Z</time></trkpt><trkpt lat="43.12062854663534" lon="13.134765483560562"><ele>355.0</ele><time>2026-04-24T16:32:38.999Z</time></trkpt><trkpt lat="43.12060147390119" lon="13.134849941260377"><ele>353.0</ele><time>2026-04-24T16:32:39.999Z</time></trkpt><trkpt lat="43.120572198280826" lon="13.134947849555067"><ele>351.0</ele><time>2026-04-24T16:32:40.999Z</time></trkpt><trkpt lat="43.12054635050618" lon="13.135055802652985"><ele>349.0</ele><time>2026-04-24T16:32:41.999Z</time></trkpt><trkpt lat="43.120524354648296" lon="13.1351554041959"><ele>347.0</ele><time>2026-04-24T16:32:42.999Z</time></trkpt><trkpt lat="43.12049778439177" lon="13.135252759996005"><ele>345.0</ele><time>2026-04-24T16:32:43.999Z</time></trkpt><trkpt lat="43.12045724354546" lon="13.135322603287939"><ele>343.0</ele><time>2026-04-24T16:32:44.999Z</time></trkpt><trkpt lat="43.120395306554315" lon="13.135347529742873"><ele>341.0</ele><time>2026-04-24T16:32:45.999Z</time></trkpt><trkpt lat="43.12029342260214" lon="13.135434033603355"><ele>341.0</ele><time>2026-04-24T16:32:47.999Z</time></trkpt><trkpt lat="43.12020785350434" lon="13.135510180491643"><ele>341.0</ele><time>2026-04-24T16:32:49.999Z</time></trkpt><trkpt lat="43.120117081447425" lon="13.13546624458814"><ele>341.0</ele><time>2026-04-24T16:32:51.999Z</time></trkpt><trkpt lat="43.12002588663783" lon="13.135375608515039"><ele>341.0</ele><time>2026-04-24T16:32:53.999Z</time></trkpt><trkpt lat="43.119964620372066" lon="13.135285902492363"><ele>341.0</ele><time>2026-04-24T16:32:57.999Z</time></trkpt><trkpt lat="43.119897078804776" lon="13.135216971612811"><ele>344.20000000000005</ele><time>2026-04-24T16:32:59.999Z</time></trkpt><trkpt lat="43.11981943850929" lon="13.135160958271173"><ele>347.40000000000003</ele><time>2026-04-24T16:33:00.999Z</time></trkpt><trkpt lat="43.11973888997222" lon="13.135112964989265"><ele>350.6</ele><time>2026-04-24T16:33:01.999Z</time></trkpt><trkpt lat="43.11964828478669" lon="13.135062478143098"><ele>353.8</ele><time>2026-04-24T16:33:02.999Z</time></trkpt><trkpt lat="43.11956727986416" lon="13.135019044495701"><ele>357.0</ele><time>2026-04-24T16:33:03.999Z</time></trkpt><trkpt lat="43.11946977232191" lon="13.134980481359781"><ele>357.0</ele><time>2026-04-24T16:33:04.999Z</time></trkpt><trkpt lat="43.11938009235511" lon="13.134940308493492"><ele>357.0</ele><time>2026-04-24T16:33:05.999Z</time></trkpt><trkpt lat="43.11929222218174" lon="13.134876686870507"><ele>357.0</ele><time>2026-04-24T16:33:06.999Z</time></trkpt><trkpt lat="43.11920002119609" lon="13.134840921748403"><ele>357.0</ele><time>2026-04-24T16:33:07.999Z</time></trkpt><trkpt lat="43.1191125182608" lon="13.134798043217925"><ele>357.0</ele><time>2026-04-24T16:33:08.999Z</time></trkpt><trkpt lat="43.119028881357266" lon="13.13475175585532"><ele>360.3333333333333</ele><time>2026-04-24T16:33:09.999Z</time></trkpt><trkpt lat="43.11896618099092" lon="13.13469601618932"><ele>363.6666666666667</ele><time>2026-04-24T16:33:10.999Z</time></trkpt><trkpt lat="43.11890877398591" lon="13.134653329307813"><ele>367.0</ele><time>2026-04-24T16:33:11.999Z</time></trkpt><trkpt lat="43.118848098978646" lon="13.13458033034511"><ele>370.33333333333337</ele><time>2026-04-24T16:33:12.999Z</time></trkpt><trkpt lat="43.118779445403916" lon="13.134491122577861"><ele>373.6666666666667</ele><time>2026-04-24T16:33:13.999Z</time></trkpt><trkpt lat="43.11872482798443" lon="13.134439084619212"><ele>377.0</ele><time>2026-04-24T16:33:14.999Z</time></trkpt><trkpt lat="43.118649399558905" lon="13.134449722878998"><ele>377.0</ele><time>2026-04-24T16:33:15.999Z</time></trkpt><trkpt lat="43.11858738378771" lon="13.134478206651425"><ele>377.0</ele><time>2026-04-24T16:33:16.999Z</time></trkpt><trkpt lat="43.1185182016704" lon="13.134511927467672"><ele>377.0</ele><time>2026-04-24T16:33:17.999Z</time></trkpt><trkpt lat="43.11848909232256" lon="13.134651383344801"><ele>377.0</ele><time>2026-04-24T16:33:18.999Z</time></trkpt><trkpt lat="43.118538025411176" lon="13.134808589966882"><ele>377.0</ele><time>2026-04-24T16:33:19.999Z</time></trkpt><trkpt lat="43.118601836980254" lon="13.134943859356161"><ele>379.25</ele><time>2026-04-24T16:33:20.999Z</time></trkpt><trkpt lat="43.11864605712539" lon="13.135082966279473"><ele>381.5</ele><time>2026-04-24T16:33:21.999Z</time></trkpt><trkpt lat="43.11870180567971" lon="13.135225523494388"><ele>383.75</ele><time>2026-04-24T16:33:22.999Z</time></trkpt><trkpt lat="43.11876473530825" lon="13.135359183977396"><ele>386.0</ele><time>2026-04-24T16:33:23.999Z</time></trkpt><trkpt lat="43.11880123370993" lon="13.135508114106521"><ele>386.0</ele><time>2026-04-24T16:33:24.999Z</time></trkpt><trkpt lat="43.11884857364784" lon="13.135642661973694"><ele>386.0</ele><time>2026-04-24T16:33:25.999Z</time></trkpt><trkpt lat="43.11889444200709" lon="13.135776360760094"><ele>386.0</ele><time>2026-04-24T16:33:26.999Z</time></trkpt><trkpt lat="43.11893675511021" lon="13.135907194523812"><ele>386.0</ele><time>2026-04-24T16:33:27.999Z</time></trkpt><trkpt lat="43.11896869822735" lon="13.136034177216217"><ele>386.0</ele><time>2026-04-24T16:33:28.999Z</time></trkpt><trkpt lat="43.11899770673279" lon="13.136166806624356"><ele>386.3333333333333</ele><time>2026-04-24T16:33:29.999Z</time></trkpt><trkpt lat="43.11904191789095" lon="13.136277589542923"><ele>386.66666666666663</ele><time>2026-04-24T16:33:30.999Z</time></trkpt><trkpt lat="43.11906623350015" lon="13.136387750900356"><ele>387.0</ele><time>2026-04-24T16:33:31.999Z</time></trkpt><trkpt lat="43.11911247942279" lon="13.136478870234672"><ele>387.33333333333337</ele><time>2026-04-24T16:33:32.999Z</time></trkpt><trkpt lat="43.11916749287433" lon="13.136544188357627"><ele>387.6666666666667</ele><time>2026-04-24T16:33:33.999Z</time></trkpt><trkpt lat="43.11927022755334" lon="13.136612570434213"><ele>388.0</ele><time>2026-04-24T16:33:35.999Z</time></trkpt><trkpt lat="43.119342014978876" lon="13.136680304101978"><ele>388.00000000000006</ele><time>2026-04-24T16:33:37.999Z</time></trkpt><trkpt lat="43.119296581564036" lon="13.136620355762453"><ele>388.0</ele><time>2026-04-24T16:34:06.998Z</time></trkpt><trkpt lat="43.11923669045915" lon="13.136587470840936"><ele>388.0</ele><time>2026-04-24T16:34:08.998Z</time></trkpt><trkpt lat="43.119144787771845" lon="13.136486428859918"><ele>388.0</ele><time>2026-04-24T16:34:11Z</time></trkpt><trkpt lat="43.11909317916139" lon="13.136421732188003"><ele>388.00000000000006</ele><time>2026-04-24T16:34:20Z</time></trkpt><trkpt lat="43.11901957900635" lon="13.136468659397748"><ele>388.0</ele><time>2026-04-24T16:34:21Z</time></trkpt><trkpt lat="43.11896822015879" lon="13.136547752859812"><ele>388.6666666666667</ele><time>2026-04-24T16:34:23Z</time></trkpt><trkpt lat="43.11903545432054" lon="13.136471196014245"><ele>389.33333333333337</ele><time>2026-04-24T16:34:31Z</time></trkpt><trkpt lat="43.11908326502835" lon="13.136398823978327"><ele>390.0</ele><time>2026-04-24T16:35:38.999Z</time></trkpt><trkpt lat="43.1190641865298" lon="13.136289383122996"><ele>390.66666666666663</ele><time>2026-04-24T16:35:40.999Z</time></trkpt><trkpt lat="43.11902617734901" lon="13.136203016987983"><ele>391.3333333333333</ele><time>2026-04-24T16:35:55.999Z</time></trkpt><trkpt lat="43.11901650803071" lon="13.136114712363138"><ele>392.0</ele><time>2026-04-24T16:35:56.999Z</time></trkpt><trkpt lat="43.11901052281225" lon="13.136008634801925"><ele>391.99999999999994</ele><time>2026-04-24T16:35:57.999Z</time></trkpt><trkpt lat="43.118971232953065" lon="13.13590324301472"><ele>392.0</ele><time>2026-04-24T16:35:58.999Z</time></trkpt><trkpt lat="43.11894029150315" lon="13.135803535743191"><ele>392.0</ele><time>2026-04-24T16:35:59.999Z</time></trkpt><trkpt lat="43.11891169950526" lon="13.13570329619665"><ele>392.0</ele><time>2026-04-24T16:36:00.999Z</time></trkpt><trkpt lat="43.1188604878204" lon="13.13560513777561"><ele>391.99999999999994</ele><time>2026-04-24T16:36:01.999Z</time></trkpt><trkpt lat="43.11882928951307" lon="13.135482849281612"><ele>392.0</ele><time>2026-04-24T16:36:02.999Z</time></trkpt><trkpt lat="43.11878567117637" lon="13.135358878977254"><ele>390.8</ele><time>2026-04-24T16:36:03.999Z</time></trkpt><trkpt lat="43.11872695321072" lon="13.135239593465414"><ele>389.6</ele><time>2026-04-24T16:36:04.999Z</time></trkpt><trkpt lat="43.118697088321696" lon="13.13510762602382"><ele>388.40000000000003</ele><time>2026-04-24T16:36:05.999Z</time></trkpt><trkpt lat="43.11865260481733" lon="13.134982525270186"><ele>387.20000000000005</ele><time>2026-04-24T16:36:06.999Z</time></trkpt><trkpt lat="43.11860970536424" lon="13.13486077593234"><ele>386.0</ele><time>2026-04-24T16:36:07.998Z</time></trkpt><trkpt lat="43.1185734900394" lon="13.134745927870668"><ele>384.20000000000005</ele><time>2026-04-24T16:36:08.998Z</time></trkpt><trkpt lat="43.118554286087495" lon="13.13464556291012"><ele>382.40000000000003</ele><time>2026-04-24T16:36:09.998Z</time></trkpt><trkpt lat="43.118553399027896" lon="13.134551935032118"><ele>380.6</ele><time>2026-04-24T16:36:10.998Z</time></trkpt><trkpt lat="43.11859118266153" lon="13.134474840657997"><ele>378.8</ele><time>2026-04-24T16:36:11.998Z</time></trkpt><trkpt lat="43.11870372763428" lon="13.134483131574804"><ele>377.0</ele><time>2026-04-24T16:36:13.998Z</time></trkpt><trkpt lat="43.11881445258577" lon="13.13460094715419"><ele>377.0</ele><time>2026-04-24T16:36:15.998Z</time></trkpt><trkpt lat="43.1188777596456" lon="13.13467444697263"><ele>377.0</ele><time>2026-04-24T16:36:17Z</time></trkpt><trkpt lat="43.11893881171142" lon="13.1347331622287"><ele>377.0</ele><time>2026-04-24T16:36:18Z</time></trkpt><trkpt lat="43.11901383665193" lon="13.134775281276172"><ele>377.0</ele><time>2026-04-24T16:36:19Z</time></trkpt><trkpt lat="43.11908882565345" lon="13.134818063504648"><ele>377.0</ele><time>2026-04-24T16:36:20Z</time></trkpt><trkpt lat="43.11917428060447" lon="13.134863826284338"><ele>377.0</ele><time>2026-04-24T16:36:21Z</time></trkpt><trkpt lat="43.11927238410723" lon="13.134916362598334"><ele>373.0</ele><time>2026-04-24T16:36:22Z</time></trkpt><trkpt lat="43.11936965119305" lon="13.134972028871768"><ele>369.0</ele><time>2026-04-24T16:36:23Z</time></trkpt><trkpt lat="43.119465744311775" lon="13.135027517518319"><ele>365.0</ele><time>2026-04-24T16:36:24Z</time></trkpt><trkpt lat="43.1195557979662" lon="13.135079518724929"><ele>361.0</ele><time>2026-04-24T16:36:25Z</time></trkpt><trkpt lat="43.11965963985568" lon="13.135139481825751"><ele>357.0</ele><time>2026-04-24T16:36:26Z</time></trkpt><trkpt lat="43.11975449403237" lon="13.135194255066223"><ele>357.0</ele><time>2026-04-24T16:36:27Z</time></trkpt><trkpt lat="43.11985396219242" lon="13.135252626843634"><ele>357.0</ele><time>2026-04-24T16:36:28Z</time></trkpt><trkpt lat="43.119936633732976" lon="13.135310469665846"><ele>357.0</ele><time>2026-04-24T16:36:29Z</time></trkpt><trkpt lat="43.120001123993845" lon="13.1353763434877"><ele>357.0</ele><time>2026-04-24T16:36:30Z</time></trkpt><trkpt lat="43.12006873523307" lon="13.135460806174487"><ele>357.0</ele><time>2026-04-24T16:36:31Z</time></trkpt><trkpt lat="43.12013795112165" lon="13.135521914330887"><ele>354.3333333333333</ele><time>2026-04-24T16:36:32Z</time></trkpt><trkpt lat="43.12020313400648" lon="13.13556140865753"><ele>351.6666666666667</ele><time>2026-04-24T16:36:33Z</time></trkpt><trkpt lat="43.120290452146435" lon="13.135484445820797"><ele>349.0</ele><time>2026-04-24T16:36:35Z</time></trkpt><trkpt lat="43.12034961849637" lon="13.13543868826824"><ele>346.33333333333337</ele><time>2026-04-24T16:36:36Z</time></trkpt><trkpt lat="43.12040637654961" lon="13.13538812033787"><ele>343.6666666666667</ele><time>2026-04-24T16:36:37Z</time></trkpt><trkpt lat="43.120463881816455" lon="13.135312257143195"><ele>341.0</ele><time>2026-04-24T16:36:38Z</time></trkpt><trkpt lat="43.12052268617102" lon="13.135251877750843"><ele>341.0</ele><time>2026-04-24T16:36:39Z</time></trkpt><trkpt lat="43.120572485419885" lon="13.135103386649037"><ele>341.0</ele><time>2026-04-24T16:36:41Z</time></trkpt><trkpt lat="43.120604917213534" lon="13.13497730400397"><ele>341.0</ele><time>2026-04-24T16:36:43Z</time></trkpt><trkpt lat="43.12063376716276" lon="13.134865616553622"><ele>341.0</ele><time>2026-04-24T16:36:46Z</time></trkpt><trkpt lat="43.12067937210984" lon="13.134741419022784"><ele>341.0</ele><time>2026-04-24T16:36:48Z</time></trkpt><trkpt lat="43.12070021528488" lon="13.134638977823256"><ele>340.6</ele><time>2026-04-24T16:36:51Z</time></trkpt><trkpt lat="43.12063265053807" lon="13.134524981055007"><ele>340.20000000000005</ele><time>2026-04-24T16:36:53Z</time></trkpt><trkpt lat="43.120514674824975" lon="13.134465801741865"><ele>339.79999999999995</ele><time>2026-04-24T16:36:55Z</time></trkpt><trkpt lat="43.12045322549312" lon="13.134404705180689"><ele>339.4</ele><time>2026-04-24T16:36:56Z</time></trkpt><trkpt lat="43.12039846682392" lon="13.134326121980903"><ele>339.0</ele><time>2026-04-24T16:36:57Z</time></trkpt><trkpt lat="43.12035827646525" lon="13.13422065464233"><ele>339.0</ele><time>2026-04-24T16:36:58Z</time></trkpt><trkpt lat="43.12033752327519" lon="13.134094478468723"><ele>339.0</ele><time>2026-04-24T16:36:58.999Z</time></trkpt><trkpt lat="43.12034377873099" lon="13.133953857099257"><ele>339.0</ele><time>2026-04-24T16:36:59.999Z</time></trkpt><trkpt lat="43.120367690934316" lon="13.133799737216219"><ele>339.0</ele><time>2026-04-24T16:37:00.999Z</time></trkpt><trkpt lat="43.12040206678593" lon="13.133648481618563"><ele>339.0</ele><time>2026-04-24T16:37:01.999Z</time></trkpt><trkpt lat="43.120437662159915" lon="13.133487020245562"><ele>339.0</ele><time>2026-04-24T16:37:02.999Z</time></trkpt><trkpt lat="43.12046979093289" lon="13.133310887086322"><ele>339.0</ele><time>2026-04-24T16:37:03.999Z</time></trkpt><trkpt lat="43.120494499131624" lon="13.133134584945477"><ele>339.0</ele><time>2026-04-24T16:37:04.999Z</time></trkpt><trkpt lat="43.12050704525667" lon="13.132959263244906"><ele>339.0</ele><time>2026-04-24T16:37:05.999Z</time></trkpt><trkpt lat="43.12050135056929" lon="13.13277339050397"><ele>338.5</ele><time>2026-04-24T16:37:06.999Z</time></trkpt><trkpt lat="43.12049598091417" lon="13.132580238884836"><ele>338.0</ele><time>2026-04-24T16:37:07.999Z</time></trkpt><trkpt lat="43.12048610020969" lon="13.132410061296806"><ele>337.5</ele><time>2026-04-24T16:37:08.999Z</time></trkpt><trkpt lat="43.12044170460614" lon="13.132249848008142"><ele>337.0</ele><time>2026-04-24T16:37:09.999Z</time></trkpt><trkpt lat="43.120363584312756" lon="13.132126141720024"><ele>337.5</ele><time>2026-04-24T16:37:10.999Z</time></trkpt><trkpt lat="43.12025863197714" lon="13.132017158501657"><ele>338.0</ele><time>2026-04-24T16:37:11.999Z</time></trkpt><trkpt lat="43.12013825629882" lon="13.131909966635199"><ele>338.5</ele><time>2026-04-24T16:37:12.999Z</time></trkpt><trkpt lat="43.12001552044724" lon="13.131798747865652"><ele>339.0</ele><time>2026-04-24T16:37:13.999Z</time></trkpt><trkpt lat="43.11989045781351" lon="13.1316798652304"><ele>339.0</ele><time>2026-04-24T16:37:14.999Z</time></trkpt><trkpt lat="43.119766031796665" lon="13.131560898873385"><ele>339.0</ele><time>2026-04-24T16:37:15.999Z</time></trkpt><trkpt lat="43.11963635084415" lon="13.13144137544346"><ele>339.0</ele><time>2026-04-24T16:37:16.999Z</time></trkpt><trkpt lat="43.119506587903246" lon="13.131329462274365"><ele>340.0</ele><time>2026-04-24T16:37:17.999Z</time></trkpt><trkpt lat="43.11937349114332" lon="13.131228421178735"><ele>341.0</ele><time>2026-04-24T16:37:18.999Z</time></trkpt><trkpt lat="43.11924048619574" lon="13.131125780677765"><ele>342.0</ele><time>2026-04-24T16:37:19.999Z</time></trkpt><trkpt lat="43.119113908529606" lon="13.131013467742601"><ele>342.0</ele><time>2026-04-24T16:37:20.999Z</time></trkpt><trkpt lat="43.11899346074115" lon="13.130890205209225"><ele>342.0</ele><time>2026-04-24T16:37:21.999Z</time></trkpt><trkpt lat="43.11888065204552" lon="13.130756813282826"><ele>342.0</ele><time>2026-04-24T16:37:22.999Z</time></trkpt><trkpt lat="43.11877361606208" lon="13.130613363385331"><ele>342.0</ele><time>2026-04-24T16:37:23.999Z</time></trkpt><trkpt lat="43.11867158849827" lon="13.130462951161393"><ele>342.0</ele><time>2026-04-24T16:37:24.999Z</time></trkpt><trkpt lat="43.118569470189534" lon="13.130312401725721"><ele>342.0</ele><time>2026-04-24T16:37:25.999Z</time></trkpt><trkpt lat="43.11846419183155" lon="13.130159510634591"><ele>342.0</ele><time>2026-04-24T16:37:26.999Z</time></trkpt><trkpt lat="43.11835915348023" lon="13.130004548722306"><ele>342.6666666666667</ele><time>2026-04-24T16:37:27.999Z</time></trkpt><trkpt lat="43.1182541968226" lon="13.129851124563492"><ele>343.33333333333337</ele><time>2026-04-24T16:37:28.999Z</time></trkpt><trkpt lat="43.11814923132905" lon="13.12970113799631"><ele>344.0</ele><time>2026-04-24T16:37:29.999Z</time></trkpt><trkpt lat="43.118039475293486" lon="13.129547111760019"><ele>344.0</ele><time>2026-04-24T16:37:30.999Z</time></trkpt><trkpt lat="43.11792568006255" lon="13.129392722112105"><ele>344.0</ele><time>2026-04-24T16:37:31.999Z</time></trkpt><trkpt lat="43.11781992882703" lon="13.129248272142823"><ele>344.0</ele><time>2026-04-24T16:37:32.999Z</time></trkpt><trkpt lat="43.11773003245266" lon="13.12909466302377"><ele>344.5</ele><time>2026-04-24T16:37:33.999Z</time></trkpt><trkpt lat="43.11766089606669" lon="13.128918393388583"><ele>345.0</ele><time>2026-04-24T16:37:34.999Z</time></trkpt><trkpt lat="43.11761380469412" lon="13.128724867768563"><ele>345.5</ele><time>2026-04-24T16:37:35.999Z</time></trkpt><trkpt lat="43.11757878267619" lon="13.128523858117763"><ele>346.0</ele><time>2026-04-24T16:37:36.999Z</time></trkpt><trkpt lat="43.117542730708585" lon="13.128321842315637"><ele>345.3333333333333</ele><time>2026-04-24T16:37:37.999Z</time></trkpt><trkpt lat="43.11749606581483" lon="13.128121765230139"><ele>344.6666666666667</ele><time>2026-04-24T16:37:38.999Z</time></trkpt><trkpt lat="43.11743330122856" lon="13.127927979907598"><ele>344.0</ele><time>2026-04-24T16:37:39.999Z</time></trkpt><trkpt lat="43.117358954298105" lon="13.127742649992634"><ele>344.0</ele><time>2026-04-24T16:37:40.999Z</time></trkpt><trkpt lat="43.117281983711926" lon="13.127561575027592"><ele>344.0</ele><time>2026-04-24T16:37:41.999Z</time></trkpt><trkpt lat="43.117192864500915" lon="13.12739189927175"><ele>344.0</ele><time>2026-04-24T16:37:42.999Z</time></trkpt><trkpt lat="43.11709450708973" lon="13.12723983590113"><ele>346.5</ele><time>2026-04-24T16:37:43.999Z</time></trkpt><trkpt lat="43.116995866325695" lon="13.127114398647667"><ele>349.0</ele><time>2026-04-24T16:37:44.999Z</time></trkpt><trkpt lat="43.11688625820529" lon="13.127023864368304"><ele>351.5</ele><time>2026-04-24T16:37:45.999Z</time></trkpt><trkpt lat="43.11676831316404" lon="13.126990530616448"><ele>354.0</ele><time>2026-04-24T16:37:46.999Z</time></trkpt><trkpt lat="43.11663795079896" lon="13.127009139519803"><ele>355.6666666666667</ele><time>2026-04-24T16:37:47.999Z</time></trkpt><trkpt lat="43.11650263994095" lon="13.127077059095692"><ele>357.33333333333337</ele><time>2026-04-24T16:37:48.999Z</time></trkpt><trkpt lat="43.11637112522588" lon="13.12718880277881"><ele>359.0</ele><time>2026-04-24T16:37:49.999Z</time></trkpt><trkpt lat="43.11624571833332" lon="13.127315223953541"><ele>355.33333333333337</ele><time>2026-04-24T16:37:50.999Z</time></trkpt><trkpt lat="43.11612064139063" lon="13.127444179799003"><ele>351.6666666666667</ele><time>2026-04-24T16:37:51.999Z</time></trkpt><trkpt lat="43.115998463551335" lon="13.127573417563505"><ele>348.0</ele><time>2026-04-24T16:37:52.999Z</time></trkpt><trkpt lat="43.115882309551964" lon="13.127710512462187"><ele>348.0</ele><time>2026-04-24T16:37:53.999Z</time></trkpt><trkpt lat="43.11576935859895" lon="13.127851581185563"><ele>348.0</ele><time>2026-04-24T16:37:54.999Z</time></trkpt><trkpt lat="43.115642740176696" lon="13.127965518760968"><ele>348.0</ele><time>2026-04-24T16:37:55.999Z</time></trkpt><trkpt lat="43.11549569359475" lon="13.128034711415543"><ele>346.6666666666667</ele><time>2026-04-24T16:37:56.999Z</time></trkpt><trkpt lat="43.11534558330708" lon="13.128052752070632"><ele>345.33333333333337</ele><time>2026-04-24T16:37:57.999Z</time></trkpt><trkpt lat="43.115191442311605" lon="13.128031525258425"><ele>344.0</ele><time>2026-04-24T16:37:58.999Z</time></trkpt><trkpt lat="43.11503747381057" lon="13.127989480940618"><ele>345.0</ele><time>2026-04-24T16:37:59.999Z</time></trkpt><trkpt lat="43.114875221948424" lon="13.127965728872125"><ele>346.0</ele><time>2026-04-24T16:38:00.999Z</time></trkpt><trkpt lat="43.11472095678074" lon="13.127940186986203"><ele>347.0</ele><time>2026-04-24T16:38:01.999Z</time></trkpt><trkpt lat="43.11456371403462" lon="13.127908454255024"><ele>347.0</ele><time>2026-04-24T16:38:02.999Z</time></trkpt><trkpt lat="43.11441277347191" lon="13.127873972893857"><ele>347.0</ele><time>2026-04-24T16:38:03.999Z</time></trkpt><trkpt lat="43.11425760385087" lon="13.127842282600263"><ele>347.0</ele><time>2026-04-24T16:38:04.999Z</time></trkpt><trkpt lat="43.114102941114474" lon="13.127808665698582"><ele>347.6666666666667</ele><time>2026-04-24T16:38:05.999Z</time></trkpt><trkpt lat="43.11395560913097" lon="13.127760310836372"><ele>348.3333333333333</ele><time>2026-04-24T16:38:06.999Z</time></trkpt><trkpt lat="43.113803901726264" lon="13.127698281597404"><ele>349.0</ele><time>2026-04-24T16:38:07.999Z</time></trkpt><trkpt lat="43.11361010342861" lon="13.127618181701962"><ele>349.0</ele><time>2026-04-24T16:38:08.999Z</time></trkpt><trkpt lat="43.11338910139087" lon="13.12752783253708"><ele>349.0</ele><time>2026-04-24T16:38:09.999Z</time></trkpt><trkpt lat="43.113154782896096" lon="13.127431367425638"><ele>351.66666666666663</ele><time>2026-04-24T16:38:10.999Z</time></trkpt><trkpt lat="43.113010755645476" lon="13.127391763724793"><ele>354.3333333333333</ele><time>2026-04-24T16:38:11.999Z</time></trkpt><trkpt lat="43.1128154679279" lon="13.127313802538179"><ele>357.0</ele><time>2026-04-24T16:38:12.999Z</time></trkpt><trkpt lat="43.11263697772036" lon="13.127250081164197"><ele>357.0</ele><time>2026-04-24T16:38:13.999Z</time></trkpt><trkpt lat="43.112462379212296" lon="13.127181220972917"><ele>357.0</ele><time>2026-04-24T16:38:14.999Z</time></trkpt><trkpt lat="43.112290639355614" lon="13.127119034686679"><ele>357.0</ele><time>2026-04-24T16:38:15.999Z</time></trkpt><trkpt lat="43.112122860870365" lon="13.127065927372428"><ele>360.3333333333333</ele><time>2026-04-24T16:38:16.999Z</time></trkpt><trkpt lat="43.11196372976441" lon="13.127020444856196"><ele>363.66666666666663</ele><time>2026-04-24T16:38:17.999Z</time></trkpt><trkpt lat="43.111810688398954" lon="13.126979454357798"><ele>367.0</ele><time>2026-04-24T16:38:18.999Z</time></trkpt><trkpt lat="43.1116606766604" lon="13.126952439552772"><ele>366.5</ele><time>2026-04-24T16:38:19.999Z</time></trkpt><trkpt lat="43.1115154585248" lon="13.126940265710806"><ele>366.0</ele><time>2026-04-24T16:38:20.999Z</time></trkpt><trkpt lat="43.111370762388525" lon="13.1269329970813"><ele>365.5</ele><time>2026-04-24T16:38:21.999Z</time></trkpt><trkpt lat="43.11121887256085" lon="13.126928483479933"><ele>365.0</ele><time>2026-04-24T16:38:23Z</time></trkpt><trkpt lat="43.11106078904357" lon="13.12692575202848"><ele>365.0</ele><time>2026-04-24T16:38:24Z</time></trkpt><trkpt lat="43.110918839561315" lon="13.126918763704975"><ele>365.0</ele><time>2026-04-24T16:38:25Z</time></trkpt><trkpt lat="43.11078674430855" lon="13.126913345379428"><ele>365.0</ele><time>2026-04-24T16:38:26Z</time></trkpt><trkpt lat="43.11066695339379" lon="13.126910930765225"><ele>365.0</ele><time>2026-04-24T16:38:27Z</time></trkpt><trkpt lat="43.11056652103578" lon="13.126904888864477"><ele>362.6666666666667</ele><time>2026-04-24T16:38:28Z</time></trkpt><trkpt lat="43.11048188103136" lon="13.126903236724955"><ele>360.33333333333337</ele><time>2026-04-24T16:38:29Z</time></trkpt><trkpt lat="43.110418144895135" lon="13.126896191251399"><ele>358.0</ele><time>2026-04-24T16:38:30Z</time></trkpt><trkpt lat="43.11035464952555" lon="13.126875354320601"><ele>355.6666666666667</ele><time>2026-04-24T16:38:32Z</time></trkpt><trkpt lat="43.11027469672392" lon="13.126833172058204"><ele>353.3333333333333</ele><time>2026-04-24T16:38:42Z</time></trkpt><trkpt lat="43.110174607730784" lon="13.12681748795032"><ele>351.0</ele><time>2026-04-24T16:38:44Z</time></trkpt><trkpt lat="43.11009685199734" lon="13.126879932168698"><ele>351.0</ele><time>2026-04-24T16:38:45Z</time></trkpt><trkpt lat="43.11001746106304" lon="13.126915541959308"><ele>351.0</ele><time>2026-04-24T16:38:46Z</time></trkpt><trkpt lat="43.10992674012162" lon="13.126954431132798"><ele>351.0</ele><time>2026-04-24T16:38:47Z</time></trkpt><trkpt lat="43.109828201758866" lon="13.126999639801666"><ele>351.0</ele><time>2026-04-24T16:38:48Z</time></trkpt><trkpt lat="43.109723452692485" lon="13.127049333703372"><ele>351.0</ele><time>2026-04-24T16:38:49Z</time></trkpt><trkpt lat="43.10961495660822" lon="13.127098144351248"><ele>351.75</ele><time>2026-04-24T16:38:50Z</time></trkpt><trkpt lat="43.109505076756065" lon="13.127151498659437"><ele>352.5</ele><time>2026-04-24T16:38:51Z</time></trkpt><trkpt lat="43.10939447571096" lon="13.127216318639405"><ele>353.25</ele><time>2026-04-24T16:38:52Z</time></trkpt><trkpt lat="43.109295023721174" lon="13.127297011437932"><ele>354.0</ele><time>2026-04-24T16:38:53Z</time></trkpt><trkpt lat="43.10922058393071" lon="13.127403145758526"><ele>354.0</ele><time>2026-04-24T16:38:54Z</time></trkpt><trkpt lat="43.10916383657645" lon="13.127532847350382"><ele>354.0</ele><time>2026-04-24T16:38:55Z</time></trkpt><trkpt lat="43.10912297693155" lon="13.127680939664112"><ele>354.0</ele><time>2026-04-24T16:38:56Z</time></trkpt><trkpt lat="43.109097561445324" lon="13.127843218151458"><ele>354.0</ele><time>2026-04-24T16:38:57Z</time></trkpt><trkpt lat="43.109066149938144" lon="13.128000947183574"><ele>357.4</ele><time>2026-04-24T16:38:58Z</time></trkpt><trkpt lat="43.10902256364824" lon="13.128146477657223"><ele>360.79999999999995</ele><time>2026-04-24T16:38:59Z</time></trkpt><trkpt lat="43.10896459975452" lon="13.128275082585358"><ele>364.20000000000005</ele><time>2026-04-24T16:39:00Z</time></trkpt><trkpt lat="43.10888355443867" lon="13.128376907914188"><ele>367.6</ele><time>2026-04-24T16:39:01Z</time></trkpt><trkpt lat="43.108778153778154" lon="13.128432708866798"><ele>371.0</ele><time>2026-04-24T16:39:02Z</time></trkpt><trkpt lat="43.10865826319292" lon="13.128444487940522"><ele>371.0</ele><time>2026-04-24T16:39:03Z</time></trkpt><trkpt lat="43.108534295011026" lon="13.128430862360215"><ele>371.0</ele><time>2026-04-24T16:39:04Z</time></trkpt><trkpt lat="43.10840845870582" lon="13.128407808509076"><ele>371.0</ele><time>2026-04-24T16:39:05Z</time></trkpt><trkpt lat="43.108279372165626" lon="13.128400182626628"><ele>371.0</ele><time>2026-04-24T16:39:06Z</time></trkpt><trkpt lat="43.10815576522027" lon="13.128404022770543"><ele>371.8</ele><time>2026-04-24T16:39:07Z</time></trkpt><trkpt lat="43.10803693430396" lon="13.128411596169748"><ele>372.6</ele><time>2026-04-24T16:39:08Z</time></trkpt><trkpt lat="43.107919685722564" lon="13.128425171379321"><ele>373.4</ele><time>2026-04-24T16:39:09Z</time></trkpt><trkpt lat="43.107809956358565" lon="13.128437642590399"><ele>374.2</ele><time>2026-04-24T16:39:09.999Z</time></trkpt><trkpt lat="43.10771201824747" lon="13.128446856000064"><ele>375.0</ele><time>2026-04-24T16:39:10.999Z</time></trkpt><trkpt lat="43.107622468908914" lon="13.128434045605482"><ele>375.0</ele><time>2026-04-24T16:39:11.999Z</time></trkpt><trkpt lat="43.10754587983514" lon="13.12844317834644"><ele>375.0</ele><time>2026-04-24T16:39:12.999Z</time></trkpt><trkpt lat="43.10744400898534" lon="13.128459158084368"><ele>375.0</ele><time>2026-04-24T16:39:14.999Z</time></trkpt><trkpt lat="43.107427224492696" lon="13.128749877154204"><ele>375.0</ele><time>2026-04-24T16:39:16.999Z</time></trkpt><trkpt lat="43.10744439457834" lon="13.128856314767749"><ele>375.0</ele><time>2026-04-24T16:39:17.999Z</time></trkpt><trkpt lat="43.10745467994391" lon="13.128971645895158"><ele>375.0</ele><time>2026-04-24T16:39:18.999Z</time></trkpt><trkpt lat="43.10743612694789" lon="13.129083658887362"><ele>375.0</ele><time>2026-04-24T16:39:19.999Z</time></trkpt><trkpt lat="43.10738163026936" lon="13.129180514674324"><ele>375.0</ele><time>2026-04-24T16:39:20.999Z</time></trkpt><trkpt lat="43.10729135960016" lon="13.129252800650923"><ele>375.0</ele><time>2026-04-24T16:39:21.999Z</time></trkpt><trkpt lat="43.107191182577026" lon="13.12928747919707"><ele>370.0</ele><time>2026-04-24T16:39:22.999Z</time></trkpt><trkpt lat="43.10707972800977" lon="13.12927907564756"><ele>365.0</ele><time>2026-04-24T16:39:23.999Z</time></trkpt><trkpt lat="43.1069587287467" lon="13.129225375242537"><ele>360.0</ele><time>2026-04-24T16:39:24.999Z</time></trkpt><trkpt lat="43.106836953069426" lon="13.129148054069436"><ele>355.0</ele><time>2026-04-24T16:39:25.999Z</time></trkpt><trkpt lat="43.10670681136643" lon="13.129068504038687"><ele>359.0</ele><time>2026-04-24T16:39:26.999Z</time></trkpt><trkpt lat="43.10656796769196" lon="13.128996124842654"><ele>363.0</ele><time>2026-04-24T16:39:27.999Z</time></trkpt><trkpt lat="43.106428460273705" lon="13.12893384306418"><ele>367.0</ele><time>2026-04-24T16:39:28.999Z</time></trkpt><trkpt lat="43.1062965995669" lon="13.128874765968947"><ele>371.0</ele><time>2026-04-24T16:39:29.999Z</time></trkpt><trkpt lat="43.10618661024596" lon="13.12882293622722"><ele>371.0</ele><time>2026-04-24T16:39:30.999Z</time></trkpt><trkpt lat="43.106095750828025" lon="13.128799006799213"><ele>371.0</ele><time>2026-04-24T16:39:31.999Z</time></trkpt><trkpt lat="43.10600993479347" lon="13.128828304932178"><ele>371.0</ele><time>2026-04-24T16:39:32.999Z</time></trkpt><trkpt lat="43.105943830147815" lon="13.12891335412217"><ele>371.0</ele><time>2026-04-24T16:39:33.999Z</time></trkpt><trkpt lat="43.10590779763849" lon="13.129016695641205"><ele>371.0</ele><time>2026-04-24T16:39:34.999Z</time></trkpt><trkpt lat="43.105883049911746" lon="13.129124734745337"><ele>371.0</ele><time>2026-04-24T16:39:35.999Z</time></trkpt><trkpt lat="43.10584466940027" lon="13.12920374369469"><ele>368.25</ele><time>2026-04-24T16:39:36.999Z</time></trkpt><trkpt lat="43.10568228330317" lon="13.129295643106127"><ele>365.5</ele><time>2026-04-24T16:39:38.999Z</time></trkpt><trkpt lat="43.10560345755013" lon="13.12936624805478"><ele>362.75</ele><time>2026-04-24T16:39:39.999Z</time></trkpt><trkpt lat="43.10555463314097" lon="13.129471716602568"><ele>360.0</ele><time>2026-04-24T16:39:40.999Z</time></trkpt><trkpt lat="43.10553508585803" lon="13.129594798206147"><ele>360.0</ele><time>2026-04-24T16:39:41.999Z</time></trkpt><trkpt lat="43.10553642589758" lon="13.129728219789373"><ele>360.0</ele><time>2026-04-24T16:39:42.999Z</time></trkpt><trkpt lat="43.10556197870093" lon="13.129845979356977"><ele>360.0</ele><time>2026-04-24T16:39:43.999Z</time></trkpt><trkpt lat="43.1056150604694" lon="13.12994596288723"><ele>360.0</ele><time>2026-04-24T16:39:44.999Z</time></trkpt><trkpt lat="43.105690407184625" lon="13.130040325739145"><ele>360.0</ele><time>2026-04-24T16:39:45.999Z</time></trkpt><trkpt lat="43.10578035844694" lon="13.130100267268412"><ele>358.25</ele><time>2026-04-24T16:39:46.999Z</time></trkpt><trkpt lat="43.10587575537826" lon="13.130131724239092"><ele>356.5</ele><time>2026-04-24T16:39:47.999Z</time></trkpt><trkpt lat="43.1059595644683" lon="13.13013709629628"><ele>354.75</ele><time>2026-04-24T16:39:48.999Z</time></trkpt><trkpt lat="43.105981304816495" lon="13.130374127326963"><ele>353.0</ele><time>2026-04-24T16:39:49.999Z</time></trkpt><trkpt lat="43.10605236264326" lon="13.130464115029632"><ele>353.0</ele><time>2026-04-24T16:39:50.999Z</time></trkpt><trkpt lat="43.106130202710226" lon="13.130530955314182"><ele>353.0</ele><time>2026-04-24T16:39:51.999Z</time></trkpt><trkpt lat="43.10623593994734" lon="13.130547791312148"><ele>353.0</ele><time>2026-04-24T16:39:52.999Z</time></trkpt><trkpt lat="43.10634884815704" lon="13.130519223864548"><ele>353.0</ele><time>2026-04-24T16:39:53.999Z</time></trkpt><trkpt lat="43.10646240964997" lon="13.130455783676558"><ele>353.0</ele><time>2026-04-24T16:39:54.999Z</time></trkpt><trkpt lat="43.10658248029296" lon="13.130378725466427"><ele>352.0</ele><time>2026-04-24T16:39:55.999Z</time></trkpt><trkpt lat="43.10671852900901" lon="13.130309290139916"><ele>351.0</ele><time>2026-04-24T16:39:56.999Z</time></trkpt><trkpt lat="43.10685893909444" lon="13.130248666082036"><ele>350.0</ele><time>2026-04-24T16:39:57.999Z</time></trkpt><trkpt lat="43.1070083849634" lon="13.13018039178151"><ele>350.0</ele><time>2026-04-24T16:39:58.999Z</time></trkpt><trkpt lat="43.1071522746542" lon="13.130116239337445"><ele>350.0</ele><time>2026-04-24T16:39:59.999Z</time></trkpt><trkpt lat="43.10729035677081" lon="13.13006049139371"><ele>350.0</ele><time>2026-04-24T16:40:00.999Z</time></trkpt><trkpt lat="43.10743382782516" lon="13.130027031152162"><ele>350.0</ele><time>2026-04-24T16:40:01.999Z</time></trkpt><trkpt lat="43.107578115537045" lon="13.130021666848473"><ele>350.25</ele><time>2026-04-24T16:40:02.999Z</time></trkpt><trkpt lat="43.10772005526585" lon="13.130053219511838"><ele>350.5</ele><time>2026-04-24T16:40:03.999Z</time></trkpt><trkpt lat="43.10785924265273" lon="13.130043535468975"><ele>350.75</ele><time>2026-04-24T16:40:04.999Z</time></trkpt><trkpt lat="43.107996104101886" lon="13.130055078722602"><ele>351.0</ele><time>2026-04-24T16:40:05.999Z</time></trkpt><trkpt lat="43.10813351265795" lon="13.130063981503332"><ele>351.0</ele><time>2026-04-24T16:40:06.999Z</time></trkpt><trkpt lat="43.108269730007436" lon="13.130071086842836"><ele>351.0</ele><time>2026-04-24T16:40:07.999Z</time></trkpt><trkpt lat="43.108410214838145" lon="13.130079840810811"><ele>351.0</ele><time>2026-04-24T16:40:08.999Z</time></trkpt><trkpt lat="43.10854494747789" lon="13.130088576321127"><ele>351.0</ele><time>2026-04-24T16:40:09.999Z</time></trkpt><trkpt lat="43.108666545364926" lon="13.130097911579963"><ele>351.0</ele><time>2026-04-24T16:40:10.999Z</time></trkpt><trkpt lat="43.10877497287587" lon="13.130108021234152"><ele>351.0</ele><time>2026-04-24T16:40:11.999Z</time></trkpt><trkpt lat="43.10887236163585" lon="13.13011554041465"><ele>351.0</ele><time>2026-04-24T16:40:12.999Z</time></trkpt><trkpt lat="43.10896049891314" lon="13.130127365929503"><ele>351.0</ele><time>2026-04-24T16:40:13.999Z</time></trkpt><trkpt lat="43.10903078070369" lon="13.130176739205053"><ele>351.0</ele><time>2026-04-24T16:40:14.999Z</time></trkpt><trkpt lat="43.10905983569938" lon="13.130270711442739"><ele>351.0</ele><time>2026-04-24T16:40:15.999Z</time></trkpt><trkpt lat="43.109045053509064" lon="13.130383332794091"><ele>351.0</ele><time>2026-04-24T16:40:16.999Z</time></trkpt><trkpt lat="43.10898199230621" lon="13.13046977415443"><ele>351.0</ele><time>2026-04-24T16:40:17.999Z</time></trkpt><trkpt lat="43.1088961765302" lon="13.130528020520435"><ele>351.0</ele><time>2026-04-24T16:40:18.999Z</time></trkpt><trkpt lat="43.10883616447809" lon="13.130567144557533"><ele>351.0</ele><time>2026-04-24T16:40:19.999Z</time></trkpt><trkpt lat="43.10873297358354" lon="13.130646281580216"><ele>351.0</ele><time>2026-04-24T16:40:21.999Z</time></trkpt><trkpt lat="43.10862820438239" lon="13.130735457421252"><ele>353.0</ele><time>2026-04-24T16:40:23.999Z</time></trkpt><trkpt lat="43.10857988434432" lon="13.130793738077523"><ele>355.0</ele><time>2026-04-24T16:40:24.999Z</time></trkpt><trkpt lat="43.108518744742696" lon="13.130858796899375"><ele>357.0</ele><time>2026-04-24T16:40:25.999Z</time></trkpt><trkpt lat="43.10845497683913" lon="13.130931188606514"><ele>359.0</ele><time>2026-04-24T16:40:26.999Z</time></trkpt><trkpt lat="43.10838865774479" lon="13.131012803365536"><ele>361.0</ele><time>2026-04-24T16:40:27.999Z</time></trkpt><trkpt lat="43.108326372001834" lon="13.13108464769801"><ele>363.0</ele><time>2026-04-24T16:40:29Z</time></trkpt><trkpt lat="43.10826014803147" lon="13.131170043993905"><ele>363.0</ele><time>2026-04-24T16:40:30Z</time></trkpt><trkpt lat="43.10821338866662" lon="13.131239352247183"><ele>363.0</ele><time>2026-04-24T16:40:31Z</time></trkpt><trkpt lat="43.10816852909343" lon="13.131309710577321"><ele>363.0</ele><time>2026-04-24T16:40:32Z</time></trkpt><trkpt lat="43.10813125114719" lon="13.13138095781574"><ele>363.0</ele><time>2026-04-24T16:40:33Z</time></trkpt><trkpt lat="43.10810107970088" lon="13.131496482700546"><ele>363.0</ele><time>2026-04-24T16:40:35Z</time></trkpt><trkpt lat="43.108188751771735" lon="13.131595978098588"><ele>363.0</ele><time>2026-04-24T16:40:37Z</time></trkpt><trkpt lat="43.10825050817167" lon="13.13154690520805"><ele>363.0</ele><time>2026-04-24T16:40:38Z</time></trkpt><trkpt lat="43.108326375184376" lon="13.131429266641327"><ele>363.0</ele><time>2026-04-24T16:40:40Z</time></trkpt><trkpt lat="43.108405333337096" lon="13.131327719349326"><ele>363.0</ele><time>2026-04-24T16:40:42Z</time></trkpt><trkpt lat="43.10850328207029" lon="13.131256856586484"><ele>363.0</ele><time>2026-04-24T16:40:44Z</time></trkpt><trkpt lat="43.108615811758646" lon="13.131299369120505"><ele>363.0</ele><time>2026-04-24T16:40:46Z</time></trkpt><trkpt lat="43.108714999552774" lon="13.131381390822236"><ele>363.0</ele><time>2026-04-24T16:40:48Z</time></trkpt><trkpt lat="43.108769376859065" lon="13.13143187975912"><ele>363.0</ele><time>2026-04-24T16:40:49Z</time></trkpt><trkpt lat="43.10882772553194" lon="13.13146613572832"><ele>363.0</ele><time>2026-04-24T16:40:50Z</time></trkpt><trkpt lat="43.10888617266543" lon="13.13151608359929"><ele>363.0</ele><time>2026-04-24T16:40:51Z</time></trkpt><trkpt lat="43.108942819764465" lon="13.131568174664322"><ele>363.0</ele><time>2026-04-24T16:40:52Z</time></trkpt><trkpt lat="43.10900036485823" lon="13.131651748724828"><ele>366.5</ele><time>2026-04-24T16:40:53Z</time></trkpt><trkpt lat="43.109067147681074" lon="13.131713266099837"><ele>370.0</ele><time>2026-04-24T16:40:54Z</time></trkpt><trkpt lat="43.109142584017874" lon="13.131777033038425"><ele>373.5</ele><time>2026-04-24T16:40:55Z</time></trkpt><trkpt lat="43.10920358939637" lon="13.131827445729098"><ele>377.0</ele><time>2026-04-24T16:40:56Z</time></trkpt><trkpt lat="43.109267536793766" lon="13.131859418749341"><ele>380.5</ele><time>2026-04-24T16:40:57Z</time></trkpt><trkpt lat="43.10934455635438" lon="13.131800367309975"><ele>384.0</ele><time>2026-04-24T16:40:58Z</time></trkpt><trkpt lat="43.10940886161035" lon="13.131776347814698"><ele>385.3333333333333</ele><time>2026-04-24T16:40:59Z</time></trkpt><trkpt lat="43.109502952197" lon="13.131760181085305"><ele>386.66666666666663</ele><time>2026-04-24T16:41:01Z</time></trkpt><trkpt lat="43.109544962270334" lon="13.131846155068644"><ele>388.0</ele><time>2026-04-24T16:41:04Z</time></trkpt><trkpt lat="43.10945786111342" lon="13.131926896219671"><ele>389.3333333333333</ele><time>2026-04-24T16:41:06Z</time></trkpt><trkpt lat="43.10940174100291" lon="13.132022067365929"><ele>390.66666666666663</ele><time>2026-04-24T16:41:08Z</time></trkpt><trkpt lat="43.10935456457073" lon="13.13208774961695"><ele>392.0</ele><time>2026-04-24T16:41:12Z</time></trkpt><trkpt lat="43.10926839731882" lon="13.132113814822693"><ele>392.0</ele><time>2026-04-24T16:41:14Z</time></trkpt><trkpt lat="43.109203382435595" lon="13.132123490265736"><ele>392.0</ele><time>2026-04-24T16:41:15Z</time></trkpt><trkpt lat="43.10910784257969" lon="13.132180572664588"><ele>392.0</ele><time>2026-04-24T16:41:17Z</time></trkpt><trkpt lat="43.10902365904739" lon="13.132206967727079"><ele>392.0</ele><time>2026-04-24T16:41:19Z</time></trkpt><trkpt lat="43.108942436587505" lon="13.132240721417027"><ele>392.0</ele><time>2026-04-24T16:41:21Z</time></trkpt><trkpt lat="43.108947314107326" lon="13.132600667206072"><ele>393.14285714285717</ele><time>2026-04-24T16:41:23.999Z</time></trkpt><trkpt lat="43.108934209699136" lon="13.13269285141963"><ele>394.2857142857143</ele><time>2026-04-24T16:41:24.999Z</time></trkpt><trkpt lat="43.108914341746555" lon="13.132782202836983"><ele>395.42857142857144</ele><time>2026-04-24T16:41:25.999Z</time></trkpt><trkpt lat="43.108901347391594" lon="13.132873960170443"><ele>396.57142857142856</ele><time>2026-04-24T16:41:26.999Z</time></trkpt><trkpt lat="43.10889220539687" lon="13.132960694101138"><ele>397.7142857142857</ele><time>2026-04-24T16:41:27.999Z</time></trkpt><trkpt lat="43.10888570322961" lon="13.13307192573607"><ele>398.8571428571429</ele><time>2026-04-24T16:41:28.999Z</time></trkpt><trkpt lat="43.10888138570792" lon="13.133164989574338"><ele>400.0</ele><time>2026-04-24T16:41:29.999Z</time></trkpt><trkpt lat="43.108882184234645" lon="13.13328942149469"><ele>405.2</ele><time>2026-04-24T16:41:30.999Z</time></trkpt><trkpt lat="43.108879093749294" lon="13.13339880807272"><ele>410.4</ele><time>2026-04-24T16:41:31.999Z</time></trkpt><trkpt lat="43.108865443007126" lon="13.133506518892315"><ele>415.6</ele><time>2026-04-24T16:41:32.999Z</time></trkpt><trkpt lat="43.10888413561254" lon="13.13367590122597"><ele>420.8</ele><time>2026-04-24T16:41:34.999Z</time></trkpt><trkpt lat="43.10896604174115" lon="13.133826371980177"><ele>426.0</ele><time>2026-04-24T16:41:36.999Z</time></trkpt><trkpt lat="43.10900329868268" lon="13.13391163712319"><ele>425.5</ele><time>2026-04-24T16:41:37.999Z</time></trkpt><trkpt lat="43.10908999370604" lon="13.134021946953055"><ele>425.0</ele><time>2026-04-24T16:41:39.999Z</time></trkpt><trkpt lat="43.10915695129574" lon="13.134074069783058"><ele>424.5</ele><time>2026-04-24T16:41:40.999Z</time></trkpt><trkpt lat="43.10922144371908" lon="13.134119213361988"><ele>424.0</ele><time>2026-04-24T16:41:41.999Z</time></trkpt><trkpt lat="43.10928416339493" lon="13.134174463827403"><ele>423.5</ele><time>2026-04-24T16:41:42.999Z</time></trkpt><trkpt lat="43.10934023237347" lon="13.13423026078439"><ele>423.0</ele><time>2026-04-24T16:41:43.999Z</time></trkpt><trkpt lat="43.10940131014338" lon="13.134288218423837"><ele>429.4</ele><time>2026-04-24T16:41:44.999Z</time></trkpt><trkpt lat="43.10946596925502" lon="13.134348731513278"><ele>435.79999999999995</ele><time>2026-04-24T16:41:45.999Z</time></trkpt><trkpt lat="43.10952739664892" lon="13.134392496405885"><ele>442.2</ele><time>2026-04-24T16:41:46.999Z</time></trkpt><trkpt lat="43.1096185123228" lon="13.134470776650492"><ele>448.6</ele><time>2026-04-24T16:41:48.999Z</time></trkpt><trkpt lat="43.10972919821531" lon="13.134561479579466"><ele>455.0</ele><time>2026-04-24T16:41:50.999Z</time></trkpt><trkpt lat="43.109791429206744" lon="13.134601261321"><ele>454.99999999999994</ele><time>2026-04-24T16:41:51.999Z</time></trkpt><trkpt lat="43.10985042184873" lon="13.134639665080234"><ele>455.0</ele><time>2026-04-24T16:41:52.999Z</time></trkpt><trkpt lat="43.109908565133914" lon="13.134678882954855"><ele>455.0</ele><time>2026-04-24T16:41:53.999Z</time></trkpt><trkpt lat="43.110026636316974" lon="13.13477783814051"><ele>455.0</ele><time>2026-04-24T16:41:55.999Z</time></trkpt><trkpt lat="43.11008400517692" lon="13.134818463716835"><ele>454.99999999999994</ele><time>2026-04-24T16:41:56.999Z</time></trkpt><trkpt lat="43.11014351800698" lon="13.13488161824247"><ele>455.0</ele><time>2026-04-24T16:41:57.999Z</time></trkpt><trkpt lat="43.11019457701382" lon="13.134956333424915"><ele>463.5</ele><time>2026-04-24T16:41:58.999Z</time></trkpt><trkpt lat="43.11028991100448" lon="13.13509684607727"><ele>472.0</ele><time>2026-04-24T16:42:00.999Z</time></trkpt><trkpt lat="43.11036903932886" lon="13.135251137247396"><ele>480.5</ele><time>2026-04-24T16:42:02.999Z</time></trkpt><trkpt lat="43.110425177439176" lon="13.135421677949465"><ele>489.0</ele><time>2026-04-24T16:42:04.999Z</time></trkpt><trkpt lat="43.11044045165831" lon="13.135506047228859"><ele>489.0</ele><time>2026-04-24T16:42:05.999Z</time></trkpt><trkpt lat="43.11046187370163" lon="13.13560067554758"><ele>489.0</ele><time>2026-04-24T16:42:06.999Z</time></trkpt><trkpt lat="43.11051817761308" lon="13.135709401386576"><ele>489.0</ele><time>2026-04-24T16:42:08.999Z</time></trkpt><trkpt lat="43.11054911569356" lon="13.13581147595033"><ele>489.0</ele><time>2026-04-24T16:42:10.999Z</time></trkpt><trkpt lat="43.11056495056091" lon="13.13595224528815"><ele>489.0</ele><time>2026-04-24T16:42:30.999Z</time></trkpt><trkpt lat="43.11060196391004" lon="13.136109642935754"><ele>494.2</ele><time>2026-04-24T16:42:32.999Z</time></trkpt><trkpt lat="43.110624376645774" lon="13.136193175195977"><ele>499.4</ele><time>2026-04-24T16:42:33.999Z</time></trkpt><trkpt lat="43.11065288260721" lon="13.136277585913662"><ele>504.6</ele><time>2026-04-24T16:42:35Z</time></trkpt><trkpt lat="43.11070332986272" lon="13.136424599817428"><ele>509.8</ele><time>2026-04-24T16:42:37Z</time></trkpt><trkpt lat="43.11074967412112" lon="13.136574125736958"><ele>515.0</ele><time>2026-04-24T16:42:39Z</time></trkpt><trkpt lat="43.11078246107984" lon="13.136731163293465"><ele>515.0</ele><time>2026-04-24T16:42:41Z</time></trkpt><trkpt lat="43.110820278911426" lon="13.136893411587785"><ele>515.0</ele><time>2026-04-24T16:42:43Z</time></trkpt><trkpt lat="43.11083870748465" lon="13.136978873068072"><ele>515.0</ele><time>2026-04-24T16:42:44Z</time></trkpt><trkpt lat="43.110862365447986" lon="13.137148428219891"><ele>515.0</ele><time>2026-04-24T16:42:46Z</time></trkpt><trkpt lat="43.11088401706911" lon="13.137230413732043"><ele>515.0</ele><time>2026-04-24T16:42:47Z</time></trkpt><trkpt lat="43.110914106701934" lon="13.137329356702846"><ele>520.0</ele><time>2026-04-24T16:42:48Z</time></trkpt><trkpt lat="43.110938414880884" lon="13.137421696773753"><ele>525.0</ele><time>2026-04-24T16:42:49Z</time></trkpt><trkpt lat="43.11095721633354" lon="13.137507671175374"><ele>530.0</ele><time>2026-04-24T16:42:50Z</time></trkpt><trkpt lat="43.110970626457394" lon="13.13759703210858"><ele>535.0</ele><time>2026-04-24T16:42:51Z</time></trkpt><trkpt lat="43.110975338633196" lon="13.137683301375963"><ele>540.0</ele><time>2026-04-24T16:42:52Z</time></trkpt><trkpt lat="43.11100492556036" lon="13.137833565947858"><ele>545.0</ele><time>2026-04-24T16:42:54Z</time></trkpt><trkpt lat="43.11103880798513" lon="13.137992703422919"><ele>545.0</ele><time>2026-04-24T16:42:56Z</time></trkpt><trkpt lat="43.111070876930015" lon="13.138150107074486"><ele>545.0</ele><time>2026-04-24T16:42:58Z</time></trkpt><trkpt lat="43.11112590347609" lon="13.138286427797285"><ele>545.0</ele><time>2026-04-24T16:43:00Z</time></trkpt><trkpt lat="43.111188331226835" lon="13.1384291755484"><ele>545.0</ele><time>2026-04-24T16:43:02Z</time></trkpt><trkpt lat="43.1112444738378" lon="13.138550150106985"><ele>550.0</ele><time>2026-04-24T16:43:04Z</time></trkpt><trkpt lat="43.11123783168449" lon="13.138688074491661"><ele>555.0</ele><time>2026-04-24T16:43:06Z</time></trkpt><trkpt lat="43.11128547609956" lon="13.138831578531388"><ele>560.0</ele><time>2026-04-24T16:43:08Z</time></trkpt><trkpt lat="43.11134532777551" lon="13.138970070670558"><ele>565.0</ele><time>2026-04-24T16:43:10Z</time></trkpt><trkpt lat="43.111390290623106" lon="13.139094965243562"><ele>570.0</ele><time>2026-04-24T16:43:12Z</time></trkpt><trkpt lat="43.11141019745469" lon="13.139188070302612"><ele>566.6</ele><time>2026-04-24T16:43:13Z</time></trkpt><trkpt lat="43.11145085032233" lon="13.139319534616053"><ele>563.2</ele><time>2026-04-24T16:43:15Z</time></trkpt><trkpt lat="43.111502415843105" lon="13.13944662344268"><ele>559.8</ele><time>2026-04-24T16:43:17Z</time></trkpt><trkpt lat="43.111539418037566" lon="13.13958945858089"><ele>556.4</ele><time>2026-04-24T16:43:19Z</time></trkpt><trkpt lat="43.11155956177577" lon="13.139713196367401"><ele>553.0</ele><time>2026-04-24T16:43:21Z</time></trkpt><trkpt lat="43.1115826032431" lon="13.139853645395775"><ele>557.4</ele><time>2026-04-24T16:43:23Z</time></trkpt><trkpt lat="43.111603742188194" lon="13.139980839890077"><ele>561.8</ele><time>2026-04-24T16:43:25Z</time></trkpt><trkpt lat="43.11164898240238" lon="13.140097695486785"><ele>566.2</ele><time>2026-04-24T16:43:27Z</time></trkpt><trkpt lat="43.1116944940076" lon="13.140233209145748"><ele>570.6</ele><time>2026-04-24T16:43:29Z</time></trkpt><trkpt lat="43.11173863949391" lon="13.140379226804193"><ele>575.0</ele><time>2026-04-24T16:43:30.999Z</time></trkpt><trkpt lat="43.1118000112957" lon="13.1404737809467"><ele>575.0</ele><time>2026-04-24T16:43:32.999Z</time></trkpt><trkpt lat="43.11183801068805" lon="13.140544144095065"><ele>575.0</ele><time>2026-04-24T16:43:33.999Z</time></trkpt><trkpt lat="43.11189730119446" lon="13.140676219251711"><ele>575.0</ele><time>2026-04-24T16:43:35.999Z</time></trkpt><trkpt lat="43.111926697127245" lon="13.140795861132391"><ele>575.0</ele><time>2026-04-24T16:43:37.999Z</time></trkpt><trkpt lat="43.11198142304083" lon="13.140930123468353"><ele>575.0</ele><time>2026-04-24T16:43:39.999Z</time></trkpt><trkpt lat="43.112040521260305" lon="13.14104969740872"><ele>581.4</ele><time>2026-04-24T16:43:41.999Z</time></trkpt><trkpt lat="43.112088505123815" lon="13.141174140695663"><ele>587.8</ele><time>2026-04-24T16:43:43.999Z</time></trkpt><trkpt lat="43.11212128081871" lon="13.141323573639628"><ele>594.2</ele><time>2026-04-24T16:43:45.999Z</time></trkpt><trkpt lat="43.11214840251342" lon="13.141405071827707"><ele>600.6</ele><time>2026-04-24T16:43:46.999Z</time></trkpt><trkpt lat="43.112167004542805" lon="13.141549643183039"><ele>607.0</ele><time>2026-04-24T16:43:48.999Z</time></trkpt><trkpt lat="43.11222167850995" lon="13.141678351402204"><ele>613.75</ele><time>2026-04-24T16:43:50.999Z</time></trkpt><trkpt lat="43.11227372057015" lon="13.141811383283926"><ele>620.5</ele><time>2026-04-24T16:43:52.999Z</time></trkpt><trkpt lat="43.11231565770831" lon="13.14195253520716"><ele>627.25</ele><time>2026-04-24T16:43:54.999Z</time></trkpt><trkpt lat="43.112346271240256" lon="13.142107498059957"><ele>634.0</ele><time>2026-04-24T16:43:56.999Z</time></trkpt><trkpt lat="43.11237742046451" lon="13.142256744391673"><ele>634.0</ele><time>2026-04-24T16:43:58.999Z</time></trkpt><trkpt lat="43.11240170624527" lon="13.142344582458321"><ele>634.0</ele><time>2026-04-24T16:43:59.999Z</time></trkpt><trkpt lat="43.11244036415505" lon="13.14249377366488"><ele>634.0</ele><time>2026-04-24T16:44:01.999Z</time></trkpt><trkpt lat="43.112465015785155" lon="13.142580388431766"><ele>634.0</ele><time>2026-04-24T16:44:02.999Z</time></trkpt><trkpt lat="43.112496346302855" lon="13.142713506876987"><ele>634.0</ele><time>2026-04-24T16:44:04.999Z</time></trkpt><trkpt lat="43.112526283225776" lon="13.14286563461097"><ele>631.6</ele><time>2026-04-24T16:44:06.999Z</time></trkpt><trkpt lat="43.112515965527066" lon="13.14295619020305"><ele>629.2</ele><time>2026-04-24T16:44:07.999Z</time></trkpt><trkpt lat="43.11251801815134" lon="13.143110841239354"><ele>626.8000000000001</ele><time>2026-04-24T16:44:09.999Z</time></trkpt><trkpt lat="43.11253998821813" lon="13.143251004417182"><ele>624.4</ele><time>2026-04-24T16:44:11.999Z</time></trkpt><trkpt lat="43.112548576377584" lon="13.143385551842545"><ele>622.0</ele><time>2026-04-24T16:44:13.999Z</time></trkpt><trkpt lat="43.112526785065945" lon="13.143504095736496"><ele>622.0</ele><time>2026-04-24T16:44:15.999Z</time></trkpt><trkpt lat="43.11246332116185" lon="13.143611358339454"><ele>622.0</ele><time>2026-04-24T16:44:17.999Z</time></trkpt><trkpt lat="43.11244559970289" lon="13.143739448761066"><ele>622.0</ele><time>2026-04-24T16:44:19.999Z</time></trkpt><trkpt lat="43.112438800269686" lon="13.143856947976998"><ele>622.0</ele><time>2026-04-24T16:44:21.999Z</time></trkpt><trkpt lat="43.112438819952956" lon="13.143950809278545"><ele>622.0</ele><time>2026-04-24T16:44:27.999Z</time></trkpt><trkpt lat="43.11245541536304" lon="13.144098542385981"><ele>625.2</ele><time>2026-04-24T16:44:29.999Z</time></trkpt><trkpt lat="43.1124714349188" lon="13.144187237015004"><ele>628.4000000000001</ele><time>2026-04-24T16:44:30.999Z</time></trkpt><trkpt lat="43.112498118600556" lon="13.144339861103306"><ele>631.5999999999999</ele><time>2026-04-24T16:44:32.999Z</time></trkpt><trkpt lat="43.1124815649831" lon="13.144471121052169"><ele>634.8</ele><time>2026-04-24T16:44:34.999Z</time></trkpt><trkpt lat="43.11244438714394" lon="13.144544750738872"><ele>638.0</ele><time>2026-04-24T16:44:35.999Z</time></trkpt><trkpt lat="43.112411916446206" lon="13.144691618983584"><ele>638.0</ele><time>2026-04-24T16:44:37.999Z</time></trkpt><trkpt lat="43.11242216540569" lon="13.144781092274144"><ele>638.0</ele><time>2026-04-24T16:44:38.999Z</time></trkpt><trkpt lat="43.112430285311426" lon="13.144882313832161"><ele>638.0</ele><time>2026-04-24T16:44:39.999Z</time></trkpt><trkpt lat="43.11242062265171" lon="13.145039936961712"><ele>638.0</ele><time>2026-04-24T16:44:42Z</time></trkpt><trkpt lat="43.11242085954677" lon="13.145199082966672"><ele>638.0</ele><time>2026-04-24T16:44:44Z</time></trkpt><trkpt lat="43.11245211906007" lon="13.145294781401121"><ele>638.0</ele><time>2026-04-24T16:44:45Z</time></trkpt><trkpt lat="43.112469118740066" lon="13.14539175005232"><ele>639.1666666666666</ele><time>2026-04-24T16:44:46Z</time></trkpt><trkpt lat="43.112471741248946" lon="13.145493983220316"><ele>640.3333333333333</ele><time>2026-04-24T16:44:47Z</time></trkpt><trkpt lat="43.11246904249067" lon="13.145582939124665"><ele>641.5</ele><time>2026-04-24T16:44:48Z</time></trkpt><trkpt lat="43.1124547424002" lon="13.14570220002051"><ele>642.6666666666666</ele><time>2026-04-24T16:44:49Z</time></trkpt><trkpt lat="43.11243660764424" lon="13.145819565763878"><ele>643.8333333333334</ele><time>2026-04-24T16:44:50Z</time></trkpt><trkpt lat="43.112425004269724" lon="13.145943316068628"><ele>645.0</ele><time>2026-04-24T16:44:51Z</time></trkpt><trkpt lat="43.112403123895604" lon="13.14606196887784"><ele>657.4</ele><time>2026-04-24T16:44:52Z</time></trkpt><trkpt lat="43.112339946136395" lon="13.146154959390978"><ele>669.8</ele><time>2026-04-24T16:44:53Z</time></trkpt><trkpt lat="43.112290849963244" lon="13.146244745714721"><ele>682.2</ele><time>2026-04-24T16:44:54Z</time></trkpt><trkpt lat="43.112270108231584" lon="13.146330063870327"><ele>694.6</ele><time>2026-04-24T16:44:55Z</time></trkpt><trkpt lat="43.11226220769408" lon="13.146495309539059"><ele>707.0</ele><time>2026-04-24T16:44:56Z</time></trkpt><trkpt lat="43.11222438222432" lon="13.146667542101746"><ele>707.0</ele><time>2026-04-24T16:44:57Z</time></trkpt><trkpt lat="43.112187580657476" lon="13.146820730603622"><ele>707.0</ele><time>2026-04-24T16:44:58Z</time></trkpt><trkpt lat="43.1121808406125" lon="13.146959940419423"><ele>707.0</ele><time>2026-04-24T16:44:59Z</time></trkpt><trkpt lat="43.11218180980775" lon="13.147078989397333"><ele>707.0</ele><time>2026-04-24T16:45:00Z</time></trkpt><trkpt lat="43.112215178602675" lon="13.14718920921936"><ele>707.0</ele><time>2026-04-24T16:45:01Z</time></trkpt><trkpt lat="43.11227032920041" lon="13.147320382738071"><ele>706.8</ele><time>2026-04-24T16:45:02Z</time></trkpt><trkpt lat="43.11231951269235" lon="13.147423808986625"><ele>706.6</ele><time>2026-04-24T16:45:03Z</time></trkpt><trkpt lat="43.11236035376251" lon="13.14755676186681"><ele>706.4</ele><time>2026-04-24T16:45:04Z</time></trkpt><trkpt lat="43.112364937335514" lon="13.147669723565613"><ele>706.1999999999999</ele><time>2026-04-24T16:45:05Z</time></trkpt><trkpt lat="43.11232902298848" lon="13.147800185198783"><ele>706.0</ele><time>2026-04-24T16:45:07Z</time></trkpt><trkpt lat="43.11235280670144" lon="13.14797470516984"><ele>706.0</ele><time>2026-04-24T16:45:09Z</time></trkpt><trkpt lat="43.112378678630826" lon="13.148099695698393"><ele>706.0</ele><time>2026-04-24T16:45:11Z</time></trkpt><trkpt lat="43.11239293398156" lon="13.148200708845405"><ele>706.0</ele><time>2026-04-24T16:45:16Z</time></trkpt><trkpt lat="43.11239035401503" lon="13.148310421919788"><ele>706.0</ele><time>2026-04-24T16:45:37Z</time></trkpt><trkpt lat="43.11238485737446" lon="13.148410303002276"><ele>706.0</ele><time>2026-04-24T16:45:39Z</time></trkpt><trkpt lat="43.11237434242262" lon="13.148497538230346"><ele>706.0</ele><time>2026-04-24T16:45:40.999Z</time></trkpt><trkpt lat="43.11233986384796" lon="13.148603648451251"><ele>706.8571428571428</ele><time>2026-04-24T16:45:43.999Z</time></trkpt><trkpt lat="43.1123076754849" lon="13.14867827853805"><ele>707.7142857142858</ele><time>2026-04-24T16:45:45.999Z</time></trkpt><trkpt lat="43.11227921176796" lon="13.148771221742601"><ele>708.5714285714286</ele><time>2026-04-24T16:45:48.999Z</time></trkpt><trkpt lat="43.11225956548009" lon="13.148856617052726"><ele>709.4285714285713</ele><time>2026-04-24T16:45:52.999Z</time></trkpt><trkpt lat="43.11224977644128" lon="13.148942808337594"><ele>710.2857142857142</ele><time>2026-04-24T16:46:08.999Z</time></trkpt><trkpt lat="43.11225194624731" lon="13.14904799178881"><ele>711.1428571428571</ele><time>2026-04-24T16:46:10.999Z</time></trkpt><trkpt lat="43.11226950980988" lon="13.149166286931498"><ele>712.0</ele><time>2026-04-24T16:46:12.999Z</time></trkpt><trkpt lat="43.11231076035134" lon="13.149284998953169"><ele>710.6</ele><time>2026-04-24T16:46:14.999Z</time></trkpt><trkpt lat="43.11235063961525" lon="13.149400285791728"><ele>709.2</ele><time>2026-04-24T16:46:16.999Z</time></trkpt><trkpt lat="43.11241425729702" lon="13.149505892989813"><ele>707.8</ele><time>2026-04-24T16:46:18.999Z</time></trkpt><trkpt lat="43.11245734875" lon="13.149623098330187"><ele>706.4</ele><time>2026-04-24T16:46:20.999Z</time></trkpt><trkpt lat="43.11246077191112" lon="13.149747177935144"><ele>705.0</ele><time>2026-04-24T16:46:22.999Z</time></trkpt><trkpt lat="43.11245280912148" lon="13.149857371843414"><ele>706.3333333333334</ele><time>2026-04-24T16:46:24.999Z</time></trkpt><trkpt lat="43.11242406967278" lon="13.149981901744786"><ele>707.6666666666666</ele><time>2026-04-24T16:46:26.999Z</time></trkpt><trkpt lat="43.1124116235395" lon="13.150084980854622"><ele>709.0</ele><time>2026-04-24T16:46:28.999Z</time></trkpt><trkpt lat="43.11239695357844" lon="13.150184920142102"><ele>710.3333333333333</ele><time>2026-04-24T16:46:30.999Z</time></trkpt><trkpt lat="43.1123855240278" lon="13.15030270830293"><ele>711.6666666666666</ele><time>2026-04-24T16:46:32.999Z</time></trkpt><trkpt lat="43.112394390612444" lon="13.150395132535772"><ele>713.0</ele><time>2026-04-24T16:46:34.999Z</time></trkpt><trkpt lat="43.11239984353963" lon="13.15052613800885"><ele>713.0</ele><time>2026-04-24T16:46:36.999Z</time></trkpt><trkpt lat="43.11242903584654" lon="13.150633375947601"><ele>713.0</ele><time>2026-04-24T16:46:38.999Z</time></trkpt><trkpt lat="43.11247713903076" lon="13.150777028946834"><ele>713.0</ele><time>2026-04-24T16:46:40.999Z</time></trkpt><trkpt lat="43.112517554204125" lon="13.15089019179526"><ele>713.0</ele><time>2026-04-24T16:46:42.999Z</time></trkpt><trkpt lat="43.11257944258307" lon="13.151014299191988"><ele>713.0</ele><time>2026-04-24T16:46:44.999Z</time></trkpt><trkpt lat="43.11264375916965" lon="13.151147811540424"><ele>714.5999999999999</ele><time>2026-04-24T16:46:47Z</time></trkpt><trkpt lat="43.11269790318103" lon="13.15127201672884"><ele>716.1999999999999</ele><time>2026-04-24T16:46:49Z</time></trkpt><trkpt lat="43.11274090103537" lon="13.151420623583583"><ele>717.8</ele><time>2026-04-24T16:46:51Z</time></trkpt><trkpt lat="43.11276013224535" lon="13.151503228373867"><ele>719.4</ele><time>2026-04-24T16:46:52Z</time></trkpt><trkpt lat="43.112795854793376" lon="13.151647194211614"><ele>721.0</ele><time>2026-04-24T16:46:54Z</time></trkpt><trkpt lat="43.11282701710438" lon="13.151782336690896"><ele>723.4</ele><time>2026-04-24T16:46:56Z</time></trkpt><trkpt lat="43.112857499423306" lon="13.151922341637931"><ele>725.8</ele><time>2026-04-24T16:46:58Z</time></trkpt><trkpt lat="43.11289550723444" lon="13.152094070978956"><ele>728.1999999999999</ele><time>2026-04-24T16:47:00Z</time></trkpt><trkpt lat="43.11291174231962" lon="13.152179440797275"><ele>730.5999999999999</ele><time>2026-04-24T16:47:01Z</time></trkpt><trkpt lat="43.1129357221116" lon="13.152329371877354"><ele>733.0</ele><time>2026-04-24T16:47:03Z</time></trkpt><trkpt lat="43.11297120687553" lon="13.152490159429112"><ele>734.8571428571428</ele><time>2026-04-24T16:47:05Z</time></trkpt><trkpt lat="43.11298542549174" lon="13.152583998712698"><ele>736.7142857142857</ele><time>2026-04-24T16:47:06Z</time></trkpt><trkpt lat="43.11300023835042" lon="13.15268453697692"><ele>738.5714285714286</ele><time>2026-04-24T16:47:07Z</time></trkpt><trkpt lat="43.11301529922939" lon="13.152781605666133"><ele>740.4285714285713</ele><time>2026-04-24T16:47:08Z</time></trkpt><trkpt lat="43.11303027695078" lon="13.152873679043246"><ele>742.2857142857143</ele><time>2026-04-24T16:47:09Z</time></trkpt><trkpt lat="43.11304522581402" lon="13.152963046535838"><ele>744.1428571428571</ele><time>2026-04-24T16:47:10Z</time></trkpt><trkpt lat="43.11306355059924" lon="13.153050413407218"><ele>746.0</ele><time>2026-04-24T16:47:11Z</time></trkpt><trkpt lat="43.11308336481118" lon="13.153145219571458"><ele>748.1666666666666</ele><time>2026-04-24T16:47:12Z</time></trkpt><trkpt lat="43.11310616774997" lon="13.153246729564414"><ele>750.3333333333333</ele><time>2026-04-24T16:47:13Z</time></trkpt><trkpt lat="43.11312534728485" lon="13.153338271299392"><ele>752.5</ele><time>2026-04-24T16:47:14Z</time></trkpt><trkpt lat="43.113146134012744" lon="13.153431365923325"><ele>754.6666666666666</ele><time>2026-04-24T16:47:15Z</time></trkpt><trkpt lat="43.11316243956729" lon="13.153522035948424"><ele>756.8333333333334</ele><time>2026-04-24T16:47:16Z</time></trkpt><trkpt lat="43.11317911941725" lon="13.153606122366428"><ele>759.0</ele><time>2026-04-24T16:47:17Z</time></trkpt><trkpt lat="43.113206922050395" lon="13.153773920518253"><ele>759.0</ele><time>2026-04-24T16:47:19Z</time></trkpt><trkpt lat="43.11322933257845" lon="13.153860751923125"><ele>759.0</ele><time>2026-04-24T16:47:20Z</time></trkpt><trkpt lat="43.113246860409674" lon="13.15394990031883"><ele>759.0</ele><time>2026-04-24T16:47:21Z</time></trkpt><trkpt lat="43.113260857753566" lon="13.154039922481385"><ele>759.0</ele><time>2026-04-24T16:47:22Z</time></trkpt><trkpt lat="43.11328318869609" lon="13.15418882377462"><ele>759.0</ele><time>2026-04-24T16:47:24Z</time></trkpt><trkpt lat="43.11329774830991" lon="13.154273185862726"><ele>759.0</ele><time>2026-04-24T16:47:25Z</time></trkpt><trkpt lat="43.11331091470748" lon="13.154370899613248"><ele>759.0</ele><time>2026-04-24T16:47:27Z</time></trkpt><trkpt lat="43.113336825338806" lon="13.154531134729853"><ele>758.25</ele><time>2026-04-24T16:47:29Z</time></trkpt><trkpt lat="43.11334738468043" lon="13.15468696266866"><ele>757.5</ele><time>2026-04-24T16:47:31Z</time></trkpt><trkpt lat="43.11336167041286" lon="13.154835024683454"><ele>756.75</ele><time>2026-04-24T16:47:33Z</time></trkpt><trkpt lat="43.11337633761171" lon="13.154981031061931"><ele>756.0</ele><time>2026-04-24T16:47:35Z</time></trkpt><trkpt lat="43.11339722963685" lon="13.155156342497767"><ele>756.0</ele><time>2026-04-24T16:47:37Z</time></trkpt><trkpt lat="43.11340938535061" lon="13.155246611535915"><ele>756.0</ele><time>2026-04-24T16:47:38Z</time></trkpt><trkpt lat="43.11342819910543" lon="13.155402050967473"><ele>756.0</ele><time>2026-04-24T16:47:40Z</time></trkpt><trkpt lat="43.11343872647632" lon="13.155500996623706"><ele>756.0</ele><time>2026-04-24T16:47:41Z</time></trkpt><trkpt lat="43.1134473569536" lon="13.15558723590241"><ele>756.0</ele><time>2026-04-24T16:47:42Z</time></trkpt><trkpt lat="43.11345068901642" lon="13.155738020796036"><ele>756.0</ele><time>2026-04-24T16:47:44Z</time></trkpt><trkpt lat="43.113444115128935" lon="13.155899949240919"><ele>757.5999999999999</ele><time>2026-04-24T16:47:46Z</time></trkpt><trkpt lat="43.113447952785684" lon="13.156049907944983"><ele>759.2</ele><time>2026-04-24T16:47:48Z</time></trkpt><trkpt lat="43.11344961863315" lon="13.156140953258278"><ele>760.8</ele><time>2026-04-24T16:47:49Z</time></trkpt><trkpt lat="43.11345060618374" lon="13.156303017916622"><ele>762.4000000000001</ele><time>2026-04-24T16:47:51Z</time></trkpt><trkpt lat="43.113455685288365" lon="13.156463395266256"><ele>764.0</ele><time>2026-04-24T16:47:53Z</time></trkpt><trkpt lat="43.11345045550926" lon="13.156593371700405"><ele>766.0</ele><time>2026-04-24T16:47:54.999Z</time></trkpt><trkpt lat="43.11344332705848" lon="13.156726375685134"><ele>768.0</ele><time>2026-04-24T16:48:11.999Z</time></trkpt><trkpt lat="43.11346728283131" lon="13.156852014140927"><ele>770.0</ele><time>2026-04-24T16:48:13.999Z</time></trkpt><trkpt lat="43.11348597414534" lon="13.156997589033795"><ele>772.0</ele><time>2026-04-24T16:48:15.999Z</time></trkpt><trkpt lat="43.11347905743447" lon="13.15712621591783"><ele>774.0</ele><time>2026-04-24T16:48:17.999Z</time></trkpt><trkpt lat="43.11345874449785" lon="13.157261176548356"><ele>776.2</ele><time>2026-04-24T16:48:19.999Z</time></trkpt><trkpt lat="43.11342350365234" lon="13.157385931279473"><ele>778.4000000000001</ele><time>2026-04-24T16:48:21.999Z</time></trkpt><trkpt lat="43.113403470151916" lon="13.157528477366078"><ele>780.6</ele><time>2026-04-24T16:48:23.999Z</time></trkpt><trkpt lat="43.11338717332408" lon="13.157649724403505"><ele>782.8</ele><time>2026-04-24T16:48:25.999Z</time></trkpt><trkpt lat="43.11338977565431" lon="13.157784780847692"><ele>785.0</ele><time>2026-04-24T16:48:27.999Z</time></trkpt><trkpt lat="43.113413771187346" lon="13.157897812190296"><ele>785.0</ele><time>2026-04-24T16:48:29.999Z</time></trkpt><trkpt lat="43.113432265158245" lon="13.15803134994284"><ele>785.0</ele><time>2026-04-24T16:48:31.999Z</time></trkpt><trkpt lat="43.11345179605791" lon="13.158181061872613"><ele>785.0</ele><time>2026-04-24T16:48:33.999Z</time></trkpt><trkpt lat="43.113497300755206" lon="13.158315242868404"><ele>785.0</ele><time>2026-04-24T16:48:35.999Z</time></trkpt><trkpt lat="43.113489851015885" lon="13.158440856942276"><ele>785.0</ele><time>2026-04-24T16:48:37.999Z</time></trkpt><trkpt lat="43.113497367101346" lon="13.158527115755948"><ele>787.0</ele><time>2026-04-24T16:48:38.999Z</time></trkpt><trkpt lat="43.11353037828192" lon="13.158655721732053"><ele>789.0</ele><time>2026-04-24T16:48:40.999Z</time></trkpt><trkpt lat="43.113542707447586" lon="13.158802097023043"><ele>791.0</ele><time>2026-04-24T16:48:42.999Z</time></trkpt><trkpt lat="43.113559229429434" lon="13.158970221575695"><ele>793.0</ele><time>2026-04-24T16:48:44.999Z</time></trkpt><trkpt lat="43.11359415157484" lon="13.159111846477927"><ele>795.0</ele><time>2026-04-24T16:48:46.999Z</time></trkpt><trkpt lat="43.11362912413221" lon="13.159246799715719"><ele>796.5</ele><time>2026-04-24T16:48:48.999Z</time></trkpt><trkpt lat="43.11365199237246" lon="13.159379450585991"><ele>798.0</ele><time>2026-04-24T16:48:50.999Z</time></trkpt><trkpt lat="43.11365124281773" lon="13.15947296572599"><ele>799.5</ele><time>2026-04-24T16:48:51.999Z</time></trkpt><trkpt lat="43.11368626231997" lon="13.159627480032338"><ele>801.0</ele><time>2026-04-24T16:48:54Z</time></trkpt><trkpt lat="43.11373730481884" lon="13.159703245136983"><ele>802.5</ele><time>2026-04-24T16:48:55Z</time></trkpt><trkpt lat="43.11378700200664" lon="13.159794601995225"><ele>804.0</ele><time>2026-04-24T16:48:56Z</time></trkpt><trkpt lat="43.113841753436105" lon="13.15989454449337"><ele>805.8333333333334</ele><time>2026-04-24T16:48:57Z</time></trkpt><trkpt lat="43.113886818296386" lon="13.159973063885039"><ele>807.6666666666667</ele><time>2026-04-24T16:48:58Z</time></trkpt><trkpt lat="43.11392675890888" lon="13.160057265503676"><ele>809.5</ele><time>2026-04-24T16:48:59Z</time></trkpt><trkpt lat="43.11398438835394" lon="13.160223891512812"><ele>811.3333333333334</ele><time>2026-04-24T16:49:01Z</time></trkpt><trkpt lat="43.1140255949542" lon="13.160318538635066"><ele>813.1666666666667</ele><time>2026-04-24T16:49:02Z</time></trkpt><trkpt lat="43.11406749066543" lon="13.160406101864455"><ele>815.0</ele><time>2026-04-24T16:49:03Z</time></trkpt><trkpt lat="43.11410987313491" lon="13.160504596800223"><ele>816.0000000000001</ele><time>2026-04-24T16:49:04Z</time></trkpt><trkpt lat="43.11414472429591" lon="13.16058804212447"><ele>817.0</ele><time>2026-04-24T16:49:05Z</time></trkpt><trkpt lat="43.114187146175226" lon="13.16070313442271"><ele>818.0</ele><time>2026-04-24T16:49:06Z</time></trkpt><trkpt lat="43.11423376711017" lon="13.160824871717594"><ele>819.0</ele><time>2026-04-24T16:49:07Z</time></trkpt><trkpt lat="43.11427881721887" lon="13.16091236494589"><ele>820.0000000000001</ele><time>2026-04-24T16:49:08Z</time></trkpt><trkpt lat="43.11432839484463" lon="13.16102467692092"><ele>821.0</ele><time>2026-04-24T16:49:09Z</time></trkpt><trkpt lat="43.11437433309674" lon="13.161120867382401"><ele>823.8</ele><time>2026-04-24T16:49:10Z</time></trkpt><trkpt lat="43.114423291682904" lon="13.161226510479207"><ele>826.5999999999999</ele><time>2026-04-24T16:49:11Z</time></trkpt><trkpt lat="43.11447537923212" lon="13.161351396068262"><ele>829.4</ele><time>2026-04-24T16:49:12Z</time></trkpt><trkpt lat="43.11451933075724" lon="13.161481423246643"><ele>832.2</ele><time>2026-04-24T16:49:13Z</time></trkpt><trkpt lat="43.11456205509016" lon="13.161609825075026"><ele>835.0</ele><time>2026-04-24T16:49:14Z</time></trkpt><trkpt lat="43.114599862468424" lon="13.16173406686272"><ele>837.3333333333333</ele><time>2026-04-24T16:49:15Z</time></trkpt><trkpt lat="43.114634442383675" lon="13.161861288340685"><ele>839.6666666666666</ele><time>2026-04-24T16:49:16Z</time></trkpt><trkpt lat="43.11467269364822" lon="13.162011622220614"><ele>842.0</ele><time>2026-04-24T16:49:17Z</time></trkpt><trkpt lat="43.11469860951319" lon="13.162116635724239"><ele>844.3333333333333</ele><time>2026-04-24T16:49:18Z</time></trkpt><trkpt lat="43.11473137302226" lon="13.162204296731806"><ele>846.6666666666666</ele><time>2026-04-24T16:49:19Z</time></trkpt><trkpt lat="43.11477903612156" lon="13.162286168778484"><ele>849.0</ele><time>2026-04-24T16:49:20Z</time></trkpt><trkpt lat="43.11483201008826" lon="13.162394299142012"><ele>852.4000000000001</ele><time>2026-04-24T16:49:21Z</time></trkpt><trkpt lat="43.114877596477854" lon="13.162523500066056"><ele>855.8</ele><time>2026-04-24T16:49:22Z</time></trkpt><trkpt lat="43.11492190616117" lon="13.162647236987322"><ele>859.1999999999999</ele><time>2026-04-24T16:49:23Z</time></trkpt><trkpt lat="43.11497094481884" lon="13.162773285835273"><ele>862.5999999999999</ele><time>2026-04-24T16:49:24Z</time></trkpt><trkpt lat="43.11502883843198" lon="13.162903319881119"><ele>866.0</ele><time>2026-04-24T16:49:25Z</time></trkpt><trkpt lat="43.11506989534081" lon="13.163033885610727"><ele>868.5000000000001</ele><time>2026-04-24T16:49:26Z</time></trkpt><trkpt lat="43.11510879629027" lon="13.163151291922857"><ele>871.0</ele><time>2026-04-24T16:49:27Z</time></trkpt><trkpt lat="43.11514528985357" lon="13.163257754282217"><ele>873.5</ele><time>2026-04-24T16:49:28Z</time></trkpt><trkpt lat="43.11519257131181" lon="13.16336062445844"><ele>876.0</ele><time>2026-04-24T16:49:29Z</time></trkpt><trkpt lat="43.1152383353902" lon="13.163443947104323"><ele>878.5000000000001</ele><time>2026-04-24T16:49:30Z</time></trkpt><trkpt lat="43.11528786182471" lon="13.163522236589422"><ele>881.0</ele><time>2026-04-24T16:49:31Z</time></trkpt><trkpt lat="43.11534628690494" lon="13.16362634366898"><ele>882.6666666666667</ele><time>2026-04-24T16:49:32Z</time></trkpt><trkpt lat="43.11540079650122" lon="13.163699447492764"><ele>884.3333333333334</ele><time>2026-04-24T16:49:33Z</time></trkpt><trkpt lat="43.11544146495071" lon="13.16377834622529"><ele>886.0</ele><time>2026-04-24T16:49:34Z</time></trkpt><trkpt lat="43.115501133066175" lon="13.163878041282798"><ele>887.6666666666667</ele><time>2026-04-24T16:49:35Z</time></trkpt><trkpt lat="43.11555879472171" lon="13.163977924607678"><ele>889.3333333333334</ele><time>2026-04-24T16:49:36Z</time></trkpt><trkpt lat="43.11561482160444" lon="13.164060752700346"><ele>891.0</ele><time>2026-04-24T16:49:37Z</time></trkpt><trkpt lat="43.115692207845214" lon="13.164164972078733"><ele>894.0</ele><time>2026-04-24T16:49:39Z</time></trkpt><trkpt lat="43.11577463875247" lon="13.164243345253022"><ele>897.0</ele><time>2026-04-24T16:49:41Z</time></trkpt><trkpt lat="43.11584490937115" lon="13.16430860063881"><ele>900.0</ele><time>2026-04-24T16:49:43Z</time></trkpt><trkpt lat="43.115770230509604" lon="13.164354615897848"><ele>903.0</ele><time>2026-04-24T16:49:47Z</time></trkpt><trkpt lat="43.115694724708014" lon="13.164302193187712"><ele>906.0</ele><time>2026-04-24T16:49:49Z</time></trkpt><trkpt lat="43.11563895616739" lon="13.164217144916776"><ele>909.0</ele><time>2026-04-24T16:49:51Z</time></trkpt><trkpt lat="43.11561698674603" lon="13.164112883069048"><ele>906.0</ele><time>2026-04-24T16:49:53Z</time></trkpt><trkpt lat="43.11558803758918" lon="13.164028785205817"><ele>903.0</ele><time>2026-04-24T16:49:55Z</time></trkpt><trkpt lat="43.1155335471141" lon="13.163964962281334"><ele>900.0</ele><time>2026-04-24T16:49:57Z</time></trkpt><trkpt lat="43.115461572170915" lon="13.16389789574384"><ele>897.0</ele><time>2026-04-24T16:49:59Z</time></trkpt><trkpt lat="43.11538535706572" lon="13.163834666729024"><ele>894.0</ele><time>2026-04-24T16:50:01Z</time></trkpt><trkpt lat="43.11531089641302" lon="13.16378824577098"><ele>891.0</ele><time>2026-04-24T16:50:03Z</time></trkpt><trkpt lat="43.115267346038074" lon="13.163689746538456"><ele>891.0</ele><time>2026-04-24T16:50:06Z</time></trkpt><trkpt lat="43.115285441351425" lon="13.163583789958855"><ele>891.0</ele><time>2026-04-24T16:50:08.999Z</time></trkpt><trkpt lat="43.11536910002095" lon="13.163538470210904"><ele>891.0</ele><time>2026-04-24T16:50:56.999Z</time></trkpt><trkpt lat="43.115416144215025" lon="13.163617305957134"><ele>891.0</ele><time>2026-04-24T16:50:59Z</time></trkpt><trkpt lat="43.115461908441326" lon="13.16372166294888"><ele>891.0</ele><time>2026-04-24T16:51:01Z</time></trkpt><trkpt lat="43.1155224703983" lon="13.163811346650123"><ele>891.0</ele><time>2026-04-24T16:51:03Z</time></trkpt><trkpt lat="43.11559407766649" lon="13.1639484628713"><ele>894.5999999999999</ele><time>2026-04-24T16:51:05Z</time></trkpt><trkpt lat="43.115649039650656" lon="13.164090561701025"><ele>898.1999999999999</ele><time>2026-04-24T16:51:07Z</time></trkpt><trkpt lat="43.115684614564614" lon="13.164172730684758"><ele>901.8000000000001</ele><time>2026-04-24T16:51:08Z</time></trkpt><trkpt lat="43.11578101894976" lon="13.164287045762938"><ele>905.4000000000001</ele><time>2026-04-24T16:51:10Z</time></trkpt><trkpt lat="43.11583139087514" lon="13.164355453536997"><ele>909.0</ele><time>2026-04-24T16:51:11Z</time></trkpt><trkpt lat="43.11584129833528" lon="13.164486361278435"><ele>909.0</ele><time>2026-04-24T16:51:13Z</time></trkpt><trkpt lat="43.11580291343815" lon="13.164634099767614"><ele>909.0000000000001</ele><time>2026-04-24T16:51:15Z</time></trkpt><trkpt lat="43.11572313712299" lon="13.164724323625748"><ele>909.0000000000001</ele><time>2026-04-24T16:51:17Z</time></trkpt><trkpt lat="43.11571155002516" lon="13.164825593683327"><ele>909.0</ele><time>2026-04-24T16:51:19Z</time></trkpt><trkpt lat="43.115695082461166" lon="13.164951266816168"><ele>909.0</ele><time>2026-04-24T16:51:21Z</time></trkpt><trkpt lat="43.1156542236803" lon="13.165076598954434"><ele>910.8333333333334</ele><time>2026-04-24T16:51:23Z</time></trkpt><trkpt lat="43.11558989783785" lon="13.165205175388424"><ele>912.6666666666667</ele><time>2026-04-24T16:51:25Z</time></trkpt><trkpt lat="43.115554232688744" lon="13.165281855164448"><ele>914.5</ele><time>2026-04-24T16:51:26Z</time></trkpt><trkpt lat="43.11551629660673" lon="13.16536523687686"><ele>916.3333333333334</ele><time>2026-04-24T16:51:27Z</time></trkpt><trkpt lat="43.115476507647145" lon="13.165446160856352"><ele>918.1666666666667</ele><time>2026-04-24T16:51:28Z</time></trkpt><trkpt lat="43.115446000407466" lon="13.165531594090938"><ele>920.0</ele><time>2026-04-24T16:51:29Z</time></trkpt><trkpt lat="43.115421254069524" lon="13.165617074270111"><ele>921.4285714285713</ele><time>2026-04-24T16:51:30Z</time></trkpt><trkpt lat="43.11539159255996" lon="13.16569693250794"><ele>922.8571428571429</ele><time>2026-04-24T16:51:31Z</time></trkpt><trkpt lat="43.11535261018222" lon="13.16577034099551"><ele>924.2857142857142</ele><time>2026-04-24T16:51:32Z</time></trkpt><trkpt lat="43.115303519394985" lon="13.165839927086296"><ele>925.7142857142857</ele><time>2026-04-24T16:51:33Z</time></trkpt><trkpt lat="43.11525424704522" lon="13.165898518432908"><ele>927.1428571428571</ele><time>2026-04-24T16:51:34Z</time></trkpt><trkpt lat="43.11520273127926" lon="13.165962040614161"><ele>928.5714285714286</ele><time>2026-04-24T16:51:35Z</time></trkpt><trkpt lat="43.11514794055131" lon="13.166030108945616"><ele>930.0</ele><time>2026-04-24T16:51:36Z</time></trkpt><trkpt lat="43.11509577165793" lon="13.166100915525357"><ele>930.0</ele><time>2026-04-24T16:51:37Z</time></trkpt><trkpt lat="43.11504309298247" lon="13.166173018134469"><ele>930.0</ele><time>2026-04-24T16:51:38Z</time></trkpt><trkpt lat="43.114985432451" lon="13.166240596877254"><ele>930.0</ele><time>2026-04-24T16:51:39Z</time></trkpt><trkpt lat="43.1149202531894" lon="13.166287854845208"><ele>930.0</ele><time>2026-04-24T16:51:40Z</time></trkpt><trkpt lat="43.114833234720635" lon="13.166335463855644"><ele>930.0</ele><time>2026-04-24T16:51:41Z</time></trkpt><trkpt lat="43.11472970964689" lon="13.166374817145504"><ele>930.0</ele><time>2026-04-24T16:51:42Z</time></trkpt><trkpt lat="43.114625074365726" lon="13.166409613662447"><ele>933.0</ele><time>2026-04-24T16:51:43Z</time></trkpt><trkpt lat="43.11450837620583" lon="13.166452495098735"><ele>936.0</ele><time>2026-04-24T16:51:44Z</time></trkpt><trkpt lat="43.114385036350896" lon="13.166503241649027"><ele>939.0</ele><time>2026-04-24T16:51:45Z</time></trkpt><trkpt lat="43.11426754598388" lon="13.16656062244657"><ele>942.0</ele><time>2026-04-24T16:51:46Z</time></trkpt><trkpt lat="43.11416363398101" lon="13.166627965971381"><ele>947.25</ele><time>2026-04-24T16:51:47Z</time></trkpt><trkpt lat="43.114067114985794" lon="13.166697203270337"><ele>952.5</ele><time>2026-04-24T16:51:48Z</time></trkpt><trkpt lat="43.113963496945345" lon="13.166775378894535"><ele>957.75</ele><time>2026-04-24T16:51:49Z</time></trkpt><trkpt lat="43.113862493127314" lon="13.166850876017834"><ele>963.0</ele><time>2026-04-24T16:51:50Z</time></trkpt><trkpt lat="43.11374934657697" lon="13.166939769382061"><ele>963.0</ele><time>2026-04-24T16:51:51Z</time></trkpt><trkpt lat="43.11362722864299" lon="13.167036728386677"><ele>963.0</ele><time>2026-04-24T16:51:52Z</time></trkpt><trkpt lat="43.1135244957885" lon="13.167107683635638"><ele>963.0</ele><time>2026-04-24T16:51:53Z</time></trkpt><trkpt lat="43.11344548582884" lon="13.167162066994088"><ele>963.0</ele><time>2026-04-24T16:51:54Z</time></trkpt><trkpt lat="43.11336850245854" lon="13.167205943209524"><ele>963.0</ele><time>2026-04-24T16:51:55Z</time></trkpt><trkpt lat="43.11327916046263" lon="13.167250952620163"><ele>966.0</ele><time>2026-04-24T16:51:56Z</time></trkpt><trkpt lat="43.113193118699286" lon="13.16728976663642"><ele>969.0</ele><time>2026-04-24T16:51:57Z</time></trkpt><trkpt lat="43.11310978160026" lon="13.167336376442478"><ele>972.0</ele><time>2026-04-24T16:51:58Z</time></trkpt><trkpt lat="43.11302641793781" lon="13.16740228243982"><ele>975.0</ele><time>2026-04-24T16:51:59Z</time></trkpt><trkpt lat="43.112955170988315" lon="13.16748312258632"><ele>978.0</ele><time>2026-04-24T16:52:00Z</time></trkpt><trkpt lat="43.11288146967983" lon="13.167590713226893"><ele>979.2</ele><time>2026-04-24T16:52:01Z</time></trkpt><trkpt lat="43.11283041427895" lon="13.167695637672683"><ele>980.4</ele><time>2026-04-24T16:52:02Z</time></trkpt><trkpt lat="43.112772872203486" lon="13.167786469363483"><ele>981.6000000000001</ele><time>2026-04-24T16:52:03Z</time></trkpt><trkpt lat="43.11269466830108" lon="13.16786082037884"><ele>982.8000000000001</ele><time>2026-04-24T16:52:04Z</time></trkpt><trkpt lat="43.11259296332626" lon="13.167923692201693"><ele>984.0</ele><time>2026-04-24T16:52:05Z</time></trkpt><trkpt lat="43.112481139456925" lon="13.167988268025669"><ele>986.8000000000001</ele><time>2026-04-24T16:52:06Z</time></trkpt><trkpt lat="43.11238073522102" lon="13.168063003318803"><ele>989.6000000000001</ele><time>2026-04-24T16:52:07Z</time></trkpt><trkpt lat="43.11228493503063" lon="13.168135878643351"><ele>992.4</ele><time>2026-04-24T16:52:08Z</time></trkpt><trkpt lat="43.112191230109836" lon="13.168218083491178"><ele>995.2</ele><time>2026-04-24T16:52:09Z</time></trkpt><trkpt lat="43.11210115057159" lon="13.16829651132432"><ele>998.0</ele><time>2026-04-24T16:52:10Z</time></trkpt><trkpt lat="43.112013459769244" lon="13.168371005830975"><ele>999.0</ele><time>2026-04-24T16:52:11Z</time></trkpt><trkpt lat="43.11191954835154" lon="13.168440545201529"><ele>1000.0</ele><time>2026-04-24T16:52:12Z</time></trkpt><trkpt lat="43.11181240460063" lon="13.168513444803207"><ele>1001.0</ele><time>2026-04-24T16:52:13Z</time></trkpt><trkpt lat="43.111690331347795" lon="13.168609855445192"><ele>1002.0</ele><time>2026-04-24T16:52:13.999Z</time></trkpt><trkpt lat="43.11155574275922" lon="13.168710503728763"><ele>1005.0</ele><time>2026-04-24T16:52:14.999Z</time></trkpt><trkpt lat="43.11144936414374" lon="13.168767361160281"><ele>1008.0</ele><time>2026-04-24T16:52:15.999Z</time></trkpt><trkpt lat="43.111332355815" lon="13.168801026225491"><ele>1011.0</ele><time>2026-04-24T16:52:16.999Z</time></trkpt><trkpt lat="43.11121927549949" lon="13.168820878951893"><ele>1014.0</ele><time>2026-04-24T16:52:17.999Z</time></trkpt><trkpt lat="43.11110839445854" lon="13.1688342974558"><ele>1014.0</ele><time>2026-04-24T16:52:18.999Z</time></trkpt><trkpt lat="43.11099847314148" lon="13.168843003465657"><ele>1014.0</ele><time>2026-04-24T16:52:19.999Z</time></trkpt><trkpt lat="43.110908123059005" lon="13.168841954100886"><ele>1014.0</ele><time>2026-04-24T16:52:20.999Z</time></trkpt><trkpt lat="43.11083644586638" lon="13.168847789409593"><ele>1014.0</ele><time>2026-04-24T16:52:21.999Z</time></trkpt><trkpt lat="43.11077416006209" lon="13.16889442780438"><ele>1014.0</ele><time>2026-04-24T16:52:22.999Z</time></trkpt><trkpt lat="43.110727391449956" lon="13.1689900495474"><ele>1014.0</ele><time>2026-04-24T16:52:23.999Z</time></trkpt><trkpt lat="43.110687394623994" lon="13.169134982838882"><ele>1013.2</ele><time>2026-04-24T16:52:24.999Z</time></trkpt><trkpt lat="43.110667622374756" lon="13.16929065822572"><ele>1012.4000000000001</ele><time>2026-04-24T16:52:25.999Z</time></trkpt><trkpt lat="43.11065852714631" lon="13.169431457995719"><ele>1011.6</ele><time>2026-04-24T16:52:26.999Z</time></trkpt><trkpt lat="43.11063768125929" lon="13.169569077933337"><ele>1010.8</ele><time>2026-04-24T16:52:28.999Z</time></trkpt><trkpt lat="43.110650710557906" lon="13.169724664415345"><ele>1010.0</ele><time>2026-04-24T16:52:30.999Z</time></trkpt><trkpt lat="43.110667497031784" lon="13.16989025767289"><ele>1010.1666666666667</ele><time>2026-04-24T16:52:32.999Z</time></trkpt><trkpt lat="43.110678908432604" lon="13.169976411195718"><ele>1010.3333333333334</ele><time>2026-04-24T16:52:33.999Z</time></trkpt><trkpt lat="43.110703163631264" lon="13.170073205343389"><ele>1010.5</ele><time>2026-04-24T16:52:34.999Z</time></trkpt><trkpt lat="43.11073731736343" lon="13.170169834376843"><ele>1010.6666666666667</ele><time>2026-04-24T16:52:35.999Z</time></trkpt><trkpt lat="43.1107776546613" lon="13.170276015417063"><ele>1010.8333333333334</ele><time>2026-04-24T16:52:36.999Z</time></trkpt><trkpt lat="43.11081575314769" lon="13.17037715199708"><ele>1011.0</ele><time>2026-04-24T16:52:37.999Z</time></trkpt><trkpt lat="43.11085879642795" lon="13.17048309719283"><ele>1011.0</ele><time>2026-04-24T16:52:38.999Z</time></trkpt><trkpt lat="43.11089822968028" lon="13.170586573813706"><ele>1011.0</ele><time>2026-04-24T16:52:39.999Z</time></trkpt><trkpt lat="43.11093313680196" lon="13.170681444395338"><ele>1011.0</ele><time>2026-04-24T16:52:40.999Z</time></trkpt><trkpt lat="43.110971761052284" lon="13.170788332775928"><ele>1011.0</ele><time>2026-04-24T16:52:41.999Z</time></trkpt><trkpt lat="43.11101405499286" lon="13.17089224623874"><ele>1011.0</ele><time>2026-04-24T16:52:42.999Z</time></trkpt><trkpt lat="43.11106371062862" lon="13.170989518101921"><ele>1011.0</ele><time>2026-04-24T16:52:43.999Z</time></trkpt><trkpt lat="43.11111654673289" lon="13.171082059184128"><ele>1010.6666666666666</ele><time>2026-04-24T16:52:44.999Z</time></trkpt><trkpt lat="43.111161734013436" lon="13.171165467034381"><ele>1010.3333333333333</ele><time>2026-04-24T16:52:45.999Z</time></trkpt><trkpt lat="43.111186636611556" lon="13.171265545867097"><ele>1010.0</ele><time>2026-04-24T16:52:46.999Z</time></trkpt><trkpt lat="43.11118569406495" lon="13.171369794251527"><ele>1009.6666666666666</ele><time>2026-04-24T16:52:47.999Z</time></trkpt><trkpt lat="43.111165910523184" lon="13.171481451526361"><ele>1009.3333333333333</ele><time>2026-04-24T16:52:48.999Z</time></trkpt><trkpt lat="43.111124340580695" lon="13.171593043663854"><ele>1009.0</ele><time>2026-04-24T16:52:49.999Z</time></trkpt><trkpt lat="43.11108011177969" lon="13.171690931718734"><ele>1008.4999999999999</ele><time>2026-04-24T16:52:50.999Z</time></trkpt><trkpt lat="43.11104049145692" lon="13.171785524220686"><ele>1008.0</ele><time>2026-04-24T16:52:51.999Z</time></trkpt><trkpt lat="43.11100609646016" lon="13.171891235267502"><ele>1007.5</ele><time>2026-04-24T16:52:52.999Z</time></trkpt><trkpt lat="43.11097512990456" lon="13.171997748274684"><ele>1007.0</ele><time>2026-04-24T16:52:53.999Z</time></trkpt><trkpt lat="43.110946391175034" lon="13.172110830623998"><ele>1006.4999999999999</ele><time>2026-04-24T16:52:54.999Z</time></trkpt><trkpt lat="43.11092408487139" lon="13.172228287346377"><ele>1006.0</ele><time>2026-04-24T16:52:55.999Z</time></trkpt><trkpt lat="43.11090820557853" lon="13.172352812486848"><ele>1005.4999999999999</ele><time>2026-04-24T16:52:56.999Z</time></trkpt><trkpt lat="43.11089628989045" lon="13.172454761832189"><ele>1005.0</ele><time>2026-04-24T16:52:57.999Z</time></trkpt><trkpt lat="43.11089176509165" lon="13.172572587596502"><ele>1004.5</ele><time>2026-04-24T16:52:58.999Z</time></trkpt><trkpt lat="43.11088569130732" lon="13.172691534227596"><ele>1004.0</ele><time>2026-04-24T16:52:59.999Z</time></trkpt><trkpt lat="43.11087746661346" lon="13.17281320474909"><ele>1003.4999999999999</ele><time>2026-04-24T16:53:00.999Z</time></trkpt><trkpt lat="43.110865244968885" lon="13.172926685242604"><ele>1003.0</ele><time>2026-04-24T16:53:01.999Z</time></trkpt><trkpt lat="43.11084975525151" lon="13.17303586762649"><ele>1002.9999999999999</ele><time>2026-04-24T16:53:02.999Z</time></trkpt><trkpt lat="43.11083157972189" lon="13.173141633231413"><ele>1003.0</ele><time>2026-04-24T16:53:04Z</time></trkpt><trkpt lat="43.11081007359327" lon="13.173250820708384"><ele>1003.0</ele><time>2026-04-24T16:53:05Z</time></trkpt><trkpt lat="43.110789365611005" lon="13.173356723767753"><ele>1003.0</ele><time>2026-04-24T16:53:06Z</time></trkpt><trkpt lat="43.11077261998695" lon="13.173461620650992"><ele>1002.9999999999999</ele><time>2026-04-24T16:53:07Z</time></trkpt><trkpt lat="43.110757443574386" lon="13.17357310339554"><ele>1003.0</ele><time>2026-04-24T16:53:08Z</time></trkpt><trkpt lat="43.110737963835916" lon="13.173679846036514"><ele>1003.9999999999999</ele><time>2026-04-24T16:53:09Z</time></trkpt><trkpt lat="43.11070743211734" lon="13.173801824171411"><ele>1005.0</ele><time>2026-04-24T16:53:10Z</time></trkpt><trkpt lat="43.110673155086104" lon="13.17391627774802"><ele>1006.0</ele><time>2026-04-24T16:53:11Z</time></trkpt><trkpt lat="43.110653099156444" lon="13.174012899174993"><ele>1007.0</ele><time>2026-04-24T16:53:12Z</time></trkpt><trkpt lat="43.110636967656596" lon="13.17414434836737"><ele>1007.9999999999999</ele><time>2026-04-24T16:53:13Z</time></trkpt><trkpt lat="43.11063388850611" lon="13.174253638005311"><ele>1009.0</ele><time>2026-04-24T16:53:14Z</time></trkpt><trkpt lat="43.11062308240268" lon="13.17437112238489"><ele>1009.3333333333333</ele><time>2026-04-24T16:53:15Z</time></trkpt><trkpt lat="43.11061249982292" lon="13.174479188366018"><ele>1009.6666666666666</ele><time>2026-04-24T16:53:16Z</time></trkpt><trkpt lat="43.11060972104982" lon="13.174580932348738"><ele>1010.0</ele><time>2026-04-24T16:53:17Z</time></trkpt><trkpt lat="43.110622270766434" lon="13.174690448910338"><ele>1010.3333333333333</ele><time>2026-04-24T16:53:18Z</time></trkpt><trkpt lat="43.11064226143908" lon="13.17480313195294"><ele>1010.6666666666666</ele><time>2026-04-24T16:53:19Z</time></trkpt><trkpt lat="43.11065951944495" lon="13.174919399188214"><ele>1011.0</ele><time>2026-04-24T16:53:20Z</time></trkpt><trkpt lat="43.11067284878315" lon="13.175030135558988"><ele>1011.0</ele><time>2026-04-24T16:53:21Z</time></trkpt><trkpt lat="43.110681048280476" lon="13.175139892653249"><ele>1011.0</ele><time>2026-04-24T16:53:22Z</time></trkpt><trkpt lat="43.11068087805839" lon="13.175261239025769"><ele>1011.0</ele><time>2026-04-24T16:53:23Z</time></trkpt><trkpt lat="43.11067213982969" lon="13.175373425652072"><ele>1011.0</ele><time>2026-04-24T16:53:24Z</time></trkpt><trkpt lat="43.110658953562314" lon="13.17548543879598"><ele>1011.0</ele><time>2026-04-24T16:53:25Z</time></trkpt><trkpt lat="43.11064584018662" lon="13.175597966651084"><ele>1011.0</ele><time>2026-04-24T16:53:26Z</time></trkpt><trkpt lat="43.11062953785216" lon="13.175702695963194"><ele>1011.0</ele><time>2026-04-24T16:53:27Z</time></trkpt><trkpt lat="43.11062049590201" lon="13.175801386072294"><ele>1010.9999999999999</ele><time>2026-04-24T16:53:28Z</time></trkpt><trkpt lat="43.11061434740728" lon="13.175892102936267"><ele>1010.9999999999999</ele><time>2026-04-24T16:53:29Z</time></trkpt><trkpt lat="43.1106053830285" lon="13.176046040435345"><ele>1011.0</ele><time>2026-04-24T16:53:31Z</time></trkpt><trkpt lat="43.11055818585118" lon="13.17620214127846"><ele>1011.0</ele><time>2026-04-24T16:53:33Z</time></trkpt><trkpt lat="43.11051316113469" lon="13.176287573364164"><ele>1011.0</ele><time>2026-04-24T16:53:34Z</time></trkpt><trkpt lat="43.11045725763815" lon="13.17638808349356"><ele>1010.9999999999999</ele><time>2026-04-24T16:53:35Z</time></trkpt><trkpt lat="43.11040901756912" lon="13.176477163975877"><ele>1010.9999999999999</ele><time>2026-04-24T16:53:36Z</time></trkpt><trkpt lat="43.110359918726886" lon="13.17658154523102"><ele>1011.0</ele><time>2026-04-24T16:53:37Z</time></trkpt><trkpt lat="43.1103121655114" lon="13.17669816916097"><ele>1011.0</ele><time>2026-04-24T16:53:38Z</time></trkpt><trkpt lat="43.11026379366501" lon="13.176818543456154"><ele>1010.5999999999999</ele><time>2026-04-24T16:53:39Z</time></trkpt><trkpt lat="43.11020885701302" lon="13.176947221432284"><ele>1010.1999999999999</ele><time>2026-04-24T16:53:40Z</time></trkpt><trkpt lat="43.110152561042604" lon="13.177069825150676"><ele>1009.8000000000001</ele><time>2026-04-24T16:53:41Z</time></trkpt><trkpt lat="43.11009973743027" lon="13.177195686675693"><ele>1009.4000000000001</ele><time>2026-04-24T16:53:42Z</time></trkpt><trkpt lat="43.110050205540816" lon="13.177329610438536"><ele>1009.0</ele><time>2026-04-24T16:53:43Z</time></trkpt><trkpt lat="43.11000224792679" lon="13.17745097850421"><ele>1009.0</ele><time>2026-04-24T16:53:44Z</time></trkpt><trkpt lat="43.109955660570044" lon="13.17757891746144"><ele>1009.0</ele><time>2026-04-24T16:53:45Z</time></trkpt><trkpt lat="43.10990786491087" lon="13.177707319349137"><ele>1009.0</ele><time>2026-04-24T16:53:46Z</time></trkpt><trkpt lat="43.10984130125344" lon="13.177853063309906"><ele>1009.0</ele><time>2026-04-24T16:53:47Z</time></trkpt><trkpt lat="43.10976467961809" lon="13.177993558797457"><ele>1011.6</ele><time>2026-04-24T16:53:48Z</time></trkpt><trkpt lat="43.10970325478738" lon="13.178122972562928"><ele>1014.2</ele><time>2026-04-24T16:53:49Z</time></trkpt><trkpt lat="43.10965209596951" lon="13.178230952023204"><ele>1016.8000000000001</ele><time>2026-04-24T16:53:50Z</time></trkpt><trkpt lat="43.10961425861257" lon="13.17831553002623"><ele>1019.4000000000001</ele><time>2026-04-24T16:53:51Z</time></trkpt><trkpt lat="43.10955034953053" lon="13.17846733815096"><ele>1022.0</ele><time>2026-04-24T16:53:53Z</time></trkpt><trkpt lat="43.10951573379259" lon="13.178549745056381"><ele>1022.0000000000001</ele><time>2026-04-24T16:53:54Z</time></trkpt><trkpt lat="43.10948157730778" lon="13.178638338001818"><ele>1022.0</ele><time>2026-04-24T16:53:55Z</time></trkpt><trkpt lat="43.10944765004652" lon="13.178731013829085"><ele>1022.0</ele><time>2026-04-24T16:53:56Z</time></trkpt><trkpt lat="43.10941209125186" lon="13.178822617282476"><ele>1022.0</ele><time>2026-04-24T16:53:57Z</time></trkpt><trkpt lat="43.109374250510704" lon="13.178921414947734"><ele>1022.0000000000001</ele><time>2026-04-24T16:53:58Z</time></trkpt><trkpt lat="43.10930633923803" lon="13.179074707831427"><ele>1022.0</ele><time>2026-04-24T16:54:00Z</time></trkpt><trkpt lat="43.10926699439042" lon="13.179163191277382"><ele>1021.6666666666667</ele><time>2026-04-24T16:54:01Z</time></trkpt><trkpt lat="43.10922159684595" lon="13.179264398819925"><ele>1021.3333333333334</ele><time>2026-04-24T16:54:02Z</time></trkpt><trkpt lat="43.10917444476469" lon="13.179358113048053"><ele>1021.0</ele><time>2026-04-24T16:54:03Z</time></trkpt><trkpt lat="43.109128256386136" lon="13.179458186049914"><ele>1020.6666666666667</ele><time>2026-04-24T16:54:04Z</time></trkpt><trkpt lat="43.10908383093377" lon="13.179554117350468"><ele>1020.3333333333334</ele><time>2026-04-24T16:54:05Z</time></trkpt><trkpt lat="43.109047593907825" lon="13.179636116355272"><ele>1020.0</ele><time>2026-04-24T16:54:06Z</time></trkpt><trkpt lat="43.10901494654389" lon="13.179712294713116"><ele>1022.8</ele><time>2026-04-24T16:54:07Z</time></trkpt><trkpt lat="43.10896931039075" lon="13.179836974758363"><ele>1025.6</ele><time>2026-04-24T16:54:09Z</time></trkpt><trkpt lat="43.1089354148597" lon="13.17994698075294"><ele>1028.4</ele><time>2026-04-24T16:54:11Z</time></trkpt><trkpt lat="43.10890456943924" lon="13.180055436128203"><ele>1031.2</ele><time>2026-04-24T16:54:13Z</time></trkpt><trkpt lat="43.108880364672224" lon="13.179915924142728"><ele>1034.0</ele><time>2026-04-24T16:54:59.999Z</time></trkpt><trkpt lat="43.108827900528254" lon="13.179794734191898"><ele>1034.4</ele><time>2026-04-24T16:55:01.999Z</time></trkpt><trkpt lat="43.10874744483166" lon="13.179723400005525"><ele>1034.8000000000002</ele><time>2026-04-24T16:55:03.999Z</time></trkpt><trkpt lat="43.1086491970757" lon="13.179694826606566"><ele>1035.1999999999998</ele><time>2026-04-24T16:55:05.999Z</time></trkpt><trkpt lat="43.10853298652473" lon="13.1796704544824"><ele>1035.6</ele><time>2026-04-24T16:55:07.999Z</time></trkpt><trkpt lat="43.108467590067384" lon="13.179651117248321"><ele>1036.0</ele><time>2026-04-24T16:55:08.999Z</time></trkpt><trkpt lat="43.10839707020996" lon="13.17963160561316"><ele>1036.0</ele><time>2026-04-24T16:55:10Z</time></trkpt><trkpt lat="43.10832562817403" lon="13.179614680219935"><ele>1036.0</ele><time>2026-04-24T16:55:11Z</time></trkpt><trkpt lat="43.108253382418404" lon="13.179587202892089"><ele>1036.0</ele><time>2026-04-24T16:55:12Z</time></trkpt><trkpt lat="43.108180208724356" lon="13.179566049695492"><ele>1036.0</ele><time>2026-04-24T16:55:13Z</time></trkpt><trkpt lat="43.108099916480576" lon="13.179545578459612"><ele>1036.0</ele><time>2026-04-24T16:55:14Z</time></trkpt><trkpt lat="43.10801918432749" lon="13.179517848261877"><ele>1036.0</ele><time>2026-04-24T16:55:15Z</time></trkpt><trkpt lat="43.10793537706054" lon="13.17949135148412"><ele>1038.2</ele><time>2026-04-24T16:55:16Z</time></trkpt><trkpt lat="43.107853354572924" lon="13.17947062444403"><ele>1040.3999999999999</ele><time>2026-04-24T16:55:17Z</time></trkpt><trkpt lat="43.10776985043605" lon="13.179439868021053"><ele>1042.6</ele><time>2026-04-24T16:55:18Z</time></trkpt><trkpt lat="43.107680620888225" lon="13.17941169260127"><ele>1044.8</ele><time>2026-04-24T16:55:19Z</time></trkpt><trkpt lat="43.107587631989816" lon="13.179385788766762"><ele>1047.0</ele><time>2026-04-24T16:55:20Z</time></trkpt><trkpt lat="43.10748666716808" lon="13.179376501543025"><ele>1048.4</ele><time>2026-04-24T16:55:21Z</time></trkpt><trkpt lat="43.1073856211728" lon="13.179401473769843"><ele>1049.8000000000002</ele><time>2026-04-24T16:55:22Z</time></trkpt><trkpt lat="43.10728159687027" lon="13.179456728767867"><ele>1051.2</ele><time>2026-04-24T16:55:23Z</time></trkpt><trkpt lat="43.10719786559655" lon="13.179521747679876"><ele>1052.6000000000001</ele><time>2026-04-24T16:55:24Z</time></trkpt><trkpt lat="43.10711555589607" lon="13.179557035270715"><ele>1054.0</ele><time>2026-04-24T16:55:25Z</time></trkpt><trkpt lat="43.10702555047316" lon="13.179545862569551"><ele>1054.0</ele><time>2026-04-24T16:55:26Z</time></trkpt><trkpt lat="43.10691518179937" lon="13.179489461910608"><ele>1054.0</ele><time>2026-04-24T16:55:27Z</time></trkpt><trkpt lat="43.10679671704419" lon="13.179373499432586"><ele>1054.0</ele><time>2026-04-24T16:55:28Z</time></trkpt><trkpt lat="43.106684901994505" lon="13.179212132060746"><ele>1054.0</ele><time>2026-04-24T16:55:29Z</time></trkpt><trkpt lat="43.10657229886854" lon="13.17908963609606"><ele>1055.0</ele><time>2026-04-24T16:55:30Z</time></trkpt><trkpt lat="43.10646809456556" lon="13.179006645217857"><ele>1056.0</ele><time>2026-04-24T16:55:31Z</time></trkpt><trkpt lat="43.106377059196454" lon="13.178918780058098"><ele>1057.0</ele><time>2026-04-24T16:55:32Z</time></trkpt><trkpt lat="43.10629500971762" lon="13.17881048247419"><ele>1058.0</ele><time>2026-04-24T16:55:33Z</time></trkpt><trkpt lat="43.10623020098096" lon="13.178686141623496"><ele>1058.0</ele><time>2026-04-24T16:55:34Z</time></trkpt><trkpt lat="43.10617757426207" lon="13.178568045709225"><ele>1058.0</ele><time>2026-04-24T16:55:35Z</time></trkpt><trkpt lat="43.106111356032564" lon="13.178464641135193"><ele>1058.0</ele><time>2026-04-24T16:55:36Z</time></trkpt><trkpt lat="43.10601659629404" lon="13.17839510162703"><ele>1058.0</ele><time>2026-04-24T16:55:37Z</time></trkpt><trkpt lat="43.10591492718202" lon="13.178368638856655"><ele>1058.0</ele><time>2026-04-24T16:55:38Z</time></trkpt><trkpt lat="43.10581615080979" lon="13.178371925396926"><ele>1058.8</ele><time>2026-04-24T16:55:39Z</time></trkpt><trkpt lat="43.10571765853888" lon="13.17838984184264"><ele>1059.6</ele><time>2026-04-24T16:55:40Z</time></trkpt><trkpt lat="43.10563013852712" lon="13.17839439870445"><ele>1060.4</ele><time>2026-04-24T16:55:41Z</time></trkpt><trkpt lat="43.10554237099025" lon="13.178384902416402"><ele>1061.2</ele><time>2026-04-24T16:55:42Z</time></trkpt><trkpt lat="43.105450629441286" lon="13.178376341619927"><ele>1062.0</ele><time>2026-04-24T16:55:43Z</time></trkpt><trkpt lat="43.10536633081182" lon="13.17838936251939"><ele>1062.0</ele><time>2026-04-24T16:55:44Z</time></trkpt><trkpt lat="43.105280964508864" lon="13.178424814214544"><ele>1062.0</ele><time>2026-04-24T16:55:45Z</time></trkpt><trkpt lat="43.10520192917235" lon="13.178464071025534"><ele>1062.0</ele><time>2026-04-24T16:55:46Z</time></trkpt><trkpt lat="43.10513103497671" lon="13.178504458796645"><ele>1062.0</ele><time>2026-04-24T16:55:47Z</time></trkpt><trkpt lat="43.10505219980062" lon="13.178557984679557"><ele>1062.0</ele><time>2026-04-24T16:55:48Z</time></trkpt><trkpt lat="43.10497505220506" lon="13.178608395494926"><ele>1062.0</ele><time>2026-04-24T16:55:49Z</time></trkpt><trkpt lat="43.10489054071923" lon="13.178642960140953"><ele>1062.4</ele><time>2026-04-24T16:55:50Z</time></trkpt><trkpt lat="43.10478619168693" lon="13.17864453574342"><ele>1062.8000000000002</ele><time>2026-04-24T16:55:51Z</time></trkpt><trkpt lat="43.104680256390346" lon="13.178619882358621"><ele>1063.2</ele><time>2026-04-24T16:55:52Z</time></trkpt><trkpt lat="43.10457272885839" lon="13.178580207469555"><ele>1063.6000000000001</ele><time>2026-04-24T16:55:53Z</time></trkpt><trkpt lat="43.10446970268689" lon="13.178545730072297"><ele>1064.0</ele><time>2026-04-24T16:55:54Z</time></trkpt><trkpt lat="43.10436811308478" lon="13.178514184617901"><ele>1064.0</ele><time>2026-04-24T16:55:55Z</time></trkpt><trkpt lat="43.104260940410626" lon="13.178483546101347"><ele>1064.0</ele><time>2026-04-24T16:55:56Z</time></trkpt><trkpt lat="43.104160243687105" lon="13.17845625151257"><ele>1064.0</ele><time>2026-04-24T16:55:57Z</time></trkpt><trkpt lat="43.10406147583337" lon="13.178425142090388"><ele>1064.0</ele><time>2026-04-24T16:55:58Z</time></trkpt><trkpt lat="43.10395607447419" lon="13.178391803401666"><ele>1064.0</ele><time>2026-04-24T16:55:59Z</time></trkpt><trkpt lat="43.10384333194547" lon="13.17836326643113"><ele>1065.0</ele><time>2026-04-24T16:56:00Z</time></trkpt><trkpt lat="43.103737199627176" lon="13.17833827472503"><ele>1066.0</ele><time>2026-04-24T16:56:01Z</time></trkpt><trkpt lat="43.10362343084485" lon="13.178306266470198"><ele>1067.0</ele><time>2026-04-24T16:56:02Z</time></trkpt><trkpt lat="43.10351695504523" lon="13.178272957675535"><ele>1068.0</ele><time>2026-04-24T16:56:03Z</time></trkpt><trkpt lat="43.10340888737694" lon="13.178233907427622"><ele>1069.0</ele><time>2026-04-24T16:56:04Z</time></trkpt><trkpt lat="43.103303373052476" lon="13.178193434685419"><ele>1068.2</ele><time>2026-04-24T16:56:05Z</time></trkpt><trkpt lat="43.10319542590789" lon="13.17815639531942"><ele>1067.4</ele><time>2026-04-24T16:56:06Z</time></trkpt><trkpt lat="43.10308376483403" lon="13.178132028856611"><ele>1066.6</ele><time>2026-04-24T16:56:07Z</time></trkpt><trkpt lat="43.10297865059638" lon="13.178105061786185"><ele>1065.8</ele><time>2026-04-24T16:56:08Z</time></trkpt><trkpt lat="43.102867476608246" lon="13.17807157726785"><ele>1065.0</ele><time>2026-04-24T16:56:09Z</time></trkpt><trkpt lat="43.102756543466974" lon="13.17804556718156"><ele>1065.0</ele><time>2026-04-24T16:56:10Z</time></trkpt><trkpt lat="43.10264157181454" lon="13.178020582316773"><ele>1065.0</ele><time>2026-04-24T16:56:11Z</time></trkpt><trkpt lat="43.10252619235798" lon="13.178000254168824"><ele>1065.0</ele><time>2026-04-24T16:56:12Z</time></trkpt><trkpt lat="43.10241141567835" lon="13.177985211326133"><ele>1065.0</ele><time>2026-04-24T16:56:13Z</time></trkpt><trkpt lat="43.10229654650055" lon="13.1779708270336"><ele>1066.5</ele><time>2026-04-24T16:56:14Z</time></trkpt><trkpt lat="43.10218320733897" lon="13.177957088910734"><ele>1068.0</ele><time>2026-04-24T16:56:15Z</time></trkpt><trkpt lat="43.10207316707505" lon="13.177947417779114"><ele>1069.5</ele><time>2026-04-24T16:56:16Z</time></trkpt><trkpt lat="43.10196457902832" lon="13.177940872033775"><ele>1071.0</ele><time>2026-04-24T16:56:17Z</time></trkpt><trkpt lat="43.10184312698563" lon="13.177931547989797"><ele>1071.0</ele><time>2026-04-24T16:56:18Z</time></trkpt><trkpt lat="43.10173172061992" lon="13.17792041687479"><ele>1071.0</ele><time>2026-04-24T16:56:19Z</time></trkpt><trkpt lat="43.10161313956292" lon="13.177903834564383"><ele>1071.0</ele><time>2026-04-24T16:56:20Z</time></trkpt><trkpt lat="43.1014998140952" lon="13.177884742969992"><ele>1071.0</ele><time>2026-04-24T16:56:21Z</time></trkpt><trkpt lat="43.1013852896681" lon="13.1778763648102"><ele>1072.0</ele><time>2026-04-24T16:56:22Z</time></trkpt><trkpt lat="43.10127347898017" lon="13.17788077686267"><ele>1073.0</ele><time>2026-04-24T16:56:23Z</time></trkpt><trkpt lat="43.10116185326424" lon="13.177895840702996"><ele>1074.0</ele><time>2026-04-24T16:56:24Z</time></trkpt><trkpt lat="43.10105737970552" lon="13.177911755318904"><ele>1075.0</ele><time>2026-04-24T16:56:25Z</time></trkpt><trkpt lat="43.10095511513863" lon="13.17793323902421"><ele>1076.0</ele><time>2026-04-24T16:56:26Z</time></trkpt><trkpt lat="43.100852099470266" lon="13.177952560238877"><ele>1076.0</ele><time>2026-04-24T16:56:27Z</time></trkpt><trkpt lat="43.100753197452406" lon="13.177970770398016"><ele>1076.0</ele><time>2026-04-24T16:56:28Z</time></trkpt><trkpt lat="43.10065091078402" lon="13.177995005163764"><ele>1076.0</ele><time>2026-04-24T16:56:29Z</time></trkpt><trkpt lat="43.100548441488726" lon="13.178025770641616"><ele>1076.0</ele><time>2026-04-24T16:56:30Z</time></trkpt><trkpt lat="43.100444508678486" lon="13.178049044114262"><ele>1076.0</ele><time>2026-04-24T16:56:31Z</time></trkpt><trkpt lat="43.10034451642736" lon="13.178052220407512"><ele>1076.2</ele><time>2026-04-24T16:56:32Z</time></trkpt><trkpt lat="43.10024158913793" lon="13.178067133459832"><ele>1076.3999999999999</ele><time>2026-04-24T16:56:33Z</time></trkpt><trkpt lat="43.10014338699792" lon="13.178113548062834"><ele>1076.6</ele><time>2026-04-24T16:56:33.999Z</time></trkpt><trkpt lat="43.10004906498398" lon="13.178191305325605"><ele>1076.8</ele><time>2026-04-24T16:56:34.999Z</time></trkpt><trkpt lat="43.099960890780814" lon="13.178273963842628"><ele>1077.0</ele><time>2026-04-24T16:56:35.999Z</time></trkpt><trkpt lat="43.09987384022348" lon="13.178352034388338"><ele>1077.6</ele><time>2026-04-24T16:56:36.999Z</time></trkpt><trkpt lat="43.09979420547614" lon="13.178429611011987"><ele>1078.2</ele><time>2026-04-24T16:56:37.999Z</time></trkpt><trkpt lat="43.09971041648657" lon="13.178516734598881"><ele>1078.8</ele><time>2026-04-24T16:56:38.999Z</time></trkpt><trkpt lat="43.099627991267006" lon="13.17860907732258"><ele>1079.4</ele><time>2026-04-24T16:56:39.999Z</time></trkpt><trkpt lat="43.09955215482993" lon="13.178705476137601"><ele>1080.0</ele><time>2026-04-24T16:56:40.999Z</time></trkpt><trkpt lat="43.09947556242342" lon="13.17880592117925"><ele>1080.0</ele><time>2026-04-24T16:56:41.999Z</time></trkpt><trkpt lat="43.09940927324536" lon="13.178916403945378"><ele>1080.0</ele><time>2026-04-24T16:56:42.999Z</time></trkpt><trkpt lat="43.09936117201758" lon="13.179050723560387"><ele>1080.0</ele><time>2026-04-24T16:56:43.999Z</time></trkpt><trkpt lat="43.0993271553009" lon="13.179190605924367"><ele>1080.0</ele><time>2026-04-24T16:56:44.999Z</time></trkpt><trkpt lat="43.099297630622225" lon="13.179328477524225"><ele>1080.0</ele><time>2026-04-24T16:56:45.999Z</time></trkpt><trkpt lat="43.0992600370035" lon="13.179467954788377"><ele>1078.8</ele><time>2026-04-24T16:56:46.999Z</time></trkpt><trkpt lat="43.09922315454643" lon="13.179599843025521"><ele>1077.6</ele><time>2026-04-24T16:56:47.999Z</time></trkpt><trkpt lat="43.09918489231647" lon="13.179733016242416"><ele>1076.4</ele><time>2026-04-24T16:56:48.999Z</time></trkpt><trkpt lat="43.0991428829329" lon="13.179865326918256"><ele>1075.2</ele><time>2026-04-24T16:56:49.999Z</time></trkpt><trkpt lat="43.09910243765898" lon="13.179996281525236"><ele>1074.0</ele><time>2026-04-24T16:56:50.999Z</time></trkpt><trkpt lat="43.09907777609013" lon="13.180128991874584"><ele>1074.0</ele><time>2026-04-24T16:56:51.999Z</time></trkpt><trkpt lat="43.09906632389726" lon="13.180270304568626"><ele>1074.0</ele><time>2026-04-24T16:56:52.999Z</time></trkpt><trkpt lat="43.09904172193025" lon="13.180416164156247"><ele>1074.0</ele><time>2026-04-24T16:56:53.999Z</time></trkpt><trkpt lat="43.099008066481126" lon="13.180549074978341"><ele>1074.0</ele><time>2026-04-24T16:56:54.999Z</time></trkpt><trkpt lat="43.09897774504293" lon="13.180688521492502"><ele>1074.0</ele><time>2026-04-24T16:56:55.999Z</time></trkpt><trkpt lat="43.09895002470166" lon="13.180826422813178"><ele>1076.4</ele><time>2026-04-24T16:56:56.999Z</time></trkpt><trkpt lat="43.09891783639284" lon="13.180947660256633"><ele>1078.8000000000002</ele><time>2026-04-24T16:56:57.999Z</time></trkpt><trkpt lat="43.0988624193301" lon="13.181065415641685"><ele>1081.1999999999998</ele><time>2026-04-24T16:56:58.999Z</time></trkpt><trkpt lat="43.098791170470456" lon="13.181176277122619"><ele>1083.6</ele><time>2026-04-24T16:56:59.999Z</time></trkpt><trkpt lat="43.09870383452301" lon="13.181271058839425"><ele>1086.0</ele><time>2026-04-24T16:57:00.999Z</time></trkpt><trkpt lat="43.098615485630745" lon="13.181360385757825"><ele>1086.0</ele><time>2026-04-24T16:57:01.999Z</time></trkpt><trkpt lat="43.09852926292144" lon="13.181438407275902"><ele>1086.0</ele><time>2026-04-24T16:57:02.999Z</time></trkpt><trkpt lat="43.098456376621435" lon="13.181520555289389"><ele>1086.0</ele><time>2026-04-24T16:57:03.999Z</time></trkpt><trkpt lat="43.09838127230512" lon="13.181611911600157"><ele>1086.0</ele><time>2026-04-24T16:57:04.999Z</time></trkpt><trkpt lat="43.09829768963817" lon="13.181709913431003"><ele>1086.0</ele><time>2026-04-24T16:57:05.999Z</time></trkpt><trkpt lat="43.09821928675546" lon="13.181802585354896"><ele>1083.3999999999999</ele><time>2026-04-24T16:57:06.999Z</time></trkpt><trkpt lat="43.09813868375207" lon="13.181901838113571"><ele>1080.8</ele><time>2026-04-24T16:57:07.999Z</time></trkpt><trkpt lat="43.09806301181609" lon="13.18199553622838"><ele>1078.1999999999998</ele><time>2026-04-24T16:57:08.999Z</time></trkpt><trkpt lat="43.097996903699276" lon="13.1820862404129"><ele>1075.6</ele><time>2026-04-24T16:57:09.999Z</time></trkpt><trkpt lat="43.09795054450269" lon="13.18218927471246"><ele>1073.0</ele><time>2026-04-24T16:57:10.999Z</time></trkpt><trkpt lat="43.0979309771085" lon="13.182304698720808"><ele>1075.6</ele><time>2026-04-24T16:57:11.999Z</time></trkpt><trkpt lat="43.09791840908276" lon="13.18243351486459"><ele>1078.1999999999998</ele><time>2026-04-24T16:57:12.999Z</time></trkpt><trkpt lat="43.097898490646216" lon="13.182561465140049"><ele>1080.8</ele><time>2026-04-24T16:57:13.999Z</time></trkpt><trkpt lat="43.0978719776269" lon="13.182681656175717"><ele>1083.3999999999999</ele><time>2026-04-24T16:57:14.999Z</time></trkpt><trkpt lat="43.09784060636803" lon="13.182803765634693"><ele>1086.0</ele><time>2026-04-24T16:57:16Z</time></trkpt><trkpt lat="43.09781505284675" lon="13.182926446152967"><ele>1086.0</ele><time>2026-04-24T16:57:17Z</time></trkpt><trkpt lat="43.09779146337811" lon="13.183051289279671"><ele>1086.0</ele><time>2026-04-24T16:57:18Z</time></trkpt><trkpt lat="43.097765821248224" lon="13.183180631323841"><ele>1086.0</ele><time>2026-04-24T16:57:19Z</time></trkpt><trkpt lat="43.09774981119618" lon="13.18330502936262"><ele>1086.0</ele><time>2026-04-24T16:57:20Z</time></trkpt><trkpt lat="43.09774810056596" lon="13.183434701366672"><ele>1086.0</ele><time>2026-04-24T16:57:21Z</time></trkpt><trkpt lat="43.097760677479116" lon="13.183573367012983"><ele>1088.3999999999999</ele><time>2026-04-24T16:57:22Z</time></trkpt><trkpt lat="43.09777267109559" lon="13.183717223300443"><ele>1090.8</ele><time>2026-04-24T16:57:23Z</time></trkpt><trkpt lat="43.09776513792218" lon="13.183845044877835"><ele>1093.1999999999998</ele><time>2026-04-24T16:57:24Z</time></trkpt><trkpt lat="43.09772652732197" lon="13.183976959604008"><ele>1095.6</ele><time>2026-04-24T16:57:25Z</time></trkpt><trkpt lat="43.097673380013816" lon="13.184108450812804"><ele>1098.0</ele><time>2026-04-24T16:57:26Z</time></trkpt><trkpt lat="43.09761941452144" lon="13.184235718969298"><ele>1099.4</ele><time>2026-04-24T16:57:27Z</time></trkpt><trkpt lat="43.09756796744137" lon="13.184361021588263"><ele>1100.8</ele><time>2026-04-24T16:57:28Z</time></trkpt><trkpt lat="43.09751774296792" lon="13.1844968726261"><ele>1102.2</ele><time>2026-04-24T16:57:29Z</time></trkpt><trkpt lat="43.0974729107461" lon="13.184630104338693"><ele>1103.6</ele><time>2026-04-24T16:57:30Z</time></trkpt><trkpt lat="43.097431330723325" lon="13.184770110852511"><ele>1105.0</ele><time>2026-04-24T16:57:31Z</time></trkpt><trkpt lat="43.09738852722428" lon="13.184909225426047"><ele>1100.75</ele><time>2026-04-24T16:57:32Z</time></trkpt><trkpt lat="43.09734668946812" lon="13.185051348482833"><ele>1096.5</ele><time>2026-04-24T16:57:33Z</time></trkpt><trkpt lat="43.097308532384886" lon="13.185195597023444"><ele>1092.25</ele><time>2026-04-24T16:57:34Z</time></trkpt><trkpt lat="43.097264638427916" lon="13.185335617019721"><ele>1088.0</ele><time>2026-04-24T16:57:35Z</time></trkpt><trkpt lat="43.09721381895135" lon="13.185478420861234"><ele>1088.0</ele><time>2026-04-24T16:57:36Z</time></trkpt><trkpt lat="43.09716621185866" lon="13.1856137304262"><ele>1088.0</ele><time>2026-04-24T16:57:37Z</time></trkpt><trkpt lat="43.097129795100344" lon="13.185751330928351"><ele>1088.0</ele><time>2026-04-24T16:57:38Z</time></trkpt><trkpt lat="43.09710063640648" lon="13.185900380115665"><ele>1088.0</ele><time>2026-04-24T16:57:39Z</time></trkpt><trkpt lat="43.09706767917242" lon="13.18605479261237"><ele>1088.0</ele><time>2026-04-24T16:57:40Z</time></trkpt><trkpt lat="43.097034210698354" lon="13.186201673398624"><ele>1090.25</ele><time>2026-04-24T16:57:41Z</time></trkpt><trkpt lat="43.09700201147228" lon="13.186354650028962"><ele>1092.5</ele><time>2026-04-24T16:57:42Z</time></trkpt><trkpt lat="43.09698123869187" lon="13.186505399839957"><ele>1094.75</ele><time>2026-04-24T16:57:43Z</time></trkpt><trkpt lat="43.09696510764855" lon="13.186662682858643"><ele>1097.0</ele><time>2026-04-24T16:57:44Z</time></trkpt><trkpt lat="43.09694837626544" lon="13.18682207016113"><ele>1098.75</ele><time>2026-04-24T16:57:45Z</time></trkpt><trkpt lat="43.09692769188412" lon="13.186981963496489"><ele>1100.5</ele><time>2026-04-24T16:57:46Z</time></trkpt><trkpt lat="43.09690529051235" lon="13.187139091915867"><ele>1102.25</ele><time>2026-04-24T16:57:47Z</time></trkpt><trkpt lat="43.09687661064429" lon="13.187299023068453"><ele>1104.0</ele><time>2026-04-24T16:57:48Z</time></trkpt><trkpt lat="43.09684267933563" lon="13.187454494844427"><ele>1104.8</ele><time>2026-04-24T16:57:49Z</time></trkpt><trkpt lat="43.09680591779502" lon="13.187601031311695"><ele>1105.6000000000001</ele><time>2026-04-24T16:57:50Z</time></trkpt><trkpt lat="43.096767956632384" lon="13.187747001472188"><ele>1106.4</ele><time>2026-04-24T16:57:51Z</time></trkpt><trkpt lat="43.09673997300915" lon="13.187899511391459"><ele>1107.2</ele><time>2026-04-24T16:57:52Z</time></trkpt><trkpt lat="43.0967113925507" lon="13.188041590503234"><ele>1108.0</ele><time>2026-04-24T16:57:53Z</time></trkpt><trkpt lat="43.096673759828484" lon="13.188176070928705"><ele>1108.5</ele><time>2026-04-24T16:57:54Z</time></trkpt><trkpt lat="43.09662367321445" lon="13.188281617667856"><ele>1109.0</ele><time>2026-04-24T16:57:55Z</time></trkpt><trkpt lat="43.09655434440937" lon="13.188372573746566"><ele>1109.5</ele><time>2026-04-24T16:57:56Z</time></trkpt><trkpt lat="43.096478479720155" lon="13.188449086606576"><ele>1110.0</ele><time>2026-04-24T16:57:57Z</time></trkpt><trkpt lat="43.09640992167618" lon="13.188525368935593"><ele>1110.5</ele><time>2026-04-24T16:57:58Z</time></trkpt><trkpt lat="43.09636035963582" lon="13.188591233067045"><ele>1111.0</ele><time>2026-04-24T16:57:59Z</time></trkpt><trkpt lat="43.09627292009716" lon="13.188678894680802"><ele>1109.6666666666665</ele><time>2026-04-24T16:58:01Z</time></trkpt><trkpt lat="43.096205134074516" lon="13.188666698749895"><ele>1108.3333333333333</ele><time>2026-04-24T16:58:03Z</time></trkpt><trkpt lat="43.09617090942937" lon="13.18851817522129"><ele>1107.0</ele><time>2026-04-24T16:58:05Z</time></trkpt><trkpt lat="43.09615398732377" lon="13.188420686281853"><ele>1105.6666666666667</ele><time>2026-04-24T16:58:06Z</time></trkpt><trkpt lat="43.09613321751092" lon="13.188323325513677"><ele>1104.3333333333335</ele><time>2026-04-24T16:58:07Z</time></trkpt><trkpt lat="43.09610090232411" lon="13.188245455574739"><ele>1103.0</ele><time>2026-04-24T16:58:08Z</time></trkpt><trkpt lat="43.09605312103206" lon="13.188181488206016"><ele>1102.5714285714287</ele><time>2026-04-24T16:58:09Z</time></trkpt><trkpt lat="43.09599498467556" lon="13.188127609344749"><ele>1102.142857142857</ele><time>2026-04-24T16:58:10Z</time></trkpt><trkpt lat="43.09593863480363" lon="13.188062527500062"><ele>1101.7142857142858</ele><time>2026-04-24T16:58:11Z</time></trkpt><trkpt lat="43.095878175748666" lon="13.188000030783972"><ele>1101.2857142857142</ele><time>2026-04-24T16:58:12Z</time></trkpt><trkpt lat="43.09581605655246" lon="13.187940441559325"><ele>1100.857142857143</ele><time>2026-04-24T16:58:13Z</time></trkpt><trkpt lat="43.095757455389105" lon="13.187876197992132"><ele>1100.4285714285716</ele><time>2026-04-24T16:58:14Z</time></trkpt><trkpt lat="43.09570328476174" lon="13.187802642745778"><ele>1100.0</ele><time>2026-04-24T16:58:15Z</time></trkpt><trkpt lat="43.095649820710314" lon="13.187726626304414"><ele>1100.0</ele><time>2026-04-24T16:58:16Z</time></trkpt><trkpt lat="43.095625700263376" lon="13.1876422706728"><ele>1100.0</ele><time>2026-04-24T16:58:17Z</time></trkpt><trkpt lat="43.095591304224556" lon="13.187551491794425"><ele>1100.0</ele><time>2026-04-24T16:58:18Z</time></trkpt><trkpt lat="43.09555199727989" lon="13.18746548452803"><ele>1100.0</ele><time>2026-04-24T16:58:19Z</time></trkpt><trkpt lat="43.095516172120874" lon="13.187381626362782"><ele>1100.0</ele><time>2026-04-24T16:58:20Z</time></trkpt><trkpt lat="43.095474973420366" lon="13.187229276179664"><ele>1100.0</ele><time>2026-04-24T16:58:22Z</time></trkpt><trkpt lat="43.09545816831104" lon="13.187143116006899"><ele>1097.5</ele><time>2026-04-24T16:58:23Z</time></trkpt><trkpt lat="43.095436933606" lon="13.186982151131895"><ele>1095.0</ele><time>2026-04-24T16:58:25Z</time></trkpt><trkpt lat="43.095406279307376" lon="13.186823152166912"><ele>1092.5</ele><time>2026-04-24T16:58:27Z</time></trkpt><trkpt lat="43.09537466525167" lon="13.186666430321793"><ele>1090.0</ele><time>2026-04-24T16:58:29Z</time></trkpt><trkpt lat="43.09534146938948" lon="13.186501918768968"><ele>1089.0</ele><time>2026-04-24T16:58:31Z</time></trkpt><trkpt lat="43.09532812251608" lon="13.186414617103685"><ele>1088.0</ele><time>2026-04-24T16:58:32Z</time></trkpt><trkpt lat="43.09529316066917" lon="13.186272111596145"><ele>1087.0</ele><time>2026-04-24T16:58:34Z</time></trkpt><trkpt lat="43.095297219838784" lon="13.186155807149584"><ele>1086.0</ele><time>2026-04-24T16:58:35.999Z</time></trkpt><trkpt lat="43.0953083743344" lon="13.186044352081847"><ele>1085.0</ele><time>2026-04-24T16:58:38.999Z</time></trkpt><trkpt lat="43.09530382741969" lon="13.185952019582064"><ele>1084.0</ele><time>2026-04-24T16:58:57.998Z</time></trkpt><trkpt lat="43.095237802373894" lon="13.185923061568419"><ele>1084.0</ele><time>2026-04-24T16:59:00.998Z</time></trkpt><trkpt lat="43.095168479314324" lon="13.185866485905814"><ele>1084.0</ele><time>2026-04-24T16:59:03.998Z</time></trkpt><trkpt lat="43.095106991848425" lon="13.185819412678558"><ele>1084.0</ele><time>2026-04-24T16:59:05.998Z</time></trkpt><trkpt lat="43.095019010163846" lon="13.185812218724436"><ele>1084.0</ele><time>2026-04-24T16:59:08.998Z</time></trkpt><trkpt lat="43.09494376895807" lon="13.185820230780315"><ele>1084.0</ele><time>2026-04-24T16:59:10.998Z</time></trkpt><trkpt lat="43.094884857877446" lon="13.185765946221762"><ele>1084.0</ele><time>2026-04-24T16:59:55.999Z</time></trkpt><trkpt lat="43.09484713768831" lon="13.185669783892456"><ele>1085.1666666666665</ele><time>2026-04-24T16:59:58.999Z</time></trkpt><trkpt lat="43.09483160509847" lon="13.185528944524256"><ele>1086.3333333333333</ele><time>2026-04-24T17:00:00.999Z</time></trkpt><trkpt lat="43.09480007313366" lon="13.185415181988581"><ele>1087.5</ele><time>2026-04-24T17:00:02.999Z</time></trkpt><trkpt lat="43.09478462019434" lon="13.185294651679156"><ele>1088.6666666666667</ele><time>2026-04-24T17:00:04.999Z</time></trkpt><trkpt lat="43.09476557630553" lon="13.185169139219855"><ele>1089.8333333333335</ele><time>2026-04-24T17:00:06.999Z</time></trkpt><trkpt lat="43.094747693962944" lon="13.185074242240216"><ele>1091.0</ele><time>2026-04-24T17:00:07.999Z</time></trkpt><trkpt lat="43.0947271120455" lon="13.184971080381935"><ele>1091.0</ele><time>2026-04-24T17:00:08.999Z</time></trkpt><trkpt lat="43.09470938402659" lon="13.184862896340237"><ele>1091.0</ele><time>2026-04-24T17:00:09.999Z</time></trkpt><trkpt lat="43.094691936288164" lon="13.184760140617396"><ele>1091.0</ele><time>2026-04-24T17:00:10.999Z</time></trkpt><trkpt lat="43.09466691135564" lon="13.184663992882935"><ele>1091.0</ele><time>2026-04-24T17:00:11.999Z</time></trkpt><trkpt lat="43.094638798953646" lon="13.184562560330601"><ele>1091.0</ele><time>2026-04-24T17:00:12.999Z</time></trkpt><trkpt lat="43.09461700293964" lon="13.184455912564356"><ele>1091.0</ele><time>2026-04-24T17:00:13.999Z</time></trkpt><trkpt lat="43.09458581638409" lon="13.184316706025635"><ele>1089.2</ele><time>2026-04-24T17:00:14.999Z</time></trkpt><trkpt lat="43.09457384733028" lon="13.184187348102109"><ele>1087.3999999999999</ele><time>2026-04-24T17:00:15.999Z</time></trkpt><trkpt lat="43.094551813627" lon="13.184072974229768"><ele>1085.6</ele><time>2026-04-24T17:00:16.999Z</time></trkpt><trkpt lat="43.09452862309455" lon="13.183952595403861"><ele>1083.8</ele><time>2026-04-24T17:00:17.999Z</time></trkpt><trkpt lat="43.0945070638124" lon="13.183835615933473"><ele>1082.0</ele><time>2026-04-24T17:00:18.999Z</time></trkpt><trkpt lat="43.09448544922946" lon="13.183711985807296"><ele>1080.2</ele><time>2026-04-24T17:00:19.999Z</time></trkpt><trkpt lat="43.09444938648473" lon="13.183572492632628"><ele>1078.4</ele><time>2026-04-24T17:00:20.999Z</time></trkpt><trkpt lat="43.094431301773426" lon="13.183454545955888"><ele>1076.6</ele><time>2026-04-24T17:00:21.999Z</time></trkpt><trkpt lat="43.094409024908146" lon="13.183321026607247"><ele>1074.8</ele><time>2026-04-24T17:00:22.999Z</time></trkpt><trkpt lat="43.09438562802003" lon="13.183184292098701"><ele>1073.0</ele><time>2026-04-24T17:00:23.999Z</time></trkpt><trkpt lat="43.09437158308548" lon="13.183051049395392"><ele>1071.6</ele><time>2026-04-24T17:00:24.999Z</time></trkpt><trkpt lat="43.0943552425999" lon="13.182901157105798"><ele>1070.1999999999998</ele><time>2026-04-24T17:00:25.999Z</time></trkpt><trkpt lat="43.09434147471277" lon="13.182765474482743"><ele>1068.8</ele><time>2026-04-24T17:00:26.999Z</time></trkpt><trkpt lat="43.09431946094418" lon="13.182631846228556"><ele>1067.3999999999999</ele><time>2026-04-24T17:00:27.999Z</time></trkpt><trkpt lat="43.09430424764367" lon="13.18249866618247"><ele>1066.0</ele><time>2026-04-24T17:00:28.999Z</time></trkpt><trkpt lat="43.09428804783884" lon="13.182376464860273"><ele>1064.0</ele><time>2026-04-24T17:00:29.998Z</time></trkpt><trkpt lat="43.09427066306552" lon="13.182225879440887"><ele>1062.0</ele><time>2026-04-24T17:00:30.998Z</time></trkpt><trkpt lat="43.09425876882609" lon="13.182079698817104"><ele>1060.0</ele><time>2026-04-24T17:00:31.998Z</time></trkpt><trkpt lat="43.09424102356262" lon="13.181936375656154"><ele>1058.0</ele><time>2026-04-24T17:00:32.998Z</time></trkpt><trkpt lat="43.09422174585375" lon="13.18180125432733"><ele>1056.0</ele><time>2026-04-24T17:00:33.998Z</time></trkpt><trkpt lat="43.09420771412199" lon="13.18165914656734"><ele>1054.0</ele><time>2026-04-24T17:00:34.998Z</time></trkpt><trkpt lat="43.0941940279569" lon="13.181509890822362"><ele>1052.0</ele><time>2026-04-24T17:00:35.998Z</time></trkpt><trkpt lat="43.09417504832554" lon="13.181366176479033"><ele>1050.0</ele><time>2026-04-24T17:00:36.998Z</time></trkpt><trkpt lat="43.09415799154471" lon="13.181216782725597"><ele>1048.0</ele><time>2026-04-24T17:00:37.998Z</time></trkpt><trkpt lat="43.094142380500124" lon="13.18108218401241"><ele>1046.0</ele><time>2026-04-24T17:00:38.998Z</time></trkpt><trkpt lat="43.09412747582013" lon="13.180927459722477"><ele>1046.0</ele><time>2026-04-24T17:00:39.998Z</time></trkpt><trkpt lat="43.094114734965096" lon="13.18078279383841"><ele>1046.0</ele><time>2026-04-24T17:00:40.998Z</time></trkpt><trkpt lat="43.094101487146276" lon="13.180623948585675"><ele>1046.0</ele><time>2026-04-24T17:00:41.998Z</time></trkpt><trkpt lat="43.09409153008414" lon="13.180479230339412"><ele>1046.0</ele><time>2026-04-24T17:00:42.998Z</time></trkpt><trkpt lat="43.09407447078473" lon="13.180336898269164"><ele>1046.0</ele><time>2026-04-24T17:00:43.998Z</time></trkpt><trkpt lat="43.09405547478634" lon="13.180184991498175"><ele>1048.6</ele><time>2026-04-24T17:00:44.998Z</time></trkpt><trkpt lat="43.09404345477418" lon="13.180031394265335"><ele>1051.1999999999998</ele><time>2026-04-24T17:00:45.998Z</time></trkpt><trkpt lat="43.09403101268779" lon="13.179883823120049"><ele>1053.8000000000002</ele><time>2026-04-24T17:00:46.998Z</time></trkpt><trkpt lat="43.09400795178462" lon="13.179736408857552"><ele>1056.4</ele><time>2026-04-24T17:00:47.998Z</time></trkpt><trkpt lat="43.09398462067594" lon="13.17958614968634"><ele>1059.0</ele><time>2026-04-24T17:00:48.998Z</time></trkpt><trkpt lat="43.09396652232507" lon="13.17943855431896"><ele>1059.0</ele><time>2026-04-24T17:00:49.998Z</time></trkpt><trkpt lat="43.09395183243295" lon="13.179282700785782"><ele>1059.0</ele><time>2026-04-24T17:00:50.998Z</time></trkpt><trkpt lat="43.09393905109336" lon="13.179128455870478"><ele>1059.0</ele><time>2026-04-24T17:00:51.998Z</time></trkpt><trkpt lat="43.093918767651054" lon="13.178976533748806"><ele>1059.0</ele><time>2026-04-24T17:00:52.998Z</time></trkpt><trkpt lat="43.09389830978329" lon="13.17881463687242"><ele>1056.75</ele><time>2026-04-24T17:00:53.998Z</time></trkpt><trkpt lat="43.0938877840756" lon="13.178630757078066"><ele>1054.5</ele><time>2026-04-24T17:00:54.998Z</time></trkpt><trkpt lat="43.09387527510703" lon="13.178463954184995"><ele>1052.25</ele><time>2026-04-24T17:00:55.998Z</time></trkpt><trkpt lat="43.09386474156718" lon="13.17830375542507"><ele>1050.0</ele><time>2026-04-24T17:00:56.998Z</time></trkpt><trkpt lat="43.09385107713118" lon="13.178143422286052"><ele>1047.75</ele><time>2026-04-24T17:00:57.998Z</time></trkpt><trkpt lat="43.09384298162441" lon="13.177985703101497"><ele>1045.5</ele><time>2026-04-24T17:00:58.998Z</time></trkpt><trkpt lat="43.093834361237484" lon="13.17783310228241"><ele>1043.25</ele><time>2026-04-24T17:00:59.998Z</time></trkpt><trkpt lat="43.0938294597169" lon="13.177669686453498"><ele>1041.0</ele><time>2026-04-24T17:01:00.998Z</time></trkpt><trkpt lat="43.09381532503709" lon="13.177512013471913"><ele>1041.0</ele><time>2026-04-24T17:01:01.998Z</time></trkpt><trkpt lat="43.0937985263974" lon="13.17736157166828"><ele>1041.0</ele><time>2026-04-24T17:01:02.998Z</time></trkpt><trkpt lat="43.093774139439105" lon="13.177203382000878"><ele>1041.0</ele><time>2026-04-24T17:01:03.998Z</time></trkpt><trkpt lat="43.093768487803736" lon="13.177020919314483"><ele>1041.0</ele><time>2026-04-24T17:01:04.998Z</time></trkpt><trkpt lat="43.09375335909042" lon="13.17685348897993"><ele>1038.75</ele><time>2026-04-24T17:01:05.998Z</time></trkpt><trkpt lat="43.09373974582081" lon="13.176699660952536"><ele>1036.5</ele><time>2026-04-24T17:01:06.998Z</time></trkpt><trkpt lat="43.093723723819615" lon="13.176550835158046"><ele>1034.25</ele><time>2026-04-24T17:01:07.998Z</time></trkpt><trkpt lat="43.09371221920968" lon="13.17639594711457"><ele>1032.0</ele><time>2026-04-24T17:01:08.998Z</time></trkpt><trkpt lat="43.09369851126944" lon="13.176236200761192"><ele>1030.75</ele><time>2026-04-24T17:01:09.998Z</time></trkpt><trkpt lat="43.09368434275092" lon="13.176073573056826"><ele>1029.5</ele><time>2026-04-24T17:01:10.998Z</time></trkpt><trkpt lat="43.093670661703165" lon="13.175904469756798"><ele>1028.25</ele><time>2026-04-24T17:01:11.998Z</time></trkpt><trkpt lat="43.09366101168193" lon="13.175740840942689"><ele>1027.0</ele><time>2026-04-24T17:01:12.998Z</time></trkpt><trkpt lat="43.09364936342938" lon="13.17558336467571"><ele>1025.5</ele><time>2026-04-24T17:01:13.998Z</time></trkpt><trkpt lat="43.093631417001156" lon="13.175422082093984"><ele>1024.0</ele><time>2026-04-24T17:01:14.998Z</time></trkpt><trkpt lat="43.09361245243659" lon="13.175247989739294"><ele>1022.5</ele><time>2026-04-24T17:01:15.998Z</time></trkpt><trkpt lat="43.093592888637986" lon="13.175080277865527"><ele>1021.0</ele><time>2026-04-24T17:01:16.998Z</time></trkpt><trkpt lat="43.09357514304624" lon="13.174909635201846"><ele>1019.5</ele><time>2026-04-24T17:01:17.998Z</time></trkpt><trkpt lat="43.093559627014166" lon="13.174742543502433"><ele>1018.0</ele><time>2026-04-24T17:01:18.998Z</time></trkpt><trkpt lat="43.093548814248095" lon="13.174576329855832"><ele>1016.5</ele><time>2026-04-24T17:01:19.998Z</time></trkpt><trkpt lat="43.093536943758004" lon="13.174400421662458"><ele>1015.0</ele><time>2026-04-24T17:01:20.998Z</time></trkpt><trkpt lat="43.09352465529899" lon="13.174226495756141"><ele>1015.0</ele><time>2026-04-24T17:01:21.998Z</time></trkpt><trkpt lat="43.09351346948343" lon="13.174056570803186"><ele>1015.0</ele><time>2026-04-24T17:01:22.998Z</time></trkpt><trkpt lat="43.09351896884865" lon="13.173881583954321"><ele>1015.0</ele><time>2026-04-24T17:01:23.998Z</time></trkpt><trkpt lat="43.09351104093233" lon="13.173704925628027"><ele>1015.0</ele><time>2026-04-24T17:01:24.998Z</time></trkpt><trkpt lat="43.09350386728727" lon="13.173545074770558"><ele>1012.25</ele><time>2026-04-24T17:01:25.998Z</time></trkpt><trkpt lat="43.09348017738046" lon="13.173381844737383"><ele>1009.5</ele><time>2026-04-24T17:01:26.998Z</time></trkpt><trkpt lat="43.093472952431945" lon="13.173222660471497"><ele>1006.75</ele><time>2026-04-24T17:01:27.999Z</time></trkpt><trkpt lat="43.0934708492467" lon="13.173055550349563"><ele>1004.0</ele><time>2026-04-24T17:01:28.999Z</time></trkpt><trkpt lat="43.093456225027474" lon="13.172892406931988"><ele>1002.25</ele><time>2026-04-24T17:01:29.999Z</time></trkpt><trkpt lat="43.09345131752703" lon="13.172731138016292"><ele>1000.5</ele><time>2026-04-24T17:01:30.999Z</time></trkpt><trkpt lat="43.09343689811356" lon="13.172570983440494"><ele>998.75</ele><time>2026-04-24T17:01:31.999Z</time></trkpt><trkpt lat="43.09343350459529" lon="13.172402081565865"><ele>997.0</ele><time>2026-04-24T17:01:32.999Z</time></trkpt><trkpt lat="43.09342416562027" lon="13.172240695228645"><ele>994.5</ele><time>2026-04-24T17:01:33.999Z</time></trkpt><trkpt lat="43.093415125142045" lon="13.172085216712754"><ele>992.0</ele><time>2026-04-24T17:01:34.999Z</time></trkpt><trkpt lat="43.09340847876495" lon="13.171923539356868"><ele>989.5</ele><time>2026-04-24T17:01:35.999Z</time></trkpt><trkpt lat="43.09339930123704" lon="13.171750371948631"><ele>987.0</ele><time>2026-04-24T17:01:36.999Z</time></trkpt><trkpt lat="43.093394916402474" lon="13.171580142561254"><ele>984.75</ele><time>2026-04-24T17:01:37.999Z</time></trkpt><trkpt lat="43.0933809236672" lon="13.171408886969878"><ele>982.5</ele><time>2026-04-24T17:01:38.999Z</time></trkpt><trkpt lat="43.09337370375919" lon="13.171231802351246"><ele>980.25</ele><time>2026-04-24T17:01:39.999Z</time></trkpt><trkpt lat="43.09336561004563" lon="13.171058994919301"><ele>978.0</ele><time>2026-04-24T17:01:40.999Z</time></trkpt><trkpt lat="43.09335599434744" lon="13.17088777097957"><ele>978.0</ele><time>2026-04-24T17:01:41.999Z</time></trkpt><trkpt lat="43.09333963178955" lon="13.170720823248395"><ele>978.0</ele><time>2026-04-24T17:01:42.999Z</time></trkpt><trkpt lat="43.09332580695352" lon="13.17054644486907"><ele>978.0</ele><time>2026-04-24T17:01:43.999Z</time></trkpt><trkpt lat="43.093311455480716" lon="13.170379198831277"><ele>978.0</ele><time>2026-04-24T17:01:44.999Z</time></trkpt><trkpt lat="43.09329554215395" lon="13.170206778733712"><ele>975.25</ele><time>2026-04-24T17:01:45.999Z</time></trkpt><trkpt lat="43.09327559311907" lon="13.170034533974428"><ele>972.5</ele><time>2026-04-24T17:01:46.999Z</time></trkpt><trkpt lat="43.09325660813647" lon="13.169860784515535"><ele>969.75</ele><time>2026-04-24T17:01:47.999Z</time></trkpt><trkpt lat="43.09323674340601" lon="13.169688104145726"><ele>967.0</ele><time>2026-04-24T17:01:48.999Z</time></trkpt><trkpt lat="43.093215013338494" lon="13.169508386161219"><ele>973.75</ele><time>2026-04-24T17:01:49.999Z</time></trkpt><trkpt lat="43.093192956710425" lon="13.169325237080097"><ele>980.5</ele><time>2026-04-24T17:01:50.999Z</time></trkpt><trkpt lat="43.09317013097511" lon="13.169145322454472"><ele>987.25</ele><time>2026-04-24T17:01:51.999Z</time></trkpt><trkpt lat="43.09315764478225" lon="13.168966292008163"><ele>994.0</ele><time>2026-04-24T17:01:52.999Z</time></trkpt><trkpt lat="43.09314583960484" lon="13.168791692580372"><ele>994.0</ele><time>2026-04-24T17:01:53.999Z</time></trkpt><trkpt lat="43.09313392528787" lon="13.168624233308636"><ele>994.0</ele><time>2026-04-24T17:01:54.999Z</time></trkpt><trkpt lat="43.09312400537663" lon="13.168446427176962"><ele>994.0</ele><time>2026-04-24T17:01:55.999Z</time></trkpt><trkpt lat="43.09311028076448" lon="13.168267423007102"><ele>994.0</ele><time>2026-04-24T17:01:56.999Z</time></trkpt><trkpt lat="43.0930982810003" lon="13.168088529098604"><ele>989.0</ele><time>2026-04-24T17:01:57.999Z</time></trkpt><trkpt lat="43.09308297922912" lon="13.167928786938763"><ele>984.0</ele><time>2026-04-24T17:01:58.999Z</time></trkpt><trkpt lat="43.09307830709443" lon="13.167745781175126"><ele>979.0</ele><time>2026-04-24T17:01:59.999Z</time></trkpt><trkpt lat="43.09308019800041" lon="13.167568860221248"><ele>974.0</ele><time>2026-04-24T17:02:00.999Z</time></trkpt><trkpt lat="43.09308844373666" lon="13.167407939245665"><ele>970.25</ele><time>2026-04-24T17:02:01.999Z</time></trkpt><trkpt lat="43.09309700772472" lon="13.167232649346124"><ele>966.5</ele><time>2026-04-24T17:02:02.999Z</time></trkpt><trkpt lat="43.093106010346204" lon="13.167064633822596"><ele>962.75</ele><time>2026-04-24T17:02:03.999Z</time></trkpt><trkpt lat="43.093117826093284" lon="13.166897522118562"><ele>959.0</ele><time>2026-04-24T17:02:04.999Z</time></trkpt><trkpt lat="43.09314416996075" lon="13.166720272322559"><ele>959.0</ele><time>2026-04-24T17:02:05.999Z</time></trkpt><trkpt lat="43.09316848430924" lon="13.166556616317346"><ele>959.0</ele><time>2026-04-24T17:02:06.999Z</time></trkpt><trkpt lat="43.09318801147416" lon="13.16639057184897"><ele>959.0</ele><time>2026-04-24T17:02:07.999Z</time></trkpt><trkpt lat="43.093209226297624" lon="13.166226966198227"><ele>959.0</ele><time>2026-04-24T17:02:08.999Z</time></trkpt><trkpt lat="43.09323753806396" lon="13.16606842921846"><ele>950.75</ele><time>2026-04-24T17:02:09.999Z</time></trkpt><trkpt lat="43.09325908397593" lon="13.16590664273372"><ele>942.5</ele><time>2026-04-24T17:02:10.999Z</time></trkpt><trkpt lat="43.09327179794196" lon="13.16575674772963"><ele>934.25</ele><time>2026-04-24T17:02:11.999Z</time></trkpt><trkpt lat="43.09329090616093" lon="13.165585398162593"><ele>926.0</ele><time>2026-04-24T17:02:12.999Z</time></trkpt><trkpt lat="43.09330844791226" lon="13.165408823192077"><ele>925.75</ele><time>2026-04-24T17:02:13.999Z</time></trkpt><trkpt lat="43.093318708109564" lon="13.165249458686622"><ele>925.5</ele><time>2026-04-24T17:02:14.999Z</time></trkpt><trkpt lat="43.09333434342909" lon="13.165088843303264"><ele>925.25</ele><time>2026-04-24T17:02:15.999Z</time></trkpt><trkpt lat="43.09334783319831" lon="13.164927534345304"><ele>925.0</ele><time>2026-04-24T17:02:16.999Z</time></trkpt><trkpt lat="43.09335842887167" lon="13.164775069314546"><ele>924.5</ele><time>2026-04-24T17:02:17.999Z</time></trkpt><trkpt lat="43.09336637216233" lon="13.164628071889368"><ele>924.0</ele><time>2026-04-24T17:02:18.999Z</time></trkpt><trkpt lat="43.09337485528608" lon="13.164459729902529"><ele>923.5</ele><time>2026-04-24T17:02:19.999Z</time></trkpt><trkpt lat="43.093388251072355" lon="13.164297731188588"><ele>923.0</ele><time>2026-04-24T17:02:20.999Z</time></trkpt><trkpt lat="43.09340026586545" lon="13.164133378934538"><ele>922.0</ele><time>2026-04-24T17:02:21.999Z</time></trkpt><trkpt lat="43.0934098875085" lon="13.163978969264722"><ele>921.0</ele><time>2026-04-24T17:02:22.999Z</time></trkpt><trkpt lat="43.09341684410992" lon="13.163806882399886"><ele>920.0</ele><time>2026-04-24T17:02:23.999Z</time></trkpt><trkpt lat="43.09342992786322" lon="13.163648066796446"><ele>919.0</ele><time>2026-04-24T17:02:24.999Z</time></trkpt><trkpt lat="43.09345470204388" lon="13.163485075160507"><ele>919.0</ele><time>2026-04-24T17:02:25.999Z</time></trkpt><trkpt lat="43.09345104822145" lon="13.163325169805962"><ele>919.0</ele><time>2026-04-24T17:02:26.999Z</time></trkpt><trkpt lat="43.09346191209878" lon="13.163171161240177"><ele>919.0</ele><time>2026-04-24T17:02:27.999Z</time></trkpt><trkpt lat="43.09347014342531" lon="13.163010987145205"><ele>919.0</ele><time>2026-04-24T17:02:28.999Z</time></trkpt><trkpt lat="43.0934843392146" lon="13.162858763726877"><ele>917.4000000000001</ele><time>2026-04-24T17:02:29.999Z</time></trkpt><trkpt lat="43.093501822514725" lon="13.162708720030958"><ele>915.8000000000001</ele><time>2026-04-24T17:02:30.999Z</time></trkpt><trkpt lat="43.093521169204855" lon="13.162576821606482"><ele>914.1999999999999</ele><time>2026-04-24T17:02:31.999Z</time></trkpt><trkpt lat="43.09353185909593" lon="13.162448200534044"><ele>912.5999999999999</ele><time>2026-04-24T17:02:32.999Z</time></trkpt><trkpt lat="43.09354153024139" lon="13.16232409870588"><ele>911.0</ele><time>2026-04-24T17:02:33.999Z</time></trkpt><trkpt lat="43.09352079982627" lon="13.162187597735711"><ele>908.8</ele><time>2026-04-24T17:02:34.999Z</time></trkpt><trkpt lat="43.09348872394451" lon="13.16208557482909"><ele>906.5999999999999</ele><time>2026-04-24T17:02:35.999Z</time></trkpt><trkpt lat="43.09344911315432" lon="13.16201331186305"><ele>904.4</ele><time>2026-04-24T17:02:36.999Z</time></trkpt><trkpt lat="43.09335276892961" lon="13.161915091711052"><ele>902.2</ele><time>2026-04-24T17:02:38.999Z</time></trkpt><trkpt lat="43.09325359307787" lon="13.161851721117632"><ele>900.0</ele><time>2026-04-24T17:02:40.999Z</time></trkpt><trkpt lat="43.09315261636727" lon="13.161765920087879"><ele>899.3333333333334</ele><time>2026-04-24T17:02:42.999Z</time></trkpt><trkpt lat="43.09309638386725" lon="13.161723902210733"><ele>898.6666666666667</ele><time>2026-04-24T17:02:44.999Z</time></trkpt><trkpt lat="43.093024971359206" lon="13.16168558753274"><ele>898.0</ele><time>2026-04-24T17:02:58.999Z</time></trkpt><trkpt lat="43.09291575198635" lon="13.16164404066568"><ele>897.3333333333334</ele><time>2026-04-24T17:03:00.999Z</time></trkpt><trkpt lat="43.092835296632195" lon="13.16162753001964"><ele>896.6666666666667</ele><time>2026-04-24T17:03:01.999Z</time></trkpt><trkpt lat="43.09275353262617" lon="13.161616935739405"><ele>896.0</ele><time>2026-04-24T17:03:02.999Z</time></trkpt><trkpt lat="43.092658526366606" lon="13.16162336996217"><ele>896.0</ele><time>2026-04-24T17:03:03.999Z</time></trkpt><trkpt lat="43.09256082435303" lon="13.161649936112694"><ele>895.9999999999999</ele><time>2026-04-24T17:03:04.999Z</time></trkpt><trkpt lat="43.092469165201706" lon="13.161690813151312"><ele>895.9999999999999</ele><time>2026-04-24T17:03:05.999Z</time></trkpt><trkpt lat="43.092383260068864" lon="13.161740843931202"><ele>896.0</ele><time>2026-04-24T17:03:06.999Z</time></trkpt><trkpt lat="43.09230146521664" lon="13.161810836617917"><ele>896.0</ele><time>2026-04-24T17:03:07.999Z</time></trkpt><trkpt lat="43.09222576941621" lon="13.161893442288944"><ele>890.25</ele><time>2026-04-24T17:03:08.999Z</time></trkpt><trkpt lat="43.092146047943096" lon="13.162000151486057"><ele>884.5</ele><time>2026-04-24T17:03:09.999Z</time></trkpt><trkpt lat="43.09207051480905" lon="13.162110475607971"><ele>878.75</ele><time>2026-04-24T17:03:10.999Z</time></trkpt><trkpt lat="43.0919929435589" lon="13.16222551840193"><ele>873.0</ele><time>2026-04-24T17:03:11.999Z</time></trkpt><trkpt lat="43.09191135162215" lon="13.162336113101835"><ele>872.4</ele><time>2026-04-24T17:03:12.999Z</time></trkpt><trkpt lat="43.091828926312886" lon="13.162435073940832"><ele>871.8</ele><time>2026-04-24T17:03:13.999Z</time></trkpt><trkpt lat="43.09174373764044" lon="13.162520036833767"><ele>871.2</ele><time>2026-04-24T17:03:14.999Z</time></trkpt><trkpt lat="43.09165748396168" lon="13.162604600957948"><ele>870.6</ele><time>2026-04-24T17:03:15.999Z</time></trkpt><trkpt lat="43.091577439025244" lon="13.162687168484755"><ele>870.0</ele><time>2026-04-24T17:03:16.999Z</time></trkpt><trkpt lat="43.09150484415674" lon="13.162742566376167"><ele>870.0</ele><time>2026-04-24T17:03:17.999Z</time></trkpt><trkpt lat="43.09143517894063" lon="13.162749072302985"><ele>870.0</ele><time>2026-04-24T17:03:18.999Z</time></trkpt><trkpt lat="43.09133886521655" lon="13.162722874475847"><ele>870.0</ele><time>2026-04-24T17:03:19.999Z</time></trkpt><trkpt lat="43.09123643863834" lon="13.162675640001586"><ele>870.0</ele><time>2026-04-24T17:03:20.999Z</time></trkpt><trkpt lat="43.09113828817262" lon="13.162635095318581"><ele>870.0</ele><time>2026-04-24T17:03:21.999Z</time></trkpt><trkpt lat="43.09104373750551" lon="13.162606111002841"><ele>870.0</ele><time>2026-04-24T17:03:22.999Z</time></trkpt><trkpt lat="43.09095589377794" lon="13.162603981982436"><ele>870.0</ele><time>2026-04-24T17:03:23.999Z</time></trkpt><trkpt lat="43.09086526126762" lon="13.162632367944981"><ele>870.0</ele><time>2026-04-24T17:03:24.999Z</time></trkpt><trkpt lat="43.090772896317276" lon="13.162677986057444"><ele>870.0</ele><time>2026-04-24T17:03:25.999Z</time></trkpt><trkpt lat="43.09067787954001" lon="13.162738819128613"><ele>870.0</ele><time>2026-04-24T17:03:26.999Z</time></trkpt><trkpt lat="43.09058534064884" lon="13.162817033733575"><ele>866.25</ele><time>2026-04-24T17:03:27.999Z</time></trkpt><trkpt lat="43.09048415470326" lon="13.16288035618049"><ele>862.5</ele><time>2026-04-24T17:03:28.999Z</time></trkpt><trkpt lat="43.09036999851153" lon="13.162920239546454"><ele>858.75</ele><time>2026-04-24T17:03:29.999Z</time></trkpt><trkpt lat="43.09025815432843" lon="13.162939951225175"><ele>855.0</ele><time>2026-04-24T17:03:30.999Z</time></trkpt><trkpt lat="43.090146393435596" lon="13.162942559198422"><ele>855.0</ele><time>2026-04-24T17:03:31.999Z</time></trkpt><trkpt lat="43.090039829093406" lon="13.162937736812617"><ele>855.0</ele><time>2026-04-24T17:03:32.999Z</time></trkpt><trkpt lat="43.089946267224505" lon="13.162941817485471"><ele>855.0</ele><time>2026-04-24T17:03:34Z</time></trkpt><trkpt lat="43.089860077888375" lon="13.162977415391277"><ele>855.0</ele><time>2026-04-24T17:03:35Z</time></trkpt><trkpt lat="43.0897736407163" lon="13.163041742372506"><ele>855.0</ele><time>2026-04-24T17:03:36Z</time></trkpt><trkpt lat="43.089693761406295" lon="13.163119929121422"><ele>854.8</ele><time>2026-04-24T17:03:37Z</time></trkpt><trkpt lat="43.089611915366206" lon="13.163212146432416"><ele>854.6</ele><time>2026-04-24T17:03:38Z</time></trkpt><trkpt lat="43.08953533929096" lon="13.163294296024203"><ele>854.4000000000001</ele><time>2026-04-24T17:03:39Z</time></trkpt><trkpt lat="43.08946478625981" lon="13.163383098170815"><ele>854.2</ele><time>2026-04-24T17:03:40Z</time></trkpt><trkpt lat="43.08940103699581" lon="13.163486702209749"><ele>854.0</ele><time>2026-04-24T17:03:41Z</time></trkpt><trkpt lat="43.089342211324016" lon="13.163589123253319"><ele>854.0000000000001</ele><time>2026-04-24T17:03:42Z</time></trkpt><trkpt lat="43.089290503522" lon="13.163678648360046"><ele>854.0</ele><time>2026-04-24T17:03:43Z</time></trkpt><trkpt lat="43.0892324076878" lon="13.163733035082888"><ele>854.0</ele><time>2026-04-24T17:03:44Z</time></trkpt><trkpt lat="43.089168623396624" lon="13.163722566747298"><ele>854.0</ele><time>2026-04-24T17:03:45Z</time></trkpt><trkpt lat="43.08909137512465" lon="13.163656074060835"><ele>854.0000000000001</ele><time>2026-04-24T17:03:46Z</time></trkpt><trkpt lat="43.089023696056934" lon="13.163564169642136"><ele>854.0</ele><time>2026-04-24T17:03:47Z</time></trkpt><trkpt lat="43.088949487214165" lon="13.163493556459258"><ele>850.6</ele><time>2026-04-24T17:03:48Z</time></trkpt><trkpt lat="43.08886712681557" lon="13.163470935979165"><ele>847.2</ele><time>2026-04-24T17:03:49Z</time></trkpt><trkpt lat="43.08876319965983" lon="13.16348431012285"><ele>843.8000000000001</ele><time>2026-04-24T17:03:50Z</time></trkpt><trkpt lat="43.08865412223286" lon="13.163527019587796"><ele>840.4000000000001</ele><time>2026-04-24T17:03:51Z</time></trkpt><trkpt lat="43.088545499131826" lon="13.163590126016036"><ele>837.0</ele><time>2026-04-24T17:03:52Z</time></trkpt><trkpt lat="43.08845064687146" lon="13.163657757289387"><ele>837.0</ele><time>2026-04-24T17:03:53Z</time></trkpt><trkpt lat="43.088358150343446" lon="13.163728102039519"><ele>837.0</ele><time>2026-04-24T17:03:54Z</time></trkpt><trkpt lat="43.08825953529396" lon="13.163777716871145"><ele>837.0</ele><time>2026-04-24T17:03:55Z</time></trkpt><trkpt lat="43.08815541388899" lon="13.163791721208453"><ele>837.0</ele><time>2026-04-24T17:03:56Z</time></trkpt><trkpt lat="43.08804303961641" lon="13.163785027759937"><ele>837.0</ele><time>2026-04-24T17:03:57Z</time></trkpt><trkpt lat="43.087927226996975" lon="13.1637991583937"><ele>837.0</ele><time>2026-04-24T17:03:58Z</time></trkpt><trkpt lat="43.087816176312224" lon="13.16383956345973"><ele>837.0</ele><time>2026-04-24T17:03:59Z</time></trkpt><trkpt lat="43.08771092544616" lon="13.163888027350303"><ele>837.0</ele><time>2026-04-24T17:04:00Z</time></trkpt><trkpt lat="43.08760765149727" lon="13.163939917845479"><ele>837.0</ele><time>2026-04-24T17:04:01Z</time></trkpt><trkpt lat="43.08752431526114" lon="13.163992085926843"><ele>837.0</ele><time>2026-04-24T17:04:02Z</time></trkpt><trkpt lat="43.08744594650872" lon="13.164054870697285"><ele>826.5</ele><time>2026-04-24T17:04:03Z</time></trkpt><trkpt lat="43.08736481692681" lon="13.164148631758877"><ele>816.0</ele><time>2026-04-24T17:04:04Z</time></trkpt><trkpt lat="43.087288476849615" lon="13.164266383983781"><ele>805.5</ele><time>2026-04-24T17:04:05Z</time></trkpt><trkpt lat="43.087208778063186" lon="13.164400870955006"><ele>795.0</ele><time>2026-04-24T17:04:06Z</time></trkpt><trkpt lat="43.087125800496786" lon="13.164534961372059"><ele>795.0</ele><time>2026-04-24T17:04:07Z</time></trkpt><trkpt lat="43.08704000427527" lon="13.164673496345753"><ele>795.0</ele><time>2026-04-24T17:04:08Z</time></trkpt><trkpt lat="43.086953015279754" lon="13.164808373300414"><ele>795.0</ele><time>2026-04-24T17:04:09Z</time></trkpt><trkpt lat="43.0868639293408" lon="13.16493560587028"><ele>795.0</ele><time>2026-04-24T17:04:10Z</time></trkpt><trkpt lat="43.08677447197543" lon="13.165047391814998"><ele>796.0</ele><time>2026-04-24T17:04:11Z</time></trkpt><trkpt lat="43.08668371330274" lon="13.165156189217605"><ele>797.0</ele><time>2026-04-24T17:04:12Z</time></trkpt><trkpt lat="43.086591746905874" lon="13.165268651594033"><ele>798.0</ele><time>2026-04-24T17:04:13Z</time></trkpt><trkpt lat="43.086501396777756" lon="13.165386658762053"><ele>799.0</ele><time>2026-04-24T17:04:14Z</time></trkpt><trkpt lat="43.086415565418164" lon="13.165501188422656"><ele>799.0</ele><time>2026-04-24T17:04:15Z</time></trkpt><trkpt lat="43.08632967991937" lon="13.165624123132286"><ele>799.0</ele><time>2026-04-24T17:04:16Z</time></trkpt><trkpt lat="43.086245951363104" lon="13.165755532567843"><ele>799.0</ele><time>2026-04-24T17:04:17Z</time></trkpt><trkpt lat="43.086175518617566" lon="13.165886957655141"><ele>799.0</ele><time>2026-04-24T17:04:18Z</time></trkpt><trkpt lat="43.086115715211896" lon="13.166015701577749"><ele>803.4999999999999</ele><time>2026-04-24T17:04:19Z</time></trkpt><trkpt lat="43.08606390091798" lon="13.166133609900319"><ele>808.0</ele><time>2026-04-24T17:04:20Z</time></trkpt><trkpt lat="43.0860121733132" lon="13.16620651925036"><ele>812.5</ele><time>2026-04-24T17:04:21Z</time></trkpt><trkpt lat="43.085952632688404" lon="13.16624710944553"><ele>817.0</ele><time>2026-04-24T17:04:22Z</time></trkpt><trkpt lat="43.08588539933998" lon="13.166236639429442"><ele>821.4999999999999</ele><time>2026-04-24T17:04:23Z</time></trkpt><trkpt lat="43.085816254889785" lon="13.166183342518309"><ele>826.0</ele><time>2026-04-24T17:04:24Z</time></trkpt><trkpt lat="43.08575876865942" lon="13.16608177939315"><ele>831.0</ele><time>2026-04-24T17:04:25Z</time></trkpt><trkpt lat="43.085716017321296" lon="13.165924279864031"><ele>836.0</ele><time>2026-04-24T17:04:26Z</time></trkpt><trkpt lat="43.08567308142417" lon="13.165742291203248"><ele>841.0</ele><time>2026-04-24T17:04:27Z</time></trkpt><trkpt lat="43.08562094904122" lon="13.165573993008659"><ele>846.0</ele><time>2026-04-24T17:04:28Z</time></trkpt><trkpt lat="43.08556300991308" lon="13.16540591209197"><ele>846.0</ele><time>2026-04-24T17:04:29Z</time></trkpt><trkpt lat="43.08550879619165" lon="13.165241485356452"><ele>846.0</ele><time>2026-04-24T17:04:29.999Z</time></trkpt><trkpt lat="43.08545789775719" lon="13.165080358747332"><ele>846.0</ele><time>2026-04-24T17:04:30.999Z</time></trkpt><trkpt lat="43.085413388190986" lon="13.16491697438553"><ele>846.0</ele><time>2026-04-24T17:04:31.999Z</time></trkpt><trkpt lat="43.08537070875105" lon="13.164758387140632"><ele>839.5</ele><time>2026-04-24T17:04:32.999Z</time></trkpt><trkpt lat="43.08532715509253" lon="13.164594482445276"><ele>833.0</ele><time>2026-04-24T17:04:33.999Z</time></trkpt><trkpt lat="43.085284972918686" lon="13.164432284596687"><ele>826.5</ele><time>2026-04-24T17:04:34.999Z</time></trkpt><trkpt lat="43.08524327138552" lon="13.164273592009714"><ele>820.0</ele><time>2026-04-24T17:04:35.999Z</time></trkpt><trkpt lat="43.08520121861576" lon="13.16411421992382"><ele>814.5</ele><time>2026-04-24T17:04:36.999Z</time></trkpt><trkpt lat="43.08515833914688" lon="13.163962252137267"><ele>809.0</ele><time>2026-04-24T17:04:37.999Z</time></trkpt><trkpt lat="43.08511804085379" lon="13.163806869657437"><ele>803.5</ele><time>2026-04-24T17:04:38.999Z</time></trkpt><trkpt lat="43.08507988255529" lon="13.163647090800406"><ele>798.0</ele><time>2026-04-24T17:04:39.999Z</time></trkpt><trkpt lat="43.08504206639207" lon="13.163489740934196"><ele>798.0</ele><time>2026-04-24T17:04:40.999Z</time></trkpt><trkpt lat="43.08500684420501" lon="13.163331871581578"><ele>798.0</ele><time>2026-04-24T17:04:41.999Z</time></trkpt><trkpt lat="43.08497506897317" lon="13.163174157282489"><ele>798.0</ele><time>2026-04-24T17:04:42.999Z</time></trkpt><trkpt lat="43.08495012002859" lon="13.163012788970434"><ele>798.0</ele><time>2026-04-24T17:04:43.999Z</time></trkpt><trkpt lat="43.08493040493037" lon="13.162854197178156"><ele>794.5</ele><time>2026-04-24T17:04:44.999Z</time></trkpt><trkpt lat="43.08490804211053" lon="13.16268880657589"><ele>791.0</ele><time>2026-04-24T17:04:45.999Z</time></trkpt><trkpt lat="43.08488570684617" lon="13.16252832456592"><ele>787.5</ele><time>2026-04-24T17:04:46.999Z</time></trkpt><trkpt lat="43.08486254863674" lon="13.162368611979177"><ele>784.0</ele><time>2026-04-24T17:04:47.999Z</time></trkpt><trkpt lat="43.08484026037027" lon="13.16220642706076"><ele>781.0</ele><time>2026-04-24T17:04:48.999Z</time></trkpt><trkpt lat="43.08481737046044" lon="13.162048083941812"><ele>778.0</ele><time>2026-04-24T17:04:49.999Z</time></trkpt><trkpt lat="43.08479680419712" lon="13.16190274603409"><ele>775.0</ele><time>2026-04-24T17:04:50.999Z</time></trkpt><trkpt lat="43.08477503046141" lon="13.161786477878637"><ele>772.0</ele><time>2026-04-24T17:04:51.999Z</time></trkpt><trkpt lat="43.08468619577824" lon="13.16167915611861"><ele>769.0</ele><time>2026-04-24T17:04:53.999Z</time></trkpt><trkpt lat="43.08460729339545" lon="13.161664324327322"><ele>769.0</ele><time>2026-04-24T17:04:54.999Z</time></trkpt><trkpt lat="43.084505155698665" lon="13.161682442325677"><ele>769.0</ele><time>2026-04-24T17:04:55.999Z</time></trkpt><trkpt lat="43.08439871040679" lon="13.16173694871939"><ele>769.0</ele><time>2026-04-24T17:04:56.999Z</time></trkpt><trkpt lat="43.08430937884781" lon="13.1618051155134"><ele>769.0</ele><time>2026-04-24T17:04:57.999Z</time></trkpt><trkpt lat="43.08422663683254" lon="13.16190088482366"><ele>769.0</ele><time>2026-04-24T17:04:58.999Z</time></trkpt><trkpt lat="43.08413363403961" lon="13.162032372989428"><ele>766.2</ele><time>2026-04-24T17:04:59.999Z</time></trkpt><trkpt lat="43.08404766612823" lon="13.16214097790971"><ele>763.4000000000001</ele><time>2026-04-24T17:05:00.999Z</time></trkpt><trkpt lat="43.08396241542312" lon="13.162227236096925"><ele>760.6</ele><time>2026-04-24T17:05:01.999Z</time></trkpt><trkpt lat="43.083889682194574" lon="13.162315225461821"><ele>757.8</ele><time>2026-04-24T17:05:02.999Z</time></trkpt><trkpt lat="43.08382274117282" lon="13.162425756089624"><ele>755.0</ele><time>2026-04-24T17:05:03.999Z</time></trkpt><trkpt lat="43.08375536605112" lon="13.162571571531513"><ele>755.0</ele><time>2026-04-24T17:05:04.999Z</time></trkpt><trkpt lat="43.08368512001226" lon="13.162740881424257"><ele>755.0</ele><time>2026-04-24T17:05:05.999Z</time></trkpt><trkpt lat="43.08361735525259" lon="13.162891319405746"><ele>755.0</ele><time>2026-04-24T17:05:06.999Z</time></trkpt><trkpt lat="43.08354518739587" lon="13.1630295731134"><ele>755.0</ele><time>2026-04-24T17:05:07.999Z</time></trkpt><trkpt lat="43.08346670802449" lon="13.163150306763832"><ele>760.0</ele><time>2026-04-24T17:05:08.999Z</time></trkpt><trkpt lat="43.08338563994647" lon="13.163278718564527"><ele>765.0</ele><time>2026-04-24T17:05:09.999Z</time></trkpt><trkpt lat="43.08330735456694" lon="13.163404085076484"><ele>770.0</ele><time>2026-04-24T17:05:10.999Z</time></trkpt><trkpt lat="43.083233707120606" lon="13.163529649340001"><ele>775.0</ele><time>2026-04-24T17:05:11.999Z</time></trkpt><trkpt lat="43.08317199526124" lon="13.163642118276206"><ele>780.4</ele><time>2026-04-24T17:05:12.999Z</time></trkpt><trkpt lat="43.08312524477881" lon="13.163724300043112"><ele>785.8</ele><time>2026-04-24T17:05:13.999Z</time></trkpt><trkpt lat="43.08301981085227" lon="13.163787583225801"><ele>791.2</ele><time>2026-04-24T17:05:15.999Z</time></trkpt><trkpt lat="43.082955981467094" lon="13.163751814243316"><ele>796.6</ele><time>2026-04-24T17:05:16.999Z</time></trkpt><trkpt lat="43.082892380469985" lon="13.163657558753231"><ele>802.0</ele><time>2026-04-24T17:05:17.999Z</time></trkpt><trkpt lat="43.08284162773551" lon="13.163513478391588"><ele>802.0</ele><time>2026-04-24T17:05:18.999Z</time></trkpt><trkpt lat="43.08279757371504" lon="13.16331694999831"><ele>802.0</ele><time>2026-04-24T17:05:19.999Z</time></trkpt><trkpt lat="43.08275352215957" lon="13.16310708988846"><ele>802.0</ele><time>2026-04-24T17:05:20.999Z</time></trkpt><trkpt lat="43.08271057120145" lon="13.162918247605827"><ele>795.75</ele><time>2026-04-24T17:05:21.999Z</time></trkpt><trkpt lat="43.082670366680894" lon="13.16273484620511"><ele>789.5</ele><time>2026-04-24T17:05:22.999Z</time></trkpt><trkpt lat="43.08263165057198" lon="13.162551857459249"><ele>783.25</ele><time>2026-04-24T17:05:23.999Z</time></trkpt><trkpt lat="43.082596429638585" lon="13.16237674235437"><ele>777.0</ele><time>2026-04-24T17:05:24.999Z</time></trkpt><trkpt lat="43.08256443017481" lon="13.1622127926874"><ele>772.0</ele><time>2026-04-24T17:05:25.999Z</time></trkpt><trkpt lat="43.08253201679825" lon="13.162041070073894"><ele>767.0</ele><time>2026-04-24T17:05:26.999Z</time></trkpt><trkpt lat="43.08250189087267" lon="13.16186261225216"><ele>762.0</ele><time>2026-04-24T17:05:27.999Z</time></trkpt><trkpt lat="43.08247024531715" lon="13.161682463187832"><ele>757.0</ele><time>2026-04-24T17:05:28.999Z</time></trkpt><trkpt lat="43.08244092706831" lon="13.161506505536988"><ele>757.5</ele><time>2026-04-24T17:05:29.999Z</time></trkpt><trkpt lat="43.0824174784536" lon="13.161342501631324"><ele>758.0</ele><time>2026-04-24T17:05:30.999Z</time></trkpt><trkpt lat="43.08239530119348" lon="13.161185647012635"><ele>758.5</ele><time>2026-04-24T17:05:31.999Z</time></trkpt><trkpt lat="43.08236164767915" lon="13.161055491143816"><ele>759.0</ele><time>2026-04-24T17:05:32.999Z</time></trkpt><trkpt lat="43.08230228480312" lon="13.160916140718813"><ele>759.0</ele><time>2026-04-24T17:05:33.999Z</time></trkpt><trkpt lat="43.08221729468186" lon="13.160774618784016"><ele>759.0</ele><time>2026-04-24T17:05:34.999Z</time></trkpt><trkpt lat="43.08212998430895" lon="13.160626638282611"><ele>759.0</ele><time>2026-04-24T17:05:35.999Z</time></trkpt><trkpt lat="43.082051415699304" lon="13.160489371661296"><ele>759.0</ele><time>2026-04-24T17:05:36.999Z</time></trkpt><trkpt lat="43.08197905956571" lon="13.16036190278661"><ele>756.6</ele><time>2026-04-24T17:05:37.999Z</time></trkpt><trkpt lat="43.08191056017769" lon="13.160239766670076"><ele>754.2</ele><time>2026-04-24T17:05:38.999Z</time></trkpt><trkpt lat="43.08184362797994" lon="13.16012846083677"><ele>751.8000000000001</ele><time>2026-04-24T17:05:40Z</time></trkpt><trkpt lat="43.08177150888336" lon="13.16003909461631"><ele>749.4000000000001</ele><time>2026-04-24T17:05:41Z</time></trkpt><trkpt lat="43.08167782412965" lon="13.159966437902803"><ele>747.0</ele><time>2026-04-24T17:05:42Z</time></trkpt><trkpt lat="43.08158190463817" lon="13.159919433180308"><ele>745.2</ele><time>2026-04-24T17:05:43Z</time></trkpt><trkpt lat="43.08148916162524" lon="13.159897080153785"><ele>743.4000000000001</ele><time>2026-04-24T17:05:44Z</time></trkpt><trkpt lat="43.081386619064496" lon="13.159890577035908"><ele>741.5999999999999</ele><time>2026-04-24T17:05:45Z</time></trkpt><trkpt lat="43.08126836593816" lon="13.159894175841714"><ele>739.8</ele><time>2026-04-24T17:05:46Z</time></trkpt><trkpt lat="43.08115139815977" lon="13.159908617268275"><ele>738.0</ele><time>2026-04-24T17:05:47Z</time></trkpt><trkpt lat="43.0810364946281" lon="13.159934348331118"><ele>738.0</ele><time>2026-04-24T17:05:48Z</time></trkpt><trkpt lat="43.08091907447413" lon="13.159977690259097"><ele>738.0</ele><time>2026-04-24T17:05:49Z</time></trkpt><trkpt lat="43.08079959144773" lon="13.160018417189344"><ele>738.0</ele><time>2026-04-24T17:05:50Z</time></trkpt><trkpt lat="43.080683487186256" lon="13.160050455957881"><ele>738.0</ele><time>2026-04-24T17:05:51Z</time></trkpt><trkpt lat="43.08056499860054" lon="13.160061240698123"><ele>735.25</ele><time>2026-04-24T17:05:52Z</time></trkpt><trkpt lat="43.08044780135079" lon="13.160058211076267"><ele>732.5</ele><time>2026-04-24T17:05:53Z</time></trkpt><trkpt lat="43.08033404527277" lon="13.160054528228002"><ele>729.75</ele><time>2026-04-24T17:05:54Z</time></trkpt><trkpt lat="43.08022367413903" lon="13.160054376021872"><ele>727.0</ele><time>2026-04-24T17:05:55Z</time></trkpt><trkpt lat="43.08011094091322" lon="13.160056642006193"><ele>727.0</ele><time>2026-04-24T17:05:56Z</time></trkpt><trkpt lat="43.079997777494285" lon="13.160056584592358"><ele>727.0</ele><time>2026-04-24T17:05:57Z</time></trkpt><trkpt lat="43.07988054717869" lon="13.16005617498638"><ele>727.0</ele><time>2026-04-24T17:05:58Z</time></trkpt><trkpt lat="43.079767241346886" lon="13.160059303532792"><ele>727.0</ele><time>2026-04-24T17:05:59Z</time></trkpt><trkpt lat="43.07964850829724" lon="13.160064329700887"><ele>725.25</ele><time>2026-04-24T17:06:00Z</time></trkpt><trkpt lat="43.07953594277586" lon="13.160073466011719"><ele>723.5</ele><time>2026-04-24T17:06:01Z</time></trkpt><trkpt lat="43.07942708329822" lon="13.160086593397722"><ele>721.75</ele><time>2026-04-24T17:06:02Z</time></trkpt><trkpt lat="43.07931339755319" lon="13.160112995777656"><ele>720.0</ele><time>2026-04-24T17:06:03Z</time></trkpt><trkpt lat="43.07919828658319" lon="13.160148972700396"><ele>715.5</ele><time>2026-04-24T17:06:04Z</time></trkpt><trkpt lat="43.079088619252936" lon="13.160187082919007"><ele>711.0</ele><time>2026-04-24T17:06:05Z</time></trkpt><trkpt lat="43.078976742128155" lon="13.160219051581267"><ele>706.5</ele><time>2026-04-24T17:06:06Z</time></trkpt><trkpt lat="43.07885610960184" lon="13.160249305243388"><ele>702.0</ele><time>2026-04-24T17:06:07Z</time></trkpt><trkpt lat="43.07873257436006" lon="13.160277647355018"><ele>702.0</ele><time>2026-04-24T17:06:08Z</time></trkpt><trkpt lat="43.07860859302934" lon="13.160307903905876"><ele>702.0</ele><time>2026-04-24T17:06:09Z</time></trkpt><trkpt lat="43.078490268109014" lon="13.160343231576979"><ele>702.0</ele><time>2026-04-24T17:06:10Z</time></trkpt><trkpt lat="43.07837427927808" lon="13.160381503074207"><ele>702.0</ele><time>2026-04-24T17:06:11Z</time></trkpt><trkpt lat="43.07825657895865" lon="13.160418706545562"><ele>698.4000000000001</ele><time>2026-04-24T17:06:12Z</time></trkpt><trkpt lat="43.078140346546384" lon="13.160453571788512"><ele>694.8000000000001</ele><time>2026-04-24T17:06:13Z</time></trkpt><trkpt lat="43.07802940899622" lon="13.160488126692252"><ele>691.2</ele><time>2026-04-24T17:06:14Z</time></trkpt><trkpt lat="43.07793405683196" lon="13.16052900674709"><ele>687.6</ele><time>2026-04-24T17:06:15Z</time></trkpt><trkpt lat="43.07784249748215" lon="13.160597409229053"><ele>684.0</ele><time>2026-04-24T17:06:16Z</time></trkpt><trkpt lat="43.077761633577396" lon="13.160685620017576"><ele>684.0</ele><time>2026-04-24T17:06:17Z</time></trkpt><trkpt lat="43.077695398047084" lon="13.1607611315408"><ele>684.0</ele><time>2026-04-24T17:06:18Z</time></trkpt><trkpt lat="43.07763431004713" lon="13.160799809153167"><ele>684.0</ele><time>2026-04-24T17:06:19Z</time></trkpt><trkpt lat="43.07753886462519" lon="13.16072472934189"><ele>684.0</ele><time>2026-04-24T17:06:21Z</time></trkpt><trkpt lat="43.077520918776855" lon="13.160635156805538"><ele>684.0</ele><time>2026-04-24T17:06:22Z</time></trkpt><trkpt lat="43.077533978186985" lon="13.160524156323682"><ele>684.0</ele><time>2026-04-24T17:06:23Z</time></trkpt><trkpt lat="43.07755582348347" lon="13.160398954832383"><ele>684.0</ele><time>2026-04-24T17:06:25Z</time></trkpt><trkpt lat="43.0774790274871" lon="13.160391323980487"><ele>684.0</ele><time>2026-04-24T17:06:34Z</time></trkpt><trkpt lat="43.07744960209072" lon="13.16053881079321"><ele>684.0</ele><time>2026-04-24T17:06:36Z</time></trkpt><trkpt lat="43.07744585804332" lon="13.160644840419943"><ele>684.0</ele><time>2026-04-24T17:06:37Z</time></trkpt><trkpt lat="43.077453912933336" lon="13.160825524604727"><ele>684.0</ele><time>2026-04-24T17:06:38Z</time></trkpt><trkpt lat="43.07747795085161" lon="13.160968951386945"><ele>686.0</ele><time>2026-04-24T17:06:39Z</time></trkpt><trkpt lat="43.077495403746425" lon="13.161108315150434"><ele>688.0</ele><time>2026-04-24T17:06:40Z</time></trkpt><trkpt lat="43.077501665162224" lon="13.161245173853796"><ele>690.0</ele><time>2026-04-24T17:06:41Z</time></trkpt><trkpt lat="43.07748441661563" lon="13.1613875564861"><ele>692.0</ele><time>2026-04-24T17:06:42Z</time></trkpt><trkpt lat="43.07745168524958" lon="13.161528050391107"><ele>694.0</ele><time>2026-04-24T17:06:43Z</time></trkpt><trkpt lat="43.07741734664597" lon="13.161655209028346"><ele>688.4000000000001</ele><time>2026-04-24T17:06:44Z</time></trkpt><trkpt lat="43.077389234068335" lon="13.161791276632934"><ele>682.8</ele><time>2026-04-24T17:06:45Z</time></trkpt><trkpt lat="43.077372561514004" lon="13.161928730646784"><ele>677.2</ele><time>2026-04-24T17:06:46Z</time></trkpt><trkpt lat="43.07736895216625" lon="13.162063689584082"><ele>671.5999999999999</ele><time>2026-04-24T17:06:47Z</time></trkpt><trkpt lat="43.07737867707493" lon="13.1621962685436"><ele>666.0</ele><time>2026-04-24T17:06:48Z</time></trkpt><trkpt lat="43.07738327811045" lon="13.162329799830657"><ele>668.5</ele><time>2026-04-24T17:06:49Z</time></trkpt><trkpt lat="43.077372551521535" lon="13.162462797740261"><ele>671.0</ele><time>2026-04-24T17:06:50Z</time></trkpt><trkpt lat="43.077364071840144" lon="13.1625766640354"><ele>673.5</ele><time>2026-04-24T17:06:51Z</time></trkpt><trkpt lat="43.07733473706991" lon="13.162673215696453"><ele>676.0</ele><time>2026-04-24T17:06:52Z</time></trkpt><trkpt lat="43.077284349777976" lon="13.16274435565402"><ele>678.5</ele><time>2026-04-24T17:06:53Z</time></trkpt><trkpt lat="43.07721901699594" lon="13.162743655386588"><ele>681.0</ele><time>2026-04-24T17:06:54Z</time></trkpt><trkpt lat="43.07713471068318" lon="13.16264418881538"><ele>681.0</ele><time>2026-04-24T17:06:56Z</time></trkpt><trkpt lat="43.07703826935476" lon="13.162585528901163"><ele>681.0</ele><time>2026-04-24T17:06:58Z</time></trkpt><trkpt lat="43.07695128616232" lon="13.162641596765669"><ele>681.0</ele><time>2026-04-24T17:07:00Z</time></trkpt><trkpt lat="43.076914771674076" lon="13.16280426856765"><ele>681.0</ele><time>2026-04-24T17:07:02Z</time></trkpt><trkpt lat="43.076911789947516" lon="13.162913108354328"><ele>681.0</ele><time>2026-04-24T17:07:02.999Z</time></trkpt><trkpt lat="43.07690684721412" lon="13.163031482676661"><ele>681.0</ele><time>2026-04-24T17:07:03.999Z</time></trkpt><trkpt lat="43.07689311841778" lon="13.163151723596688"><ele>681.0</ele><time>2026-04-24T17:07:04.999Z</time></trkpt><trkpt lat="43.076870650841556" lon="13.163280014322016"><ele>681.0</ele><time>2026-04-24T17:07:05.999Z</time></trkpt><trkpt lat="43.076841692239185" lon="13.16341692266267"><ele>681.0</ele><time>2026-04-24T17:07:06.999Z</time></trkpt><trkpt lat="43.076804996503796" lon="13.163559925540595"><ele>681.0</ele><time>2026-04-24T17:07:07.999Z</time></trkpt><trkpt lat="43.07676314534263" lon="13.16370069973589"><ele>685.0</ele><time>2026-04-24T17:07:08.999Z</time></trkpt><trkpt lat="43.0767145843732" lon="13.163852538040143"><ele>689.0</ele><time>2026-04-24T17:07:09.999Z</time></trkpt><trkpt lat="43.07665860071498" lon="13.164008983547244"><ele>693.0</ele><time>2026-04-24T17:07:10.999Z</time></trkpt><trkpt lat="43.076592278664165" lon="13.164163746921735"><ele>697.0</ele><time>2026-04-24T17:07:11.999Z</time></trkpt><trkpt lat="43.07652080050401" lon="13.164316581784185"><ele>697.5</ele><time>2026-04-24T17:07:12.999Z</time></trkpt><trkpt lat="43.076443029270195" lon="13.164456379333854"><ele>698.0</ele><time>2026-04-24T17:07:13.999Z</time></trkpt><trkpt lat="43.076362718168454" lon="13.164588702708574"><ele>698.5</ele><time>2026-04-24T17:07:14.999Z</time></trkpt><trkpt lat="43.07627701010195" lon="13.16471318039743"><ele>699.0</ele><time>2026-04-24T17:07:15.999Z</time></trkpt><trkpt lat="43.076183592208494" lon="13.164820348845772"><ele>703.4000000000001</ele><time>2026-04-24T17:07:16.999Z</time></trkpt><trkpt lat="43.07608128955514" lon="13.164907271078606"><ele>707.8</ele><time>2026-04-24T17:07:17.999Z</time></trkpt><trkpt lat="43.07598246408546" lon="13.164987195214113"><ele>712.2</ele><time>2026-04-24T17:07:18.999Z</time></trkpt><trkpt lat="43.07590055387248" lon="13.165084647320434"><ele>716.5999999999999</ele><time>2026-04-24T17:07:19.999Z</time></trkpt><trkpt lat="43.075832647825706" lon="13.165180690810814"><ele>721.0</ele><time>2026-04-24T17:07:20.999Z</time></trkpt><trkpt lat="43.075757199284304" lon="13.16524270480299"><ele>725.6666666666667</ele><time>2026-04-24T17:07:21.999Z</time></trkpt><trkpt lat="43.07568312098418" lon="13.165237982203392"><ele>730.3333333333334</ele><time>2026-04-24T17:07:22.999Z</time></trkpt><trkpt lat="43.07562725090178" lon="13.165176793797343"><ele>735.0</ele><time>2026-04-24T17:07:23.999Z</time></trkpt><trkpt lat="43.075582184086464" lon="13.165086425246718"><ele>739.6666666666666</ele><time>2026-04-24T17:07:24.999Z</time></trkpt><trkpt lat="43.07554558782538" lon="13.164977608962483"><ele>744.3333333333333</ele><time>2026-04-24T17:07:25.999Z</time></trkpt><trkpt lat="43.07550370388699" lon="13.164856807638257"><ele>749.0</ele><time>2026-04-24T17:07:26.999Z</time></trkpt><trkpt lat="43.075453366083586" lon="13.164722557316958"><ele>749.0</ele><time>2026-04-24T17:07:27.999Z</time></trkpt><trkpt lat="43.07539473829787" lon="13.16458284512398"><ele>749.0</ele><time>2026-04-24T17:07:28.999Z</time></trkpt><trkpt lat="43.0753399993268" lon="13.164432516356634"><ele>749.0</ele><time>2026-04-24T17:07:29.999Z</time></trkpt><trkpt lat="43.07529586877108" lon="13.164265653476479"><ele>749.0</ele><time>2026-04-24T17:07:30.999Z</time></trkpt><trkpt lat="43.075268268952826" lon="13.164075650558145"><ele>746.0</ele><time>2026-04-24T17:07:31.999Z</time></trkpt><trkpt lat="43.07525791787363" lon="13.163876620462986"><ele>743.0</ele><time>2026-04-24T17:07:32.999Z</time></trkpt><trkpt lat="43.07526205671621" lon="13.163670560729864"><ele>740.0</ele><time>2026-04-24T17:07:33.999Z</time></trkpt><trkpt lat="43.075246934844" lon="13.163489496829532"><ele>737.0</ele><time>2026-04-24T17:07:34.999Z</time></trkpt><trkpt lat="43.07522317227576" lon="13.163324238142154"><ele>733.25</ele><time>2026-04-24T17:07:35.999Z</time></trkpt><trkpt lat="43.075170458328685" lon="13.163158254005456"><ele>729.5</ele><time>2026-04-24T17:07:36.999Z</time></trkpt><trkpt lat="43.075101914332336" lon="13.162988768968056"><ele>725.75</ele><time>2026-04-24T17:07:37.999Z</time></trkpt><trkpt lat="43.075035756611456" lon="13.16281208241606"><ele>722.0</ele><time>2026-04-24T17:07:38.999Z</time></trkpt><trkpt lat="43.07498032528987" lon="13.162644976629295"><ele>721.6</ele><time>2026-04-24T17:07:39.999Z</time></trkpt><trkpt lat="43.07493242345869" lon="13.162476929259144"><ele>721.2</ele><time>2026-04-24T17:07:40.999Z</time></trkpt><trkpt lat="43.074902523797775" lon="13.162319537908168"><ele>720.8</ele><time>2026-04-24T17:07:41.999Z</time></trkpt><trkpt lat="43.0748853610268" lon="13.162176760216736"><ele>720.4</ele><time>2026-04-24T17:07:42.999Z</time></trkpt><trkpt lat="43.07485095889607" lon="13.162058696909414"><ele>720.0</ele><time>2026-04-24T17:07:43.999Z</time></trkpt><trkpt lat="43.074791524809676" lon="13.161979362494185"><ele>720.0</ele><time>2026-04-24T17:07:44.999Z</time></trkpt><trkpt lat="43.074705175937055" lon="13.161949409488528"><ele>720.0</ele><time>2026-04-24T17:07:46.001Z</time></trkpt><trkpt lat="43.07460002529938" lon="13.161949940105016"><ele>720.0</ele><time>2026-04-24T17:07:47.001Z</time></trkpt><trkpt lat="43.074484118924644" lon="13.161953563269138"><ele>720.0</ele><time>2026-04-24T17:07:48.001Z</time></trkpt><trkpt lat="43.07436184828078" lon="13.161947857678514"><ele>720.0</ele><time>2026-04-24T17:07:49.001Z</time></trkpt><trkpt lat="43.07423205567039" lon="13.161934093108156"><ele>720.0</ele><time>2026-04-24T17:07:50.001Z</time></trkpt><trkpt lat="43.07409551215793" lon="13.161917566712145"><ele>720.0</ele><time>2026-04-24T17:07:51Z</time></trkpt><trkpt lat="43.07395472336882" lon="13.161900369240138"><ele>720.0</ele><time>2026-04-24T17:07:52Z</time></trkpt><trkpt lat="43.073815591835725" lon="13.161885169445721"><ele>720.0</ele><time>2026-04-24T17:07:53Z</time></trkpt><trkpt lat="43.07367681733475" lon="13.161869778637524"><ele>720.0</ele><time>2026-04-24T17:07:54Z</time></trkpt><trkpt lat="43.073537912185785" lon="13.161858848486562"><ele>720.0</ele><time>2026-04-24T17:07:55Z</time></trkpt><trkpt lat="43.07339742548406" lon="13.161865754988561"><ele>720.0</ele><time>2026-04-24T17:07:56Z</time></trkpt><trkpt lat="43.07325633544098" lon="13.161899002422281"><ele>712.0</ele><time>2026-04-24T17:07:57Z</time></trkpt></trkseg><trkseg><trkpt lat="43.057813611589005" lon="13.159794308807612"><ele>788.0</ele><time>2026-04-24T17:11:26.999Z</time></trkpt><trkpt lat="43.0577345025541" lon="13.159718971735737"><ele>788.0</ele><time>2026-04-24T17:11:27.999Z</time></trkpt><trkpt lat="43.05765799461885" lon="13.159634571047908"><ele>788.0</ele><time>2026-04-24T17:11:28.999Z</time></trkpt><trkpt lat="43.05757909872822" lon="13.159538528831995"><ele>788.0</ele><time>2026-04-24T17:11:29.999Z</time></trkpt><trkpt lat="43.0575045766691" lon="13.159432344034236"><ele>788.0</ele><time>2026-04-24T17:11:30.999Z</time></trkpt><trkpt lat="43.05743603822411" lon="13.159313610373436"><ele>786.8</ele><time>2026-04-24T17:11:31.999Z</time></trkpt><trkpt lat="43.057382903749904" lon="13.159184085968711"><ele>785.5999999999999</ele><time>2026-04-24T17:11:32.999Z</time></trkpt><trkpt lat="43.05734938219925" lon="13.159040971254079"><ele>784.4000000000001</ele><time>2026-04-24T17:11:33.999Z</time></trkpt><trkpt lat="43.05733657587744" lon="13.158887615255237"><ele>783.2</ele><time>2026-04-24T17:11:34.999Z</time></trkpt><trkpt lat="43.05733265761856" lon="13.158733913715066"><ele>782.0</ele><time>2026-04-24T17:11:35.999Z</time></trkpt><trkpt lat="43.0573160126726" lon="13.158589856899754"><ele>782.0</ele><time>2026-04-24T17:11:36.999Z</time></trkpt><trkpt lat="43.057272047212216" lon="13.158456136752516"><ele>782.0</ele><time>2026-04-24T17:11:37.999Z</time></trkpt><trkpt lat="43.05719746051029" lon="13.158349718556067"><ele>782.0</ele><time>2026-04-24T17:11:38.999Z</time></trkpt><trkpt lat="43.057101832684964" lon="13.158281281982337"><ele>782.0</ele><time>2026-04-24T17:11:39.999Z</time></trkpt><trkpt lat="43.05699121367954" lon="13.158256202984862"><ele>782.0</ele><time>2026-04-24T17:11:40.999Z</time></trkpt><trkpt lat="43.05687255526379" lon="13.158288584048675"><ele>782.0</ele><time>2026-04-24T17:11:41.999Z</time></trkpt><trkpt lat="43.05676396608518" lon="13.158340262288952"><ele>782.0</ele><time>2026-04-24T17:11:42.999Z</time></trkpt><trkpt lat="43.05666097079637" lon="13.15838769708533"><ele>782.0</ele><time>2026-04-24T17:11:43.999Z</time></trkpt><trkpt lat="43.05654940852484" lon="13.158419129569289"><ele>782.0</ele><time>2026-04-24T17:11:44.999Z</time></trkpt><trkpt lat="43.056429405734704" lon="13.15842606836588"><ele>781.0</ele><time>2026-04-24T17:11:45.999Z</time></trkpt><trkpt lat="43.05630988520118" lon="13.15840345223045"><ele>780.0</ele><time>2026-04-24T17:11:46.999Z</time></trkpt><trkpt lat="43.05619305056605" lon="13.158365721310247"><ele>779.0</ele><time>2026-04-24T17:11:47.999Z</time></trkpt><trkpt lat="43.05608167781369" lon="13.158318690256014"><ele>778.0</ele><time>2026-04-24T17:11:48.999Z</time></trkpt><trkpt lat="43.055974097273925" lon="13.158260340637103"><ele>776.5</ele><time>2026-04-24T17:11:49.999Z</time></trkpt><trkpt lat="43.0558746068899" lon="13.158192845223846"><ele>775.0</ele><time>2026-04-24T17:11:50.999Z</time></trkpt><trkpt lat="43.05578616443321" lon="13.15809913560978"><ele>773.5</ele><time>2026-04-24T17:11:51.999Z</time></trkpt><trkpt lat="43.05570845373604" lon="13.157974032667177"><ele>772.0</ele><time>2026-04-24T17:11:52.999Z</time></trkpt><trkpt lat="43.05564714413018" lon="13.157827111832278"><ele>772.0</ele><time>2026-04-24T17:11:53.999Z</time></trkpt><trkpt lat="43.05558249284353" lon="13.157683033099037"><ele>772.0</ele><time>2026-04-24T17:11:54.999Z</time></trkpt><trkpt lat="43.055502525749134" lon="13.157547876398144"><ele>772.0</ele><time>2026-04-24T17:11:55.999Z</time></trkpt><trkpt lat="43.05542609852523" lon="13.157415238047275"><ele>772.0</ele><time>2026-04-24T17:11:56.999Z</time></trkpt><trkpt lat="43.05536985733354" lon="13.15725860518947"><ele>772.75</ele><time>2026-04-24T17:11:58Z</time></trkpt><trkpt lat="43.05533592278135" lon="13.15706777926482"><ele>773.5</ele><time>2026-04-24T17:11:59Z</time></trkpt><trkpt lat="43.05533138238098" lon="13.156886335903957"><ele>774.25</ele><time>2026-04-24T17:12:00Z</time></trkpt><trkpt lat="43.05533601679012" lon="13.156722859309903"><ele>775.0</ele><time>2026-04-24T17:12:01Z</time></trkpt><trkpt lat="43.0553598699389" lon="13.156579476499225"><ele>774.6</ele><time>2026-04-24T17:12:02Z</time></trkpt><trkpt lat="43.05541110406366" lon="13.156465010823855"><ele>774.2</ele><time>2026-04-24T17:12:03Z</time></trkpt><trkpt lat="43.05549479422348" lon="13.156387579908923"><ele>773.8</ele><time>2026-04-24T17:12:04Z</time></trkpt><trkpt lat="43.055608424216096" lon="13.156341373869518"><ele>773.4</ele><time>2026-04-24T17:12:05Z</time></trkpt><trkpt lat="43.055720356182114" lon="13.156297411941805"><ele>773.0</ele><time>2026-04-24T17:12:06Z</time></trkpt><trkpt lat="43.055840939414495" lon="13.156257691332643"><ele>773.0</ele><time>2026-04-24T17:12:07Z</time></trkpt><trkpt lat="43.0559645866992" lon="13.156222362001715"><ele>773.0</ele><time>2026-04-24T17:12:08Z</time></trkpt><trkpt lat="43.056087711641126" lon="13.156183994227828"><ele>773.0</ele><time>2026-04-24T17:12:09Z</time></trkpt><trkpt lat="43.05620983574872" lon="13.156139529725632"><ele>773.0</ele><time>2026-04-24T17:12:10Z</time></trkpt><trkpt lat="43.05633338297916" lon="13.156077081147153"><ele>773.0</ele><time>2026-04-24T17:12:11Z</time></trkpt><trkpt lat="43.05645645162072" lon="13.156009968998385"><ele>773.0</ele><time>2026-04-24T17:12:12Z</time></trkpt><trkpt lat="43.056576850219685" lon="13.155932500005498"><ele>773.0</ele><time>2026-04-24T17:12:13Z</time></trkpt><trkpt lat="43.056693343246806" lon="13.155848361150275"><ele>773.0</ele><time>2026-04-24T17:12:14Z</time></trkpt><trkpt lat="43.05680358282953" lon="13.155762701313806"><ele>773.75</ele><time>2026-04-24T17:12:15Z</time></trkpt><trkpt lat="43.05691586726597" lon="13.155664971753916"><ele>774.5</ele><time>2026-04-24T17:12:16Z</time></trkpt><trkpt lat="43.057019130834675" lon="13.155556552095307"><ele>775.25</ele><time>2026-04-24T17:12:17Z</time></trkpt><trkpt lat="43.057113713394564" lon="13.155430991711706"><ele>776.0</ele><time>2026-04-24T17:12:18Z</time></trkpt><trkpt lat="43.05720260186502" lon="13.155295620709754"><ele>776.0</ele><time>2026-04-24T17:12:19Z</time></trkpt><trkpt lat="43.05728601395122" lon="13.155158678468318"><ele>776.0</ele><time>2026-04-24T17:12:20Z</time></trkpt><trkpt lat="43.05736264670356" lon="13.155019165600175"><ele>776.0</ele><time>2026-04-24T17:12:21Z</time></trkpt><trkpt lat="43.05741031170769" lon="13.154869557938685"><ele>776.0</ele><time>2026-04-24T17:12:22Z</time></trkpt><trkpt lat="43.05742828105472" lon="13.154698455787404"><ele>779.75</ele><time>2026-04-24T17:12:23Z</time></trkpt><trkpt lat="43.05741127918175" lon="13.1545235759974"><ele>783.5</ele><time>2026-04-24T17:12:24Z</time></trkpt><trkpt lat="43.05736254823458" lon="13.15436295628385"><ele>787.25</ele><time>2026-04-24T17:12:25Z</time></trkpt><trkpt lat="43.05730464283003" lon="13.154233316350066"><ele>791.0</ele><time>2026-04-24T17:12:26Z</time></trkpt><trkpt lat="43.057213657832115" lon="13.154140259953284"><ele>791.0</ele><time>2026-04-24T17:12:27Z</time></trkpt><trkpt lat="43.05710152858946" lon="13.154088541200872"><ele>791.0</ele><time>2026-04-24T17:12:28Z</time></trkpt><trkpt lat="43.05697945961544" lon="13.154071812605952"><ele>791.0</ele><time>2026-04-24T17:12:29Z</time></trkpt><trkpt lat="43.05685063294042" lon="13.154086265792728"><ele>791.0</ele><time>2026-04-24T17:12:30Z</time></trkpt><trkpt lat="43.056720474581425" lon="13.15408985895529"><ele>788.5</ele><time>2026-04-24T17:12:31Z</time></trkpt><trkpt lat="43.05659188608469" lon="13.154099852616403"><ele>786.0</ele><time>2026-04-24T17:12:32Z</time></trkpt><trkpt lat="43.056462009321685" lon="13.15411701964065"><ele>783.5</ele><time>2026-04-24T17:12:33Z</time></trkpt><trkpt lat="43.05633037565238" lon="13.15412495510744"><ele>781.0</ele><time>2026-04-24T17:12:34Z</time></trkpt><trkpt lat="43.05619894174234" lon="13.15412919907803"><ele>781.0</ele><time>2026-04-24T17:12:35Z</time></trkpt><trkpt lat="43.05607025689344" lon="13.15410129545163"><ele>781.0</ele><time>2026-04-24T17:12:36Z</time></trkpt><trkpt lat="43.05594474442143" lon="13.154085896931992"><ele>781.0</ele><time>2026-04-24T17:12:37Z</time></trkpt><trkpt lat="43.05582284738894" lon="13.154013658498739"><ele>781.0</ele><time>2026-04-24T17:12:38Z</time></trkpt><trkpt lat="43.055715327209754" lon="13.15390848191251"><ele>784.0</ele><time>2026-04-24T17:12:39Z</time></trkpt><trkpt lat="43.055616657629734" lon="13.153784700792354"><ele>787.0</ele><time>2026-04-24T17:12:40Z</time></trkpt><trkpt lat="43.055523132471855" lon="13.15366257250586"><ele>790.0</ele><time>2026-04-24T17:12:41Z</time></trkpt><trkpt lat="43.055420677896635" lon="13.153563518764491"><ele>793.0</ele><time>2026-04-24T17:12:42Z</time></trkpt><trkpt lat="43.055302225066036" lon="13.153505871233477"><ele>793.0</ele><time>2026-04-24T17:12:43Z</time></trkpt><trkpt lat="43.05517532343645" lon="13.153493398811253"><ele>793.0</ele><time>2026-04-24T17:12:44Z</time></trkpt><trkpt lat="43.05504395394073" lon="13.15349463949275"><ele>793.0</ele><time>2026-04-24T17:12:45Z</time></trkpt><trkpt lat="43.054922449253304" lon="13.153551410239213"><ele>793.0</ele><time>2026-04-24T17:12:46Z</time></trkpt><trkpt lat="43.05479990277598" lon="13.153592791750812"><ele>791.0</ele><time>2026-04-24T17:12:47Z</time></trkpt><trkpt lat="43.05468682540211" lon="13.153595280075844"><ele>789.0</ele><time>2026-04-24T17:12:48Z</time></trkpt><trkpt lat="43.05457707593129" lon="13.153541179140277"><ele>787.0</ele><time>2026-04-24T17:12:49Z</time></trkpt><trkpt lat="43.05446427071508" lon="13.153450987566574"><ele>785.0</ele><time>2026-04-24T17:12:50Z</time></trkpt><trkpt lat="43.05435406408322" lon="13.153366640537122"><ele>785.0</ele><time>2026-04-24T17:12:51Z</time></trkpt><trkpt lat="43.05423901191318" lon="13.153292966884583"><ele>785.0</ele><time>2026-04-24T17:12:52Z</time></trkpt><trkpt lat="43.05411650888359" lon="13.15322776607998"><ele>785.0</ele><time>2026-04-24T17:12:53Z</time></trkpt><trkpt lat="43.05398960786302" lon="13.153168611269583"><ele>785.0</ele><time>2026-04-24T17:12:54Z</time></trkpt><trkpt lat="43.053859999782766" lon="13.15311163550145"><ele>787.5</ele><time>2026-04-24T17:12:55Z</time></trkpt><trkpt lat="43.05372810076822" lon="13.15305564462476"><ele>790.0</ele><time>2026-04-24T17:12:56Z</time></trkpt><trkpt lat="43.05359808104745" lon="13.152997149325637"><ele>792.5</ele><time>2026-04-24T17:12:57Z</time></trkpt><trkpt lat="43.05347919088941" lon="13.152938270216547"><ele>795.0</ele><time>2026-04-24T17:12:58Z</time></trkpt><trkpt lat="43.05335100827935" lon="13.152924457115375"><ele>796.0</ele><time>2026-04-24T17:12:59Z</time></trkpt><trkpt lat="43.05322248157514" lon="13.152905983893097"><ele>797.0</ele><time>2026-04-24T17:13:00Z</time></trkpt><trkpt lat="43.0528462401564" lon="13.152986955372079"><ele>797.0</ele><time>2026-04-24T17:13:03Z</time></trkpt><trkpt lat="43.052718688198674" lon="13.15301860060528"><ele>797.0</ele><time>2026-04-24T17:13:04Z</time></trkpt><trkpt lat="43.05259897345477" lon="13.15306927541399"><ele>797.0</ele><time>2026-04-24T17:13:05Z</time></trkpt><trkpt lat="43.05247242785686" lon="13.153069588208778"><ele>797.0</ele><time>2026-04-24T17:13:06Z</time></trkpt><trkpt lat="43.052347939057846" lon="13.153080466183688"><ele>795.75</ele><time>2026-04-24T17:13:07Z</time></trkpt><trkpt lat="43.052223371117925" lon="13.153081014509084"><ele>794.5</ele><time>2026-04-24T17:13:08Z</time></trkpt><trkpt lat="43.052104708809836" lon="13.153075270675787"><ele>793.25</ele><time>2026-04-24T17:13:08.999Z</time></trkpt><trkpt lat="43.05199169404354" lon="13.153069831570976"><ele>792.0</ele><time>2026-04-24T17:13:09.999Z</time></trkpt><trkpt lat="43.05189475710987" lon="13.15298996625889"><ele>792.0</ele><time>2026-04-24T17:13:10.999Z</time></trkpt><trkpt lat="43.05180215371339" lon="13.15290515034846"><ele>792.0</ele><time>2026-04-24T17:13:11.999Z</time></trkpt><trkpt lat="43.05172025591417" lon="13.152795179281721"><ele>792.0</ele><time>2026-04-24T17:13:12.999Z</time></trkpt><trkpt lat="43.05165736777425" lon="13.1526630372437"><ele>792.0</ele><time>2026-04-24T17:13:13.999Z</time></trkpt><trkpt lat="43.05158505722174" lon="13.152529923187313"><ele>792.5</ele><time>2026-04-24T17:13:14.999Z</time></trkpt><trkpt lat="43.05155627365723" lon="13.15236446518873"><ele>793.0</ele><time>2026-04-24T17:13:15.999Z</time></trkpt><trkpt lat="43.051493082307445" lon="13.152216119374557"><ele>793.5</ele><time>2026-04-24T17:13:16.999Z</time></trkpt><trkpt lat="43.05146260476905" lon="13.152051314281067"><ele>794.0</ele><time>2026-04-24T17:13:17.999Z</time></trkpt><trkpt lat="43.05140713985337" lon="13.151900546099577"><ele>794.0</ele><time>2026-04-24T17:13:18.999Z</time></trkpt><trkpt lat="43.05133111415631" lon="13.151761610507933"><ele>794.0</ele><time>2026-04-24T17:13:19.999Z</time></trkpt><trkpt lat="43.05121863209901" lon="13.151665400061685"><ele>794.0</ele><time>2026-04-24T17:13:20.999Z</time></trkpt><trkpt lat="43.051101585019396" lon="13.151600446239652"><ele>794.0</ele><time>2026-04-24T17:13:21.999Z</time></trkpt><trkpt lat="43.050982468065996" lon="13.151557591177117"><ele>794.0</ele><time>2026-04-24T17:13:22.999Z</time></trkpt><trkpt lat="43.05085491131607" lon="13.151549596072245"><ele>794.0</ele><time>2026-04-24T17:13:23.999Z</time></trkpt><trkpt lat="43.050732415654316" lon="13.151559010281746"><ele>794.0</ele><time>2026-04-24T17:13:24.999Z</time></trkpt><trkpt lat="43.05061221270898" lon="13.151577088439934"><ele>794.0</ele><time>2026-04-24T17:13:25.999Z</time></trkpt><trkpt lat="43.050498381498244" lon="13.151605699919337"><ele>792.8000000000001</ele><time>2026-04-24T17:13:26.999Z</time></trkpt><trkpt lat="43.05039433797527" lon="13.151605297077422"><ele>791.6</ele><time>2026-04-24T17:13:27.999Z</time></trkpt><trkpt lat="43.05029077648045" lon="13.151618373738392"><ele>790.4</ele><time>2026-04-24T17:13:28.999Z</time></trkpt><trkpt lat="43.05018903616693" lon="13.151552461571216"><ele>789.2</ele><time>2026-04-24T17:13:29.999Z</time></trkpt><trkpt lat="43.050094914770916" lon="13.151446457542237"><ele>788.0</ele><time>2026-04-24T17:13:30.999Z</time></trkpt><trkpt lat="43.05000757296334" lon="13.151340183069044"><ele>786.25</ele><time>2026-04-24T17:13:31.999Z</time></trkpt><trkpt lat="43.04994461756488" lon="13.151185350975553"><ele>784.5</ele><time>2026-04-24T17:13:32.999Z</time></trkpt><trkpt lat="43.04983576997708" lon="13.151086870553403"><ele>782.75</ele><time>2026-04-24T17:13:33.999Z</time></trkpt><trkpt lat="43.04971987953991" lon="13.151021035848387"><ele>781.0</ele><time>2026-04-24T17:13:34.999Z</time></trkpt><trkpt lat="43.049626325917316" lon="13.150947858714376"><ele>781.0</ele><time>2026-04-24T17:13:35.999Z</time></trkpt><trkpt lat="43.04954603586874" lon="13.150855183029247"><ele>781.0</ele><time>2026-04-24T17:13:36.999Z</time></trkpt><trkpt lat="43.04947340346987" lon="13.150746938832764"><ele>781.0</ele><time>2026-04-24T17:13:37.999Z</time></trkpt><trkpt lat="43.04944779519617" lon="13.150602116530415"><ele>781.0</ele><time>2026-04-24T17:13:38.999Z</time></trkpt><trkpt lat="43.04943885821275" lon="13.150436455149425"><ele>781.0</ele><time>2026-04-24T17:13:39.999Z</time></trkpt><trkpt lat="43.049429246237146" lon="13.150272233230488"><ele>781.75</ele><time>2026-04-24T17:13:40.999Z</time></trkpt><trkpt lat="43.04944071236806" lon="13.150103494048468"><ele>782.5</ele><time>2026-04-24T17:13:41.999Z</time></trkpt><trkpt lat="43.049466716385254" lon="13.149931056877074"><ele>783.25</ele><time>2026-04-24T17:13:42.999Z</time></trkpt><trkpt lat="43.049492515577484" lon="13.149751332371578"><ele>784.0</ele><time>2026-04-24T17:13:43.999Z</time></trkpt><trkpt lat="43.04951257005095" lon="13.149569402727735"><ele>784.75</ele><time>2026-04-24T17:13:44.999Z</time></trkpt><trkpt lat="43.04952643872697" lon="13.14939339986198"><ele>785.5</ele><time>2026-04-24T17:13:45.999Z</time></trkpt><trkpt lat="43.049520094072946" lon="13.14922818319488"><ele>786.25</ele><time>2026-04-24T17:13:46.999Z</time></trkpt><trkpt lat="43.04949394327873" lon="13.149059400832298"><ele>787.0</ele><time>2026-04-24T17:13:47.999Z</time></trkpt><trkpt lat="43.04945496621574" lon="13.148888552232915"><ele>788.0</ele><time>2026-04-24T17:13:48.999Z</time></trkpt><trkpt lat="43.04940047251732" lon="13.148735175696109"><ele>789.0</ele><time>2026-04-24T17:13:49.999Z</time></trkpt><trkpt lat="43.049326630385046" lon="13.14859255064711"><ele>790.0</ele><time>2026-04-24T17:13:50.999Z</time></trkpt><trkpt lat="43.04925560296803" lon="13.148446899641279"><ele>791.0</ele><time>2026-04-24T17:13:51.999Z</time></trkpt><trkpt lat="43.04918016908371" lon="13.148309885173525"><ele>792.0</ele><time>2026-04-24T17:13:52.999Z</time></trkpt><trkpt lat="43.049099150878895" lon="13.148174189918878"><ele>793.0</ele><time>2026-04-24T17:13:53.999Z</time></trkpt><trkpt lat="43.04901375331978" lon="13.148033782091888"><ele>794.0</ele><time>2026-04-24T17:13:54.999Z</time></trkpt><trkpt lat="43.04892233347132" lon="13.147894505928397"><ele>795.0</ele><time>2026-04-24T17:13:55.999Z</time></trkpt><trkpt lat="43.04883285940906" lon="13.147755327367717"><ele>795.0</ele><time>2026-04-24T17:13:56.999Z</time></trkpt><trkpt lat="43.04874391121203" lon="13.147617651247074"><ele>795.0</ele><time>2026-04-24T17:13:57.999Z</time></trkpt><trkpt lat="43.04866112807564" lon="13.147471723052822"><ele>795.0</ele><time>2026-04-24T17:13:58.999Z</time></trkpt><trkpt lat="43.04858888326449" lon="13.147327143244231"><ele>795.0</ele><time>2026-04-24T17:13:59.999Z</time></trkpt><trkpt lat="43.04852590126638" lon="13.147190745338984"><ele>795.6</ele><time>2026-04-24T17:14:00.999Z</time></trkpt><trkpt lat="43.04845832594965" lon="13.1470740294459"><ele>796.2</ele><time>2026-04-24T17:14:01.999Z</time></trkpt><trkpt lat="43.04837983127483" lon="13.146996108129583"><ele>796.8</ele><time>2026-04-24T17:14:02.999Z</time></trkpt><trkpt lat="43.04828413655912" lon="13.14695726240102"><ele>797.4</ele><time>2026-04-24T17:14:04Z</time></trkpt><trkpt lat="43.04818027808736" lon="13.146928368435663"><ele>798.0</ele><time>2026-04-24T17:14:05Z</time></trkpt><trkpt lat="43.04807082034043" lon="13.14689677381833"><ele>799.75</ele><time>2026-04-24T17:14:06Z</time></trkpt><trkpt lat="43.04795775764247" lon="13.146857910017173"><ele>801.5</ele><time>2026-04-24T17:14:07Z</time></trkpt><trkpt lat="43.04784034887512" lon="13.146816182977096"><ele>803.25</ele><time>2026-04-24T17:14:08Z</time></trkpt><trkpt lat="43.0477235661363" lon="13.146783377414248"><ele>805.0</ele><time>2026-04-24T17:14:09Z</time></trkpt><trkpt lat="43.04760473818741" lon="13.146766633504843"><ele>805.0</ele><time>2026-04-24T17:14:10Z</time></trkpt><trkpt lat="43.04748655424493" lon="13.14676094080695"><ele>805.0</ele><time>2026-04-24T17:14:11Z</time></trkpt><trkpt lat="43.047365999649806" lon="13.146768993579881"><ele>805.0</ele><time>2026-04-24T17:14:12Z</time></trkpt><trkpt lat="43.047244747007966" lon="13.146790265875762"><ele>805.0</ele><time>2026-04-24T17:14:13Z</time></trkpt><trkpt lat="43.04712966289713" lon="13.146840371635696"><ele>803.3333333333333</ele><time>2026-04-24T17:14:14Z</time></trkpt><trkpt lat="43.04703566951943" lon="13.146909942436677"><ele>801.6666666666666</ele><time>2026-04-24T17:14:15Z</time></trkpt><trkpt lat="43.046946544966325" lon="13.146966189017602"><ele>800.0</ele><time>2026-04-24T17:14:16Z</time></trkpt><trkpt lat="43.04687759306457" lon="13.147049890202828"><ele>798.3333333333333</ele><time>2026-04-24T17:14:17Z</time></trkpt><trkpt lat="43.04680157218487" lon="13.147077781782743"><ele>796.6666666666666</ele><time>2026-04-24T17:14:18Z</time></trkpt><trkpt lat="43.046732573016826" lon="13.147043847937947"><ele>795.0</ele><time>2026-04-24T17:14:19Z</time></trkpt><trkpt lat="43.04667900675424" lon="13.146964527792127"><ele>795.0</ele><time>2026-04-24T17:14:20Z</time></trkpt><trkpt lat="43.046699304017395" lon="13.146843107948596"><ele>795.0</ele><time>2026-04-24T17:14:21Z</time></trkpt><trkpt lat="43.04674841643721" lon="13.146703403056698"><ele>795.0</ele><time>2026-04-24T17:14:22Z</time></trkpt><trkpt lat="43.04678666584094" lon="13.14658085800851"><ele>795.0</ele><time>2026-04-24T17:14:23Z</time></trkpt><trkpt lat="43.046831993414855" lon="13.146435375566512"><ele>795.0</ele><time>2026-04-24T17:14:24Z</time></trkpt><trkpt lat="43.04688185805111" lon="13.146275724584482"><ele>792.75</ele><time>2026-04-24T17:14:25Z</time></trkpt><trkpt lat="43.046928866546146" lon="13.146095926787176"><ele>790.5</ele><time>2026-04-24T17:14:26Z</time></trkpt><trkpt lat="43.046971724031515" lon="13.145901928571222"><ele>788.25</ele><time>2026-04-24T17:14:27Z</time></trkpt><trkpt lat="43.047012156147616" lon="13.145707529899209"><ele>786.0</ele><time>2026-04-24T17:14:28Z</time></trkpt><trkpt lat="43.04704802836856" lon="13.145519659000078"><ele>784.25</ele><time>2026-04-24T17:14:29Z</time></trkpt><trkpt lat="43.04708183953355" lon="13.14533919268971"><ele>782.5</ele><time>2026-04-24T17:14:30Z</time></trkpt><trkpt lat="43.04711867100594" lon="13.145170469005123"><ele>780.75</ele><time>2026-04-24T17:14:31Z</time></trkpt><trkpt lat="43.04715566222839" lon="13.145015258366556"><ele>779.0</ele><time>2026-04-24T17:14:32Z</time></trkpt><trkpt lat="43.047192931193706" lon="13.144902711517178"><ele>777.75</ele><time>2026-04-24T17:14:33Z</time></trkpt><trkpt lat="43.047228103459446" lon="13.144803606007548"><ele>776.5</ele><time>2026-04-24T17:14:34Z</time></trkpt><trkpt lat="43.04736298098271" lon="13.144768524667988"><ele>775.25</ele><time>2026-04-24T17:14:35Z</time></trkpt><trkpt lat="43.047449973867714" lon="13.14466230767322"><ele>774.0</ele><time>2026-04-24T17:14:36Z</time></trkpt><trkpt lat="43.047542426594894" lon="13.14454909611075"><ele>778.5</ele><time>2026-04-24T17:14:37Z</time></trkpt><trkpt lat="43.04762253057969" lon="13.14441816944602"><ele>783.0</ele><time>2026-04-24T17:14:38Z</time></trkpt><trkpt lat="43.04768971904428" lon="13.14427323419193"><ele>787.5</ele><time>2026-04-24T17:14:39Z</time></trkpt><trkpt lat="43.047744032923575" lon="13.1441126550325"><ele>792.0</ele><time>2026-04-24T17:14:40Z</time></trkpt><trkpt lat="43.0477834774196" lon="13.143941403133311"><ele>792.0</ele><time>2026-04-24T17:14:41Z</time></trkpt><trkpt lat="43.047806952996304" lon="13.143768045739765"><ele>792.0</ele><time>2026-04-24T17:14:42Z</time></trkpt><trkpt lat="43.04781980255278" lon="13.143602233488616"><ele>792.0</ele><time>2026-04-24T17:14:43Z</time></trkpt><trkpt lat="43.04783080400737" lon="13.143455557514532"><ele>792.0</ele><time>2026-04-24T17:14:44Z</time></trkpt><trkpt lat="43.04784262801597" lon="13.143309761037571"><ele>793.4000000000001</ele><time>2026-04-24T17:14:45Z</time></trkpt><trkpt lat="43.04785727281072" lon="13.143180455077918"><ele>794.8000000000001</ele><time>2026-04-24T17:14:46Z</time></trkpt><trkpt lat="43.04789092064916" lon="13.143056867025221"><ele>796.2</ele><time>2026-04-24T17:14:47Z</time></trkpt><trkpt lat="43.04793266173312" lon="13.1429364917131"><ele>797.6</ele><time>2026-04-24T17:14:48Z</time></trkpt><trkpt lat="43.047978073261746" lon="13.142830744798117"><ele>799.0</ele><time>2026-04-24T17:14:49Z</time></trkpt><trkpt lat="43.048018536034775" lon="13.142740861244874"><ele>799.0</ele><time>2026-04-24T17:14:50Z</time></trkpt><trkpt lat="43.048079219498554" lon="13.14261082148792"><ele>799.0</ele><time>2026-04-24T17:14:52Z</time></trkpt><trkpt lat="43.04812964086651" lon="13.142520690586194"><ele>799.0</ele><time>2026-04-24T17:14:54Z</time></trkpt><trkpt lat="43.048146847842084" lon="13.142330677259343"><ele>799.0</ele><time>2026-04-24T17:14:56Z</time></trkpt><trkpt lat="43.04820553830998" lon="13.142278372306677"><ele>799.0</ele><time>2026-04-24T17:14:57Z</time></trkpt><trkpt lat="43.04833173058774" lon="13.142281777962628"><ele>802.2</ele><time>2026-04-24T17:14:59Z</time></trkpt><trkpt lat="43.04823969106658" lon="13.142112186238979"><ele>805.4000000000001</ele><time>2026-04-24T17:15:00Z</time></trkpt><trkpt lat="43.048196737720914" lon="13.142008097646213"><ele>808.6</ele><time>2026-04-24T17:15:04Z</time></trkpt><trkpt lat="43.04815147258224" lon="13.141920313909779"><ele>811.8</ele><time>2026-04-24T17:15:07Z</time></trkpt><trkpt lat="43.048090112189065" lon="13.14182381254466"><ele>815.0</ele><time>2026-04-24T17:15:09.999Z</time></trkpt><trkpt lat="43.04805709814985" lon="13.14172947043029"><ele>815.0000000000001</ele><time>2026-04-24T17:15:11.999Z</time></trkpt><trkpt lat="43.048004038523075" lon="13.141629638125435"><ele>815.0</ele><time>2026-04-24T17:15:14.999Z</time></trkpt><trkpt lat="43.047949789921915" lon="13.14153724573532"><ele>815.0</ele><time>2026-04-24T17:15:17.999Z</time></trkpt><trkpt lat="43.04788958819133" lon="13.141463659239584"><ele>815.0</ele><time>2026-04-24T17:15:19.999Z</time></trkpt><trkpt lat="43.047825850133" lon="13.141418648182022"><ele>815.0000000000001</ele><time>2026-04-24T17:15:21.999Z</time></trkpt><trkpt lat="43.04773560381207" lon="13.141368888385793"><ele>815.0</ele><time>2026-04-24T17:15:51.999Z</time></trkpt><trkpt lat="43.0476685329624" lon="13.141378471428634"><ele>815.8</ele><time>2026-04-24T17:15:53.999Z</time></trkpt><trkpt lat="43.04759227039604" lon="13.14138549619618"><ele>816.6</ele><time>2026-04-24T17:15:56.999Z</time></trkpt><trkpt lat="43.047509917758696" lon="13.141420672725454"><ele>817.4000000000001</ele><time>2026-04-24T17:16:00.999Z</time></trkpt><trkpt lat="43.047419756311655" lon="13.141441317105151"><ele>818.2</ele><time>2026-04-24T17:16:03.999Z</time></trkpt><trkpt lat="43.047344547762656" lon="13.141358783196772"><ele>819.0</ele><time>2026-04-24T17:16:06.999Z</time></trkpt><trkpt lat="43.047282511320205" lon="13.140864978841167"><ele>819.0</ele><time>2026-04-24T17:16:08.999Z</time></trkpt><trkpt lat="43.0472787415635" lon="13.140746920785483"><ele>819.0</ele><time>2026-04-24T17:16:11Z</time></trkpt><trkpt lat="43.04727163079342" lon="13.140612671064728"><ele>819.0</ele><time>2026-04-24T17:16:13Z</time></trkpt><trkpt lat="43.04725887401434" lon="13.140503317242272"><ele>819.0</ele><time>2026-04-24T17:16:15Z</time></trkpt><trkpt lat="43.047264641723025" lon="13.140416052940838"><ele>819.0</ele><time>2026-04-24T17:16:17Z</time></trkpt><trkpt lat="43.04729129539367" lon="13.14029646388468"><ele>819.0</ele><time>2026-04-24T17:16:19Z</time></trkpt><trkpt lat="43.04730474970373" lon="13.140184510380891"><ele>821.6</ele><time>2026-04-24T17:16:21Z</time></trkpt><trkpt lat="43.047244511111764" lon="13.140086306568763"><ele>824.2</ele><time>2026-04-24T17:16:23Z</time></trkpt><trkpt lat="43.04716991587998" lon="13.139993657872035"><ele>826.8000000000001</ele><time>2026-04-24T17:16:25Z</time></trkpt><trkpt lat="43.047150928904905" lon="13.139884639262505"><ele>829.4000000000001</ele><time>2026-04-24T17:16:27Z</time></trkpt><trkpt lat="43.04713340676727" lon="13.139769571111273"><ele>832.0</ele><time>2026-04-24T17:16:29Z</time></trkpt><trkpt lat="43.04711568105806" lon="13.139641009983208"><ele>834.1666666666666</ele><time>2026-04-24T17:16:31Z</time></trkpt><trkpt lat="43.04708301088178" lon="13.139548060647574"><ele>836.3333333333333</ele><time>2026-04-24T17:16:34Z</time></trkpt><trkpt lat="43.04705154671023" lon="13.139414605732753"><ele>838.5</ele><time>2026-04-24T17:16:36Z</time></trkpt><trkpt lat="43.04702807290238" lon="13.139331397477445"><ele>840.6666666666667</ele><time>2026-04-24T17:16:37Z</time></trkpt><trkpt lat="43.04699641177934" lon="13.139229435145833"><ele>842.8333333333334</ele><time>2026-04-24T17:16:38Z</time></trkpt><trkpt lat="43.04694814083674" lon="13.139091948779182"><ele>845.0</ele><time>2026-04-24T17:16:40Z</time></trkpt><trkpt lat="43.046913978443705" lon="13.139004549446224"><ele>845.0</ele><time>2026-04-24T17:16:42Z</time></trkpt><trkpt lat="43.04698048349415" lon="13.139086278260097"><ele>845.0</ele><time>2026-04-24T17:17:14.999Z</time></trkpt><trkpt lat="43.04702773758012" lon="13.139231582152126"><ele>845.0</ele><time>2026-04-24T17:17:16.999Z</time></trkpt><trkpt lat="43.04706705171939" lon="13.139355981444325"><ele>845.0</ele><time>2026-04-24T17:17:18.999Z</time></trkpt><trkpt lat="43.04709894529852" lon="13.13950395618152"><ele>845.0</ele><time>2026-04-24T17:17:20.999Z</time></trkpt><trkpt lat="43.04713354647165" lon="13.13962321633481"><ele>845.0000000000001</ele><time>2026-04-24T17:17:22.999Z</time></trkpt><trkpt lat="43.04713781052192" lon="13.139729905233809"><ele>845.0</ele><time>2026-04-24T17:17:24.999Z</time></trkpt><trkpt lat="43.047153890008836" lon="13.139835866293565"><ele>845.0</ele><time>2026-04-24T17:17:26.999Z</time></trkpt><trkpt lat="43.04717924176269" lon="13.139931643029382"><ele>845.0</ele><time>2026-04-24T17:17:28.999Z</time></trkpt><trkpt lat="43.04723909216225" lon="13.140035403343235"><ele>845.0000000000001</ele><time>2026-04-24T17:17:30.999Z</time></trkpt><trkpt lat="43.04732555633554" lon="13.140145078529866"><ele>845.0</ele><time>2026-04-24T17:17:32.999Z</time></trkpt><trkpt lat="43.04730771067088" lon="13.14026517179234"><ele>842.8333333333334</ele><time>2026-04-24T17:17:34.999Z</time></trkpt><trkpt lat="43.047269449371775" lon="13.140383164317429"><ele>840.6666666666667</ele><time>2026-04-24T17:17:36.999Z</time></trkpt><trkpt lat="43.04727109556915" lon="13.140508709674089"><ele>838.5</ele><time>2026-04-24T17:17:38.999Z</time></trkpt><trkpt lat="43.04728429484276" lon="13.140618576334179"><ele>836.3333333333333</ele><time>2026-04-24T17:17:40.999Z</time></trkpt><trkpt lat="43.047271540105456" lon="13.140729543934745"><ele>834.1666666666666</ele><time>2026-04-24T17:17:42.999Z</time></trkpt><trkpt lat="43.04727802458613" lon="13.140862627440296"><ele>832.0</ele><time>2026-04-24T17:17:44.999Z</time></trkpt><trkpt lat="43.0472841917902" lon="13.140980809254145"><ele>832.6666666666666</ele><time>2026-04-24T17:17:47.999Z</time></trkpt><trkpt lat="43.047355621920055" lon="13.141051045837179"><ele>833.3333333333333</ele><time>2026-04-24T17:17:49.999Z</time></trkpt><trkpt lat="43.047420561652274" lon="13.141103408950684"><ele>834.0</ele><time>2026-04-24T17:17:51.999Z</time></trkpt><trkpt lat="43.04749212424094" lon="13.141131915547117"><ele>834.6666666666667</ele><time>2026-04-24T17:17:53.999Z</time></trkpt><trkpt lat="43.047558618654854" lon="13.141192133608095"><ele>835.3333333333334</ele><time>2026-04-24T17:17:55.999Z</time></trkpt><trkpt lat="43.04762263194702" lon="13.14123769791036"><ele>836.0</ele><time>2026-04-24T17:17:57.999Z</time></trkpt><trkpt lat="43.04769818705054" lon="13.141316055477462"><ele>836.0000000000001</ele><time>2026-04-24T17:17:59.999Z</time></trkpt><trkpt lat="43.04775692732949" lon="13.141374258798722"><ele>836.0</ele><time>2026-04-24T17:18:03.999Z</time></trkpt><trkpt lat="43.0478191862312" lon="13.1414185211341"><ele>836.0</ele><time>2026-04-24T17:19:36.999Z</time></trkpt><trkpt lat="43.04789333455252" lon="13.141450271672108"><ele>836.0</ele><time>2026-04-24T17:19:38.999Z</time></trkpt><trkpt lat="43.04795524318422" lon="13.141543952321019"><ele>836.0000000000001</ele><time>2026-04-24T17:19:40.999Z</time></trkpt><trkpt lat="43.04800101526914" lon="13.141646180400866"><ele>836.0</ele><time>2026-04-24T17:19:42.999Z</time></trkpt><trkpt lat="43.04805745102307" lon="13.14178963730432"><ele>831.8</ele><time>2026-04-24T17:19:44.999Z</time></trkpt><trkpt lat="43.048107226133425" lon="13.141910935948605"><ele>827.5999999999999</ele><time>2026-04-24T17:19:46.999Z</time></trkpt><trkpt lat="43.048166191968896" lon="13.142034748446848"><ele>823.4</ele><time>2026-04-24T17:19:48.999Z</time></trkpt><trkpt lat="43.04820948952016" lon="13.142163074765993"><ele>819.2</ele><time>2026-04-24T17:19:50.999Z</time></trkpt><trkpt lat="43.048189734263225" lon="13.142251690176481"><ele>815.0</ele><time>2026-04-24T17:19:52.999Z</time></trkpt><trkpt lat="43.04810552932097" lon="13.142344809874979"><ele>812.7142857142857</ele><time>2026-04-24T17:19:54.999Z</time></trkpt><trkpt lat="43.04806012481761" lon="13.142426076821748"><ele>810.4285714285713</ele><time>2026-04-24T17:19:56.999Z</time></trkpt><trkpt lat="43.04807530028588" lon="13.142513831633332"><ele>808.1428571428571</ele><time>2026-04-24T17:21:48.999Z</time></trkpt><trkpt lat="43.04804465045319" lon="13.142610343006588"><ele>805.8571428571429</ele><time>2026-04-24T17:21:50.999Z</time></trkpt><trkpt lat="43.048001467942996" lon="13.142681292894187"><ele>803.5714285714286</ele><time>2026-04-24T17:21:51.999Z</time></trkpt><trkpt lat="43.047958158312504" lon="13.142758423321961"><ele>801.2857142857143</ele><time>2026-04-24T17:21:52.999Z</time></trkpt><trkpt lat="43.0479172561945" lon="13.142851909505808"><ele>799.0</ele><time>2026-04-24T17:21:53.999Z</time></trkpt><trkpt lat="43.04788313984365" lon="13.142950006782389"><ele>799.0</ele><time>2026-04-24T17:21:54.999Z</time></trkpt><trkpt lat="43.04784750871891" lon="13.143066252709833"><ele>799.0</ele><time>2026-04-24T17:21:55.999Z</time></trkpt><trkpt lat="43.047801127592265" lon="13.143200307458052"><ele>799.0</ele><time>2026-04-24T17:21:56.999Z</time></trkpt><trkpt lat="43.04779566214295" lon="13.143327478917676"><ele>799.0</ele><time>2026-04-24T17:21:57.999Z</time></trkpt><trkpt lat="43.04779292879174" lon="13.143468923620514"><ele>799.0</ele><time>2026-04-24T17:21:58.999Z</time></trkpt><trkpt lat="43.04779435911189" lon="13.143607072602201"><ele>798.1666666666666</ele><time>2026-04-24T17:21:59.999Z</time></trkpt><trkpt lat="43.0477701726006" lon="13.143731674647197"><ele>797.3333333333333</ele><time>2026-04-24T17:22:00.999Z</time></trkpt><trkpt lat="43.047752604859" lon="13.143854107734915"><ele>796.5</ele><time>2026-04-24T17:22:01.999Z</time></trkpt><trkpt lat="43.04773077488195" lon="13.143967114158691"><ele>795.6666666666667</ele><time>2026-04-24T17:22:02.999Z</time></trkpt><trkpt lat="43.04771449309727" lon="13.144079334275517"><ele>794.8333333333334</ele><time>2026-04-24T17:22:03.999Z</time></trkpt><trkpt lat="43.04767678499434" lon="13.144185812389251"><ele>794.0</ele><time>2026-04-24T17:22:04.999Z</time></trkpt><trkpt lat="43.04763573397891" lon="13.144301144349066"><ele>794.0</ele><time>2026-04-24T17:22:05.999Z</time></trkpt><trkpt lat="43.04757339838233" lon="13.144428276374438"><ele>794.0</ele><time>2026-04-24T17:22:06.999Z</time></trkpt><trkpt lat="43.047500575440324" lon="13.1445504945744"><ele>794.0</ele><time>2026-04-24T17:22:07.999Z</time></trkpt><trkpt lat="43.04742678360948" lon="13.144649376199432"><ele>794.0</ele><time>2026-04-24T17:22:08.999Z</time></trkpt><trkpt lat="43.047360914926166" lon="13.144728957039181"><ele>794.0</ele><time>2026-04-24T17:22:09.999Z</time></trkpt><trkpt lat="43.047301719630376" lon="13.144782214831446"><ele>790.0</ele><time>2026-04-24T17:22:10.999Z</time></trkpt><trkpt lat="43.04719322745557" lon="13.144783568049101"><ele>786.0</ele><time>2026-04-24T17:22:12.999Z</time></trkpt><trkpt lat="43.047153306680734" lon="13.144687631946576"><ele>782.0</ele><time>2026-04-24T17:22:13.999Z</time></trkpt><trkpt lat="43.04714980297694" lon="13.144577329691574"><ele>778.0</ele><time>2026-04-24T17:22:14.999Z</time></trkpt><trkpt lat="43.04717240062481" lon="13.144449881907146"><ele>774.0</ele><time>2026-04-24T17:22:15.999Z</time></trkpt><trkpt lat="43.047211967084436" lon="13.144310493830192"><ele>774.0</ele><time>2026-04-24T17:22:16.999Z</time></trkpt><trkpt lat="43.04725681434803" lon="13.144170200857259"><ele>774.0</ele><time>2026-04-24T17:22:17.999Z</time></trkpt><trkpt lat="43.04729687323832" lon="13.144012395020889"><ele>774.0</ele><time>2026-04-24T17:22:18.999Z</time></trkpt><trkpt lat="43.047315952431916" lon="13.143842434746519"><ele>774.0</ele><time>2026-04-24T17:22:19.999Z</time></trkpt><trkpt lat="43.047301033989726" lon="13.143675669946626"><ele>775.0</ele><time>2026-04-24T17:22:20.999Z</time></trkpt><trkpt lat="43.047250492159534" lon="13.143522332144341"><ele>776.0</ele><time>2026-04-24T17:22:21.999Z</time></trkpt><trkpt lat="43.04716428694526" lon="13.14339058020195"><ele>777.0</ele><time>2026-04-24T17:22:22.999Z</time></trkpt><trkpt lat="43.047049627197026" lon="13.14329406088798"><ele>778.0</ele><time>2026-04-24T17:22:23.999Z</time></trkpt><trkpt lat="43.04691660233173" lon="13.143225538373335"><ele>778.75</ele><time>2026-04-24T17:22:24.999Z</time></trkpt><trkpt lat="43.046782111042745" lon="13.143166313000053"><ele>779.5</ele><time>2026-04-24T17:22:25.999Z</time></trkpt><trkpt lat="43.046643710053836" lon="13.143094682187042"><ele>780.25</ele><time>2026-04-24T17:22:26.999Z</time></trkpt><trkpt lat="43.046506781474115" lon="13.143011976012763"><ele>781.0</ele><time>2026-04-24T17:22:28Z</time></trkpt><trkpt lat="43.04638292521145" lon="13.142928694820549"><ele>781.0</ele><time>2026-04-24T17:22:29Z</time></trkpt><trkpt lat="43.04626034806309" lon="13.142847116403386"><ele>781.0</ele><time>2026-04-24T17:22:30Z</time></trkpt><trkpt lat="43.04613259559338" lon="13.14276947770506"><ele>781.0</ele><time>2026-04-24T17:22:31Z</time></trkpt><trkpt lat="43.04599852749058" lon="13.142707259661488"><ele>781.0</ele><time>2026-04-24T17:22:32Z</time></trkpt><trkpt lat="43.04585301251786" lon="13.1426914799178"><ele>781.6666666666666</ele><time>2026-04-24T17:22:33Z</time></trkpt><trkpt lat="43.045701231934906" lon="13.142713187652493"><ele>782.3333333333333</ele><time>2026-04-24T17:22:34Z</time></trkpt><trkpt lat="43.045552891805585" lon="13.142755384325776"><ele>783.0</ele><time>2026-04-24T17:22:35Z</time></trkpt><trkpt lat="43.04540899722047" lon="13.142802907686129"><ele>783.0</ele><time>2026-04-24T17:22:36Z</time></trkpt><trkpt lat="43.04526747063847" lon="13.142867079431912"><ele>783.0</ele><time>2026-04-24T17:22:37Z</time></trkpt><trkpt lat="43.04513939313314" lon="13.142954227955991"><ele>783.0</ele><time>2026-04-24T17:22:38Z</time></trkpt><trkpt lat="43.045018484616456" lon="13.143066608314218"><ele>783.0</ele><time>2026-04-24T17:22:39Z</time></trkpt><trkpt lat="43.044894513694594" lon="13.143193199374194"><ele>777.3333333333334</ele><time>2026-04-24T17:22:40Z</time></trkpt><trkpt lat="43.04476626505982" lon="13.143325566292011"><ele>771.6666666666667</ele><time>2026-04-24T17:22:41Z</time></trkpt><trkpt lat="43.04464467068381" lon="13.143449696867995"><ele>766.0</ele><time>2026-04-24T17:22:42Z</time></trkpt><trkpt lat="43.04452133255304" lon="13.143571674303269"><ele>766.0</ele><time>2026-04-24T17:22:43Z</time></trkpt><trkpt lat="43.044397443658035" lon="13.14369064819474"><ele>766.0</ele><time>2026-04-24T17:22:44Z</time></trkpt><trkpt lat="43.044278088113884" lon="13.143803886015258"><ele>766.0</ele><time>2026-04-24T17:22:45Z</time></trkpt><trkpt lat="43.04416893667179" lon="13.143913313186573"><ele>766.0</ele><time>2026-04-24T17:22:46Z</time></trkpt><trkpt lat="43.04406486948941" lon="13.144019672278258"><ele>763.0</ele><time>2026-04-24T17:22:47Z</time></trkpt><trkpt lat="43.043956346775374" lon="13.144122178663926"><ele>760.0</ele><time>2026-04-24T17:22:48Z</time></trkpt><trkpt lat="43.04384159519207" lon="13.144205084109487"><ele>757.0</ele><time>2026-04-24T17:22:49Z</time></trkpt><trkpt lat="43.043713278252724" lon="13.14424865672195"><ele>754.0</ele><time>2026-04-24T17:22:50Z</time></trkpt><trkpt lat="43.04357315725135" lon="13.144246568907478"><ele>754.0</ele><time>2026-04-24T17:22:51Z</time></trkpt><trkpt lat="43.043428329267854" lon="13.144220888035418"><ele>754.0</ele><time>2026-04-24T17:22:52Z</time></trkpt><trkpt lat="43.04329453522349" lon="13.144190314788395"><ele>754.0</ele><time>2026-04-24T17:22:53Z</time></trkpt><trkpt lat="43.04317177637583" lon="13.14416565729073"><ele>754.0</ele><time>2026-04-24T17:22:54Z</time></trkpt><trkpt lat="43.04307049164529" lon="13.144152082979314"><ele>752.1666666666667</ele><time>2026-04-24T17:22:55Z</time></trkpt><trkpt lat="43.0429855963315" lon="13.144145795911543"><ele>750.3333333333334</ele><time>2026-04-24T17:22:56Z</time></trkpt><trkpt lat="43.04290725561759" lon="13.144158136936094"><ele>748.5</ele><time>2026-04-24T17:22:57Z</time></trkpt><trkpt lat="43.042839257390206" lon="13.144197712428674"><ele>746.6666666666666</ele><time>2026-04-24T17:22:58Z</time></trkpt><trkpt lat="43.042806517752446" lon="13.144297374510653"><ele>744.8333333333333</ele><time>2026-04-24T17:22:59Z</time></trkpt><trkpt lat="43.042813362690026" lon="13.144407815612887"><ele>743.0</ele><time>2026-04-24T17:23:00Z</time></trkpt><trkpt lat="43.042871355165914" lon="13.144508374415727"><ele>743.0</ele><time>2026-04-24T17:23:01Z</time></trkpt><trkpt lat="43.04295524922612" lon="13.144599746124909"><ele>743.0</ele><time>2026-04-24T17:23:02Z</time></trkpt><trkpt lat="43.04306075412247" lon="13.144664361670317"><ele>743.0</ele><time>2026-04-24T17:23:03Z</time></trkpt><trkpt lat="43.04317696717201" lon="13.144707898159536"><ele>743.0</ele><time>2026-04-24T17:23:04Z</time></trkpt><trkpt lat="43.04329868239996" lon="13.144732908743286"><ele>742.4</ele><time>2026-04-24T17:23:05Z</time></trkpt><trkpt lat="43.04340881761548" lon="13.144778856560267"><ele>741.8</ele><time>2026-04-24T17:23:06Z</time></trkpt><trkpt lat="43.0435138996447" lon="13.144806754802099"><ele>741.2</ele><time>2026-04-24T17:23:07Z</time></trkpt><trkpt lat="43.04359497217215" lon="13.144841180734806"><ele>740.6</ele><time>2026-04-24T17:23:08Z</time></trkpt><trkpt lat="43.043663613244426" lon="13.144884074507264"><ele>740.0</ele><time>2026-04-24T17:23:09Z</time></trkpt><trkpt lat="43.04368427361113" lon="13.144990604596478"><ele>740.0</ele><time>2026-04-24T17:23:10Z</time></trkpt><trkpt lat="43.04364949471321" lon="13.145089119582485"><ele>740.0</ele><time>2026-04-24T17:23:11Z</time></trkpt><trkpt lat="43.043565542699625" lon="13.145161189260836"><ele>740.0</ele><time>2026-04-24T17:23:12Z</time></trkpt><trkpt lat="43.04347094034725" lon="13.145194248221095"><ele>740.0</ele><time>2026-04-24T17:23:13Z</time></trkpt><trkpt lat="43.0433735390768" lon="13.14524456017616"><ele>740.0</ele><time>2026-04-24T17:23:14Z</time></trkpt><trkpt lat="43.04326026168143" lon="13.145290096445523"><ele>738.25</ele><time>2026-04-24T17:23:15Z</time></trkpt><trkpt lat="43.0431391863326" lon="13.145342377686621"><ele>736.5</ele><time>2026-04-24T17:23:16Z</time></trkpt><trkpt lat="43.04302176195375" lon="13.145391149280101"><ele>734.75</ele><time>2026-04-24T17:23:17Z</time></trkpt><trkpt lat="43.04290781078987" lon="13.145437922931704"><ele>733.0</ele><time>2026-04-24T17:23:18Z</time></trkpt><trkpt lat="43.04278931346018" lon="13.14548330549485"><ele>733.0</ele><time>2026-04-24T17:23:19Z</time></trkpt><trkpt lat="43.042658058382266" lon="13.145513247226665"><ele>733.0</ele><time>2026-04-24T17:23:20Z</time></trkpt><trkpt lat="43.04252457551613" lon="13.145497966535698"><ele>733.0</ele><time>2026-04-24T17:23:21Z</time></trkpt><trkpt lat="43.04239812608227" lon="13.145433319669186"><ele>733.0</ele><time>2026-04-24T17:23:22Z</time></trkpt><trkpt lat="43.0422815167138" lon="13.145323167925845"><ele>729.75</ele><time>2026-04-24T17:23:23Z</time></trkpt><trkpt lat="43.04217740136577" lon="13.14517948185835"><ele>726.5</ele><time>2026-04-24T17:23:24Z</time></trkpt><trkpt lat="43.0420923779796" lon="13.145020822493027"><ele>723.25</ele><time>2026-04-24T17:23:25Z</time></trkpt><trkpt lat="43.04201208801436" lon="13.14484203408702"><ele>720.0</ele><time>2026-04-24T17:23:26Z</time></trkpt><trkpt lat="43.04193213013414" lon="13.144659023573869"><ele>720.0</ele><time>2026-04-24T17:23:27Z</time></trkpt><trkpt lat="43.04185429116093" lon="13.144448372536699"><ele>720.0</ele><time>2026-04-24T17:23:28Z</time></trkpt><trkpt lat="43.04177757985748" lon="13.144256957666135"><ele>720.0</ele><time>2026-04-24T17:23:29Z</time></trkpt><trkpt lat="43.04169994681515" lon="13.144076077302605"><ele>720.25</ele><time>2026-04-24T17:23:30Z</time></trkpt><trkpt lat="43.0416291332105" lon="13.14391264406607"><ele>720.5</ele><time>2026-04-24T17:23:31Z</time></trkpt><trkpt lat="43.04156396291887" lon="13.143761296506076"><ele>720.75</ele><time>2026-04-24T17:23:32Z</time></trkpt><trkpt lat="43.041503113480346" lon="13.143632498416409"><ele>721.0</ele><time>2026-04-24T17:23:33Z</time></trkpt><trkpt lat="43.041425790706505" lon="13.143529019049264"><ele>721.0</ele><time>2026-04-24T17:23:34Z</time></trkpt><trkpt lat="43.041320598919505" lon="13.143466332104817"><ele>721.0</ele><time>2026-04-24T17:23:35Z</time></trkpt><trkpt lat="43.04119410847034" lon="13.143456143728583"><ele>721.0</ele><time>2026-04-24T17:23:36Z</time></trkpt><trkpt lat="43.04105753733682" lon="13.143495691330784"><ele>721.0</ele><time>2026-04-24T17:23:37Z</time></trkpt><trkpt lat="43.040921167304475" lon="13.14356578371021"><ele>722.6666666666667</ele><time>2026-04-24T17:23:38Z</time></trkpt><trkpt lat="43.04078431964898" lon="13.143649983036589"><ele>724.3333333333334</ele><time>2026-04-24T17:23:39Z</time></trkpt><trkpt lat="43.04063862028929" lon="13.143726341446987"><ele>726.0</ele><time>2026-04-24T17:23:40Z</time></trkpt><trkpt lat="43.04048705592608" lon="13.143800765273946"><ele>726.0</ele><time>2026-04-24T17:23:40.999Z</time></trkpt><trkpt lat="43.040344214826476" lon="13.143867066692735"><ele>726.0</ele><time>2026-04-24T17:23:41.999Z</time></trkpt><trkpt lat="43.040209058260096" lon="13.143934029592927"><ele>726.0</ele><time>2026-04-24T17:23:42.999Z</time></trkpt><trkpt lat="43.04008458196715" lon="13.143997786229471"><ele>726.0</ele><time>2026-04-24T17:23:43.999Z</time></trkpt><trkpt lat="43.03997462689879" lon="13.144052863713798"><ele>726.4</ele><time>2026-04-24T17:23:44.999Z</time></trkpt><trkpt lat="43.03988075198823" lon="13.144114701095088"><ele>726.8</ele><time>2026-04-24T17:23:45.999Z</time></trkpt><trkpt lat="43.03980773985656" lon="13.144199797759672"><ele>727.1999999999999</ele><time>2026-04-24T17:23:46.999Z</time></trkpt><trkpt lat="43.03976027968628" lon="13.144302219092332"><ele>727.5999999999999</ele><time>2026-04-24T17:23:47.999Z</time></trkpt><trkpt lat="43.039771684441156" lon="13.144438576341404"><ele>728.0</ele><time>2026-04-24T17:23:48.999Z</time></trkpt><trkpt lat="43.03983451983169" lon="13.144578037965848"><ele>728.0</ele><time>2026-04-24T17:23:49.999Z</time></trkpt><trkpt lat="43.039914010716025" lon="13.144707800113153"><ele>728.0</ele><time>2026-04-24T17:23:50.999Z</time></trkpt><trkpt lat="43.03997298699797" lon="13.144822211120825"><ele>728.0</ele><time>2026-04-24T17:23:51.999Z</time></trkpt><trkpt lat="43.04003300175835" lon="13.144930184603783"><ele>728.0</ele><time>2026-04-24T17:23:52.999Z</time></trkpt><trkpt lat="43.04006955647099" lon="13.145075898827548"><ele>728.0</ele><time>2026-04-24T17:23:53.999Z</time></trkpt><trkpt lat="43.040073682916464" lon="13.145221798212706"><ele>729.5</ele><time>2026-04-24T17:23:54.999Z</time></trkpt><trkpt lat="43.040045158676094" lon="13.145366609146002"><ele>731.0</ele><time>2026-04-24T17:23:55.999Z</time></trkpt><trkpt lat="43.0399869757089" lon="13.145502855719137"><ele>732.5</ele><time>2026-04-24T17:23:56.999Z</time></trkpt><trkpt lat="43.03991650686061" lon="13.145627140797494"><ele>734.0</ele><time>2026-04-24T17:23:57.999Z</time></trkpt><trkpt lat="43.03985076135663" lon="13.14576080925132"><ele>734.0</ele><time>2026-04-24T17:23:58.999Z</time></trkpt><trkpt lat="43.03979241992833" lon="13.145876751999948"><ele>734.0</ele><time>2026-04-24T17:23:59.999Z</time></trkpt><trkpt lat="43.039746420556156" lon="13.145978958455036"><ele>734.0</ele><time>2026-04-24T17:24:00.999Z</time></trkpt><trkpt lat="43.03972545248137" lon="13.146074252114664"><ele>734.0</ele><time>2026-04-24T17:24:01.999Z</time></trkpt><trkpt lat="43.039729714100886" lon="13.146162070065085"><ele>734.0</ele><time>2026-04-24T17:24:02.999Z</time></trkpt><trkpt lat="43.03977845967896" lon="13.146284673767434"><ele>734.0</ele><time>2026-04-24T17:24:04.999Z</time></trkpt><trkpt lat="43.039833307463006" lon="13.146343423571432"><ele>734.0</ele><time>2026-04-24T17:24:07.999Z</time></trkpt><trkpt lat="43.03979059047626" lon="13.146415032389204"><ele>734.0</ele><time>2026-04-24T17:24:11.999Z</time></trkpt><trkpt lat="43.0397435322871" lon="13.146537446616604"><ele>734.0</ele><time>2026-04-24T17:24:17.999Z</time></trkpt><trkpt lat="43.039655907201414" lon="13.14668121508249"><ele>734.0</ele><time>2026-04-24T17:24:19.999Z</time></trkpt><trkpt lat="43.03960782152564" lon="13.146779764252997"><ele>734.0</ele><time>2026-04-24T17:24:20.999Z</time></trkpt><trkpt lat="43.03956000207818" lon="13.146879671112977"><ele>733.3333333333333</ele><time>2026-04-24T17:24:21.999Z</time></trkpt><trkpt lat="43.03951948307562" lon="13.146963807137348"><ele>732.6666666666666</ele><time>2026-04-24T17:24:22.999Z</time></trkpt><trkpt lat="43.039481742550485" lon="13.147041557535012"><ele>732.0</ele><time>2026-04-24T17:24:23.999Z</time></trkpt><trkpt lat="43.039442160569756" lon="13.147123101624725"><ele>731.3333333333334</ele><time>2026-04-24T17:24:24.999Z</time></trkpt><trkpt lat="43.0394029135336" lon="13.147203955638206"><ele>730.6666666666667</ele><time>2026-04-24T17:24:25.999Z</time></trkpt><trkpt lat="43.03935413731737" lon="13.147299102798517"><ele>730.0</ele><time>2026-04-24T17:24:26.999Z</time></trkpt><trkpt lat="43.03929717296986" lon="13.147390869471065"><ele>731.75</ele><time>2026-04-24T17:24:27.999Z</time></trkpt><trkpt lat="43.0392177920326" lon="13.147481525693138"><ele>733.5</ele><time>2026-04-24T17:24:28.999Z</time></trkpt><trkpt lat="43.03911023799011" lon="13.147572374316518"><ele>735.25</ele><time>2026-04-24T17:24:29.999Z</time></trkpt><trkpt lat="43.039005571043916" lon="13.14767780555351"><ele>737.0</ele><time>2026-04-24T17:24:30.999Z</time></trkpt><trkpt lat="43.038897007634205" lon="13.147753578718298"><ele>737.0</ele><time>2026-04-24T17:24:31.999Z</time></trkpt><trkpt lat="43.03880247377863" lon="13.147843716360955"><ele>737.0</ele><time>2026-04-24T17:24:32.999Z</time></trkpt><trkpt lat="43.03872509146089" lon="13.147953464772273"><ele>737.0</ele><time>2026-04-24T17:24:34Z</time></trkpt><trkpt lat="43.03865608806064" lon="13.148076044420193"><ele>737.0</ele><time>2026-04-24T17:24:35Z</time></trkpt><trkpt lat="43.038631837627726" lon="13.148227557887838"><ele>735.25</ele><time>2026-04-24T17:24:36Z</time></trkpt><trkpt lat="43.0386473837027" lon="13.148384545381882"><ele>733.5</ele><time>2026-04-24T17:24:37Z</time></trkpt><trkpt lat="43.038716736577825" lon="13.148545219045058"><ele>731.75</ele><time>2026-04-24T17:24:38Z</time></trkpt><trkpt lat="43.038789396296565" lon="13.14869479107393"><ele>730.0</ele><time>2026-04-24T17:24:39Z</time></trkpt><trkpt lat="43.03886055216097" lon="13.148838886082205"><ele>730.0</ele><time>2026-04-24T17:24:40Z</time></trkpt><trkpt lat="43.03892469606445" lon="13.148975003444416"><ele>730.0</ele><time>2026-04-24T17:24:41Z</time></trkpt><trkpt lat="43.03896584975214" lon="13.149087500066779"><ele>730.0</ele><time>2026-04-24T17:24:42Z</time></trkpt><trkpt lat="43.03899349673967" lon="13.149198607981871"><ele>730.0</ele><time>2026-04-24T17:24:43Z</time></trkpt><trkpt lat="43.03898679917447" lon="13.149295709315295"><ele>730.0</ele><time>2026-04-24T17:24:44Z</time></trkpt><trkpt lat="43.038948682656944" lon="13.149388655089881"><ele>730.0</ele><time>2026-04-24T17:24:45Z</time></trkpt><trkpt lat="43.03888827446839" lon="13.14949326490156"><ele>729.8</ele><time>2026-04-24T17:24:46Z</time></trkpt><trkpt lat="43.03881264881127" lon="13.149593378056876"><ele>729.6</ele><time>2026-04-24T17:24:47Z</time></trkpt><trkpt lat="43.03874363837429" lon="13.149697376626808"><ele>729.4000000000001</ele><time>2026-04-24T17:24:48Z</time></trkpt><trkpt lat="43.03868041716182" lon="13.149819164319917"><ele>729.2</ele><time>2026-04-24T17:24:49Z</time></trkpt><trkpt lat="43.038627251019385" lon="13.149960963923784"><ele>729.0</ele><time>2026-04-24T17:24:50Z</time></trkpt><trkpt lat="43.03857666388204" lon="13.150110302201279"><ele>729.0</ele><time>2026-04-24T17:24:51Z</time></trkpt><trkpt lat="43.03852391436401" lon="13.150267750450164"><ele>729.0</ele><time>2026-04-24T17:24:52Z</time></trkpt><trkpt lat="43.03848872708671" lon="13.150427929464662"><ele>729.0</ele><time>2026-04-24T17:24:53Z</time></trkpt><trkpt lat="43.038447224683225" lon="13.150566572976736"><ele>729.0</ele><time>2026-04-24T17:24:54Z</time></trkpt><trkpt lat="43.03842224503851" lon="13.150697338704347"><ele>728.4000000000001</ele><time>2026-04-24T17:24:55Z</time></trkpt><trkpt lat="43.03842312341182" lon="13.150818543556934"><ele>727.8</ele><time>2026-04-24T17:24:56Z</time></trkpt><trkpt lat="43.038431682961075" lon="13.15094150674882"><ele>727.2</ele><time>2026-04-24T17:24:57Z</time></trkpt><trkpt lat="43.03852815539499" lon="13.151050174042307"><ele>726.5999999999999</ele><time>2026-04-24T17:24:58Z</time></trkpt><trkpt lat="43.038591205583394" lon="13.15117742997554"><ele>726.0</ele><time>2026-04-24T17:24:59Z</time></trkpt><trkpt lat="43.03864526039037" lon="13.151285973553192"><ele>726.0</ele><time>2026-04-24T17:25:00Z</time></trkpt><trkpt lat="43.03866586162689" lon="13.151391366201802"><ele>726.0</ele><time>2026-04-24T17:25:01Z</time></trkpt><trkpt lat="43.03865342373824" lon="13.151512369820152"><ele>726.0</ele><time>2026-04-24T17:25:02Z</time></trkpt><trkpt lat="43.03862456097477" lon="13.15166322615265"><ele>726.0</ele><time>2026-04-24T17:25:03Z</time></trkpt><trkpt lat="43.03859346719232" lon="13.151823394819962"><ele>726.0</ele><time>2026-04-24T17:25:04Z</time></trkpt><trkpt lat="43.038564330928324" lon="13.15198249671678"><ele>726.0</ele><time>2026-04-24T17:25:05Z</time></trkpt><trkpt lat="43.038536957714776" lon="13.152147112398834"><ele>726.0</ele><time>2026-04-24T17:25:06Z</time></trkpt><trkpt lat="43.03851679828439" lon="13.15231271075936"><ele>726.0</ele><time>2026-04-24T17:25:07Z</time></trkpt><trkpt lat="43.03851756810378" lon="13.152484345022415"><ele>726.0</ele><time>2026-04-24T17:25:08Z</time></trkpt><trkpt lat="43.038485175879494" lon="13.152651150859617"><ele>726.0</ele><time>2026-04-24T17:25:09Z</time></trkpt><trkpt lat="43.03846128153946" lon="13.152819775610542"><ele>726.0</ele><time>2026-04-24T17:25:10Z</time></trkpt><trkpt lat="43.03844421686471" lon="13.152989663499197"><ele>726.0</ele><time>2026-04-24T17:25:11Z</time></trkpt><trkpt lat="43.0383991101555" lon="13.153147612580884"><ele>726.0</ele><time>2026-04-24T17:25:12Z</time></trkpt><trkpt lat="43.03831821463987" lon="13.15327308637093"><ele>727.75</ele><time>2026-04-24T17:25:13Z</time></trkpt><trkpt lat="43.03822839786579" lon="13.153384024795278"><ele>729.5</ele><time>2026-04-24T17:25:14Z</time></trkpt><trkpt lat="43.03812224392442" lon="13.153455889832255"><ele>731.25</ele><time>2026-04-24T17:25:15Z</time></trkpt><trkpt lat="43.03800268827505" lon="13.153509183033803"><ele>733.0</ele><time>2026-04-24T17:25:16Z</time></trkpt><trkpt lat="43.037878196818355" lon="13.153500396713381"><ele>733.0</ele><time>2026-04-24T17:25:17Z</time></trkpt><trkpt lat="43.03775463084737" lon="13.153462054998077"><ele>733.0</ele><time>2026-04-24T17:25:18Z</time></trkpt><trkpt lat="43.037634123850665" lon="13.153395103866144"><ele>733.0</ele><time>2026-04-24T17:25:19Z</time></trkpt><trkpt lat="43.037524575959445" lon="13.153314172066445"><ele>733.0</ele><time>2026-04-24T17:25:20Z</time></trkpt><trkpt lat="43.037415510314084" lon="13.153268679605247"><ele>735.4</ele><time>2026-04-24T17:25:21Z</time></trkpt><trkpt lat="43.03730532048836" lon="13.153268188280013"><ele>737.8</ele><time>2026-04-24T17:25:22Z</time></trkpt><trkpt lat="43.03720143868818" lon="13.153313090406979"><ele>740.2</ele><time>2026-04-24T17:25:23Z</time></trkpt><trkpt lat="43.037126909329196" lon="13.153408144561029"><ele>742.6</ele><time>2026-04-24T17:25:24Z</time></trkpt><trkpt lat="43.03708133823671" lon="13.15353968999606"><ele>745.0</ele><time>2026-04-24T17:25:25Z</time></trkpt><trkpt lat="43.03705384443914" lon="13.153699597136159"><ele>745.0</ele><time>2026-04-24T17:25:26Z</time></trkpt><trkpt lat="43.037026059038574" lon="13.153854122218727"><ele>745.0</ele><time>2026-04-24T17:25:27Z</time></trkpt><trkpt lat="43.03697729095174" lon="13.153997028231197"><ele>745.0</ele><time>2026-04-24T17:25:28Z</time></trkpt><trkpt lat="43.03690867595978" lon="13.154131235973535"><ele>745.0</ele><time>2026-04-24T17:25:29Z</time></trkpt><trkpt lat="43.03684464846475" lon="13.154278085511079"><ele>742.75</ele><time>2026-04-24T17:25:30Z</time></trkpt><trkpt lat="43.036797246430034" lon="13.154435134357039"><ele>740.5</ele><time>2026-04-24T17:25:31Z</time></trkpt><trkpt lat="43.03676018262135" lon="13.154599934531447"><ele>738.25</ele><time>2026-04-24T17:25:32Z</time></trkpt><trkpt lat="43.03672537858062" lon="13.154763598935087"><ele>736.0</ele><time>2026-04-24T17:25:33Z</time></trkpt><trkpt lat="43.03668798601647" lon="13.1549267508005"><ele>736.75</ele><time>2026-04-24T17:25:34Z</time></trkpt><trkpt lat="43.03665537727816" lon="13.155089319928512"><ele>737.5</ele><time>2026-04-24T17:25:35Z</time></trkpt><trkpt lat="43.036625802011756" lon="13.155259666582342"><ele>738.25</ele><time>2026-04-24T17:25:36Z</time></trkpt><trkpt lat="43.03658053378864" lon="13.15542117482879"><ele>739.0</ele><time>2026-04-24T17:25:37Z</time></trkpt><trkpt lat="43.036546195138584" lon="13.155592352034956"><ele>738.25</ele><time>2026-04-24T17:25:38Z</time></trkpt><trkpt lat="43.036511913523874" lon="13.155763244657924"><ele>737.5</ele><time>2026-04-24T17:25:39Z</time></trkpt><trkpt lat="43.036477507202456" lon="13.155937419388911"><ele>736.75</ele><time>2026-04-24T17:25:40Z</time></trkpt><trkpt lat="43.03644362544334" lon="13.156109604954292"><ele>736.0</ele><time>2026-04-24T17:25:41Z</time></trkpt><trkpt lat="43.036425944928595" lon="13.156285279998595"><ele>736.0</ele><time>2026-04-24T17:25:42Z</time></trkpt><trkpt lat="43.03637847237102" lon="13.15644373488742"><ele>736.0</ele><time>2026-04-24T17:25:43Z</time></trkpt><trkpt lat="43.03634811333145" lon="13.156604379413805"><ele>736.0</ele><time>2026-04-24T17:25:44Z</time></trkpt><trkpt lat="43.03631974537315" lon="13.156766727098633"><ele>736.0</ele><time>2026-04-24T17:25:45Z</time></trkpt><trkpt lat="43.036309333572326" lon="13.156926075421326"><ele>736.0</ele><time>2026-04-24T17:25:46Z</time></trkpt><trkpt lat="43.036277946965654" lon="13.157065550399455"><ele>736.0</ele><time>2026-04-24T17:25:47Z</time></trkpt><trkpt lat="43.0362683973643" lon="13.157206672803335"><ele>736.0</ele><time>2026-04-24T17:25:48Z</time></trkpt><trkpt lat="43.03627870109927" lon="13.157358651757646"><ele>736.0</ele><time>2026-04-24T17:25:49Z</time></trkpt><trkpt lat="43.03630630332254" lon="13.157522670152678"><ele>736.0</ele><time>2026-04-24T17:25:50Z</time></trkpt><trkpt lat="43.03631635325752" lon="13.157701362801406"><ele>734.75</ele><time>2026-04-24T17:25:51Z</time></trkpt><trkpt lat="43.036355887078365" lon="13.157869896290627"><ele>733.5</ele><time>2026-04-24T17:25:52Z</time></trkpt><trkpt lat="43.03636772215068" lon="13.158049581131756"><ele>732.25</ele><time>2026-04-24T17:25:53Z</time></trkpt><trkpt lat="43.03640263999932" lon="13.15822869160216"><ele>731.0</ele><time>2026-04-24T17:25:54Z</time></trkpt><trkpt lat="43.036456011080965" lon="13.158392447405149"><ele>731.75</ele><time>2026-04-24T17:25:55Z</time></trkpt><trkpt lat="43.03650736478292" lon="13.158553154767507"><ele>732.5</ele><time>2026-04-24T17:25:56Z</time></trkpt><trkpt lat="43.036577141071334" lon="13.158712793861447"><ele>733.25</ele><time>2026-04-24T17:25:57Z</time></trkpt><trkpt lat="43.03665031065894" lon="13.158879934964459"><ele>734.0</ele><time>2026-04-24T17:25:58Z</time></trkpt><trkpt lat="43.036741499268366" lon="13.159035090148071"><ele>730.0</ele><time>2026-04-24T17:25:59Z</time></trkpt><trkpt lat="43.03682939093728" lon="13.159188756835412"><ele>726.0</ele><time>2026-04-24T17:26:00Z</time></trkpt><trkpt lat="43.03691941434262" lon="13.159342283124342"><ele>722.0</ele><time>2026-04-24T17:26:01Z</time></trkpt><trkpt lat="43.037004443390174" lon="13.159492293429237"><ele>718.0</ele><time>2026-04-24T17:26:02Z</time></trkpt><trkpt lat="43.03708984410617" lon="13.159650239893116"><ele>718.0</ele><time>2026-04-24T17:26:03Z</time></trkpt><trkpt lat="43.03717092402693" lon="13.159807260912675"><ele>718.0</ele><time>2026-04-24T17:26:04Z</time></trkpt><trkpt lat="43.03725224460226" lon="13.159975456526697"><ele>718.0</ele><time>2026-04-24T17:26:05Z</time></trkpt><trkpt lat="43.03732670997595" lon="13.160139695978762"><ele>718.0</ele><time>2026-04-24T17:26:06Z</time></trkpt><trkpt lat="43.037404891714125" lon="13.16030755101701"><ele>719.25</ele><time>2026-04-24T17:26:07Z</time></trkpt><trkpt lat="43.03747715710791" lon="13.160458427661455"><ele>720.5</ele><time>2026-04-24T17:26:08Z</time></trkpt><trkpt lat="43.037557294959875" lon="13.160606863532111"><ele>721.75</ele><time>2026-04-24T17:26:08.999Z</time></trkpt><trkpt lat="43.03766521235702" lon="13.160725496353058"><ele>723.0</ele><time>2026-04-24T17:26:09.999Z</time></trkpt><trkpt lat="43.03779987668545" lon="13.160793514468818"><ele>719.75</ele><time>2026-04-24T17:26:10.999Z</time></trkpt><trkpt lat="43.03793427139624" lon="13.160867010532128"><ele>716.5</ele><time>2026-04-24T17:26:11.999Z</time></trkpt><trkpt lat="43.03807766029245" lon="13.160893722358736"><ele>713.25</ele><time>2026-04-24T17:26:12.999Z</time></trkpt><trkpt lat="43.038227919658596" lon="13.16091358657545"><ele>710.0</ele><time>2026-04-24T17:26:13.999Z</time></trkpt><trkpt lat="43.03837521889919" lon="13.160930234688974"><ele>710.0</ele><time>2026-04-24T17:26:14.999Z</time></trkpt><trkpt lat="43.03852039763605" lon="13.160947153095865"><ele>710.0</ele><time>2026-04-24T17:26:15.999Z</time></trkpt><trkpt lat="43.038672864995895" lon="13.160965828234183"><ele>710.0</ele><time>2026-04-24T17:26:16.999Z</time></trkpt><trkpt lat="43.03882220926944" lon="13.160982417173026"><ele>710.0</ele><time>2026-04-24T17:26:17.999Z</time></trkpt><trkpt lat="43.03896879388028" lon="13.160968871495774"><ele>710.0</ele><time>2026-04-24T17:26:18.999Z</time></trkpt><trkpt lat="43.03911138388577" lon="13.16096183499084"><ele>710.0</ele><time>2026-04-24T17:26:19.999Z</time></trkpt><trkpt lat="43.03925653478349" lon="13.160939995815053"><ele>710.0</ele><time>2026-04-24T17:26:20.999Z</time></trkpt><trkpt lat="43.0393996055431" lon="13.160900579784492"><ele>710.0</ele><time>2026-04-24T17:26:21.999Z</time></trkpt><trkpt lat="43.039546963992535" lon="13.160890770537879"><ele>708.25</ele><time>2026-04-24T17:26:22.999Z</time></trkpt><trkpt lat="43.039697349690194" lon="13.160872548209571"><ele>706.5</ele><time>2026-04-24T17:26:23.999Z</time></trkpt><trkpt lat="43.0398450698423" lon="13.160854648851764"><ele>704.75</ele><time>2026-04-24T17:26:24.999Z</time></trkpt><trkpt lat="43.039990649751935" lon="13.160838059406908"><ele>703.0</ele><time>2026-04-24T17:26:25.999Z</time></trkpt><trkpt lat="43.04013653449837" lon="13.160826729309917"><ele>702.25</ele><time>2026-04-24T17:26:26.999Z</time></trkpt><trkpt lat="43.04028564586989" lon="13.160826945705606"><ele>701.5</ele><time>2026-04-24T17:26:27.999Z</time></trkpt><trkpt lat="43.04043149889726" lon="13.160846997446505"><ele>700.75</ele><time>2026-04-24T17:26:28.999Z</time></trkpt><trkpt lat="43.04057325204734" lon="13.160878930134373"><ele>700.0</ele><time>2026-04-24T17:26:29.999Z</time></trkpt><trkpt lat="43.04071493337103" lon="13.160909517067092"><ele>699.5</ele><time>2026-04-24T17:26:30.999Z</time></trkpt><trkpt lat="43.04085438529651" lon="13.160932443802885"><ele>699.0</ele><time>2026-04-24T17:26:31.999Z</time></trkpt><trkpt lat="43.040984196158156" lon="13.160960954951047"><ele>698.5</ele><time>2026-04-24T17:26:32.999Z</time></trkpt><trkpt lat="43.04110962548864" lon="13.160987634799428"><ele>698.0</ele><time>2026-04-24T17:26:33.999Z</time></trkpt><trkpt lat="43.04122125134661" lon="13.161008722131173"><ele>698.0</ele><time>2026-04-24T17:26:34.999Z</time></trkpt><trkpt lat="43.04131475773966" lon="13.161026457410417"><ele>698.0</ele><time>2026-04-24T17:26:35.999Z</time></trkpt><trkpt lat="43.041389284960694" lon="13.161040767739026"><ele>698.0</ele><time>2026-04-24T17:26:36.999Z</time></trkpt><trkpt lat="43.04144991561735" lon="13.16107425475377"><ele>698.0</ele><time>2026-04-24T17:26:37.999Z</time></trkpt><trkpt lat="43.041449992391556" lon="13.161222063079876"><ele>698.0</ele><time>2026-04-24T17:26:40.001Z</time></trkpt><trkpt lat="43.0413903100415" lon="13.161269717376113"><ele>698.0</ele><time>2026-04-24T17:26:41.001Z</time></trkpt><trkpt lat="43.04129739810795" lon="13.16126502556689"><ele>698.0</ele><time>2026-04-24T17:26:42Z</time></trkpt><trkpt lat="43.041209607489805" lon="13.161232645423915"><ele>698.0</ele><time>2026-04-24T17:26:43Z</time></trkpt><trkpt lat="43.04110954893282" lon="13.1612054508849"><ele>698.0</ele><time>2026-04-24T17:26:44.001Z</time></trkpt><trkpt lat="43.04100131742476" lon="13.161198439837039"><ele>698.0</ele><time>2026-04-24T17:26:45Z</time></trkpt><trkpt lat="43.040871753403145" lon="13.16119770363293"><ele>698.0</ele><time>2026-04-24T17:26:46Z</time></trkpt><trkpt lat="43.040737417105625" lon="13.161204752965125"><ele>698.6666666666666</ele><time>2026-04-24T17:26:47Z</time></trkpt><trkpt lat="43.040594689158716" lon="13.161213745643709"><ele>699.3333333333334</ele><time>2026-04-24T17:26:48Z</time></trkpt><trkpt lat="43.04042960734879" lon="13.161216502059313"><ele>700.0</ele><time>2026-04-24T17:26:49Z</time></trkpt><trkpt lat="43.04027194771959" lon="13.16122188526994"><ele>700.0</ele><time>2026-04-24T17:26:50Z</time></trkpt><trkpt lat="43.04012928305384" lon="13.16124878828821"><ele>700.0</ele><time>2026-04-24T17:26:51Z</time></trkpt><trkpt lat="43.03998713684458" lon="13.161299061975047"><ele>700.0</ele><time>2026-04-24T17:26:52Z</time></trkpt><trkpt lat="43.03985348331534" lon="13.161370964094036"><ele>700.0</ele><time>2026-04-24T17:26:53Z</time></trkpt><trkpt lat="43.0397256542447" lon="13.161464232147015"><ele>695.0</ele><time>2026-04-24T17:26:54Z</time></trkpt><trkpt lat="43.03959668158487" lon="13.161559592348635"><ele>690.0</ele><time>2026-04-24T17:26:55Z</time></trkpt><trkpt lat="43.039464963058165" lon="13.16165805414419"><ele>685.0</ele><time>2026-04-24T17:26:56Z</time></trkpt><trkpt lat="43.03933314959724" lon="13.16176150290382"><ele>680.0</ele><time>2026-04-24T17:26:57Z</time></trkpt><trkpt lat="43.0392016451876" lon="13.16186477712346"><ele>685.3333333333333</ele><time>2026-04-24T17:26:58Z</time></trkpt><trkpt lat="43.03906978939168" lon="13.161965027610146"><ele>690.6666666666666</ele><time>2026-04-24T17:26:59Z</time></trkpt><trkpt lat="43.03893407729386" lon="13.162051002750337"><ele>696.0</ele><time>2026-04-24T17:27:00Z</time></trkpt><trkpt lat="43.038790205351305" lon="13.162127023967145"><ele>696.0</ele><time>2026-04-24T17:27:01Z</time></trkpt><trkpt lat="43.038645773775784" lon="13.162209880478677"><ele>696.0</ele><time>2026-04-24T17:27:02Z</time></trkpt><trkpt lat="43.03851802113654" lon="13.162314147901625"><ele>696.0</ele><time>2026-04-24T17:27:03Z</time></trkpt><trkpt lat="43.03840626883685" lon="13.162446841151844"><ele>692.3333333333334</ele><time>2026-04-24T17:27:04Z</time></trkpt><trkpt lat="43.03830954632516" lon="13.162613003792575"><ele>688.6666666666667</ele><time>2026-04-24T17:27:05Z</time></trkpt><trkpt lat="43.0382148634783" lon="13.162807777122795"><ele>685.0</ele><time>2026-04-24T17:27:06Z</time></trkpt><trkpt lat="43.03812122191458" lon="13.163009752588414"><ele>685.0</ele><time>2026-04-24T17:27:07Z</time></trkpt><trkpt lat="43.03802718959756" lon="13.163186749231333"><ele>685.0</ele><time>2026-04-24T17:27:08Z</time></trkpt><trkpt lat="43.0379287706584" lon="13.16334372634964"><ele>685.0</ele><time>2026-04-24T17:27:09Z</time></trkpt><trkpt lat="43.03783494310414" lon="13.163477555148065"><ele>685.0</ele><time>2026-04-24T17:27:10Z</time></trkpt><trkpt lat="43.037750556016825" lon="13.16359598081109"><ele>680.2</ele><time>2026-04-24T17:27:11Z</time></trkpt><trkpt lat="43.03768274593552" lon="13.16369690475301"><ele>675.4</ele><time>2026-04-24T17:27:12Z</time></trkpt><trkpt lat="43.03763118345171" lon="13.163800493051225"><ele>670.5999999999999</ele><time>2026-04-24T17:27:13Z</time></trkpt><trkpt lat="43.03758227365291" lon="13.163913766387013"><ele>665.8</ele><time>2026-04-24T17:27:14Z</time></trkpt><trkpt lat="43.03759088594105" lon="13.164062691307134"><ele>661.0</ele><time>2026-04-24T17:27:15Z</time></trkpt><trkpt lat="43.03767609832449" lon="13.164178760475986"><ele>656.8</ele><time>2026-04-24T17:27:16Z</time></trkpt><trkpt lat="43.03773761491466" lon="13.164277848127735"><ele>652.5999999999999</ele><time>2026-04-24T17:27:17Z</time></trkpt><trkpt lat="43.03780184137022" lon="13.16439138855817"><ele>648.4</ele><time>2026-04-24T17:27:18Z</time></trkpt><trkpt lat="43.037868235021556" lon="13.164507471510737"><ele>644.2</ele><time>2026-04-24T17:27:19Z</time></trkpt><trkpt lat="43.037924202196" lon="13.164640687216695"><ele>640.0</ele><time>2026-04-24T17:27:20Z</time></trkpt><trkpt lat="43.03799300763409" lon="13.164762371920643"><ele>639.6</ele><time>2026-04-24T17:27:21Z</time></trkpt><trkpt lat="43.03806225402557" lon="13.164884836013488"><ele>639.2</ele><time>2026-04-24T17:27:22Z</time></trkpt><trkpt lat="43.038126581473016" lon="13.164997934649849"><ele>638.8</ele><time>2026-04-24T17:27:23Z</time></trkpt><trkpt lat="43.038191349557195" lon="13.165096524019514"><ele>638.4</ele><time>2026-04-24T17:27:24Z</time></trkpt><trkpt lat="43.03827717933072" lon="13.16516387022649"><ele>638.0</ele><time>2026-04-24T17:27:25Z</time></trkpt><trkpt lat="43.03837367171049" lon="13.165163179387573"><ele>638.8333333333333</ele><time>2026-04-24T17:27:26Z</time></trkpt><trkpt lat="43.038465012623675" lon="13.165152889080138"><ele>639.6666666666666</ele><time>2026-04-24T17:27:27Z</time></trkpt><trkpt lat="43.03854626155244" lon="13.165147225056119"><ele>640.5</ele><time>2026-04-24T17:27:28Z</time></trkpt><trkpt lat="43.03861451715905" lon="13.165174499910432"><ele>641.3333333333334</ele><time>2026-04-24T17:27:29Z</time></trkpt><trkpt lat="43.03865368611976" lon="13.165261337050806"><ele>642.1666666666667</ele><time>2026-04-24T17:27:30Z</time></trkpt><trkpt lat="43.03869246386217" lon="13.165343780528678"><ele>643.0</ele><time>2026-04-24T17:27:31Z</time></trkpt><trkpt lat="43.03870746111721" lon="13.165430353785036"><ele>643.0</ele><time>2026-04-24T17:27:32Z</time></trkpt><trkpt lat="43.03868038944885" lon="13.165576375500054"><ele>643.0</ele><time>2026-04-24T17:27:34Z</time></trkpt><trkpt lat="43.0385623446547" lon="13.165641743912287"><ele>643.0</ele><time>2026-04-24T17:27:36Z</time></trkpt><trkpt lat="43.038476640088206" lon="13.165759780552373"><ele>643.0</ele><time>2026-04-24T17:27:38Z</time></trkpt><trkpt lat="43.03843640971988" lon="13.165688764366552"><ele>643.0</ele><time>2026-04-24T17:27:39Z</time></trkpt><trkpt lat="43.03848928698232" lon="13.165936325503763"><ele>645.4</ele><time>2026-04-24T17:27:40Z</time></trkpt><trkpt lat="43.03859922485039" lon="13.166030074502972"><ele>647.8</ele><time>2026-04-24T17:27:42Z</time></trkpt><trkpt lat="43.038675797946034" lon="13.16606643272943"><ele>650.2</ele><time>2026-04-24T17:27:43Z</time></trkpt><trkpt lat="43.038748575122725" lon="13.166143851061914"><ele>652.6</ele><time>2026-04-24T17:27:44Z</time></trkpt><trkpt lat="43.03883409504246" lon="13.16621813368735"><ele>655.0</ele><time>2026-04-24T17:27:45Z</time></trkpt><trkpt lat="43.03891605589571" lon="13.166294189709127"><ele>655.0</ele><time>2026-04-24T17:27:46Z</time></trkpt><trkpt lat="43.038992070168845" lon="13.166392449954829"><ele>655.0</ele><time>2026-04-24T17:27:47Z</time></trkpt><trkpt lat="43.0390645797314" lon="13.16649691031732"><ele>655.0</ele><time>2026-04-24T17:27:48Z</time></trkpt><trkpt lat="43.03914274929544" lon="13.166610989128273"><ele>655.0</ele><time>2026-04-24T17:27:49Z</time></trkpt><trkpt lat="43.03922359558353" lon="13.166729309695313"><ele>655.0</ele><time>2026-04-24T17:27:50Z</time></trkpt><trkpt lat="43.039311842959044" lon="13.16683606610611"><ele>654.5</ele><time>2026-04-24T17:27:51Z</time></trkpt><trkpt lat="43.03938656155291" lon="13.16694502597267"><ele>654.0</ele><time>2026-04-24T17:27:52Z</time></trkpt><trkpt lat="43.03947243276384" lon="13.167044808653454"><ele>653.5</ele><time>2026-04-24T17:27:53Z</time></trkpt><trkpt lat="43.039570064475875" lon="13.16713401005147"><ele>653.0</ele><time>2026-04-24T17:27:54Z</time></trkpt><trkpt lat="43.039676826499814" lon="13.167213534123468"><ele>653.0</ele><time>2026-04-24T17:27:55Z</time></trkpt><trkpt lat="43.039791620976175" lon="13.167278213510864"><ele>653.0</ele><time>2026-04-24T17:27:56Z</time></trkpt><trkpt lat="43.039915897605034" lon="13.167326030271528"><ele>653.0</ele><time>2026-04-24T17:27:57Z</time></trkpt><trkpt lat="43.04004149841865" lon="13.167365600424052"><ele>653.0</ele><time>2026-04-24T17:27:58Z</time></trkpt><trkpt lat="43.040163693158156" lon="13.167407532998949"><ele>653.8</ele><time>2026-04-24T17:27:59Z</time></trkpt><trkpt lat="43.04027562313643" lon="13.167446418827115"><ele>654.5999999999999</ele><time>2026-04-24T17:28:00Z</time></trkpt><trkpt lat="43.04038479829942" lon="13.167487172163645"><ele>655.4000000000001</ele><time>2026-04-24T17:28:01Z</time></trkpt><trkpt lat="43.04048472921455" lon="13.167528219042824"><ele>656.2</ele><time>2026-04-24T17:28:02Z</time></trkpt><trkpt lat="43.040568186379275" lon="13.167558397152767"><ele>657.0</ele><time>2026-04-24T17:28:03Z</time></trkpt><trkpt lat="43.04066118449537" lon="13.167602718491645"><ele>657.0</ele><time>2026-04-24T17:28:05Z</time></trkpt><trkpt lat="43.04076431587358" lon="13.167627833026536"><ele>657.0</ele><time>2026-04-24T17:28:33.999Z</time></trkpt><trkpt lat="43.04088158342703" lon="13.167673134241884"><ele>657.0</ele><time>2026-04-24T17:28:35.999Z</time></trkpt><trkpt lat="43.04095157196007" lon="13.167699855995991"><ele>657.0</ele><time>2026-04-24T17:28:36.999Z</time></trkpt><trkpt lat="43.04103560104166" lon="13.167728839493266"><ele>657.0</ele><time>2026-04-24T17:28:37.999Z</time></trkpt><trkpt lat="43.04112037526556" lon="13.167759468266517"><ele>657.0</ele><time>2026-04-24T17:28:38.999Z</time></trkpt><trkpt lat="43.04120352901879" lon="13.16779630208264"><ele>657.0</ele><time>2026-04-24T17:28:39.999Z</time></trkpt><trkpt lat="43.04128043696548" lon="13.167827695091585"><ele>657.0</ele><time>2026-04-24T17:28:40.999Z</time></trkpt><trkpt lat="43.041349590299305" lon="13.16785769198076"><ele>657.0</ele><time>2026-04-24T17:28:41.999Z</time></trkpt><trkpt lat="43.041419632821786" lon="13.16788075049854"><ele>657.0</ele><time>2026-04-24T17:28:42.999Z</time></trkpt><trkpt lat="43.04148779050105" lon="13.167912219475484"><ele>657.0</ele><time>2026-04-24T17:28:43.999Z</time></trkpt><trkpt lat="43.04156644049228" lon="13.167948276223763"><ele>657.1666666666666</ele><time>2026-04-24T17:28:44.999Z</time></trkpt><trkpt lat="43.041642444526595" lon="13.167987994175826"><ele>657.3333333333334</ele><time>2026-04-24T17:28:46.001Z</time></trkpt><trkpt lat="43.04171800636208" lon="13.168037826974386"><ele>657.5</ele><time>2026-04-24T17:28:47.001Z</time></trkpt><trkpt lat="43.04179097141419" lon="13.168089283239198"><ele>657.6666666666667</ele><time>2026-04-24T17:28:48.001Z</time></trkpt><trkpt lat="43.041866255841214" lon="13.168134404473726"><ele>657.8333333333334</ele><time>2026-04-24T17:28:49.001Z</time></trkpt><trkpt lat="43.04192953640922" lon="13.168172811999009"><ele>658.0</ele><time>2026-04-24T17:28:50.001Z</time></trkpt><trkpt lat="43.041986575672965" lon="13.168216527224322"><ele>659.2</ele><time>2026-04-24T17:28:51.001Z</time></trkpt><trkpt lat="43.04206154261272" lon="13.168295613185501"><ele>660.4</ele><time>2026-04-24T17:28:53.001Z</time></trkpt><trkpt lat="43.04211748054134" lon="13.168352977646547"><ele>661.6</ele><time>2026-04-24T17:29:27Z</time></trkpt><trkpt lat="43.04222263758064" lon="13.168403131708626"><ele>662.8000000000001</ele><time>2026-04-24T17:29:30Z</time></trkpt><trkpt lat="43.04234669915619" lon="13.168461650271638"><ele>664.0</ele><time>2026-04-24T17:29:32Z</time></trkpt><trkpt lat="43.04241346720328" lon="13.168533878165576"><ele>662.75</ele><time>2026-04-24T17:29:33Z</time></trkpt><trkpt lat="43.042501487914826" lon="13.168596619820637"><ele>661.5</ele><time>2026-04-24T17:29:34Z</time></trkpt><trkpt lat="43.042605135932256" lon="13.168670053391688"><ele>660.25</ele><time>2026-04-24T17:29:35Z</time></trkpt><trkpt lat="43.042737937243885" lon="13.16876436706397"><ele>659.0</ele><time>2026-04-24T17:29:36Z</time></trkpt><trkpt lat="43.04288915006851" lon="13.168871756419614"><ele>659.0</ele><time>2026-04-24T17:29:37Z</time></trkpt><trkpt lat="43.043054392114925" lon="13.168989109129797"><ele>659.0</ele><time>2026-04-24T17:29:38Z</time></trkpt><trkpt lat="43.04323805231563" lon="13.169118128511636"><ele>659.0</ele><time>2026-04-24T17:29:39Z</time></trkpt><trkpt lat="43.04344176786841" lon="13.169260105276411"><ele>657.6666666666666</ele><time>2026-04-24T17:29:40Z</time></trkpt><trkpt lat="43.04363261786812" lon="13.169393514975365"><ele>656.3333333333334</ele><time>2026-04-24T17:29:41Z</time></trkpt><trkpt lat="43.043809221805475" lon="13.169491157935369"><ele>655.0</ele><time>2026-04-24T17:29:42Z</time></trkpt><trkpt lat="43.04396512652886" lon="13.169585573967868"><ele>655.0</ele><time>2026-04-24T17:29:43Z</time></trkpt><trkpt lat="43.044109373333214" lon="13.16965528437665"><ele>655.0</ele><time>2026-04-24T17:29:44Z</time></trkpt><trkpt lat="43.044254278698936" lon="13.169703909303138"><ele>655.0</ele><time>2026-04-24T17:29:45Z</time></trkpt><trkpt lat="43.04439580745523" lon="13.169751623413227"><ele>655.0</ele><time>2026-04-24T17:29:46Z</time></trkpt><trkpt lat="43.04453521345611" lon="13.169805537390783"><ele>654.75</ele><time>2026-04-24T17:29:47Z</time></trkpt><trkpt lat="43.04467024092413" lon="13.169860299704764"><ele>654.5</ele><time>2026-04-24T17:29:48Z</time></trkpt><trkpt lat="43.04480334426612" lon="13.169912501107842"><ele>654.25</ele><time>2026-04-24T17:29:49Z</time></trkpt><trkpt lat="43.044936222973476" lon="13.169961100118375"><ele>654.0</ele><time>2026-04-24T17:29:50Z</time></trkpt><trkpt lat="43.04507103195666" lon="13.170007806491954"><ele>654.0</ele><time>2026-04-24T17:29:51Z</time></trkpt><trkpt lat="43.04520370943306" lon="13.170042547108054"><ele>654.0</ele><time>2026-04-24T17:29:52Z</time></trkpt><trkpt lat="43.04533149943206" lon="13.170071228639054"><ele>654.0</ele><time>2026-04-24T17:29:53Z</time></trkpt><trkpt lat="43.04546256777852" lon="13.170097276465217"><ele>654.0</ele><time>2026-04-24T17:29:54Z</time></trkpt><trkpt lat="43.04559497448126" lon="13.170120377606274"><ele>654.0</ele><time>2026-04-24T17:29:55Z</time></trkpt><trkpt lat="43.04572433056353" lon="13.170150167048723"><ele>654.0</ele><time>2026-04-24T17:29:56Z</time></trkpt><trkpt lat="43.04585611135217" lon="13.170163504706178"><ele>654.0</ele><time>2026-04-24T17:29:57Z</time></trkpt><trkpt lat="43.04598561489908" lon="13.170191151938752"><ele>654.0</ele><time>2026-04-24T17:29:58Z</time></trkpt><trkpt lat="43.04610514383194" lon="13.170261578170297"><ele>653.75</ele><time>2026-04-24T17:29:59Z</time></trkpt><trkpt lat="43.04622030029689" lon="13.170329536162425"><ele>653.5</ele><time>2026-04-24T17:30:00Z</time></trkpt><trkpt lat="43.04633941930171" lon="13.170394792348299"><ele>653.25</ele><time>2026-04-24T17:30:01Z</time></trkpt><trkpt lat="43.046447661976615" lon="13.170484238677483"><ele>653.0</ele><time>2026-04-24T17:30:02Z</time></trkpt><trkpt lat="43.046558146339535" lon="13.170585156199923"><ele>652.5</ele><time>2026-04-24T17:30:03Z</time></trkpt><trkpt lat="43.04666854025319" lon="13.170690281169048"><ele>652.0</ele><time>2026-04-24T17:30:04Z</time></trkpt><trkpt lat="43.0467767810738" lon="13.170801663927193"><ele>651.5</ele><time>2026-04-24T17:30:05Z</time></trkpt><trkpt lat="43.046886122073104" lon="13.170921892842188"><ele>651.0</ele><time>2026-04-24T17:30:06Z</time></trkpt><trkpt lat="43.04699901314878" lon="13.171036365775713"><ele>651.0</ele><time>2026-04-24T17:30:07Z</time></trkpt><trkpt lat="43.0471181095256" lon="13.171144334267273"><ele>651.0</ele><time>2026-04-24T17:30:08Z</time></trkpt><trkpt lat="43.04724452051139" lon="13.171252160064887"><ele>651.0</ele><time>2026-04-24T17:30:09Z</time></trkpt><trkpt lat="43.04737457561011" lon="13.171338984997835"><ele>651.0</ele><time>2026-04-24T17:30:10Z</time></trkpt><trkpt lat="43.04750486564465" lon="13.171415938560639"><ele>651.0</ele><time>2026-04-24T17:30:11Z</time></trkpt><trkpt lat="43.04763125066481" lon="13.17148901364098"><ele>651.0</ele><time>2026-04-24T17:30:12Z</time></trkpt><trkpt lat="43.04775596876508" lon="13.171554423755774"><ele>651.0</ele><time>2026-04-24T17:30:13Z</time></trkpt><trkpt lat="43.04787846464175" lon="13.171618435944096"><ele>651.0</ele><time>2026-04-24T17:30:14Z</time></trkpt><trkpt lat="43.04799928081126" lon="13.171686540904497"><ele>653.25</ele><time>2026-04-24T17:30:15Z</time></trkpt><trkpt lat="43.04812050797465" lon="13.171756190285747"><ele>655.5</ele><time>2026-04-24T17:30:16Z</time></trkpt><trkpt lat="43.048244471485965" lon="13.171827478906826"><ele>657.75</ele><time>2026-04-24T17:30:17Z</time></trkpt><trkpt lat="43.048365415052814" lon="13.171900598322969"><ele>660.0</ele><time>2026-04-24T17:30:18Z</time></trkpt><trkpt lat="43.04848382867171" lon="13.171974295680489"><ele>660.0</ele><time>2026-04-24T17:30:19Z</time></trkpt><trkpt lat="43.04860868795815" lon="13.172044979711304"><ele>660.0</ele><time>2026-04-24T17:30:20Z</time></trkpt><trkpt lat="43.0487275997487" lon="13.172138008290053"><ele>660.0</ele><time>2026-04-24T17:30:21Z</time></trkpt><trkpt lat="43.04885548931236" lon="13.172208795569533"><ele>660.0</ele><time>2026-04-24T17:30:22Z</time></trkpt><trkpt lat="43.048984501636" lon="13.17226767145232"><ele>660.0</ele><time>2026-04-24T17:30:23Z</time></trkpt><trkpt lat="43.04912010599198" lon="13.17229556664402"><ele>660.0</ele><time>2026-04-24T17:30:24Z</time></trkpt><trkpt lat="43.04925118751965" lon="13.172343826178668"><ele>660.0</ele><time>2026-04-24T17:30:25Z</time></trkpt><trkpt lat="43.0493855034007" lon="13.17239661038273"><ele>660.0</ele><time>2026-04-24T17:30:26Z</time></trkpt><trkpt lat="43.04951919697464" lon="13.17244547971822"><ele>659.75</ele><time>2026-04-24T17:30:27Z</time></trkpt><trkpt lat="43.0496516707136" lon="13.172496497792949"><ele>659.5</ele><time>2026-04-24T17:30:27.999Z</time></trkpt><trkpt lat="43.0497775250318" lon="13.172579273750614"><ele>659.25</ele><time>2026-04-24T17:30:28.999Z</time></trkpt><trkpt lat="43.049908156043344" lon="13.17264419584873"><ele>659.0</ele><time>2026-04-24T17:30:29.999Z</time></trkpt><trkpt lat="43.050036582997485" lon="13.172714672181334"><ele>659.0</ele><time>2026-04-24T17:30:30.999Z</time></trkpt><trkpt lat="43.050163434842894" lon="13.172784284164337"><ele>659.0</ele><time>2026-04-24T17:30:31.999Z</time></trkpt><trkpt lat="43.050290777793386" lon="13.172854165585736"><ele>659.0</ele><time>2026-04-24T17:30:32.999Z</time></trkpt><trkpt lat="43.05041674177042" lon="13.172923290292822"><ele>659.0</ele><time>2026-04-24T17:30:33.999Z</time></trkpt><trkpt lat="43.05054370135551" lon="13.172992041362"><ele>659.0</ele><time>2026-04-24T17:30:34.999Z</time></trkpt><trkpt lat="43.05067524424125" lon="13.173038093128117"><ele>659.0</ele><time>2026-04-24T17:30:35.999Z</time></trkpt><trkpt lat="43.0508005490005" lon="13.173109554418224"><ele>659.0</ele><time>2026-04-24T17:30:36.999Z</time></trkpt><trkpt lat="43.05092699310651" lon="13.173177227342007"><ele>659.0</ele><time>2026-04-24T17:30:37.999Z</time></trkpt><trkpt lat="43.05104412787847" lon="13.173270743851647"><ele>661.8000000000001</ele><time>2026-04-24T17:30:38.999Z</time></trkpt><trkpt lat="43.05115138555339" lon="13.173351027226863"><ele>664.6</ele><time>2026-04-24T17:30:39.999Z</time></trkpt><trkpt lat="43.05123643868313" lon="13.173439395140425"><ele>667.4</ele><time>2026-04-24T17:30:40.999Z</time></trkpt><trkpt lat="43.05130256603758" lon="13.17354670261972"><ele>670.2</ele><time>2026-04-24T17:30:41.999Z</time></trkpt><trkpt lat="43.05134764169976" lon="13.173683762881176"><ele>673.0</ele><time>2026-04-24T17:30:42.999Z</time></trkpt><trkpt lat="43.05136626938692" lon="13.17384288392463"><ele>673.0</ele><time>2026-04-24T17:30:43.999Z</time></trkpt><trkpt lat="43.05137629656542" lon="13.174013984660169"><ele>673.0</ele><time>2026-04-24T17:30:44.999Z</time></trkpt><trkpt lat="43.051380948965445" lon="13.174193575284326"><ele>673.0</ele><time>2026-04-24T17:30:45.999Z</time></trkpt><trkpt lat="43.051398860089876" lon="13.17437512287492"><ele>673.0</ele><time>2026-04-24T17:30:46.999Z</time></trkpt><trkpt lat="43.05138718527791" lon="13.174557467904771"><ele>677.25</ele><time>2026-04-24T17:30:47.999Z</time></trkpt><trkpt lat="43.0513970891881" lon="13.17473209562032"><ele>681.5</ele><time>2026-04-24T17:30:48.999Z</time></trkpt><trkpt lat="43.05141342835497" lon="13.174907893953039"><ele>685.75</ele><time>2026-04-24T17:30:49.999Z</time></trkpt><trkpt lat="43.05144221560847" lon="13.175085551703868"><ele>690.0</ele><time>2026-04-24T17:30:50.999Z</time></trkpt><trkpt lat="43.05149665889746" lon="13.175254697280131"><ele>693.75</ele><time>2026-04-24T17:30:52.001Z</time></trkpt><trkpt lat="43.05152167704438" lon="13.175436509061765"><ele>697.5</ele><time>2026-04-24T17:30:53.001Z</time></trkpt><trkpt lat="43.05156522887996" lon="13.175619053806368"><ele>701.25</ele><time>2026-04-24T17:30:54.001Z</time></trkpt><trkpt lat="43.05160847540225" lon="13.17580055658539"><ele>705.0</ele><time>2026-04-24T17:30:55.001Z</time></trkpt><trkpt lat="43.051646072647216" lon="13.175987523892553"><ele>697.25</ele><time>2026-04-24T17:30:56.001Z</time></trkpt><trkpt lat="43.05167507326236" lon="13.176173782417765"><ele>689.5</ele><time>2026-04-24T17:30:57.001Z</time></trkpt><trkpt lat="43.05169578992203" lon="13.176368747390786"><ele>681.75</ele><time>2026-04-24T17:30:58.001Z</time></trkpt><trkpt lat="43.05170094913637" lon="13.176556537051589"><ele>674.0</ele><time>2026-04-24T17:30:59.001Z</time></trkpt><trkpt lat="43.051691657452565" lon="13.176735681307328"><ele>674.0</ele><time>2026-04-24T17:31:00.001Z</time></trkpt><trkpt lat="43.05169342477456" lon="13.176913226473832"><ele>674.0</ele><time>2026-04-24T17:31:01.001Z</time></trkpt><trkpt lat="43.051668087368206" lon="13.177077773659553"><ele>674.0</ele><time>2026-04-24T17:31:02.001Z</time></trkpt><trkpt lat="43.051654542221364" lon="13.177236810465974"><ele>674.0</ele><time>2026-04-24T17:31:03.001Z</time></trkpt><trkpt lat="43.051636083735204" lon="13.177384204294688"><ele>673.6</ele><time>2026-04-24T17:31:04.001Z</time></trkpt><trkpt lat="43.05165763624901" lon="13.177529696916162"><ele>673.2</ele><time>2026-04-24T17:31:05.001Z</time></trkpt><trkpt lat="43.051718600095874" lon="13.177652399974077"><ele>672.8000000000001</ele><time>2026-04-24T17:31:06.001Z</time></trkpt><trkpt lat="43.051805966014186" lon="13.177720638224802"><ele>672.4000000000001</ele><time>2026-04-24T17:31:07.001Z</time></trkpt><trkpt lat="43.05189456615738" lon="13.177800438702851"><ele>672.0</ele><time>2026-04-24T17:31:08.001Z</time></trkpt><trkpt lat="43.05198628603631" lon="13.177900603841952"><ele>672.0</ele><time>2026-04-24T17:31:09.001Z</time></trkpt><trkpt lat="43.052087191745855" lon="13.177993620574748"><ele>672.0</ele><time>2026-04-24T17:31:10Z</time></trkpt><trkpt lat="43.05219074566292" lon="13.17808777219362"><ele>672.0</ele><time>2026-04-24T17:31:11Z</time></trkpt><trkpt lat="43.05229416529921" lon="13.178185317511053"><ele>672.0</ele><time>2026-04-24T17:31:12Z</time></trkpt><trkpt lat="43.052398351738375" lon="13.178292046440616"><ele>669.5</ele><time>2026-04-24T17:31:13Z</time></trkpt><trkpt lat="43.05250414753357" lon="13.178404835130914"><ele>667.0</ele><time>2026-04-24T17:31:14Z</time></trkpt><trkpt lat="43.052611482301046" lon="13.178519720027705"><ele>664.5</ele><time>2026-04-24T17:31:15Z</time></trkpt><trkpt lat="43.052718687337126" lon="13.178633497304329"><ele>662.0</ele><time>2026-04-24T17:31:16Z</time></trkpt><trkpt lat="43.05282828359289" lon="13.178749111613302"><ele>662.0</ele><time>2026-04-24T17:31:17Z</time></trkpt><trkpt lat="43.05293791135541" lon="13.178865483215072"><ele>662.0</ele><time>2026-04-24T17:31:18Z</time></trkpt><trkpt lat="43.05304496193247" lon="13.17897911910849"><ele>662.0</ele><time>2026-04-24T17:31:19Z</time></trkpt><trkpt lat="43.05314783240561" lon="13.179088317628183"><ele>662.0</ele><time>2026-04-24T17:31:20Z</time></trkpt><trkpt lat="43.05325904131119" lon="13.179206367749748"><ele>661.0</ele><time>2026-04-24T17:31:21Z</time></trkpt><trkpt lat="43.05337447460102" lon="13.17932915644961"><ele>660.0</ele><time>2026-04-24T17:31:22Z</time></trkpt><trkpt lat="43.05349357019926" lon="13.179455984861878"><ele>659.0</ele><time>2026-04-24T17:31:23Z</time></trkpt><trkpt lat="43.05362817273404" lon="13.179562490784406"><ele>659.0</ele><time>2026-04-24T17:31:24Z</time></trkpt><trkpt lat="43.053751492942126" lon="13.179693267561188"><ele>659.0</ele><time>2026-04-24T17:31:25Z</time></trkpt><trkpt lat="43.053867990715005" lon="13.179818740294165"><ele>659.0</ele><time>2026-04-24T17:31:26Z</time></trkpt><trkpt lat="43.053983328425595" lon="13.179944601039097"><ele>659.0</ele><time>2026-04-24T17:31:27Z</time></trkpt><trkpt lat="43.0541043625149" lon="13.180077066779283"><ele>659.0</ele><time>2026-04-24T17:31:28Z</time></trkpt><trkpt lat="43.05421642622874" lon="13.180193722946672"><ele>659.0</ele><time>2026-04-24T17:31:29Z</time></trkpt><trkpt lat="43.054324955498025" lon="13.180308297504352"><ele>659.0</ele><time>2026-04-24T17:31:30Z</time></trkpt><trkpt lat="43.05440773985294" lon="13.180447117839945"><ele>659.0</ele><time>2026-04-24T17:31:31Z</time></trkpt><trkpt lat="43.054489755595654" lon="13.180564295301542"><ele>659.0</ele><time>2026-04-24T17:31:32Z</time></trkpt><trkpt lat="43.05454643458739" lon="13.18070239029829"><ele>659.0</ele><time>2026-04-24T17:31:33Z</time></trkpt><trkpt lat="43.05457799350899" lon="13.180865128925848"><ele>659.0</ele><time>2026-04-24T17:31:34Z</time></trkpt><trkpt lat="43.05460605485226" lon="13.181039739001013"><ele>665.0</ele><time>2026-04-24T17:31:35Z</time></trkpt><trkpt lat="43.054644602469686" lon="13.181211917757512"><ele>671.0</ele><time>2026-04-24T17:31:36Z</time></trkpt><trkpt lat="43.05467224874666" lon="13.181381534987194"><ele>677.0</ele><time>2026-04-24T17:31:37Z</time></trkpt><trkpt lat="43.054699053684544" lon="13.181554620090818"><ele>683.0</ele><time>2026-04-24T17:31:38Z</time></trkpt><trkpt lat="43.0547221367596" lon="13.181720466676877"><ele>686.0</ele><time>2026-04-24T17:31:39Z</time></trkpt><trkpt lat="43.05472227255872" lon="13.181877658324618"><ele>689.0</ele><time>2026-04-24T17:31:40Z</time></trkpt><trkpt lat="43.05470529764169" lon="13.182026969085047"><ele>692.0</ele><time>2026-04-24T17:31:41Z</time></trkpt><trkpt lat="43.05466064832932" lon="13.182185192567664"><ele>695.0</ele><time>2026-04-24T17:31:42Z</time></trkpt><trkpt lat="43.054588357222904" lon="13.182334346206664"><ele>690.75</ele><time>2026-04-24T17:31:43Z</time></trkpt><trkpt lat="43.054505825405876" lon="13.182483906530242"><ele>686.5</ele><time>2026-04-24T17:31:44Z</time></trkpt><trkpt lat="43.054398540317536" lon="13.182589290783152"><ele>682.25</ele><time>2026-04-24T17:31:45Z</time></trkpt><trkpt lat="43.05428885935989" lon="13.1826877011112"><ele>678.0</ele><time>2026-04-24T17:31:46Z</time></trkpt><trkpt lat="43.05419337524694" lon="13.18280277605383"><ele>678.0</ele><time>2026-04-24T17:31:47Z</time></trkpt><trkpt lat="43.05412745123138" lon="13.182952300824699"><ele>678.0</ele><time>2026-04-24T17:31:48Z</time></trkpt><trkpt lat="43.05408977421048" lon="13.183115704236918"><ele>678.0</ele><time>2026-04-24T17:31:49Z</time></trkpt><trkpt lat="43.054062099078955" lon="13.183276043430187"><ele>678.0</ele><time>2026-04-24T17:31:50Z</time></trkpt><trkpt lat="43.05402836619288" lon="13.183415583602843"><ele>683.4</ele><time>2026-04-24T17:31:51Z</time></trkpt><trkpt lat="43.05397625811526" lon="13.183540103571096"><ele>688.8</ele><time>2026-04-24T17:31:52Z</time></trkpt><trkpt lat="43.05396488403532" lon="13.183678973908382"><ele>694.2</ele><time>2026-04-24T17:31:53Z</time></trkpt><trkpt lat="43.0539595370754" lon="13.183822687049744"><ele>699.6</ele><time>2026-04-24T17:31:53.999Z</time></trkpt><trkpt lat="43.05396354043417" lon="13.183973942903187"><ele>705.0</ele><time>2026-04-24T17:31:54.999Z</time></trkpt><trkpt lat="43.05395124909608" lon="13.184143177913613"><ele>705.0</ele><time>2026-04-24T17:31:55.999Z</time></trkpt><trkpt lat="43.05395403250046" lon="13.184309819094747"><ele>705.0</ele><time>2026-04-24T17:31:56.999Z</time></trkpt><trkpt lat="43.05395675665826" lon="13.184462932886277"><ele>705.0</ele><time>2026-04-24T17:31:57.999Z</time></trkpt><trkpt lat="43.05395861725084" lon="13.184609336156239"><ele>705.0</ele><time>2026-04-24T17:31:58.999Z</time></trkpt><trkpt lat="43.05396113909852" lon="13.184748554935581"><ele>705.0</ele><time>2026-04-24T17:31:59.999Z</time></trkpt><trkpt lat="43.0539764019744" lon="13.184866226631605"><ele>705.2</ele><time>2026-04-24T17:32:00.999Z</time></trkpt><trkpt lat="43.05402552582357" lon="13.184960200648634"><ele>705.4</ele><time>2026-04-24T17:32:01.999Z</time></trkpt><trkpt lat="43.05407184580754" lon="13.18504073685372"><ele>705.5999999999999</ele><time>2026-04-24T17:32:02.999Z</time></trkpt><trkpt lat="43.054176094994354" lon="13.185026274651506"><ele>705.8</ele><time>2026-04-24T17:32:03.999Z</time></trkpt><trkpt lat="43.05427327010563" lon="13.18496983913151"><ele>706.0</ele><time>2026-04-24T17:32:04.999Z</time></trkpt><trkpt lat="43.05434255009858" lon="13.184874336334675"><ele>694.8</ele><time>2026-04-24T17:32:05.999Z</time></trkpt><trkpt lat="43.05438999564294" lon="13.184740960330185"><ele>683.5999999999999</ele><time>2026-04-24T17:32:06.999Z</time></trkpt><trkpt lat="43.05442809257088" lon="13.18459405051121"><ele>672.4</ele><time>2026-04-24T17:32:07.999Z</time></trkpt><trkpt lat="43.05446072444439" lon="13.184447358118115"><ele>661.2</ele><time>2026-04-24T17:32:08.999Z</time></trkpt><trkpt lat="43.05447601503326" lon="13.184296158866927"><ele>650.0</ele><time>2026-04-24T17:32:09.999Z</time></trkpt><trkpt lat="43.05448480594157" lon="13.184133613128154"><ele>651.2</ele><time>2026-04-24T17:32:10.999Z</time></trkpt><trkpt lat="43.05449344858893" lon="13.183986721973096"><ele>652.4</ele><time>2026-04-24T17:32:11.999Z</time></trkpt><trkpt lat="43.05452024397203" lon="13.183852843586878"><ele>653.5999999999999</ele><time>2026-04-24T17:32:12.999Z</time></trkpt><trkpt lat="43.05457080535402" lon="13.18374120571755"><ele>654.8</ele><time>2026-04-24T17:32:13.999Z</time></trkpt><trkpt lat="43.05465224319869" lon="13.18365995551177"><ele>656.0</ele><time>2026-04-24T17:32:14.999Z</time></trkpt><trkpt lat="43.054759775734524" lon="13.183653474411718"><ele>656.0</ele><time>2026-04-24T17:32:15.999Z</time></trkpt><trkpt lat="43.05487203023889" lon="13.183670367261026"><ele>656.0</ele><time>2026-04-24T17:32:16.999Z</time></trkpt><trkpt lat="43.054989935866274" lon="13.183662012277788"><ele>656.0</ele><time>2026-04-24T17:32:17.999Z</time></trkpt><trkpt lat="43.055102925669374" lon="13.183672471164847"><ele>656.0</ele><time>2026-04-24T17:32:18.999Z</time></trkpt><trkpt lat="43.055211665134124" lon="13.183641876328117"><ele>653.0</ele><time>2026-04-24T17:32:19.999Z</time></trkpt><trkpt lat="43.055320878840135" lon="13.183589628730457"><ele>650.0</ele><time>2026-04-24T17:32:20.999Z</time></trkpt><trkpt lat="43.05542683435606" lon="13.183529756507744"><ele>647.0</ele><time>2026-04-24T17:32:21.999Z</time></trkpt><trkpt lat="43.05552587987429" lon="13.183452924618331"><ele>644.0</ele><time>2026-04-24T17:32:22.999Z</time></trkpt><trkpt lat="43.05561238093527" lon="13.183343547729377"><ele>644.0</ele><time>2026-04-24T17:32:23.999Z</time></trkpt><trkpt lat="43.0556849125498" lon="13.183206794450857"><ele>644.0</ele><time>2026-04-24T17:32:24.999Z</time></trkpt><trkpt lat="43.05575047334581" lon="13.183059067849692"><ele>644.0</ele><time>2026-04-24T17:32:25.999Z</time></trkpt><trkpt lat="43.05580730547878" lon="13.18290902561374"><ele>644.0</ele><time>2026-04-24T17:32:26.999Z</time></trkpt><trkpt lat="43.05586302090032" lon="13.182759849584901"><ele>644.5</ele><time>2026-04-24T17:32:27.999Z</time></trkpt><trkpt lat="43.05590890123156" lon="13.182611829828327"><ele>645.0</ele><time>2026-04-24T17:32:28.999Z</time></trkpt><trkpt lat="43.055955654418" lon="13.182461783677851"><ele>645.5</ele><time>2026-04-24T17:32:29.999Z</time></trkpt><trkpt lat="43.05599781825599" lon="13.182307158977792"><ele>646.0</ele><time>2026-04-24T17:32:30.999Z</time></trkpt><trkpt lat="43.05603819149445" lon="13.182144556980028"><ele>644.5999999999999</ele><time>2026-04-24T17:32:31.999Z</time></trkpt><trkpt lat="43.05607335813488" lon="13.181998541914714"><ele>643.1999999999999</ele><time>2026-04-24T17:32:32.999Z</time></trkpt><trkpt lat="43.05611614377626" lon="13.181861522371204"><ele>641.8</ele><time>2026-04-24T17:32:33.999Z</time></trkpt><trkpt lat="43.056172995373096" lon="13.181736397868487"><ele>640.4</ele><time>2026-04-24T17:32:34.999Z</time></trkpt><trkpt lat="43.056247832193634" lon="13.181637008112657"><ele>639.0</ele><time>2026-04-24T17:32:35.999Z</time></trkpt><trkpt lat="43.05633541949295" lon="13.181566796641858"><ele>639.0</ele><time>2026-04-24T17:32:36.998Z</time></trkpt><trkpt lat="43.05643925722601" lon="13.181544389256773"><ele>639.0</ele><time>2026-04-24T17:32:37.998Z</time></trkpt><trkpt lat="43.05654042550001" lon="13.181609219535174"><ele>639.0</ele><time>2026-04-24T17:32:38.998Z</time></trkpt><trkpt lat="43.05663791428213" lon="13.181692368174664"><ele>639.0</ele><time>2026-04-24T17:32:39.998Z</time></trkpt><trkpt lat="43.05674543171269" lon="13.181769777988354"><ele>639.0</ele><time>2026-04-24T17:32:40.998Z</time></trkpt><trkpt lat="43.05684154278809" lon="13.181861708899888"><ele>639.0</ele><time>2026-04-24T17:32:41.998Z</time></trkpt><trkpt lat="43.05692901569616" lon="13.181979029820537"><ele>639.0</ele><time>2026-04-24T17:32:42.998Z</time></trkpt><trkpt lat="43.057022208696" lon="13.182085273298956"><ele>639.0</ele><time>2026-04-24T17:32:43.998Z</time></trkpt><trkpt lat="43.05712751137962" lon="13.182177284728196"><ele>639.0</ele><time>2026-04-24T17:32:44.998Z</time></trkpt><trkpt lat="43.05722198213415" lon="13.182287800128439"><ele>639.0</ele><time>2026-04-24T17:32:45.998Z</time></trkpt><trkpt lat="43.057316345487564" lon="13.182400394027118"><ele>639.0</ele><time>2026-04-24T17:32:46.998Z</time></trkpt><trkpt lat="43.057412252584456" lon="13.182515565722353"><ele>639.0</ele><time>2026-04-24T17:32:47.998Z</time></trkpt><trkpt lat="43.057507839084835" lon="13.18263181673594"><ele>640.0</ele><time>2026-04-24T17:32:48.998Z</time></trkpt><trkpt lat="43.057604270917714" lon="13.182745611127752"><ele>641.0</ele><time>2026-04-24T17:32:49.998Z</time></trkpt><trkpt lat="43.05770848416805" lon="13.182844195185735"><ele>642.0</ele><time>2026-04-24T17:32:50.998Z</time></trkpt><trkpt lat="43.05782142361935" lon="13.182931541244605"><ele>643.0</ele><time>2026-04-24T17:32:51.998Z</time></trkpt><trkpt lat="43.0579348981438" lon="13.183014522357363"><ele>643.0</ele><time>2026-04-24T17:32:52.998Z</time></trkpt><trkpt lat="43.058042799504065" lon="13.18311105248514"><ele>643.0</ele><time>2026-04-24T17:32:53.998Z</time></trkpt><trkpt lat="43.05815795197273" lon="13.183193472747362"><ele>643.0</ele><time>2026-04-24T17:32:54.998Z</time></trkpt><trkpt lat="43.05828033017455" lon="13.183256037823064"><ele>643.0</ele><time>2026-04-24T17:32:55.998Z</time></trkpt><trkpt lat="43.0583969681442" lon="13.18334270267834"><ele>644.0</ele><time>2026-04-24T17:32:56.998Z</time></trkpt><trkpt lat="43.05851313969989" lon="13.183426431532048"><ele>645.0</ele><time>2026-04-24T17:32:58Z</time></trkpt><trkpt lat="43.05862927289008" lon="13.18351010679725"><ele>646.0</ele><time>2026-04-24T17:32:59Z</time></trkpt><trkpt lat="43.05873726521512" lon="13.183614199921085"><ele>647.0</ele><time>2026-04-24T17:33:00Z</time></trkpt><trkpt lat="43.05885244294031" lon="13.183698059881147"><ele>647.0</ele><time>2026-04-24T17:33:01Z</time></trkpt><trkpt lat="43.05896454071313" lon="13.18377967731801"><ele>647.0</ele><time>2026-04-24T17:33:02Z</time></trkpt><trkpt lat="43.05907559328888" lon="13.183860533821985"><ele>647.0</ele><time>2026-04-24T17:33:03Z</time></trkpt><trkpt lat="43.05918641035463" lon="13.18394097719646"><ele>647.0</ele><time>2026-04-24T17:33:04Z</time></trkpt><trkpt lat="43.05930130934053" lon="13.184013792618845"><ele>650.25</ele><time>2026-04-24T17:33:05Z</time></trkpt><trkpt lat="43.05942093577485" lon="13.184054621754322"><ele>653.5</ele><time>2026-04-24T17:33:06Z</time></trkpt><trkpt lat="43.05952422201188" lon="13.184139536128484"><ele>656.75</ele><time>2026-04-24T17:33:07Z</time></trkpt><trkpt lat="43.05960192777087" lon="13.18426272247047"><ele>660.0</ele><time>2026-04-24T17:33:08Z</time></trkpt><trkpt lat="43.05968414741909" lon="13.184379563412111"><ele>660.0</ele><time>2026-04-24T17:33:09Z</time></trkpt><trkpt lat="43.059767142311586" lon="13.184500856135843"><ele>660.0</ele><time>2026-04-24T17:33:10Z</time></trkpt><trkpt lat="43.05985152733339" lon="13.184625461664547"><ele>660.0</ele><time>2026-04-24T17:33:11Z</time></trkpt><trkpt lat="43.059934369677535" lon="13.184748466158913"><ele>660.0</ele><time>2026-04-24T17:33:12Z</time></trkpt><trkpt lat="43.0600169966552" lon="13.184870053399326"><ele>658.5</ele><time>2026-04-24T17:33:13Z</time></trkpt><trkpt lat="43.0600979859351" lon="13.184986002831241"><ele>657.0</ele><time>2026-04-24T17:33:14Z</time></trkpt><trkpt lat="43.06018148467533" lon="13.185096923121808"><ele>655.5</ele><time>2026-04-24T17:33:15Z</time></trkpt><trkpt lat="43.06026691268857" lon="13.185204774543523"><ele>654.0</ele><time>2026-04-24T17:33:16Z</time></trkpt><trkpt lat="43.06035205733307" lon="13.185314595170698"><ele>654.0</ele><time>2026-04-24T17:33:17Z</time></trkpt><trkpt lat="43.06043468365351" lon="13.185426598246895"><ele>654.0</ele><time>2026-04-24T17:33:18Z</time></trkpt><trkpt lat="43.060509720616224" lon="13.185538706643742"><ele>654.0</ele><time>2026-04-24T17:33:19Z</time></trkpt><trkpt lat="43.0605826571917" lon="13.18565852008179"><ele>654.0</ele><time>2026-04-24T17:33:20Z</time></trkpt><trkpt lat="43.0606556165737" lon="13.185788947439386"><ele>650.5</ele><time>2026-04-24T17:33:21Z</time></trkpt><trkpt lat="43.0607264900045" lon="13.18592535266086"><ele>647.0</ele><time>2026-04-24T17:33:21.999Z</time></trkpt><trkpt lat="43.0607996702386" lon="13.186067882557657"><ele>643.5</ele><time>2026-04-24T17:33:22.999Z</time></trkpt><trkpt lat="43.06087419059344" lon="13.186207783920992"><ele>640.0</ele><time>2026-04-24T17:33:23.999Z</time></trkpt><trkpt lat="43.0609511541132" lon="13.18634914553046"><ele>640.0</ele><time>2026-04-24T17:33:24.999Z</time></trkpt><trkpt lat="43.06102868025385" lon="13.186489202325227"><ele>640.0</ele><time>2026-04-24T17:33:25.999Z</time></trkpt><trkpt lat="43.06112149829038" lon="13.186609663713517"><ele>640.0</ele><time>2026-04-24T17:33:26.999Z</time></trkpt><trkpt lat="43.06120430005127" lon="13.186733550199564"><ele>640.0</ele><time>2026-04-24T17:33:27.999Z</time></trkpt><trkpt lat="43.06129400467038" lon="13.186851845202538"><ele>641.25</ele><time>2026-04-24T17:33:28.999Z</time></trkpt><trkpt lat="43.061383545851825" lon="13.186968763809439"><ele>642.5</ele><time>2026-04-24T17:33:29.999Z</time></trkpt><trkpt lat="43.06147040849281" lon="13.187088892195334"><ele>643.75</ele><time>2026-04-24T17:33:30.999Z</time></trkpt><trkpt lat="43.0615534463336" lon="13.187215844146923"><ele>645.0</ele><time>2026-04-24T17:33:31.999Z</time></trkpt><trkpt lat="43.061633368864904" lon="13.187346316185609"><ele>645.0</ele><time>2026-04-24T17:33:32.999Z</time></trkpt><trkpt lat="43.061696781857535" lon="13.187495113809879"><ele>645.0</ele><time>2026-04-24T17:33:33.999Z</time></trkpt><trkpt lat="43.061768579930536" lon="13.187635182640516"><ele>645.0</ele><time>2026-04-24T17:33:34.999Z</time></trkpt><trkpt lat="43.06182996710942" lon="13.187778511352406"><ele>645.0</ele><time>2026-04-24T17:33:35.999Z</time></trkpt><trkpt lat="43.06188509655053" lon="13.1879293944113"><ele>645.0</ele><time>2026-04-24T17:33:36.999Z</time></trkpt><trkpt lat="43.06193934826225" lon="13.188078837091753"><ele>645.0</ele><time>2026-04-24T17:33:37.999Z</time></trkpt><trkpt lat="43.061949239108465" lon="13.188245269682573"><ele>645.0</ele><time>2026-04-24T17:33:38.999Z</time></trkpt><trkpt lat="43.0619577313493" lon="13.188408994300358"><ele>645.0</ele><time>2026-04-24T17:33:39.999Z</time></trkpt><trkpt lat="43.06198792901238" lon="13.188571194055628"><ele>651.5</ele><time>2026-04-24T17:33:40.999Z</time></trkpt><trkpt lat="43.062031714425366" lon="13.18872839571071"><ele>658.0</ele><time>2026-04-24T17:33:41.999Z</time></trkpt><trkpt lat="43.06212019098447" lon="13.188853277688477"><ele>664.5</ele><time>2026-04-24T17:33:42.999Z</time></trkpt><trkpt lat="43.062184177051755" lon="13.188998080233702"><ele>671.0</ele><time>2026-04-24T17:33:43.999Z</time></trkpt><trkpt lat="43.06225465302501" lon="13.189127594311106"><ele>675.25</ele><time>2026-04-24T17:33:44.999Z</time></trkpt><trkpt lat="43.062320099341626" lon="13.18925683657782"><ele>679.5</ele><time>2026-04-24T17:33:45.999Z</time></trkpt><trkpt lat="43.06237070284524" lon="13.189396534821004"><ele>683.75</ele><time>2026-04-24T17:33:46.999Z</time></trkpt><trkpt lat="43.06236435971929" lon="13.189555047857413"><ele>688.0</ele><time>2026-04-24T17:33:47.999Z</time></trkpt><trkpt lat="43.06230426047158" lon="13.189699325063321"><ele>694.25</ele><time>2026-04-24T17:33:48.999Z</time></trkpt><trkpt lat="43.06227271060021" lon="13.189850933773702"><ele>700.5</ele><time>2026-04-24T17:33:49.999Z</time></trkpt><trkpt lat="43.06224507244908" lon="13.190000413579574"><ele>706.75</ele><time>2026-04-24T17:33:50.999Z</time></trkpt><trkpt lat="43.06224068208952" lon="13.190155892960647"><ele>713.0</ele><time>2026-04-24T17:33:51.999Z</time></trkpt><trkpt lat="43.062256099190705" lon="13.190310837845432"><ele>713.0</ele><time>2026-04-24T17:33:52.999Z</time></trkpt><trkpt lat="43.06228417002519" lon="13.190465552302467"><ele>713.0</ele><time>2026-04-24T17:33:53.999Z</time></trkpt><trkpt lat="43.06235783131287" lon="13.190595569617516"><ele>713.0</ele><time>2026-04-24T17:33:54.999Z</time></trkpt><trkpt lat="43.06246647662485" lon="13.190662012708845"><ele>713.0</ele><time>2026-04-24T17:33:55.999Z</time></trkpt><trkpt lat="43.06258058235623" lon="13.190701558407051"><ele>704.5</ele><time>2026-04-24T17:33:56.999Z</time></trkpt><trkpt lat="43.06270697584617" lon="13.190707298332116"><ele>696.0</ele><time>2026-04-24T17:33:57.999Z</time></trkpt><trkpt lat="43.06282845584627" lon="13.190702192531875"><ele>687.5</ele><time>2026-04-24T17:33:58.999Z</time></trkpt><trkpt lat="43.062947466684456" lon="13.190688334421848"><ele>679.0</ele><time>2026-04-24T17:33:59.999Z</time></trkpt><trkpt lat="43.063060910640665" lon="13.190679558449919"><ele>679.0</ele><time>2026-04-24T17:34:00.999Z</time></trkpt><trkpt lat="43.06316585067928" lon="13.190720528524485"><ele>679.0</ele><time>2026-04-24T17:34:01.999Z</time></trkpt><trkpt lat="43.06326327275585" lon="13.190756699770125"><ele>679.0</ele><time>2026-04-24T17:34:02.999Z</time></trkpt><trkpt lat="43.063332845129395" lon="13.190876091890901"><ele>679.0</ele><time>2026-04-24T17:34:03.999Z</time></trkpt><trkpt lat="43.06340184507311" lon="13.191004617132682"><ele>679.0</ele><time>2026-04-24T17:34:04.999Z</time></trkpt><trkpt lat="43.063468011803245" lon="13.191137711756918"><ele>675.75</ele><time>2026-04-24T17:34:05.999Z</time></trkpt><trkpt lat="43.063532224404554" lon="13.191275754226792"><ele>672.5</ele><time>2026-04-24T17:34:06.999Z</time></trkpt><trkpt lat="43.06359292618726" lon="13.191413044780905"><ele>669.25</ele><time>2026-04-24T17:34:07.999Z</time></trkpt><trkpt lat="43.06365100831578" lon="13.191550790163657"><ele>666.0</ele><time>2026-04-24T17:34:08.999Z</time></trkpt><trkpt lat="43.06369953461763" lon="13.191688325463735"><ele>671.4</ele><time>2026-04-24T17:34:09.999Z</time></trkpt><trkpt lat="43.063731075879524" lon="13.19183287890456"><ele>676.8</ele><time>2026-04-24T17:34:10.999Z</time></trkpt><trkpt lat="43.063754206117636" lon="13.191982285226675"><ele>682.1999999999999</ele><time>2026-04-24T17:34:11.999Z</time></trkpt><trkpt lat="43.06376973380303" lon="13.192135200592215"><ele>687.5999999999999</ele><time>2026-04-24T17:34:12.999Z</time></trkpt><trkpt lat="43.063778327143226" lon="13.19228610787051"><ele>693.0</ele><time>2026-04-24T17:34:13.999Z</time></trkpt><trkpt lat="43.06378457804537" lon="13.192441396458237"><ele>696.2</ele><time>2026-04-24T17:34:14.999Z</time></trkpt><trkpt lat="43.06379672560947" lon="13.192593754795169"><ele>699.4</ele><time>2026-04-24T17:34:15.999Z</time></trkpt><trkpt lat="43.063800860061654" lon="13.19273605206779"><ele>702.6</ele><time>2026-04-24T17:34:16.999Z</time></trkpt><trkpt lat="43.06376716895398" lon="13.192869143138834"><ele>705.8000000000001</ele><time>2026-04-24T17:34:17.999Z</time></trkpt><trkpt lat="43.06369989162035" lon="13.192990507304529"><ele>709.0</ele><time>2026-04-24T17:34:18.999Z</time></trkpt><trkpt lat="43.063658100818" lon="13.193123737270632"><ele>710.8000000000001</ele><time>2026-04-24T17:34:19.999Z</time></trkpt><trkpt lat="43.06361887312136" lon="13.193250681632309"><ele>712.6</ele><time>2026-04-24T17:34:20.999Z</time></trkpt><trkpt lat="43.06365352206211" lon="13.193396321857545"><ele>714.4</ele><time>2026-04-24T17:34:21.999Z</time></trkpt><trkpt lat="43.0636846264492" lon="13.193528762632688"><ele>716.2</ele><time>2026-04-24T17:34:22.999Z</time></trkpt><trkpt lat="43.06376524452347" lon="13.19363919316491"><ele>718.0</ele><time>2026-04-24T17:34:23.999Z</time></trkpt><trkpt lat="43.06388707826037" lon="13.193686867299409"><ele>718.0</ele><time>2026-04-24T17:34:24.999Z</time></trkpt><trkpt lat="43.063985243023815" lon="13.193764207444495"><ele>718.0</ele><time>2026-04-24T17:34:25.999Z</time></trkpt><trkpt lat="43.06406978881064" lon="13.19385112477282"><ele>718.0</ele><time>2026-04-24T17:34:26.999Z</time></trkpt><trkpt lat="43.064129292374595" lon="13.19397036875136"><ele>718.0</ele><time>2026-04-24T17:34:27.999Z</time></trkpt><trkpt lat="43.06417233475517" lon="13.19410316043213"><ele>718.0</ele><time>2026-04-24T17:34:28.999Z</time></trkpt><trkpt lat="43.064171290162975" lon="13.19424189068296"><ele>714.75</ele><time>2026-04-24T17:34:29.999Z</time></trkpt><trkpt lat="43.064175383697695" lon="13.194407761635222"><ele>711.5</ele><time>2026-04-24T17:34:30.999Z</time></trkpt><trkpt lat="43.06418857977882" lon="13.194573527089515"><ele>708.25</ele><time>2026-04-24T17:34:31.999Z</time></trkpt><trkpt lat="43.0642009164324" lon="13.194734528208475"><ele>705.0</ele><time>2026-04-24T17:34:32.999Z</time></trkpt><trkpt lat="43.06420624303981" lon="13.194895308321938"><ele>705.0</ele><time>2026-04-24T17:34:33.999Z</time></trkpt><trkpt lat="43.064188739706125" lon="13.195038989836029"><ele>705.0</ele><time>2026-04-24T17:34:34.999Z</time></trkpt><trkpt lat="43.06415022036858" lon="13.195176076655082"><ele>705.0</ele><time>2026-04-24T17:34:35.999Z</time></trkpt><trkpt lat="43.06409994322147" lon="13.195315840548897"><ele>705.0</ele><time>2026-04-24T17:34:36.999Z</time></trkpt><trkpt lat="43.06403665809513" lon="13.195448595929399"><ele>705.0</ele><time>2026-04-24T17:34:37.999Z</time></trkpt><trkpt lat="43.06396894161056" lon="13.195576102648694"><ele>715.0</ele><time>2026-04-24T17:34:38.999Z</time></trkpt><trkpt lat="43.06389895032" lon="13.195704467395824"><ele>725.0</ele><time>2026-04-24T17:34:39.999Z</time></trkpt><trkpt lat="43.06384379207723" lon="13.1958556261684"><ele>735.0</ele><time>2026-04-24T17:34:40.999Z</time></trkpt><trkpt lat="43.06379558351469" lon="13.195992184604632"><ele>745.0</ele><time>2026-04-24T17:34:41.999Z</time></trkpt><trkpt lat="43.06373017937441" lon="13.19613595901709"><ele>745.0</ele><time>2026-04-24T17:34:42.999Z</time></trkpt><trkpt lat="43.06366596857043" lon="13.196266524037615"><ele>745.0</ele><time>2026-04-24T17:34:43.999Z</time></trkpt><trkpt lat="43.063579453481104" lon="13.196369858407856"><ele>745.0</ele><time>2026-04-24T17:34:44.999Z</time></trkpt><trkpt lat="43.063508373706846" lon="13.19650400921786"><ele>745.0</ele><time>2026-04-24T17:34:45.999Z</time></trkpt><trkpt lat="43.06346223404086" lon="13.196656754844179"><ele>739.75</ele><time>2026-04-24T17:34:46.999Z</time></trkpt><trkpt lat="43.06342200055818" lon="13.196809788573331"><ele>734.5</ele><time>2026-04-24T17:34:47.998Z</time></trkpt><trkpt lat="43.06337347648876" lon="13.196952633049543"><ele>729.25</ele><time>2026-04-24T17:34:48.998Z</time></trkpt><trkpt lat="43.06330741704757" lon="13.1970750155069"><ele>724.0</ele><time>2026-04-24T17:34:49.998Z</time></trkpt><trkpt lat="43.06323595104914" lon="13.19720135631917"><ele>728.0</ele><time>2026-04-24T17:34:50.998Z</time></trkpt><trkpt lat="43.06314900441195" lon="13.197276333175717"><ele>732.0</ele><time>2026-04-24T17:34:51.998Z</time></trkpt><trkpt lat="43.06306609054889" lon="13.197334629268546"><ele>736.0</ele><time>2026-04-24T17:34:52.998Z</time></trkpt><trkpt lat="43.06299599494695" lon="13.197406535977208"><ele>740.0</ele><time>2026-04-24T17:34:53.998Z</time></trkpt><trkpt lat="43.06293830299275" lon="13.197499072828503"><ele>744.0</ele><time>2026-04-24T17:34:54.998Z</time></trkpt><trkpt lat="43.06291868488578" lon="13.197635575010832"><ele>744.0</ele><time>2026-04-24T17:34:55.998Z</time></trkpt><trkpt lat="43.06295734710265" lon="13.197786476508309"><ele>744.0</ele><time>2026-04-24T17:34:56.998Z</time></trkpt><trkpt lat="43.06303342289632" lon="13.197881179147533"><ele>744.0</ele><time>2026-04-24T17:34:57.998Z</time></trkpt><trkpt lat="43.06316953716536" lon="13.197868175512854"><ele>744.0</ele><time>2026-04-24T17:34:58.998Z</time></trkpt><trkpt lat="43.06328681150722" lon="13.197872675691043"><ele>740.25</ele><time>2026-04-24T17:34:59.998Z</time></trkpt><trkpt lat="43.06338541093451" lon="13.197949833919306"><ele>736.5</ele><time>2026-04-24T17:35:00.998Z</time></trkpt><trkpt lat="43.06347656440246" lon="13.19804503185773"><ele>732.75</ele><time>2026-04-24T17:35:01.998Z</time></trkpt><trkpt lat="43.063567917914035" lon="13.198165830992632"><ele>729.0</ele><time>2026-04-24T17:35:02.998Z</time></trkpt><trkpt lat="43.063666956642" lon="13.19825810386739"><ele>729.0</ele><time>2026-04-24T17:35:04Z</time></trkpt><trkpt lat="43.06378194808914" lon="13.19832422702103"><ele>729.0</ele><time>2026-04-24T17:35:05Z</time></trkpt><trkpt lat="43.063900343901345" lon="13.198367141202574"><ele>729.0</ele><time>2026-04-24T17:35:06Z</time></trkpt><trkpt lat="43.064025177972475" lon="13.198363259134576"><ele>729.0</ele><time>2026-04-24T17:35:07Z</time></trkpt><trkpt lat="43.06414397247343" lon="13.19835694876362"><ele>726.4000000000001</ele><time>2026-04-24T17:35:08Z</time></trkpt><trkpt lat="43.064261512835714" lon="13.198359209871283"><ele>723.8</ele><time>2026-04-24T17:35:09Z</time></trkpt><trkpt lat="43.06437201449258" lon="13.198343944687664"><ele>721.2</ele><time>2026-04-24T17:35:10Z</time></trkpt><trkpt lat="43.06447325930388" lon="13.198334349306146"><ele>718.5999999999999</ele><time>2026-04-24T17:35:11Z</time></trkpt><trkpt lat="43.0645711595545" lon="13.198349501662912"><ele>716.0</ele><time>2026-04-24T17:35:12Z</time></trkpt><trkpt lat="43.06466515787877" lon="13.198412953458572"><ele>716.0</ele><time>2026-04-24T17:35:13Z</time></trkpt><trkpt lat="43.06475380143937" lon="13.198506482028552"><ele>716.0</ele><time>2026-04-24T17:35:14Z</time></trkpt><trkpt lat="43.06481971621791" lon="13.198641446506047"><ele>716.0</ele><time>2026-04-24T17:35:15Z</time></trkpt><trkpt lat="43.064893150993136" lon="13.19877955049568"><ele>716.0</ele><time>2026-04-24T17:35:16Z</time></trkpt><trkpt lat="43.06496864712528" lon="13.19892349863562"><ele>718.25</ele><time>2026-04-24T17:35:17Z</time></trkpt><trkpt lat="43.065041786904565" lon="13.199065859879038"><ele>720.5</ele><time>2026-04-24T17:35:18Z</time></trkpt><trkpt lat="43.06512193725273" lon="13.199213288772933"><ele>722.75</ele><time>2026-04-24T17:35:19Z</time></trkpt><trkpt lat="43.06520715648369" lon="13.199350101664965"><ele>725.0</ele><time>2026-04-24T17:35:20Z</time></trkpt><trkpt lat="43.065295556421454" lon="13.19948440716146"><ele>725.0</ele><time>2026-04-24T17:35:21Z</time></trkpt><trkpt lat="43.0653814371704" lon="13.199613595157016"><ele>725.0</ele><time>2026-04-24T17:35:22Z</time></trkpt><trkpt lat="43.06546663885354" lon="13.199742994521424"><ele>725.0</ele><time>2026-04-24T17:35:23Z</time></trkpt><trkpt lat="43.06554937081204" lon="13.19987526500302"><ele>725.0</ele><time>2026-04-24T17:35:24Z</time></trkpt><trkpt lat="43.065630348102864" lon="13.200008693469506"><ele>723.75</ele><time>2026-04-24T17:35:25Z</time></trkpt><trkpt lat="43.065710174610366" lon="13.200141131072796"><ele>722.5</ele><time>2026-04-24T17:35:26Z</time></trkpt><trkpt lat="43.06578868028336" lon="13.200271725467914"><ele>721.25</ele><time>2026-04-24T17:35:27Z</time></trkpt><trkpt lat="43.06586624821115" lon="13.200401548581468"><ele>720.0</ele><time>2026-04-24T17:35:28Z</time></trkpt><trkpt lat="43.065943789761484" lon="13.200531327696504"><ele>727.0</ele><time>2026-04-24T17:35:29Z</time></trkpt><trkpt lat="43.06602613686255" lon="13.200668457716233"><ele>734.0</ele><time>2026-04-24T17:35:30Z</time></trkpt><trkpt lat="43.06610673781816" lon="13.200801369826502"><ele>741.0</ele><time>2026-04-24T17:35:30.999Z</time></trkpt><trkpt lat="43.06618915306575" lon="13.2009372736791"><ele>748.0</ele><time>2026-04-24T17:35:31.999Z</time></trkpt><trkpt lat="43.06627476391694" lon="13.201078056760755"><ele>748.0</ele><time>2026-04-24T17:35:32.999Z</time></trkpt><trkpt lat="43.06635814005735" lon="13.201213136073545"><ele>748.0</ele><time>2026-04-24T17:35:33.999Z</time></trkpt><trkpt lat="43.06644160389367" lon="13.201342782196042"><ele>748.0</ele><time>2026-04-24T17:35:34.999Z</time></trkpt><trkpt lat="43.06653019247989" lon="13.201471426253228"><ele>748.0</ele><time>2026-04-24T17:35:35.999Z</time></trkpt><trkpt lat="43.06662466234156" lon="13.20159524177305"><ele>746.0</ele><time>2026-04-24T17:35:36.999Z</time></trkpt><trkpt lat="43.066720690066134" lon="13.20171638616609"><ele>744.0</ele><time>2026-04-24T17:35:37.999Z</time></trkpt><trkpt lat="43.06681924831427" lon="13.201839806765864"><ele>742.0</ele><time>2026-04-24T17:35:38.999Z</time></trkpt><trkpt lat="43.06691898000436" lon="13.201958564758282"><ele>740.0</ele><time>2026-04-24T17:35:39.999Z</time></trkpt><trkpt lat="43.06702126054131" lon="13.202074771090802"><ele>740.0</ele><time>2026-04-24T17:35:40.999Z</time></trkpt><trkpt lat="43.06712245040161" lon="13.202186144043237"><ele>740.0</ele><time>2026-04-24T17:35:41.999Z</time></trkpt><trkpt lat="43.06721625714556" lon="13.202293549145203"><ele>740.0</ele><time>2026-04-24T17:35:42.999Z</time></trkpt><trkpt lat="43.067294495528586" lon="13.202390627536172"><ele>740.0</ele><time>2026-04-24T17:35:43.999Z</time></trkpt><trkpt lat="43.06736367315471" lon="13.202483752449451"><ele>744.1666666666666</ele><time>2026-04-24T17:35:44.999Z</time></trkpt><trkpt lat="43.067382898811836" lon="13.202572592645911"><ele>748.3333333333333</ele><time>2026-04-24T17:35:45.999Z</time></trkpt><trkpt lat="43.067372534476775" lon="13.202669751019759"><ele>752.5</ele><time>2026-04-24T17:35:46.999Z</time></trkpt><trkpt lat="43.06729437022581" lon="13.202753098155812"><ele>756.6666666666666</ele><time>2026-04-24T17:35:47.999Z</time></trkpt><trkpt lat="43.0672088698988" lon="13.202811615257943"><ele>760.8333333333334</ele><time>2026-04-24T17:35:48.999Z</time></trkpt><trkpt lat="43.06711449569536" lon="13.202873038748855"><ele>765.0</ele><time>2026-04-24T17:35:49.999Z</time></trkpt><trkpt lat="43.06702084640887" lon="13.202952548368659"><ele>765.0</ele><time>2026-04-24T17:35:50.999Z</time></trkpt><trkpt lat="43.06692790356409" lon="13.203039997375706"><ele>765.0</ele><time>2026-04-24T17:35:51.999Z</time></trkpt><trkpt lat="43.06682492118172" lon="13.203120531039044"><ele>765.0</ele><time>2026-04-24T17:35:52.999Z</time></trkpt><trkpt lat="43.06671932936464" lon="13.203199516123817"><ele>765.0</ele><time>2026-04-24T17:35:53.999Z</time></trkpt><trkpt lat="43.06662342428668" lon="13.20329009286801"><ele>774.5</ele><time>2026-04-24T17:35:54.999Z</time></trkpt><trkpt lat="43.0665270899541" lon="13.203379013713985"><ele>784.0</ele><time>2026-04-24T17:35:55.999Z</time></trkpt><trkpt lat="43.06647686105157" lon="13.203534331911131"><ele>793.5</ele><time>2026-04-24T17:35:56.999Z</time></trkpt><trkpt lat="43.066405871225285" lon="13.203673672622788"><ele>803.0</ele><time>2026-04-24T17:35:57.999Z</time></trkpt><trkpt lat="43.06635251660377" lon="13.203818374738685"><ele>803.0</ele><time>2026-04-24T17:35:58.999Z</time></trkpt><trkpt lat="43.06629168721991" lon="13.203952809978201"><ele>803.0</ele><time>2026-04-24T17:35:59.999Z</time></trkpt><trkpt lat="43.06621987833703" lon="13.204081402649152"><ele>803.0</ele><time>2026-04-24T17:36:00.999Z</time></trkpt><trkpt lat="43.066146136767195" lon="13.204208471985947"><ele>803.0</ele><time>2026-04-24T17:36:01.999Z</time></trkpt><trkpt lat="43.06607136661731" lon="13.204339944854704"><ele>798.0</ele><time>2026-04-24T17:36:02.999Z</time></trkpt><trkpt lat="43.06600834246577" lon="13.204488550005486"><ele>793.0</ele><time>2026-04-24T17:36:03.999Z</time></trkpt><trkpt lat="43.06595622371164" lon="13.204632655584756"><ele>788.0</ele><time>2026-04-24T17:36:04.999Z</time></trkpt><trkpt lat="43.06588518797246" lon="13.204747133543778"><ele>783.0</ele><time>2026-04-24T17:36:05.999Z</time></trkpt><trkpt lat="43.065795288794824" lon="13.204838129914357"><ele>788.4</ele><time>2026-04-24T17:36:06.999Z</time></trkpt><trkpt lat="43.06570726010303" lon="13.204938129626429"><ele>793.8</ele><time>2026-04-24T17:36:07.999Z</time></trkpt><trkpt lat="43.065617317388664" lon="13.205020297073522"><ele>799.2</ele><time>2026-04-24T17:36:08.999Z</time></trkpt><trkpt lat="43.065546700833806" lon="13.205098689253953"><ele>804.6</ele><time>2026-04-24T17:36:09.999Z</time></trkpt><trkpt lat="43.0654963104969" lon="13.205188073436243"><ele>810.0</ele><time>2026-04-24T17:36:10.999Z</time></trkpt><trkpt lat="43.06545111965366" lon="13.205288441667662"><ele>810.0</ele><time>2026-04-24T17:36:11.999Z</time></trkpt><trkpt lat="43.065462188148096" lon="13.205436884240319"><ele>810.0</ele><time>2026-04-24T17:36:12.999Z</time></trkpt><trkpt lat="43.06550472878297" lon="13.205575028587292"><ele>810.0</ele><time>2026-04-24T17:36:13.999Z</time></trkpt><trkpt lat="43.0655263411068" lon="13.205663361247465"><ele>810.0</ele><time>2026-04-24T17:36:14.999Z</time></trkpt><trkpt lat="43.065887971602514" lon="13.20556344314099"><ele>803.25</ele><time>2026-04-24T17:36:16.999Z</time></trkpt><trkpt lat="43.06599928977825" lon="13.20556180762241"><ele>796.5</ele><time>2026-04-24T17:36:17.999Z</time></trkpt><trkpt lat="43.066099845702695" lon="13.205624905229028"><ele>789.75</ele><time>2026-04-24T17:36:18.999Z</time></trkpt><trkpt lat="43.06618722491785" lon="13.205727499933015"><ele>783.0</ele><time>2026-04-24T17:36:19.999Z</time></trkpt><trkpt lat="43.066261010303826" lon="13.205854111571268"><ele>783.0</ele><time>2026-04-24T17:36:20.999Z</time></trkpt><trkpt lat="43.06634800542829" lon="13.20594668413074"><ele>783.0</ele><time>2026-04-24T17:36:21.999Z</time></trkpt><trkpt lat="43.066459244224326" lon="13.20600599292581"><ele>783.0</ele><time>2026-04-24T17:36:22.999Z</time></trkpt><trkpt lat="43.06657400675126" lon="13.20606371586462"><ele>783.0</ele><time>2026-04-24T17:36:23.999Z</time></trkpt><trkpt lat="43.06668214864056" lon="13.206113193335597"><ele>778.0</ele><time>2026-04-24T17:36:24.999Z</time></trkpt><trkpt lat="43.06679357611878" lon="13.206124151158788"><ele>773.0</ele><time>2026-04-24T17:36:25.999Z</time></trkpt><trkpt lat="43.06689965374643" lon="13.206153226039136"><ele>768.0</ele><time>2026-04-24T17:36:26.999Z</time></trkpt><trkpt lat="43.06700198748402" lon="13.206221821087302"><ele>763.0</ele><time>2026-04-24T17:36:27.999Z</time></trkpt><trkpt lat="43.06708907970036" lon="13.206323757916351"><ele>758.0</ele><time>2026-04-24T17:36:28.999Z</time></trkpt><trkpt lat="43.06717735926304" lon="13.206441866211202"><ele>761.0</ele><time>2026-04-24T17:36:29.999Z</time></trkpt><trkpt lat="43.067272921329405" lon="13.206546138364203"><ele>764.0</ele><time>2026-04-24T17:36:30.999Z</time></trkpt><trkpt lat="43.067377103901094" lon="13.206643717390108"><ele>767.0</ele><time>2026-04-24T17:36:31.999Z</time></trkpt><trkpt lat="43.06747689582489" lon="13.206740618103817"><ele>770.0</ele><time>2026-04-24T17:36:32.999Z</time></trkpt><trkpt lat="43.06757156158384" lon="13.206849145467737"><ele>770.0</ele><time>2026-04-24T17:36:33.999Z</time></trkpt><trkpt lat="43.06766188752778" lon="13.206955235394656"><ele>770.0</ele><time>2026-04-24T17:36:34.999Z</time></trkpt><trkpt lat="43.067726063414334" lon="13.207076783493923"><ele>770.0</ele><time>2026-04-24T17:36:35.999Z</time></trkpt><trkpt lat="43.06775818772676" lon="13.207228594755456"><ele>770.0</ele><time>2026-04-24T17:36:36.999Z</time></trkpt><trkpt lat="43.067766255058366" lon="13.207388442348337"><ele>777.0</ele><time>2026-04-24T17:36:37.999Z</time></trkpt><trkpt lat="43.067764370423625" lon="13.207553495465026"><ele>784.0</ele><time>2026-04-24T17:36:38.999Z</time></trkpt><trkpt lat="43.06777852120867" lon="13.207709939946637"><ele>791.0</ele><time>2026-04-24T17:36:39.999Z</time></trkpt><trkpt lat="43.06782138930056" lon="13.207855821750954"><ele>798.0</ele><time>2026-04-24T17:36:40.999Z</time></trkpt><trkpt lat="43.06789880434111" lon="13.207981789406526"><ele>798.0</ele><time>2026-04-24T17:36:41.999Z</time></trkpt><trkpt lat="43.06799367972576" lon="13.20808601379472"><ele>798.0</ele><time>2026-04-24T17:36:42.999Z</time></trkpt><trkpt lat="43.06810257878989" lon="13.208158678138467"><ele>798.0</ele><time>2026-04-24T17:36:43.999Z</time></trkpt><trkpt lat="43.06820480046273" lon="13.208239186523992"><ele>798.0</ele><time>2026-04-24T17:36:44.999Z</time></trkpt><trkpt lat="43.06826566372633" lon="13.208358664561192"><ele>802.0</ele><time>2026-04-24T17:36:45.999Z</time></trkpt><trkpt lat="43.068288751123404" lon="13.208512042818413"><ele>806.0</ele><time>2026-04-24T17:36:46.999Z</time></trkpt><trkpt lat="43.068254840789464" lon="13.208682164240733"><ele>810.0</ele><time>2026-04-24T17:36:47.999Z</time></trkpt><trkpt lat="43.068233839314495" lon="13.208829866732634"><ele>814.0</ele><time>2026-04-24T17:36:48.999Z</time></trkpt><trkpt lat="43.06821293932883" lon="13.20897808585237"><ele>815.6</ele><time>2026-04-24T17:36:49.999Z</time></trkpt><trkpt lat="43.06818344929097" lon="13.20913201465046"><ele>817.2</ele><time>2026-04-24T17:36:50.999Z</time></trkpt><trkpt lat="43.06813225970048" lon="13.20927059865229"><ele>818.8000000000001</ele><time>2026-04-24T17:36:51.999Z</time></trkpt><trkpt lat="43.06806637204934" lon="13.20938968852359"><ele>820.4000000000001</ele><time>2026-04-24T17:36:52.999Z</time></trkpt><trkpt lat="43.068006574016835" lon="13.209493139578251"><ele>822.0</ele><time>2026-04-24T17:36:53.999Z</time></trkpt><trkpt lat="43.067968279437615" lon="13.209609352335264"><ele>822.0</ele><time>2026-04-24T17:36:54.999Z</time></trkpt><trkpt lat="43.06797273065769" lon="13.209741345228613"><ele>822.0</ele><time>2026-04-24T17:36:55.999Z</time></trkpt><trkpt lat="43.068025195868906" lon="13.209871251315505"><ele>822.0</ele><time>2026-04-24T17:36:56.999Z</time></trkpt><trkpt lat="43.068104371974584" lon="13.20996126646831"><ele>822.0</ele><time>2026-04-24T17:36:57.998Z</time></trkpt><trkpt lat="43.06821468625711" lon="13.210014392120824"><ele>822.0</ele><time>2026-04-24T17:36:58.998Z</time></trkpt><trkpt lat="43.06833669086813" lon="13.210060120559334"><ele>812.25</ele><time>2026-04-24T17:36:59.998Z</time></trkpt><trkpt lat="43.06845709735674" lon="13.210098299549609"><ele>802.5</ele><time>2026-04-24T17:37:00.998Z</time></trkpt><trkpt lat="43.06855923127429" lon="13.210192645500138"><ele>792.75</ele><time>2026-04-24T17:37:01.998Z</time></trkpt><trkpt lat="43.06864997263197" lon="13.210296540421188"><ele>783.0</ele><time>2026-04-24T17:37:02.998Z</time></trkpt><trkpt lat="43.06873877539897" lon="13.21040752628562"><ele>783.0</ele><time>2026-04-24T17:37:03.998Z</time></trkpt><trkpt lat="43.06882785760234" lon="13.210519854707977"><ele>783.0</ele><time>2026-04-24T17:37:04.998Z</time></trkpt><trkpt lat="43.068919215078836" lon="13.210630672954963"><ele>783.0</ele><time>2026-04-24T17:37:05.998Z</time></trkpt><trkpt lat="43.06901411730939" lon="13.21073106331927"><ele>783.0</ele><time>2026-04-24T17:37:06.998Z</time></trkpt><trkpt lat="43.069112706805406" lon="13.210822550475685"><ele>784.0</ele><time>2026-04-24T17:37:07.998Z</time></trkpt><trkpt lat="43.06921343872851" lon="13.210904262091061"><ele>785.0</ele><time>2026-04-24T17:37:08.998Z</time></trkpt><trkpt lat="43.06932293439734" lon="13.210971242285785"><ele>786.0</ele><time>2026-04-24T17:37:10Z</time></trkpt><trkpt lat="43.06943552853429" lon="13.21101653762052"><ele>787.0</ele><time>2026-04-24T17:37:11Z</time></trkpt><trkpt lat="43.0695572500205" lon="13.2110518672981"><ele>787.0</ele><time>2026-04-24T17:37:12Z</time></trkpt><trkpt lat="43.06968079779247" lon="13.211090450895107"><ele>787.0</ele><time>2026-04-24T17:37:13Z</time></trkpt><trkpt lat="43.06980166737525" lon="13.211138127397586"><ele>787.0</ele><time>2026-04-24T17:37:14Z</time></trkpt><trkpt lat="43.0699209358559" lon="13.211186725664623"><ele>787.0</ele><time>2026-04-24T17:37:15Z</time></trkpt><trkpt lat="43.07004556346463" lon="13.211216736566458"><ele>781.25</ele><time>2026-04-24T17:37:16Z</time></trkpt><trkpt lat="43.070170427390025" lon="13.211228771353309"><ele>775.5</ele><time>2026-04-24T17:37:17Z</time></trkpt><trkpt lat="43.07029815477545" lon="13.21122859428327"><ele>769.75</ele><time>2026-04-24T17:37:18Z</time></trkpt><trkpt lat="43.07042804439711" lon="13.211233087316879"><ele>764.0</ele><time>2026-04-24T17:37:19Z</time></trkpt><trkpt lat="43.07055449348105" lon="13.211244654053202"><ele>764.0</ele><time>2026-04-24T17:37:20Z</time></trkpt><trkpt lat="43.07068223505028" lon="13.211249485824196"><ele>764.0</ele><time>2026-04-24T17:37:21Z</time></trkpt><trkpt lat="43.070805391678824" lon="13.211256152054956"><ele>764.0</ele><time>2026-04-24T17:37:22Z</time></trkpt><trkpt lat="43.07091815916408" lon="13.211260183992472"><ele>764.0</ele><time>2026-04-24T17:37:23Z</time></trkpt><trkpt lat="43.07102302268327" lon="13.211298375733914"><ele>762.4000000000001</ele><time>2026-04-24T17:37:24Z</time></trkpt><trkpt lat="43.07111667537514" lon="13.211372407865351"><ele>760.8</ele><time>2026-04-24T17:37:25Z</time></trkpt><trkpt lat="43.07118011681919" lon="13.21149184273404"><ele>759.2</ele><time>2026-04-24T17:37:26Z</time></trkpt><trkpt lat="43.07119727646049" lon="13.211640945586023"><ele>757.5999999999999</ele><time>2026-04-24T17:37:27Z</time></trkpt><trkpt lat="43.071168454853414" lon="13.211795986711646"><ele>756.0</ele><time>2026-04-24T17:37:28Z</time></trkpt><trkpt lat="43.07109654284425" lon="13.21193819571613"><ele>762.5</ele><time>2026-04-24T17:37:29Z</time></trkpt><trkpt lat="43.071000549148565" lon="13.21206107376876"><ele>769.0</ele><time>2026-04-24T17:37:30Z</time></trkpt><trkpt lat="43.07089928801252" lon="13.212174504243173"><ele>775.5</ele><time>2026-04-24T17:37:31Z</time></trkpt><trkpt lat="43.0708170029904" lon="13.212301372105141"><ele>782.0</ele><time>2026-04-24T17:37:32Z</time></trkpt><trkpt lat="43.07074819609272" lon="13.212437262353847"><ele>791.75</ele><time>2026-04-24T17:37:33Z</time></trkpt><trkpt lat="43.070667932797065" lon="13.21256495291141"><ele>801.5</ele><time>2026-04-24T17:37:34Z</time></trkpt><trkpt lat="43.0705718932652" lon="13.212672850786886"><ele>811.25</ele><time>2026-04-24T17:37:35Z</time></trkpt><trkpt lat="43.07048520854827" lon="13.21278284153054"><ele>821.0</ele><time>2026-04-24T17:37:36Z</time></trkpt><trkpt lat="43.07041481604554" lon="13.212924525052633"><ele>821.0</ele><time>2026-04-24T17:37:37Z</time></trkpt><trkpt lat="43.070362246848745" lon="13.213088986550206"><ele>821.0</ele><time>2026-04-24T17:37:38Z</time></trkpt><trkpt lat="43.070321437656894" lon="13.21325904092493"><ele>821.0</ele><time>2026-04-24T17:37:39Z</time></trkpt><trkpt lat="43.070291614597124" lon="13.213414622764391"><ele>821.0</ele><time>2026-04-24T17:37:40Z</time></trkpt><trkpt lat="43.070250236933916" lon="13.213563507671502"><ele>825.75</ele><time>2026-04-24T17:37:40.999Z</time></trkpt><trkpt lat="43.07018205148808" lon="13.213683560322979"><ele>830.5</ele><time>2026-04-24T17:37:41.999Z</time></trkpt><trkpt lat="43.07006980665959" lon="13.213760986796245"><ele>835.25</ele><time>2026-04-24T17:37:42.999Z</time></trkpt><trkpt lat="43.06993629613396" lon="13.21383543401842"><ele>840.0</ele><time>2026-04-24T17:37:43.999Z</time></trkpt><trkpt lat="43.0698332663499" lon="13.213906204679832"><ele>832.5</ele><time>2026-04-24T17:37:44.999Z</time></trkpt><trkpt lat="43.06973208378277" lon="13.214021727586873"><ele>825.0</ele><time>2026-04-24T17:37:45.999Z</time></trkpt><trkpt lat="43.06963853047495" lon="13.214146964760422"><ele>817.5</ele><time>2026-04-24T17:37:46.999Z</time></trkpt><trkpt lat="43.06955214372608" lon="13.214263713942767"><ele>810.0</ele><time>2026-04-24T17:37:47.999Z</time></trkpt><trkpt lat="43.06947534196421" lon="13.21438405277904"><ele>810.0</ele><time>2026-04-24T17:37:48.999Z</time></trkpt><trkpt lat="43.06941978107057" lon="13.214536795388856"><ele>810.0</ele><time>2026-04-24T17:37:49.999Z</time></trkpt><trkpt lat="43.069387737799225" lon="13.214705626170652"><ele>810.0</ele><time>2026-04-24T17:37:50.999Z</time></trkpt><trkpt lat="43.069364449878975" lon="13.214877728639737"><ele>810.0</ele><time>2026-04-24T17:37:51.999Z</time></trkpt><trkpt lat="43.06932565978688" lon="13.215038557407103"><ele>804.75</ele><time>2026-04-24T17:37:52.999Z</time></trkpt><trkpt lat="43.06925939667239" lon="13.215177016529083"><ele>799.5</ele><time>2026-04-24T17:37:53.999Z</time></trkpt><trkpt lat="43.0691801121167" lon="13.215306380429608"><ele>794.25</ele><time>2026-04-24T17:37:54.999Z</time></trkpt><trkpt lat="43.06910251082733" lon="13.215441806561886"><ele>789.0</ele><time>2026-04-24T17:37:55.999Z</time></trkpt><trkpt lat="43.06903604092435" lon="13.215575010435611"><ele>793.0</ele><time>2026-04-24T17:37:56.999Z</time></trkpt><trkpt lat="43.068991747050895" lon="13.215705892494343"><ele>797.0</ele><time>2026-04-24T17:37:57.999Z</time></trkpt><trkpt lat="43.06896853323897" lon="13.21584611977695"><ele>801.0</ele><time>2026-04-24T17:37:58.999Z</time></trkpt><trkpt lat="43.068971112807304" lon="13.21599980942174"><ele>805.0</ele><time>2026-04-24T17:37:59.999Z</time></trkpt><trkpt lat="43.06897039147718" lon="13.216159295933998"><ele>809.0</ele><time>2026-04-24T17:38:00.999Z</time></trkpt><trkpt lat="43.068927550209075" lon="13.216316179563119"><ele>809.0</ele><time>2026-04-24T17:38:01.999Z</time></trkpt><trkpt lat="43.06885901029883" lon="13.216442669146305"><ele>809.0</ele><time>2026-04-24T17:38:02.999Z</time></trkpt><trkpt lat="43.068765983049495" lon="13.21654299076436"><ele>809.0</ele><time>2026-04-24T17:38:03.999Z</time></trkpt><trkpt lat="43.06865352265262" lon="13.216606400972552"><ele>809.0</ele><time>2026-04-24T17:38:04.999Z</time></trkpt><trkpt lat="43.06853059638303" lon="13.216650763796144"><ele>798.25</ele><time>2026-04-24T17:38:05.999Z</time></trkpt><trkpt lat="43.06841089296527" lon="13.216699589442705"><ele>787.5</ele><time>2026-04-24T17:38:06.999Z</time></trkpt><trkpt lat="43.06829652307539" lon="13.216749557984"><ele>776.75</ele><time>2026-04-24T17:38:07.999Z</time></trkpt><trkpt lat="43.06817556503577" lon="13.216779627760147"><ele>766.0</ele><time>2026-04-24T17:38:08.999Z</time></trkpt><trkpt lat="43.06805414714844" lon="13.216779402178723"><ele>763.0</ele><time>2026-04-24T17:38:09.999Z</time></trkpt><trkpt lat="43.06793509252793" lon="13.216748702216591"><ele>760.0</ele><time>2026-04-24T17:38:10.999Z</time></trkpt><trkpt lat="43.067820478449164" lon="13.216686024634189"><ele>757.0</ele><time>2026-04-24T17:38:11.999Z</time></trkpt><trkpt lat="43.067714846456504" lon="13.216596373268507"><ele>754.0</ele><time>2026-04-24T17:38:12.999Z</time></trkpt><trkpt lat="43.06762097571534" lon="13.21648281229485"><ele>757.75</ele><time>2026-04-24T17:38:13.999Z</time></trkpt><trkpt lat="43.067533454367464" lon="13.216351926812282"><ele>761.5</ele><time>2026-04-24T17:38:14.999Z</time></trkpt><trkpt lat="43.067460998469265" lon="13.216214079422745"><ele>765.25</ele><time>2026-04-24T17:38:15.999Z</time></trkpt><trkpt lat="43.0673859587204" lon="13.216076017526392"><ele>769.0</ele><time>2026-04-24T17:38:16.999Z</time></trkpt><trkpt lat="43.06730267107904" lon="13.215953182695895"><ele>769.0</ele><time>2026-04-24T17:38:17.999Z</time></trkpt><trkpt lat="43.0672070216397" lon="13.215848579081577"><ele>769.0</ele><time>2026-04-24T17:38:18.999Z</time></trkpt><trkpt lat="43.067101209557016" lon="13.215773167218089"><ele>769.0</ele><time>2026-04-24T17:38:19.999Z</time></trkpt><trkpt lat="43.06698534033455" lon="13.215733480600221"><ele>769.0</ele><time>2026-04-24T17:38:20.999Z</time></trkpt><trkpt lat="43.066862044567095" lon="13.21575171939209"><ele>769.0</ele><time>2026-04-24T17:38:21.999Z</time></trkpt><trkpt lat="43.066748290079154" lon="13.215808297845369"><ele>769.0</ele><time>2026-04-24T17:38:22.999Z</time></trkpt><trkpt lat="43.06664763125229" lon="13.215882859452044"><ele>769.0</ele><time>2026-04-24T17:38:23.999Z</time></trkpt><trkpt lat="43.06655421500854" lon="13.215940385805034"><ele>769.0</ele><time>2026-04-24T17:38:24.999Z</time></trkpt><trkpt lat="43.06645411553646" lon="13.215950467903522"><ele>769.0</ele><time>2026-04-24T17:38:25.999Z</time></trkpt><trkpt lat="43.06635781628113" lon="13.21589962541208"><ele>776.25</ele><time>2026-04-24T17:38:26.999Z</time></trkpt><trkpt lat="43.06626201801459" lon="13.215818948602461"><ele>783.5</ele><time>2026-04-24T17:38:27.999Z</time></trkpt><trkpt lat="43.06615273746914" lon="13.21576740750195"><ele>790.75</ele><time>2026-04-24T17:38:28.999Z</time></trkpt><trkpt lat="43.066035802830015" lon="13.21576287031572"><ele>798.0</ele><time>2026-04-24T17:38:29.999Z</time></trkpt><trkpt lat="43.0659202053747" lon="13.21581092805745"><ele>798.0</ele><time>2026-04-24T17:38:30.999Z</time></trkpt><trkpt lat="43.06581268792409" lon="13.215904182722433"><ele>798.0</ele><time>2026-04-24T17:38:31.999Z</time></trkpt><trkpt lat="43.06570598232423" lon="13.216012923586023"><ele>798.0</ele><time>2026-04-24T17:38:32.999Z</time></trkpt><trkpt lat="43.065585150595645" lon="13.216114455337506"><ele>798.0</ele><time>2026-04-24T17:38:33.999Z</time></trkpt><trkpt lat="43.0654547488746" lon="13.216205414086087"><ele>802.0</ele><time>2026-04-24T17:38:34.999Z</time></trkpt><trkpt lat="43.06530810308753" lon="13.216277766928846"><ele>806.0</ele><time>2026-04-24T17:38:35.999Z</time></trkpt><trkpt lat="43.065174817533766" lon="13.216382721067415"><ele>810.0</ele><time>2026-04-24T17:38:36.999Z</time></trkpt><trkpt lat="43.065046538952274" lon="13.216426988390433"><ele>814.0</ele><time>2026-04-24T17:38:37.999Z</time></trkpt><trkpt lat="43.06492756381327" lon="13.216512424716957"><ele>803.5</ele><time>2026-04-24T17:38:38.999Z</time></trkpt><trkpt lat="43.06481227897736" lon="13.21658988631528"><ele>793.0</ele><time>2026-04-24T17:38:39.999Z</time></trkpt><trkpt lat="43.06469685316096" lon="13.216652120247813"><ele>782.5</ele><time>2026-04-24T17:38:40.999Z</time></trkpt><trkpt lat="43.06457363641052" lon="13.216674416435213"><ele>772.0</ele><time>2026-04-24T17:38:41.999Z</time></trkpt><trkpt lat="43.064446939177856" lon="13.216704409390887"><ele>772.0</ele><time>2026-04-24T17:38:42.999Z</time></trkpt><trkpt lat="43.06433227059841" lon="13.21678473529731"><ele>772.0</ele><time>2026-04-24T17:38:43.999Z</time></trkpt><trkpt lat="43.06422769352522" lon="13.21689137291503"><ele>772.0</ele><time>2026-04-24T17:38:44.999Z</time></trkpt><trkpt lat="43.0641272194117" lon="13.217005054449736"><ele>772.0</ele><time>2026-04-24T17:38:45.999Z</time></trkpt><trkpt lat="43.06402658864733" lon="13.217120965250638"><ele>777.25</ele><time>2026-04-24T17:38:46.999Z</time></trkpt><trkpt lat="43.06392140561549" lon="13.21723540643379"><ele>782.5</ele><time>2026-04-24T17:38:47.999Z</time></trkpt><trkpt lat="43.06381208166709" lon="13.217343054985852"><ele>787.75</ele><time>2026-04-24T17:38:48.999Z</time></trkpt><trkpt lat="43.06369527898375" lon="13.2174375067787"><ele>793.0</ele><time>2026-04-24T17:38:49.999Z</time></trkpt><trkpt lat="43.06356950989818" lon="13.217518873913933"><ele>782.0</ele><time>2026-04-24T17:38:50.999Z</time></trkpt><trkpt lat="43.06343670781897" lon="13.217572552120705"><ele>771.0</ele><time>2026-04-24T17:38:51.999Z</time></trkpt><trkpt lat="43.06329675477511" lon="13.217591593375708"><ele>760.0</ele><time>2026-04-24T17:38:52.999Z</time></trkpt><trkpt lat="43.06315441372392" lon="13.217587885330257"><ele>749.0</ele><time>2026-04-24T17:38:53.999Z</time></trkpt><trkpt lat="43.063016955997526" lon="13.217596579416854"><ele>749.0</ele><time>2026-04-24T17:38:54.999Z</time></trkpt><trkpt lat="43.062881864307826" lon="13.217637548382237"><ele>749.0</ele><time>2026-04-24T17:38:55.999Z</time></trkpt><trkpt lat="43.06274766412284" lon="13.21769699393433"><ele>749.0</ele><time>2026-04-24T17:38:56.999Z</time></trkpt><trkpt lat="43.062613496408154" lon="13.217760263853704"><ele>749.0</ele><time>2026-04-24T17:38:57.999Z</time></trkpt><trkpt lat="43.062487835128145" lon="13.217814112907455"><ele>748.0</ele><time>2026-04-24T17:38:58.999Z</time></trkpt><trkpt lat="43.06236807053931" lon="13.217854677677835"><ele>747.0</ele><time>2026-04-24T17:38:59.999Z</time></trkpt><trkpt lat="43.06224436892739" lon="13.217881641244226"><ele>746.0</ele><time>2026-04-24T17:39:00.999Z</time></trkpt><trkpt lat="43.06211445964763" lon="13.217880592187191"><ele>745.0</ele><time>2026-04-24T17:39:01.999Z</time></trkpt><trkpt lat="43.06198367311095" lon="13.217851037892963"><ele>745.0</ele><time>2026-04-24T17:39:02.999Z</time></trkpt><trkpt lat="43.06186356332514" lon="13.217809400771584"><ele>745.0</ele><time>2026-04-24T17:39:03.999Z</time></trkpt><trkpt lat="43.061757930535876" lon="13.217769896133056"><ele>745.0</ele><time>2026-04-24T17:39:04.999Z</time></trkpt><trkpt lat="43.06166333378173" lon="13.217745762792372"><ele>745.0</ele><time>2026-04-24T17:39:05.999Z</time></trkpt><trkpt lat="43.061571387462635" lon="13.217749956738334"><ele>745.0</ele><time>2026-04-24T17:39:06.999Z</time></trkpt><trkpt lat="43.06147663026781" lon="13.217803433319805"><ele>744.8</ele><time>2026-04-24T17:39:07.999Z</time></trkpt><trkpt lat="43.06140082788161" lon="13.217892942895311"><ele>744.6</ele><time>2026-04-24T17:39:08.998Z</time></trkpt><trkpt lat="43.06135149771613" lon="13.218015658346067"><ele>744.4000000000001</ele><time>2026-04-24T17:39:09.998Z</time></trkpt><trkpt lat="43.06133937988458" lon="13.218150500327294"><ele>744.2</ele><time>2026-04-24T17:39:10.998Z</time></trkpt><trkpt lat="43.06134485650383" lon="13.2182864399543"><ele>744.0</ele><time>2026-04-24T17:39:11.998Z</time></trkpt><trkpt lat="43.06145507013632" lon="13.218401465720055"><ele>747.0</ele><time>2026-04-24T17:39:12.998Z</time></trkpt><trkpt lat="43.061549577393" lon="13.21850204274309"><ele>750.0</ele><time>2026-04-24T17:39:13.998Z</time></trkpt><trkpt lat="43.06164162690225" lon="13.21860620790862"><ele>753.0</ele><time>2026-04-24T17:39:14.998Z</time></trkpt><trkpt lat="43.0617406785994" lon="13.21870370449985"><ele>756.0</ele><time>2026-04-24T17:39:16Z</time></trkpt><trkpt lat="43.061848490202166" lon="13.218785090618779"><ele>755.5</ele><time>2026-04-24T17:39:17Z</time></trkpt><trkpt lat="43.06195773286818" lon="13.218887152460207"><ele>755.0</ele><time>2026-04-24T17:39:18Z</time></trkpt><trkpt lat="43.06207064647231" lon="13.218957743124994"><ele>754.5</ele><time>2026-04-24T17:39:19Z</time></trkpt><trkpt lat="43.06220677837118" lon="13.218986025892248"><ele>754.0</ele><time>2026-04-24T17:39:20Z</time></trkpt><trkpt lat="43.062331959005114" lon="13.219003163682373"><ele>751.25</ele><time>2026-04-24T17:39:21Z</time></trkpt><trkpt lat="43.062456782675405" lon="13.219026495372546"><ele>748.5</ele><time>2026-04-24T17:39:22Z</time></trkpt><trkpt lat="43.06257683744089" lon="13.21906086420287"><ele>745.75</ele><time>2026-04-24T17:39:23Z</time></trkpt><trkpt lat="43.06269005409038" lon="13.219125408993332"><ele>743.0</ele><time>2026-04-24T17:39:24Z</time></trkpt><trkpt lat="43.06277857954187" lon="13.219243343259235"><ele>743.0</ele><time>2026-04-24T17:39:25Z</time></trkpt><trkpt lat="43.06287283604307" lon="13.219358500213692"><ele>743.0</ele><time>2026-04-24T17:39:26Z</time></trkpt><trkpt lat="43.0629718322167" lon="13.219434058967591"><ele>743.0</ele><time>2026-04-24T17:39:27Z</time></trkpt><trkpt lat="43.06308795590672" lon="13.219443678702957"><ele>743.0</ele><time>2026-04-24T17:39:28Z</time></trkpt><trkpt lat="43.0632096845218" lon="13.219371973217221"><ele>740.25</ele><time>2026-04-24T17:39:29Z</time></trkpt><trkpt lat="43.06332593576851" lon="13.219308464950096"><ele>737.5</ele><time>2026-04-24T17:39:30Z</time></trkpt><trkpt lat="43.06344176826884" lon="13.219243934025137"><ele>734.75</ele><time>2026-04-24T17:39:31Z</time></trkpt><trkpt lat="43.06356442996547" lon="13.219207710654043"><ele>732.0</ele><time>2026-04-24T17:39:32Z</time></trkpt><trkpt lat="43.063688981143535" lon="13.219188440163203"><ele>732.0</ele><time>2026-04-24T17:39:33Z</time></trkpt><trkpt lat="43.06381211146576" lon="13.219192421497278"><ele>732.0</ele><time>2026-04-24T17:39:34Z</time></trkpt><trkpt lat="43.06392689305069" lon="13.219256833808684"><ele>732.0</ele><time>2026-04-24T17:39:35Z</time></trkpt><trkpt lat="43.064042809854165" lon="13.219309733707671"><ele>732.0</ele><time>2026-04-24T17:39:36Z</time></trkpt><trkpt lat="43.06414990530401" lon="13.219387422950838"><ele>729.75</ele><time>2026-04-24T17:39:37Z</time></trkpt><trkpt lat="43.06424681497893" lon="13.219488805683616"><ele>727.5</ele><time>2026-04-24T17:39:38Z</time></trkpt><trkpt lat="43.06434601228308" lon="13.219589616306298"><ele>725.25</ele><time>2026-04-24T17:39:39Z</time></trkpt><trkpt lat="43.0644581265775" lon="13.219666821222457"><ele>723.0</ele><time>2026-04-24T17:39:40Z</time></trkpt><trkpt lat="43.06459134751731" lon="13.219674168633727"><ele>723.0</ele><time>2026-04-24T17:39:41Z</time></trkpt><trkpt lat="43.064711452796644" lon="13.21973983395289"><ele>723.0</ele><time>2026-04-24T17:39:42Z</time></trkpt><trkpt lat="43.06482496074548" lon="13.21981040588712"><ele>723.0</ele><time>2026-04-24T17:39:43Z</time></trkpt><trkpt lat="43.06493943984651" lon="13.21989692599615"><ele>723.0</ele><time>2026-04-24T17:39:44Z</time></trkpt><trkpt lat="43.065046628632636" lon="13.220002014099803"><ele>725.25</ele><time>2026-04-24T17:39:45Z</time></trkpt><trkpt lat="43.06514284298863" lon="13.220122013602554"><ele>727.5</ele><time>2026-04-24T17:39:45.999Z</time></trkpt><trkpt lat="43.065224396204286" lon="13.220255529134008"><ele>729.75</ele><time>2026-04-24T17:39:46.999Z</time></trkpt><trkpt lat="43.0652943087018" lon="13.220408615812957"><ele>732.0</ele><time>2026-04-24T17:39:47.999Z</time></trkpt><trkpt lat="43.06535126046976" lon="13.220571536597623"><ele>739.5</ele><time>2026-04-24T17:39:48.999Z</time></trkpt><trkpt lat="43.06540601521004" lon="13.220743032797726"><ele>747.0</ele><time>2026-04-24T17:39:49.999Z</time></trkpt><trkpt lat="43.065459774797475" lon="13.220914759683136"><ele>754.5</ele><time>2026-04-24T17:39:50.999Z</time></trkpt><trkpt lat="43.06551390083663" lon="13.221087657085198"><ele>762.0</ele><time>2026-04-24T17:39:51.999Z</time></trkpt><trkpt lat="43.0655709561464" lon="13.221259240670125"><ele>762.0</ele><time>2026-04-24T17:39:52.999Z</time></trkpt><trkpt lat="43.06565696926104" lon="13.221407205858386"><ele>762.0</ele><time>2026-04-24T17:39:53.999Z</time></trkpt><trkpt lat="43.065744669099665" lon="13.221554236234631"><ele>762.0</ele><time>2026-04-24T17:39:54.999Z</time></trkpt><trkpt lat="43.065846250679975" lon="13.221685941421482"><ele>762.0</ele><time>2026-04-24T17:39:55.999Z</time></trkpt><trkpt lat="43.06594385391223" lon="13.221824401660381"><ele>755.75</ele><time>2026-04-24T17:39:56.999Z</time></trkpt><trkpt lat="43.0660613506642" lon="13.221931438602999"><ele>749.5</ele><time>2026-04-24T17:39:57.999Z</time></trkpt><trkpt lat="43.06619771503796" lon="13.222002197314334"><ele>743.25</ele><time>2026-04-24T17:39:58.999Z</time></trkpt><trkpt lat="43.06631833749947" lon="13.222107344288174"><ele>737.0</ele><time>2026-04-24T17:39:59.999Z</time></trkpt><trkpt lat="43.06644118954233" lon="13.222203783182495"><ele>735.75</ele><time>2026-04-24T17:40:00.999Z</time></trkpt><trkpt lat="43.06654676565508" lon="13.222323435879604"><ele>734.5</ele><time>2026-04-24T17:40:01.999Z</time></trkpt><trkpt lat="43.06666367924175" lon="13.222437481585425"><ele>733.25</ele><time>2026-04-24T17:40:02.999Z</time></trkpt><trkpt lat="43.066756485945525" lon="13.222586303703775"><ele>732.0</ele><time>2026-04-24T17:40:03.999Z</time></trkpt><trkpt lat="43.06686550764046" lon="13.222714017526863"><ele>732.0</ele><time>2026-04-24T17:40:04.999Z</time></trkpt><trkpt lat="43.06698728362379" lon="13.222811668890715"><ele>732.0</ele><time>2026-04-24T17:40:05.999Z</time></trkpt><trkpt lat="43.067094519548924" lon="13.222910896392818"><ele>732.0</ele><time>2026-04-24T17:40:06.999Z</time></trkpt><trkpt lat="43.06719665079199" lon="13.223015397560122"><ele>732.0</ele><time>2026-04-24T17:40:07.999Z</time></trkpt><trkpt lat="43.06732038861819" lon="13.223057862288297"><ele>732.0</ele><time>2026-04-24T17:40:08.999Z</time></trkpt><trkpt lat="43.067437934269684" lon="13.223092318297835"><ele>732.0</ele><time>2026-04-24T17:40:09.999Z</time></trkpt><trkpt lat="43.06755025688135" lon="13.223094726619825"><ele>732.0</ele><time>2026-04-24T17:40:10.999Z</time></trkpt><trkpt lat="43.06765399498601" lon="13.22308424875128"><ele>732.0</ele><time>2026-04-24T17:40:11.999Z</time></trkpt><trkpt lat="43.067753970786626" lon="13.223090370713122"><ele>732.0</ele><time>2026-04-24T17:40:12.999Z</time></trkpt><trkpt lat="43.067842932270786" lon="13.2231366973752"><ele>732.25</ele><time>2026-04-24T17:40:13.999Z</time></trkpt><trkpt lat="43.06789821596855" lon="13.223268555222933"><ele>732.5</ele><time>2026-04-24T17:40:14.999Z</time></trkpt><trkpt lat="43.06791820226299" lon="13.223402615376664"><ele>732.75</ele><time>2026-04-24T17:40:15.999Z</time></trkpt><trkpt lat="43.06795621064219" lon="13.22355548041754"><ele>733.0</ele><time>2026-04-24T17:40:16.999Z</time></trkpt><trkpt lat="43.068002823131096" lon="13.22371367935408"><ele>733.0</ele><time>2026-04-24T17:40:17.999Z</time></trkpt><trkpt lat="43.068075300954" lon="13.223862533050807"><ele>733.0</ele><time>2026-04-24T17:40:18.999Z</time></trkpt><trkpt lat="43.06813277333915" lon="13.224018104556107"><ele>733.0</ele><time>2026-04-24T17:40:19.999Z</time></trkpt><trkpt lat="43.068191389233434" lon="13.224181938095386"><ele>733.0</ele><time>2026-04-24T17:40:20.999Z</time></trkpt><trkpt lat="43.06825069910824" lon="13.224341098849912"><ele>730.25</ele><time>2026-04-24T17:40:21.999Z</time></trkpt><trkpt lat="43.068284297301815" lon="13.224523480549127"><ele>727.5</ele><time>2026-04-24T17:40:22.999Z</time></trkpt><trkpt lat="43.068319647517285" lon="13.224701407566103"><ele>724.75</ele><time>2026-04-24T17:40:23.999Z</time></trkpt><trkpt lat="43.068337760715146" lon="13.224874744740152"><ele>722.0</ele><time>2026-04-24T17:40:24.999Z</time></trkpt><trkpt lat="43.06834619581126" lon="13.225065994156862"><ele>722.0</ele><time>2026-04-24T17:40:25.999Z</time></trkpt><trkpt lat="43.06836860888376" lon="13.225241599365189"><ele>722.0</ele><time>2026-04-24T17:40:26.999Z</time></trkpt><trkpt lat="43.068359163162455" lon="13.225421586783252"><ele>722.0</ele><time>2026-04-24T17:40:27.999Z</time></trkpt><trkpt lat="43.06839036234031" lon="13.225602792596531"><ele>722.0</ele><time>2026-04-24T17:40:28.999Z</time></trkpt><trkpt lat="43.06841165826949" lon="13.225783131215616"><ele>722.25</ele><time>2026-04-24T17:40:29.999Z</time></trkpt><trkpt lat="43.06842982542505" lon="13.225971238059754"><ele>722.5</ele><time>2026-04-24T17:40:30.999Z</time></trkpt><trkpt lat="43.068453037342124" lon="13.226153587530995"><ele>722.75</ele><time>2026-04-24T17:40:31.999Z</time></trkpt><trkpt lat="43.06845818794986" lon="13.22633989206141"><ele>723.0</ele><time>2026-04-24T17:40:32.999Z</time></trkpt><trkpt lat="43.06844545029354" lon="13.226537786322991"><ele>723.0</ele><time>2026-04-24T17:40:33.999Z</time></trkpt><trkpt lat="43.068427627518474" lon="13.226729959268079"><ele>723.0</ele><time>2026-04-24T17:40:34.999Z</time></trkpt><trkpt lat="43.068409200186245" lon="13.226923851116133"><ele>723.0</ele><time>2026-04-24T17:40:35.999Z</time></trkpt><trkpt lat="43.0683951474183" lon="13.227109039144462"><ele>723.0</ele><time>2026-04-24T17:40:36.999Z</time></trkpt><trkpt lat="43.068379766618385" lon="13.227303411962067"><ele>721.75</ele><time>2026-04-24T17:40:37.999Z</time></trkpt><trkpt lat="43.06836244636359" lon="13.227487040698847"><ele>720.5</ele><time>2026-04-24T17:40:38.999Z</time></trkpt><trkpt lat="43.06834428132622" lon="13.2276722432423"><ele>719.25</ele><time>2026-04-24T17:40:39.999Z</time></trkpt><trkpt lat="43.06832393836649" lon="13.227852480281943"><ele>718.0</ele><time>2026-04-24T17:40:40.999Z</time></trkpt><trkpt lat="43.068272646280775" lon="13.228031231538155"><ele>725.0</ele><time>2026-04-24T17:40:41.999Z</time></trkpt><trkpt lat="43.06821563475783" lon="13.228196923955311"><ele>732.0</ele><time>2026-04-24T17:40:42.999Z</time></trkpt><trkpt lat="43.068167666114235" lon="13.228375247271211"><ele>739.0</ele><time>2026-04-24T17:40:43.999Z</time></trkpt><trkpt lat="43.06810094848465" lon="13.228539902439984"><ele>746.0</ele><time>2026-04-24T17:40:44.999Z</time></trkpt><trkpt lat="43.068039540492954" lon="13.228710497126196"><ele>746.0</ele><time>2026-04-24T17:40:45.999Z</time></trkpt><trkpt lat="43.06796176268431" lon="13.22886775515066"><ele>746.0</ele><time>2026-04-24T17:40:46.999Z</time></trkpt><trkpt lat="43.0679097242401" lon="13.229058846083031"><ele>746.0</ele><time>2026-04-24T17:40:47.999Z</time></trkpt><trkpt lat="43.067840342350216" lon="13.229234108023006"><ele>746.0</ele><time>2026-04-24T17:40:48.999Z</time></trkpt><trkpt lat="43.06777321758804" lon="13.229407907674496"><ele>742.75</ele><time>2026-04-24T17:40:49.999Z</time></trkpt><trkpt lat="43.06770891094067" lon="13.229575656474058"><ele>739.5</ele><time>2026-04-24T17:40:50.999Z</time></trkpt><trkpt lat="43.06764448240226" lon="13.229739338269363"><ele>736.25</ele><time>2026-04-24T17:40:51.999Z</time></trkpt><trkpt lat="43.0675784730078" lon="13.229894393035392"><ele>733.0</ele><time>2026-04-24T17:40:52.999Z</time></trkpt><trkpt lat="43.067498609977356" lon="13.230052993221097"><ele>735.5</ele><time>2026-04-24T17:40:53.999Z</time></trkpt><trkpt lat="43.0674018686485" lon="13.230188257202006"><ele>738.0</ele><time>2026-04-24T17:40:54.999Z</time></trkpt><trkpt lat="43.06731716984905" lon="13.230343717259734"><ele>740.5</ele><time>2026-04-24T17:40:55.999Z</time></trkpt><trkpt lat="43.067247772809274" lon="13.230513742251853"><ele>743.0</ele><time>2026-04-24T17:40:56.999Z</time></trkpt><trkpt lat="43.06718616565024" lon="13.230696623275128"><ele>743.0</ele><time>2026-04-24T17:40:57.999Z</time></trkpt><trkpt lat="43.06714945784437" lon="13.230883092367371"><ele>743.0</ele><time>2026-04-24T17:40:58.999Z</time></trkpt><trkpt lat="43.06708165657983" lon="13.231050915982063"><ele>743.0</ele><time>2026-04-24T17:40:59.999Z</time></trkpt><trkpt lat="43.06703692252187" lon="13.231226348120584"><ele>743.0</ele><time>2026-04-24T17:41:00.999Z</time></trkpt><trkpt lat="43.066969224326826" lon="13.23138256647572"><ele>739.0</ele><time>2026-04-24T17:41:01.999Z</time></trkpt><trkpt lat="43.06690017944314" lon="13.231533375197518"><ele>735.0</ele><time>2026-04-24T17:41:02.999Z</time></trkpt><trkpt lat="43.06682331682656" lon="13.23167512238247"><ele>731.0</ele><time>2026-04-24T17:41:03.999Z</time></trkpt><trkpt lat="43.06674699877809" lon="13.23182005964142"><ele>727.0</ele><time>2026-04-24T17:41:04.999Z</time></trkpt><trkpt lat="43.066668415756475" lon="13.231947184066598"><ele>727.6</ele><time>2026-04-24T17:41:05.999Z</time></trkpt><trkpt lat="43.0665862537356" lon="13.232079989051066"><ele>728.2</ele><time>2026-04-24T17:41:06.999Z</time></trkpt><trkpt lat="43.06651019497793" lon="13.232200655564725"><ele>728.8</ele><time>2026-04-24T17:41:07.999Z</time></trkpt><trkpt lat="43.06644541715249" lon="13.232307896632285"><ele>729.4</ele><time>2026-04-24T17:41:08.999Z</time></trkpt><trkpt lat="43.06638306868095" lon="13.232416091671439"><ele>730.0</ele><time>2026-04-24T17:41:09.999Z</time></trkpt><trkpt lat="43.066320904895214" lon="13.232520653569665"><ele>730.0</ele><time>2026-04-24T17:41:10.999Z</time></trkpt><trkpt lat="43.06624499170543" lon="13.232598286028876"><ele>730.0</ele><time>2026-04-24T17:41:11.999Z</time></trkpt><trkpt lat="43.066188452826744" lon="13.232682173011908"><ele>730.0</ele><time>2026-04-24T17:41:12.999Z</time></trkpt><trkpt lat="43.06613538621122" lon="13.23275797625381"><ele>730.0</ele><time>2026-04-24T17:41:13.999Z</time></trkpt><trkpt lat="43.06608889357942" lon="13.232824207865995"><ele>730.0</ele><time>2026-04-24T17:41:14.999Z</time></trkpt><trkpt lat="43.06604281964164" lon="13.232889846050565"><ele>730.0</ele><time>2026-04-24T17:41:15.998Z</time></trkpt><trkpt lat="43.06605356208144" lon="13.233036421535777"><ele>727.8</ele><time>2026-04-24T17:41:16.998Z</time></trkpt><trkpt lat="43.06601990450609" lon="13.233152436197361"><ele>725.6</ele><time>2026-04-24T17:41:17.998Z</time></trkpt><trkpt lat="43.06597084114066" lon="13.233279438661885"><ele>723.4000000000001</ele><time>2026-04-24T17:41:18.998Z</time></trkpt><trkpt lat="43.0659248513177" lon="13.233404031519978"><ele>721.2</ele><time>2026-04-24T17:41:19.998Z</time></trkpt><trkpt lat="43.065875894553194" lon="13.233523554253612"><ele>719.0</ele><time>2026-04-24T17:41:20.998Z</time></trkpt><trkpt lat="43.065830312628286" lon="13.233625341724755"><ele>719.0</ele><time>2026-04-24T17:41:22Z</time></trkpt><trkpt lat="43.0658047015447" lon="13.233711566631136"><ele>719.0</ele><time>2026-04-24T17:41:23Z</time></trkpt><trkpt lat="43.065832422605524" lon="13.233859876001334"><ele>719.0</ele><time>2026-04-24T17:41:25Z</time></trkpt><trkpt lat="43.065927051155164" lon="13.23384884764307"><ele>719.0</ele><time>2026-04-24T17:41:26Z</time></trkpt><trkpt lat="43.06600077150223" lon="13.233834509752734"><ele>719.0</ele><time>2026-04-24T17:41:27Z</time></trkpt><trkpt lat="43.066095562915784" lon="13.233823035810005"><ele>719.0</ele><time>2026-04-24T17:41:28Z</time></trkpt><trkpt lat="43.066195194502264" lon="13.233815991518576"><ele>719.0</ele><time>2026-04-24T17:41:29Z</time></trkpt><trkpt lat="43.066302161041605" lon="13.233806416907171"><ele>719.0</ele><time>2026-04-24T17:41:30Z</time></trkpt><trkpt lat="43.06640608577967" lon="13.233831564872135"><ele>719.0</ele><time>2026-04-24T17:41:31Z</time></trkpt><trkpt lat="43.06650904243375" lon="13.233852619915002"><ele>719.0</ele><time>2026-04-24T17:41:32Z</time></trkpt><trkpt lat="43.06659072682035" lon="13.233945112383335"><ele>719.0</ele><time>2026-04-24T17:41:33Z</time></trkpt><trkpt lat="43.06665184814962" lon="13.234076969056447"><ele>712.0</ele><time>2026-04-24T17:41:34Z</time></trkpt><trkpt lat="43.06672864279984" lon="13.234212511534011"><ele>705.0</ele><time>2026-04-24T17:41:35Z</time></trkpt><trkpt lat="43.06680577560716" lon="13.234338550040187"><ele>698.0</ele><time>2026-04-24T17:41:36Z</time></trkpt><trkpt lat="43.06688221762134" lon="13.23446345981012"><ele>691.0</ele><time>2026-04-24T17:41:37Z</time></trkpt><trkpt lat="43.06695283187981" lon="13.234579856556595"><ele>691.0</ele><time>2026-04-24T17:41:38Z</time></trkpt><trkpt lat="43.06700796661063" lon="13.23466916735796"><ele>691.0</ele><time>2026-04-24T17:41:39Z</time></trkpt><trkpt lat="43.067089413234626" lon="13.23476976553466"><ele>691.0</ele><time>2026-04-24T17:41:41Z</time></trkpt><trkpt lat="43.06719225460086" lon="13.234773942832588"><ele>691.0</ele><time>2026-04-24T17:41:43Z</time></trkpt><trkpt lat="43.06724773494751" lon="13.234723351656754"><ele>691.0</ele><time>2026-04-24T17:41:44Z</time></trkpt><trkpt lat="43.06730057284114" lon="13.234643935887934"><ele>691.0</ele><time>2026-04-24T17:41:45Z</time></trkpt><trkpt lat="43.06734520965324" lon="13.234460886719878"><ele>691.0</ele><time>2026-04-24T17:41:47Z</time></trkpt><trkpt lat="43.067358415910626" lon="13.234348856933725"><ele>691.0</ele><time>2026-04-24T17:41:48Z</time></trkpt><trkpt lat="43.06739924741487" lon="13.234241838784564"><ele>691.0</ele><time>2026-04-24T17:41:49Z</time></trkpt><trkpt lat="43.067458915601506" lon="13.234138135834774"><ele>691.0</ele><time>2026-04-24T17:41:50Z</time></trkpt><trkpt lat="43.0675203922652" lon="13.23402282119477"><ele>691.0</ele><time>2026-04-24T17:41:51Z</time></trkpt><trkpt lat="43.067580515688235" lon="13.233905506880753"><ele>690.1999999999999</ele><time>2026-04-24T17:41:52Z</time></trkpt><trkpt lat="43.06764048789649" lon="13.23377722871588"><ele>689.4</ele><time>2026-04-24T17:41:53Z</time></trkpt><trkpt lat="43.067703830109544" lon="13.233654427409377"><ele>688.6</ele><time>2026-04-24T17:41:54Z</time></trkpt><trkpt lat="43.06779409717177" lon="13.233556270194494"><ele>687.8</ele><time>2026-04-24T17:41:55Z</time></trkpt><trkpt lat="43.067846839365956" lon="13.233425982073173"><ele>687.0</ele><time>2026-04-24T17:41:55.999Z</time></trkpt><trkpt lat="43.06788801366128" lon="13.233286411856161"><ele>687.8</ele><time>2026-04-24T17:41:56.999Z</time></trkpt><trkpt lat="43.06789743955446" lon="13.233128397375083"><ele>688.6</ele><time>2026-04-24T17:41:57.999Z</time></trkpt><trkpt lat="43.06789954477644" lon="13.23297698981381"><ele>689.4</ele><time>2026-04-24T17:41:58.999Z</time></trkpt><trkpt lat="43.067924441657524" lon="13.232847857033075"><ele>690.1999999999999</ele><time>2026-04-24T17:41:59.999Z</time></trkpt><trkpt lat="43.06796888313652" lon="13.232751012595012"><ele>691.0</ele><time>2026-04-24T17:42:00.999Z</time></trkpt><trkpt lat="43.0680441750784" lon="13.232691702877084"><ele>691.0</ele><time>2026-04-24T17:42:01.999Z</time></trkpt><trkpt lat="43.068121771991294" lon="13.232600708758612"><ele>691.0</ele><time>2026-04-24T17:42:02.999Z</time></trkpt><trkpt lat="43.06823497879471" lon="13.232609514868187"><ele>691.0</ele><time>2026-04-24T17:42:03.999Z</time></trkpt><trkpt lat="43.06835128465364" lon="13.232603610026285"><ele>691.0</ele><time>2026-04-24T17:42:04.999Z</time></trkpt><trkpt lat="43.068471562146385" lon="13.232622827514714"><ele>687.0</ele><time>2026-04-24T17:42:05.999Z</time></trkpt><trkpt lat="43.068586503861965" lon="13.232644666399567"><ele>683.0</ele><time>2026-04-24T17:42:06.999Z</time></trkpt><trkpt lat="43.06869854136697" lon="13.23265960300016"><ele>679.0</ele><time>2026-04-24T17:42:07.999Z</time></trkpt><trkpt lat="43.068799712406125" lon="13.232650838261723"><ele>675.0</ele><time>2026-04-24T17:42:08.999Z</time></trkpt><trkpt lat="43.06888774390751" lon="13.232666339125583"><ele>671.0</ele><time>2026-04-24T17:42:09.999Z</time></trkpt><trkpt lat="43.068956158099596" lon="13.232686215767071"><ele>671.0</ele><time>2026-04-24T17:42:10.999Z</time></trkpt><trkpt lat="43.06900880804904" lon="13.23276473658238"><ele>671.0</ele><time>2026-04-24T17:42:12.999Z</time></trkpt><trkpt lat="43.06885802189879" lon="13.232850643632336"><ele>671.0</ele><time>2026-04-24T17:42:15.999Z</time></trkpt><trkpt lat="43.06879098390982" lon="13.232820706971749"><ele>671.0</ele><time>2026-04-24T17:42:16.999Z</time></trkpt><trkpt lat="43.068712964644156" lon="13.232831482454454"><ele>671.0</ele><time>2026-04-24T17:42:17.999Z</time></trkpt><trkpt lat="43.06866150456257" lon="13.232900737213102"><ele>671.0</ele><time>2026-04-24T17:42:18.999Z</time></trkpt><trkpt lat="43.06859795494776" lon="13.232961165952043"><ele>671.0</ele><time>2026-04-24T17:42:19.999Z</time></trkpt><trkpt lat="43.068553029031605" lon="13.233037817589096"><ele>671.0</ele><time>2026-04-24T17:42:20.999Z</time></trkpt><trkpt lat="43.06852959843603" lon="13.233130974052926"><ele>671.0</ele><time>2026-04-24T17:42:21.999Z</time></trkpt><trkpt lat="43.06854475866247" lon="13.233234291342338"><ele>671.0</ele><time>2026-04-24T17:42:22.999Z</time></trkpt><trkpt lat="43.06858198630432" lon="13.233318405149742"><ele>671.0</ele><time>2026-04-24T17:42:23.999Z</time></trkpt><trkpt lat="43.0686405871054" lon="13.233392094585101"><ele>669.5999999999999</ele><time>2026-04-24T17:42:24.999Z</time></trkpt><trkpt lat="43.06871234101339" lon="13.233470458969668"><ele>668.2</ele><time>2026-04-24T17:42:25.999Z</time></trkpt><trkpt lat="43.06880018700108" lon="13.23352615776251"><ele>666.8</ele><time>2026-04-24T17:42:26.999Z</time></trkpt><trkpt lat="43.06887661860897" lon="13.23362404884035"><ele>665.4000000000001</ele><time>2026-04-24T17:42:27.999Z</time></trkpt><trkpt lat="43.068972931268625" lon="13.233692983427312"><ele>664.0</ele><time>2026-04-24T17:42:28.999Z</time></trkpt><trkpt lat="43.06904625685901" lon="13.233786571372848"><ele>664.0</ele><time>2026-04-24T17:42:29.999Z</time></trkpt><trkpt lat="43.06909537628061" lon="13.233908583779133"><ele>664.0</ele><time>2026-04-24T17:42:30.999Z</time></trkpt><trkpt lat="43.069132340450956" lon="13.233996103188828"><ele>664.0</ele><time>2026-04-24T17:42:31.999Z</time></trkpt><trkpt lat="43.06912905437489" lon="13.234091616699565"><ele>664.0</ele><time>2026-04-24T17:42:32.999Z</time></trkpt><trkpt lat="43.06912140949918" lon="13.23420390162895"><ele>664.0</ele><time>2026-04-24T17:42:33.999Z</time></trkpt><trkpt lat="43.06910749168511" lon="13.234311078185865"><ele>664.0</ele><time>2026-04-24T17:42:34.999Z</time></trkpt><trkpt lat="43.06914255334524" lon="13.234472050302688"><ele>659.2</ele><time>2026-04-24T17:42:36.999Z</time></trkpt><trkpt lat="43.069252180687066" lon="13.234489535860162"><ele>654.4000000000001</ele><time>2026-04-24T17:42:37.999Z</time></trkpt><trkpt lat="43.069349452737136" lon="13.234502738900169"><ele>649.6</ele><time>2026-04-24T17:42:38.999Z</time></trkpt><trkpt lat="43.06944296959357" lon="13.234554054126425"><ele>644.8</ele><time>2026-04-24T17:42:39.999Z</time></trkpt><trkpt lat="43.06953377305826" lon="13.234580041258106"><ele>640.0</ele><time>2026-04-24T17:42:40.999Z</time></trkpt><trkpt lat="43.069615863989355" lon="13.234599763308996"><ele>640.0</ele><time>2026-04-24T17:42:41.999Z</time></trkpt><trkpt lat="43.069716877926126" lon="13.234588469068083"><ele>640.0</ele><time>2026-04-24T17:42:42.999Z</time></trkpt><trkpt lat="43.069810967731" lon="13.234567854117591"><ele>640.0</ele><time>2026-04-24T17:42:43.999Z</time></trkpt><trkpt lat="43.06991358076323" lon="13.234577248461456"><ele>640.0</ele><time>2026-04-24T17:42:44.999Z</time></trkpt><trkpt lat="43.070011890290886" lon="13.23456964551057"><ele>640.0</ele><time>2026-04-24T17:42:45.999Z</time></trkpt><trkpt lat="43.07010451606409" lon="13.234579160548114"><ele>638.8333333333334</ele><time>2026-04-24T17:42:46.999Z</time></trkpt><trkpt lat="43.070183470975984" lon="13.234602033856158"><ele>637.6666666666667</ele><time>2026-04-24T17:42:47.999Z</time></trkpt><trkpt lat="43.07025982226043" lon="13.234636732491511"><ele>636.5</ele><time>2026-04-24T17:42:48.999Z</time></trkpt><trkpt lat="43.07032477170055" lon="13.234711147846093"><ele>635.3333333333334</ele><time>2026-04-24T17:42:49.999Z</time></trkpt><trkpt lat="43.070379687566614" lon="13.234799293172408"><ele>634.1666666666666</ele><time>2026-04-24T17:42:50.999Z</time></trkpt><trkpt lat="43.070428060092574" lon="13.234874783462235"><ele>633.0</ele><time>2026-04-24T17:42:51.999Z</time></trkpt><trkpt lat="43.070491645820965" lon="13.234973441899205"><ele>633.0</ele><time>2026-04-24T17:42:52.999Z</time></trkpt><trkpt lat="43.07055514895768" lon="13.235078837342673"><ele>633.0</ele><time>2026-04-24T17:42:53.999Z</time></trkpt><trkpt lat="43.07060703153195" lon="13.235205222084625"><ele>633.0</ele><time>2026-04-24T17:42:54.999Z</time></trkpt><trkpt lat="43.07065544840513" lon="13.235327836670725"><ele>633.0</ele><time>2026-04-24T17:42:55.999Z</time></trkpt><trkpt lat="43.07070670268132" lon="13.235455648365054"><ele>633.0</ele><time>2026-04-24T17:42:56.999Z</time></trkpt><trkpt lat="43.07075305151216" lon="13.23557376299166"><ele>625.4</ele><time>2026-04-24T17:42:57.999Z</time></trkpt><trkpt lat="43.07080282538602" lon="13.235688201294657"><ele>617.8</ele><time>2026-04-24T17:42:58.999Z</time></trkpt><trkpt lat="43.070853738620826" lon="13.23580217317103"><ele>610.2</ele><time>2026-04-24T17:42:59.999Z</time></trkpt><trkpt lat="43.0708794530501" lon="13.235930407600646"><ele>602.6</ele><time>2026-04-24T17:43:00.999Z</time></trkpt><trkpt lat="43.070904568899415" lon="13.236039017970825"><ele>595.0</ele><time>2026-04-24T17:43:01.999Z</time></trkpt><trkpt lat="43.07093490306223" lon="13.236153260679682"><ele>595.0</ele><time>2026-04-24T17:43:02.999Z</time></trkpt><trkpt lat="43.070953596769506" lon="13.236327259970428"><ele>595.0</ele><time>2026-04-24T17:43:03.999Z</time></trkpt><trkpt lat="43.07097986149121" lon="13.236523887480939"><ele>595.0</ele><time>2026-04-24T17:43:04.999Z</time></trkpt><trkpt lat="43.07100506833216" lon="13.236703001979006"><ele>595.0</ele><time>2026-04-24T17:43:05.999Z</time></trkpt><trkpt lat="43.071009138401855" lon="13.236881144582984"><ele>594.75</ele><time>2026-04-24T17:43:06.999Z</time></trkpt><trkpt lat="43.07101825001336" lon="13.237076138890087"><ele>594.5</ele><time>2026-04-24T17:43:07.999Z</time></trkpt><trkpt lat="43.07101989859422" lon="13.237269665102575"><ele>594.25</ele><time>2026-04-24T17:43:08.999Z</time></trkpt><trkpt lat="43.07101742103601" lon="13.237452452031949"><ele>594.0</ele><time>2026-04-24T17:43:09.999Z</time></trkpt><trkpt lat="43.0710251671391" lon="13.237625629412452"><ele>592.75</ele><time>2026-04-24T17:43:10.999Z</time></trkpt><trkpt lat="43.071033218602324" lon="13.237810282709308"><ele>591.5</ele><time>2026-04-24T17:43:11.999Z</time></trkpt><trkpt lat="43.07104229383267" lon="13.237988103269657"><ele>590.25</ele><time>2026-04-24T17:43:12.999Z</time></trkpt><trkpt lat="43.071048880766654" lon="13.238168809286062"><ele>589.0</ele><time>2026-04-24T17:43:13.999Z</time></trkpt><trkpt lat="43.071042567776395" lon="13.238322546828108"><ele>586.3333333333334</ele><time>2026-04-24T17:43:14.999Z</time></trkpt><trkpt lat="43.0710341603122" lon="13.238442878097674"><ele>583.6666666666667</ele><time>2026-04-24T17:43:15.999Z</time></trkpt><trkpt lat="43.07101529973677" lon="13.238552381773271"><ele>581.0</ele><time>2026-04-24T17:43:16.999Z</time></trkpt><trkpt lat="43.07099906628238" lon="13.238643245802374"><ele>578.3333333333334</ele><time>2026-04-24T17:43:17.999Z</time></trkpt><trkpt lat="43.07100153143891" lon="13.238761809041552"><ele>575.6666666666666</ele><time>2026-04-24T17:43:19.999Z</time></trkpt><trkpt lat="43.0710880578719" lon="13.238690646182175"><ele>573.0</ele><time>2026-04-24T17:43:24.998Z</time></trkpt><trkpt lat="43.07115725155398" lon="13.238513998359336"><ele>573.0</ele><time>2026-04-24T17:43:26.998Z</time></trkpt><trkpt lat="43.07120108251372" lon="13.238411522680563"><ele>573.0</ele><time>2026-04-24T17:43:28Z</time></trkpt><trkpt lat="43.07125314594672" lon="13.238297085841031"><ele>573.0</ele><time>2026-04-24T17:43:29Z</time></trkpt><trkpt lat="43.07130072997716" lon="13.238191002780505"><ele>573.0</ele><time>2026-04-24T17:43:30Z</time></trkpt><trkpt lat="43.07134760620981" lon="13.238077150048698"><ele>573.0</ele><time>2026-04-24T17:43:31Z</time></trkpt><trkpt lat="43.07139987665077" lon="13.237958362284338"><ele>577.0</ele><time>2026-04-24T17:43:32Z</time></trkpt><trkpt lat="43.07145036047401" lon="13.237828085612268"><ele>581.0</ele><time>2026-04-24T17:43:33Z</time></trkpt><trkpt lat="43.07150040383404" lon="13.237683078654166"><ele>585.0</ele><time>2026-04-24T17:43:34Z</time></trkpt><trkpt lat="43.07154227569299" lon="13.237517962842675"><ele>589.0</ele><time>2026-04-24T17:43:35Z</time></trkpt><trkpt lat="43.07158436800111" lon="13.237355433989107"><ele>578.6</ele><time>2026-04-24T17:43:36Z</time></trkpt><trkpt lat="43.071626917103195" lon="13.237203274522573"><ele>568.2</ele><time>2026-04-24T17:43:37Z</time></trkpt><trkpt lat="43.07166872768872" lon="13.237057277033577"><ele>557.8000000000001</ele><time>2026-04-24T17:43:38Z</time></trkpt><trkpt lat="43.07170919066975" lon="13.236927383941586"><ele>547.4</ele><time>2026-04-24T17:43:39Z</time></trkpt><trkpt lat="43.0717516585335" lon="13.236798927767328"><ele>537.0</ele><time>2026-04-24T17:43:40Z</time></trkpt><trkpt lat="43.071787280559676" lon="13.236676831722088"><ele>537.0</ele><time>2026-04-24T17:43:41Z</time></trkpt><trkpt lat="43.07181136141879" lon="13.236570010475605"><ele>537.0</ele><time>2026-04-24T17:43:42Z</time></trkpt><trkpt lat="43.071831408727746" lon="13.236466662762254"><ele>537.0</ele><time>2026-04-24T17:43:43Z</time></trkpt><trkpt lat="43.071844136684874" lon="13.236368997131205"><ele>537.0</ele><time>2026-04-24T17:43:44Z</time></trkpt><trkpt lat="43.07187616402039" lon="13.23622741560301"><ele>537.0</ele><time>2026-04-24T17:43:46Z</time></trkpt><trkpt lat="43.07195750797272" lon="13.236239549143258"><ele>537.0</ele><time>2026-04-24T17:43:49Z</time></trkpt><trkpt lat="43.0719724096661" lon="13.236422622030119"><ele>537.0</ele><time>2026-04-24T17:43:51Z</time></trkpt><trkpt lat="43.072003641244216" lon="13.236554552093327"><ele>537.0</ele><time>2026-04-24T17:43:52Z</time></trkpt><trkpt lat="43.07203208822758" lon="13.236710759531377"><ele>537.0</ele><time>2026-04-24T17:43:53Z</time></trkpt><trkpt lat="43.072037254484414" lon="13.236841450455685"><ele>537.0</ele><time>2026-04-24T17:43:54Z</time></trkpt><trkpt lat="43.072046290014846" lon="13.236985384879256"><ele>537.0</ele><time>2026-04-24T17:43:55Z</time></trkpt><trkpt lat="43.07205809978011" lon="13.237131195146771"><ele>537.0</ele><time>2026-04-24T17:43:56Z</time></trkpt><trkpt lat="43.07206155024221" lon="13.237259575022588"><ele>537.0</ele><time>2026-04-24T17:43:57Z</time></trkpt><trkpt lat="43.07205077588334" lon="13.237387258119407"><ele>537.0</ele><time>2026-04-24T17:43:58Z</time></trkpt><trkpt lat="43.07203809512663" lon="13.23750280675296"><ele>537.0</ele><time>2026-04-24T17:43:59Z</time></trkpt><trkpt lat="43.07202785365806" lon="13.237610137419257"><ele>537.0</ele><time>2026-04-24T17:44:00Z</time></trkpt><trkpt lat="43.072027148760164" lon="13.237699751031329"><ele>537.0</ele><time>2026-04-24T17:44:01Z</time></trkpt><trkpt lat="43.072064183999856" lon="13.237825098642297"><ele>536.1666666666666</ele><time>2026-04-24T17:44:03Z</time></trkpt><trkpt lat="43.07213500381282" lon="13.237844474671556"><ele>535.3333333333334</ele><time>2026-04-24T17:44:04.999Z</time></trkpt><trkpt lat="43.07221794997015" lon="13.237783690657553"><ele>534.5</ele><time>2026-04-24T17:44:07.999Z</time></trkpt><trkpt lat="43.0722842546701" lon="13.237746298000987"><ele>533.6666666666667</ele><time>2026-04-24T17:44:08.999Z</time></trkpt><trkpt lat="43.07235176987762" lon="13.237681145494863"><ele>532.8333333333334</ele><time>2026-04-24T17:44:09.999Z</time></trkpt><trkpt lat="43.07242587364067" lon="13.237620837340891"><ele>532.0</ele><time>2026-04-24T17:44:10.999Z</time></trkpt><trkpt lat="43.07249066098552" lon="13.237558283761686"><ele>523.3333333333334</ele><time>2026-04-24T17:44:11.999Z</time></trkpt><trkpt lat="43.07253429922252" lon="13.237488201911676"><ele>514.6666666666667</ele><time>2026-04-24T17:44:12.999Z</time></trkpt><trkpt lat="43.07257859719898" lon="13.237426236055516"><ele>506.0</ele><time>2026-04-24T17:44:13.999Z</time></trkpt><trkpt lat="43.07258884177204" lon="13.237328743774091"><ele>497.33333333333337</ele><time>2026-04-24T17:44:14.999Z</time></trkpt><trkpt lat="43.07264187979926" lon="13.237219372764619"><ele>488.6666666666667</ele><time>2026-04-24T17:44:16.999Z</time></trkpt><trkpt lat="43.07271447572355" lon="13.237226068125175"><ele>480.0</ele><time>2026-04-24T17:44:18.999Z</time></trkpt><trkpt lat="43.07269162277326" lon="13.237375673451908"><ele>480.0</ele><time>2026-04-24T17:44:20.999Z</time></trkpt><trkpt lat="43.07266504340497" lon="13.237547953842709"><ele>480.0</ele><time>2026-04-24T17:44:22.999Z</time></trkpt><trkpt lat="43.0726517570977" lon="13.237633150998604"><ele>480.0</ele><time>2026-04-24T17:44:23.999Z</time></trkpt><trkpt lat="43.072647348691476" lon="13.237765266879634"><ele>480.0</ele><time>2026-04-24T17:44:25.999Z</time></trkpt><trkpt lat="43.07270014902491" lon="13.237823377622929"><ele>480.0</ele><time>2026-04-24T17:44:28.999Z</time></trkpt><trkpt lat="43.07282586782395" lon="13.237769122667915"><ele>480.0</ele><time>2026-04-24T17:44:31.999Z</time></trkpt><trkpt lat="43.07291668216863" lon="13.237765488189323"><ele>480.0</ele><time>2026-04-24T17:44:32.999Z</time></trkpt><trkpt lat="43.073001558489125" lon="13.237708068931282"><ele>480.0</ele><time>2026-04-24T17:44:33.999Z</time></trkpt><trkpt lat="43.073081981539794" lon="13.2376693273415"><ele>480.0</ele><time>2026-04-24T17:44:34.999Z</time></trkpt><trkpt lat="43.07315905134237" lon="13.237632334802457"><ele>480.0</ele><time>2026-04-24T17:44:35.999Z</time></trkpt><trkpt lat="43.073216197252236" lon="13.237529950378692"><ele>480.0</ele><time>2026-04-24T17:44:36.999Z</time></trkpt><trkpt lat="43.07325326801029" lon="13.237458038647874"><ele>478.75</ele><time>2026-04-24T17:44:37.999Z</time></trkpt><trkpt lat="43.0733036531339" lon="13.23731853602357"><ele>477.5</ele><time>2026-04-24T17:44:39.999Z</time></trkpt><trkpt lat="43.073326765603774" lon="13.237151722564546"><ele>476.25</ele><time>2026-04-24T17:44:41.999Z</time></trkpt><trkpt lat="43.07332432071683" lon="13.237025805664508"><ele>475.0</ele><time>2026-04-24T17:44:43.999Z</time></trkpt><trkpt lat="43.07325827548737" lon="13.236882036868014"><ele>474.4</ele><time>2026-04-24T17:44:45.999Z</time></trkpt><trkpt lat="43.07321322690876" lon="13.236775190887403"><ele>473.8</ele><time>2026-04-24T17:44:46.999Z</time></trkpt><trkpt lat="43.073163019275576" lon="13.236674031703807"><ele>473.20000000000005</ele><time>2026-04-24T17:44:47.999Z</time></trkpt><trkpt lat="43.073101315052114" lon="13.236557630050855"><ele>472.6</ele><time>2026-04-24T17:44:48.999Z</time></trkpt><trkpt lat="43.07307582206998" lon="13.236427171912972"><ele>472.0</ele><time>2026-04-24T17:44:49.999Z</time></trkpt><trkpt lat="43.073045101956254" lon="13.236305770205322"><ele>471.75</ele><time>2026-04-24T17:44:50.999Z</time></trkpt><trkpt lat="43.07304688255306" lon="13.236141999721363"><ele>471.5</ele><time>2026-04-24T17:44:51.999Z</time></trkpt><trkpt lat="43.073076948878025" lon="13.23598833306165"><ele>471.25</ele><time>2026-04-24T17:44:52.999Z</time></trkpt><trkpt lat="43.07311691307425" lon="13.235800161115105"><ele>471.0</ele><time>2026-04-24T17:44:53.999Z</time></trkpt><trkpt lat="43.07313599746704" lon="13.235641332943853"><ele>472.0</ele><time>2026-04-24T17:44:54.999Z</time></trkpt><trkpt lat="43.07313479257362" lon="13.235484228840086"><ele>473.0</ele><time>2026-04-24T17:44:55.999Z</time></trkpt><trkpt lat="43.07313160631748" lon="13.235324322469143"><ele>474.0</ele><time>2026-04-24T17:44:56.999Z</time></trkpt><trkpt lat="43.07313406794479" lon="13.235159959487657"><ele>475.0</ele><time>2026-04-24T17:44:57.999Z</time></trkpt><trkpt lat="43.07314354248776" lon="13.23501301498508"><ele>475.0</ele><time>2026-04-24T17:44:58.999Z</time></trkpt><trkpt lat="43.07317492141191" lon="13.234864396943976"><ele>475.0</ele><time>2026-04-24T17:44:59.999Z</time></trkpt><trkpt lat="43.073221375115" lon="13.234736528190464"><ele>475.0</ele><time>2026-04-24T17:45:00.999Z</time></trkpt><trkpt lat="43.073287277213396" lon="13.234622766408988"><ele>475.0</ele><time>2026-04-24T17:45:01.999Z</time></trkpt><trkpt lat="43.07335771792854" lon="13.23454935432954"><ele>475.0</ele><time>2026-04-24T17:45:02.999Z</time></trkpt><trkpt lat="43.07347029870603" lon="13.234551870184175"><ele>479.25</ele><time>2026-04-24T17:45:03.999Z</time></trkpt><trkpt lat="43.07358804683436" lon="13.23450183862333"><ele>483.5</ele><time>2026-04-24T17:45:04.999Z</time></trkpt><trkpt lat="43.07370971226341" lon="13.234408691247054"><ele>487.75</ele><time>2026-04-24T17:45:05.999Z</time></trkpt><trkpt lat="43.07381326411654" lon="13.234292454167772"><ele>492.0</ele><time>2026-04-24T17:45:06.999Z</time></trkpt><trkpt lat="43.073931253307734" lon="13.234170132293732"><ele>492.0</ele><time>2026-04-24T17:45:07.999Z</time></trkpt><trkpt lat="43.07403319093351" lon="13.234053617077546"><ele>492.0</ele><time>2026-04-24T17:45:08.999Z</time></trkpt><trkpt lat="43.07412472172604" lon="13.233944537063024"><ele>492.0</ele><time>2026-04-24T17:45:09.999Z</time></trkpt><trkpt lat="43.07423339279817" lon="13.23389578951582"><ele>492.0</ele><time>2026-04-24T17:45:10.999Z</time></trkpt><trkpt lat="43.07434547932307" lon="13.23384780365296"><ele>500.75</ele><time>2026-04-24T17:45:11.999Z</time></trkpt><trkpt lat="43.074480794654754" lon="13.233788151657462"><ele>509.5</ele><time>2026-04-24T17:45:12.999Z</time></trkpt><trkpt lat="43.07459903812622" lon="13.233758912217434"><ele>518.25</ele><time>2026-04-24T17:45:13.999Z</time></trkpt><trkpt lat="43.07470981698283" lon="13.233744445057141"><ele>527.0</ele><time>2026-04-24T17:45:14.999Z</time></trkpt><trkpt lat="43.07480414506418" lon="13.23367906596005"><ele>527.0</ele><time>2026-04-24T17:45:15.999Z</time></trkpt><trkpt lat="43.07490093682314" lon="13.233610443067564"><ele>527.0</ele><time>2026-04-24T17:45:16.999Z</time></trkpt><trkpt lat="43.07498933214457" lon="13.233523213602641"><ele>527.0</ele><time>2026-04-24T17:45:17.999Z</time></trkpt><trkpt lat="43.07508948379673" lon="13.233492582466639"><ele>527.0</ele><time>2026-04-24T17:45:18.999Z</time></trkpt><trkpt lat="43.07517685273005" lon="13.233494795397881"><ele>527.0</ele><time>2026-04-24T17:45:19.999Z</time></trkpt><trkpt lat="43.075274980688626" lon="13.233501261318542"><ele>529.25</ele><time>2026-04-24T17:45:20.999Z</time></trkpt><trkpt lat="43.07539431886888" lon="13.233493431260223"><ele>531.5</ele><time>2026-04-24T17:45:21.999Z</time></trkpt><trkpt lat="43.07551605861446" lon="13.23344178691904"><ele>533.75</ele><time>2026-04-24T17:45:22.999Z</time></trkpt><trkpt lat="43.075628937626554" lon="13.233363665088454"><ele>536.0</ele><time>2026-04-24T17:45:23.999Z</time></trkpt><trkpt lat="43.07573605442051" lon="13.233296828305015"><ele>539.0</ele><time>2026-04-24T17:45:24.999Z</time></trkpt><trkpt lat="43.07582646857887" lon="13.233260654544878"><ele>542.0</ele><time>2026-04-24T17:45:25.999Z</time></trkpt><trkpt lat="43.07594000812291" lon="13.233243225394485"><ele>545.0</ele><time>2026-04-24T17:45:27.999Z</time></trkpt><trkpt lat="43.0759836912514" lon="13.233373774019014"><ele>548.0</ele><time>2026-04-24T17:45:29.999Z</time></trkpt><trkpt lat="43.07595787473859" lon="13.233457499657433"><ele>551.0</ele><time>2026-04-24T17:45:30.999Z</time></trkpt><trkpt lat="43.07591207646721" lon="13.233569030988406"><ele>551.0</ele><time>2026-04-24T17:45:31.999Z</time></trkpt><trkpt lat="43.07582355490037" lon="13.233681671140129"><ele>551.0</ele><time>2026-04-24T17:45:32.998Z</time></trkpt><trkpt lat="43.07575515905099" lon="13.233826979463885"><ele>551.0</ele><time>2026-04-24T17:45:34Z</time></trkpt><trkpt lat="43.07565394285628" lon="13.233956684868563"><ele>551.0</ele><time>2026-04-24T17:45:35Z</time></trkpt><trkpt lat="43.07557825961685" lon="13.234114949323777"><ele>549.2</ele><time>2026-04-24T17:45:36Z</time></trkpt><trkpt lat="43.07551692378579" lon="13.234224274512837"><ele>547.4000000000001</ele><time>2026-04-24T17:45:37Z</time></trkpt><trkpt lat="43.0754803225421" lon="13.23433947382508"><ele>545.6</ele><time>2026-04-24T17:45:38Z</time></trkpt><trkpt lat="43.07542469278236" lon="13.234473269928232"><ele>543.8000000000001</ele><time>2026-04-24T17:45:39Z</time></trkpt><trkpt lat="43.07539483133026" lon="13.234631445641241"><ele>542.0</ele><time>2026-04-24T17:45:40Z</time></trkpt><trkpt lat="43.075398884510456" lon="13.234765564138117"><ele>546.6</ele><time>2026-04-24T17:45:41Z</time></trkpt><trkpt lat="43.075415379399516" lon="13.23489339340414"><ele>551.2</ele><time>2026-04-24T17:45:42Z</time></trkpt><trkpt lat="43.07543792776296" lon="13.235036208366754"><ele>555.8</ele><time>2026-04-24T17:45:43Z</time></trkpt><trkpt lat="43.07550329758068" lon="13.235156094212915"><ele>560.4</ele><time>2026-04-24T17:45:44Z</time></trkpt><trkpt lat="43.07559728465679" lon="13.235179054253091"><ele>565.0</ele><time>2026-04-24T17:45:45Z</time></trkpt><trkpt lat="43.07568264799614" lon="13.235183960953778"><ele>567.5</ele><time>2026-04-24T17:45:46Z</time></trkpt><trkpt lat="43.0757983426126" lon="13.23515821073106"><ele>570.0</ele><time>2026-04-24T17:45:47Z</time></trkpt><trkpt lat="43.07594449371145" lon="13.235115662978405"><ele>572.5</ele><time>2026-04-24T17:45:48Z</time></trkpt><trkpt lat="43.076103780747545" lon="13.235107295108445"><ele>575.0</ele><time>2026-04-24T17:45:49Z</time></trkpt><trkpt lat="43.076257643676925" lon="13.235067242948585"><ele>575.0</ele><time>2026-04-24T17:45:50Z</time></trkpt><trkpt lat="43.07641070556651" lon="13.235073669879277"><ele>575.0</ele><time>2026-04-24T17:45:51Z</time></trkpt><trkpt lat="43.07653670710685" lon="13.23507440720734"><ele>575.0</ele><time>2026-04-24T17:45:52Z</time></trkpt><trkpt lat="43.07664328646104" lon="13.23506551227"><ele>575.0</ele><time>2026-04-24T17:45:53Z</time></trkpt><trkpt lat="43.07672372756962" lon="13.235057848946068"><ele>577.0</ele><time>2026-04-24T17:45:54Z</time></trkpt><trkpt lat="43.07680758893617" lon="13.235000945470736"><ele>579.0</ele><time>2026-04-24T17:45:55Z</time></trkpt><trkpt lat="43.07687184633271" lon="13.234898203296911"><ele>581.0</ele><time>2026-04-24T17:45:56Z</time></trkpt><trkpt lat="43.07694333715057" lon="13.234753758084054"><ele>583.0</ele><time>2026-04-24T17:45:57Z</time></trkpt><trkpt lat="43.07703304739523" lon="13.234614146067623"><ele>583.0</ele><time>2026-04-24T17:45:58Z</time></trkpt><trkpt lat="43.07714335871723" lon="13.234502205333184"><ele>583.0</ele><time>2026-04-24T17:45:59Z</time></trkpt><trkpt lat="43.07722412992185" lon="13.234333959083052"><ele>583.0</ele><time>2026-04-24T17:46:00Z</time></trkpt><trkpt lat="43.07738217582007" lon="13.234313567317525"><ele>583.0</ele><time>2026-04-24T17:46:01Z</time></trkpt><trkpt lat="43.07746036755123" lon="13.234263404373214"><ele>588.5</ele><time>2026-04-24T17:46:02Z</time></trkpt><trkpt lat="43.0775494379862" lon="13.234249657612411"><ele>594.0</ele><time>2026-04-24T17:46:03Z</time></trkpt><trkpt lat="43.077663974051056" lon="13.234279183914902"><ele>599.5</ele><time>2026-04-24T17:46:04Z</time></trkpt><trkpt lat="43.077804102503265" lon="13.234321626197797"><ele>605.0</ele><time>2026-04-24T17:46:05Z</time></trkpt><trkpt lat="43.07791941130758" lon="13.234336196016828"><ele>605.0</ele><time>2026-04-24T17:46:06Z</time></trkpt><trkpt lat="43.078008739473724" lon="13.234292829241854"><ele>605.0</ele><time>2026-04-24T17:46:07Z</time></trkpt><trkpt lat="43.07810320199952" lon="13.234209560556254"><ele>605.0</ele><time>2026-04-24T17:46:08Z</time></trkpt><trkpt lat="43.0781912749373" lon="13.234118105481324"><ele>605.0</ele><time>2026-04-24T17:46:09Z</time></trkpt><trkpt lat="43.07828895791489" lon="13.23400368544264"><ele>605.0</ele><time>2026-04-24T17:46:10Z</time></trkpt><trkpt lat="43.07839844058079" lon="13.233866004117905"><ele>607.5</ele><time>2026-04-24T17:46:11Z</time></trkpt><trkpt lat="43.078511418455406" lon="13.23373421712719"><ele>610.0</ele><time>2026-04-24T17:46:12Z</time></trkpt><trkpt lat="43.07863401451413" lon="13.233609952930898"><ele>612.5</ele><time>2026-04-24T17:46:13Z</time></trkpt><trkpt lat="43.07875375771153" lon="13.23353427329885"><ele>615.0</ele><time>2026-04-24T17:46:14Z</time></trkpt><trkpt lat="43.078909369690706" lon="13.233463147250838"><ele>615.0</ele><time>2026-04-24T17:46:14.999Z</time></trkpt><trkpt lat="43.079039038828924" lon="13.233425882039969"><ele>615.0</ele><time>2026-04-24T17:46:15.999Z</time></trkpt><trkpt lat="43.07916839426576" lon="13.233413793323225"><ele>615.0</ele><time>2026-04-24T17:46:16.999Z</time></trkpt><trkpt lat="43.07926338241832" lon="13.233424797844453"><ele>615.0</ele><time>2026-04-24T17:46:17.999Z</time></trkpt><trkpt lat="43.079353338198764" lon="13.233458687373172"><ele>619.3333333333334</ele><time>2026-04-24T17:46:18.999Z</time></trkpt><trkpt lat="43.07943894495908" lon="13.233508496565621"><ele>623.6666666666666</ele><time>2026-04-24T17:46:19.999Z</time></trkpt><trkpt lat="43.079507469459024" lon="13.233529609014836"><ele>628.0</ele><time>2026-04-24T17:46:20.999Z</time></trkpt><trkpt lat="43.07957706692793" lon="13.233533494246817"><ele>632.3333333333333</ele><time>2026-04-24T17:46:21.999Z</time></trkpt><trkpt lat="43.07964119661432" lon="13.233556844298938"><ele>636.6666666666666</ele><time>2026-04-24T17:46:22.999Z</time></trkpt><trkpt lat="43.079719078689216" lon="13.233603319742725"><ele>641.0</ele><time>2026-04-24T17:46:23.999Z</time></trkpt><trkpt lat="43.079801699012165" lon="13.233651669496338"><ele>641.0</ele><time>2026-04-24T17:46:24.999Z</time></trkpt><trkpt lat="43.07989823118255" lon="13.233664965290986"><ele>641.0</ele><time>2026-04-24T17:46:25.999Z</time></trkpt><trkpt lat="43.079998378834134" lon="13.233635347011859"><ele>641.0</ele><time>2026-04-24T17:46:26.999Z</time></trkpt><trkpt lat="43.08009966931747" lon="13.23356241332801"><ele>641.0</ele><time>2026-04-24T17:46:27.999Z</time></trkpt><trkpt lat="43.08020725780353" lon="13.23346448766739"><ele>641.0</ele><time>2026-04-24T17:46:28.999Z</time></trkpt><trkpt lat="43.08033190134924" lon="13.233350332753753"><ele>646.25</ele><time>2026-04-24T17:46:29.999Z</time></trkpt><trkpt lat="43.0804327598994" lon="13.233248448087569"><ele>651.5</ele><time>2026-04-24T17:46:30.999Z</time></trkpt><trkpt lat="43.08050739654335" lon="13.233174681403959"><ele>656.75</ele><time>2026-04-24T17:46:31.999Z</time></trkpt><trkpt lat="43.08061651299988" lon="13.233154968239411"><ele>662.0</ele><time>2026-04-24T17:46:32.999Z</time></trkpt><trkpt lat="43.080769839543976" lon="13.233177467225946"><ele>664.6666666666666</ele><time>2026-04-24T17:46:33.999Z</time></trkpt><trkpt lat="43.08091730908676" lon="13.233167319897904"><ele>667.3333333333334</ele><time>2026-04-24T17:46:34.999Z</time></trkpt><trkpt lat="43.08107037371451" lon="13.23312876095188"><ele>670.0</ele><time>2026-04-24T17:46:35.999Z</time></trkpt><trkpt lat="43.08122174644111" lon="13.233074574917861"><ele>673.75</ele><time>2026-04-24T17:46:36.999Z</time></trkpt><trkpt lat="43.08136038341811" lon="13.233026643527927"><ele>677.5</ele><time>2026-04-24T17:46:37.999Z</time></trkpt><trkpt lat="43.08148115884285" lon="13.232985394611205"><ele>681.25</ele><time>2026-04-24T17:46:38.999Z</time></trkpt><trkpt lat="43.08159944391559" lon="13.232926692431505"><ele>685.0</ele><time>2026-04-24T17:46:39.999Z</time></trkpt><trkpt lat="43.08171911872557" lon="13.232838443064617"><ele>685.0</ele><time>2026-04-24T17:46:40.999Z</time></trkpt><trkpt lat="43.0818514712564" lon="13.232737865546085"><ele>685.0</ele><time>2026-04-24T17:46:41.999Z</time></trkpt><trkpt lat="43.08195555031479" lon="13.232657235110171"><ele>685.0</ele><time>2026-04-24T17:46:42.999Z</time></trkpt><trkpt lat="43.082042066282554" lon="13.232587530642894"><ele>685.0</ele><time>2026-04-24T17:46:43.999Z</time></trkpt><trkpt lat="43.08211005137404" lon="13.232554028269407"><ele>685.0</ele><time>2026-04-24T17:46:44.999Z</time></trkpt><trkpt lat="43.08223654303108" lon="13.23264765565827"><ele>685.0</ele><time>2026-04-24T17:46:46.999Z</time></trkpt><trkpt lat="43.08232325687623" lon="13.232770100755793"><ele>685.0</ele><time>2026-04-24T17:46:47.999Z</time></trkpt><trkpt lat="43.08241218234957" lon="13.232852214965732"><ele>685.0</ele><time>2026-04-24T17:46:48.999Z</time></trkpt><trkpt lat="43.08252681088117" lon="13.232865515551401"><ele>685.0</ele><time>2026-04-24T17:46:49.999Z</time></trkpt><trkpt lat="43.08264110432791" lon="13.232876437839268"><ele>683.6</ele><time>2026-04-24T17:46:50.999Z</time></trkpt><trkpt lat="43.08273374296759" lon="13.232871660953142"><ele>682.2</ele><time>2026-04-24T17:46:51.999Z</time></trkpt><trkpt lat="43.08281526145536" lon="13.232836950166174"><ele>680.8</ele><time>2026-04-24T17:46:52.999Z</time></trkpt><trkpt lat="43.0829100924157" lon="13.232762427595073"><ele>679.4</ele><time>2026-04-24T17:46:53.999Z</time></trkpt><trkpt lat="43.08303083514129" lon="13.232708688543157"><ele>678.0</ele><time>2026-04-24T17:46:54.999Z</time></trkpt><trkpt lat="43.083152785953736" lon="13.232691330856142"><ele>678.0</ele><time>2026-04-24T17:46:55.999Z</time></trkpt><trkpt lat="43.08324928139388" lon="13.232717484531848"><ele>678.0</ele><time>2026-04-24T17:46:56.999Z</time></trkpt><trkpt lat="43.08332272709942" lon="13.23275698886499"><ele>678.0</ele><time>2026-04-24T17:46:57.999Z</time></trkpt><trkpt lat="43.083409976174295" lon="13.232797493742792"><ele>678.0</ele><time>2026-04-24T17:46:58.999Z</time></trkpt><trkpt lat="43.083528547643986" lon="13.232866794334207"><ele>678.0</ele><time>2026-04-24T17:46:59.999Z</time></trkpt><trkpt lat="43.0836465883939" lon="13.232934231803434"><ele>674.75</ele><time>2026-04-24T17:47:00.999Z</time></trkpt><trkpt lat="43.083756821062806" lon="13.232971255280633"><ele>671.5</ele><time>2026-04-24T17:47:01.999Z</time></trkpt><trkpt lat="43.08387219956969" lon="13.233055402820954"><ele>668.25</ele><time>2026-04-24T17:47:02.999Z</time></trkpt><trkpt lat="43.08400315771274" lon="13.233111594369946"><ele>665.0</ele><time>2026-04-24T17:47:03.999Z</time></trkpt><trkpt lat="43.08413549752684" lon="13.2331566693494"><ele>660.25</ele><time>2026-04-24T17:47:04.999Z</time></trkpt><trkpt lat="43.084251713052375" lon="13.233186647582498"><ele>655.5</ele><time>2026-04-24T17:47:05.999Z</time></trkpt><trkpt lat="43.084364972468286" lon="13.233208861451285"><ele>650.75</ele><time>2026-04-24T17:47:06.999Z</time></trkpt><trkpt lat="43.084486368747235" lon="13.233228532350276"><ele>646.0</ele><time>2026-04-24T17:47:07.999Z</time></trkpt><trkpt lat="43.08460346253585" lon="13.233242797975826"><ele>646.0</ele><time>2026-04-24T17:47:08.999Z</time></trkpt><trkpt lat="43.084727208723265" lon="13.233251436863574"><ele>646.0</ele><time>2026-04-24T17:47:09.999Z</time></trkpt><trkpt lat="43.084850286996634" lon="13.233251036434801"><ele>646.0</ele><time>2026-04-24T17:47:10.999Z</time></trkpt><trkpt lat="43.08497467549034" lon="13.233234144372851"><ele>646.0</ele><time>2026-04-24T17:47:11.999Z</time></trkpt><trkpt lat="43.085083792986346" lon="13.23320904622737"><ele>643.4</ele><time>2026-04-24T17:47:12.999Z</time></trkpt><trkpt lat="43.08517474397353" lon="13.233172611540748"><ele>640.8</ele><time>2026-04-24T17:47:13.999Z</time></trkpt><trkpt lat="43.08526436823012" lon="13.233111975618023"><ele>638.1999999999999</ele><time>2026-04-24T17:47:14.999Z</time></trkpt><trkpt lat="43.08536192855503" lon="13.233051054782512"><ele>635.5999999999999</ele><time>2026-04-24T17:47:15.999Z</time></trkpt><trkpt lat="43.085457867916894" lon="13.232957922159361"><ele>633.0</ele><time>2026-04-24T17:47:16.999Z</time></trkpt><trkpt lat="43.085559194025684" lon="13.23284341347141"><ele>633.0</ele><time>2026-04-24T17:47:17.999Z</time></trkpt><trkpt lat="43.08566754895685" lon="13.23272890421755"><ele>633.0</ele><time>2026-04-24T17:47:18.999Z</time></trkpt><trkpt lat="43.08576987467686" lon="13.232624312877268"><ele>633.0</ele><time>2026-04-24T17:47:19.999Z</time></trkpt><trkpt lat="43.085881259704664" lon="13.232554733309046"><ele>633.0</ele><time>2026-04-24T17:47:20.999Z</time></trkpt><trkpt lat="43.08599296241165" lon="13.232464680379703"><ele>635.0</ele><time>2026-04-24T17:47:21.999Z</time></trkpt><trkpt lat="43.086103517854006" lon="13.232357327382962"><ele>637.0</ele><time>2026-04-24T17:47:22.999Z</time></trkpt><trkpt lat="43.08622182695524" lon="13.23228098201812"><ele>639.0</ele><time>2026-04-24T17:47:23.999Z</time></trkpt><trkpt lat="43.08634904566351" lon="13.232228002439825"><ele>641.0</ele><time>2026-04-24T17:47:24.999Z</time></trkpt><trkpt lat="43.08647380125835" lon="13.232182014115576"><ele>641.0</ele><time>2026-04-24T17:47:25.999Z</time></trkpt><trkpt lat="43.086593887279" lon="13.232132929520397"><ele>641.0</ele><time>2026-04-24T17:47:26.999Z</time></trkpt><trkpt lat="43.08671844959508" lon="13.232114711628496"><ele>641.0</ele><time>2026-04-24T17:47:27.999Z</time></trkpt><trkpt lat="43.08683261596931" lon="13.232064275139363"><ele>641.0</ele><time>2026-04-24T17:47:28.999Z</time></trkpt><trkpt lat="43.086947395120156" lon="13.232003778440433"><ele>637.75</ele><time>2026-04-24T17:47:29.999Z</time></trkpt><trkpt lat="43.08706186519812" lon="13.231934195106524"><ele>634.5</ele><time>2026-04-24T17:47:30.999Z</time></trkpt><trkpt lat="43.08719851017797" lon="13.23183765295759"><ele>631.25</ele><time>2026-04-24T17:47:31.999Z</time></trkpt><trkpt lat="43.08731804868131" lon="13.231738983229004"><ele>628.0</ele><time>2026-04-24T17:47:32.999Z</time></trkpt><trkpt lat="43.08742513088258" lon="13.231627973021684"><ele>623.25</ele><time>2026-04-24T17:47:33.999Z</time></trkpt><trkpt lat="43.087546470257955" lon="13.231558601752123"><ele>618.5</ele><time>2026-04-24T17:47:34.999Z</time></trkpt><trkpt lat="43.08763872806381" lon="13.231495707052426"><ele>613.75</ele><time>2026-04-24T17:47:35.999Z</time></trkpt><trkpt lat="43.08775658138482" lon="13.231514121270033"><ele>609.0</ele><time>2026-04-24T17:47:36.999Z</time></trkpt><trkpt lat="43.087858268248546" lon="13.231522066810012"><ele>609.0</ele><time>2026-04-24T17:47:37.999Z</time></trkpt><trkpt lat="43.08793241599925" lon="13.2314885830141"><ele>609.0</ele><time>2026-04-24T17:47:38.999Z</time></trkpt><trkpt lat="43.08802683569099" lon="13.231410595724505"><ele>609.0</ele><time>2026-04-24T17:47:40Z</time></trkpt><trkpt lat="43.08815111728698" lon="13.23132802556077"><ele>609.0</ele><time>2026-04-24T17:47:41Z</time></trkpt><trkpt lat="43.088277522225674" lon="13.231216684132256"><ele>608.5</ele><time>2026-04-24T17:47:42Z</time></trkpt><trkpt lat="43.08839740675791" lon="13.231127676988951"><ele>608.0</ele><time>2026-04-24T17:47:43Z</time></trkpt><trkpt lat="43.088512200428646" lon="13.231012242709017"><ele>607.5</ele><time>2026-04-24T17:47:44Z</time></trkpt><trkpt lat="43.088621700213174" lon="13.2309192526462"><ele>607.0</ele><time>2026-04-24T17:47:45Z</time></trkpt><trkpt lat="43.0887480882266" lon="13.230849676664656"><ele>607.0</ele><time>2026-04-24T17:47:46Z</time></trkpt><trkpt lat="43.088889432424935" lon="13.230827353431904"><ele>607.0</ele><time>2026-04-24T17:47:47Z</time></trkpt><trkpt lat="43.08904338070993" lon="13.230835317092003"><ele>607.0</ele><time>2026-04-24T17:47:48Z</time></trkpt><trkpt lat="43.08916824528115" lon="13.230843817985111"><ele>607.0</ele><time>2026-04-24T17:47:49Z</time></trkpt><trkpt lat="43.08926621564409" lon="13.230843817989872"><ele>604.4</ele><time>2026-04-24T17:47:50Z</time></trkpt><trkpt lat="43.08937221645564" lon="13.230834982184057"><ele>601.8000000000001</ele><time>2026-04-24T17:47:51Z</time></trkpt><trkpt lat="43.089480007960674" lon="13.230805123757863"><ele>599.2</ele><time>2026-04-24T17:47:52Z</time></trkpt><trkpt lat="43.089582574425826" lon="13.230745292732687"><ele>596.6</ele><time>2026-04-24T17:47:53Z</time></trkpt><trkpt lat="43.089685039071774" lon="13.23072250898481"><ele>594.0</ele><time>2026-04-24T17:47:54Z</time></trkpt><trkpt lat="43.08977888961311" lon="13.23067486447189"><ele>593.8</ele><time>2026-04-24T17:47:55Z</time></trkpt><trkpt lat="43.08987890111524" lon="13.230623833482728"><ele>593.5999999999999</ele><time>2026-04-24T17:47:56Z</time></trkpt><trkpt lat="43.08997535101272" lon="13.23056717810266"><ele>593.4</ele><time>2026-04-24T17:47:57Z</time></trkpt><trkpt lat="43.09006922930354" lon="13.230514595758013"><ele>593.1999999999999</ele><time>2026-04-24T17:47:58Z</time></trkpt><trkpt lat="43.09017263221761" lon="13.230489782041094"><ele>593.0</ele><time>2026-04-24T17:47:59Z</time></trkpt><trkpt lat="43.09027538204843" lon="13.230420161903108"><ele>593.0</ele><time>2026-04-24T17:48:00Z</time></trkpt><trkpt lat="43.090376105160885" lon="13.23038912651975"><ele>593.0</ele><time>2026-04-24T17:48:01Z</time></trkpt><trkpt lat="43.09048105895639" lon="13.230332924750364"><ele>593.0</ele><time>2026-04-24T17:48:02Z</time></trkpt><trkpt lat="43.090591865587974" lon="13.230270666249117"><ele>593.0</ele><time>2026-04-24T17:48:03Z</time></trkpt><trkpt lat="43.09069908462921" lon="13.230207880603555"><ele>588.0</ele><time>2026-04-24T17:48:04Z</time></trkpt><trkpt lat="43.09081730419148" lon="13.230138306408453"><ele>583.0</ele><time>2026-04-24T17:48:05Z</time></trkpt><trkpt lat="43.090934592285336" lon="13.230051945052933"><ele>578.0</ele><time>2026-04-24T17:48:06Z</time></trkpt><trkpt lat="43.091033335507994" lon="13.230010138617908"><ele>573.0</ele><time>2026-04-24T17:48:07Z</time></trkpt><trkpt lat="43.09113093554699" lon="13.229966642631588"><ele>573.0</ele><time>2026-04-24T17:48:08Z</time></trkpt><trkpt lat="43.09121761948787" lon="13.229901264887275"><ele>573.0</ele><time>2026-04-24T17:48:09Z</time></trkpt><trkpt lat="43.091318857438544" lon="13.229801913904986"><ele>573.0</ele><time>2026-04-24T17:48:10Z</time></trkpt><trkpt lat="43.09142780305664" lon="13.229738196198157"><ele>573.0</ele><time>2026-04-24T17:48:11Z</time></trkpt><trkpt lat="43.0915199610246" lon="13.229667461937401"><ele>573.0</ele><time>2026-04-24T17:48:12Z</time></trkpt><trkpt lat="43.091602314079815" lon="13.229591323210387"><ele>572.25</ele><time>2026-04-24T17:48:13Z</time></trkpt><trkpt lat="43.09170020299279" lon="13.229545624307228"><ele>571.5</ele><time>2026-04-24T17:48:14Z</time></trkpt><trkpt lat="43.09178927119205" lon="13.229467497558078"><ele>570.75</ele><time>2026-04-24T17:48:15Z</time></trkpt><trkpt lat="43.09188387454521" lon="13.229349079203018"><ele>570.0</ele><time>2026-04-24T17:48:16Z</time></trkpt><trkpt lat="43.09201079176484" lon="13.22920979804836"><ele>570.0</ele><time>2026-04-24T17:48:17Z</time></trkpt><trkpt lat="43.09213234728013" lon="13.229080180849301"><ele>570.0</ele><time>2026-04-24T17:48:18Z</time></trkpt><trkpt lat="43.09223512738598" lon="13.22896741069156"><ele>570.0</ele><time>2026-04-24T17:48:19Z</time></trkpt><trkpt lat="43.09232737357159" lon="13.228844845554967"><ele>570.0</ele><time>2026-04-24T17:48:20Z</time></trkpt><trkpt lat="43.09243308384015" lon="13.228743340691713"><ele>567.0</ele><time>2026-04-24T17:48:21Z</time></trkpt><trkpt lat="43.09254239752058" lon="13.228623815151762"><ele>564.0</ele><time>2026-04-24T17:48:22Z</time></trkpt><trkpt lat="43.092647310321944" lon="13.228503534907867"><ele>561.0</ele><time>2026-04-24T17:48:23Z</time></trkpt><trkpt lat="43.09274958966522" lon="13.22836860727069"><ele>558.0</ele><time>2026-04-24T17:48:24Z</time></trkpt><trkpt lat="43.09286121686577" lon="13.22825749039671"><ele>561.0</ele><time>2026-04-24T17:48:25Z</time></trkpt><trkpt lat="43.092963511818525" lon="13.228132140732471"><ele>564.0</ele><time>2026-04-24T17:48:26Z</time></trkpt><trkpt lat="43.09305837170002" lon="13.228016488531892"><ele>567.0</ele><time>2026-04-24T17:48:27Z</time></trkpt><trkpt lat="43.09315449523258" lon="13.227910071213156"><ele>570.0</ele><time>2026-04-24T17:48:28Z</time></trkpt><trkpt lat="43.09323693606048" lon="13.227844617717606"><ele>564.25</ele><time>2026-04-24T17:48:29Z</time></trkpt><trkpt lat="43.09331957921395" lon="13.227789276795356"><ele>558.5</ele><time>2026-04-24T17:48:29.999Z</time></trkpt><trkpt lat="43.09342038395394" lon="13.227695615013586"><ele>552.75</ele><time>2026-04-24T17:48:30.999Z</time></trkpt><trkpt lat="43.093531971295164" lon="13.227627547686183"><ele>547.0</ele><time>2026-04-24T17:48:31.999Z</time></trkpt><trkpt lat="43.09363168801062" lon="13.227541365797927"><ele>547.0</ele><time>2026-04-24T17:48:32.999Z</time></trkpt><trkpt lat="43.09372269053183" lon="13.227450245681357"><ele>547.0</ele><time>2026-04-24T17:48:33.999Z</time></trkpt><trkpt lat="43.09380688894573" lon="13.22739240773928"><ele>547.0</ele><time>2026-04-24T17:48:34.999Z</time></trkpt><trkpt lat="43.093871109463514" lon="13.22733370562653"><ele>547.0</ele><time>2026-04-24T17:48:35.999Z</time></trkpt><trkpt lat="43.093917831892504" lon="13.227258100210056"><ele>547.0</ele><time>2026-04-24T17:48:36.999Z</time></trkpt><trkpt lat="43.09397216043004" lon="13.227153900369634"><ele>548.75</ele><time>2026-04-24T17:48:37.999Z</time></trkpt><trkpt lat="43.09402689783375" lon="13.227001733963482"><ele>550.5</ele><time>2026-04-24T17:48:38.999Z</time></trkpt><trkpt lat="43.094068395872895" lon="13.226835590144232"><ele>552.25</ele><time>2026-04-24T17:48:39.999Z</time></trkpt><trkpt lat="43.09410513667453" lon="13.226674625140864"><ele>554.0</ele><time>2026-04-24T17:48:40.999Z</time></trkpt><trkpt lat="43.094171321291455" lon="13.226554502838889"><ele>550.2</ele><time>2026-04-24T17:48:41.999Z</time></trkpt><trkpt lat="43.09422422062263" lon="13.22645138931259"><ele>546.4</ele><time>2026-04-24T17:48:42.999Z</time></trkpt><trkpt lat="43.09429638667104" lon="13.22634437373834"><ele>542.6</ele><time>2026-04-24T17:48:43.999Z</time></trkpt><trkpt lat="43.094386262358434" lon="13.226237743559402"><ele>538.8</ele><time>2026-04-24T17:48:44.999Z</time></trkpt><trkpt lat="43.09446828081328" lon="13.22616609694801"><ele>535.0</ele><time>2026-04-24T17:48:45.999Z</time></trkpt><trkpt lat="43.09453866977626" lon="13.226158097396558"><ele>535.0</ele><time>2026-04-24T17:48:46.999Z</time></trkpt><trkpt lat="43.094603929210194" lon="13.22623512710756"><ele>535.0</ele><time>2026-04-24T17:48:49.999Z</time></trkpt><trkpt lat="43.094545974042695" lon="13.226175969113672"><ele>535.0</ele><time>2026-04-24T17:49:04.999Z</time></trkpt><trkpt lat="43.09448900262619" lon="13.225693147713027"><ele>536.4</ele><time>2026-04-24T17:49:36.999Z</time></trkpt><trkpt lat="43.09443748387125" lon="13.225588811302977"><ele>537.8</ele><time>2026-04-24T17:49:37.999Z</time></trkpt><trkpt lat="43.0943721209636" lon="13.225471382122938"><ele>539.2</ele><time>2026-04-24T17:49:38.999Z</time></trkpt><trkpt lat="43.09430446525874" lon="13.22535807061595"><ele>540.6</ele><time>2026-04-24T17:49:39.999Z</time></trkpt><trkpt lat="43.09422730378421" lon="13.22523669759762"><ele>542.0</ele><time>2026-04-24T17:49:40.999Z</time></trkpt><trkpt lat="43.094143899628364" lon="13.225118155299509"><ele>544.8000000000001</ele><time>2026-04-24T17:49:41.999Z</time></trkpt><trkpt lat="43.09406154533196" lon="13.225007419063669"><ele>547.6</ele><time>2026-04-24T17:49:42.999Z</time></trkpt><trkpt lat="43.09398629111847" lon="13.224913711306206"><ele>550.4000000000001</ele><time>2026-04-24T17:49:43.999Z</time></trkpt><trkpt lat="43.09390791582579" lon="13.224813903735267"><ele>553.2</ele><time>2026-04-24T17:49:45Z</time></trkpt><trkpt lat="43.093833691998135" lon="13.224705654396589"><ele>556.0</ele><time>2026-04-24T17:49:46Z</time></trkpt><trkpt lat="43.09376518524064" lon="13.224594014501324"><ele>556.0</ele><time>2026-04-24T17:49:47Z</time></trkpt><trkpt lat="43.093697150082086" lon="13.224468324225656"><ele>556.0</ele><time>2026-04-24T17:49:48Z</time></trkpt><trkpt lat="43.093632998452264" lon="13.224354642837504"><ele>556.0</ele><time>2026-04-24T17:49:49Z</time></trkpt><trkpt lat="43.093561305622245" lon="13.224232160168842"><ele>556.0</ele><time>2026-04-24T17:49:50Z</time></trkpt><trkpt lat="43.09350149346592" lon="13.224106125521805"><ele>556.0</ele><time>2026-04-24T17:49:51Z</time></trkpt><trkpt lat="43.093452519030386" lon="13.223967832041396"><ele>557.4</ele><time>2026-04-24T17:49:52Z</time></trkpt><trkpt lat="43.093415145521035" lon="13.223829455661587"><ele>558.8</ele><time>2026-04-24T17:49:53Z</time></trkpt><trkpt lat="43.0933828609185" lon="13.22368973993353"><ele>560.1999999999999</ele><time>2026-04-24T17:49:54Z</time></trkpt><trkpt lat="43.09335362868456" lon="13.223560136452386"><ele>561.6</ele><time>2026-04-24T17:49:55Z</time></trkpt><trkpt lat="43.093312111190144" lon="13.22342536849024"><ele>563.0</ele><time>2026-04-24T17:49:56Z</time></trkpt><trkpt lat="43.09326193107761" lon="13.22332308400321"><ele>566.1999999999999</ele><time>2026-04-24T17:49:57Z</time></trkpt><trkpt lat="43.093206908321235" lon="13.223242687293816"><ele>569.4</ele><time>2026-04-24T17:49:58Z</time></trkpt><trkpt lat="43.09315087974195" lon="13.223162858680581"><ele>572.5999999999999</ele><time>2026-04-24T17:49:59Z</time></trkpt><trkpt lat="43.093074293829154" lon="13.223055201551716"><ele>575.8</ele><time>2026-04-24T17:50:00Z</time></trkpt><trkpt lat="43.092997481980916" lon="13.222936216640214"><ele>579.0</ele><time>2026-04-24T17:50:01Z</time></trkpt><trkpt lat="43.092913368328546" lon="13.222806426719055"><ele>579.0</ele><time>2026-04-24T17:50:02Z</time></trkpt><trkpt lat="43.092833227997666" lon="13.22266910031492"><ele>579.0</ele><time>2026-04-24T17:50:03Z</time></trkpt><trkpt lat="43.09276256511145" lon="13.222521975372905"><ele>579.0</ele><time>2026-04-24T17:50:04Z</time></trkpt><trkpt lat="43.09269664981556" lon="13.222367414622097"><ele>579.0</ele><time>2026-04-24T17:50:05Z</time></trkpt><trkpt lat="43.09263267152137" lon="13.222206013279143"><ele>581.75</ele><time>2026-04-24T17:50:06Z</time></trkpt><trkpt lat="43.09256692875035" lon="13.222046956697103"><ele>584.5</ele><time>2026-04-24T17:50:07Z</time></trkpt><trkpt lat="43.09250413572938" lon="13.22189991702107"><ele>587.25</ele><time>2026-04-24T17:50:08Z</time></trkpt><trkpt lat="43.09244017869852" lon="13.221761236497644"><ele>590.0</ele><time>2026-04-24T17:50:09Z</time></trkpt><trkpt lat="43.09237840034633" lon="13.221637260904515"><ele>593.1666666666666</ele><time>2026-04-24T17:50:10Z</time></trkpt><trkpt lat="43.09231444605803" lon="13.221515861605948"><ele>596.3333333333333</ele><time>2026-04-24T17:50:11Z</time></trkpt><trkpt lat="43.092258155873566" lon="13.221400864576108"><ele>599.5</ele><time>2026-04-24T17:50:12Z</time></trkpt><trkpt lat="43.09221717826983" lon="13.221317154247373"><ele>602.6666666666666</ele><time>2026-04-24T17:50:13Z</time></trkpt><trkpt lat="43.092175018106886" lon="13.221221483608524"><ele>605.8333333333334</ele><time>2026-04-24T17:50:15Z</time></trkpt><trkpt lat="43.092192654627254" lon="13.221137939635163"><ele>609.0</ele><time>2026-04-24T17:50:18Z</time></trkpt><trkpt lat="43.092251909763675" lon="13.22104917089141"><ele>609.0</ele><time>2026-04-24T17:50:20Z</time></trkpt><trkpt lat="43.09238507512974" lon="13.22111325944365"><ele>609.0</ele><time>2026-04-24T17:50:22Z</time></trkpt><trkpt lat="43.09247796506633" lon="13.221190593045261"><ele>609.0</ele><time>2026-04-24T17:50:23Z</time></trkpt><trkpt lat="43.092564419822466" lon="13.221269483903663"><ele>609.0</ele><time>2026-04-24T17:50:24Z</time></trkpt><trkpt lat="43.09266113976985" lon="13.22136486838858"><ele>610.3333333333334</ele><time>2026-04-24T17:50:25Z</time></trkpt><trkpt lat="43.092730542057005" lon="13.221435696904567"><ele>611.6666666666666</ele><time>2026-04-24T17:50:26Z</time></trkpt><trkpt lat="43.09278575086436" lon="13.221504183242624"><ele>613.0</ele><time>2026-04-24T17:50:27Z</time></trkpt><trkpt lat="43.09283896281221" lon="13.221553507687315"><ele>614.3333333333333</ele><time>2026-04-24T17:50:28Z</time></trkpt><trkpt lat="43.092910454546704" lon="13.221568627864484"><ele>615.6666666666666</ele><time>2026-04-24T17:50:29Z</time></trkpt><trkpt lat="43.092995525803794" lon="13.22154863273273"><ele>617.0</ele><time>2026-04-24T17:50:30Z</time></trkpt><trkpt lat="43.09309550862222" lon="13.221507884665831"><ele>617.0</ele><time>2026-04-24T17:50:31Z</time></trkpt><trkpt lat="43.09320759446074" lon="13.221476882323238"><ele>617.0</ele><time>2026-04-24T17:50:32Z</time></trkpt><trkpt lat="43.09330883040946" lon="13.221444869473835"><ele>617.0</ele><time>2026-04-24T17:50:33Z</time></trkpt><trkpt lat="43.09342673436551" lon="13.221415815288045"><ele>617.0</ele><time>2026-04-24T17:50:34Z</time></trkpt><trkpt lat="43.09354851508736" lon="13.221394708468463"><ele>622.0</ele><time>2026-04-24T17:50:35Z</time></trkpt><trkpt lat="43.093665178742164" lon="13.221372749563438"><ele>627.0</ele><time>2026-04-24T17:50:36Z</time></trkpt><trkpt lat="43.09377866479647" lon="13.221338909664128"><ele>632.0</ele><time>2026-04-24T17:50:37Z</time></trkpt><trkpt lat="43.093893115430596" lon="13.221290996571158"><ele>637.0</ele><time>2026-04-24T17:50:38Z</time></trkpt><trkpt lat="43.094003302502614" lon="13.221249269420813"><ele>640.0</ele><time>2026-04-24T17:50:39Z</time></trkpt><trkpt lat="43.09410615638609" lon="13.22121426184367"><ele>643.0</ele><time>2026-04-24T17:50:40Z</time></trkpt><trkpt lat="43.094199675292344" lon="13.221188175173515"><ele>646.0</ele><time>2026-04-24T17:50:40.999Z</time></trkpt><trkpt lat="43.09428552472352" lon="13.221164450911619"><ele>649.0</ele><time>2026-04-24T17:50:41.999Z</time></trkpt><trkpt lat="43.09436738091649" lon="13.221168345372877"><ele>652.0</ele><time>2026-04-24T17:50:42.999Z</time></trkpt><trkpt lat="43.094457047618626" lon="13.221231158342041"><ele>652.0</ele><time>2026-04-24T17:50:43.999Z</time></trkpt><trkpt lat="43.094534231658024" lon="13.22130652478517"><ele>652.0</ele><time>2026-04-24T17:50:44.999Z</time></trkpt><trkpt lat="43.09461623489743" lon="13.221384699328794"><ele>652.0</ele><time>2026-04-24T17:50:45.999Z</time></trkpt><trkpt lat="43.09469835164108" lon="13.221450719406752"><ele>652.0</ele><time>2026-04-24T17:50:46.999Z</time></trkpt><trkpt lat="43.094800443952295" lon="13.221507624586218"><ele>652.0</ele><time>2026-04-24T17:50:47.999Z</time></trkpt><trkpt lat="43.09489526827626" lon="13.22155437321004"><ele>649.0</ele><time>2026-04-24T17:50:48.999Z</time></trkpt><trkpt lat="43.09499276919056" lon="13.221604900945676"><ele>646.0</ele><time>2026-04-24T17:50:49.999Z</time></trkpt><trkpt lat="43.09507715993432" lon="13.221638116549311"><ele>643.0</ele><time>2026-04-24T17:50:50.999Z</time></trkpt><trkpt lat="43.095166381700516" lon="13.221643494680299"><ele>640.0</ele><time>2026-04-24T17:50:51.999Z</time></trkpt><trkpt lat="43.0952576608528" lon="13.221623289080597"><ele>637.0</ele><time>2026-04-24T17:50:52.999Z</time></trkpt><trkpt lat="43.09534440400324" lon="13.221576779842065"><ele>637.0</ele><time>2026-04-24T17:50:53.999Z</time></trkpt><trkpt lat="43.095438106895124" lon="13.221527428677545"><ele>637.0</ele><time>2026-04-24T17:50:54.999Z</time></trkpt><trkpt lat="43.09553690777916" lon="13.221531033420824"><ele>637.0</ele><time>2026-04-24T17:50:55.999Z</time></trkpt><trkpt lat="43.09564478993898" lon="13.221559181269752"><ele>637.0</ele><time>2026-04-24T17:50:56.999Z</time></trkpt><trkpt lat="43.095757051551146" lon="13.221556608015325"><ele>637.0</ele><time>2026-04-24T17:50:57.999Z</time></trkpt><trkpt lat="43.09588536555322" lon="13.221526012995088"><ele>638.5</ele><time>2026-04-24T17:50:58.999Z</time></trkpt><trkpt lat="43.09601761088603" lon="13.221486212964166"><ele>640.0</ele><time>2026-04-24T17:50:59.999Z</time></trkpt><trkpt lat="43.09614656766645" lon="13.221454725024259"><ele>641.5</ele><time>2026-04-24T17:51:00.999Z</time></trkpt><trkpt lat="43.09626511976623" lon="13.22143664897835"><ele>643.0</ele><time>2026-04-24T17:51:01.999Z</time></trkpt><trkpt lat="43.096371606080474" lon="13.221432644103924"><ele>648.5999999999999</ele><time>2026-04-24T17:51:02.999Z</time></trkpt><trkpt lat="43.09647485485846" lon="13.22142568547385"><ele>654.1999999999999</ele><time>2026-04-24T17:51:03.999Z</time></trkpt><trkpt lat="43.09658159271149" lon="13.221414224355678"><ele>659.8</ele><time>2026-04-24T17:51:04.999Z</time></trkpt><trkpt lat="43.09668788268126" lon="13.22140616871633"><ele>665.4</ele><time>2026-04-24T17:51:05.999Z</time></trkpt><trkpt lat="43.09678765889791" lon="13.221405852117947"><ele>671.0</ele><time>2026-04-24T17:51:06.999Z</time></trkpt><trkpt lat="43.09686029563912" lon="13.221410399714998"><ele>671.0</ele><time>2026-04-24T17:51:07.999Z</time></trkpt><trkpt lat="43.096933304893376" lon="13.221417689775654"><ele>671.0</ele><time>2026-04-24T17:51:08.999Z</time></trkpt><trkpt lat="43.096997140978615" lon="13.221423554262344"><ele>671.0</ele><time>2026-04-24T17:51:09.999Z</time></trkpt><trkpt lat="43.09705588118831" lon="13.221392243754684"><ele>671.0</ele><time>2026-04-24T17:51:10.999Z</time></trkpt><trkpt lat="43.09710787699327" lon="13.221329988490824"><ele>671.0</ele><time>2026-04-24T17:51:11.999Z</time></trkpt><trkpt lat="43.09716161332075" lon="13.221248975329424"><ele>671.0</ele><time>2026-04-24T17:51:12.999Z</time></trkpt><trkpt lat="43.09721452376167" lon="13.221170080670742"><ele>671.0</ele><time>2026-04-24T17:51:13.999Z</time></trkpt><trkpt lat="43.097283729333085" lon="13.221110394065427"><ele>671.0</ele><time>2026-04-24T17:51:14.999Z</time></trkpt><trkpt lat="43.09735116960815" lon="13.221083299135335"><ele>671.0</ele><time>2026-04-24T17:51:15.999Z</time></trkpt><trkpt lat="43.09745092646682" lon="13.221085112851505"><ele>671.0</ele><time>2026-04-24T17:51:16.999Z</time></trkpt><trkpt lat="43.09755312023282" lon="13.221075729896631"><ele>671.0</ele><time>2026-04-24T17:51:17.999Z</time></trkpt><trkpt lat="43.09766634596146" lon="13.22108139906389"><ele>671.0</ele><time>2026-04-24T17:51:18.999Z</time></trkpt><trkpt lat="43.09776402817165" lon="13.221079691984459"><ele>670.8</ele><time>2026-04-24T17:51:19.999Z</time></trkpt><trkpt lat="43.097860375374886" lon="13.221069662948366"><ele>670.5999999999999</ele><time>2026-04-24T17:51:20.999Z</time></trkpt><trkpt lat="43.097933056972884" lon="13.221066589242866"><ele>670.4</ele><time>2026-04-24T17:51:21.999Z</time></trkpt><trkpt lat="43.09805206849633" lon="13.221068148157926"><ele>670.2</ele><time>2026-04-24T17:51:23.999Z</time></trkpt><trkpt lat="43.09812607539866" lon="13.221060838967105"><ele>670.0</ele><time>2026-04-24T17:51:24.999Z</time></trkpt><trkpt lat="43.098221323783896" lon="13.221048252071126"><ele>671.1666666666667</ele><time>2026-04-24T17:51:25.999Z</time></trkpt><trkpt lat="43.09830084395158" lon="13.221034822083672"><ele>672.3333333333334</ele><time>2026-04-24T17:51:26.999Z</time></trkpt><trkpt lat="43.098385939221835" lon="13.221005730597154"><ele>673.5</ele><time>2026-04-24T17:51:27.999Z</time></trkpt><trkpt lat="43.09848154009652" lon="13.22096838698808"><ele>674.6666666666666</ele><time>2026-04-24T17:51:28.999Z</time></trkpt><trkpt lat="43.09856806918197" lon="13.220935786128113"><ele>675.8333333333333</ele><time>2026-04-24T17:51:29.999Z</time></trkpt><trkpt lat="43.098646097605474" lon="13.220895727120618"><ele>677.0</ele><time>2026-04-24T17:51:30.999Z</time></trkpt><trkpt lat="43.09870199505601" lon="13.220846189883188"><ele>677.0</ele><time>2026-04-24T17:51:31.999Z</time></trkpt><trkpt lat="43.09879432183071" lon="13.220717379882036"><ele>677.0</ele><time>2026-04-24T17:51:33.999Z</time></trkpt><trkpt lat="43.09886875699855" lon="13.220715064483374"><ele>677.0</ele><time>2026-04-24T17:51:34.999Z</time></trkpt><trkpt lat="43.098946239589296" lon="13.220732049186022"><ele>677.0</ele><time>2026-04-24T17:51:35.999Z</time></trkpt><trkpt lat="43.09902197768732" lon="13.220720065936884"><ele>677.0</ele><time>2026-04-24T17:51:36.999Z</time></trkpt><trkpt lat="43.09910999612422" lon="13.220674958657707"><ele>684.8</ele><time>2026-04-24T17:51:37.999Z</time></trkpt><trkpt lat="43.09919209472491" lon="13.220619515301442"><ele>692.6</ele><time>2026-04-24T17:51:38.999Z</time></trkpt><trkpt lat="43.09926563608927" lon="13.22057745239869"><ele>700.4</ele><time>2026-04-24T17:51:39.999Z</time></trkpt><trkpt lat="43.09933904921188" lon="13.22054906953276"><ele>708.1999999999999</ele><time>2026-04-24T17:51:40.999Z</time></trkpt><trkpt lat="43.09940277232293" lon="13.220540535037491"><ele>716.0</ele><time>2026-04-24T17:51:41.999Z</time></trkpt><trkpt lat="43.09954179501127" lon="13.220552069624118"><ele>716.0</ele><time>2026-04-24T17:51:43.999Z</time></trkpt><trkpt lat="43.09963016490534" lon="13.220562054538865"><ele>716.0</ele><time>2026-04-24T17:51:44.999Z</time></trkpt><trkpt lat="43.09970989704814" lon="13.220566700990885"><ele>716.0</ele><time>2026-04-24T17:51:45.999Z</time></trkpt><trkpt lat="43.099774984086395" lon="13.220562030478705"><ele>716.0</ele><time>2026-04-24T17:51:46.999Z</time></trkpt><trkpt lat="43.099854120517584" lon="13.220536358813357"><ele>716.0</ele><time>2026-04-24T17:51:47.999Z</time></trkpt><trkpt lat="43.0999539432684" lon="13.220489958491813"><ele>716.0</ele><time>2026-04-24T17:51:48.999Z</time></trkpt><trkpt lat="43.10006747542798" lon="13.22044898934452"><ele>714.8333333333333</ele><time>2026-04-24T17:51:49.999Z</time></trkpt><trkpt lat="43.100152643562524" lon="13.220429245189477"><ele>713.6666666666666</ele><time>2026-04-24T17:51:51Z</time></trkpt><trkpt lat="43.1002305953075" lon="13.220399589777518"><ele>712.5</ele><time>2026-04-24T17:51:52Z</time></trkpt><trkpt lat="43.1003096013632" lon="13.220356196267279"><ele>711.3333333333334</ele><time>2026-04-24T17:51:54Z</time></trkpt><trkpt lat="43.10033401801693" lon="13.22025610480708"><ele>710.1666666666667</ele><time>2026-04-24T17:52:00Z</time></trkpt><trkpt lat="43.10044080639768" lon="13.220222381211979"><ele>709.0</ele><time>2026-04-24T17:52:13Z</time></trkpt><trkpt lat="43.10055939600614" lon="13.220273945068401"><ele>709.0</ele><time>2026-04-24T17:52:15Z</time></trkpt><trkpt lat="43.10062323906916" lon="13.220308810198198"><ele>709.0</ele><time>2026-04-24T17:52:16Z</time></trkpt><trkpt lat="43.10069910145683" lon="13.220334647527677"><ele>709.0</ele><time>2026-04-24T17:52:17Z</time></trkpt><trkpt lat="43.100782577985704" lon="13.220348160629866"><ele>709.0</ele><time>2026-04-24T17:52:18Z</time></trkpt><trkpt lat="43.10086516172841" lon="13.22035219491338"><ele>709.0</ele><time>2026-04-24T17:52:19Z</time></trkpt><trkpt lat="43.10094685915156" lon="13.220362995621036"><ele>709.0</ele><time>2026-04-24T17:52:20Z</time></trkpt><trkpt lat="43.10102443154351" lon="13.2203703773331"><ele>705.75</ele><time>2026-04-24T17:52:21Z</time></trkpt><trkpt lat="43.10113932040858" lon="13.220374800158666"><ele>702.5</ele><time>2026-04-24T17:52:23Z</time></trkpt><trkpt lat="43.10121884554053" lon="13.22047919447969"><ele>699.25</ele><time>2026-04-24T17:52:25Z</time></trkpt><trkpt lat="43.101297111768076" lon="13.220596361761547"><ele>696.0</ele><time>2026-04-24T17:52:27Z</time></trkpt><trkpt lat="43.101395545146886" lon="13.220709882999751"><ele>688.0</ele><time>2026-04-24T17:52:29Z</time></trkpt><trkpt lat="43.101486969190795" lon="13.220804745659878"><ele>680.0</ele><time>2026-04-24T17:52:31Z</time></trkpt><trkpt lat="43.10153934330742" lon="13.220858454004693"><ele>672.0</ele><time>2026-04-24T17:52:33Z</time></trkpt><trkpt lat="43.10161765486132" lon="13.22087614971256"><ele>664.0</ele><time>2026-04-24T17:53:14.999Z</time></trkpt><trkpt lat="43.101709762966685" lon="13.220910349741025"><ele>656.0</ele><time>2026-04-24T17:53:16.999Z</time></trkpt><trkpt lat="43.101816786684545" lon="13.220967006966594"><ele>654.8333333333333</ele><time>2026-04-24T17:53:18.999Z</time></trkpt><trkpt lat="43.101873484258135" lon="13.221007666383196"><ele>653.6666666666666</ele><time>2026-04-24T17:53:19.999Z</time></trkpt><trkpt lat="43.10193856654455" lon="13.221074995550547"><ele>652.5</ele><time>2026-04-24T17:53:20.999Z</time></trkpt><trkpt lat="43.10200042544391" lon="13.221164970646509"><ele>651.3333333333334</ele><time>2026-04-24T17:53:21.999Z</time></trkpt><trkpt lat="43.10206044819675" lon="13.221248968778458"><ele>650.1666666666667</ele><time>2026-04-24T17:53:22.999Z</time></trkpt><trkpt lat="43.10211211803572" lon="13.221303636369905"><ele>649.0</ele><time>2026-04-24T17:53:23.999Z</time></trkpt><trkpt lat="43.102183571029336" lon="13.221354067899417"><ele>649.0</ele><time>2026-04-24T17:53:24.999Z</time></trkpt><trkpt lat="43.102255995026105" lon="13.22140394592993"><ele>649.0</ele><time>2026-04-24T17:53:25.999Z</time></trkpt><trkpt lat="43.10237885493981" lon="13.221491412900138"><ele>649.0</ele><time>2026-04-24T17:53:27.999Z</time></trkpt><trkpt lat="43.102444538522434" lon="13.221552271380961"><ele>649.0</ele><time>2026-04-24T17:53:28.999Z</time></trkpt><trkpt lat="43.10250477304915" lon="13.221600027883358"><ele>649.0</ele><time>2026-04-24T17:53:29.999Z</time></trkpt><trkpt lat="43.10258509691575" lon="13.221653532927338"><ele>644.6666666666667</ele><time>2026-04-24T17:53:30.999Z</time></trkpt><trkpt lat="43.10265081917899" lon="13.22172060350025"><ele>640.3333333333334</ele><time>2026-04-24T17:53:31.999Z</time></trkpt><trkpt lat="43.10272009446852" lon="13.221770032748966"><ele>636.0</ele><time>2026-04-24T17:53:32.999Z</time></trkpt><trkpt lat="43.10277675052084" lon="13.221823255132566"><ele>631.6666666666666</ele><time>2026-04-24T17:53:33.999Z</time></trkpt><trkpt lat="43.102824077670675" lon="13.22188635595588"><ele>627.3333333333333</ele><time>2026-04-24T17:53:34.999Z</time></trkpt><trkpt lat="43.10291397265749" lon="13.221993994048983"><ele>623.0</ele><time>2026-04-24T17:53:36.999Z</time></trkpt><trkpt lat="43.10299662555019" lon="13.222069318231851"><ele>623.0</ele><time>2026-04-24T17:53:38.999Z</time></trkpt><trkpt lat="43.103094825929965" lon="13.22211732148928"><ele>623.0</ele><time>2026-04-24T17:53:40.999Z</time></trkpt><trkpt lat="43.10315487852852" lon="13.222147086234227"><ele>623.0</ele><time>2026-04-24T17:53:41.999Z</time></trkpt><trkpt lat="43.10324920370802" lon="13.222189421945712"><ele>623.0</ele><time>2026-04-24T17:53:43.999Z</time></trkpt><trkpt lat="43.10337298698782" lon="13.222212419273882"><ele>623.0</ele><time>2026-04-24T17:53:45.999Z</time></trkpt><trkpt lat="43.10347677974615" lon="13.222273660485335"><ele>621.6666666666666</ele><time>2026-04-24T17:53:47.999Z</time></trkpt><trkpt lat="43.103569174335306" lon="13.22234064553291"><ele>620.3333333333333</ele><time>2026-04-24T17:53:49.999Z</time></trkpt><trkpt lat="43.1036414223754" lon="13.222356093559782"><ele>619.0</ele><time>2026-04-24T17:53:51.999Z</time></trkpt><trkpt lat="43.103712157796465" lon="13.222341919203679"><ele>617.6666666666666</ele><time>2026-04-24T17:53:54.999Z</time></trkpt><trkpt lat="43.1037597032475" lon="13.222273051710609"><ele>616.3333333333334</ele><time>2026-04-24T17:54:03Z</time></trkpt><trkpt lat="43.10382092556597" lon="13.22223164761271"><ele>615.0</ele><time>2026-04-24T17:54:05Z</time></trkpt><trkpt lat="43.103874924545" lon="13.222164746094155"><ele>615.0</ele><time>2026-04-24T17:54:07Z</time></trkpt><trkpt lat="43.10394564501779" lon="13.222056551073857"><ele>615.0</ele><time>2026-04-24T17:54:09Z</time></trkpt><trkpt lat="43.10403213138783" lon="13.221926007025823"><ele>615.0</ele><time>2026-04-24T17:54:11Z</time></trkpt><trkpt lat="43.10406712206103" lon="13.221821927685038"><ele>615.0</ele><time>2026-04-24T17:54:12Z</time></trkpt><trkpt lat="43.10408610588391" lon="13.221684289808637"><ele>615.0</ele><time>2026-04-24T17:54:13Z</time></trkpt><trkpt lat="43.10410776510565" lon="13.22150946556514"><ele>607.25</ele><time>2026-04-24T17:54:14Z</time></trkpt><trkpt lat="43.10412012434294" lon="13.221334213738546"><ele>599.5</ele><time>2026-04-24T17:54:15Z</time></trkpt><trkpt lat="43.1041355412944" lon="13.221175704217558"><ele>591.75</ele><time>2026-04-24T17:54:16Z</time></trkpt><trkpt lat="43.104149690530775" lon="13.221023361703784"><ele>584.0</ele><time>2026-04-24T17:54:17Z</time></trkpt><trkpt lat="43.10415079493582" lon="13.22087139997101"><ele>584.0</ele><time>2026-04-24T17:54:18Z</time></trkpt><trkpt lat="43.10413893978617" lon="13.220728749444724"><ele>584.0</ele><time>2026-04-24T17:54:19Z</time></trkpt><trkpt lat="43.10411272118957" lon="13.220596477334343"><ele>584.0</ele><time>2026-04-24T17:54:20Z</time></trkpt><trkpt lat="43.10408237743478" lon="13.220473979139081"><ele>584.0</ele><time>2026-04-24T17:54:21Z</time></trkpt><trkpt lat="43.10406620611357" lon="13.220349471631316"><ele>584.0</ele><time>2026-04-24T17:54:22Z</time></trkpt><trkpt lat="43.104082243092" lon="13.220223397855465"><ele>584.0</ele><time>2026-04-24T17:54:23Z</time></trkpt><trkpt lat="43.104127424185606" lon="13.220093257591204"><ele>584.0</ele><time>2026-04-24T17:54:24Z</time></trkpt><trkpt lat="43.104192205313566" lon="13.219968228949234"><ele>584.0</ele><time>2026-04-24T17:54:25Z</time></trkpt><trkpt lat="43.104278083351346" lon="13.219860893404523"><ele>584.0</ele><time>2026-04-24T17:54:26Z</time></trkpt><trkpt lat="43.10436053818705" lon="13.219756084043349"><ele>584.0</ele><time>2026-04-24T17:54:27Z</time></trkpt><trkpt lat="43.104433239100274" lon="13.219644578321978"><ele>584.0</ele><time>2026-04-24T17:54:28Z</time></trkpt><trkpt lat="43.10449494666355" lon="13.219534657034805"><ele>584.0</ele><time>2026-04-24T17:54:29Z</time></trkpt><trkpt lat="43.104546374398794" lon="13.219413755973742"><ele>584.0</ele><time>2026-04-24T17:54:30Z</time></trkpt><trkpt lat="43.10459291702612" lon="13.219288042281722"><ele>584.0</ele><time>2026-04-24T17:54:31Z</time></trkpt><trkpt lat="43.10463723703453" lon="13.2191529936129"><ele>584.0</ele><time>2026-04-24T17:54:32Z</time></trkpt><trkpt lat="43.10467415680241" lon="13.219029999480405"><ele>583.6</ele><time>2026-04-24T17:54:33Z</time></trkpt><trkpt lat="43.104717818878875" lon="13.218902921827123"><ele>583.2</ele><time>2026-04-24T17:54:34Z</time></trkpt><trkpt lat="43.1047528405685" lon="13.21876802655347"><ele>582.8000000000001</ele><time>2026-04-24T17:54:35Z</time></trkpt><trkpt lat="43.104759309351415" lon="13.218634233744007"><ele>582.4</ele><time>2026-04-24T17:54:36Z</time></trkpt><trkpt lat="43.10473072797552" lon="13.218492645122009"><ele>582.0</ele><time>2026-04-24T17:54:37Z</time></trkpt><trkpt lat="43.10468958080654" lon="13.218348430579214"><ele>582.0</ele><time>2026-04-24T17:54:38Z</time></trkpt><trkpt lat="43.10465643488842" lon="13.218202520928385"><ele>582.0</ele><time>2026-04-24T17:54:39Z</time></trkpt><trkpt lat="43.1046309643301" lon="13.218056445255753"><ele>582.0</ele><time>2026-04-24T17:54:40Z</time></trkpt><trkpt lat="43.104612048931905" lon="13.21789993533029"><ele>582.0</ele><time>2026-04-24T17:54:41Z</time></trkpt><trkpt lat="43.104607270672" lon="13.217745462489503"><ele>580.6</ele><time>2026-04-24T17:54:42Z</time></trkpt><trkpt lat="43.10460968426008" lon="13.21759318736735"><ele>579.2</ele><time>2026-04-24T17:54:43Z</time></trkpt><trkpt lat="43.10460339621732" lon="13.21744789456554"><ele>577.8</ele><time>2026-04-24T17:54:44Z</time></trkpt><trkpt lat="43.10457703499183" lon="13.217300142157525"><ele>576.4</ele><time>2026-04-24T17:54:45Z</time></trkpt><trkpt lat="43.10453068767529" lon="13.217199235098446"><ele>575.0</ele><time>2026-04-24T17:54:46Z</time></trkpt><trkpt lat="43.10448208115968" lon="13.217100953128275"><ele>574.2</ele><time>2026-04-24T17:54:47Z</time></trkpt><trkpt lat="43.1044519365777" lon="13.217003428261934"><ele>573.4</ele><time>2026-04-24T17:54:48Z</time></trkpt><trkpt lat="43.104458502963745" lon="13.216905349759847"><ele>572.6</ele><time>2026-04-24T17:54:49Z</time></trkpt><trkpt lat="43.10451456121657" lon="13.216773560870356"><ele>571.8</ele><time>2026-04-24T17:54:51Z</time></trkpt><trkpt lat="43.10463196896408" lon="13.216766323683546"><ele>571.0</ele><time>2026-04-24T17:54:53Z</time></trkpt><trkpt lat="43.10470308126089" lon="13.216922240956032"><ele>571.0</ele><time>2026-04-24T17:54:55Z</time></trkpt><trkpt lat="43.10472544685918" lon="13.217021115355791"><ele>571.0</ele><time>2026-04-24T17:54:56Z</time></trkpt><trkpt lat="43.10475937576853" lon="13.217129745085792"><ele>571.0</ele><time>2026-04-24T17:54:57Z</time></trkpt><trkpt lat="43.104803179870984" lon="13.217232016089504"><ele>571.0</ele><time>2026-04-24T17:54:58Z</time></trkpt><trkpt lat="43.10486409891439" lon="13.217335286783051"><ele>571.0</ele><time>2026-04-24T17:54:59Z</time></trkpt><trkpt lat="43.104941590402156" lon="13.217438233994352"><ele>566.75</ele><time>2026-04-24T17:55:00Z</time></trkpt><trkpt lat="43.10503663973778" lon="13.217528149030878"><ele>562.5</ele><time>2026-04-24T17:55:01Z</time></trkpt><trkpt lat="43.10513806830193" lon="13.217614599432903"><ele>558.25</ele><time>2026-04-24T17:55:02Z</time></trkpt><trkpt lat="43.10523745966928" lon="13.217705418007014"><ele>554.0</ele><time>2026-04-24T17:55:03Z</time></trkpt><trkpt lat="43.10533410810061" lon="13.217806283128647"><ele>554.0</ele><time>2026-04-24T17:55:04Z</time></trkpt><trkpt lat="43.105427520656406" lon="13.217913974799217"><ele>554.0</ele><time>2026-04-24T17:55:05Z</time></trkpt><trkpt lat="43.10551715219393" lon="13.218028487419465"><ele>554.0</ele><time>2026-04-24T17:55:06Z</time></trkpt><trkpt lat="43.105604107093086" lon="13.218144353812765"><ele>554.0</ele><time>2026-04-24T17:55:07Z</time></trkpt><trkpt lat="43.105679643837874" lon="13.218274892004882"><ele>554.4</ele><time>2026-04-24T17:55:08Z</time></trkpt><trkpt lat="43.1057414867162" lon="13.21839752810391"><ele>554.8</ele><time>2026-04-24T17:55:09Z</time></trkpt><trkpt lat="43.10580174387105" lon="13.218506267809033"><ele>555.2</ele><time>2026-04-24T17:55:10Z</time></trkpt><trkpt lat="43.105862111767884" lon="13.218605465495122"><ele>555.6</ele><time>2026-04-24T17:55:10.999Z</time></trkpt><trkpt lat="43.10591880164622" lon="13.218690911659936"><ele>556.0</ele><time>2026-04-24T17:55:11.999Z</time></trkpt><trkpt lat="43.1059670402491" lon="13.218759997255393"><ele>552.2</ele><time>2026-04-24T17:55:12.999Z</time></trkpt><trkpt lat="43.10603905717383" lon="13.218852176138785"><ele>548.4000000000001</ele><time>2026-04-24T17:55:14.999Z</time></trkpt><trkpt lat="43.106107631265495" lon="13.21891107109599"><ele>544.6</ele><time>2026-04-24T17:55:16.999Z</time></trkpt><trkpt lat="43.10623128562754" lon="13.219031340327419"><ele>540.8000000000001</ele><time>2026-04-24T17:55:18.999Z</time></trkpt><trkpt lat="43.10631772105291" lon="13.219105695591011"><ele>537.0</ele><time>2026-04-24T17:55:19.999Z</time></trkpt><trkpt lat="43.106410878214305" lon="13.21918489444447"><ele>535.75</ele><time>2026-04-24T17:55:20.999Z</time></trkpt><trkpt lat="43.10651182236326" lon="13.219262102707264"><ele>534.5</ele><time>2026-04-24T17:55:21.999Z</time></trkpt><trkpt lat="43.10661490265015" lon="13.21934179505459"><ele>533.25</ele><time>2026-04-24T17:55:22.999Z</time></trkpt><trkpt lat="43.10671364359138" lon="13.21941355448925"><ele>532.0</ele><time>2026-04-24T17:55:23.999Z</time></trkpt><trkpt lat="43.10681681224332" lon="13.219478730601343"><ele>529.5</ele><time>2026-04-24T17:55:24.999Z</time></trkpt><trkpt lat="43.10692343902212" lon="13.219545961971658"><ele>527.0</ele><time>2026-04-24T17:55:25.999Z</time></trkpt><trkpt lat="43.107029589387565" lon="13.21960718358189"><ele>524.5</ele><time>2026-04-24T17:55:26.999Z</time></trkpt><trkpt lat="43.10714086757541" lon="13.219671089244326"><ele>522.0</ele><time>2026-04-24T17:55:27.999Z</time></trkpt><trkpt lat="43.10725077787456" lon="13.219742072367227"><ele>522.0</ele><time>2026-04-24T17:55:28.999Z</time></trkpt><trkpt lat="43.107366579285014" lon="13.219811757236567"><ele>522.0</ele><time>2026-04-24T17:55:29.999Z</time></trkpt><trkpt lat="43.107494556762674" lon="13.219883106486964"><ele>522.0</ele><time>2026-04-24T17:55:30.999Z</time></trkpt><trkpt lat="43.10763128961618" lon="13.219961281397772"><ele>522.0</ele><time>2026-04-24T17:55:31.999Z</time></trkpt><trkpt lat="43.10776678986127" lon="13.22005547392503"><ele>518.0</ele><time>2026-04-24T17:55:32.999Z</time></trkpt><trkpt lat="43.10790221746858" lon="13.220179155452682"><ele>514.0</ele><time>2026-04-24T17:55:33.999Z</time></trkpt><trkpt lat="43.108052968507984" lon="13.220315939438308"><ele>510.0</ele><time>2026-04-24T17:55:34.999Z</time></trkpt><trkpt lat="43.108214272055825" lon="13.220440354998763"><ele>507.66666666666663</ele><time>2026-04-24T17:55:35.999Z</time></trkpt><trkpt lat="43.10839608686039" lon="13.220553073030375"><ele>505.3333333333333</ele><time>2026-04-24T17:55:36.999Z</time></trkpt><trkpt lat="43.10859567728858" lon="13.220665410858086"><ele>503.0</ele><time>2026-04-24T17:55:37.999Z</time></trkpt><trkpt lat="43.10876103541085" lon="13.22076618578407"><ele>502.0</ele><time>2026-04-24T17:55:38.999Z</time></trkpt><trkpt lat="43.108901776115964" lon="13.220872002565072"><ele>501.0</ele><time>2026-04-24T17:55:39.999Z</time></trkpt><trkpt lat="43.109015067550516" lon="13.220954697966484"><ele>500.0</ele><time>2026-04-24T17:55:40.999Z</time></trkpt><trkpt lat="43.10911722175157" lon="13.221022751181472"><ele>499.0</ele><time>2026-04-24T17:55:41.999Z</time></trkpt><trkpt lat="43.109208567768526" lon="13.221073845073388"><ele>499.00000000000006</ele><time>2026-04-24T17:55:42.999Z</time></trkpt><trkpt lat="43.10929636472027" lon="13.221116825085309"><ele>499.0</ele><time>2026-04-24T17:55:43.999Z</time></trkpt><trkpt lat="43.1093799484917" lon="13.221152323267308"><ele>499.0</ele><time>2026-04-24T17:55:44.999Z</time></trkpt><trkpt lat="43.109434991085635" lon="13.22121151008537"><ele>499.0</ele><time>2026-04-24T17:55:45.999Z</time></trkpt><trkpt lat="43.109494262316055" lon="13.221325934307831"><ele>499.00000000000006</ele><time>2026-04-24T17:55:46.999Z</time></trkpt><trkpt lat="43.10951319592869" lon="13.221448510411056"><ele>499.0</ele><time>2026-04-24T17:55:47.999Z</time></trkpt><trkpt lat="43.109539550857555" lon="13.221581127708275"><ele>499.0</ele><time>2026-04-24T17:55:48.999Z</time></trkpt><trkpt lat="43.10957964082146" lon="13.221702827319925"><ele>499.0</ele><time>2026-04-24T17:55:49.999Z</time></trkpt><trkpt lat="43.1096449081423" lon="13.221875146179139"><ele>499.0</ele><time>2026-04-24T17:55:50.999Z</time></trkpt><trkpt lat="43.10971404223847" lon="13.222009619833944"><ele>499.0</ele><time>2026-04-24T17:55:51.999Z</time></trkpt><trkpt lat="43.10976925931017" lon="13.222114861810029"><ele>499.0</ele><time>2026-04-24T17:55:52.999Z</time></trkpt><trkpt lat="43.10982927394583" lon="13.22220901275414"><ele>499.0</ele><time>2026-04-24T17:55:53.999Z</time></trkpt><trkpt lat="43.10990473086146" lon="13.22228178096258"><ele>499.0</ele><time>2026-04-24T17:55:54.999Z</time></trkpt><trkpt lat="43.110025564261235" lon="13.222375040731084"><ele>499.0</ele><time>2026-04-24T17:55:55.999Z</time></trkpt><trkpt lat="43.11018836285603" lon="13.222483877497586"><ele>500.6666666666667</ele><time>2026-04-24T17:55:56.999Z</time></trkpt><trkpt lat="43.110348422479895" lon="13.222607335411357"><ele>502.33333333333337</ele><time>2026-04-24T17:55:57.999Z</time></trkpt><trkpt lat="43.11050497126442" lon="13.222716840461953"><ele>504.0</ele><time>2026-04-24T17:55:58.999Z</time></trkpt><trkpt lat="43.110634385017455" lon="13.222826436415037"><ele>502.25</ele><time>2026-04-24T17:55:59.999Z</time></trkpt><trkpt lat="43.11074944307378" lon="13.222944242542154"><ele>500.5</ele><time>2026-04-24T17:56:00.999Z</time></trkpt><trkpt lat="43.11086449106732" lon="13.223060537194984"><ele>498.75</ele><time>2026-04-24T17:56:02Z</time></trkpt><trkpt lat="43.11097355635393" lon="13.223163053276181"><ele>497.0</ele><time>2026-04-24T17:56:03Z</time></trkpt><trkpt lat="43.11106929951332" lon="13.223250720618374"><ele>497.0</ele><time>2026-04-24T17:56:04Z</time></trkpt><trkpt lat="43.111159289242565" lon="13.223321146718101"><ele>497.00000000000006</ele><time>2026-04-24T17:56:05Z</time></trkpt><trkpt lat="43.11125710803031" lon="13.223365784819288"><ele>497.00000000000006</ele><time>2026-04-24T17:56:06Z</time></trkpt><trkpt lat="43.111355543304285" lon="13.223404308808908"><ele>497.0</ele><time>2026-04-24T17:56:07Z</time></trkpt><trkpt lat="43.11146579947332" lon="13.223429807252748"><ele>497.0</ele><time>2026-04-24T17:56:08Z</time></trkpt><trkpt lat="43.111576653773334" lon="13.22345573271454"><ele>499.8</ele><time>2026-04-24T17:56:09Z</time></trkpt><trkpt lat="43.1116783686098" lon="13.223496558066946"><ele>502.6</ele><time>2026-04-24T17:56:10Z</time></trkpt><trkpt lat="43.11178069458086" lon="13.223518332257923"><ele>505.40000000000003</ele><time>2026-04-24T17:56:11Z</time></trkpt><trkpt lat="43.11189654438434" lon="13.223533571717574"><ele>508.20000000000005</ele><time>2026-04-24T17:56:12Z</time></trkpt><trkpt lat="43.11200299560266" lon="13.223548080143509"><ele>511.0</ele><time>2026-04-24T17:56:13Z</time></trkpt><trkpt lat="43.11211705776231" lon="13.2235557359444"><ele>511.0</ele><time>2026-04-24T17:56:14Z</time></trkpt><trkpt lat="43.11222337858977" lon="13.223553278513569"><ele>511.0</ele><time>2026-04-24T17:56:15Z</time></trkpt><trkpt lat="43.112326223003066" lon="13.223552108154472"><ele>511.0</ele><time>2026-04-24T17:56:16Z</time></trkpt><trkpt lat="43.112421727069815" lon="13.223581874291268"><ele>511.0</ele><time>2026-04-24T17:56:17Z</time></trkpt><trkpt lat="43.112514195050444" lon="13.223624839127249"><ele>511.0</ele><time>2026-04-24T17:56:18Z</time></trkpt><trkpt lat="43.11260663717878" lon="13.22367878856196"><ele>513.6</ele><time>2026-04-24T17:56:19Z</time></trkpt><trkpt lat="43.11270043284127" lon="13.223729985952628"><ele>516.2</ele><time>2026-04-24T17:56:20Z</time></trkpt><trkpt lat="43.112795261650675" lon="13.223777313492693"><ele>518.8</ele><time>2026-04-24T17:56:21Z</time></trkpt><trkpt lat="43.11289869427127" lon="13.223826660024821"><ele>521.4</ele><time>2026-04-24T17:56:22Z</time></trkpt><trkpt lat="43.113001925024804" lon="13.223864931743691"><ele>524.0</ele><time>2026-04-24T17:56:23Z</time></trkpt><trkpt lat="43.113093547600585" lon="13.223897478792884"><ele>524.0</ele><time>2026-04-24T17:56:24Z</time></trkpt><trkpt lat="43.11318301785915" lon="13.223919872279911"><ele>524.0</ele><time>2026-04-24T17:56:25Z</time></trkpt><trkpt lat="43.11327169906206" lon="13.223915355279834"><ele>524.0</ele><time>2026-04-24T17:56:26Z</time></trkpt><trkpt lat="43.113360725717136" lon="13.223885913141372"><ele>524.0</ele><time>2026-04-24T17:56:27Z</time></trkpt><trkpt lat="43.113439793142" lon="13.223846241287847"><ele>524.0</ele><time>2026-04-24T17:56:28Z</time></trkpt><trkpt lat="43.11352796284505" lon="13.22380635637137"><ele>524.0</ele><time>2026-04-24T17:56:30Z</time></trkpt><trkpt lat="43.11359353317703" lon="13.223762290184299"><ele>524.5</ele><time>2026-04-24T18:01:04Z</time></trkpt><trkpt lat="43.11367235049647" lon="13.223716736466836"><ele>525.0</ele><time>2026-04-24T18:01:06Z</time></trkpt><trkpt lat="43.11373164165936" lon="13.22368658787919"><ele>525.5</ele><time>2026-04-24T18:01:07Z</time></trkpt><trkpt lat="43.11380549150875" lon="13.223648832838537"><ele>526.0</ele><time>2026-04-24T18:01:08Z</time></trkpt><trkpt lat="43.11390213143878" lon="13.223605660090797"><ele>526.5</ele><time>2026-04-24T18:01:09Z</time></trkpt><trkpt lat="43.114011046517966" lon="13.223571981854164"><ele>527.0</ele><time>2026-04-24T18:01:10Z</time></trkpt><trkpt lat="43.11411689664833" lon="13.22355130119453"><ele>524.6</ele><time>2026-04-24T18:01:11Z</time></trkpt><trkpt lat="43.11422228617426" lon="13.223555055768047"><ele>522.2</ele><time>2026-04-24T18:01:12Z</time></trkpt><trkpt lat="43.114325982701985" lon="13.223577449981077"><ele>519.8</ele><time>2026-04-24T18:01:13Z</time></trkpt><trkpt lat="43.11442711350463" lon="13.223627095851931"><ele>517.4</ele><time>2026-04-24T18:01:14Z</time></trkpt><trkpt lat="43.114531720635696" lon="13.223700161229756"><ele>515.0</ele><time>2026-04-24T18:01:15Z</time></trkpt><trkpt lat="43.11462238007815" lon="13.22378202224421"><ele>515.0</ele><time>2026-04-24T18:01:16Z</time></trkpt><trkpt lat="43.114702410279875" lon="13.22386976317144"><ele>515.0</ele><time>2026-04-24T18:01:17Z</time></trkpt><trkpt lat="43.114783781448786" lon="13.223951357520873"><ele>515.0</ele><time>2026-04-24T18:01:18Z</time></trkpt><trkpt lat="43.114873264606196" lon="13.22400984516233"><ele>515.0</ele><time>2026-04-24T18:01:19Z</time></trkpt><trkpt lat="43.11497330435154" lon="13.224044260314372"><ele>515.0</ele><time>2026-04-24T18:01:20Z</time></trkpt><trkpt lat="43.115087040497" lon="13.224068713548478"><ele>509.25</ele><time>2026-04-24T18:01:21Z</time></trkpt><trkpt lat="43.115208838588785" lon="13.224079634915777"><ele>503.5</ele><time>2026-04-24T18:01:22Z</time></trkpt><trkpt lat="43.11533464002969" lon="13.224077715791903"><ele>497.75</ele><time>2026-04-24T18:01:23Z</time></trkpt><trkpt lat="43.11545894520475" lon="13.224065862880924"><ele>492.0</ele><time>2026-04-24T18:01:24Z</time></trkpt><trkpt lat="43.11558873293235" lon="13.224048829787735"><ele>492.0</ele><time>2026-04-24T18:01:25Z</time></trkpt><trkpt lat="43.11571721021687" lon="13.22402938040975"><ele>492.00000000000006</ele><time>2026-04-24T18:01:26Z</time></trkpt><trkpt lat="43.11583651552875" lon="13.224015553258331"><ele>492.00000000000006</ele><time>2026-04-24T18:01:27Z</time></trkpt><trkpt lat="43.115937886532045" lon="13.224017199643457"><ele>492.0</ele><time>2026-04-24T18:01:28Z</time></trkpt><trkpt lat="43.11601512000703" lon="13.224057963697316"><ele>492.0</ele><time>2026-04-24T18:01:29Z</time></trkpt><trkpt lat="43.11609382181189" lon="13.224132305658545"><ele>489.75</ele><time>2026-04-24T18:01:30Z</time></trkpt><trkpt lat="43.11617479456411" lon="13.224252462662749"><ele>487.5</ele><time>2026-04-24T18:01:31Z</time></trkpt><trkpt lat="43.11624723724321" lon="13.224391540936853"><ele>485.25</ele><time>2026-04-24T18:01:32Z</time></trkpt><trkpt lat="43.11632238212202" lon="13.22452330868763"><ele>483.0</ele><time>2026-04-24T18:01:33Z</time></trkpt><trkpt lat="43.1164022540286" lon="13.22463796850775"><ele>483.0</ele><time>2026-04-24T18:01:34Z</time></trkpt><trkpt lat="43.11649272877691" lon="13.224730020953835"><ele>482.99999999999994</ele><time>2026-04-24T18:01:35Z</time></trkpt><trkpt lat="43.116593198513144" lon="13.224802206986011"><ele>482.99999999999994</ele><time>2026-04-24T18:01:36Z</time></trkpt><trkpt lat="43.116686630775746" lon="13.224870456575902"><ele>483.0</ele><time>2026-04-24T18:01:36.999Z</time></trkpt><trkpt lat="43.11677698506781" lon="13.22494061916621"><ele>483.0</ele><time>2026-04-24T18:01:37.999Z</time></trkpt><trkpt lat="43.11686916511305" lon="13.225020611128254"><ele>482.4</ele><time>2026-04-24T18:01:38.999Z</time></trkpt><trkpt lat="43.116956585850495" lon="13.22509583706867"><ele>481.79999999999995</ele><time>2026-04-24T18:01:39.999Z</time></trkpt><trkpt lat="43.11704589390573" lon="13.225173618910688"><ele>481.2</ele><time>2026-04-24T18:01:40.999Z</time></trkpt><trkpt lat="43.11712984372813" lon="13.225263406128725"><ele>480.6</ele><time>2026-04-24T18:01:41.999Z</time></trkpt><trkpt lat="43.11721429591612" lon="13.225350930295656"><ele>480.0</ele><time>2026-04-24T18:01:42.999Z</time></trkpt><trkpt lat="43.11728952939928" lon="13.225438206983696"><ele>480.0</ele><time>2026-04-24T18:01:43.999Z</time></trkpt><trkpt lat="43.117375225247606" lon="13.225537273079775"><ele>480.0</ele><time>2026-04-24T18:01:44.999Z</time></trkpt><trkpt lat="43.1174504458685" lon="13.225637980229202"><ele>480.0</ele><time>2026-04-24T18:01:45.999Z</time></trkpt><trkpt lat="43.11752846093115" lon="13.225736568224246"><ele>480.0</ele><time>2026-04-24T18:01:46.999Z</time></trkpt><trkpt lat="43.11761241048319" lon="13.225826555134923"><ele>480.0</ele><time>2026-04-24T18:01:47.999Z</time></trkpt><trkpt lat="43.117698714564476" lon="13.225912962470655"><ele>479.75</ele><time>2026-04-24T18:01:48.999Z</time></trkpt><trkpt lat="43.117788329175845" lon="13.225996725476426"><ele>479.5</ele><time>2026-04-24T18:01:49.999Z</time></trkpt><trkpt lat="43.11788002399046" lon="13.226080630279647"><ele>479.25</ele><time>2026-04-24T18:01:50.999Z</time></trkpt><trkpt lat="43.11797922758693" lon="13.22616668477119"><ele>479.0</ele><time>2026-04-24T18:01:51.999Z</time></trkpt><trkpt lat="43.118077712018916" lon="13.226252809897671"><ele>479.0</ele><time>2026-04-24T18:01:52.999Z</time></trkpt><trkpt lat="43.11816937626465" lon="13.226332395107825"><ele>479.0</ele><time>2026-04-24T18:01:53.999Z</time></trkpt><trkpt lat="43.11824980596327" lon="13.226397704072273"><ele>479.0</ele><time>2026-04-24T18:01:54.999Z</time></trkpt><trkpt lat="43.11832736878156" lon="13.226463887078285"><ele>479.0</ele><time>2026-04-24T18:01:55.999Z</time></trkpt><trkpt lat="43.11839876828343" lon="13.226542065239677"><ele>479.0</ele><time>2026-04-24T18:01:56.999Z</time></trkpt><trkpt lat="43.11848160182906" lon="13.226640733818385"><ele>476.75</ele><time>2026-04-24T18:01:57.999Z</time></trkpt><trkpt lat="43.118563187658" lon="13.22675479867271"><ele>474.5</ele><time>2026-04-24T18:01:58.999Z</time></trkpt><trkpt lat="43.11864162964916" lon="13.226863336243945"><ele>472.25</ele><time>2026-04-24T18:01:59.999Z</time></trkpt><trkpt lat="43.11871863028314" lon="13.226972517356861"><ele>470.0</ele><time>2026-04-24T18:02:00.999Z</time></trkpt><trkpt lat="43.118800127076284" lon="13.227087991694837"><ele>470.0</ele><time>2026-04-24T18:02:01.999Z</time></trkpt><trkpt lat="43.11887888176677" lon="13.227217208710545"><ele>470.0</ele><time>2026-04-24T18:02:02.999Z</time></trkpt><trkpt lat="43.118948956634355" lon="13.22736363890614"><ele>470.0</ele><time>2026-04-24T18:02:03.999Z</time></trkpt><trkpt lat="43.119005662437225" lon="13.227517372546695"><ele>470.0</ele><time>2026-04-24T18:02:04.999Z</time></trkpt><trkpt lat="43.11906608634634" lon="13.227674372602305"><ele>467.5</ele><time>2026-04-24T18:02:05.999Z</time></trkpt><trkpt lat="43.11911894330579" lon="13.227820727511872"><ele>465.0</ele><time>2026-04-24T18:02:06.999Z</time></trkpt><trkpt lat="43.11917963582224" lon="13.227965914418675"><ele>462.5</ele><time>2026-04-24T18:02:07.999Z</time></trkpt><trkpt lat="43.119252107421445" lon="13.228100035231067"><ele>460.0</ele><time>2026-04-24T18:02:08.999Z</time></trkpt><trkpt lat="43.11934195087128" lon="13.228210046590895"><ele>457.5</ele><time>2026-04-24T18:02:09.999Z</time></trkpt><trkpt lat="43.119442401895874" lon="13.228289555123501"><ele>455.0</ele><time>2026-04-24T18:02:10.999Z</time></trkpt><trkpt lat="43.11955293498727" lon="13.228345522851066"><ele>452.5</ele><time>2026-04-24T18:02:11.999Z</time></trkpt><trkpt lat="43.119659989338416" lon="13.228371243785633"><ele>450.0</ele><time>2026-04-24T18:02:12.999Z</time></trkpt><trkpt lat="43.1197685485813" lon="13.228372402764776"><ele>450.0</ele><time>2026-04-24T18:02:13.999Z</time></trkpt><trkpt lat="43.11987715856926" lon="13.228356460572748"><ele>450.0</ele><time>2026-04-24T18:02:14.999Z</time></trkpt><trkpt lat="43.119989973211425" lon="13.228320341196977"><ele>450.0</ele><time>2026-04-24T18:02:15.999Z</time></trkpt><trkpt lat="43.12010343062341" lon="13.228290567850843"><ele>450.0</ele><time>2026-04-24T18:02:16.999Z</time></trkpt><trkpt lat="43.12021750835697" lon="13.228264629578074"><ele>450.75</ele><time>2026-04-24T18:02:17.999Z</time></trkpt><trkpt lat="43.12033312900708" lon="13.228243314932705"><ele>451.5</ele><time>2026-04-24T18:02:18.999Z</time></trkpt><trkpt lat="43.12045024870507" lon="13.228223428867325"><ele>452.25</ele><time>2026-04-24T18:02:20Z</time></trkpt><trkpt lat="43.12056633352102" lon="13.228199584416325"><ele>453.0</ele><time>2026-04-24T18:02:21Z</time></trkpt><trkpt lat="43.120685548060436" lon="13.228160232095302"><ele>446.75</ele><time>2026-04-24T18:02:22Z</time></trkpt><trkpt lat="43.120803354506016" lon="13.228107395190651"><ele>440.5</ele><time>2026-04-24T18:02:23Z</time></trkpt><trkpt lat="43.120915309392124" lon="13.228045333797283"><ele>434.25</ele><time>2026-04-24T18:02:24Z</time></trkpt><trkpt lat="43.121026165734" lon="13.227981593412279"><ele>428.0</ele><time>2026-04-24T18:02:25Z</time></trkpt><trkpt lat="43.121139595059894" lon="13.227917489669933"><ele>428.0</ele><time>2026-04-24T18:02:26Z</time></trkpt><trkpt lat="43.1212519674961" lon="13.2278628361112"><ele>428.0</ele><time>2026-04-24T18:02:27Z</time></trkpt><trkpt lat="43.121367788586994" lon="13.227810476980302"><ele>428.0</ele><time>2026-04-24T18:02:28Z</time></trkpt><trkpt lat="43.12148263378218" lon="13.22775616606742"><ele>428.0</ele><time>2026-04-24T18:02:29Z</time></trkpt><trkpt lat="43.12159738204551" lon="13.227711317016077"><ele>427.2</ele><time>2026-04-24T18:02:30Z</time></trkpt><trkpt lat="43.121704982957404" lon="13.227688245541772"><ele>426.4</ele><time>2026-04-24T18:02:31Z</time></trkpt><trkpt lat="43.12180675806896" lon="13.227671034250196"><ele>425.59999999999997</ele><time>2026-04-24T18:02:32Z</time></trkpt><trkpt lat="43.121900461393615" lon="13.227628412103185"><ele>424.79999999999995</ele><time>2026-04-24T18:02:33Z</time></trkpt><trkpt lat="43.12196618334958" lon="13.227561120964323"><ele>424.0</ele><time>2026-04-24T18:02:34Z</time></trkpt><trkpt lat="43.12201496328613" lon="13.227487951183342"><ele>424.00000000000006</ele><time>2026-04-24T18:02:35Z</time></trkpt><trkpt lat="43.12206691421672" lon="13.227403547525745"><ele>424.0</ele><time>2026-04-24T18:02:36Z</time></trkpt><trkpt lat="43.12211869654877" lon="13.227306305287481"><ele>424.0</ele><time>2026-04-24T18:02:37Z</time></trkpt><trkpt lat="43.122180198922095" lon="13.227208234435038"><ele>424.0</ele><time>2026-04-24T18:02:38Z</time></trkpt><trkpt lat="43.12224815929229" lon="13.227124418018924"><ele>424.00000000000006</ele><time>2026-04-24T18:02:39Z</time></trkpt><trkpt lat="43.12233092493774" lon="13.227059858551222"><ele>424.0</ele><time>2026-04-24T18:02:40Z</time></trkpt><trkpt lat="43.12241979366857" lon="13.227018561439786"><ele>421.0</ele><time>2026-04-24T18:02:41Z</time></trkpt><trkpt lat="43.12252313853833" lon="13.227012219895153"><ele>418.0</ele><time>2026-04-24T18:02:42Z</time></trkpt><trkpt lat="43.122627413718725" lon="13.227023396383174"><ele>415.0</ele><time>2026-04-24T18:02:43Z</time></trkpt><trkpt lat="43.12272933862204" lon="13.227073017612792"><ele>412.0</ele><time>2026-04-24T18:02:44Z</time></trkpt><trkpt lat="43.122824218980654" lon="13.22714669939987"><ele>409.0</ele><time>2026-04-24T18:02:45Z</time></trkpt><trkpt lat="43.12292866387308" lon="13.227202020194369"><ele>409.0</ele><time>2026-04-24T18:02:46Z</time></trkpt><trkpt lat="43.12304022323731" lon="13.227200685122252"><ele>409.0</ele><time>2026-04-24T18:02:47Z</time></trkpt><trkpt lat="43.12315188012319" lon="13.22716180806278"><ele>409.0</ele><time>2026-04-24T18:02:48Z</time></trkpt><trkpt lat="43.123264068816766" lon="13.227133643205626"><ele>409.0</ele><time>2026-04-24T18:02:49Z</time></trkpt><trkpt lat="43.123373634361435" lon="13.227123624382735"><ele>409.0</ele><time>2026-04-24T18:02:50Z</time></trkpt><trkpt lat="43.12347963127858" lon="13.227106669091237"><ele>409.0</ele><time>2026-04-24T18:02:51Z</time></trkpt><trkpt lat="43.12358592630598" lon="13.227076544297834"><ele>409.0</ele><time>2026-04-24T18:02:52Z</time></trkpt><trkpt lat="43.12369115598749" lon="13.22704941901845"><ele>409.0</ele><time>2026-04-24T18:02:53Z</time></trkpt><trkpt lat="43.123794888280166" lon="13.227024709612135"><ele>409.0</ele><time>2026-04-24T18:02:54Z</time></trkpt><trkpt lat="43.12389992202729" lon="13.22698916861499"><ele>409.0</ele><time>2026-04-24T18:02:55Z</time></trkpt><trkpt lat="43.1240107686196" lon="13.226947942319415"><ele>409.0</ele><time>2026-04-24T18:02:56Z</time></trkpt><trkpt lat="43.124125454333694" lon="13.226896191623107"><ele>409.0</ele><time>2026-04-24T18:02:57Z</time></trkpt><trkpt lat="43.12423550672465" lon="13.226828067891665"><ele>409.0</ele><time>2026-04-24T18:02:58Z</time></trkpt><trkpt lat="43.12434491907164" lon="13.226765114314164"><ele>409.5</ele><time>2026-04-24T18:02:59Z</time></trkpt><trkpt lat="43.12445523720816" lon="13.226725085073276"><ele>410.0</ele><time>2026-04-24T18:03:00Z</time></trkpt><trkpt lat="43.12456673202781" lon="13.226696338474733"><ele>410.5</ele><time>2026-04-24T18:03:01Z</time></trkpt><trkpt lat="43.124683096012184" lon="13.226673302391157"><ele>411.0</ele><time>2026-04-24T18:03:02Z</time></trkpt><trkpt lat="43.124796896063835" lon="13.226654145463806"><ele>409.25</ele><time>2026-04-24T18:03:03Z</time></trkpt><trkpt lat="43.12490719578298" lon="13.226629565803819"><ele>407.5</ele><time>2026-04-24T18:03:04Z</time></trkpt><trkpt lat="43.125021993464166" lon="13.226614554134516"><ele>405.75</ele><time>2026-04-24T18:03:05Z</time></trkpt><trkpt lat="43.125139428284285" lon="13.226625734624989"><ele>404.0</ele><time>2026-04-24T18:03:06Z</time></trkpt><trkpt lat="43.12525960954479" lon="13.226651273007391"><ele>404.0</ele><time>2026-04-24T18:03:07Z</time></trkpt><trkpt lat="43.125374447603804" lon="13.226634549630344"><ele>404.0</ele><time>2026-04-24T18:03:08Z</time></trkpt><trkpt lat="43.12546634198391" lon="13.226599677973589"><ele>404.0</ele><time>2026-04-24T18:03:09Z</time></trkpt><trkpt lat="43.125536599106454" lon="13.226538177928411"><ele>404.0</ele><time>2026-04-24T18:03:10Z</time></trkpt><trkpt lat="43.12559973996828" lon="13.226460551353798"><ele>404.0</ele><time>2026-04-24T18:03:11Z</time></trkpt><trkpt lat="43.12565948760983" lon="13.22640257787622"><ele>400.0</ele><time>2026-04-24T18:03:12Z</time></trkpt><trkpt lat="43.12573710705331" lon="13.226359504792491"><ele>396.0</ele><time>2026-04-24T18:03:13Z</time></trkpt><trkpt lat="43.12583347785394" lon="13.226343120036994"><ele>392.0</ele><time>2026-04-24T18:03:14Z</time></trkpt><trkpt lat="43.12594384151552" lon="13.226323207089631"><ele>388.0</ele><time>2026-04-24T18:03:15Z</time></trkpt><trkpt lat="43.1260554971774" lon="13.22630552017009"><ele>384.0</ele><time>2026-04-24T18:03:16Z</time></trkpt><trkpt lat="43.1261698923524" lon="13.22630174422746"><ele>384.0</ele><time>2026-04-24T18:03:17Z</time></trkpt><trkpt lat="43.126286838099425" lon="13.226308986880484"><ele>384.0</ele><time>2026-04-24T18:03:18Z</time></trkpt><trkpt lat="43.12640096075726" lon="13.2263167728294"><ele>384.0</ele><time>2026-04-24T18:03:19Z</time></trkpt><trkpt lat="43.126512458806374" lon="13.226326281519869"><ele>384.0</ele><time>2026-04-24T18:03:20Z</time></trkpt><trkpt lat="43.126610633895226" lon="13.22633739483785"><ele>384.0</ele><time>2026-04-24T18:03:21Z</time></trkpt><trkpt lat="43.12669860867879" lon="13.22634468295609"><ele>383.0</ele><time>2026-04-24T18:03:22Z</time></trkpt><trkpt lat="43.12678165894124" lon="13.226363260248714"><ele>382.0</ele><time>2026-04-24T18:03:23Z</time></trkpt><trkpt lat="43.126869813993174" lon="13.226375193873537"><ele>381.0</ele><time>2026-04-24T18:03:24Z</time></trkpt><trkpt lat="43.1269397280724" lon="13.226377502083114"><ele>380.0</ele><time>2026-04-24T18:03:25Z</time></trkpt><trkpt lat="43.127031685806806" lon="13.226407106021552"><ele>379.0</ele><time>2026-04-24T18:03:26Z</time></trkpt><trkpt lat="43.12711700400085" lon="13.226506406262182"><ele>378.0</ele><time>2026-04-24T18:03:27Z</time></trkpt><trkpt lat="43.12721260143079" lon="13.226565498407306"><ele>377.0</ele><time>2026-04-24T18:03:28Z</time></trkpt><trkpt lat="43.127307474703926" lon="13.226608781384536"><ele>376.0</ele><time>2026-04-24T18:03:29Z</time></trkpt><trkpt lat="43.127408617131394" lon="13.226652933549724"><ele>375.0</ele><time>2026-04-24T18:03:30Z</time></trkpt><trkpt lat="43.12751294941897" lon="13.226684894910443"><ele>374.0</ele><time>2026-04-24T18:03:31Z</time></trkpt><trkpt lat="43.127621153002536" lon="13.226712134920307"><ele>373.0</ele><time>2026-04-24T18:03:32Z</time></trkpt><trkpt lat="43.12772698942186" lon="13.226743589929033"><ele>373.0</ele><time>2026-04-24T18:03:33Z</time></trkpt><trkpt lat="43.12783588357087" lon="13.22678149866532"><ele>373.0</ele><time>2026-04-24T18:03:34Z</time></trkpt><trkpt lat="43.12794201608572" lon="13.226817723388024"><ele>373.0</ele><time>2026-04-24T18:03:35Z</time></trkpt><trkpt lat="43.12805289094254" lon="13.22684961864422"><ele>373.0</ele><time>2026-04-24T18:03:36Z</time></trkpt><trkpt lat="43.12816071182513" lon="13.22686709917818"><ele>373.0</ele><time>2026-04-24T18:03:37Z</time></trkpt><trkpt lat="43.12825094107704" lon="13.22688306466303"><ele>370.2</ele><time>2026-04-24T18:03:38Z</time></trkpt><trkpt lat="43.128341588564204" lon="13.22687555824093"><ele>367.4</ele><time>2026-04-24T18:03:39Z</time></trkpt><trkpt lat="43.128443666270485" lon="13.226848133078512"><ele>364.59999999999997</ele><time>2026-04-24T18:03:40Z</time></trkpt><trkpt lat="43.12854560388897" lon="13.226817306829185"><ele>361.79999999999995</ele><time>2026-04-24T18:03:41Z</time></trkpt><trkpt lat="43.128640029877936" lon="13.22679302653191"><ele>359.0</ele><time>2026-04-24T18:03:42Z</time></trkpt><trkpt lat="43.128733525631596" lon="13.22676346420133"><ele>359.0</ele><time>2026-04-24T18:03:43Z</time></trkpt><trkpt lat="43.12882666405615" lon="13.22671740480299"><ele>359.0</ele><time>2026-04-24T18:03:44Z</time></trkpt><trkpt lat="43.128918016914895" lon="13.226655746543985"><ele>359.0</ele><time>2026-04-24T18:03:44.999Z</time></trkpt><trkpt lat="43.12900580671157" lon="13.226596316701308"><ele>359.0</ele><time>2026-04-24T18:03:45.999Z</time></trkpt><trkpt lat="43.12909552384816" lon="13.226529726240386"><ele>359.0</ele><time>2026-04-24T18:03:46.999Z</time></trkpt><trkpt lat="43.12918511774499" lon="13.226467328939936"><ele>356.79999999999995</ele><time>2026-04-24T18:03:47.999Z</time></trkpt><trkpt lat="43.129282234166766" lon="13.226400049039112"><ele>354.59999999999997</ele><time>2026-04-24T18:03:48.999Z</time></trkpt><trkpt lat="43.12937682422592" lon="13.226335772747358"><ele>352.4</ele><time>2026-04-24T18:03:49.999Z</time></trkpt><trkpt lat="43.12947459808986" lon="13.226265966957667"><ele>350.2</ele><time>2026-04-24T18:03:50.999Z</time></trkpt><trkpt lat="43.12957214962589" lon="13.226195088180326"><ele>348.0</ele><time>2026-04-24T18:03:51.999Z</time></trkpt><trkpt lat="43.12967903347702" lon="13.22612164017619"><ele>348.0</ele><time>2026-04-24T18:03:52.999Z</time></trkpt><trkpt lat="43.12978673066589" lon="13.226054990419557"><ele>348.0</ele><time>2026-04-24T18:03:53.999Z</time></trkpt><trkpt lat="43.12989961270119" lon="13.225988804704464"><ele>348.0</ele><time>2026-04-24T18:03:54.999Z</time></trkpt><trkpt lat="43.130011672806575" lon="13.225923691665447"><ele>348.0</ele><time>2026-04-24T18:03:55.999Z</time></trkpt><trkpt lat="43.13011076844604" lon="13.225862317346472"><ele>345.0</ele><time>2026-04-24T18:03:56.999Z</time></trkpt><trkpt lat="43.130199776669066" lon="13.225817142894881"><ele>342.0</ele><time>2026-04-24T18:03:57.999Z</time></trkpt><trkpt lat="43.13028679605543" lon="13.2257793481943"><ele>339.0</ele><time>2026-04-24T18:03:58.999Z</time></trkpt><trkpt lat="43.13037484267345" lon="13.22577067631656"><ele>336.0</ele><time>2026-04-24T18:03:59.999Z</time></trkpt><trkpt lat="43.130460884564556" lon="13.225804995783143"><ele>333.0</ele><time>2026-04-24T18:04:00.999Z</time></trkpt><trkpt lat="43.13053411237001" lon="13.22585409555696"><ele>330.0</ele><time>2026-04-24T18:04:01.999Z</time></trkpt><trkpt lat="43.13059894843812" lon="13.225870504286167"><ele>330.0</ele><time>2026-04-24T18:04:02.999Z</time></trkpt><trkpt lat="43.130665059463176" lon="13.225835664038218"><ele>330.0</ele><time>2026-04-24T18:04:03.999Z</time></trkpt><trkpt lat="43.13072796302274" lon="13.225790417894988"><ele>330.0</ele><time>2026-04-24T18:04:04.999Z</time></trkpt><trkpt lat="43.130793838242525" lon="13.22578778946518"><ele>330.0</ele><time>2026-04-24T18:04:05.999Z</time></trkpt><trkpt lat="43.130869612049224" lon="13.22584130670724"><ele>330.0</ele><time>2026-04-24T18:04:06.999Z</time></trkpt><trkpt lat="43.13095304623142" lon="13.225860695282158"><ele>330.0</ele><time>2026-04-24T18:04:07.999Z</time></trkpt><trkpt lat="43.131035541503444" lon="13.22585218632961"><ele>329.8333333333333</ele><time>2026-04-24T18:04:08.999Z</time></trkpt><trkpt lat="43.13111961562522" lon="13.225826734636629"><ele>329.6666666666667</ele><time>2026-04-24T18:04:09.999Z</time></trkpt><trkpt lat="43.131199719091015" lon="13.225775755061289"><ele>329.5</ele><time>2026-04-24T18:04:10.999Z</time></trkpt><trkpt lat="43.13127871758849" lon="13.225717547074732"><ele>329.33333333333337</ele><time>2026-04-24T18:04:11.999Z</time></trkpt><trkpt lat="43.13136679735634" lon="13.225674136626713"><ele>329.1666666666667</ele><time>2026-04-24T18:04:12.999Z</time></trkpt><trkpt lat="43.131442572175274" lon="13.225629343890214"><ele>329.0</ele><time>2026-04-24T18:04:13.999Z</time></trkpt><trkpt lat="43.131504035693894" lon="13.225565407974177"><ele>329.0</ele><time>2026-04-24T18:04:14.999Z</time></trkpt><trkpt lat="43.13154632818225" lon="13.225498127739401"><ele>329.0</ele><time>2026-04-24T18:04:15.999Z</time></trkpt><trkpt lat="43.13159387095878" lon="13.225433906064412"><ele>329.0</ele><time>2026-04-24T18:04:17.999Z</time></trkpt><trkpt lat="43.13168712669798" lon="13.225391217528445"><ele>329.0</ele><time>2026-04-24T18:04:26Z</time></trkpt><trkpt lat="43.13179000582978" lon="13.225473620125674"><ele>329.0</ele><time>2026-04-24T18:04:28Z</time></trkpt><trkpt lat="43.13186343379143" lon="13.225508335012284"><ele>329.0</ele><time>2026-04-24T18:04:29Z</time></trkpt><trkpt lat="43.13194818565882" lon="13.225529727567379"><ele>328.6</ele><time>2026-04-24T18:04:30Z</time></trkpt><trkpt lat="43.13203862402931" lon="13.225551745281784"><ele>328.2</ele><time>2026-04-24T18:04:31Z</time></trkpt><trkpt lat="43.132139275657444" lon="13.225580328800934"><ele>327.8</ele><time>2026-04-24T18:04:32Z</time></trkpt><trkpt lat="43.13224852651446" lon="13.225632001277246"><ele>327.40000000000003</ele><time>2026-04-24T18:04:33Z</time></trkpt><trkpt lat="43.1323555177849" lon="13.225693222385736"><ele>327.0</ele><time>2026-04-24T18:04:34Z</time></trkpt><trkpt lat="43.132464285270444" lon="13.225751993903717"><ele>325.20000000000005</ele><time>2026-04-24T18:04:35Z</time></trkpt><trkpt lat="43.13256881518721" lon="13.225806322353863"><ele>323.40000000000003</ele><time>2026-04-24T18:04:36Z</time></trkpt><trkpt lat="43.13266435640242" lon="13.225850613726935"><ele>321.6</ele><time>2026-04-24T18:04:37Z</time></trkpt><trkpt lat="43.13275164538478" lon="13.22589279406706"><ele>319.8</ele><time>2026-04-24T18:04:38Z</time></trkpt><trkpt lat="43.132836691512686" lon="13.225931700680876"><ele>318.0</ele><time>2026-04-24T18:04:39Z</time></trkpt><trkpt lat="43.13292210188919" lon="13.225977304883687"><ele>318.0</ele><time>2026-04-24T18:04:40Z</time></trkpt><trkpt lat="43.13300363323444" lon="13.226024322831186"><ele>318.0</ele><time>2026-04-24T18:04:41Z</time></trkpt><trkpt lat="43.13307818428232" lon="13.226074072142252"><ele>318.0</ele><time>2026-04-24T18:04:42Z</time></trkpt><trkpt lat="43.133137832390204" lon="13.226120360834816"><ele>318.0</ele><time>2026-04-24T18:04:43Z</time></trkpt><trkpt lat="43.13319107938455" lon="13.226176944256931"><ele>318.0</ele><time>2026-04-24T18:04:45Z</time></trkpt><trkpt lat="43.1332160200856" lon="13.226264800119841"><ele>318.0</ele><time>2026-04-24T18:04:47Z</time></trkpt><trkpt lat="43.13323925477367" lon="13.226345925915538"><ele>318.0</ele><time>2026-04-24T18:04:48Z</time></trkpt><trkpt lat="43.13326872182267" lon="13.22644028909923"><ele>318.0</ele><time>2026-04-24T18:04:49Z</time></trkpt><trkpt lat="43.13330420297605" lon="13.226533769883048"><ele>318.0</ele><time>2026-04-24T18:04:50Z</time></trkpt><trkpt lat="43.133337786720894" lon="13.22663822690881"><ele>318.0</ele><time>2026-04-24T18:04:51Z</time></trkpt><trkpt lat="43.133373052899756" lon="13.226726951802286"><ele>318.0</ele><time>2026-04-24T18:04:52Z</time></trkpt><trkpt lat="43.13342576158115" lon="13.226811269878013"><ele>318.0</ele><time>2026-04-24T18:04:53Z</time></trkpt><trkpt lat="43.13349460621643" lon="13.226876697778176"><ele>318.0</ele><time>2026-04-24T18:04:54Z</time></trkpt><trkpt lat="43.13357901375614" lon="13.226921521809235"><ele>318.0</ele><time>2026-04-24T18:04:55Z</time></trkpt><trkpt lat="43.13368043354517" lon="13.226928039659034"><ele>318.0</ele><time>2026-04-24T18:04:56Z</time></trkpt><trkpt lat="43.1337902022054" lon="13.226894062310002"><ele>318.0</ele><time>2026-04-24T18:04:57Z</time></trkpt><trkpt lat="43.133908085896934" lon="13.226857814213323"><ele>318.0</ele><time>2026-04-24T18:04:58Z</time></trkpt><trkpt lat="43.1340236529003" lon="13.226816177252362"><ele>316.75</ele><time>2026-04-24T18:04:59Z</time></trkpt><trkpt lat="43.13414205693413" lon="13.226770109679908"><ele>315.5</ele><time>2026-04-24T18:05:00Z</time></trkpt><trkpt lat="43.134258937954435" lon="13.226729823768688"><ele>314.25</ele><time>2026-04-24T18:05:01Z</time></trkpt><trkpt lat="43.13437877068248" lon="13.22668991487578"><ele>313.0</ele><time>2026-04-24T18:05:02Z</time></trkpt><trkpt lat="43.134497288764045" lon="13.226648673966078"><ele>313.0</ele><time>2026-04-24T18:05:03Z</time></trkpt><trkpt lat="43.134616626172594" lon="13.226606586892883"><ele>313.0</ele><time>2026-04-24T18:05:04Z</time></trkpt><trkpt lat="43.13472960845778" lon="13.226559397564198"><ele>313.0</ele><time>2026-04-24T18:05:05Z</time></trkpt><trkpt lat="43.134846944363964" lon="13.226513559805525"><ele>313.0</ele><time>2026-04-24T18:05:06Z</time></trkpt><trkpt lat="43.13495869007776" lon="13.226480411076283"><ele>315.0</ele><time>2026-04-24T18:05:07Z</time></trkpt><trkpt lat="43.135059411073605" lon="13.226452002199583"><ele>317.0</ele><time>2026-04-24T18:05:08Z</time></trkpt><trkpt lat="43.13515893986697" lon="13.226411409188236"><ele>319.0</ele><time>2026-04-24T18:05:09Z</time></trkpt><trkpt lat="43.13525829536818" lon="13.226360441156073"><ele>321.0</ele><time>2026-04-24T18:05:10Z</time></trkpt><trkpt lat="43.13536018391294" lon="13.226311849358632"><ele>323.0</ele><time>2026-04-24T18:05:11Z</time></trkpt><trkpt lat="43.13546760211294" lon="13.226294965024927"><ele>323.0</ele><time>2026-04-24T18:05:12Z</time></trkpt><trkpt lat="43.13558445122811" lon="13.226301608471235"><ele>323.0</ele><time>2026-04-24T18:05:13Z</time></trkpt><trkpt lat="43.13569385521498" lon="13.22631502061926"><ele>323.0</ele><time>2026-04-24T18:05:14Z</time></trkpt><trkpt lat="43.135789705529575" lon="13.226325882287377"><ele>323.0</ele><time>2026-04-24T18:05:15Z</time></trkpt><trkpt lat="43.13587568027382" lon="13.226330613177396"><ele>323.0</ele><time>2026-04-24T18:05:16Z</time></trkpt><trkpt lat="43.135958177479075" lon="13.226337799851448"><ele>323.5</ele><time>2026-04-24T18:05:17Z</time></trkpt><trkpt lat="43.13604776050553" lon="13.226343249111759"><ele>324.0</ele><time>2026-04-24T18:05:18Z</time></trkpt><trkpt lat="43.13614432820969" lon="13.226341472995246"><ele>324.5</ele><time>2026-04-24T18:05:19Z</time></trkpt><trkpt lat="43.1362211999311" lon="13.226354955152678"><ele>325.0</ele><time>2026-04-24T18:05:20Z</time></trkpt><trkpt lat="43.136295797153565" lon="13.226379426057417"><ele>325.5</ele><time>2026-04-24T18:05:21Z</time></trkpt><trkpt lat="43.13637739840084" lon="13.226412448512916"><ele>326.0</ele><time>2026-04-24T18:05:22Z</time></trkpt><trkpt lat="43.136451014996965" lon="13.226434155333715"><ele>326.0</ele><time>2026-04-24T18:05:23Z</time></trkpt><trkpt lat="43.136525504889256" lon="13.22645060799554"><ele>326.0</ele><time>2026-04-24T18:05:24Z</time></trkpt><trkpt lat="43.13660073652956" lon="13.226467417551932"><ele>326.0</ele><time>2026-04-24T18:05:25Z</time></trkpt><trkpt lat="43.13667400024894" lon="13.226481533238454"><ele>326.0</ele><time>2026-04-24T18:05:26Z</time></trkpt><trkpt lat="43.13675585247961" lon="13.226503875091028"><ele>326.0</ele><time>2026-04-24T18:05:27Z</time></trkpt><trkpt lat="43.13683838490002" lon="13.226524643197157"><ele>326.0</ele><time>2026-04-24T18:05:28Z</time></trkpt><trkpt lat="43.13691435176059" lon="13.226550209944378"><ele>322.1666666666667</ele><time>2026-04-24T18:05:29Z</time></trkpt><trkpt lat="43.13699177441808" lon="13.22655231835478"><ele>318.33333333333337</ele><time>2026-04-24T18:05:30Z</time></trkpt><trkpt lat="43.13706245146893" lon="13.226559100799737"><ele>314.5</ele><time>2026-04-24T18:05:31Z</time></trkpt><trkpt lat="43.13712809376486" lon="13.226577875459348"><ele>310.6666666666667</ele><time>2026-04-24T18:05:32Z</time></trkpt><trkpt lat="43.13720257473476" lon="13.226624260111203"><ele>306.8333333333333</ele><time>2026-04-24T18:05:34Z</time></trkpt><trkpt lat="43.137223203923114" lon="13.226721541982624"><ele>303.0</ele><time>2026-04-24T18:05:37Z</time></trkpt><trkpt lat="43.13718857507918" lon="13.226824325131963"><ele>303.0</ele><time>2026-04-24T18:05:39Z</time></trkpt><trkpt lat="43.13711577272522" lon="13.226903756846498"><ele>303.0</ele><time>2026-04-24T18:05:41Z</time></trkpt><trkpt lat="43.137049274589934" lon="13.227006368367816"><ele>303.0</ele><time>2026-04-24T18:05:43Z</time></trkpt><trkpt lat="43.13703044365278" lon="13.227175423744974"><ele>303.0</ele><time>2026-04-24T18:05:45Z</time></trkpt><trkpt lat="43.13706455163154" lon="13.22730514753639"><ele>303.0</ele><time>2026-04-24T18:05:47Z</time></trkpt><trkpt lat="43.13715615149206" lon="13.22736077513492"><ele>302.8</ele><time>2026-04-24T18:05:49Z</time></trkpt><trkpt lat="43.137294302776" lon="13.227367497934539"><ele>302.6</ele><time>2026-04-24T18:05:51Z</time></trkpt><trkpt lat="43.13737012257629" lon="13.227375070830048"><ele>302.4</ele><time>2026-04-24T18:05:52Z</time></trkpt><trkpt lat="43.13745075664653" lon="13.227383008767646"><ele>302.2</ele><time>2026-04-24T18:05:53Z</time></trkpt><trkpt lat="43.13754749682511" lon="13.22739929839543"><ele>302.0</ele><time>2026-04-24T18:05:54Z</time></trkpt><trkpt lat="43.13763668227513" lon="13.227418288289357"><ele>302.0</ele><time>2026-04-24T18:05:55Z</time></trkpt><trkpt lat="43.13773636593757" lon="13.227442396841052"><ele>302.0</ele><time>2026-04-24T18:05:56Z</time></trkpt><trkpt lat="43.13783466393414" lon="13.227461907525722"><ele>302.0</ele><time>2026-04-24T18:05:57Z</time></trkpt><trkpt lat="43.13793785281138" lon="13.2274764410132"><ele>302.0</ele><time>2026-04-24T18:05:58Z</time></trkpt><trkpt lat="43.138047002323994" lon="13.227496195387948"><ele>302.0</ele><time>2026-04-24T18:05:59Z</time></trkpt><trkpt lat="43.13815107265769" lon="13.227511010067953"><ele>301.75</ele><time>2026-04-24T18:06:00Z</time></trkpt><trkpt lat="43.13826419216067" lon="13.227509397456288"><ele>301.5</ele><time>2026-04-24T18:06:01Z</time></trkpt><trkpt lat="43.138383601582674" lon="13.227490949241792"><ele>301.25</ele><time>2026-04-24T18:06:02Z</time></trkpt><trkpt lat="43.13850673292175" lon="13.227456550243904"><ele>301.0</ele><time>2026-04-24T18:06:02.999Z</time></trkpt><trkpt lat="43.13862848384081" lon="13.22740862105118"><ele>301.0</ele><time>2026-04-24T18:06:03.999Z</time></trkpt><trkpt lat="43.138752633283524" lon="13.227342860822684"><ele>301.0</ele><time>2026-04-24T18:06:04.999Z</time></trkpt><trkpt lat="43.13887550004694" lon="13.227281291090097"><ele>301.0</ele><time>2026-04-24T18:06:05.999Z</time></trkpt><trkpt lat="43.138991355602506" lon="13.227221204521912"><ele>301.0</ele><time>2026-04-24T18:06:06.999Z</time></trkpt><trkpt lat="43.13910431147164" lon="13.227165519633909"><ele>301.2</ele><time>2026-04-24T18:06:07.999Z</time></trkpt><trkpt lat="43.13920990006518" lon="13.227115340268215"><ele>301.40000000000003</ele><time>2026-04-24T18:06:08.999Z</time></trkpt><trkpt lat="43.13930669523622" lon="13.227075824243302"><ele>301.6</ele><time>2026-04-24T18:06:09.999Z</time></trkpt><trkpt lat="43.13939036438694" lon="13.227051121559848"><ele>301.8</ele><time>2026-04-24T18:06:10.999Z</time></trkpt><trkpt lat="43.13948673840877" lon="13.227021300962633"><ele>302.0</ele><time>2026-04-24T18:06:12.999Z</time></trkpt><trkpt lat="43.13953528746367" lon="13.226964881871954"><ele>302.0</ele><time>2026-04-24T18:06:14.999Z</time></trkpt><trkpt lat="43.13952963670103" lon="13.226810057742597"><ele>302.0</ele><time>2026-04-24T18:06:16.999Z</time></trkpt><trkpt lat="43.13952391022109" lon="13.226632242711828"><ele>302.0</ele><time>2026-04-24T18:06:18.999Z</time></trkpt><trkpt lat="43.13951879867174" lon="13.226523231984999"><ele>302.0</ele><time>2026-04-24T18:06:19.999Z</time></trkpt><trkpt lat="43.139507126721" lon="13.226427648866588"><ele>302.0</ele><time>2026-04-24T18:06:20.999Z</time></trkpt><trkpt lat="43.13949907455365" lon="13.22632950869284"><ele>304.0</ele><time>2026-04-24T18:06:21.999Z</time></trkpt><trkpt lat="43.13950511044938" lon="13.226226410084648"><ele>306.0</ele><time>2026-04-24T18:06:22.999Z</time></trkpt><trkpt lat="43.139531323838085" lon="13.226128433596491"><ele>308.0</ele><time>2026-04-24T18:06:23.999Z</time></trkpt><trkpt lat="43.139567057320946" lon="13.226046496865257"><ele>310.0</ele><time>2026-04-24T18:06:24.999Z</time></trkpt><trkpt lat="43.13960769937687" lon="13.22596487773405"><ele>312.0</ele><time>2026-04-24T18:06:25.999Z</time></trkpt><trkpt lat="43.13966118593813" lon="13.225885805880997"><ele>314.0</ele><time>2026-04-24T18:06:26.999Z</time></trkpt><trkpt lat="43.13972270884856" lon="13.225814368618392"><ele>314.0</ele><time>2026-04-24T18:06:27.999Z</time></trkpt><trkpt lat="43.13979939882576" lon="13.22575787091333"><ele>314.0</ele><time>2026-04-24T18:06:28.999Z</time></trkpt><trkpt lat="43.13986352020512" lon="13.22572483717077"><ele>314.0</ele><time>2026-04-24T18:06:29.999Z</time></trkpt><trkpt lat="43.13991650485083" lon="13.225675729748124"><ele>314.0</ele><time>2026-04-24T18:06:30.999Z</time></trkpt><trkpt lat="43.139952055080684" lon="13.225512185471889"><ele>314.0</ele><time>2026-04-24T18:06:33Z</time></trkpt><trkpt lat="43.13992115680198" lon="13.225377699903442"><ele>314.0</ele><time>2026-04-24T18:06:35Z</time></trkpt><trkpt lat="43.13991474409483" lon="13.225285956113614"><ele>312.59999999999997</ele><time>2026-04-24T18:06:37Z</time></trkpt><trkpt lat="43.13993034090974" lon="13.225134778080173"><ele>311.2</ele><time>2026-04-24T18:06:39Z</time></trkpt><trkpt lat="43.13991993920972" lon="13.224992859794888"><ele>309.79999999999995</ele><time>2026-04-24T18:06:41Z</time></trkpt><trkpt lat="43.13992218350892" lon="13.224889825570935"><ele>308.4</ele><time>2026-04-24T18:06:43Z</time></trkpt><trkpt lat="43.13995631206943" lon="13.224797615988782"><ele>307.0</ele><time>2026-04-24T18:06:46Z</time></trkpt><trkpt lat="43.14003779596156" lon="13.224712005628456"><ele>307.0</ele><time>2026-04-24T18:06:48Z</time></trkpt><trkpt lat="43.140150955531496" lon="13.224629610858377"><ele>307.0</ele><time>2026-04-24T18:06:50Z</time></trkpt><trkpt lat="43.140218547330974" lon="13.22457856138006"><ele>307.0</ele><time>2026-04-24T18:06:51Z</time></trkpt><trkpt lat="43.14029508182395" lon="13.22451133185371"><ele>307.0</ele><time>2026-04-24T18:06:52Z</time></trkpt><trkpt lat="43.140370802878635" lon="13.224449028127097"><ele>307.0</ele><time>2026-04-24T18:06:53Z</time></trkpt><trkpt lat="43.1404385611212" lon="13.224389471092206"><ele>307.0</ele><time>2026-04-24T18:06:54Z</time></trkpt><trkpt lat="43.14050516416103" lon="13.224329575700931"><ele>307.0</ele><time>2026-04-24T18:06:55Z</time></trkpt><trkpt lat="43.14057199962469" lon="13.224268413878056"><ele>307.0</ele><time>2026-04-24T18:06:56Z</time></trkpt><trkpt lat="43.14064401236027" lon="13.224206792413618"><ele>307.0</ele><time>2026-04-24T18:06:57Z</time></trkpt><trkpt lat="43.1407202765603" lon="13.224138144895687"><ele>307.0</ele><time>2026-04-24T18:06:58Z</time></trkpt><trkpt lat="43.14079909855196" lon="13.224069265227238"><ele>307.0</ele><time>2026-04-24T18:06:59Z</time></trkpt><trkpt lat="43.14087288608921" lon="13.224004728824243"><ele>306.8333333333333</ele><time>2026-04-24T18:07:00Z</time></trkpt><trkpt lat="43.14094263071746" lon="13.223944877610325"><ele>306.66666666666663</ele><time>2026-04-24T18:07:01Z</time></trkpt><trkpt lat="43.14101718722065" lon="13.223882542389598"><ele>306.5</ele><time>2026-04-24T18:07:02Z</time></trkpt><trkpt lat="43.14109214001081" lon="13.223819556470778"><ele>306.3333333333333</ele><time>2026-04-24T18:07:03Z</time></trkpt><trkpt lat="43.141160901203435" lon="13.223759052110713"><ele>306.1666666666667</ele><time>2026-04-24T18:07:04Z</time></trkpt><trkpt lat="43.14123119515739" lon="13.223704982645955"><ele>306.0</ele><time>2026-04-24T18:07:05Z</time></trkpt><trkpt lat="43.14129697279218" lon="13.223654686202282"><ele>306.0</ele><time>2026-04-24T18:07:06Z</time></trkpt><trkpt lat="43.14136444075444" lon="13.223598049861845"><ele>306.0</ele><time>2026-04-24T18:07:07Z</time></trkpt><trkpt lat="43.14144201450884" lon="13.223537059464828"><ele>306.0</ele><time>2026-04-24T18:07:08Z</time></trkpt><trkpt lat="43.141520792482986" lon="13.223478114402438"><ele>306.0</ele><time>2026-04-24T18:07:09Z</time></trkpt><trkpt lat="43.14159823684865" lon="13.223430787268018"><ele>306.0</ele><time>2026-04-24T18:07:10Z</time></trkpt><trkpt lat="43.14167653269337" lon="13.223402931980683"><ele>306.0</ele><time>2026-04-24T18:07:11Z</time></trkpt><trkpt lat="43.14175793390148" lon="13.223402192418922"><ele>305.2</ele><time>2026-04-24T18:07:12Z</time></trkpt><trkpt lat="43.14183520147941" lon="13.223438617054757"><ele>304.40000000000003</ele><time>2026-04-24T18:07:13Z</time></trkpt><trkpt lat="43.141920898666946" lon="13.223496487683812"><ele>303.6</ele><time>2026-04-24T18:07:14Z</time></trkpt><trkpt lat="43.142022254209934" lon="13.223568464225664"><ele>302.8</ele><time>2026-04-24T18:07:15Z</time></trkpt><trkpt lat="43.14212481774403" lon="13.223648267361026"><ele>302.0</ele><time>2026-04-24T18:07:16Z</time></trkpt><trkpt lat="43.142223547438036" lon="13.22371893033941"><ele>302.0</ele><time>2026-04-24T18:07:17Z</time></trkpt><trkpt lat="43.14232575536749" lon="13.223787940565144"><ele>302.0</ele><time>2026-04-24T18:07:18Z</time></trkpt><trkpt lat="43.142444683808506" lon="13.223866887173784"><ele>302.0</ele><time>2026-04-24T18:07:19Z</time></trkpt><trkpt lat="43.14257371556489" lon="13.223943226573565"><ele>302.0</ele><time>2026-04-24T18:07:20Z</time></trkpt><trkpt lat="43.14270613920052" lon="13.22401526807795"><ele>300.75</ele><time>2026-04-24T18:07:21Z</time></trkpt><trkpt lat="43.14282499423246" lon="13.22407594595867"><ele>299.5</ele><time>2026-04-24T18:07:22Z</time></trkpt><trkpt lat="43.142937718243836" lon="13.224127252389275"><ele>298.25</ele><time>2026-04-24T18:07:23Z</time></trkpt><trkpt lat="43.14304926373647" lon="13.224172233642086"><ele>297.0</ele><time>2026-04-24T18:07:24Z</time></trkpt><trkpt lat="43.14317161242098" lon="13.224217449751874"><ele>297.0</ele><time>2026-04-24T18:07:25Z</time></trkpt><trkpt lat="43.14329427003822" lon="13.224259426462618"><ele>297.0</ele><time>2026-04-24T18:07:26Z</time></trkpt><trkpt lat="43.143416307919644" lon="13.224302224838903"><ele>297.0</ele><time>2026-04-24T18:07:27Z</time></trkpt><trkpt lat="43.1435305842583" lon="13.224348500464142"><ele>297.0</ele><time>2026-04-24T18:07:28Z</time></trkpt><trkpt lat="43.143638335670175" lon="13.224390591528051"><ele>297.0</ele><time>2026-04-24T18:07:29Z</time></trkpt><trkpt lat="43.14374972619857" lon="13.224436790189248"><ele>297.0</ele><time>2026-04-24T18:07:30Z</time></trkpt><trkpt lat="43.143857414608846" lon="13.224490094716169"><ele>297.0</ele><time>2026-04-24T18:07:31Z</time></trkpt><trkpt lat="43.14396676330096" lon="13.224548663629507"><ele>297.0</ele><time>2026-04-24T18:07:32Z</time></trkpt><trkpt lat="43.14407666530811" lon="13.22461650463254"><ele>297.0</ele><time>2026-04-24T18:07:33Z</time></trkpt><trkpt lat="43.14419528182438" lon="13.22469677425805"><ele>297.0</ele><time>2026-04-24T18:07:34Z</time></trkpt><trkpt lat="43.144306247607325" lon="13.224779355099647"><ele>297.0</ele><time>2026-04-24T18:07:35Z</time></trkpt><trkpt lat="43.14440682800358" lon="13.22485974888948"><ele>297.0</ele><time>2026-04-24T18:07:36Z</time></trkpt><trkpt lat="43.14450106496832" lon="13.224934224683857"><ele>296.0</ele><time>2026-04-24T18:07:37Z</time></trkpt><trkpt lat="43.144593142552196" lon="13.225002917316036"><ele>295.0</ele><time>2026-04-24T18:07:38Z</time></trkpt><trkpt lat="43.14468009981406" lon="13.225076235337417"><ele>294.0</ele><time>2026-04-24T18:07:39Z</time></trkpt><trkpt lat="43.14476041265132" lon="13.22514593319623"><ele>293.0</ele><time>2026-04-24T18:07:40Z</time></trkpt><trkpt lat="43.144833182151366" lon="13.225233516134773"><ele>292.0</ele><time>2026-04-24T18:07:41Z</time></trkpt><trkpt lat="43.14490659751914" lon="13.225355766106738"><ele>292.0</ele><time>2026-04-24T18:07:42Z</time></trkpt><trkpt lat="43.14496810396834" lon="13.225502690651316"><ele>292.0</ele><time>2026-04-24T18:07:43Z</time></trkpt><trkpt lat="43.145016437633494" lon="13.225677695126015"><ele>292.0</ele><time>2026-04-24T18:07:44Z</time></trkpt><trkpt lat="43.14504543987823" lon="13.225863750069438"><ele>292.0</ele><time>2026-04-24T18:07:45Z</time></trkpt><trkpt lat="43.14506624128571" lon="13.226037283050397"><ele>291.0</ele><time>2026-04-24T18:07:46Z</time></trkpt><trkpt lat="43.14509061083228" lon="13.22619615198062"><ele>290.0</ele><time>2026-04-24T18:07:47Z</time></trkpt><trkpt lat="43.14510837115535" lon="13.22635027304138"><ele>289.0</ele><time>2026-04-24T18:07:48Z</time></trkpt><trkpt lat="43.14509740980965" lon="13.22650761192201"><ele>288.0</ele><time>2026-04-24T18:07:49Z</time></trkpt><trkpt lat="43.14505333774058" lon="13.226665310775672"><ele>287.25</ele><time>2026-04-24T18:07:50Z</time></trkpt><trkpt lat="43.14497962934568" lon="13.22680581036532"><ele>286.5</ele><time>2026-04-24T18:07:51Z</time></trkpt><trkpt lat="43.14488433740075" lon="13.226921250611046"><ele>285.75</ele><time>2026-04-24T18:07:52Z</time></trkpt><trkpt lat="43.144778909337184" lon="13.227024654285692"><ele>285.0</ele><time>2026-04-24T18:07:53Z</time></trkpt><trkpt lat="43.14468114858255" lon="13.227125160999883"><ele>285.0</ele><time>2026-04-24T18:07:54Z</time></trkpt><trkpt lat="43.144586099454486" lon="13.227227785193072"><ele>285.0</ele><time>2026-04-24T18:07:55Z</time></trkpt><trkpt lat="43.14449500966231" lon="13.227313221908462"><ele>285.0</ele><time>2026-04-24T18:07:56Z</time></trkpt><trkpt lat="43.14441619588849" lon="13.227397456348738"><ele>285.0</ele><time>2026-04-24T18:07:56.999Z</time></trkpt><trkpt lat="43.14436196305269" lon="13.227499595856669"><ele>285.0</ele><time>2026-04-24T18:07:57.999Z</time></trkpt><trkpt lat="43.144352923409706" lon="13.227620488706355"><ele>286.0</ele><time>2026-04-24T18:07:58.999Z</time></trkpt><trkpt lat="43.144373684046926" lon="13.227735808865754"><ele>287.0</ele><time>2026-04-24T18:07:59.999Z</time></trkpt><trkpt lat="43.14442502772078" lon="13.227834274586028"><ele>288.0</ele><time>2026-04-24T18:08:00.999Z</time></trkpt><trkpt lat="43.14451464264342" lon="13.227885394823147"><ele>289.0</ele><time>2026-04-24T18:08:01.999Z</time></trkpt><trkpt lat="43.144607936714856" lon="13.227909583758915"><ele>290.0</ele><time>2026-04-24T18:08:02.999Z</time></trkpt><trkpt lat="43.14470576120418" lon="13.22793532921584"><ele>290.0</ele><time>2026-04-24T18:08:03.999Z</time></trkpt><trkpt lat="43.14480897814731" lon="13.227966267647512"><ele>290.0</ele><time>2026-04-24T18:08:04.999Z</time></trkpt><trkpt lat="43.14492402901068" lon="13.228012821723805"><ele>290.0</ele><time>2026-04-24T18:08:05.999Z</time></trkpt><trkpt lat="43.145035959648595" lon="13.228071972456792"><ele>290.0</ele><time>2026-04-24T18:08:06.999Z</time></trkpt><trkpt lat="43.145136308546356" lon="13.22816228389728"><ele>291.0</ele><time>2026-04-24T18:08:07.999Z</time></trkpt><trkpt lat="43.14521014963312" lon="13.228307978930665"><ele>292.0</ele><time>2026-04-24T18:08:08.998Z</time></trkpt><trkpt lat="43.145269144855625" lon="13.228498693069957"><ele>293.0</ele><time>2026-04-24T18:08:09.998Z</time></trkpt><trkpt lat="43.14531787804538" lon="13.22869547666647"><ele>294.0</ele><time>2026-04-24T18:08:10.998Z</time></trkpt><trkpt lat="43.14536836014333" lon="13.228880815144116"><ele>295.5</ele><time>2026-04-24T18:08:11.998Z</time></trkpt><trkpt lat="43.14542738574118" lon="13.229051332274963"><ele>297.0</ele><time>2026-04-24T18:08:12.998Z</time></trkpt><trkpt lat="43.14548223562374" lon="13.229213541621844"><ele>298.5</ele><time>2026-04-24T18:08:13.998Z</time></trkpt><trkpt lat="43.145534708959794" lon="13.229374862158885"><ele>300.0</ele><time>2026-04-24T18:08:14.998Z</time></trkpt><trkpt lat="43.14558076468107" lon="13.229532030946462"><ele>300.0</ele><time>2026-04-24T18:08:15.998Z</time></trkpt><trkpt lat="43.1456318819326" lon="13.22969049429221"><ele>300.0</ele><time>2026-04-24T18:08:16.998Z</time></trkpt><trkpt lat="43.14567770902749" lon="13.229846611661385"><ele>300.0</ele><time>2026-04-24T18:08:17.998Z</time></trkpt><trkpt lat="43.1457252953503" lon="13.230006215481694"><ele>300.0</ele><time>2026-04-24T18:08:18.998Z</time></trkpt><trkpt lat="43.14578025507693" lon="13.230160790618934"><ele>297.75</ele><time>2026-04-24T18:08:19.998Z</time></trkpt><trkpt lat="43.145850791687344" lon="13.23031124648037"><ele>295.5</ele><time>2026-04-24T18:08:20.998Z</time></trkpt><trkpt lat="43.14594256791066" lon="13.230431058806655"><ele>293.25</ele><time>2026-04-24T18:08:21.998Z</time></trkpt><trkpt lat="43.14605605244705" lon="13.230508748744304"><ele>291.0</ele><time>2026-04-24T18:08:22.998Z</time></trkpt><trkpt lat="43.146166601108256" lon="13.230571778174497"><ele>291.0</ele><time>2026-04-24T18:08:23.998Z</time></trkpt><trkpt lat="43.14628451312185" lon="13.230626337315153"><ele>291.0</ele><time>2026-04-24T18:08:24.998Z</time></trkpt><trkpt lat="43.14640410408262" lon="13.23067801867434"><ele>291.0</ele><time>2026-04-24T18:08:25.998Z</time></trkpt><trkpt lat="43.146527816937294" lon="13.230762350951426"><ele>291.0</ele><time>2026-04-24T18:08:26.998Z</time></trkpt><trkpt lat="43.146649878271155" lon="13.230835236008778"><ele>290.5</ele><time>2026-04-24T18:08:27.998Z</time></trkpt><trkpt lat="43.14677072287631" lon="13.230903445439276"><ele>290.0</ele><time>2026-04-24T18:08:28.998Z</time></trkpt><trkpt lat="43.14689221878939" lon="13.230972134493276"><ele>289.5</ele><time>2026-04-24T18:08:29.998Z</time></trkpt><trkpt lat="43.147012331856494" lon="13.231045080058317"><ele>289.0</ele><time>2026-04-24T18:08:30.998Z</time></trkpt><trkpt lat="43.14713205304648" lon="13.23112179126478"><ele>289.0</ele><time>2026-04-24T18:08:31.998Z</time></trkpt><trkpt lat="43.14725323354969" lon="13.231192113107207"><ele>289.0</ele><time>2026-04-24T18:08:32.998Z</time></trkpt><trkpt lat="43.14737936224353" lon="13.231258295054939"><ele>289.0</ele><time>2026-04-24T18:08:33.998Z</time></trkpt><trkpt lat="43.14750277034866" lon="13.231323121084746"><ele>289.0</ele><time>2026-04-24T18:08:34.998Z</time></trkpt><trkpt lat="43.147622677763756" lon="13.231393525924807"><ele>288.25</ele><time>2026-04-24T18:08:35.998Z</time></trkpt><trkpt lat="43.147743495813685" lon="13.231467426990763"><ele>287.5</ele><time>2026-04-24T18:08:36.998Z</time></trkpt><trkpt lat="43.14786635781141" lon="13.231536971487804"><ele>286.75</ele><time>2026-04-24T18:08:37.999Z</time></trkpt><trkpt lat="43.1479898239742" lon="13.231605221521926"><ele>286.0</ele><time>2026-04-24T18:08:38.999Z</time></trkpt><trkpt lat="43.148111915957955" lon="13.231674572122404"><ele>286.0</ele><time>2026-04-24T18:08:39.999Z</time></trkpt><trkpt lat="43.14823342695287" lon="13.231748449350784"><ele>286.0</ele><time>2026-04-24T18:08:40.999Z</time></trkpt><trkpt lat="43.148357201058424" lon="13.231818167115373"><ele>286.0</ele><time>2026-04-24T18:08:41.999Z</time></trkpt><trkpt lat="43.14848238707373" lon="13.231888377350266"><ele>286.0</ele><time>2026-04-24T18:08:42.999Z</time></trkpt><trkpt lat="43.148606512383054" lon="13.231957533740168"><ele>286.0</ele><time>2026-04-24T18:08:43.999Z</time></trkpt><trkpt lat="43.14872570890441" lon="13.23202989549848"><ele>286.0</ele><time>2026-04-24T18:08:44.999Z</time></trkpt><trkpt lat="43.14885041884912" lon="13.23209959353229"><ele>286.0</ele><time>2026-04-24T18:08:45.999Z</time></trkpt><trkpt lat="43.14897061264834" lon="13.232170104237198"><ele>286.0</ele><time>2026-04-24T18:08:46.999Z</time></trkpt><trkpt lat="43.14909316260786" lon="13.232235034796059"><ele>285.75</ele><time>2026-04-24T18:08:47.999Z</time></trkpt><trkpt lat="43.149206830676235" lon="13.232291978232933"><ele>285.5</ele><time>2026-04-24T18:08:48.999Z</time></trkpt><trkpt lat="43.14931573721385" lon="13.23235578932494"><ele>285.25</ele><time>2026-04-24T18:08:49.999Z</time></trkpt><trkpt lat="43.14942108126528" lon="13.23242639762367"><ele>285.0</ele><time>2026-04-24T18:08:50.999Z</time></trkpt><trkpt lat="43.1495146858264" lon="13.232504168992286"><ele>285.0</ele><time>2026-04-24T18:08:51.999Z</time></trkpt><trkpt lat="43.1495935970997" lon="13.23261403099657"><ele>285.0</ele><time>2026-04-24T18:08:52.999Z</time></trkpt><trkpt lat="43.149640793659394" lon="13.232758956046764"><ele>285.0</ele><time>2026-04-24T18:08:53.999Z</time></trkpt><trkpt lat="43.149657474752715" lon="13.23294098880871"><ele>285.0</ele><time>2026-04-24T18:08:54.999Z</time></trkpt><trkpt lat="43.14966054520157" lon="13.233119551512445"><ele>284.25</ele><time>2026-04-24T18:08:55.999Z</time></trkpt><trkpt lat="43.1496636847098" lon="13.233279887596021"><ele>283.5</ele><time>2026-04-24T18:08:56.999Z</time></trkpt><trkpt lat="43.1496709668475" lon="13.233428652249849"><ele>282.75</ele><time>2026-04-24T18:08:57.999Z</time></trkpt><trkpt lat="43.149678782118436" lon="13.233582037077491"><ele>282.0</ele><time>2026-04-24T18:08:58.999Z</time></trkpt><trkpt lat="43.149687362347116" lon="13.233735162498846"><ele>282.0</ele><time>2026-04-24T18:08:59.999Z</time></trkpt><trkpt lat="43.14970678131107" lon="13.233873400365482"><ele>282.0</ele><time>2026-04-24T18:09:00.999Z</time></trkpt><trkpt lat="43.14976489238819" lon="13.233987737102396"><ele>282.0</ele><time>2026-04-24T18:09:01.999Z</time></trkpt><trkpt lat="43.14985920710442" lon="13.234056133739413"><ele>282.0</ele><time>2026-04-24T18:09:02.999Z</time></trkpt><trkpt lat="43.149979102119715" lon="13.234070758002359"><ele>282.0</ele><time>2026-04-24T18:09:03.999Z</time></trkpt><trkpt lat="43.150104147202015" lon="13.23405576218348"><ele>281.75</ele><time>2026-04-24T18:09:04.999Z</time></trkpt><trkpt lat="43.15021950043545" lon="13.234049220741822"><ele>281.5</ele><time>2026-04-24T18:09:05.999Z</time></trkpt><trkpt lat="43.15033320573581" lon="13.234055754377122"><ele>281.25</ele><time>2026-04-24T18:09:06.999Z</time></trkpt><trkpt lat="43.15045233531387" lon="13.234087564826293"><ele>281.0</ele><time>2026-04-24T18:09:07.999Z</time></trkpt><trkpt lat="43.15056495770171" lon="13.234153935052309"><ele>281.0</ele><time>2026-04-24T18:09:08.999Z</time></trkpt><trkpt lat="43.15067130127129" lon="13.234244038170313"><ele>281.0</ele><time>2026-04-24T18:09:09.999Z</time></trkpt><trkpt lat="43.15077153786757" lon="13.234334053854871"><ele>281.0</ele><time>2026-04-24T18:09:10.999Z</time></trkpt><trkpt lat="43.15086396187541" lon="13.234418233800303"><ele>281.0</ele><time>2026-04-24T18:09:11.999Z</time></trkpt><trkpt lat="43.150959301206356" lon="13.23449537859924"><ele>279.5</ele><time>2026-04-24T18:09:12.999Z</time></trkpt><trkpt lat="43.151065659367575" lon="13.234551664652649"><ele>278.0</ele><time>2026-04-24T18:09:13.999Z</time></trkpt><trkpt lat="43.15117959867124" lon="13.234574425571266"><ele>276.5</ele><time>2026-04-24T18:09:14.999Z</time></trkpt><trkpt lat="43.151308028719946" lon="13.23456884420215"><ele>275.0</ele><time>2026-04-24T18:09:15.999Z</time></trkpt><trkpt lat="43.15142721705619" lon="13.234535800319259"><ele>272.5</ele><time>2026-04-24T18:09:16.999Z</time></trkpt><trkpt lat="43.15154218568006" lon="13.234523998382752"><ele>270.0</ele><time>2026-04-24T18:09:17.999Z</time></trkpt><trkpt lat="43.151662974151606" lon="13.234545302280385"><ele>267.5</ele><time>2026-04-24T18:09:18.999Z</time></trkpt><trkpt lat="43.15178050546094" lon="13.234605271660602"><ele>265.0</ele><time>2026-04-24T18:09:19.999Z</time></trkpt><trkpt lat="43.15189161247936" lon="13.234710072690785"><ele>264.5</ele><time>2026-04-24T18:09:20.999Z</time></trkpt><trkpt lat="43.15199880024555" lon="13.234831922506793"><ele>264.0</ele><time>2026-04-24T18:09:21.999Z</time></trkpt><trkpt lat="43.15210186503256" lon="13.234964306885182"><ele>263.5</ele><time>2026-04-24T18:09:22.999Z</time></trkpt><trkpt lat="43.152217623045885" lon="13.235084594071731"><ele>263.0</ele><time>2026-04-24T18:09:23.999Z</time></trkpt><trkpt lat="43.152328430829606" lon="13.23521370259138"><ele>263.25</ele><time>2026-04-24T18:09:24.999Z</time></trkpt><trkpt lat="43.15243063136651" lon="13.2353471727706"><ele>263.5</ele><time>2026-04-24T18:09:25.999Z</time></trkpt><trkpt lat="43.15252351997942" lon="13.235489982499697"><ele>263.75</ele><time>2026-04-24T18:09:26.999Z</time></trkpt><trkpt lat="43.15260490619492" lon="13.235641994823776"><ele>264.0</ele><time>2026-04-24T18:09:27.999Z</time></trkpt><trkpt lat="43.1526947802663" lon="13.235795708164996"><ele>264.0</ele><time>2026-04-24T18:09:28.999Z</time></trkpt><trkpt lat="43.15277875912534" lon="13.235946919689043"><ele>264.0</ele><time>2026-04-24T18:09:29.999Z</time></trkpt><trkpt lat="43.15286478222708" lon="13.236100855444167"><ele>264.0</ele><time>2026-04-24T18:09:30.999Z</time></trkpt><trkpt lat="43.152948507323416" lon="13.236248974706527"><ele>264.0</ele><time>2026-04-24T18:09:31.999Z</time></trkpt><trkpt lat="43.15303108747997" lon="13.23639054920786"><ele>265.75</ele><time>2026-04-24T18:09:32.999Z</time></trkpt><trkpt lat="43.153114804219804" lon="13.236521911311938"><ele>267.5</ele><time>2026-04-24T18:09:33.999Z</time></trkpt><trkpt lat="43.15320385495648" lon="13.236645100883118"><ele>269.25</ele><time>2026-04-24T18:09:34.999Z</time></trkpt><trkpt lat="43.153294264105284" lon="13.236758028594528"><ele>271.0</ele><time>2026-04-24T18:09:35.999Z</time></trkpt><trkpt lat="43.15338359445491" lon="13.236869727617103"><ele>267.0</ele><time>2026-04-24T18:09:36.999Z</time></trkpt><trkpt lat="43.153476691734774" lon="13.23697778026969"><ele>263.0</ele><time>2026-04-24T18:09:37.999Z</time></trkpt><trkpt lat="43.15356881508484" lon="13.237084198949992"><ele>259.0</ele><time>2026-04-24T18:09:38.999Z</time></trkpt><trkpt lat="43.153655930417834" lon="13.237188936651995"><ele>255.0</ele><time>2026-04-24T18:09:39.999Z</time></trkpt><trkpt lat="43.153739369658744" lon="13.237287650358818"><ele>255.25</ele><time>2026-04-24T18:09:40.999Z</time></trkpt><trkpt lat="43.15382154771449" lon="13.237386513751105"><ele>255.5</ele><time>2026-04-24T18:09:41.999Z</time></trkpt><trkpt lat="43.153902716010776" lon="13.237491315320417"><ele>255.75</ele><time>2026-04-24T18:09:42.999Z</time></trkpt><trkpt lat="43.15398917723352" lon="13.237600423872925"><ele>256.0</ele><time>2026-04-24T18:09:43.999Z</time></trkpt><trkpt lat="43.154080002244356" lon="13.237706698064123"><ele>256.0</ele><time>2026-04-24T18:09:44.999Z</time></trkpt><trkpt lat="43.154175908287066" lon="13.237802952071673"><ele>256.0</ele><time>2026-04-24T18:09:45.999Z</time></trkpt><trkpt lat="43.15427310168409" lon="13.237879752996824"><ele>256.0</ele><time>2026-04-24T18:09:46.999Z</time></trkpt><trkpt lat="43.15437833195488" lon="13.237936039597859"><ele>256.0</ele><time>2026-04-24T18:09:47.999Z</time></trkpt><trkpt lat="43.15449209472726" lon="13.237961393006575"><ele>256.0</ele><time>2026-04-24T18:09:48.999Z</time></trkpt><trkpt lat="43.15460663817982" lon="13.237963343875103"><ele>256.0</ele><time>2026-04-24T18:09:49.999Z</time></trkpt><trkpt lat="43.15472022910864" lon="13.237945377536827"><ele>256.0</ele><time>2026-04-24T18:09:50.999Z</time></trkpt><trkpt lat="43.15483181173191" lon="13.237914785854365"><ele>256.0</ele><time>2026-04-24T18:09:51.999Z</time></trkpt><trkpt lat="43.15494770876795" lon="13.237875785915831"><ele>255.5</ele><time>2026-04-24T18:09:52.999Z</time></trkpt><trkpt lat="43.15506185086642" lon="13.237831465183731"><ele>255.0</ele><time>2026-04-24T18:09:53.999Z</time></trkpt><trkpt lat="43.155179525331725" lon="13.237781560175968"><ele>254.5</ele><time>2026-04-24T18:09:54.999Z</time></trkpt><trkpt lat="43.15529614932303" lon="13.237723384370916"><ele>254.0</ele><time>2026-04-24T18:09:55.999Z</time></trkpt><trkpt lat="43.15541155687825" lon="13.237657260304632"><ele>254.0</ele><time>2026-04-24T18:09:56.999Z</time></trkpt><trkpt lat="43.15551704280706" lon="13.237580034154691"><ele>253.99999999999997</ele><time>2026-04-24T18:09:57.999Z</time></trkpt><trkpt lat="43.15560931918936" lon="13.237487800719704"><ele>253.99999999999997</ele><time>2026-04-24T18:09:58.999Z</time></trkpt><trkpt lat="43.15569105425858" lon="13.237398285064627"><ele>254.0</ele><time>2026-04-24T18:09:59.999Z</time></trkpt><trkpt lat="43.1557746780279" lon="13.237307410482343"><ele>254.0</ele><time>2026-04-24T18:10:00.999Z</time></trkpt><trkpt lat="43.15585906724006" lon="13.237214948029896"><ele>254.6</ele><time>2026-04-24T18:10:01.999Z</time></trkpt><trkpt lat="43.15594052610799" lon="13.237119123701602"><ele>255.2</ele><time>2026-04-24T18:10:02.999Z</time></trkpt><trkpt lat="43.15602398193839" lon="13.237033217292037"><ele>255.79999999999998</ele><time>2026-04-24T18:10:03.999Z</time></trkpt><trkpt lat="43.156116434788245" lon="13.236968608213099"><ele>256.4</ele><time>2026-04-24T18:10:04.999Z</time></trkpt><trkpt lat="43.156220205279276" lon="13.236921000785587"><ele>257.0</ele><time>2026-04-24T18:10:05.999Z</time></trkpt><trkpt lat="43.156335039212" lon="13.236907012036983"><ele>257.0</ele><time>2026-04-24T18:10:06.999Z</time></trkpt><trkpt lat="43.156456516899226" lon="13.236936786478953"><ele>257.0</ele><time>2026-04-24T18:10:07.999Z</time></trkpt><trkpt lat="43.15657000234934" lon="13.236999578785607"><ele>257.0</ele><time>2026-04-24T18:10:08.999Z</time></trkpt><trkpt lat="43.15667057325113" lon="13.237102671844669"><ele>257.0</ele><time>2026-04-24T18:10:09.999Z</time></trkpt><trkpt lat="43.15676816702139" lon="13.237235838572692"><ele>259.25</ele><time>2026-04-24T18:10:10.999Z</time></trkpt><trkpt lat="43.156870509829936" lon="13.237370468695442"><ele>261.5</ele><time>2026-04-24T18:10:11.999Z</time></trkpt><trkpt lat="43.15697451382372" lon="13.237490936017867"><ele>263.75</ele><time>2026-04-24T18:10:12.999Z</time></trkpt><trkpt lat="43.157072197802016" lon="13.237605848590363"><ele>266.0</ele><time>2026-04-24T18:10:13.999Z</time></trkpt><trkpt lat="43.1571685552023" lon="13.237719053870713"><ele>266.0</ele><time>2026-04-24T18:10:14.999Z</time></trkpt><trkpt lat="43.15726308155396" lon="13.237826417050535"><ele>266.0</ele><time>2026-04-24T18:10:15.999Z</time></trkpt><trkpt lat="43.15735269205273" lon="13.23794284099718"><ele>266.0</ele><time>2026-04-24T18:10:16.999Z</time></trkpt><trkpt lat="43.15743344014944" lon="13.238082427132587"><ele>266.0</ele><time>2026-04-24T18:10:17.999Z</time></trkpt><trkpt lat="43.157506328029584" lon="13.238244054966977"><ele>265.75</ele><time>2026-04-24T18:10:18.999Z</time></trkpt><trkpt lat="43.1575759138094" lon="13.238402300438649"><ele>265.5</ele><time>2026-04-24T18:10:19.999Z</time></trkpt><trkpt lat="43.157644755609454" lon="13.238556848157486"><ele>265.25</ele><time>2026-04-24T18:10:20.999Z</time></trkpt><trkpt lat="43.15770984058308" lon="13.23870911376547"><ele>265.0</ele><time>2026-04-24T18:10:21.999Z</time></trkpt><trkpt lat="43.157769735099194" lon="13.238853303490911"><ele>264.75</ele><time>2026-04-24T18:10:22.998Z</time></trkpt><trkpt lat="43.15783168119491" lon="13.2390024045759"><ele>264.5</ele><time>2026-04-24T18:10:23.998Z</time></trkpt><trkpt lat="43.15789568619692" lon="13.239160108580156"><ele>264.25</ele><time>2026-04-24T18:10:24.998Z</time></trkpt><trkpt lat="43.15795538333287" lon="13.239324599881767"><ele>264.0</ele><time>2026-04-24T18:10:25.998Z</time></trkpt><trkpt lat="43.158002030676805" lon="13.239495708652877"><ele>264.0</ele><time>2026-04-24T18:10:26.998Z</time></trkpt><trkpt lat="43.15802731907133" lon="13.23966201175626"><ele>264.0</ele><time>2026-04-24T18:10:27.998Z</time></trkpt><trkpt lat="43.15804064952648" lon="13.239813599389427"><ele>264.0</ele><time>2026-04-24T18:10:28.998Z</time></trkpt><trkpt lat="43.158069644479276" lon="13.23994153713096"><ele>264.0</ele><time>2026-04-24T18:10:29.998Z</time></trkpt><trkpt lat="43.15811827152804" lon="13.240052245366602"><ele>264.0</ele><time>2026-04-24T18:10:30.998Z</time></trkpt><trkpt lat="43.15818522544732" lon="13.240135888303827"><ele>262.0</ele><time>2026-04-24T18:10:31.998Z</time></trkpt><trkpt lat="43.15827002407284" lon="13.240177664486021"><ele>260.0</ele><time>2026-04-24T18:10:32.998Z</time></trkpt><trkpt lat="43.15836723535837" lon="13.240165686981191"><ele>258.0</ele><time>2026-04-24T18:10:33.998Z</time></trkpt><trkpt lat="43.158461160576785" lon="13.240110080968542"><ele>256.0</ele><time>2026-04-24T18:10:34.998Z</time></trkpt><trkpt lat="43.158562925635216" lon="13.24003567871952"><ele>254.0</ele><time>2026-04-24T18:10:35.998Z</time></trkpt><trkpt lat="43.1586685777367" lon="13.239955031415352"><ele>254.0</ele><time>2026-04-24T18:10:36.998Z</time></trkpt><trkpt lat="43.15877364626129" lon="13.23987673296909"><ele>254.0</ele><time>2026-04-24T18:10:37.998Z</time></trkpt><trkpt lat="43.15887964799109" lon="13.239797764787683"><ele>254.0</ele><time>2026-04-24T18:10:38.998Z</time></trkpt><trkpt lat="43.158987982667604" lon="13.239728469875363"><ele>254.0</ele><time>2026-04-24T18:10:39.998Z</time></trkpt><trkpt lat="43.15909475043995" lon="13.239651116913072"><ele>253.2</ele><time>2026-04-24T18:10:40.998Z</time></trkpt><trkpt lat="43.15919024220156" lon="13.239569129087348"><ele>252.39999999999998</ele><time>2026-04-24T18:10:41.998Z</time></trkpt><trkpt lat="43.159277168527154" lon="13.239479571476862"><ele>251.6</ele><time>2026-04-24T18:10:42.999Z</time></trkpt><trkpt lat="43.15935836052038" lon="13.239384231648781"><ele>250.8</ele><time>2026-04-24T18:10:43.999Z</time></trkpt><trkpt lat="43.15943753839338" lon="13.239289907201522"><ele>250.0</ele><time>2026-04-24T18:10:44.999Z</time></trkpt><trkpt lat="43.15951449678235" lon="13.239193698590771"><ele>250.0</ele><time>2026-04-24T18:10:45.999Z</time></trkpt><trkpt lat="43.15959500276924" lon="13.239097843979435"><ele>250.0</ele><time>2026-04-24T18:10:46.999Z</time></trkpt><trkpt lat="43.15967533555022" lon="13.239002481569932"><ele>250.0</ele><time>2026-04-24T18:10:47.999Z</time></trkpt><trkpt lat="43.159758187365924" lon="13.238903245111258"><ele>250.0</ele><time>2026-04-24T18:10:48.999Z</time></trkpt><trkpt lat="43.1598295660851" lon="13.238823132745209"><ele>250.0</ele><time>2026-04-24T18:10:49.999Z</time></trkpt><trkpt lat="43.15988985181377" lon="13.238752374178462"><ele>251.0</ele><time>2026-04-24T18:10:50.999Z</time></trkpt><trkpt lat="43.159945898469935" lon="13.238687763473374"><ele>252.0</ele><time>2026-04-24T18:10:51.999Z</time></trkpt><trkpt lat="43.16005173174571" lon="13.238641074938034"><ele>253.0</ele><time>2026-04-24T18:10:53.999Z</time></trkpt><trkpt lat="43.160134706411164" lon="13.238735924454469"><ele>254.0</ele><time>2026-04-24T18:10:56Z</time></trkpt><trkpt lat="43.160169622854475" lon="13.23883391048489"><ele>255.0</ele><time>2026-04-24T18:10:56.999Z</time></trkpt><trkpt lat="43.160197555855106" lon="13.238946606752481"><ele>254.4</ele><time>2026-04-24T18:10:57.999Z</time></trkpt><trkpt lat="43.16023025871269" lon="13.23906385964517"><ele>253.8</ele><time>2026-04-24T18:10:58.999Z</time></trkpt><trkpt lat="43.16028034813737" lon="13.239181587360441"><ele>253.2</ele><time>2026-04-24T18:10:59.999Z</time></trkpt><trkpt lat="43.16034177254388" lon="13.239284784380892"><ele>252.6</ele><time>2026-04-24T18:11:00.999Z</time></trkpt><trkpt lat="43.16041279356243" lon="13.239388495077543"><ele>252.0</ele><time>2026-04-24T18:11:01.999Z</time></trkpt><trkpt lat="43.16049348625184" lon="13.239486111493134"><ele>252.0</ele><time>2026-04-24T18:11:02.999Z</time></trkpt><trkpt lat="43.160582041487125" lon="13.239570006095235"><ele>252.0</ele><time>2026-04-24T18:11:03.999Z</time></trkpt><trkpt lat="43.160674325605214" lon="13.239645632373799"><ele>252.0</ele><time>2026-04-24T18:11:04.999Z</time></trkpt><trkpt lat="43.160770719666736" lon="13.23971269860903"><ele>252.0</ele><time>2026-04-24T18:11:05.999Z</time></trkpt><trkpt lat="43.16087381539873" lon="13.239775782025905"><ele>252.0</ele><time>2026-04-24T18:11:06.999Z</time></trkpt><trkpt lat="43.160979304736564" lon="13.239836390728376"><ele>252.25</ele><time>2026-04-24T18:11:07.999Z</time></trkpt><trkpt lat="43.1610899067183" lon="13.239899349316133"><ele>252.5</ele><time>2026-04-24T18:11:08.999Z</time></trkpt><trkpt lat="43.161205519979944" lon="13.239966364312819"><ele>252.75</ele><time>2026-04-24T18:11:09.999Z</time></trkpt><trkpt lat="43.16132462117402" lon="13.240032300737921"><ele>253.0</ele><time>2026-04-24T18:11:10.999Z</time></trkpt><trkpt lat="43.16144239262453" lon="13.240096151152907"><ele>254.5</ele><time>2026-04-24T18:11:11.999Z</time></trkpt><trkpt lat="43.16155812383223" lon="13.240162956055574"><ele>256.0</ele><time>2026-04-24T18:11:12.999Z</time></trkpt><trkpt lat="43.1616749775375" lon="13.240231036697537"><ele>257.5</ele><time>2026-04-24T18:11:13.999Z</time></trkpt><trkpt lat="43.16178840852771" lon="13.24029348382898"><ele>259.0</ele><time>2026-04-24T18:11:14.999Z</time></trkpt><trkpt lat="43.16190661620861" lon="13.240357867431852"><ele>259.0</ele><time>2026-04-24T18:11:15.999Z</time></trkpt><trkpt lat="43.162022647571106" lon="13.24041891263407"><ele>259.0</ele><time>2026-04-24T18:11:16.999Z</time></trkpt><trkpt lat="43.16213309644779" lon="13.24048625834312"><ele>259.0</ele><time>2026-04-24T18:11:17.999Z</time></trkpt><trkpt lat="43.16223790385798" lon="13.240568249904634"><ele>259.0</ele><time>2026-04-24T18:11:18.999Z</time></trkpt><trkpt lat="43.162336362950654" lon="13.240663699358464"><ele>258.5</ele><time>2026-04-24T18:11:19.999Z</time></trkpt><trkpt lat="43.16243094667089" lon="13.240765422016288"><ele>258.0</ele><time>2026-04-24T18:11:20.999Z</time></trkpt><trkpt lat="43.16251960424496" lon="13.240881544976329"><ele>257.5</ele><time>2026-04-24T18:11:21.999Z</time></trkpt><trkpt lat="43.162594502494954" lon="13.241007534344876"><ele>257.0</ele><time>2026-04-24T18:11:22.999Z</time></trkpt><trkpt lat="43.16266442665724" lon="13.241142728568393"><ele>257.0</ele><time>2026-04-24T18:11:23.999Z</time></trkpt><trkpt lat="43.16272990023828" lon="13.241277057115136"><ele>257.0</ele><time>2026-04-24T18:11:24.999Z</time></trkpt><trkpt lat="43.162802908429185" lon="13.241409399813374"><ele>257.0</ele><time>2026-04-24T18:11:25.999Z</time></trkpt><trkpt lat="43.16287546759566" lon="13.24153644728833"><ele>257.0</ele><time>2026-04-24T18:11:26.999Z</time></trkpt><trkpt lat="43.1629433372359" lon="13.241674065634927"><ele>256.0</ele><time>2026-04-24T18:11:27.999Z</time></trkpt><trkpt lat="43.163011795274954" lon="13.241809413571348"><ele>255.0</ele><time>2026-04-24T18:11:28.999Z</time></trkpt><trkpt lat="43.16308949344001" lon="13.241936130030973"><ele>254.0</ele><time>2026-04-24T18:11:29.999Z</time></trkpt><trkpt lat="43.16317078399259" lon="13.242044109418803"><ele>253.0</ele><time>2026-04-24T18:11:30.999Z</time></trkpt><trkpt lat="43.163260783553994" lon="13.242123722717524"><ele>253.0</ele><time>2026-04-24T18:11:31.999Z</time></trkpt><trkpt lat="43.163367944504934" lon="13.242159106237343"><ele>253.0</ele><time>2026-04-24T18:11:32.999Z</time></trkpt><trkpt lat="43.16347752229091" lon="13.242159816003143"><ele>253.0</ele><time>2026-04-24T18:11:33.999Z</time></trkpt><trkpt lat="43.16359048019513" lon="13.242147795457953"><ele>253.0</ele><time>2026-04-24T18:11:34.999Z</time></trkpt><trkpt lat="43.16370513953998" lon="13.24213009405663"><ele>253.0</ele><time>2026-04-24T18:11:35.999Z</time></trkpt><trkpt lat="43.16381890920766" lon="13.242105965577387"><ele>253.0</ele><time>2026-04-24T18:11:36.999Z</time></trkpt><trkpt lat="43.16392931279247" lon="13.242092986414473"><ele>253.0</ele><time>2026-04-24T18:11:37.999Z</time></trkpt><trkpt lat="43.16403505841145" lon="13.242094264640563"><ele>253.0</ele><time>2026-04-24T18:11:38.999Z</time></trkpt><trkpt lat="43.16414505118075" lon="13.242116039959939"><ele>253.0</ele><time>2026-04-24T18:11:39.999Z</time></trkpt><trkpt lat="43.16426281652483" lon="13.242146799776986"><ele>253.0</ele><time>2026-04-24T18:11:40.999Z</time></trkpt><trkpt lat="43.16438186083491" lon="13.242177452521059"><ele>253.0</ele><time>2026-04-24T18:11:41.999Z</time></trkpt><trkpt lat="43.164501229014334" lon="13.242210216890136"><ele>253.0</ele><time>2026-04-24T18:11:42.999Z</time></trkpt><trkpt lat="43.16462194741486" lon="13.242243118344875"><ele>253.0</ele><time>2026-04-24T18:11:43.999Z</time></trkpt><trkpt lat="43.16474180808848" lon="13.242270376200763"><ele>253.0</ele><time>2026-04-24T18:11:44.999Z</time></trkpt><trkpt lat="43.16485958067949" lon="13.242293798256727"><ele>253.25</ele><time>2026-04-24T18:11:45.999Z</time></trkpt><trkpt lat="43.16497657529977" lon="13.242316152175464"><ele>253.5</ele><time>2026-04-24T18:11:46.999Z</time></trkpt><trkpt lat="43.165094754886994" lon="13.242343847472384"><ele>253.75</ele><time>2026-04-24T18:11:47.999Z</time></trkpt><trkpt lat="43.165207120036875" lon="13.242372170962941"><ele>254.0</ele><time>2026-04-24T18:11:48.999Z</time></trkpt><trkpt lat="43.165320841775326" lon="13.242403102966183"><ele>254.0</ele><time>2026-04-24T18:11:49.999Z</time></trkpt><trkpt lat="43.16543577156689" lon="13.242442171334003"><ele>254.0</ele><time>2026-04-24T18:11:50.999Z</time></trkpt><trkpt lat="43.165554725225576" lon="13.242486654201102"><ele>254.0</ele><time>2026-04-24T18:11:51.999Z</time></trkpt><trkpt lat="43.16568400951385" lon="13.242539163470328"><ele>254.0</ele><time>2026-04-24T18:11:52.999Z</time></trkpt><trkpt lat="43.16579756357601" lon="13.242589667434451"><ele>255.25</ele><time>2026-04-24T18:11:53.999Z</time></trkpt><trkpt lat="43.1659002196527" lon="13.242641247842558"><ele>256.5</ele><time>2026-04-24T18:11:54.999Z</time></trkpt><trkpt lat="43.16599903077723" lon="13.242700738127235"><ele>257.75</ele><time>2026-04-24T18:11:55.999Z</time></trkpt><trkpt lat="43.16611398000566" lon="13.242783574528877"><ele>259.0</ele><time>2026-04-24T18:11:56.999Z</time></trkpt><trkpt lat="43.16623086815449" lon="13.242872682366697"><ele>259.0</ele><time>2026-04-24T18:11:57.999Z</time></trkpt><trkpt lat="43.166363616233085" lon="13.242977489673898"><ele>259.0</ele><time>2026-04-24T18:11:58.999Z</time></trkpt><trkpt lat="43.166492566182505" lon="13.243079130726068"><ele>259.0</ele><time>2026-04-24T18:11:59.999Z</time></trkpt><trkpt lat="43.16660797989764" lon="13.24317846364586"><ele>259.0</ele><time>2026-04-24T18:12:00.999Z</time></trkpt><trkpt lat="43.16671725123633" lon="13.243291366049496"><ele>257.3333333333333</ele><time>2026-04-24T18:12:01.999Z</time></trkpt><trkpt lat="43.166828047655635" lon="13.243415308593615"><ele>255.66666666666669</ele><time>2026-04-24T18:12:02.999Z</time></trkpt><trkpt lat="43.16694734332337" lon="13.243562024885511"><ele>254.0</ele><time>2026-04-24T18:12:03.999Z</time></trkpt><trkpt lat="43.16708200117177" lon="13.243742499624096"><ele>254.0</ele><time>2026-04-24T18:12:04.999Z</time></trkpt><trkpt lat="43.167215671773846" lon="13.243952348364004"><ele>254.0</ele><time>2026-04-24T18:12:05.999Z</time></trkpt><trkpt lat="43.16732602739113" lon="13.244154045059927"><ele>254.0</ele><time>2026-04-24T18:12:06.999Z</time></trkpt><trkpt lat="43.16742245939868" lon="13.244338964090106"><ele>254.25</ele><time>2026-04-24T18:12:07.999Z</time></trkpt><trkpt lat="43.167507494747284" lon="13.2445059324958"><ele>254.5</ele><time>2026-04-24T18:12:08.999Z</time></trkpt><trkpt lat="43.16759689237458" lon="13.24467285764427"><ele>254.75</ele><time>2026-04-24T18:12:09.999Z</time></trkpt><trkpt lat="43.167681242763884" lon="13.244818111206582"><ele>255.0</ele><time>2026-04-24T18:12:10.999Z</time></trkpt><trkpt lat="43.16777356084341" lon="13.244945152270658"><ele>254.25</ele><time>2026-04-24T18:12:11.999Z</time></trkpt><trkpt lat="43.16787741672072" lon="13.245033426216787"><ele>253.5</ele><time>2026-04-24T18:12:12.999Z</time></trkpt><trkpt lat="43.16799479758678" lon="13.245101083454738"><ele>252.75</ele><time>2026-04-24T18:12:13.999Z</time></trkpt><trkpt lat="43.16812724677606" lon="13.245150799806309"><ele>252.0</ele><time>2026-04-24T18:12:14.999Z</time></trkpt><trkpt lat="43.16826375538252" lon="13.245208233828755"><ele>251.75</ele><time>2026-04-24T18:12:15.999Z</time></trkpt><trkpt lat="43.16841371571219" lon="13.245274218621006"><ele>251.5</ele><time>2026-04-24T18:12:16.999Z</time></trkpt><trkpt lat="43.168553925734045" lon="13.245338491659908"><ele>251.25</ele><time>2026-04-24T18:12:17.999Z</time></trkpt><trkpt lat="43.16868156207987" lon="13.245399147276867"><ele>251.0</ele><time>2026-04-24T18:12:18.999Z</time></trkpt><trkpt lat="43.16880152029776" lon="13.245464934301161"><ele>251.0</ele><time>2026-04-24T18:12:19.999Z</time></trkpt><trkpt lat="43.16891975601459" lon="13.245548106321902"><ele>251.0</ele><time>2026-04-24T18:12:20.999Z</time></trkpt><trkpt lat="43.16903147587832" lon="13.245649991474302"><ele>251.0</ele><time>2026-04-24T18:12:21.999Z</time></trkpt><trkpt lat="43.16913151856487" lon="13.245774655627082"><ele>251.0</ele><time>2026-04-24T18:12:22.999Z</time></trkpt><trkpt lat="43.16921753931553" lon="13.245911070755641"><ele>250.5</ele><time>2026-04-24T18:12:23.999Z</time></trkpt><trkpt lat="43.169293672961686" lon="13.246057733831883"><ele>250.0</ele><time>2026-04-24T18:12:24.999Z</time></trkpt><trkpt lat="43.16936424727094" lon="13.246211370651892"><ele>249.5</ele><time>2026-04-24T18:12:25.999Z</time></trkpt><trkpt lat="43.1694292780318" lon="13.246367849450866"><ele>249.0</ele><time>2026-04-24T18:12:26.999Z</time></trkpt><trkpt lat="43.169492357965595" lon="13.246525686053275"><ele>248.33333333333331</ele><time>2026-04-24T18:12:27.999Z</time></trkpt><trkpt lat="43.16956251483046" lon="13.24669834417936"><ele>247.66666666666666</ele><time>2026-04-24T18:12:28.999Z</time></trkpt><trkpt lat="43.1696407089126" lon="13.24690573932388"><ele>247.0</ele><time>2026-04-24T18:12:29.999Z</time></trkpt><trkpt lat="43.16974022666731" lon="13.247137583899324"><ele>245.5</ele><time>2026-04-24T18:12:30.999Z</time></trkpt><trkpt lat="43.169858092624175" lon="13.24739609447993"><ele>244.0</ele><time>2026-04-24T18:12:31.998Z</time></trkpt><trkpt lat="43.16997405753676" lon="13.247673562832134"><ele>243.66666666666666</ele><time>2026-04-24T18:12:32.998Z</time></trkpt><trkpt lat="43.17007666518666" lon="13.24788385230981"><ele>243.33333333333331</ele><time>2026-04-24T18:12:33.998Z</time></trkpt><trkpt lat="43.17017145359189" lon="13.248081532125749"><ele>243.0</ele><time>2026-04-24T18:12:34.998Z</time></trkpt><trkpt lat="43.17029698006821" lon="13.248231306229252"><ele>243.0</ele><time>2026-04-24T18:12:35.998Z</time></trkpt><trkpt lat="43.170441870505016" lon="13.248339404644636"><ele>243.0</ele><time>2026-04-24T18:12:36.998Z</time></trkpt><trkpt lat="43.17060647434582" lon="13.248413374094552"><ele>243.0</ele><time>2026-04-24T18:12:37.998Z</time></trkpt><trkpt lat="43.17078640067886" lon="13.248476111882134"><ele>244.33333333333331</ele><time>2026-04-24T18:12:38.998Z</time></trkpt><trkpt lat="43.1709458964491" lon="13.248533838010793"><ele>245.66666666666666</ele><time>2026-04-24T18:12:39.998Z</time></trkpt><trkpt lat="43.17111093158168" lon="13.24861399160568"><ele>247.0</ele><time>2026-04-24T18:12:40.998Z</time></trkpt><trkpt lat="43.171248812852575" lon="13.24872028930073"><ele>247.0</ele><time>2026-04-24T18:12:41.998Z</time></trkpt><trkpt lat="43.17137105174338" lon="13.248855161908166"><ele>247.0</ele><time>2026-04-24T18:12:42.998Z</time></trkpt><trkpt lat="43.17147873544388" lon="13.249015960178399"><ele>247.0</ele><time>2026-04-24T18:12:43.998Z</time></trkpt><trkpt lat="43.171572894694" lon="13.2492001852756"><ele>246.0</ele><time>2026-04-24T18:12:44.998Z</time></trkpt><trkpt lat="43.17167107971" lon="13.249408463330003"><ele>245.0</ele><time>2026-04-24T18:12:45.998Z</time></trkpt><trkpt lat="43.17175717069035" lon="13.249611512484652"><ele>244.0</ele><time>2026-04-24T18:12:46.998Z</time></trkpt><trkpt lat="43.17183828413575" lon="13.24979448317059"><ele>243.5</ele><time>2026-04-24T18:12:47.998Z</time></trkpt><trkpt lat="43.17191989289201" lon="13.249960275429405"><ele>243.0</ele><time>2026-04-24T18:12:49Z</time></trkpt><trkpt lat="43.17202742301903" lon="13.250095860980903"><ele>242.5</ele><time>2026-04-24T18:12:50Z</time></trkpt><trkpt lat="43.17215809898374" lon="13.250195810149657"><ele>242.0</ele><time>2026-04-24T18:12:51Z</time></trkpt><trkpt lat="43.172312007305464" lon="13.250271318756516"><ele>242.66666666666669</ele><time>2026-04-24T18:12:52Z</time></trkpt><trkpt lat="43.172465206879316" lon="13.250342582024306"><ele>243.33333333333331</ele><time>2026-04-24T18:12:53Z</time></trkpt><trkpt lat="43.17261810507192" lon="13.250414736253148"><ele>244.0</ele><time>2026-04-24T18:12:54Z</time></trkpt><trkpt lat="43.17277008732871" lon="13.250485189403717"><ele>244.0</ele><time>2026-04-24T18:12:55Z</time></trkpt><trkpt lat="43.1729155015772" lon="13.25055118701716"><ele>244.0</ele><time>2026-04-24T18:12:56Z</time></trkpt><trkpt lat="43.17306006674322" lon="13.250608500256211"><ele>244.0</ele><time>2026-04-24T18:12:57Z</time></trkpt><trkpt lat="43.17321285651025" lon="13.250665343114756"><ele>244.0</ele><time>2026-04-24T18:12:58Z</time></trkpt><trkpt lat="43.17336179838102" lon="13.250717511568395"><ele>244.0</ele><time>2026-04-24T18:12:59Z</time></trkpt><trkpt lat="43.17351522954129" lon="13.250767857755825"><ele>244.0</ele><time>2026-04-24T18:13:00Z</time></trkpt><trkpt lat="43.173676851723535" lon="13.250823248470278"><ele>244.0</ele><time>2026-04-24T18:13:01Z</time></trkpt><trkpt lat="43.1738278222759" lon="13.250877102751753"><ele>244.0</ele><time>2026-04-24T18:13:02Z</time></trkpt><trkpt lat="43.173974681370396" lon="13.250942652503632"><ele>244.0</ele><time>2026-04-24T18:13:03Z</time></trkpt><trkpt lat="43.17412253535249" lon="13.251018532011964"><ele>244.66666666666666</ele><time>2026-04-24T18:13:04Z</time></trkpt><trkpt lat="43.1742658385971" lon="13.251098512370731"><ele>245.33333333333331</ele><time>2026-04-24T18:13:05Z</time></trkpt><trkpt lat="43.174406095206564" lon="13.251181562031075"><ele>246.0</ele><time>2026-04-24T18:13:06Z</time></trkpt><trkpt lat="43.174550043661526" lon="13.251274430786395"><ele>246.0</ele><time>2026-04-24T18:13:07Z</time></trkpt><trkpt lat="43.17468870729566" lon="13.25136687880703"><ele>246.0</ele><time>2026-04-24T18:13:08Z</time></trkpt><trkpt lat="43.17482629243669" lon="13.25146140058843"><ele>246.0</ele><time>2026-04-24T18:13:09Z</time></trkpt><trkpt lat="43.174959794304534" lon="13.251563985749998"><ele>245.0</ele><time>2026-04-24T18:13:09.999Z</time></trkpt><trkpt lat="43.17509305521429" lon="13.251666772400302"><ele>244.0</ele><time>2026-04-24T18:13:10.999Z</time></trkpt><trkpt lat="43.17521819861528" lon="13.251759051018285"><ele>243.0</ele><time>2026-04-24T18:13:11.999Z</time></trkpt><trkpt lat="43.175352086533934" lon="13.251829043059336"><ele>242.0</ele><time>2026-04-24T18:13:12.999Z</time></trkpt><trkpt lat="43.17549758418025" lon="13.251868645009168"><ele>242.0</ele><time>2026-04-24T18:13:13.999Z</time></trkpt><trkpt lat="43.17564839193963" lon="13.251868922358813"><ele>242.0</ele><time>2026-04-24T18:13:14.999Z</time></trkpt><trkpt lat="43.17579403545931" lon="13.251846410041649"><ele>242.0</ele><time>2026-04-24T18:13:15.999Z</time></trkpt><trkpt lat="43.17594073105599" lon="13.251813402811726"><ele>242.0</ele><time>2026-04-24T18:13:16.999Z</time></trkpt><trkpt lat="43.17608988698298" lon="13.251778693938927"><ele>243.0</ele><time>2026-04-24T18:13:17.999Z</time></trkpt><trkpt lat="43.1762336929125" lon="13.25175458378589"><ele>244.0</ele><time>2026-04-24T18:13:18.999Z</time></trkpt><trkpt lat="43.176377135921356" lon="13.251745177172149"><ele>245.0</ele><time>2026-04-24T18:13:19.999Z</time></trkpt><trkpt lat="43.17651972083301" lon="13.251758553092191"><ele>246.0</ele><time>2026-04-24T18:13:20.999Z</time></trkpt><trkpt lat="43.17665927531025" lon="13.25180040244142"><ele>247.0</ele><time>2026-04-24T18:13:21.999Z</time></trkpt><trkpt lat="43.176795070545296" lon="13.251861904886024"><ele>248.0</ele><time>2026-04-24T18:13:22.999Z</time></trkpt><trkpt lat="43.17693307559552" lon="13.251930150267865"><ele>249.0</ele><time>2026-04-24T18:13:23.999Z</time></trkpt><trkpt lat="43.17707264131904" lon="13.25199481626205"><ele>250.0</ele><time>2026-04-24T18:13:24.999Z</time></trkpt><trkpt lat="43.17721578173701" lon="13.25205557140305"><ele>251.0</ele><time>2026-04-24T18:13:25.999Z</time></trkpt><trkpt lat="43.17736698102874" lon="13.252104748589835"><ele>252.0</ele><time>2026-04-24T18:13:26.999Z</time></trkpt><trkpt lat="43.17751596568642" lon="13.252143383272797"><ele>253.0</ele><time>2026-04-24T18:13:27.999Z</time></trkpt><trkpt lat="43.17766081173176" lon="13.25217744393077"><ele>253.0</ele><time>2026-04-24T18:13:28.999Z</time></trkpt><trkpt lat="43.177796235288234" lon="13.252245740372643"><ele>253.0</ele><time>2026-04-24T18:13:29.999Z</time></trkpt><trkpt lat="43.17793827639274" lon="13.252296407579056"><ele>253.0</ele><time>2026-04-24T18:13:30.999Z</time></trkpt><trkpt lat="43.17805111320636" lon="13.252430121965462"><ele>253.0</ele><time>2026-04-24T18:13:31.999Z</time></trkpt><trkpt lat="43.178174877050886" lon="13.252544404601583"><ele>252.0</ele><time>2026-04-24T18:13:32.999Z</time></trkpt><trkpt lat="43.178306903831654" lon="13.25264264948255"><ele>251.0</ele><time>2026-04-24T18:13:33.999Z</time></trkpt><trkpt lat="43.17843221243849" lon="13.252749362376699"><ele>250.0</ele><time>2026-04-24T18:13:34.999Z</time></trkpt><trkpt lat="43.17856608711017" lon="13.252834779509195"><ele>249.0</ele><time>2026-04-24T18:13:35.999Z</time></trkpt><trkpt lat="43.17871226214213" lon="13.252881395375766"><ele>249.0</ele><time>2026-04-24T18:13:36.999Z</time></trkpt><trkpt lat="43.178871033392404" lon="13.252888075209263"><ele>249.0</ele><time>2026-04-24T18:13:37.999Z</time></trkpt><trkpt lat="43.17902585080761" lon="13.252872992694522"><ele>249.0</ele><time>2026-04-24T18:13:38.999Z</time></trkpt><trkpt lat="43.17918518714492" lon="13.252845456281475"><ele>249.0</ele><time>2026-04-24T18:13:39.999Z</time></trkpt><trkpt lat="43.179345592486214" lon="13.25282151630295"><ele>249.0</ele><time>2026-04-24T18:13:40.999Z</time></trkpt><trkpt lat="43.1794982462199" lon="13.252818263120522"><ele>249.0</ele><time>2026-04-24T18:13:41.999Z</time></trkpt><trkpt lat="43.1796467559503" lon="13.252828643476013"><ele>249.0</ele><time>2026-04-24T18:13:42.999Z</time></trkpt><trkpt lat="43.179799805470935" lon="13.252874917705842"><ele>249.0</ele><time>2026-04-24T18:13:43.999Z</time></trkpt><trkpt lat="43.17994703284379" lon="13.25291284020959"><ele>249.0</ele><time>2026-04-24T18:13:44.999Z</time></trkpt><trkpt lat="43.180093509930686" lon="13.252961442429172"><ele>247.66666666666669</ele><time>2026-04-24T18:13:45.999Z</time></trkpt><trkpt lat="43.18024494639231" lon="13.252996290645934"><ele>246.33333333333334</ele><time>2026-04-24T18:13:46.999Z</time></trkpt><trkpt lat="43.18038643690127" lon="13.253052903472602"><ele>245.0</ele><time>2026-04-24T18:13:47.999Z</time></trkpt><trkpt lat="43.180529985367706" lon="13.253108830355236"><ele>245.33333333333334</ele><time>2026-04-24T18:13:48.999Z</time></trkpt><trkpt lat="43.18067703180166" lon="13.253165116857765"><ele>245.66666666666669</ele><time>2026-04-24T18:13:49.999Z</time></trkpt><trkpt lat="43.18082509772918" lon="13.253224636013401"><ele>246.0</ele><time>2026-04-24T18:13:50.999Z</time></trkpt><trkpt lat="43.18097356656569" lon="13.253283193132733"><ele>244.66666666666669</ele><time>2026-04-24T18:13:51.999Z</time></trkpt><trkpt lat="43.1811262026534" lon="13.253347293779719"><ele>243.33333333333334</ele><time>2026-04-24T18:13:52.999Z</time></trkpt><trkpt lat="43.18127472517747" lon="13.253406487655523"><ele>242.0</ele><time>2026-04-24T18:13:53.999Z</time></trkpt><trkpt lat="43.181418794501546" lon="13.253465675240557"><ele>240.5</ele><time>2026-04-24T18:13:54.999Z</time></trkpt><trkpt lat="43.1815570912377" lon="13.253553070938883"><ele>239.0</ele><time>2026-04-24T18:13:55.999Z</time></trkpt><trkpt lat="43.181696063240175" lon="13.253631353867037"><ele>237.5</ele><time>2026-04-24T18:13:56.999Z</time></trkpt><trkpt lat="43.181834852894994" lon="13.253694123048614"><ele>236.0</ele><time>2026-04-24T18:13:57.999Z</time></trkpt><trkpt lat="43.18197342042426" lon="13.25378517239296"><ele>236.0</ele><time>2026-04-24T18:13:58.999Z</time></trkpt><trkpt lat="43.18210304534054" lon="13.253870254006852"><ele>236.0</ele><time>2026-04-24T18:13:59.999Z</time></trkpt><trkpt lat="43.18224251195672" lon="13.25395198811207"><ele>236.0</ele><time>2026-04-24T18:14:00.999Z</time></trkpt><trkpt lat="43.18238147804095" lon="13.254035044921272"><ele>236.0</ele><time>2026-04-24T18:14:01.999Z</time></trkpt><trkpt lat="43.182519620008655" lon="13.254121139769794"><ele>235.25</ele><time>2026-04-24T18:14:02.999Z</time></trkpt><trkpt lat="43.182657086431206" lon="13.254207366147437"><ele>234.5</ele><time>2026-04-24T18:14:03.999Z</time></trkpt><trkpt lat="43.18278659189265" lon="13.25428866149934"><ele>233.75</ele><time>2026-04-24T18:14:04.999Z</time></trkpt><trkpt lat="43.182902957672496" lon="13.25436585630403"><ele>233.0</ele><time>2026-04-24T18:14:05.999Z</time></trkpt><trkpt lat="43.18298539425804" lon="13.254475681065035"><ele>233.00000000000003</ele><time>2026-04-24T18:14:06.999Z</time></trkpt><trkpt lat="43.18306364248611" lon="13.254545442725329"><ele>233.0</ele><time>2026-04-24T18:14:07.999Z</time></trkpt><trkpt lat="43.18309745258441" lon="13.254640303339933"><ele>233.0</ele><time>2026-04-24T18:14:08.999Z</time></trkpt><trkpt lat="43.183116846415274" lon="13.254749541079336"><ele>233.0</ele><time>2026-04-24T18:14:09.999Z</time></trkpt><trkpt lat="43.18312216947327" lon="13.254873518129578"><ele>233.00000000000003</ele><time>2026-04-24T18:14:10.999Z</time></trkpt><trkpt lat="43.183142448828676" lon="13.254990637986468"><ele>233.0</ele><time>2026-04-24T18:14:11.999Z</time></trkpt><trkpt lat="43.18320198333621" lon="13.25508445362136"><ele>232.25</ele><time>2026-04-24T18:14:12.999Z</time></trkpt><trkpt lat="43.183290017335736" lon="13.255158639873308"><ele>231.5</ele><time>2026-04-24T18:14:13.999Z</time></trkpt><trkpt lat="43.18338711713803" lon="13.255199573966143"><ele>230.75</ele><time>2026-04-24T18:14:14.999Z</time></trkpt><trkpt lat="43.18340690945895" lon="13.255384290322956"><ele>230.0</ele><time>2026-04-24T18:14:15.999Z</time></trkpt><trkpt lat="43.183449645332146" lon="13.255540140011542"><ele>230.0</ele><time>2026-04-24T18:14:16.999Z</time></trkpt><trkpt lat="43.18349723680561" lon="13.255708850192633"><ele>230.0</ele><time>2026-04-24T18:14:17.999Z</time></trkpt><trkpt lat="43.183545583331146" lon="13.255876875435328"><ele>230.0</ele><time>2026-04-24T18:14:18.999Z</time></trkpt><trkpt lat="43.183595834116126" lon="13.256051497393852"><ele>230.0</ele><time>2026-04-24T18:14:19.999Z</time></trkpt><trkpt lat="43.18364708126305" lon="13.256227834850755"><ele>230.0</ele><time>2026-04-24T18:14:20.999Z</time></trkpt><trkpt lat="43.18369770596372" lon="13.256411845066339"><ele>230.0</ele><time>2026-04-24T18:14:21.999Z</time></trkpt><trkpt lat="43.183742152851835" lon="13.256595079042798"><ele>230.0</ele><time>2026-04-24T18:14:22.999Z</time></trkpt><trkpt lat="43.18378406540879" lon="13.256781422282296"><ele>230.0</ele><time>2026-04-24T18:14:23.999Z</time></trkpt><trkpt lat="43.183823441154345" lon="13.256965321808934"><ele>229.75</ele><time>2026-04-24T18:14:24.999Z</time></trkpt><trkpt lat="43.18386314337868" lon="13.257149906731977"><ele>229.5</ele><time>2026-04-24T18:14:25.999Z</time></trkpt><trkpt lat="43.1839011455701" lon="13.25733236044057"><ele>229.25</ele><time>2026-04-24T18:14:26.999Z</time></trkpt><trkpt lat="43.18393623778225" lon="13.257514662136565"><ele>229.0</ele><time>2026-04-24T18:14:27.999Z</time></trkpt><trkpt lat="43.18396874283985" lon="13.257702090996546"><ele>228.75</ele><time>2026-04-24T18:14:28.999Z</time></trkpt><trkpt lat="43.18399359980455" lon="13.25788741212639"><ele>228.5</ele><time>2026-04-24T18:14:29.999Z</time></trkpt><trkpt lat="43.1840134550492" lon="13.258079477745413"><ele>228.25</ele><time>2026-04-24T18:14:30.999Z</time></trkpt><trkpt lat="43.18402856344075" lon="13.258271488484652"><ele>228.0</ele><time>2026-04-24T18:14:31.999Z</time></trkpt><trkpt lat="43.18404246394058" lon="13.258456126883788"><ele>229.5</ele><time>2026-04-24T18:14:32.999Z</time></trkpt><trkpt lat="43.184053859438144" lon="13.25863739089985"><ele>231.0</ele><time>2026-04-24T18:14:33.999Z</time></trkpt><trkpt lat="43.184069165067655" lon="13.258820536694092"><ele>232.5</ele><time>2026-04-24T18:14:34.999Z</time></trkpt><trkpt lat="43.18411534324956" lon="13.258987605427574"><ele>234.0</ele><time>2026-04-24T18:14:35.999Z</time></trkpt><trkpt lat="43.18415894350606" lon="13.259145400714877"><ele>234.0</ele><time>2026-04-24T18:14:36.999Z</time></trkpt><trkpt lat="43.18421517941931" lon="13.259297798365582"><ele>234.0</ele><time>2026-04-24T18:14:37.999Z</time></trkpt><trkpt lat="43.18426884344647" lon="13.259456589100397"><ele>234.0</ele><time>2026-04-24T18:14:38.999Z</time></trkpt><trkpt lat="43.18434513070454" lon="13.259593093400694"><ele>234.0</ele><time>2026-04-24T18:14:39.999Z</time></trkpt><trkpt lat="43.18442682312257" lon="13.259731199986955"><ele>234.0</ele><time>2026-04-24T18:14:40.999Z</time></trkpt><trkpt lat="43.18451223378018" lon="13.25986613755862"><ele>234.0</ele><time>2026-04-24T18:14:41.999Z</time></trkpt><trkpt lat="43.184605381302745" lon="13.260000297542856"><ele>234.0</ele><time>2026-04-24T18:14:42.999Z</time></trkpt><trkpt lat="43.184701533014895" lon="13.260134760297806"><ele>234.0</ele><time>2026-04-24T18:14:43.999Z</time></trkpt><trkpt lat="43.184797834588636" lon="13.260273974107978"><ele>234.5</ele><time>2026-04-24T18:14:44.999Z</time></trkpt><trkpt lat="43.184889601250816" lon="13.260408258450166"><ele>235.0</ele><time>2026-04-24T18:14:45.998Z</time></trkpt><trkpt lat="43.18498570397502" lon="13.26054477576588"><ele>235.5</ele><time>2026-04-24T18:14:46.998Z</time></trkpt><trkpt lat="43.185077958141754" lon="13.260676539726594"><ele>236.0</ele><time>2026-04-24T18:14:47.998Z</time></trkpt><trkpt lat="43.18517107183079" lon="13.260809531225743"><ele>236.25</ele><time>2026-04-24T18:14:48.998Z</time></trkpt><trkpt lat="43.18526561967002" lon="13.260944571144336"><ele>236.5</ele><time>2026-04-24T18:14:49.998Z</time></trkpt><trkpt lat="43.1853568141604" lon="13.261074820220077"><ele>236.75</ele><time>2026-04-24T18:14:50.998Z</time></trkpt><trkpt lat="43.18545868183652" lon="13.261194848477032"><ele>237.0</ele><time>2026-04-24T18:14:51.998Z</time></trkpt><trkpt lat="43.18555371015616" lon="13.261334084267922"><ele>237.0</ele><time>2026-04-24T18:14:52.998Z</time></trkpt><trkpt lat="43.18565114658594" lon="13.261472117284592"><ele>237.0</ele><time>2026-04-24T18:14:53.998Z</time></trkpt><trkpt lat="43.18574262337712" lon="13.261606578986964"><ele>237.0</ele><time>2026-04-24T18:14:55Z</time></trkpt><trkpt lat="43.185835808329685" lon="13.261739310049833"><ele>237.0</ele><time>2026-04-24T18:14:56Z</time></trkpt><trkpt lat="43.1859263940691" lon="13.261874574167704"><ele>237.25</ele><time>2026-04-24T18:14:57Z</time></trkpt><trkpt lat="43.18601529172573" lon="13.262007022137466"><ele>237.5</ele><time>2026-04-24T18:14:58Z</time></trkpt><trkpt lat="43.186107890692654" lon="13.262148394787351"><ele>237.75</ele><time>2026-04-24T18:14:59Z</time></trkpt><trkpt lat="43.18619952626923" lon="13.26228428064315"><ele>238.0</ele><time>2026-04-24T18:15:00Z</time></trkpt><trkpt lat="43.18628758693058" lon="13.262428776750543"><ele>238.0</ele><time>2026-04-24T18:15:01Z</time></trkpt><trkpt lat="43.186372914955705" lon="13.262576555026957"><ele>238.0</ele><time>2026-04-24T18:15:02Z</time></trkpt><trkpt lat="43.18645185742504" lon="13.262722906594067"><ele>238.0</ele><time>2026-04-24T18:15:03Z</time></trkpt><trkpt lat="43.18653776951952" lon="13.26287489327071"><ele>238.0</ele><time>2026-04-24T18:15:04Z</time></trkpt><trkpt lat="43.18662382769963" lon="13.263030026483115"><ele>237.5</ele><time>2026-04-24T18:15:05Z</time></trkpt><trkpt lat="43.18669138949837" lon="13.26319178353046"><ele>237.0</ele><time>2026-04-24T18:15:06Z</time></trkpt><trkpt lat="43.18677217350439" lon="13.263346469599293"><ele>236.5</ele><time>2026-04-24T18:15:07Z</time></trkpt><trkpt lat="43.18685039412432" lon="13.263496480978718"><ele>236.0</ele><time>2026-04-24T18:15:08Z</time></trkpt><trkpt lat="43.18692502418712" lon="13.263650712086635"><ele>236.0</ele><time>2026-04-24T18:15:09Z</time></trkpt><trkpt lat="43.186990093365395" lon="13.263807726361469"><ele>236.0</ele><time>2026-04-24T18:15:10Z</time></trkpt><trkpt lat="43.187042478244614" lon="13.263981964236317"><ele>236.0</ele><time>2026-04-24T18:15:11Z</time></trkpt><trkpt lat="43.18708178445766" lon="13.26416357299636"><ele>236.0</ele><time>2026-04-24T18:15:12Z</time></trkpt><trkpt lat="43.18711246976894" lon="13.264352757428508"><ele>235.25</ele><time>2026-04-24T18:15:13Z</time></trkpt><trkpt lat="43.18715354160913" lon="13.264527286014514"><ele>234.5</ele><time>2026-04-24T18:15:14Z</time></trkpt><trkpt lat="43.18719134433586" lon="13.264686327770159"><ele>233.75</ele><time>2026-04-24T18:15:15Z</time></trkpt><trkpt lat="43.18725463764999" lon="13.264826715066267"><ele>233.0</ele><time>2026-04-24T18:15:16Z</time></trkpt><trkpt lat="43.18735272761598" lon="13.26494928725357"><ele>233.0</ele><time>2026-04-24T18:15:17Z</time></trkpt><trkpt lat="43.187471490903796" lon="13.265046255140597"><ele>233.0</ele><time>2026-04-24T18:15:18Z</time></trkpt><trkpt lat="43.18760307322686" lon="13.265127653259015"><ele>233.0</ele><time>2026-04-24T18:15:18.999Z</time></trkpt><trkpt lat="43.187735680795534" lon="13.265204503321247"><ele>233.0</ele><time>2026-04-24T18:15:19.999Z</time></trkpt><trkpt lat="43.187867515895654" lon="13.265289274911876"><ele>233.0</ele><time>2026-04-24T18:15:20.999Z</time></trkpt><trkpt lat="43.18799985308246" lon="13.265377957289422"><ele>233.0</ele><time>2026-04-24T18:15:21.999Z</time></trkpt><trkpt lat="43.18812976895229" lon="13.265463734228938"><ele>233.0</ele><time>2026-04-24T18:15:22.999Z</time></trkpt><trkpt lat="43.1882565582607" lon="13.265545347715749"><ele>233.0</ele><time>2026-04-24T18:15:23.999Z</time></trkpt><trkpt lat="43.188370629399216" lon="13.265619776520996"><ele>231.5</ele><time>2026-04-24T18:15:24.999Z</time></trkpt><trkpt lat="43.18847720834646" lon="13.265687260192113"><ele>230.0</ele><time>2026-04-24T18:15:25.999Z</time></trkpt><trkpt lat="43.18858406393833" lon="13.265755365282196"><ele>228.5</ele><time>2026-04-24T18:15:26.999Z</time></trkpt><trkpt lat="43.18869476101357" lon="13.265830294664868"><ele>227.0</ele><time>2026-04-24T18:15:27.999Z</time></trkpt><trkpt lat="43.18880542892063" lon="13.26590661599146"><ele>227.0</ele><time>2026-04-24T18:15:28.999Z</time></trkpt><trkpt lat="43.1889207937301" lon="13.26598417755222"><ele>227.0</ele><time>2026-04-24T18:15:29.999Z</time></trkpt><trkpt lat="43.18903984853586" lon="13.266062624082256"><ele>227.0</ele><time>2026-04-24T18:15:30.999Z</time></trkpt><trkpt lat="43.189160678973046" lon="13.26613958681179"><ele>227.0</ele><time>2026-04-24T18:15:31.999Z</time></trkpt><trkpt lat="43.18927007042348" lon="13.266236543082993"><ele>227.0</ele><time>2026-04-24T18:15:32.999Z</time></trkpt><trkpt lat="43.18938981308903" lon="13.266317282078086"><ele>227.0</ele><time>2026-04-24T18:15:33.999Z</time></trkpt><trkpt lat="43.1895164199566" lon="13.266381541860923"><ele>227.0</ele><time>2026-04-24T18:15:34.999Z</time></trkpt><trkpt lat="43.18963542183592" lon="13.266466959861305"><ele>227.0</ele><time>2026-04-24T18:15:35.999Z</time></trkpt><trkpt lat="43.189745121720875" lon="13.26657429566971"><ele>225.75</ele><time>2026-04-24T18:15:36.999Z</time></trkpt><trkpt lat="43.18986725189318" lon="13.26664179283047"><ele>224.5</ele><time>2026-04-24T18:15:37.999Z</time></trkpt><trkpt lat="43.18998120237372" lon="13.266732117414552"><ele>223.25</ele><time>2026-04-24T18:15:38.999Z</time></trkpt><trkpt lat="43.1900912004092" lon="13.266814347292803"><ele>222.0</ele><time>2026-04-24T18:15:39.999Z</time></trkpt><trkpt lat="43.19019836928791" lon="13.266893141762543"><ele>222.0</ele><time>2026-04-24T18:15:40.999Z</time></trkpt><trkpt lat="43.190312379196776" lon="13.266975499447474"><ele>222.0</ele><time>2026-04-24T18:15:41.999Z</time></trkpt><trkpt lat="43.19042587731586" lon="13.267055246049559"><ele>222.0</ele><time>2026-04-24T18:15:42.999Z</time></trkpt><trkpt lat="43.19054705484777" lon="13.267134008777653"><ele>222.0</ele><time>2026-04-24T18:15:43.999Z</time></trkpt><trkpt lat="43.19067188360716" lon="13.267197761581526"><ele>221.25</ele><time>2026-04-24T18:15:44.999Z</time></trkpt><trkpt lat="43.19080307920512" lon="13.26724577695845"><ele>220.5</ele><time>2026-04-24T18:15:45.999Z</time></trkpt><trkpt lat="43.1909346515883" lon="13.267279733449001"><ele>219.75</ele><time>2026-04-24T18:15:46.999Z</time></trkpt><trkpt lat="43.191063977240844" lon="13.267298367060343"><ele>219.0</ele><time>2026-04-24T18:15:47.999Z</time></trkpt><trkpt lat="43.19119446159854" lon="13.26731586756024"><ele>218.5</ele><time>2026-04-24T18:15:48.999Z</time></trkpt><trkpt lat="43.19132323824642" lon="13.267338208543249"><ele>218.0</ele><time>2026-04-24T18:15:49.999Z</time></trkpt><trkpt lat="43.19145142072177" lon="13.267362259983775"><ele>217.5</ele><time>2026-04-24T18:15:50.999Z</time></trkpt><trkpt lat="43.19158011489821" lon="13.267388199034176"><ele>217.0</ele><time>2026-04-24T18:15:51.999Z</time></trkpt><trkpt lat="43.191693940802" lon="13.26740421673348"><ele>216.8</ele><time>2026-04-24T18:15:52.999Z</time></trkpt><trkpt lat="43.19179183953486" lon="13.267419579914506"><ele>216.6</ele><time>2026-04-24T18:15:53.999Z</time></trkpt><trkpt lat="43.191870530220086" lon="13.2674328847154"><ele>216.40000000000003</ele><time>2026-04-24T18:15:54.999Z</time></trkpt><trkpt lat="43.191938506056395" lon="13.267438021566155"><ele>216.20000000000002</ele><time>2026-04-24T18:15:55.999Z</time></trkpt><trkpt lat="43.19203604112185" lon="13.267465168436955"><ele>216.0</ele><time>2026-04-24T18:15:57.999Z</time></trkpt><trkpt lat="43.192066935534356" lon="13.267247408403623"><ele>216.0</ele><time>2026-04-24T18:15:59.999Z</time></trkpt><trkpt lat="43.19208837520119" lon="13.267104376317288"><ele>216.0</ele><time>2026-04-24T18:16:01.999Z</time></trkpt><trkpt lat="43.1919904625967" lon="13.267167837845102"><ele>216.0</ele><time>2026-04-24T18:16:04.999Z</time></trkpt><trkpt lat="43.19195816056131" lon="13.267252261677214"><ele>216.0</ele><time>2026-04-24T18:16:05.999Z</time></trkpt><trkpt lat="43.191903539734476" lon="13.267323676815934"><ele>216.0</ele><time>2026-04-24T18:16:06.999Z</time></trkpt><trkpt lat="43.19181928354614" lon="13.267354770068515"><ele>216.0</ele><time>2026-04-24T18:16:07.999Z</time></trkpt><trkpt lat="43.191717998035465" lon="13.267367896694681"><ele>215.83333333333334</ele><time>2026-04-24T18:16:08.999Z</time></trkpt><trkpt lat="43.19164185284516" lon="13.267388254171012"><ele>215.66666666666669</ele><time>2026-04-24T18:16:09.999Z</time></trkpt><trkpt lat="43.191565413419085" lon="13.267343057034921"><ele>215.5</ele><time>2026-04-24T18:16:10.999Z</time></trkpt><trkpt lat="43.19150491088842" lon="13.26731323223463"><ele>215.33333333333334</ele><time>2026-04-24T18:16:11.999Z</time></trkpt><trkpt lat="43.19146431725071" lon="13.267245791665198"><ele>215.16666666666669</ele><time>2026-04-24T18:16:12.999Z</time></trkpt><trkpt lat="43.191437049555546" lon="13.26707868701653"><ele>215.0</ele><time>2026-04-24T18:16:14.999Z</time></trkpt><trkpt lat="43.191500190659156" lon="13.267026077576485"><ele>219.0</ele><time>2026-04-24T18:16:16.999Z</time></trkpt><trkpt lat="43.1915550641305" lon="13.266950204069357"><ele>216.0</ele><time>2026-04-24T18:16:18.999Z</time></trkpt><trkpt lat="43.19151353999638" lon="13.266821633489338"><ele>216.0</ele><time>2026-04-24T18:16:20.999Z</time></trkpt></trkseg></trk></gpx>